<?xml version="1.0" encoding="UTF-8" standalone="no" ?>
<gpx xmlns="http://www.topografix.com/GPX/1/1" xmlns:xsi="http://www.w3.org/2001/XMLSchema-instance" xsi:schemaLocation="http://www.topografix.com/GPX/1/1 http://www.topografix.com/GPX/1/1/gpx.xsd" version="1.1" creator="VisuGPX - https://www.visugpx.com">
  <metadata>
    <name>Collet d?Allevard</name>
  </metadata>
  <trk>
    <name><![CDATA[Collet d’Allevard]]></name>
    <trkseg>
      <trkpt lat="45.40595" lon="6.13136">
        <ele>1554</ele>
        <time>2021-02-03T08:27:16Z</time>
      </trkpt>
      <trkpt lat="45.40614" lon="6.13136">
        <ele>1551.3</ele>
        <time>2021-02-03T08:27:17Z</time>
      </trkpt>
      <trkpt lat="45.40617" lon="6.13137">
        <ele>1549.8</ele>
        <time>2021-02-03T08:27:18Z</time>
      </trkpt>
      <trkpt lat="45.40623" lon="6.13138">
        <ele>1548.7</ele>
        <time>2021-02-03T08:27:19Z</time>
      </trkpt>
      <trkpt lat="45.40623" lon="6.13138">
        <ele>1548.7</ele>
        <time>2021-02-03T08:27:20Z</time>
      </trkpt>
      <trkpt lat="45.40623" lon="6.13138">
        <ele>1548.7</ele>
        <time>2021-02-03T08:27:21Z</time>
      </trkpt>
      <trkpt lat="45.40617" lon="6.13136">
        <ele>1549.8</ele>
        <time>2021-02-03T08:27:23Z</time>
      </trkpt>
      <trkpt lat="45.40617" lon="6.13136">
        <ele>1549.8</ele>
        <time>2021-02-03T08:27:24Z</time>
      </trkpt>
      <trkpt lat="45.40624" lon="6.13139">
        <ele>1548.7</ele>
        <time>2021-02-03T08:27:45Z</time>
      </trkpt>
      <trkpt lat="45.40624" lon="6.1314">
        <ele>1548.7</ele>
        <time>2021-02-03T08:27:46Z</time>
      </trkpt>
      <trkpt lat="45.40624" lon="6.1314">
        <ele>1548.7</ele>
        <time>2021-02-03T08:27:47Z</time>
      </trkpt>
      <trkpt lat="45.40622" lon="6.13139">
        <ele>1549.2</ele>
        <time>2021-02-03T08:27:48Z</time>
      </trkpt>
      <trkpt lat="45.40621" lon="6.13139">
        <ele>1549.2</ele>
        <time>2021-02-03T08:27:49Z</time>
      </trkpt>
      <trkpt lat="45.40621" lon="6.13139">
        <ele>1549.2</ele>
        <time>2021-02-03T08:27:50Z</time>
      </trkpt>
      <trkpt lat="45.4062" lon="6.13138">
        <ele>1549.2</ele>
        <time>2021-02-03T08:27:51Z</time>
      </trkpt>
      <trkpt lat="45.4062" lon="6.13138">
        <ele>1549.2</ele>
        <time>2021-02-03T08:27:52Z</time>
      </trkpt>
      <trkpt lat="45.40619" lon="6.13138">
        <ele>1549.8</ele>
        <time>2021-02-03T08:27:53Z</time>
      </trkpt>
      <trkpt lat="45.40618" lon="6.13138">
        <ele>1549.8</ele>
        <time>2021-02-03T08:27:54Z</time>
      </trkpt>
      <trkpt lat="45.40618" lon="6.13138">
        <ele>1549.8</ele>
        <time>2021-02-03T08:27:55Z</time>
      </trkpt>
      <trkpt lat="45.40617" lon="6.13137">
        <ele>1549.8</ele>
        <time>2021-02-03T08:27:56Z</time>
      </trkpt>
      <trkpt lat="45.40616" lon="6.13137">
        <ele>1550.8</ele>
        <time>2021-02-03T08:27:57Z</time>
      </trkpt>
      <trkpt lat="45.40616" lon="6.13137">
        <ele>1550.8</ele>
        <time>2021-02-03T08:27:58Z</time>
      </trkpt>
      <trkpt lat="45.40615" lon="6.13137">
        <ele>1550.8</ele>
        <time>2021-02-03T08:28:28Z</time>
      </trkpt>
      <trkpt lat="45.40614" lon="6.13137">
        <ele>1550.8</ele>
        <time>2021-02-03T08:28:29Z</time>
      </trkpt>
      <trkpt lat="45.40613" lon="6.13136">
        <ele>1551.9</ele>
        <time>2021-02-03T08:28:30Z</time>
      </trkpt>
      <trkpt lat="45.40612" lon="6.13135">
        <ele>1551.9</ele>
        <time>2021-02-03T08:28:31Z</time>
      </trkpt>
      <trkpt lat="45.4061" lon="6.13134">
        <ele>1552.4</ele>
        <time>2021-02-03T08:28:32Z</time>
      </trkpt>
      <trkpt lat="45.40609" lon="6.13133">
        <ele>1552.4</ele>
        <time>2021-02-03T08:28:33Z</time>
      </trkpt>
      <trkpt lat="45.40608" lon="6.13133">
        <ele>1552.4</ele>
        <time>2021-02-03T08:28:34Z</time>
      </trkpt>
      <trkpt lat="45.40607" lon="6.13132">
        <ele>1553</ele>
        <time>2021-02-03T08:28:35Z</time>
      </trkpt>
      <trkpt lat="45.40606" lon="6.13132">
        <ele>1553</ele>
        <time>2021-02-03T08:28:36Z</time>
      </trkpt>
      <trkpt lat="45.40606" lon="6.13132">
        <ele>1553</ele>
        <time>2021-02-03T08:28:37Z</time>
      </trkpt>
      <trkpt lat="45.40606" lon="6.13132">
        <ele>1553</ele>
        <time>2021-02-03T08:28:38Z</time>
      </trkpt>
      <trkpt lat="45.40606" lon="6.13132">
        <ele>1553</ele>
        <time>2021-02-03T08:28:39Z</time>
      </trkpt>
      <trkpt lat="45.40605" lon="6.13132">
        <ele>1553</ele>
        <time>2021-02-03T08:28:40Z</time>
      </trkpt>
      <trkpt lat="45.40604" lon="6.13131">
        <ele>1554</ele>
        <time>2021-02-03T08:28:41Z</time>
      </trkpt>
      <trkpt lat="45.40603" lon="6.13131">
        <ele>1554</ele>
        <time>2021-02-03T08:28:42Z</time>
      </trkpt>
      <trkpt lat="45.40603" lon="6.13131">
        <ele>1554</ele>
        <time>2021-02-03T08:28:43Z</time>
      </trkpt>
      <trkpt lat="45.40603" lon="6.13131">
        <ele>1554</ele>
        <time>2021-02-03T08:28:44Z</time>
      </trkpt>
      <trkpt lat="45.40602" lon="6.1313">
        <ele>1554</ele>
        <time>2021-02-03T08:28:45Z</time>
      </trkpt>
      <trkpt lat="45.40601" lon="6.13128">
        <ele>1554.5</ele>
        <time>2021-02-03T08:28:46Z</time>
      </trkpt>
      <trkpt lat="45.406" lon="6.13128">
        <ele>1554.5</ele>
        <time>2021-02-03T08:28:47Z</time>
      </trkpt>
      <trkpt lat="45.40599" lon="6.13127">
        <ele>1555.1</ele>
        <time>2021-02-03T08:28:48Z</time>
      </trkpt>
      <trkpt lat="45.40598" lon="6.13126">
        <ele>1555.6</ele>
        <time>2021-02-03T08:28:49Z</time>
      </trkpt>
      <trkpt lat="45.40596" lon="6.13125">
        <ele>1555.6</ele>
        <time>2021-02-03T08:28:50Z</time>
      </trkpt>
      <trkpt lat="45.40595" lon="6.13125">
        <ele>1556</ele>
        <time>2021-02-03T08:28:51Z</time>
      </trkpt>
      <trkpt lat="45.40594" lon="6.13125">
        <ele>1556</ele>
        <time>2021-02-03T08:28:52Z</time>
      </trkpt>
      <trkpt lat="45.40593" lon="6.13124">
        <ele>1556</ele>
        <time>2021-02-03T08:28:53Z</time>
      </trkpt>
      <trkpt lat="45.40592" lon="6.13124">
        <ele>1556.5</ele>
        <time>2021-02-03T08:28:54Z</time>
      </trkpt>
      <trkpt lat="45.40591" lon="6.13123">
        <ele>1557</ele>
        <time>2021-02-03T08:28:55Z</time>
      </trkpt>
      <trkpt lat="45.4059" lon="6.13122">
        <ele>1557</ele>
        <time>2021-02-03T08:28:56Z</time>
      </trkpt>
      <trkpt lat="45.40589" lon="6.13121">
        <ele>1557</ele>
        <time>2021-02-03T08:28:57Z</time>
      </trkpt>
      <trkpt lat="45.40588" lon="6.1312">
        <ele>1557.5</ele>
        <time>2021-02-03T08:28:58Z</time>
      </trkpt>
      <trkpt lat="45.40588" lon="6.13119">
        <ele>1557.5</ele>
        <time>2021-02-03T08:28:59Z</time>
      </trkpt>
      <trkpt lat="45.40587" lon="6.13117">
        <ele>1558.1</ele>
        <time>2021-02-03T08:29:00Z</time>
      </trkpt>
      <trkpt lat="45.40586" lon="6.13115">
        <ele>1558.6</ele>
        <time>2021-02-03T08:29:01Z</time>
      </trkpt>
      <trkpt lat="45.40585" lon="6.13114">
        <ele>1559.1</ele>
        <time>2021-02-03T08:29:02Z</time>
      </trkpt>
      <trkpt lat="45.40584" lon="6.13112">
        <ele>1559.1</ele>
        <time>2021-02-03T08:29:03Z</time>
      </trkpt>
      <trkpt lat="45.40583" lon="6.1311">
        <ele>1559.6</ele>
        <time>2021-02-03T08:29:04Z</time>
      </trkpt>
      <trkpt lat="45.40582" lon="6.13108">
        <ele>1560.2</ele>
        <time>2021-02-03T08:29:05Z</time>
      </trkpt>
      <trkpt lat="45.40581" lon="6.13107">
        <ele>1560.2</ele>
        <time>2021-02-03T08:29:06Z</time>
      </trkpt>
      <trkpt lat="45.40581" lon="6.13105">
        <ele>1560.8</ele>
        <time>2021-02-03T08:29:07Z</time>
      </trkpt>
      <trkpt lat="45.4058" lon="6.13104">
        <ele>1561.3</ele>
        <time>2021-02-03T08:29:08Z</time>
      </trkpt>
      <trkpt lat="45.40579" lon="6.13102">
        <ele>1561.3</ele>
        <time>2021-02-03T08:29:09Z</time>
      </trkpt>
      <trkpt lat="45.40578" lon="6.13101">
        <ele>1561.9</ele>
        <time>2021-02-03T08:29:10Z</time>
      </trkpt>
      <trkpt lat="45.40576" lon="6.13099">
        <ele>1562.3</ele>
        <time>2021-02-03T08:29:11Z</time>
      </trkpt>
      <trkpt lat="45.40575" lon="6.13098">
        <ele>1562.3</ele>
        <time>2021-02-03T08:29:12Z</time>
      </trkpt>
      <trkpt lat="45.40574" lon="6.13096">
        <ele>1563.2</ele>
        <time>2021-02-03T08:29:13Z</time>
      </trkpt>
      <trkpt lat="45.40573" lon="6.13095">
        <ele>1563.2</ele>
        <time>2021-02-03T08:29:14Z</time>
      </trkpt>
      <trkpt lat="45.40571" lon="6.13094">
        <ele>1563.2</ele>
        <time>2021-02-03T08:29:15Z</time>
      </trkpt>
      <trkpt lat="45.40571" lon="6.13092">
        <ele>1564.1</ele>
        <time>2021-02-03T08:29:16Z</time>
      </trkpt>
      <trkpt lat="45.4057" lon="6.1309">
        <ele>1564.1</ele>
        <time>2021-02-03T08:29:17Z</time>
      </trkpt>
      <trkpt lat="45.4057" lon="6.13089">
        <ele>1564.1</ele>
        <time>2021-02-03T08:29:18Z</time>
      </trkpt>
      <trkpt lat="45.40569" lon="6.13087">
        <ele>1564.7</ele>
        <time>2021-02-03T08:29:19Z</time>
      </trkpt>
      <trkpt lat="45.40568" lon="6.13085">
        <ele>1564.7</ele>
        <time>2021-02-03T08:29:20Z</time>
      </trkpt>
      <trkpt lat="45.40568" lon="6.13084">
        <ele>1565.6</ele>
        <time>2021-02-03T08:29:21Z</time>
      </trkpt>
      <trkpt lat="45.40567" lon="6.13083">
        <ele>1565.6</ele>
        <time>2021-02-03T08:29:22Z</time>
      </trkpt>
      <trkpt lat="45.40566" lon="6.13081">
        <ele>1565.6</ele>
        <time>2021-02-03T08:29:23Z</time>
      </trkpt>
      <trkpt lat="45.40565" lon="6.1308">
        <ele>1566.5</ele>
        <time>2021-02-03T08:29:24Z</time>
      </trkpt>
      <trkpt lat="45.40565" lon="6.13079">
        <ele>1566.5</ele>
        <time>2021-02-03T08:29:25Z</time>
      </trkpt>
      <trkpt lat="45.40564" lon="6.13078">
        <ele>1566.5</ele>
        <time>2021-02-03T08:29:26Z</time>
      </trkpt>
      <trkpt lat="45.40563" lon="6.13077">
        <ele>1566.5</ele>
        <time>2021-02-03T08:29:27Z</time>
      </trkpt>
      <trkpt lat="45.40562" lon="6.13076">
        <ele>1567.4</ele>
        <time>2021-02-03T08:29:28Z</time>
      </trkpt>
      <trkpt lat="45.40561" lon="6.13075">
        <ele>1567.4</ele>
        <time>2021-02-03T08:29:29Z</time>
      </trkpt>
      <trkpt lat="45.4056" lon="6.13073">
        <ele>1567.4</ele>
        <time>2021-02-03T08:29:30Z</time>
      </trkpt>
      <trkpt lat="45.4056" lon="6.13072">
        <ele>1567.4</ele>
        <time>2021-02-03T08:29:31Z</time>
      </trkpt>
      <trkpt lat="45.40559" lon="6.13071">
        <ele>1568.4</ele>
        <time>2021-02-03T08:29:32Z</time>
      </trkpt>
      <trkpt lat="45.40558" lon="6.13069">
        <ele>1568.4</ele>
        <time>2021-02-03T08:29:33Z</time>
      </trkpt>
      <trkpt lat="45.40557" lon="6.13067">
        <ele>1568.9</ele>
        <time>2021-02-03T08:29:34Z</time>
      </trkpt>
      <trkpt lat="45.40556" lon="6.13066">
        <ele>1568.9</ele>
        <time>2021-02-03T08:29:35Z</time>
      </trkpt>
      <trkpt lat="45.40556" lon="6.13065">
        <ele>1569.3</ele>
        <time>2021-02-03T08:29:36Z</time>
      </trkpt>
      <trkpt lat="45.40555" lon="6.13063">
        <ele>1569.9</ele>
        <time>2021-02-03T08:29:37Z</time>
      </trkpt>
      <trkpt lat="45.40554" lon="6.13062">
        <ele>1569.9</ele>
        <time>2021-02-03T08:29:38Z</time>
      </trkpt>
      <trkpt lat="45.40554" lon="6.13061">
        <ele>1569.9</ele>
        <time>2021-02-03T08:29:39Z</time>
      </trkpt>
      <trkpt lat="45.40553" lon="6.1306">
        <ele>1570.2</ele>
        <time>2021-02-03T08:29:40Z</time>
      </trkpt>
      <trkpt lat="45.40552" lon="6.13058">
        <ele>1570.8</ele>
        <time>2021-02-03T08:29:41Z</time>
      </trkpt>
      <trkpt lat="45.40551" lon="6.13057">
        <ele>1570.8</ele>
        <time>2021-02-03T08:29:42Z</time>
      </trkpt>
      <trkpt lat="45.4055" lon="6.13055">
        <ele>1571.1</ele>
        <time>2021-02-03T08:29:43Z</time>
      </trkpt>
      <trkpt lat="45.40549" lon="6.13054">
        <ele>1571.1</ele>
        <time>2021-02-03T08:29:44Z</time>
      </trkpt>
      <trkpt lat="45.40548" lon="6.13054">
        <ele>1571.6</ele>
        <time>2021-02-03T08:29:45Z</time>
      </trkpt>
      <trkpt lat="45.40547" lon="6.13052">
        <ele>1571.9</ele>
        <time>2021-02-03T08:29:46Z</time>
      </trkpt>
      <trkpt lat="45.40546" lon="6.13051">
        <ele>1571.9</ele>
        <time>2021-02-03T08:29:47Z</time>
      </trkpt>
      <trkpt lat="45.40546" lon="6.1305">
        <ele>1572.4</ele>
        <time>2021-02-03T08:29:48Z</time>
      </trkpt>
      <trkpt lat="45.40545" lon="6.13048">
        <ele>1572.4</ele>
        <time>2021-02-03T08:29:49Z</time>
      </trkpt>
      <trkpt lat="45.40544" lon="6.13047">
        <ele>1572.6</ele>
        <time>2021-02-03T08:29:50Z</time>
      </trkpt>
      <trkpt lat="45.40543" lon="6.13046">
        <ele>1572.6</ele>
        <time>2021-02-03T08:29:51Z</time>
      </trkpt>
      <trkpt lat="45.40542" lon="6.13044">
        <ele>1573.1</ele>
        <time>2021-02-03T08:29:52Z</time>
      </trkpt>
      <trkpt lat="45.40542" lon="6.13043">
        <ele>1573.1</ele>
        <time>2021-02-03T08:29:53Z</time>
      </trkpt>
      <trkpt lat="45.40541" lon="6.13042">
        <ele>1573.1</ele>
        <time>2021-02-03T08:29:54Z</time>
      </trkpt>
      <trkpt lat="45.4054" lon="6.13041">
        <ele>1573.9</ele>
        <time>2021-02-03T08:29:55Z</time>
      </trkpt>
      <trkpt lat="45.40539" lon="6.13039">
        <ele>1573.9</ele>
        <time>2021-02-03T08:29:56Z</time>
      </trkpt>
      <trkpt lat="45.40538" lon="6.13038">
        <ele>1573.9</ele>
        <time>2021-02-03T08:29:57Z</time>
      </trkpt>
      <trkpt lat="45.40538" lon="6.13037">
        <ele>1574.9</ele>
        <time>2021-02-03T08:29:58Z</time>
      </trkpt>
      <trkpt lat="45.40537" lon="6.13036">
        <ele>1574.9</ele>
        <time>2021-02-03T08:29:59Z</time>
      </trkpt>
      <trkpt lat="45.40536" lon="6.13035">
        <ele>1574.9</ele>
        <time>2021-02-03T08:30:00Z</time>
      </trkpt>
      <trkpt lat="45.40535" lon="6.13032">
        <ele>1575.7</ele>
        <time>2021-02-03T08:30:01Z</time>
      </trkpt>
      <trkpt lat="45.40534" lon="6.13031">
        <ele>1575.7</ele>
        <time>2021-02-03T08:30:02Z</time>
      </trkpt>
      <trkpt lat="45.40534" lon="6.1303">
        <ele>1575.7</ele>
        <time>2021-02-03T08:30:03Z</time>
      </trkpt>
      <trkpt lat="45.40533" lon="6.13029">
        <ele>1575.7</ele>
        <time>2021-02-03T08:30:04Z</time>
      </trkpt>
      <trkpt lat="45.40531" lon="6.13027">
        <ele>1576.6</ele>
        <time>2021-02-03T08:30:05Z</time>
      </trkpt>
      <trkpt lat="45.40529" lon="6.13026">
        <ele>1576.6</ele>
        <time>2021-02-03T08:30:06Z</time>
      </trkpt>
      <trkpt lat="45.40528" lon="6.13025">
        <ele>1577.1</ele>
        <time>2021-02-03T08:30:07Z</time>
      </trkpt>
      <trkpt lat="45.40527" lon="6.13024">
        <ele>1577.5</ele>
        <time>2021-02-03T08:30:08Z</time>
      </trkpt>
      <trkpt lat="45.40526" lon="6.13023">
        <ele>1577.5</ele>
        <time>2021-02-03T08:30:09Z</time>
      </trkpt>
      <trkpt lat="45.40526" lon="6.13022">
        <ele>1578</ele>
        <time>2021-02-03T08:30:10Z</time>
      </trkpt>
      <trkpt lat="45.40525" lon="6.1302">
        <ele>1578</ele>
        <time>2021-02-03T08:30:11Z</time>
      </trkpt>
      <trkpt lat="45.40525" lon="6.13018">
        <ele>1578.4</ele>
        <time>2021-02-03T08:30:12Z</time>
      </trkpt>
      <trkpt lat="45.40525" lon="6.13017">
        <ele>1578.4</ele>
        <time>2021-02-03T08:30:13Z</time>
      </trkpt>
      <trkpt lat="45.40525" lon="6.13016">
        <ele>1578.4</ele>
        <time>2021-02-03T08:30:14Z</time>
      </trkpt>
      <trkpt lat="45.40524" lon="6.13014">
        <ele>1578.7</ele>
        <time>2021-02-03T08:30:15Z</time>
      </trkpt>
      <trkpt lat="45.40524" lon="6.13013">
        <ele>1578.7</ele>
        <time>2021-02-03T08:30:16Z</time>
      </trkpt>
      <trkpt lat="45.40523" lon="6.13012">
        <ele>1578.7</ele>
        <time>2021-02-03T08:30:17Z</time>
      </trkpt>
      <trkpt lat="45.40522" lon="6.13011">
        <ele>1579.2</ele>
        <time>2021-02-03T08:30:18Z</time>
      </trkpt>
      <trkpt lat="45.40521" lon="6.1301">
        <ele>1579.6</ele>
        <time>2021-02-03T08:30:19Z</time>
      </trkpt>
      <trkpt lat="45.4052" lon="6.13009">
        <ele>1580</ele>
        <time>2021-02-03T08:30:20Z</time>
      </trkpt>
      <trkpt lat="45.40519" lon="6.13009">
        <ele>1580</ele>
        <time>2021-02-03T08:30:21Z</time>
      </trkpt>
      <trkpt lat="45.40518" lon="6.13008">
        <ele>1580</ele>
        <time>2021-02-03T08:30:22Z</time>
      </trkpt>
      <trkpt lat="45.40517" lon="6.13007">
        <ele>1580.4</ele>
        <time>2021-02-03T08:30:23Z</time>
      </trkpt>
      <trkpt lat="45.40516" lon="6.13006">
        <ele>1580.8</ele>
        <time>2021-02-03T08:30:24Z</time>
      </trkpt>
      <trkpt lat="45.40515" lon="6.13005">
        <ele>1580.8</ele>
        <time>2021-02-03T08:30:25Z</time>
      </trkpt>
      <trkpt lat="45.40514" lon="6.13004">
        <ele>1580.8</ele>
        <time>2021-02-03T08:30:26Z</time>
      </trkpt>
      <trkpt lat="45.40513" lon="6.13003">
        <ele>1581.3</ele>
        <time>2021-02-03T08:30:27Z</time>
      </trkpt>
      <trkpt lat="45.40512" lon="6.13003">
        <ele>1581.6</ele>
        <time>2021-02-03T08:30:28Z</time>
      </trkpt>
      <trkpt lat="45.40511" lon="6.13002">
        <ele>1581.6</ele>
        <time>2021-02-03T08:30:29Z</time>
      </trkpt>
      <trkpt lat="45.4051" lon="6.13002">
        <ele>1582</ele>
        <time>2021-02-03T08:30:30Z</time>
      </trkpt>
      <trkpt lat="45.40509" lon="6.13001">
        <ele>1582</ele>
        <time>2021-02-03T08:30:31Z</time>
      </trkpt>
      <trkpt lat="45.40508" lon="6.13001">
        <ele>1582</ele>
        <time>2021-02-03T08:30:32Z</time>
      </trkpt>
      <trkpt lat="45.40507" lon="6.13001">
        <ele>1582.4</ele>
        <time>2021-02-03T08:30:33Z</time>
      </trkpt>
      <trkpt lat="45.40506" lon="6.13001">
        <ele>1582.4</ele>
        <time>2021-02-03T08:30:34Z</time>
      </trkpt>
      <trkpt lat="45.40505" lon="6.13">
        <ele>1582.8</ele>
        <time>2021-02-03T08:30:35Z</time>
      </trkpt>
      <trkpt lat="45.40504" lon="6.13">
        <ele>1582.8</ele>
        <time>2021-02-03T08:30:36Z</time>
      </trkpt>
      <trkpt lat="45.40503" lon="6.12999">
        <ele>1582.8</ele>
        <time>2021-02-03T08:30:37Z</time>
      </trkpt>
      <trkpt lat="45.40501" lon="6.12998">
        <ele>1583.5</ele>
        <time>2021-02-03T08:30:38Z</time>
      </trkpt>
      <trkpt lat="45.405" lon="6.12997">
        <ele>1583.5</ele>
        <time>2021-02-03T08:30:39Z</time>
      </trkpt>
      <trkpt lat="45.405" lon="6.12996">
        <ele>1583.5</ele>
        <time>2021-02-03T08:30:40Z</time>
      </trkpt>
      <trkpt lat="45.40499" lon="6.12996">
        <ele>1583.9</ele>
        <time>2021-02-03T08:30:41Z</time>
      </trkpt>
      <trkpt lat="45.40498" lon="6.12995">
        <ele>1583.9</ele>
        <time>2021-02-03T08:30:42Z</time>
      </trkpt>
      <trkpt lat="45.40496" lon="6.12995">
        <ele>1583.9</ele>
        <time>2021-02-03T08:30:43Z</time>
      </trkpt>
      <trkpt lat="45.40496" lon="6.12994">
        <ele>1584.3</ele>
        <time>2021-02-03T08:30:44Z</time>
      </trkpt>
      <trkpt lat="45.40495" lon="6.12994">
        <ele>1584.6</ele>
        <time>2021-02-03T08:30:45Z</time>
      </trkpt>
      <trkpt lat="45.40495" lon="6.12993">
        <ele>1584.6</ele>
        <time>2021-02-03T08:30:46Z</time>
      </trkpt>
      <trkpt lat="45.40494" lon="6.12993">
        <ele>1584.6</ele>
        <time>2021-02-03T08:30:47Z</time>
      </trkpt>
      <trkpt lat="45.40493" lon="6.12993">
        <ele>1584.6</ele>
        <time>2021-02-03T08:30:48Z</time>
      </trkpt>
      <trkpt lat="45.40493" lon="6.12992">
        <ele>1584.9</ele>
        <time>2021-02-03T08:30:49Z</time>
      </trkpt>
      <trkpt lat="45.40492" lon="6.12992">
        <ele>1584.9</ele>
        <time>2021-02-03T08:30:50Z</time>
      </trkpt>
      <trkpt lat="45.40491" lon="6.12992">
        <ele>1584.9</ele>
        <time>2021-02-03T08:30:51Z</time>
      </trkpt>
      <trkpt lat="45.4049" lon="6.12991">
        <ele>1584.9</ele>
        <time>2021-02-03T08:30:52Z</time>
      </trkpt>
      <trkpt lat="45.40489" lon="6.12991">
        <ele>1585.3</ele>
        <time>2021-02-03T08:30:53Z</time>
      </trkpt>
      <trkpt lat="45.40489" lon="6.1299">
        <ele>1585.6</ele>
        <time>2021-02-03T08:30:54Z</time>
      </trkpt>
      <trkpt lat="45.40488" lon="6.12989">
        <ele>1585.6</ele>
        <time>2021-02-03T08:30:55Z</time>
      </trkpt>
      <trkpt lat="45.40487" lon="6.12989">
        <ele>1585.6</ele>
        <time>2021-02-03T08:30:56Z</time>
      </trkpt>
      <trkpt lat="45.40486" lon="6.12988">
        <ele>1585.9</ele>
        <time>2021-02-03T08:30:57Z</time>
      </trkpt>
      <trkpt lat="45.40485" lon="6.12987">
        <ele>1585.9</ele>
        <time>2021-02-03T08:30:58Z</time>
      </trkpt>
      <trkpt lat="45.40484" lon="6.12987">
        <ele>1585.9</ele>
        <time>2021-02-03T08:30:59Z</time>
      </trkpt>
      <trkpt lat="45.40483" lon="6.12986">
        <ele>1586.2</ele>
        <time>2021-02-03T08:31:00Z</time>
      </trkpt>
      <trkpt lat="45.40482" lon="6.12986">
        <ele>1586.6</ele>
        <time>2021-02-03T08:31:01Z</time>
      </trkpt>
      <trkpt lat="45.40481" lon="6.12985">
        <ele>1586.6</ele>
        <time>2021-02-03T08:31:02Z</time>
      </trkpt>
      <trkpt lat="45.4048" lon="6.12985">
        <ele>1586.9</ele>
        <time>2021-02-03T08:31:03Z</time>
      </trkpt>
      <trkpt lat="45.40479" lon="6.12984">
        <ele>1586.9</ele>
        <time>2021-02-03T08:31:04Z</time>
      </trkpt>
      <trkpt lat="45.40477" lon="6.12983">
        <ele>1587.4</ele>
        <time>2021-02-03T08:31:05Z</time>
      </trkpt>
      <trkpt lat="45.40476" lon="6.12983">
        <ele>1587.4</ele>
        <time>2021-02-03T08:31:06Z</time>
      </trkpt>
      <trkpt lat="45.40476" lon="6.12982">
        <ele>1587.4</ele>
        <time>2021-02-03T08:31:07Z</time>
      </trkpt>
      <trkpt lat="45.40475" lon="6.12981">
        <ele>1588.2</ele>
        <time>2021-02-03T08:31:08Z</time>
      </trkpt>
      <trkpt lat="45.40474" lon="6.12981">
        <ele>1588.2</ele>
        <time>2021-02-03T08:31:09Z</time>
      </trkpt>
      <trkpt lat="45.40473" lon="6.1298">
        <ele>1588.2</ele>
        <time>2021-02-03T08:31:10Z</time>
      </trkpt>
      <trkpt lat="45.40472" lon="6.1298">
        <ele>1588.2</ele>
        <time>2021-02-03T08:31:11Z</time>
      </trkpt>
      <trkpt lat="45.40472" lon="6.12979">
        <ele>1588.7</ele>
        <time>2021-02-03T08:31:12Z</time>
      </trkpt>
      <trkpt lat="45.40471" lon="6.12979">
        <ele>1588.7</ele>
        <time>2021-02-03T08:31:13Z</time>
      </trkpt>
      <trkpt lat="45.4047" lon="6.12979">
        <ele>1588.7</ele>
        <time>2021-02-03T08:31:14Z</time>
      </trkpt>
      <trkpt lat="45.40469" lon="6.12978">
        <ele>1588.7</ele>
        <time>2021-02-03T08:31:15Z</time>
      </trkpt>
      <trkpt lat="45.40468" lon="6.12978">
        <ele>1589.2</ele>
        <time>2021-02-03T08:31:16Z</time>
      </trkpt>
      <trkpt lat="45.40467" lon="6.12977">
        <ele>1589.6</ele>
        <time>2021-02-03T08:31:17Z</time>
      </trkpt>
      <trkpt lat="45.40466" lon="6.12976">
        <ele>1589.6</ele>
        <time>2021-02-03T08:31:18Z</time>
      </trkpt>
      <trkpt lat="45.40465" lon="6.12976">
        <ele>1590.1</ele>
        <time>2021-02-03T08:31:19Z</time>
      </trkpt>
      <trkpt lat="45.40465" lon="6.12975">
        <ele>1590.1</ele>
        <time>2021-02-03T08:31:20Z</time>
      </trkpt>
      <trkpt lat="45.40464" lon="6.12975">
        <ele>1590.1</ele>
        <time>2021-02-03T08:31:21Z</time>
      </trkpt>
      <trkpt lat="45.40463" lon="6.12975">
        <ele>1590.1</ele>
        <time>2021-02-03T08:31:22Z</time>
      </trkpt>
      <trkpt lat="45.40462" lon="6.12974">
        <ele>1590.4</ele>
        <time>2021-02-03T08:31:23Z</time>
      </trkpt>
      <trkpt lat="45.40461" lon="6.12974">
        <ele>1590.4</ele>
        <time>2021-02-03T08:31:24Z</time>
      </trkpt>
      <trkpt lat="45.4046" lon="6.12974">
        <ele>1590.4</ele>
        <time>2021-02-03T08:31:25Z</time>
      </trkpt>
      <trkpt lat="45.40459" lon="6.12973">
        <ele>1590.8</ele>
        <time>2021-02-03T08:31:26Z</time>
      </trkpt>
      <trkpt lat="45.40458" lon="6.12973">
        <ele>1591.2</ele>
        <time>2021-02-03T08:31:27Z</time>
      </trkpt>
      <trkpt lat="45.40457" lon="6.12972">
        <ele>1591.2</ele>
        <time>2021-02-03T08:31:28Z</time>
      </trkpt>
      <trkpt lat="45.40456" lon="6.12972">
        <ele>1591.6</ele>
        <time>2021-02-03T08:31:29Z</time>
      </trkpt>
      <trkpt lat="45.40455" lon="6.12971">
        <ele>1591.6</ele>
        <time>2021-02-03T08:31:30Z</time>
      </trkpt>
      <trkpt lat="45.40454" lon="6.1297">
        <ele>1591.6</ele>
        <time>2021-02-03T08:31:31Z</time>
      </trkpt>
      <trkpt lat="45.40453" lon="6.1297">
        <ele>1591.9</ele>
        <time>2021-02-03T08:31:32Z</time>
      </trkpt>
      <trkpt lat="45.40452" lon="6.12969">
        <ele>1591.9</ele>
        <time>2021-02-03T08:31:33Z</time>
      </trkpt>
      <trkpt lat="45.40451" lon="6.12968">
        <ele>1592.4</ele>
        <time>2021-02-03T08:31:34Z</time>
      </trkpt>
      <trkpt lat="45.4045" lon="6.12967">
        <ele>1592.8</ele>
        <time>2021-02-03T08:31:35Z</time>
      </trkpt>
      <trkpt lat="45.40449" lon="6.12967">
        <ele>1592.8</ele>
        <time>2021-02-03T08:31:36Z</time>
      </trkpt>
      <trkpt lat="45.40448" lon="6.12966">
        <ele>1592.8</ele>
        <time>2021-02-03T08:31:37Z</time>
      </trkpt>
      <trkpt lat="45.40447" lon="6.12965">
        <ele>1593.2</ele>
        <time>2021-02-03T08:31:38Z</time>
      </trkpt>
      <trkpt lat="45.40446" lon="6.12965">
        <ele>1593.2</ele>
        <time>2021-02-03T08:31:39Z</time>
      </trkpt>
      <trkpt lat="45.40446" lon="6.12964">
        <ele>1593.2</ele>
        <time>2021-02-03T08:31:40Z</time>
      </trkpt>
      <trkpt lat="45.40445" lon="6.12964">
        <ele>1594.1</ele>
        <time>2021-02-03T08:31:41Z</time>
      </trkpt>
      <trkpt lat="45.40444" lon="6.12963">
        <ele>1594.1</ele>
        <time>2021-02-03T08:31:42Z</time>
      </trkpt>
      <trkpt lat="45.40443" lon="6.12963">
        <ele>1594.1</ele>
        <time>2021-02-03T08:31:43Z</time>
      </trkpt>
      <trkpt lat="45.40441" lon="6.12962">
        <ele>1594.5</ele>
        <time>2021-02-03T08:31:44Z</time>
      </trkpt>
      <trkpt lat="45.4044" lon="6.12961">
        <ele>1594.5</ele>
        <time>2021-02-03T08:31:45Z</time>
      </trkpt>
      <trkpt lat="45.40439" lon="6.1296">
        <ele>1594.5</ele>
        <time>2021-02-03T08:31:46Z</time>
      </trkpt>
      <trkpt lat="45.40438" lon="6.1296">
        <ele>1595.3</ele>
        <time>2021-02-03T08:31:47Z</time>
      </trkpt>
      <trkpt lat="45.40438" lon="6.12959">
        <ele>1595.3</ele>
        <time>2021-02-03T08:31:48Z</time>
      </trkpt>
      <trkpt lat="45.40437" lon="6.12958">
        <ele>1595.3</ele>
        <time>2021-02-03T08:31:49Z</time>
      </trkpt>
      <trkpt lat="45.40436" lon="6.12957">
        <ele>1595.3</ele>
        <time>2021-02-03T08:31:50Z</time>
      </trkpt>
      <trkpt lat="45.40435" lon="6.12957">
        <ele>1595.7</ele>
        <time>2021-02-03T08:31:51Z</time>
      </trkpt>
      <trkpt lat="45.40434" lon="6.12957">
        <ele>1595.7</ele>
        <time>2021-02-03T08:31:52Z</time>
      </trkpt>
      <trkpt lat="45.40433" lon="6.12956">
        <ele>1595.7</ele>
        <time>2021-02-03T08:31:53Z</time>
      </trkpt>
      <trkpt lat="45.40433" lon="6.12956">
        <ele>1596.1</ele>
        <time>2021-02-03T08:31:54Z</time>
      </trkpt>
      <trkpt lat="45.40432" lon="6.12955">
        <ele>1596.5</ele>
        <time>2021-02-03T08:31:55Z</time>
      </trkpt>
      <trkpt lat="45.40431" lon="6.12954">
        <ele>1596.5</ele>
        <time>2021-02-03T08:31:56Z</time>
      </trkpt>
      <trkpt lat="45.4043" lon="6.12954">
        <ele>1596.5</ele>
        <time>2021-02-03T08:31:57Z</time>
      </trkpt>
      <trkpt lat="45.40429" lon="6.12953">
        <ele>1597</ele>
        <time>2021-02-03T08:31:58Z</time>
      </trkpt>
      <trkpt lat="45.40428" lon="6.12952">
        <ele>1597</ele>
        <time>2021-02-03T08:31:59Z</time>
      </trkpt>
      <trkpt lat="45.40427" lon="6.12951">
        <ele>1597.3</ele>
        <time>2021-02-03T08:32:00Z</time>
      </trkpt>
      <trkpt lat="45.40426" lon="6.12951">
        <ele>1597.8</ele>
        <time>2021-02-03T08:32:01Z</time>
      </trkpt>
      <trkpt lat="45.40426" lon="6.1295">
        <ele>1597.8</ele>
        <time>2021-02-03T08:32:02Z</time>
      </trkpt>
      <trkpt lat="45.40425" lon="6.1295">
        <ele>1597.8</ele>
        <time>2021-02-03T08:32:03Z</time>
      </trkpt>
      <trkpt lat="45.40424" lon="6.12949">
        <ele>1597.8</ele>
        <time>2021-02-03T08:32:04Z</time>
      </trkpt>
      <trkpt lat="45.40423" lon="6.12948">
        <ele>1598.3</ele>
        <time>2021-02-03T08:32:05Z</time>
      </trkpt>
      <trkpt lat="45.40422" lon="6.12947">
        <ele>1598.3</ele>
        <time>2021-02-03T08:32:06Z</time>
      </trkpt>
      <trkpt lat="45.4042" lon="6.12947">
        <ele>1599.2</ele>
        <time>2021-02-03T08:32:07Z</time>
      </trkpt>
      <trkpt lat="45.40419" lon="6.12946">
        <ele>1599.2</ele>
        <time>2021-02-03T08:32:08Z</time>
      </trkpt>
      <trkpt lat="45.40419" lon="6.12946">
        <ele>1599.2</ele>
        <time>2021-02-03T08:32:09Z</time>
      </trkpt>
      <trkpt lat="45.40418" lon="6.12945">
        <ele>1599.8</ele>
        <time>2021-02-03T08:32:10Z</time>
      </trkpt>
      <trkpt lat="45.40417" lon="6.12945">
        <ele>1599.8</ele>
        <time>2021-02-03T08:32:11Z</time>
      </trkpt>
      <trkpt lat="45.40416" lon="6.12944">
        <ele>1599.8</ele>
        <time>2021-02-03T08:32:12Z</time>
      </trkpt>
      <trkpt lat="45.40415" lon="6.12944">
        <ele>1599.8</ele>
        <time>2021-02-03T08:32:13Z</time>
      </trkpt>
      <trkpt lat="45.40415" lon="6.12943">
        <ele>1599.8</ele>
        <time>2021-02-03T08:32:14Z</time>
      </trkpt>
      <trkpt lat="45.40414" lon="6.12942">
        <ele>1600.7</ele>
        <time>2021-02-03T08:32:15Z</time>
      </trkpt>
      <trkpt lat="45.40412" lon="6.12942">
        <ele>1600.7</ele>
        <time>2021-02-03T08:32:16Z</time>
      </trkpt>
      <trkpt lat="45.40411" lon="6.12941">
        <ele>1601.2</ele>
        <time>2021-02-03T08:32:17Z</time>
      </trkpt>
      <trkpt lat="45.40411" lon="6.12941">
        <ele>1601.2</ele>
        <time>2021-02-03T08:32:18Z</time>
      </trkpt>
      <trkpt lat="45.40409" lon="6.12939">
        <ele>1601.2</ele>
        <time>2021-02-03T08:32:19Z</time>
      </trkpt>
      <trkpt lat="45.40408" lon="6.12939">
        <ele>1601.8</ele>
        <time>2021-02-03T08:32:20Z</time>
      </trkpt>
      <trkpt lat="45.40407" lon="6.12938">
        <ele>1602.1</ele>
        <time>2021-02-03T08:32:21Z</time>
      </trkpt>
      <trkpt lat="45.40406" lon="6.12938">
        <ele>1602.1</ele>
        <time>2021-02-03T08:32:22Z</time>
      </trkpt>
      <trkpt lat="45.40405" lon="6.12938">
        <ele>1602.6</ele>
        <time>2021-02-03T08:32:23Z</time>
      </trkpt>
      <trkpt lat="45.40404" lon="6.12937">
        <ele>1602.6</ele>
        <time>2021-02-03T08:32:24Z</time>
      </trkpt>
      <trkpt lat="45.40403" lon="6.12937">
        <ele>1602.6</ele>
        <time>2021-02-03T08:32:25Z</time>
      </trkpt>
      <trkpt lat="45.40402" lon="6.12936">
        <ele>1603.1</ele>
        <time>2021-02-03T08:32:26Z</time>
      </trkpt>
      <trkpt lat="45.40401" lon="6.12936">
        <ele>1603.1</ele>
        <time>2021-02-03T08:32:27Z</time>
      </trkpt>
      <trkpt lat="45.40401" lon="6.12936">
        <ele>1603.1</ele>
        <time>2021-02-03T08:32:28Z</time>
      </trkpt>
      <trkpt lat="45.404" lon="6.12935">
        <ele>1603.1</ele>
        <time>2021-02-03T08:32:29Z</time>
      </trkpt>
      <trkpt lat="45.404" lon="6.12935">
        <ele>1603.1</ele>
        <time>2021-02-03T08:32:30Z</time>
      </trkpt>
      <trkpt lat="45.40399" lon="6.12934">
        <ele>1603.9</ele>
        <time>2021-02-03T08:32:31Z</time>
      </trkpt>
      <trkpt lat="45.40398" lon="6.12934">
        <ele>1603.9</ele>
        <time>2021-02-03T08:32:32Z</time>
      </trkpt>
      <trkpt lat="45.40398" lon="6.12933">
        <ele>1603.9</ele>
        <time>2021-02-03T08:32:33Z</time>
      </trkpt>
      <trkpt lat="45.40397" lon="6.12933">
        <ele>1603.9</ele>
        <time>2021-02-03T08:32:34Z</time>
      </trkpt>
      <trkpt lat="45.40396" lon="6.12932">
        <ele>1604.5</ele>
        <time>2021-02-03T08:32:35Z</time>
      </trkpt>
      <trkpt lat="45.40395" lon="6.12932">
        <ele>1604.5</ele>
        <time>2021-02-03T08:32:36Z</time>
      </trkpt>
      <trkpt lat="45.40394" lon="6.12932">
        <ele>1604.5</ele>
        <time>2021-02-03T08:32:37Z</time>
      </trkpt>
      <trkpt lat="45.40393" lon="6.12932">
        <ele>1605</ele>
        <time>2021-02-03T08:32:38Z</time>
      </trkpt>
      <trkpt lat="45.40393" lon="6.12931">
        <ele>1605</ele>
        <time>2021-02-03T08:32:39Z</time>
      </trkpt>
      <trkpt lat="45.40392" lon="6.12931">
        <ele>1605</ele>
        <time>2021-02-03T08:32:40Z</time>
      </trkpt>
      <trkpt lat="45.40391" lon="6.12931">
        <ele>1605</ele>
        <time>2021-02-03T08:32:41Z</time>
      </trkpt>
      <trkpt lat="45.4039" lon="6.1293">
        <ele>1605.6</ele>
        <time>2021-02-03T08:32:42Z</time>
      </trkpt>
      <trkpt lat="45.40389" lon="6.1293">
        <ele>1606.1</ele>
        <time>2021-02-03T08:32:43Z</time>
      </trkpt>
      <trkpt lat="45.40388" lon="6.12929">
        <ele>1606.1</ele>
        <time>2021-02-03T08:32:44Z</time>
      </trkpt>
      <trkpt lat="45.40388" lon="6.12929">
        <ele>1606.1</ele>
        <time>2021-02-03T08:32:45Z</time>
      </trkpt>
      <trkpt lat="45.40387" lon="6.12929">
        <ele>1606.7</ele>
        <time>2021-02-03T08:32:46Z</time>
      </trkpt>
      <trkpt lat="45.40387" lon="6.12929">
        <ele>1606.7</ele>
        <time>2021-02-03T08:32:47Z</time>
      </trkpt>
      <trkpt lat="45.40386" lon="6.12928">
        <ele>1606.7</ele>
        <time>2021-02-03T08:32:48Z</time>
      </trkpt>
      <trkpt lat="45.40386" lon="6.12928">
        <ele>1606.7</ele>
        <time>2021-02-03T08:32:49Z</time>
      </trkpt>
      <trkpt lat="45.40385" lon="6.12928">
        <ele>1606.7</ele>
        <time>2021-02-03T08:32:50Z</time>
      </trkpt>
      <trkpt lat="45.40384" lon="6.12928">
        <ele>1607.3</ele>
        <time>2021-02-03T08:32:51Z</time>
      </trkpt>
      <trkpt lat="45.40383" lon="6.12927">
        <ele>1607.3</ele>
        <time>2021-02-03T08:32:52Z</time>
      </trkpt>
      <trkpt lat="45.40382" lon="6.12927">
        <ele>1607.3</ele>
        <time>2021-02-03T08:32:53Z</time>
      </trkpt>
      <trkpt lat="45.40381" lon="6.12927">
        <ele>1607.9</ele>
        <time>2021-02-03T08:32:54Z</time>
      </trkpt>
      <trkpt lat="45.4038" lon="6.12926">
        <ele>1607.9</ele>
        <time>2021-02-03T08:32:55Z</time>
      </trkpt>
      <trkpt lat="45.40379" lon="6.12926">
        <ele>1608.4</ele>
        <time>2021-02-03T08:32:56Z</time>
      </trkpt>
      <trkpt lat="45.40378" lon="6.12925">
        <ele>1608.9</ele>
        <time>2021-02-03T08:32:57Z</time>
      </trkpt>
      <trkpt lat="45.40377" lon="6.12924">
        <ele>1608.9</ele>
        <time>2021-02-03T08:32:58Z</time>
      </trkpt>
      <trkpt lat="45.40377" lon="6.12924">
        <ele>1608.9</ele>
        <time>2021-02-03T08:32:59Z</time>
      </trkpt>
      <trkpt lat="45.40375" lon="6.12924">
        <ele>1608.9</ele>
        <time>2021-02-03T08:33:00Z</time>
      </trkpt>
      <trkpt lat="45.40374" lon="6.12923">
        <ele>1609.4</ele>
        <time>2021-02-03T08:33:01Z</time>
      </trkpt>
      <trkpt lat="45.40374" lon="6.12923">
        <ele>1609.4</ele>
        <time>2021-02-03T08:33:02Z</time>
      </trkpt>
      <trkpt lat="45.40373" lon="6.12922">
        <ele>1609.4</ele>
        <time>2021-02-03T08:33:03Z</time>
      </trkpt>
      <trkpt lat="45.40372" lon="6.12922">
        <ele>1610</ele>
        <time>2021-02-03T08:33:04Z</time>
      </trkpt>
      <trkpt lat="45.40372" lon="6.12922">
        <ele>1610</ele>
        <time>2021-02-03T08:33:05Z</time>
      </trkpt>
      <trkpt lat="45.40371" lon="6.12921">
        <ele>1610</ele>
        <time>2021-02-03T08:33:06Z</time>
      </trkpt>
      <trkpt lat="45.4037" lon="6.12921">
        <ele>1610.4</ele>
        <time>2021-02-03T08:33:07Z</time>
      </trkpt>
      <trkpt lat="45.40369" lon="6.12921">
        <ele>1611</ele>
        <time>2021-02-03T08:33:08Z</time>
      </trkpt>
      <trkpt lat="45.40369" lon="6.12921">
        <ele>1611</ele>
        <time>2021-02-03T08:33:09Z</time>
      </trkpt>
      <trkpt lat="45.40367" lon="6.12921">
        <ele>1611</ele>
        <time>2021-02-03T08:33:10Z</time>
      </trkpt>
      <trkpt lat="45.40367" lon="6.12921">
        <ele>1611</ele>
        <time>2021-02-03T08:33:11Z</time>
      </trkpt>
      <trkpt lat="45.40366" lon="6.12921">
        <ele>1611.6</ele>
        <time>2021-02-03T08:33:12Z</time>
      </trkpt>
      <trkpt lat="45.40365" lon="6.1292">
        <ele>1611.6</ele>
        <time>2021-02-03T08:33:13Z</time>
      </trkpt>
      <trkpt lat="45.40364" lon="6.1292">
        <ele>1611.6</ele>
        <time>2021-02-03T08:33:14Z</time>
      </trkpt>
      <trkpt lat="45.40364" lon="6.1292">
        <ele>1611.6</ele>
        <time>2021-02-03T08:33:15Z</time>
      </trkpt>
      <trkpt lat="45.40363" lon="6.1292">
        <ele>1612.2</ele>
        <time>2021-02-03T08:33:16Z</time>
      </trkpt>
      <trkpt lat="45.40362" lon="6.1292">
        <ele>1612.2</ele>
        <time>2021-02-03T08:33:17Z</time>
      </trkpt>
      <trkpt lat="45.40361" lon="6.1292">
        <ele>1612.2</ele>
        <time>2021-02-03T08:33:18Z</time>
      </trkpt>
      <trkpt lat="45.4036" lon="6.1292">
        <ele>1612.8</ele>
        <time>2021-02-03T08:33:19Z</time>
      </trkpt>
      <trkpt lat="45.40359" lon="6.1292">
        <ele>1612.8</ele>
        <time>2021-02-03T08:33:20Z</time>
      </trkpt>
      <trkpt lat="45.40358" lon="6.1292">
        <ele>1612.8</ele>
        <time>2021-02-03T08:33:21Z</time>
      </trkpt>
      <trkpt lat="45.40357" lon="6.12921">
        <ele>1612.8</ele>
        <time>2021-02-03T08:33:22Z</time>
      </trkpt>
      <trkpt lat="45.40357" lon="6.12921">
        <ele>1613.3</ele>
        <time>2021-02-03T08:33:23Z</time>
      </trkpt>
      <trkpt lat="45.40356" lon="6.12922">
        <ele>1612.9</ele>
        <time>2021-02-03T08:33:24Z</time>
      </trkpt>
      <trkpt lat="45.40355" lon="6.12922">
        <ele>1612.9</ele>
        <time>2021-02-03T08:33:25Z</time>
      </trkpt>
      <trkpt lat="45.40354" lon="6.12922">
        <ele>1613.5</ele>
        <time>2021-02-03T08:33:26Z</time>
      </trkpt>
      <trkpt lat="45.40353" lon="6.12923">
        <ele>1613.5</ele>
        <time>2021-02-03T08:33:27Z</time>
      </trkpt>
      <trkpt lat="45.40352" lon="6.12923">
        <ele>1613.5</ele>
        <time>2021-02-03T08:33:28Z</time>
      </trkpt>
      <trkpt lat="45.40352" lon="6.12924">
        <ele>1613.5</ele>
        <time>2021-02-03T08:33:29Z</time>
      </trkpt>
      <trkpt lat="45.40351" lon="6.12924">
        <ele>1614</ele>
        <time>2021-02-03T08:33:30Z</time>
      </trkpt>
      <trkpt lat="45.4035" lon="6.12925">
        <ele>1614</ele>
        <time>2021-02-03T08:33:31Z</time>
      </trkpt>
      <trkpt lat="45.4035" lon="6.12926">
        <ele>1613.6</ele>
        <time>2021-02-03T08:33:32Z</time>
      </trkpt>
      <trkpt lat="45.40349" lon="6.12926">
        <ele>1613.6</ele>
        <time>2021-02-03T08:33:33Z</time>
      </trkpt>
      <trkpt lat="45.40349" lon="6.12927">
        <ele>1613.6</ele>
        <time>2021-02-03T08:33:34Z</time>
      </trkpt>
      <trkpt lat="45.40348" lon="6.12927">
        <ele>1614.2</ele>
        <time>2021-02-03T08:33:35Z</time>
      </trkpt>
      <trkpt lat="45.40347" lon="6.12928">
        <ele>1614.2</ele>
        <time>2021-02-03T08:33:36Z</time>
      </trkpt>
      <trkpt lat="45.40346" lon="6.12928">
        <ele>1614.2</ele>
        <time>2021-02-03T08:33:37Z</time>
      </trkpt>
      <trkpt lat="45.40346" lon="6.12928">
        <ele>1614.2</ele>
        <time>2021-02-03T08:33:38Z</time>
      </trkpt>
      <trkpt lat="45.40345" lon="6.12928">
        <ele>1614.7</ele>
        <time>2021-02-03T08:33:39Z</time>
      </trkpt>
      <trkpt lat="45.40344" lon="6.12928">
        <ele>1614.7</ele>
        <time>2021-02-03T08:33:40Z</time>
      </trkpt>
      <trkpt lat="45.40343" lon="6.12929">
        <ele>1614.7</ele>
        <time>2021-02-03T08:33:41Z</time>
      </trkpt>
      <trkpt lat="45.40343" lon="6.12929">
        <ele>1614.7</ele>
        <time>2021-02-03T08:33:42Z</time>
      </trkpt>
      <trkpt lat="45.40342" lon="6.12929">
        <ele>1615.3</ele>
        <time>2021-02-03T08:33:43Z</time>
      </trkpt>
      <trkpt lat="45.40341" lon="6.12929">
        <ele>1615.3</ele>
        <time>2021-02-03T08:33:44Z</time>
      </trkpt>
      <trkpt lat="45.40341" lon="6.12929">
        <ele>1615.3</ele>
        <time>2021-02-03T08:33:45Z</time>
      </trkpt>
      <trkpt lat="45.40341" lon="6.1293">
        <ele>1615.3</ele>
        <time>2021-02-03T08:33:46Z</time>
      </trkpt>
      <trkpt lat="45.40341" lon="6.1293">
        <ele>1615</ele>
        <time>2021-02-03T08:33:47Z</time>
      </trkpt>
      <trkpt lat="45.40341" lon="6.12931">
        <ele>1615</ele>
        <time>2021-02-03T08:33:48Z</time>
      </trkpt>
      <trkpt lat="45.4034" lon="6.12931">
        <ele>1615</ele>
        <time>2021-02-03T08:33:49Z</time>
      </trkpt>
      <trkpt lat="45.4034" lon="6.12931">
        <ele>1615</ele>
        <time>2021-02-03T08:33:50Z</time>
      </trkpt>
      <trkpt lat="45.4034" lon="6.12932">
        <ele>1615</ele>
        <time>2021-02-03T08:33:51Z</time>
      </trkpt>
      <trkpt lat="45.4034" lon="6.12932">
        <ele>1615</ele>
        <time>2021-02-03T08:33:52Z</time>
      </trkpt>
      <trkpt lat="45.4034" lon="6.12932">
        <ele>1615</ele>
        <time>2021-02-03T08:33:53Z</time>
      </trkpt>
      <trkpt lat="45.4034" lon="6.12933">
        <ele>1615</ele>
        <time>2021-02-03T08:33:54Z</time>
      </trkpt>
      <trkpt lat="45.4034" lon="6.12933">
        <ele>1615</ele>
        <time>2021-02-03T08:33:55Z</time>
      </trkpt>
      <trkpt lat="45.40339" lon="6.12933">
        <ele>1615</ele>
        <time>2021-02-03T08:34:11Z</time>
      </trkpt>
      <trkpt lat="45.40339" lon="6.12934">
        <ele>1615</ele>
        <time>2021-02-03T08:34:12Z</time>
      </trkpt>
      <trkpt lat="45.40339" lon="6.12934">
        <ele>1615</ele>
        <time>2021-02-03T08:34:13Z</time>
      </trkpt>
      <trkpt lat="45.40339" lon="6.12935">
        <ele>1615.3</ele>
        <time>2021-02-03T08:34:14Z</time>
      </trkpt>
      <trkpt lat="45.40339" lon="6.12935">
        <ele>1615.3</ele>
        <time>2021-02-03T08:34:15Z</time>
      </trkpt>
      <trkpt lat="45.40339" lon="6.12935">
        <ele>1615.3</ele>
        <time>2021-02-03T08:34:16Z</time>
      </trkpt>
      <trkpt lat="45.40338" lon="6.12936">
        <ele>1615.3</ele>
        <time>2021-02-03T08:34:17Z</time>
      </trkpt>
      <trkpt lat="45.40338" lon="6.12936">
        <ele>1615.3</ele>
        <time>2021-02-03T08:34:18Z</time>
      </trkpt>
      <trkpt lat="45.40337" lon="6.12936">
        <ele>1615.3</ele>
        <time>2021-02-03T08:34:19Z</time>
      </trkpt>
      <trkpt lat="45.40336" lon="6.12937">
        <ele>1615.3</ele>
        <time>2021-02-03T08:34:20Z</time>
      </trkpt>
      <trkpt lat="45.40336" lon="6.12937">
        <ele>1615.9</ele>
        <time>2021-02-03T08:34:21Z</time>
      </trkpt>
      <trkpt lat="45.40335" lon="6.12938">
        <ele>1615.9</ele>
        <time>2021-02-03T08:34:22Z</time>
      </trkpt>
      <trkpt lat="45.40334" lon="6.12939">
        <ele>1615.6</ele>
        <time>2021-02-03T08:34:23Z</time>
      </trkpt>
      <trkpt lat="45.40334" lon="6.1294">
        <ele>1615.6</ele>
        <time>2021-02-03T08:34:24Z</time>
      </trkpt>
      <trkpt lat="45.40333" lon="6.12941">
        <ele>1616.2</ele>
        <time>2021-02-03T08:34:25Z</time>
      </trkpt>
      <trkpt lat="45.40333" lon="6.12942">
        <ele>1616.2</ele>
        <time>2021-02-03T08:34:34Z</time>
      </trkpt>
      <trkpt lat="45.40332" lon="6.12943">
        <ele>1616</ele>
        <time>2021-02-03T08:34:35Z</time>
      </trkpt>
      <trkpt lat="45.40331" lon="6.12944">
        <ele>1616</ele>
        <time>2021-02-03T08:34:36Z</time>
      </trkpt>
      <trkpt lat="45.40331" lon="6.12945">
        <ele>1616</ele>
        <time>2021-02-03T08:34:37Z</time>
      </trkpt>
      <trkpt lat="45.4033" lon="6.12945">
        <ele>1616.5</ele>
        <time>2021-02-03T08:34:38Z</time>
      </trkpt>
      <trkpt lat="45.4033" lon="6.12946">
        <ele>1616.5</ele>
        <time>2021-02-03T08:34:39Z</time>
      </trkpt>
      <trkpt lat="45.40328" lon="6.12946">
        <ele>1616.5</ele>
        <time>2021-02-03T08:34:40Z</time>
      </trkpt>
      <trkpt lat="45.40326" lon="6.12946">
        <ele>1616.9</ele>
        <time>2021-02-03T08:34:41Z</time>
      </trkpt>
      <trkpt lat="45.40325" lon="6.12945">
        <ele>1616.9</ele>
        <time>2021-02-03T08:34:42Z</time>
      </trkpt>
      <trkpt lat="45.40324" lon="6.12945">
        <ele>1617.3</ele>
        <time>2021-02-03T08:34:43Z</time>
      </trkpt>
      <trkpt lat="45.40323" lon="6.12944">
        <ele>1617.3</ele>
        <time>2021-02-03T08:34:44Z</time>
      </trkpt>
      <trkpt lat="45.40321" lon="6.12944">
        <ele>1617.3</ele>
        <time>2021-02-03T08:35:02Z</time>
      </trkpt>
      <trkpt lat="45.4032" lon="6.12943">
        <ele>1617.7</ele>
        <time>2021-02-03T08:35:03Z</time>
      </trkpt>
      <trkpt lat="45.40319" lon="6.12943">
        <ele>1617.7</ele>
        <time>2021-02-03T08:35:04Z</time>
      </trkpt>
      <trkpt lat="45.40317" lon="6.12942">
        <ele>1618.3</ele>
        <time>2021-02-03T08:35:05Z</time>
      </trkpt>
      <trkpt lat="45.40316" lon="6.12942">
        <ele>1618.3</ele>
        <time>2021-02-03T08:35:06Z</time>
      </trkpt>
      <trkpt lat="45.40316" lon="6.12942">
        <ele>1618.3</ele>
        <time>2021-02-03T08:35:07Z</time>
      </trkpt>
      <trkpt lat="45.40315" lon="6.12941">
        <ele>1618.3</ele>
        <time>2021-02-03T08:35:08Z</time>
      </trkpt>
      <trkpt lat="45.40315" lon="6.12941">
        <ele>1618.7</ele>
        <time>2021-02-03T08:35:09Z</time>
      </trkpt>
      <trkpt lat="45.40314" lon="6.12941">
        <ele>1618.7</ele>
        <time>2021-02-03T08:35:10Z</time>
      </trkpt>
      <trkpt lat="45.40313" lon="6.12941">
        <ele>1618.7</ele>
        <time>2021-02-03T08:35:11Z</time>
      </trkpt>
      <trkpt lat="45.40313" lon="6.1294">
        <ele>1618.7</ele>
        <time>2021-02-03T08:35:12Z</time>
      </trkpt>
      <trkpt lat="45.40312" lon="6.1294">
        <ele>1618.7</ele>
        <time>2021-02-03T08:35:13Z</time>
      </trkpt>
      <trkpt lat="45.40312" lon="6.1294">
        <ele>1619</ele>
        <time>2021-02-03T08:35:14Z</time>
      </trkpt>
      <trkpt lat="45.40311" lon="6.1294">
        <ele>1619</ele>
        <time>2021-02-03T08:35:15Z</time>
      </trkpt>
      <trkpt lat="45.40311" lon="6.1294">
        <ele>1619</ele>
        <time>2021-02-03T08:35:16Z</time>
      </trkpt>
      <trkpt lat="45.4031" lon="6.1294">
        <ele>1619</ele>
        <time>2021-02-03T08:35:17Z</time>
      </trkpt>
      <trkpt lat="45.4031" lon="6.1294">
        <ele>1619</ele>
        <time>2021-02-03T08:35:18Z</time>
      </trkpt>
      <trkpt lat="45.4031" lon="6.1294">
        <ele>1619</ele>
        <time>2021-02-03T08:35:19Z</time>
      </trkpt>
      <trkpt lat="45.4031" lon="6.1294">
        <ele>1619</ele>
        <time>2021-02-03T08:35:20Z</time>
      </trkpt>
      <trkpt lat="45.4031" lon="6.1294">
        <ele>1619</ele>
        <time>2021-02-03T08:35:21Z</time>
      </trkpt>
      <trkpt lat="45.4031" lon="6.1294">
        <ele>1619</ele>
        <time>2021-02-03T08:35:22Z</time>
      </trkpt>
      <trkpt lat="45.4031" lon="6.1294">
        <ele>1619</ele>
        <time>2021-02-03T08:35:23Z</time>
      </trkpt>
      <trkpt lat="45.40311" lon="6.1294">
        <ele>1619</ele>
        <time>2021-02-03T08:35:24Z</time>
      </trkpt>
      <trkpt lat="45.40311" lon="6.1294">
        <ele>1619</ele>
        <time>2021-02-03T08:35:25Z</time>
      </trkpt>
      <trkpt lat="45.40311" lon="6.1294">
        <ele>1619</ele>
        <time>2021-02-03T08:35:26Z</time>
      </trkpt>
      <trkpt lat="45.40311" lon="6.1294">
        <ele>1619</ele>
        <time>2021-02-03T08:35:27Z</time>
      </trkpt>
      <trkpt lat="45.40311" lon="6.1294">
        <ele>1619</ele>
        <time>2021-02-03T08:35:28Z</time>
      </trkpt>
      <trkpt lat="45.40311" lon="6.12937">
        <ele>1619.2</ele>
        <time>2021-02-03T08:35:38Z</time>
      </trkpt>
      <trkpt lat="45.40311" lon="6.12937">
        <ele>1619.2</ele>
        <time>2021-02-03T08:35:39Z</time>
      </trkpt>
      <trkpt lat="45.40311" lon="6.12937">
        <ele>1619.2</ele>
        <time>2021-02-03T08:35:40Z</time>
      </trkpt>
      <trkpt lat="45.4031" lon="6.12936">
        <ele>1619.2</ele>
        <time>2021-02-03T08:35:41Z</time>
      </trkpt>
      <trkpt lat="45.40309" lon="6.12935">
        <ele>1619.5</ele>
        <time>2021-02-03T08:35:42Z</time>
      </trkpt>
      <trkpt lat="45.40308" lon="6.12935">
        <ele>1619.5</ele>
        <time>2021-02-03T08:35:43Z</time>
      </trkpt>
      <trkpt lat="45.40308" lon="6.12935">
        <ele>1619.5</ele>
        <time>2021-02-03T08:35:44Z</time>
      </trkpt>
      <trkpt lat="45.40307" lon="6.12935">
        <ele>1619.5</ele>
        <time>2021-02-03T08:35:45Z</time>
      </trkpt>
      <trkpt lat="45.40307" lon="6.12936">
        <ele>1619.5</ele>
        <time>2021-02-03T08:35:46Z</time>
      </trkpt>
      <trkpt lat="45.40307" lon="6.12936">
        <ele>1619.5</ele>
        <time>2021-02-03T08:35:47Z</time>
      </trkpt>
      <trkpt lat="45.40306" lon="6.12936">
        <ele>1619.9</ele>
        <time>2021-02-03T08:35:48Z</time>
      </trkpt>
      <trkpt lat="45.40305" lon="6.12936">
        <ele>1619.9</ele>
        <time>2021-02-03T08:35:49Z</time>
      </trkpt>
      <trkpt lat="45.40303" lon="6.12937">
        <ele>1619.9</ele>
        <time>2021-02-03T08:35:50Z</time>
      </trkpt>
      <trkpt lat="45.40302" lon="6.12937">
        <ele>1620.2</ele>
        <time>2021-02-03T08:35:51Z</time>
      </trkpt>
      <trkpt lat="45.40301" lon="6.12938">
        <ele>1620.2</ele>
        <time>2021-02-03T08:35:52Z</time>
      </trkpt>
      <trkpt lat="45.403" lon="6.12938">
        <ele>1620.4</ele>
        <time>2021-02-03T08:35:53Z</time>
      </trkpt>
      <trkpt lat="45.40299" lon="6.12938">
        <ele>1620.4</ele>
        <time>2021-02-03T08:35:54Z</time>
      </trkpt>
      <trkpt lat="45.40298" lon="6.12938">
        <ele>1620.4</ele>
        <time>2021-02-03T08:35:55Z</time>
      </trkpt>
      <trkpt lat="45.40297" lon="6.12939">
        <ele>1620.3</ele>
        <time>2021-02-03T08:35:56Z</time>
      </trkpt>
      <trkpt lat="45.40296" lon="6.12939">
        <ele>1620.5</ele>
        <time>2021-02-03T08:35:57Z</time>
      </trkpt>
      <trkpt lat="45.40295" lon="6.12939">
        <ele>1620.5</ele>
        <time>2021-02-03T08:35:58Z</time>
      </trkpt>
      <trkpt lat="45.40293" lon="6.12938">
        <ele>1620.8</ele>
        <time>2021-02-03T08:35:59Z</time>
      </trkpt>
      <trkpt lat="45.40291" lon="6.12938">
        <ele>1620.8</ele>
        <time>2021-02-03T08:36:00Z</time>
      </trkpt>
      <trkpt lat="45.4029" lon="6.12938">
        <ele>1621</ele>
        <time>2021-02-03T08:36:01Z</time>
      </trkpt>
      <trkpt lat="45.40289" lon="6.12938">
        <ele>1621</ele>
        <time>2021-02-03T08:36:02Z</time>
      </trkpt>
      <trkpt lat="45.40288" lon="6.12937">
        <ele>1621.1</ele>
        <time>2021-02-03T08:36:03Z</time>
      </trkpt>
      <trkpt lat="45.40287" lon="6.12937">
        <ele>1621.1</ele>
        <time>2021-02-03T08:36:04Z</time>
      </trkpt>
      <trkpt lat="45.40286" lon="6.12937">
        <ele>1621.1</ele>
        <time>2021-02-03T08:36:05Z</time>
      </trkpt>
      <trkpt lat="45.40284" lon="6.12937">
        <ele>1621.3</ele>
        <time>2021-02-03T08:36:06Z</time>
      </trkpt>
      <trkpt lat="45.40283" lon="6.12936">
        <ele>1621.3</ele>
        <time>2021-02-03T08:36:07Z</time>
      </trkpt>
      <trkpt lat="45.40282" lon="6.12936">
        <ele>1621.6</ele>
        <time>2021-02-03T08:36:08Z</time>
      </trkpt>
      <trkpt lat="45.4028" lon="6.12936">
        <ele>1621.6</ele>
        <time>2021-02-03T08:36:09Z</time>
      </trkpt>
      <trkpt lat="45.40278" lon="6.12936">
        <ele>1621.8</ele>
        <time>2021-02-03T08:36:10Z</time>
      </trkpt>
      <trkpt lat="45.40277" lon="6.12936">
        <ele>1621.8</ele>
        <time>2021-02-03T08:36:11Z</time>
      </trkpt>
      <trkpt lat="45.40276" lon="6.12936">
        <ele>1621.8</ele>
        <time>2021-02-03T08:36:12Z</time>
      </trkpt>
      <trkpt lat="45.40275" lon="6.12937">
        <ele>1622.1</ele>
        <time>2021-02-03T08:36:13Z</time>
      </trkpt>
      <trkpt lat="45.40274" lon="6.12937">
        <ele>1622.1</ele>
        <time>2021-02-03T08:36:14Z</time>
      </trkpt>
      <trkpt lat="45.40273" lon="6.12938">
        <ele>1622.3</ele>
        <time>2021-02-03T08:36:15Z</time>
      </trkpt>
      <trkpt lat="45.40271" lon="6.12938">
        <ele>1622.3</ele>
        <time>2021-02-03T08:36:16Z</time>
      </trkpt>
      <trkpt lat="45.4027" lon="6.12938">
        <ele>1622.3</ele>
        <time>2021-02-03T08:36:17Z</time>
      </trkpt>
      <trkpt lat="45.40269" lon="6.12939">
        <ele>1622.4</ele>
        <time>2021-02-03T08:36:18Z</time>
      </trkpt>
      <trkpt lat="45.40268" lon="6.12939">
        <ele>1622.4</ele>
        <time>2021-02-03T08:36:19Z</time>
      </trkpt>
      <trkpt lat="45.40267" lon="6.1294">
        <ele>1622.4</ele>
        <time>2021-02-03T08:36:20Z</time>
      </trkpt>
      <trkpt lat="45.40266" lon="6.1294">
        <ele>1622.6</ele>
        <time>2021-02-03T08:36:21Z</time>
      </trkpt>
      <trkpt lat="45.40264" lon="6.12941">
        <ele>1622.6</ele>
        <time>2021-02-03T08:36:22Z</time>
      </trkpt>
      <trkpt lat="45.40262" lon="6.12941">
        <ele>1622.9</ele>
        <time>2021-02-03T08:36:23Z</time>
      </trkpt>
      <trkpt lat="45.4026" lon="6.1294">
        <ele>1623.2</ele>
        <time>2021-02-03T08:36:24Z</time>
      </trkpt>
      <trkpt lat="45.4026" lon="6.12941">
        <ele>1623.2</ele>
        <time>2021-02-03T08:36:25Z</time>
      </trkpt>
      <trkpt lat="45.40259" lon="6.12941">
        <ele>1623.2</ele>
        <time>2021-02-03T08:36:26Z</time>
      </trkpt>
      <trkpt lat="45.40257" lon="6.12941">
        <ele>1623.5</ele>
        <time>2021-02-03T08:36:27Z</time>
      </trkpt>
      <trkpt lat="45.40256" lon="6.12941">
        <ele>1623.5</ele>
        <time>2021-02-03T08:36:28Z</time>
      </trkpt>
      <trkpt lat="45.40255" lon="6.12941">
        <ele>1623.5</ele>
        <time>2021-02-03T08:36:29Z</time>
      </trkpt>
      <trkpt lat="45.40253" lon="6.1294">
        <ele>1623.9</ele>
        <time>2021-02-03T08:36:30Z</time>
      </trkpt>
      <trkpt lat="45.40252" lon="6.1294">
        <ele>1623.9</ele>
        <time>2021-02-03T08:36:31Z</time>
      </trkpt>
      <trkpt lat="45.40252" lon="6.12939">
        <ele>1624.3</ele>
        <time>2021-02-03T08:36:32Z</time>
      </trkpt>
      <trkpt lat="45.4025" lon="6.12938">
        <ele>1624.3</ele>
        <time>2021-02-03T08:36:33Z</time>
      </trkpt>
      <trkpt lat="45.40249" lon="6.12937">
        <ele>1624.3</ele>
        <time>2021-02-03T08:36:34Z</time>
      </trkpt>
      <trkpt lat="45.40248" lon="6.12937">
        <ele>1624.7</ele>
        <time>2021-02-03T08:36:35Z</time>
      </trkpt>
      <trkpt lat="45.40247" lon="6.12936">
        <ele>1624.7</ele>
        <time>2021-02-03T08:36:36Z</time>
      </trkpt>
      <trkpt lat="45.40246" lon="6.12936">
        <ele>1624.7</ele>
        <time>2021-02-03T08:36:37Z</time>
      </trkpt>
      <trkpt lat="45.40245" lon="6.12935">
        <ele>1625.1</ele>
        <time>2021-02-03T08:36:38Z</time>
      </trkpt>
      <trkpt lat="45.40244" lon="6.12934">
        <ele>1625.1</ele>
        <time>2021-02-03T08:36:39Z</time>
      </trkpt>
      <trkpt lat="45.40243" lon="6.12933">
        <ele>1625</ele>
        <time>2021-02-03T08:36:40Z</time>
      </trkpt>
      <trkpt lat="45.40243" lon="6.12932">
        <ele>1625.4</ele>
        <time>2021-02-03T08:36:41Z</time>
      </trkpt>
      <trkpt lat="45.40242" lon="6.12931">
        <ele>1625.4</ele>
        <time>2021-02-03T08:36:42Z</time>
      </trkpt>
      <trkpt lat="45.40241" lon="6.1293">
        <ele>1625.4</ele>
        <time>2021-02-03T08:36:43Z</time>
      </trkpt>
      <trkpt lat="45.40241" lon="6.12929">
        <ele>1625.2</ele>
        <time>2021-02-03T08:36:44Z</time>
      </trkpt>
      <trkpt lat="45.4024" lon="6.12928">
        <ele>1625.2</ele>
        <time>2021-02-03T08:36:45Z</time>
      </trkpt>
      <trkpt lat="45.40239" lon="6.12928">
        <ele>1625.6</ele>
        <time>2021-02-03T08:36:46Z</time>
      </trkpt>
      <trkpt lat="45.40238" lon="6.12927">
        <ele>1625.6</ele>
        <time>2021-02-03T08:36:47Z</time>
      </trkpt>
      <trkpt lat="45.40237" lon="6.12927">
        <ele>1625.6</ele>
        <time>2021-02-03T08:36:48Z</time>
      </trkpt>
      <trkpt lat="45.40236" lon="6.12927">
        <ele>1625.9</ele>
        <time>2021-02-03T08:36:49Z</time>
      </trkpt>
      <trkpt lat="45.40236" lon="6.12927">
        <ele>1625.9</ele>
        <time>2021-02-03T08:36:50Z</time>
      </trkpt>
      <trkpt lat="45.40235" lon="6.12927">
        <ele>1625.9</ele>
        <time>2021-02-03T08:36:51Z</time>
      </trkpt>
      <trkpt lat="45.40234" lon="6.12927">
        <ele>1625.9</ele>
        <time>2021-02-03T08:36:52Z</time>
      </trkpt>
      <trkpt lat="45.40234" lon="6.12927">
        <ele>1626.2</ele>
        <time>2021-02-03T08:36:53Z</time>
      </trkpt>
      <trkpt lat="45.40233" lon="6.12927">
        <ele>1626.2</ele>
        <time>2021-02-03T08:36:54Z</time>
      </trkpt>
      <trkpt lat="45.40233" lon="6.12927">
        <ele>1626.2</ele>
        <time>2021-02-03T08:36:55Z</time>
      </trkpt>
      <trkpt lat="45.40232" lon="6.12927">
        <ele>1626.2</ele>
        <time>2021-02-03T08:36:56Z</time>
      </trkpt>
      <trkpt lat="45.40232" lon="6.12928">
        <ele>1626.2</ele>
        <time>2021-02-03T08:36:57Z</time>
      </trkpt>
      <trkpt lat="45.40231" lon="6.12928">
        <ele>1626.2</ele>
        <time>2021-02-03T08:36:58Z</time>
      </trkpt>
      <trkpt lat="45.40231" lon="6.12928">
        <ele>1626.2</ele>
        <time>2021-02-03T08:36:59Z</time>
      </trkpt>
      <trkpt lat="45.4023" lon="6.12928">
        <ele>1626.5</ele>
        <time>2021-02-03T08:37:00Z</time>
      </trkpt>
      <trkpt lat="45.40229" lon="6.12928">
        <ele>1626.5</ele>
        <time>2021-02-03T08:37:01Z</time>
      </trkpt>
      <trkpt lat="45.40229" lon="6.12928">
        <ele>1626.5</ele>
        <time>2021-02-03T08:37:02Z</time>
      </trkpt>
      <trkpt lat="45.40228" lon="6.12929">
        <ele>1626.5</ele>
        <time>2021-02-03T08:37:03Z</time>
      </trkpt>
      <trkpt lat="45.40227" lon="6.12929">
        <ele>1626.9</ele>
        <time>2021-02-03T08:37:04Z</time>
      </trkpt>
      <trkpt lat="45.40226" lon="6.12929">
        <ele>1626.9</ele>
        <time>2021-02-03T08:37:05Z</time>
      </trkpt>
      <trkpt lat="45.40225" lon="6.12929">
        <ele>1626.9</ele>
        <time>2021-02-03T08:37:06Z</time>
      </trkpt>
      <trkpt lat="45.40225" lon="6.12929">
        <ele>1626.9</ele>
        <time>2021-02-03T08:37:07Z</time>
      </trkpt>
      <trkpt lat="45.40224" lon="6.12929">
        <ele>1627.4</ele>
        <time>2021-02-03T08:37:08Z</time>
      </trkpt>
      <trkpt lat="45.40224" lon="6.12929">
        <ele>1627.4</ele>
        <time>2021-02-03T08:37:09Z</time>
      </trkpt>
      <trkpt lat="45.40223" lon="6.12928">
        <ele>1627.4</ele>
        <time>2021-02-03T08:37:10Z</time>
      </trkpt>
      <trkpt lat="45.40223" lon="6.12928">
        <ele>1627.4</ele>
        <time>2021-02-03T08:37:11Z</time>
      </trkpt>
      <trkpt lat="45.40222" lon="6.12928">
        <ele>1627.4</ele>
        <time>2021-02-03T08:37:12Z</time>
      </trkpt>
      <trkpt lat="45.40221" lon="6.12928">
        <ele>1627.8</ele>
        <time>2021-02-03T08:37:13Z</time>
      </trkpt>
      <trkpt lat="45.40221" lon="6.12928">
        <ele>1627.8</ele>
        <time>2021-02-03T08:37:14Z</time>
      </trkpt>
      <trkpt lat="45.4022" lon="6.12928">
        <ele>1627.8</ele>
        <time>2021-02-03T08:37:15Z</time>
      </trkpt>
      <trkpt lat="45.40219" lon="6.12928">
        <ele>1627.8</ele>
        <time>2021-02-03T08:37:16Z</time>
      </trkpt>
      <trkpt lat="45.40219" lon="6.12928">
        <ele>1627.8</ele>
        <time>2021-02-03T08:37:17Z</time>
      </trkpt>
      <trkpt lat="45.40218" lon="6.12928">
        <ele>1628.4</ele>
        <time>2021-02-03T08:37:18Z</time>
      </trkpt>
      <trkpt lat="45.40218" lon="6.12928">
        <ele>1628.4</ele>
        <time>2021-02-03T08:37:19Z</time>
      </trkpt>
      <trkpt lat="45.40218" lon="6.12928">
        <ele>1628.4</ele>
        <time>2021-02-03T08:37:20Z</time>
      </trkpt>
      <trkpt lat="45.40217" lon="6.12928">
        <ele>1628.4</ele>
        <time>2021-02-03T08:37:21Z</time>
      </trkpt>
      <trkpt lat="45.40217" lon="6.12928">
        <ele>1628.4</ele>
        <time>2021-02-03T08:37:22Z</time>
      </trkpt>
      <trkpt lat="45.40216" lon="6.12928">
        <ele>1628.4</ele>
        <time>2021-02-03T08:37:23Z</time>
      </trkpt>
      <trkpt lat="45.40216" lon="6.12929">
        <ele>1628.9</ele>
        <time>2021-02-03T08:37:24Z</time>
      </trkpt>
      <trkpt lat="45.40215" lon="6.12929">
        <ele>1628.9</ele>
        <time>2021-02-03T08:37:25Z</time>
      </trkpt>
      <trkpt lat="45.40214" lon="6.12929">
        <ele>1628.9</ele>
        <time>2021-02-03T08:37:26Z</time>
      </trkpt>
      <trkpt lat="45.40213" lon="6.12929">
        <ele>1628.9</ele>
        <time>2021-02-03T08:37:27Z</time>
      </trkpt>
      <trkpt lat="45.40212" lon="6.12929">
        <ele>1629.4</ele>
        <time>2021-02-03T08:37:28Z</time>
      </trkpt>
      <trkpt lat="45.40212" lon="6.12929">
        <ele>1629.4</ele>
        <time>2021-02-03T08:37:29Z</time>
      </trkpt>
      <trkpt lat="45.40211" lon="6.12929">
        <ele>1629.4</ele>
        <time>2021-02-03T08:37:30Z</time>
      </trkpt>
      <trkpt lat="45.4021" lon="6.12929">
        <ele>1629.4</ele>
        <time>2021-02-03T08:37:31Z</time>
      </trkpt>
      <trkpt lat="45.4021" lon="6.12929">
        <ele>1629.4</ele>
        <time>2021-02-03T08:37:32Z</time>
      </trkpt>
      <trkpt lat="45.4021" lon="6.1293">
        <ele>1630.3</ele>
        <time>2021-02-03T08:37:33Z</time>
      </trkpt>
      <trkpt lat="45.40209" lon="6.12931">
        <ele>1630.3</ele>
        <time>2021-02-03T08:37:34Z</time>
      </trkpt>
      <trkpt lat="45.40208" lon="6.12931">
        <ele>1630.3</ele>
        <time>2021-02-03T08:37:35Z</time>
      </trkpt>
      <trkpt lat="45.40208" lon="6.12932">
        <ele>1630.3</ele>
        <time>2021-02-03T08:37:36Z</time>
      </trkpt>
      <trkpt lat="45.40207" lon="6.12932">
        <ele>1630.3</ele>
        <time>2021-02-03T08:37:37Z</time>
      </trkpt>
      <trkpt lat="45.40207" lon="6.12932">
        <ele>1630.3</ele>
        <time>2021-02-03T08:37:38Z</time>
      </trkpt>
      <trkpt lat="45.40206" lon="6.12933">
        <ele>1630.9</ele>
        <time>2021-02-03T08:37:39Z</time>
      </trkpt>
      <trkpt lat="45.40206" lon="6.12933">
        <ele>1630.9</ele>
        <time>2021-02-03T08:37:40Z</time>
      </trkpt>
      <trkpt lat="45.40205" lon="6.12933">
        <ele>1630.9</ele>
        <time>2021-02-03T08:37:41Z</time>
      </trkpt>
      <trkpt lat="45.40205" lon="6.12933">
        <ele>1630.9</ele>
        <time>2021-02-03T08:37:42Z</time>
      </trkpt>
      <trkpt lat="45.40204" lon="6.12933">
        <ele>1630.9</ele>
        <time>2021-02-03T08:37:43Z</time>
      </trkpt>
      <trkpt lat="45.40204" lon="6.12933">
        <ele>1630.9</ele>
        <time>2021-02-03T08:37:44Z</time>
      </trkpt>
      <trkpt lat="45.40204" lon="6.12933">
        <ele>1630.9</ele>
        <time>2021-02-03T08:37:45Z</time>
      </trkpt>
      <trkpt lat="45.40204" lon="6.12933">
        <ele>1630.9</ele>
        <time>2021-02-03T08:37:46Z</time>
      </trkpt>
      <trkpt lat="45.40204" lon="6.12933">
        <ele>1631.5</ele>
        <time>2021-02-03T08:37:47Z</time>
      </trkpt>
      <trkpt lat="45.40203" lon="6.12932">
        <ele>1631.5</ele>
        <time>2021-02-03T08:37:48Z</time>
      </trkpt>
      <trkpt lat="45.40202" lon="6.12932">
        <ele>1631.5</ele>
        <time>2021-02-03T08:37:49Z</time>
      </trkpt>
      <trkpt lat="45.40202" lon="6.12932">
        <ele>1631.5</ele>
        <time>2021-02-03T08:37:50Z</time>
      </trkpt>
      <trkpt lat="45.40202" lon="6.12931">
        <ele>1631.5</ele>
        <time>2021-02-03T08:37:51Z</time>
      </trkpt>
      <trkpt lat="45.40201" lon="6.12931">
        <ele>1631.5</ele>
        <time>2021-02-03T08:37:52Z</time>
      </trkpt>
      <trkpt lat="45.40201" lon="6.1293">
        <ele>1631.5</ele>
        <time>2021-02-03T08:37:53Z</time>
      </trkpt>
      <trkpt lat="45.40201" lon="6.1293">
        <ele>1631.1</ele>
        <time>2021-02-03T08:37:54Z</time>
      </trkpt>
      <trkpt lat="45.402" lon="6.12929">
        <ele>1631.8</ele>
        <time>2021-02-03T08:37:55Z</time>
      </trkpt>
      <trkpt lat="45.402" lon="6.12929">
        <ele>1631.8</ele>
        <time>2021-02-03T08:37:56Z</time>
      </trkpt>
      <trkpt lat="45.402" lon="6.12928">
        <ele>1631.8</ele>
        <time>2021-02-03T08:37:57Z</time>
      </trkpt>
      <trkpt lat="45.40199" lon="6.12928">
        <ele>1631.8</ele>
        <time>2021-02-03T08:37:58Z</time>
      </trkpt>
      <trkpt lat="45.40199" lon="6.12927">
        <ele>1631.8</ele>
        <time>2021-02-03T08:37:59Z</time>
      </trkpt>
      <trkpt lat="45.40198" lon="6.12927">
        <ele>1631.8</ele>
        <time>2021-02-03T08:38:00Z</time>
      </trkpt>
      <trkpt lat="45.40198" lon="6.12926">
        <ele>1631.8</ele>
        <time>2021-02-03T08:38:01Z</time>
      </trkpt>
      <trkpt lat="45.40198" lon="6.12926">
        <ele>1632.7</ele>
        <time>2021-02-03T08:38:02Z</time>
      </trkpt>
      <trkpt lat="45.40197" lon="6.12926">
        <ele>1632.7</ele>
        <time>2021-02-03T08:38:03Z</time>
      </trkpt>
      <trkpt lat="45.40197" lon="6.12926">
        <ele>1632.7</ele>
        <time>2021-02-03T08:38:04Z</time>
      </trkpt>
      <trkpt lat="45.40196" lon="6.12926">
        <ele>1632.7</ele>
        <time>2021-02-03T08:38:05Z</time>
      </trkpt>
      <trkpt lat="45.40196" lon="6.12926">
        <ele>1632.7</ele>
        <time>2021-02-03T08:38:06Z</time>
      </trkpt>
      <trkpt lat="45.40196" lon="6.12926">
        <ele>1632.7</ele>
        <time>2021-02-03T08:38:07Z</time>
      </trkpt>
      <trkpt lat="45.40196" lon="6.12926">
        <ele>1632.7</ele>
        <time>2021-02-03T08:38:08Z</time>
      </trkpt>
      <trkpt lat="45.40196" lon="6.12927">
        <ele>1632.7</ele>
        <time>2021-02-03T08:38:09Z</time>
      </trkpt>
      <trkpt lat="45.40196" lon="6.12927">
        <ele>1632.7</ele>
        <time>2021-02-03T08:38:10Z</time>
      </trkpt>
      <trkpt lat="45.40195" lon="6.12927">
        <ele>1632.7</ele>
        <time>2021-02-03T08:38:11Z</time>
      </trkpt>
      <trkpt lat="45.40195" lon="6.12928">
        <ele>1632.7</ele>
        <time>2021-02-03T08:38:12Z</time>
      </trkpt>
      <trkpt lat="45.40195" lon="6.12928">
        <ele>1633.5</ele>
        <time>2021-02-03T08:38:13Z</time>
      </trkpt>
      <trkpt lat="45.40194" lon="6.12928">
        <ele>1633.5</ele>
        <time>2021-02-03T08:38:14Z</time>
      </trkpt>
      <trkpt lat="45.40194" lon="6.12929">
        <ele>1633.5</ele>
        <time>2021-02-03T08:38:15Z</time>
      </trkpt>
      <trkpt lat="45.40193" lon="6.12929">
        <ele>1633.5</ele>
        <time>2021-02-03T08:38:16Z</time>
      </trkpt>
      <trkpt lat="45.40192" lon="6.12929">
        <ele>1633.5</ele>
        <time>2021-02-03T08:38:17Z</time>
      </trkpt>
      <trkpt lat="45.40192" lon="6.12929">
        <ele>1633.5</ele>
        <time>2021-02-03T08:38:18Z</time>
      </trkpt>
      <trkpt lat="45.40191" lon="6.12929">
        <ele>1634.4</ele>
        <time>2021-02-03T08:38:19Z</time>
      </trkpt>
      <trkpt lat="45.40191" lon="6.1293">
        <ele>1634.4</ele>
        <time>2021-02-03T08:38:20Z</time>
      </trkpt>
      <trkpt lat="45.4019" lon="6.1293">
        <ele>1634.4</ele>
        <time>2021-02-03T08:38:21Z</time>
      </trkpt>
      <trkpt lat="45.4019" lon="6.1293">
        <ele>1634.8</ele>
        <time>2021-02-03T08:38:22Z</time>
      </trkpt>
      <trkpt lat="45.40189" lon="6.1293">
        <ele>1634.8</ele>
        <time>2021-02-03T08:38:23Z</time>
      </trkpt>
      <trkpt lat="45.40189" lon="6.12931">
        <ele>1634.8</ele>
        <time>2021-02-03T08:38:24Z</time>
      </trkpt>
      <trkpt lat="45.40189" lon="6.12931">
        <ele>1635.7</ele>
        <time>2021-02-03T08:38:25Z</time>
      </trkpt>
      <trkpt lat="45.40188" lon="6.12932">
        <ele>1635.7</ele>
        <time>2021-02-03T08:38:26Z</time>
      </trkpt>
      <trkpt lat="45.40188" lon="6.12933">
        <ele>1635.7</ele>
        <time>2021-02-03T08:38:27Z</time>
      </trkpt>
      <trkpt lat="45.40187" lon="6.12933">
        <ele>1635.7</ele>
        <time>2021-02-03T08:38:28Z</time>
      </trkpt>
      <trkpt lat="45.40187" lon="6.12934">
        <ele>1635.7</ele>
        <time>2021-02-03T08:38:29Z</time>
      </trkpt>
      <trkpt lat="45.40186" lon="6.12934">
        <ele>1636</ele>
        <time>2021-02-03T08:38:30Z</time>
      </trkpt>
      <trkpt lat="45.40185" lon="6.12935">
        <ele>1636.8</ele>
        <time>2021-02-03T08:38:31Z</time>
      </trkpt>
      <trkpt lat="45.40185" lon="6.12935">
        <ele>1636.8</ele>
        <time>2021-02-03T08:38:32Z</time>
      </trkpt>
      <trkpt lat="45.40184" lon="6.12935">
        <ele>1636.8</ele>
        <time>2021-02-03T08:38:33Z</time>
      </trkpt>
      <trkpt lat="45.40183" lon="6.12936">
        <ele>1636.8</ele>
        <time>2021-02-03T08:38:34Z</time>
      </trkpt>
      <trkpt lat="45.40183" lon="6.12936">
        <ele>1636.8</ele>
        <time>2021-02-03T08:38:35Z</time>
      </trkpt>
      <trkpt lat="45.40182" lon="6.12937">
        <ele>1637.7</ele>
        <time>2021-02-03T08:38:36Z</time>
      </trkpt>
      <trkpt lat="45.40182" lon="6.12937">
        <ele>1637.7</ele>
        <time>2021-02-03T08:38:37Z</time>
      </trkpt>
      <trkpt lat="45.40181" lon="6.12938">
        <ele>1637.7</ele>
        <time>2021-02-03T08:38:38Z</time>
      </trkpt>
      <trkpt lat="45.4018" lon="6.12938">
        <ele>1637.7</ele>
        <time>2021-02-03T08:38:39Z</time>
      </trkpt>
      <trkpt lat="45.4018" lon="6.12939">
        <ele>1638</ele>
        <time>2021-02-03T08:38:40Z</time>
      </trkpt>
      <trkpt lat="45.40179" lon="6.12939">
        <ele>1638.8</ele>
        <time>2021-02-03T08:38:41Z</time>
      </trkpt>
      <trkpt lat="45.40178" lon="6.12939">
        <ele>1638.8</ele>
        <time>2021-02-03T08:38:42Z</time>
      </trkpt>
      <trkpt lat="45.40177" lon="6.12939">
        <ele>1638.8</ele>
        <time>2021-02-03T08:38:43Z</time>
      </trkpt>
      <trkpt lat="45.40176" lon="6.12939">
        <ele>1639.8</ele>
        <time>2021-02-03T08:38:44Z</time>
      </trkpt>
      <trkpt lat="45.40176" lon="6.12939">
        <ele>1639.8</ele>
        <time>2021-02-03T08:38:45Z</time>
      </trkpt>
      <trkpt lat="45.40175" lon="6.12939">
        <ele>1639.8</ele>
        <time>2021-02-03T08:38:46Z</time>
      </trkpt>
      <trkpt lat="45.40175" lon="6.12939">
        <ele>1639.8</ele>
        <time>2021-02-03T08:38:47Z</time>
      </trkpt>
      <trkpt lat="45.40175" lon="6.12939">
        <ele>1639.8</ele>
        <time>2021-02-03T08:38:48Z</time>
      </trkpt>
      <trkpt lat="45.40174" lon="6.12939">
        <ele>1639.8</ele>
        <time>2021-02-03T08:38:49Z</time>
      </trkpt>
      <trkpt lat="45.40174" lon="6.12939">
        <ele>1639.8</ele>
        <time>2021-02-03T08:38:50Z</time>
      </trkpt>
      <trkpt lat="45.40173" lon="6.12938">
        <ele>1640.5</ele>
        <time>2021-02-03T08:38:51Z</time>
      </trkpt>
      <trkpt lat="45.40173" lon="6.12938">
        <ele>1640.5</ele>
        <time>2021-02-03T08:38:52Z</time>
      </trkpt>
      <trkpt lat="45.40172" lon="6.12938">
        <ele>1640.5</ele>
        <time>2021-02-03T08:38:53Z</time>
      </trkpt>
      <trkpt lat="45.40172" lon="6.12938">
        <ele>1640.5</ele>
        <time>2021-02-03T08:38:54Z</time>
      </trkpt>
      <trkpt lat="45.40172" lon="6.12937">
        <ele>1640.5</ele>
        <time>2021-02-03T08:38:55Z</time>
      </trkpt>
      <trkpt lat="45.40171" lon="6.12937">
        <ele>1640.5</ele>
        <time>2021-02-03T08:38:56Z</time>
      </trkpt>
      <trkpt lat="45.40171" lon="6.12937">
        <ele>1640.5</ele>
        <time>2021-02-03T08:38:57Z</time>
      </trkpt>
      <trkpt lat="45.4017" lon="6.12936">
        <ele>1641.6</ele>
        <time>2021-02-03T08:38:58Z</time>
      </trkpt>
      <trkpt lat="45.4017" lon="6.12936">
        <ele>1641.6</ele>
        <time>2021-02-03T08:38:59Z</time>
      </trkpt>
      <trkpt lat="45.40169" lon="6.12935">
        <ele>1641.6</ele>
        <time>2021-02-03T08:39:00Z</time>
      </trkpt>
      <trkpt lat="45.40169" lon="6.12935">
        <ele>1641.6</ele>
        <time>2021-02-03T08:39:01Z</time>
      </trkpt>
      <trkpt lat="45.40169" lon="6.12934">
        <ele>1641.6</ele>
        <time>2021-02-03T08:39:02Z</time>
      </trkpt>
      <trkpt lat="45.40169" lon="6.12934">
        <ele>1641.2</ele>
        <time>2021-02-03T08:39:03Z</time>
      </trkpt>
      <trkpt lat="45.40168" lon="6.12933">
        <ele>1641.2</ele>
        <time>2021-02-03T08:39:04Z</time>
      </trkpt>
      <trkpt lat="45.40168" lon="6.12933">
        <ele>1641.2</ele>
        <time>2021-02-03T08:39:05Z</time>
      </trkpt>
      <trkpt lat="45.40168" lon="6.12932">
        <ele>1641.2</ele>
        <time>2021-02-03T08:39:06Z</time>
      </trkpt>
      <trkpt lat="45.40167" lon="6.12931">
        <ele>1642.3</ele>
        <time>2021-02-03T08:39:07Z</time>
      </trkpt>
      <trkpt lat="45.40167" lon="6.12931">
        <ele>1642.3</ele>
        <time>2021-02-03T08:39:08Z</time>
      </trkpt>
      <trkpt lat="45.40166" lon="6.1293">
        <ele>1642.3</ele>
        <time>2021-02-03T08:39:09Z</time>
      </trkpt>
      <trkpt lat="45.40166" lon="6.1293">
        <ele>1641.9</ele>
        <time>2021-02-03T08:39:10Z</time>
      </trkpt>
      <trkpt lat="45.40165" lon="6.12929">
        <ele>1641.9</ele>
        <time>2021-02-03T08:39:11Z</time>
      </trkpt>
      <trkpt lat="45.40164" lon="6.12928">
        <ele>1643</ele>
        <time>2021-02-03T08:39:12Z</time>
      </trkpt>
      <trkpt lat="45.40164" lon="6.12928">
        <ele>1643</ele>
        <time>2021-02-03T08:39:13Z</time>
      </trkpt>
      <trkpt lat="45.40163" lon="6.12927">
        <ele>1643</ele>
        <time>2021-02-03T08:39:14Z</time>
      </trkpt>
      <trkpt lat="45.40163" lon="6.12927">
        <ele>1643</ele>
        <time>2021-02-03T08:39:15Z</time>
      </trkpt>
      <trkpt lat="45.40162" lon="6.12926">
        <ele>1643</ele>
        <time>2021-02-03T08:39:16Z</time>
      </trkpt>
      <trkpt lat="45.40162" lon="6.12926">
        <ele>1643</ele>
        <time>2021-02-03T08:39:17Z</time>
      </trkpt>
      <trkpt lat="45.40161" lon="6.12925">
        <ele>1643.6</ele>
        <time>2021-02-03T08:39:18Z</time>
      </trkpt>
      <trkpt lat="45.4016" lon="6.12925">
        <ele>1643.6</ele>
        <time>2021-02-03T08:39:19Z</time>
      </trkpt>
      <trkpt lat="45.40159" lon="6.12925">
        <ele>1643.6</ele>
        <time>2021-02-03T08:39:20Z</time>
      </trkpt>
      <trkpt lat="45.40158" lon="6.12924">
        <ele>1643.6</ele>
        <time>2021-02-03T08:39:21Z</time>
      </trkpt>
      <trkpt lat="45.40158" lon="6.12924">
        <ele>1644.6</ele>
        <time>2021-02-03T08:39:22Z</time>
      </trkpt>
      <trkpt lat="45.40157" lon="6.12924">
        <ele>1644.6</ele>
        <time>2021-02-03T08:39:23Z</time>
      </trkpt>
      <trkpt lat="45.40157" lon="6.12923">
        <ele>1644.6</ele>
        <time>2021-02-03T08:39:24Z</time>
      </trkpt>
      <trkpt lat="45.40156" lon="6.12923">
        <ele>1644.6</ele>
        <time>2021-02-03T08:39:25Z</time>
      </trkpt>
      <trkpt lat="45.40156" lon="6.12922">
        <ele>1644.6</ele>
        <time>2021-02-03T08:39:26Z</time>
      </trkpt>
      <trkpt lat="45.40156" lon="6.12922">
        <ele>1644.6</ele>
        <time>2021-02-03T08:39:27Z</time>
      </trkpt>
      <trkpt lat="45.40156" lon="6.12922">
        <ele>1644.6</ele>
        <time>2021-02-03T08:39:28Z</time>
      </trkpt>
      <trkpt lat="45.40155" lon="6.12921">
        <ele>1644.1</ele>
        <time>2021-02-03T08:39:29Z</time>
      </trkpt>
      <trkpt lat="45.40155" lon="6.12921">
        <ele>1645.1</ele>
        <time>2021-02-03T08:39:30Z</time>
      </trkpt>
      <trkpt lat="45.40155" lon="6.12921">
        <ele>1645.1</ele>
        <time>2021-02-03T08:39:31Z</time>
      </trkpt>
      <trkpt lat="45.40155" lon="6.12921">
        <ele>1645.1</ele>
        <time>2021-02-03T08:39:32Z</time>
      </trkpt>
      <trkpt lat="45.40155" lon="6.12921">
        <ele>1644.1</ele>
        <time>2021-02-03T08:39:33Z</time>
      </trkpt>
      <trkpt lat="45.40156" lon="6.12922">
        <ele>1644.6</ele>
        <time>2021-02-03T08:39:34Z</time>
      </trkpt>
      <trkpt lat="45.40156" lon="6.12922">
        <ele>1644.6</ele>
        <time>2021-02-03T08:39:35Z</time>
      </trkpt>
      <trkpt lat="45.40156" lon="6.12923">
        <ele>1644.6</ele>
        <time>2021-02-03T08:39:36Z</time>
      </trkpt>
      <trkpt lat="45.40156" lon="6.12923">
        <ele>1644.6</ele>
        <time>2021-02-03T08:39:37Z</time>
      </trkpt>
      <trkpt lat="45.40156" lon="6.12924">
        <ele>1644.6</ele>
        <time>2021-02-03T08:39:38Z</time>
      </trkpt>
      <trkpt lat="45.40156" lon="6.12924">
        <ele>1644.6</ele>
        <time>2021-02-03T08:39:39Z</time>
      </trkpt>
      <trkpt lat="45.40156" lon="6.12925">
        <ele>1644.6</ele>
        <time>2021-02-03T08:39:40Z</time>
      </trkpt>
      <trkpt lat="45.40156" lon="6.12925">
        <ele>1644.6</ele>
        <time>2021-02-03T08:39:41Z</time>
      </trkpt>
      <trkpt lat="45.40156" lon="6.12925">
        <ele>1644.6</ele>
        <time>2021-02-03T08:39:42Z</time>
      </trkpt>
      <trkpt lat="45.40156" lon="6.12926">
        <ele>1645</ele>
        <time>2021-02-03T08:39:43Z</time>
      </trkpt>
      <trkpt lat="45.40156" lon="6.12926">
        <ele>1645</ele>
        <time>2021-02-03T08:39:44Z</time>
      </trkpt>
      <trkpt lat="45.40156" lon="6.12927">
        <ele>1645</ele>
        <time>2021-02-03T08:39:45Z</time>
      </trkpt>
      <trkpt lat="45.40156" lon="6.12928">
        <ele>1645</ele>
        <time>2021-02-03T08:39:46Z</time>
      </trkpt>
      <trkpt lat="45.40156" lon="6.12929">
        <ele>1645</ele>
        <time>2021-02-03T08:39:47Z</time>
      </trkpt>
      <trkpt lat="45.40156" lon="6.12929">
        <ele>1645</ele>
        <time>2021-02-03T08:39:48Z</time>
      </trkpt>
      <trkpt lat="45.40155" lon="6.1293">
        <ele>1645</ele>
        <time>2021-02-03T08:39:49Z</time>
      </trkpt>
      <trkpt lat="45.40155" lon="6.1293">
        <ele>1645.3</ele>
        <time>2021-02-03T08:39:50Z</time>
      </trkpt>
      <trkpt lat="45.40155" lon="6.12931">
        <ele>1646.3</ele>
        <time>2021-02-03T08:39:51Z</time>
      </trkpt>
      <trkpt lat="45.40155" lon="6.12931">
        <ele>1646.3</ele>
        <time>2021-02-03T08:39:51Z</time>
      </trkpt>
      <trkpt lat="45.40155" lon="6.12932">
        <ele>1646.3</ele>
        <time>2021-02-03T08:39:52Z</time>
      </trkpt>
      <trkpt lat="45.40155" lon="6.12933">
        <ele>1646.3</ele>
        <time>2021-02-03T08:39:53Z</time>
      </trkpt>
      <trkpt lat="45.40154" lon="6.12934">
        <ele>1646.3</ele>
        <time>2021-02-03T08:39:54Z</time>
      </trkpt>
      <trkpt lat="45.40154" lon="6.12934">
        <ele>1646.5</ele>
        <time>2021-02-03T08:39:55Z</time>
      </trkpt>
      <trkpt lat="45.40154" lon="6.12935">
        <ele>1646.5</ele>
        <time>2021-02-03T08:39:56Z</time>
      </trkpt>
      <trkpt lat="45.40154" lon="6.12936">
        <ele>1646.5</ele>
        <time>2021-02-03T08:39:57Z</time>
      </trkpt>
      <trkpt lat="45.40153" lon="6.12936">
        <ele>1646.5</ele>
        <time>2021-02-03T08:39:58Z</time>
      </trkpt>
      <trkpt lat="45.40153" lon="6.12937">
        <ele>1646.5</ele>
        <time>2021-02-03T08:39:59Z</time>
      </trkpt>
      <trkpt lat="45.40153" lon="6.12938">
        <ele>1646.5</ele>
        <time>2021-02-03T08:40:00Z</time>
      </trkpt>
      <trkpt lat="45.40153" lon="6.12939">
        <ele>1646.7</ele>
        <time>2021-02-03T08:40:01Z</time>
      </trkpt>
      <trkpt lat="45.40152" lon="6.12939">
        <ele>1647.7</ele>
        <time>2021-02-03T08:40:02Z</time>
      </trkpt>
      <trkpt lat="45.40152" lon="6.1294">
        <ele>1647.7</ele>
        <time>2021-02-03T08:40:03Z</time>
      </trkpt>
      <trkpt lat="45.40151" lon="6.1294">
        <ele>1647.7</ele>
        <time>2021-02-03T08:40:04Z</time>
      </trkpt>
      <trkpt lat="45.40151" lon="6.1294">
        <ele>1647.7</ele>
        <time>2021-02-03T08:40:05Z</time>
      </trkpt>
      <trkpt lat="45.40151" lon="6.12941">
        <ele>1647.7</ele>
        <time>2021-02-03T08:40:06Z</time>
      </trkpt>
      <trkpt lat="45.4015" lon="6.12941">
        <ele>1647.7</ele>
        <time>2021-02-03T08:40:07Z</time>
      </trkpt>
      <trkpt lat="45.4015" lon="6.12942">
        <ele>1647.7</ele>
        <time>2021-02-03T08:40:08Z</time>
      </trkpt>
      <trkpt lat="45.4015" lon="6.12942">
        <ele>1647.7</ele>
        <time>2021-02-03T08:40:09Z</time>
      </trkpt>
      <trkpt lat="45.40149" lon="6.12943">
        <ele>1648.8</ele>
        <time>2021-02-03T08:40:10Z</time>
      </trkpt>
      <trkpt lat="45.40149" lon="6.12943">
        <ele>1648.8</ele>
        <time>2021-02-03T08:40:11Z</time>
      </trkpt>
      <trkpt lat="45.40148" lon="6.12944">
        <ele>1648.8</ele>
        <time>2021-02-03T08:40:12Z</time>
      </trkpt>
      <trkpt lat="45.40148" lon="6.12944">
        <ele>1648.8</ele>
        <time>2021-02-03T08:40:13Z</time>
      </trkpt>
      <trkpt lat="45.40147" lon="6.12945">
        <ele>1648.8</ele>
        <time>2021-02-03T08:40:14Z</time>
      </trkpt>
      <trkpt lat="45.40147" lon="6.12946">
        <ele>1648.8</ele>
        <time>2021-02-03T08:40:15Z</time>
      </trkpt>
      <trkpt lat="45.40146" lon="6.12946">
        <ele>1649.7</ele>
        <time>2021-02-03T08:40:16Z</time>
      </trkpt>
      <trkpt lat="45.40145" lon="6.12946">
        <ele>1649.7</ele>
        <time>2021-02-03T08:40:17Z</time>
      </trkpt>
      <trkpt lat="45.40143" lon="6.12946">
        <ele>1649.7</ele>
        <time>2021-02-03T08:40:18Z</time>
      </trkpt>
      <trkpt lat="45.40143" lon="6.12946">
        <ele>1650.6</ele>
        <time>2021-02-03T08:40:19Z</time>
      </trkpt>
      <trkpt lat="45.40142" lon="6.12946">
        <ele>1650.6</ele>
        <time>2021-02-03T08:40:20Z</time>
      </trkpt>
      <trkpt lat="45.40142" lon="6.12945">
        <ele>1650.6</ele>
        <time>2021-02-03T08:40:21Z</time>
      </trkpt>
      <trkpt lat="45.40141" lon="6.12945">
        <ele>1650.6</ele>
        <time>2021-02-03T08:40:22Z</time>
      </trkpt>
      <trkpt lat="45.4014" lon="6.12945">
        <ele>1650.6</ele>
        <time>2021-02-03T08:40:23Z</time>
      </trkpt>
      <trkpt lat="45.4014" lon="6.12945">
        <ele>1651.5</ele>
        <time>2021-02-03T08:40:24Z</time>
      </trkpt>
      <trkpt lat="45.40139" lon="6.12944">
        <ele>1651.5</ele>
        <time>2021-02-03T08:40:25Z</time>
      </trkpt>
      <trkpt lat="45.40139" lon="6.12944">
        <ele>1651.5</ele>
        <time>2021-02-03T08:40:26Z</time>
      </trkpt>
      <trkpt lat="45.40138" lon="6.12944">
        <ele>1651.5</ele>
        <time>2021-02-03T08:40:27Z</time>
      </trkpt>
      <trkpt lat="45.40137" lon="6.12944">
        <ele>1651.5</ele>
        <time>2021-02-03T08:40:28Z</time>
      </trkpt>
      <trkpt lat="45.40137" lon="6.12944">
        <ele>1652.5</ele>
        <time>2021-02-03T08:40:29Z</time>
      </trkpt>
      <trkpt lat="45.40136" lon="6.12944">
        <ele>1652.5</ele>
        <time>2021-02-03T08:40:30Z</time>
      </trkpt>
      <trkpt lat="45.40136" lon="6.12944">
        <ele>1652.5</ele>
        <time>2021-02-03T08:40:31Z</time>
      </trkpt>
      <trkpt lat="45.40135" lon="6.12944">
        <ele>1652.5</ele>
        <time>2021-02-03T08:40:32Z</time>
      </trkpt>
      <trkpt lat="45.40134" lon="6.12944">
        <ele>1652.5</ele>
        <time>2021-02-03T08:40:33Z</time>
      </trkpt>
      <trkpt lat="45.40134" lon="6.12944">
        <ele>1653.4</ele>
        <time>2021-02-03T08:40:34Z</time>
      </trkpt>
      <trkpt lat="45.40133" lon="6.12944">
        <ele>1653.4</ele>
        <time>2021-02-03T08:40:35Z</time>
      </trkpt>
      <trkpt lat="45.40133" lon="6.12944">
        <ele>1653.4</ele>
        <time>2021-02-03T08:40:36Z</time>
      </trkpt>
      <trkpt lat="45.40133" lon="6.12944">
        <ele>1653.4</ele>
        <time>2021-02-03T08:40:37Z</time>
      </trkpt>
      <trkpt lat="45.40132" lon="6.12945">
        <ele>1653.4</ele>
        <time>2021-02-03T08:40:38Z</time>
      </trkpt>
      <trkpt lat="45.40131" lon="6.12945">
        <ele>1654.3</ele>
        <time>2021-02-03T08:40:39Z</time>
      </trkpt>
      <trkpt lat="45.4013" lon="6.12945">
        <ele>1654.3</ele>
        <time>2021-02-03T08:40:40Z</time>
      </trkpt>
      <trkpt lat="45.4013" lon="6.12945">
        <ele>1654.3</ele>
        <time>2021-02-03T08:40:41Z</time>
      </trkpt>
      <trkpt lat="45.40129" lon="6.12945">
        <ele>1654.3</ele>
        <time>2021-02-03T08:40:42Z</time>
      </trkpt>
      <trkpt lat="45.40128" lon="6.12946">
        <ele>1654.3</ele>
        <time>2021-02-03T08:40:43Z</time>
      </trkpt>
      <trkpt lat="45.40128" lon="6.12946">
        <ele>1655.1</ele>
        <time>2021-02-03T08:40:44Z</time>
      </trkpt>
      <trkpt lat="45.40127" lon="6.12946">
        <ele>1655.1</ele>
        <time>2021-02-03T08:40:45Z</time>
      </trkpt>
      <trkpt lat="45.40126" lon="6.12947">
        <ele>1655.1</ele>
        <time>2021-02-03T08:40:46Z</time>
      </trkpt>
      <trkpt lat="45.40125" lon="6.12947">
        <ele>1655.8</ele>
        <time>2021-02-03T08:40:47Z</time>
      </trkpt>
      <trkpt lat="45.40124" lon="6.12947">
        <ele>1655.8</ele>
        <time>2021-02-03T08:40:48Z</time>
      </trkpt>
      <trkpt lat="45.40124" lon="6.12947">
        <ele>1655.9</ele>
        <time>2021-02-03T08:40:49Z</time>
      </trkpt>
      <trkpt lat="45.40123" lon="6.12947">
        <ele>1655.9</ele>
        <time>2021-02-03T08:40:50Z</time>
      </trkpt>
      <trkpt lat="45.40122" lon="6.12948">
        <ele>1656.6</ele>
        <time>2021-02-03T08:40:51Z</time>
      </trkpt>
      <trkpt lat="45.40121" lon="6.12948">
        <ele>1656.6</ele>
        <time>2021-02-03T08:40:52Z</time>
      </trkpt>
      <trkpt lat="45.40121" lon="6.12948">
        <ele>1656.6</ele>
        <time>2021-02-03T08:40:53Z</time>
      </trkpt>
      <trkpt lat="45.4012" lon="6.12949">
        <ele>1656.6</ele>
        <time>2021-02-03T08:40:54Z</time>
      </trkpt>
      <trkpt lat="45.4012" lon="6.12949">
        <ele>1656.6</ele>
        <time>2021-02-03T08:40:55Z</time>
      </trkpt>
      <trkpt lat="45.40119" lon="6.12949">
        <ele>1657.3</ele>
        <time>2021-02-03T08:40:56Z</time>
      </trkpt>
      <trkpt lat="45.40118" lon="6.12949">
        <ele>1657.3</ele>
        <time>2021-02-03T08:40:57Z</time>
      </trkpt>
      <trkpt lat="45.40117" lon="6.1295">
        <ele>1657.3</ele>
        <time>2021-02-03T08:40:58Z</time>
      </trkpt>
      <trkpt lat="45.40116" lon="6.1295">
        <ele>1658.1</ele>
        <time>2021-02-03T08:40:59Z</time>
      </trkpt>
      <trkpt lat="45.40115" lon="6.12951">
        <ele>1658.1</ele>
        <time>2021-02-03T08:41:00Z</time>
      </trkpt>
      <trkpt lat="45.40115" lon="6.12952">
        <ele>1658.1</ele>
        <time>2021-02-03T08:41:01Z</time>
      </trkpt>
      <trkpt lat="45.40114" lon="6.12953">
        <ele>1658.1</ele>
        <time>2021-02-03T08:41:02Z</time>
      </trkpt>
      <trkpt lat="45.40114" lon="6.12954">
        <ele>1658.1</ele>
        <time>2021-02-03T08:41:03Z</time>
      </trkpt>
      <trkpt lat="45.40113" lon="6.12955">
        <ele>1659</ele>
        <time>2021-02-03T08:41:04Z</time>
      </trkpt>
      <trkpt lat="45.40113" lon="6.12956">
        <ele>1659</ele>
        <time>2021-02-03T08:41:05Z</time>
      </trkpt>
      <trkpt lat="45.40112" lon="6.12956">
        <ele>1659</ele>
        <time>2021-02-03T08:41:06Z</time>
      </trkpt>
      <trkpt lat="45.40112" lon="6.12957">
        <ele>1659</ele>
        <time>2021-02-03T08:41:07Z</time>
      </trkpt>
      <trkpt lat="45.40111" lon="6.12958">
        <ele>1659</ele>
        <time>2021-02-03T08:41:08Z</time>
      </trkpt>
      <trkpt lat="45.4011" lon="6.12959">
        <ele>1659</ele>
        <time>2021-02-03T08:41:09Z</time>
      </trkpt>
      <trkpt lat="45.4011" lon="6.1296">
        <ele>1659.8</ele>
        <time>2021-02-03T08:41:10Z</time>
      </trkpt>
      <trkpt lat="45.40109" lon="6.1296">
        <ele>1659.8</ele>
        <time>2021-02-03T08:41:11Z</time>
      </trkpt>
      <trkpt lat="45.40109" lon="6.12961">
        <ele>1659.8</ele>
        <time>2021-02-03T08:41:12Z</time>
      </trkpt>
      <trkpt lat="45.40108" lon="6.12962">
        <ele>1659.8</ele>
        <time>2021-02-03T08:41:13Z</time>
      </trkpt>
      <trkpt lat="45.40108" lon="6.12963">
        <ele>1659.8</ele>
        <time>2021-02-03T08:41:14Z</time>
      </trkpt>
      <trkpt lat="45.40107" lon="6.12964">
        <ele>1659.8</ele>
        <time>2021-02-03T08:41:15Z</time>
      </trkpt>
      <trkpt lat="45.40107" lon="6.12965">
        <ele>1660.6</ele>
        <time>2021-02-03T08:41:16Z</time>
      </trkpt>
      <trkpt lat="45.40106" lon="6.12966">
        <ele>1660.6</ele>
        <time>2021-02-03T08:41:17Z</time>
      </trkpt>
      <trkpt lat="45.40106" lon="6.12967">
        <ele>1660.6</ele>
        <time>2021-02-03T08:41:18Z</time>
      </trkpt>
      <trkpt lat="45.40105" lon="6.12968">
        <ele>1660.6</ele>
        <time>2021-02-03T08:41:19Z</time>
      </trkpt>
      <trkpt lat="45.40105" lon="6.12968">
        <ele>1660.6</ele>
        <time>2021-02-03T08:41:20Z</time>
      </trkpt>
      <trkpt lat="45.40104" lon="6.12969">
        <ele>1661.4</ele>
        <time>2021-02-03T08:41:21Z</time>
      </trkpt>
      <trkpt lat="45.40104" lon="6.1297">
        <ele>1661.4</ele>
        <time>2021-02-03T08:41:22Z</time>
      </trkpt>
      <trkpt lat="45.40103" lon="6.1297">
        <ele>1661.4</ele>
        <time>2021-02-03T08:41:23Z</time>
      </trkpt>
      <trkpt lat="45.40103" lon="6.12971">
        <ele>1661.4</ele>
        <time>2021-02-03T08:41:24Z</time>
      </trkpt>
      <trkpt lat="45.40103" lon="6.12972">
        <ele>1661.4</ele>
        <time>2021-02-03T08:41:25Z</time>
      </trkpt>
      <trkpt lat="45.40102" lon="6.12973">
        <ele>1661.4</ele>
        <time>2021-02-03T08:41:26Z</time>
      </trkpt>
      <trkpt lat="45.40102" lon="6.12974">
        <ele>1661.4</ele>
        <time>2021-02-03T08:41:27Z</time>
      </trkpt>
      <trkpt lat="45.40101" lon="6.12975">
        <ele>1662.1</ele>
        <time>2021-02-03T08:41:28Z</time>
      </trkpt>
      <trkpt lat="45.401" lon="6.12976">
        <ele>1662.1</ele>
        <time>2021-02-03T08:41:29Z</time>
      </trkpt>
      <trkpt lat="45.40099" lon="6.12976">
        <ele>1662.1</ele>
        <time>2021-02-03T08:41:30Z</time>
      </trkpt>
      <trkpt lat="45.40098" lon="6.12977">
        <ele>1662.1</ele>
        <time>2021-02-03T08:41:31Z</time>
      </trkpt>
      <trkpt lat="45.40098" lon="6.12977">
        <ele>1662.8</ele>
        <time>2021-02-03T08:41:32Z</time>
      </trkpt>
      <trkpt lat="45.40097" lon="6.12978">
        <ele>1662.8</ele>
        <time>2021-02-03T08:41:33Z</time>
      </trkpt>
      <trkpt lat="45.40096" lon="6.12979">
        <ele>1662.8</ele>
        <time>2021-02-03T08:41:34Z</time>
      </trkpt>
      <trkpt lat="45.40096" lon="6.12979">
        <ele>1662.8</ele>
        <time>2021-02-03T08:41:35Z</time>
      </trkpt>
      <trkpt lat="45.40095" lon="6.1298">
        <ele>1663.5</ele>
        <time>2021-02-03T08:41:36Z</time>
      </trkpt>
      <trkpt lat="45.40094" lon="6.12981">
        <ele>1663.5</ele>
        <time>2021-02-03T08:41:37Z</time>
      </trkpt>
      <trkpt lat="45.40093" lon="6.12981">
        <ele>1663.5</ele>
        <time>2021-02-03T08:41:38Z</time>
      </trkpt>
      <trkpt lat="45.40093" lon="6.12981">
        <ele>1663.5</ele>
        <time>2021-02-03T08:41:39Z</time>
      </trkpt>
      <trkpt lat="45.40092" lon="6.12982">
        <ele>1663.5</ele>
        <time>2021-02-03T08:41:40Z</time>
      </trkpt>
      <trkpt lat="45.40092" lon="6.12982">
        <ele>1664.2</ele>
        <time>2021-02-03T08:41:41Z</time>
      </trkpt>
      <trkpt lat="45.40092" lon="6.12983">
        <ele>1664.2</ele>
        <time>2021-02-03T08:41:42Z</time>
      </trkpt>
      <trkpt lat="45.40091" lon="6.12983">
        <ele>1664.2</ele>
        <time>2021-02-03T08:41:43Z</time>
      </trkpt>
      <trkpt lat="45.40091" lon="6.12984">
        <ele>1664.2</ele>
        <time>2021-02-03T08:41:44Z</time>
      </trkpt>
      <trkpt lat="45.4009" lon="6.12984">
        <ele>1664.2</ele>
        <time>2021-02-03T08:41:45Z</time>
      </trkpt>
      <trkpt lat="45.4009" lon="6.12984">
        <ele>1664.2</ele>
        <time>2021-02-03T08:41:46Z</time>
      </trkpt>
      <trkpt lat="45.40089" lon="6.12985">
        <ele>1664.2</ele>
        <time>2021-02-03T08:41:47Z</time>
      </trkpt>
      <trkpt lat="45.40088" lon="6.12985">
        <ele>1665</ele>
        <time>2021-02-03T08:41:48Z</time>
      </trkpt>
      <trkpt lat="45.40088" lon="6.12986">
        <ele>1665</ele>
        <time>2021-02-03T08:41:49Z</time>
      </trkpt>
      <trkpt lat="45.40087" lon="6.12987">
        <ele>1665</ele>
        <time>2021-02-03T08:41:50Z</time>
      </trkpt>
      <trkpt lat="45.40086" lon="6.12987">
        <ele>1665</ele>
        <time>2021-02-03T08:41:53Z</time>
      </trkpt>
      <trkpt lat="45.40086" lon="6.12988">
        <ele>1665.9</ele>
        <time>2021-02-03T08:41:54Z</time>
      </trkpt>
      <trkpt lat="45.40085" lon="6.12988">
        <ele>1665.9</ele>
        <time>2021-02-03T08:41:55Z</time>
      </trkpt>
      <trkpt lat="45.40084" lon="6.12989">
        <ele>1665.9</ele>
        <time>2021-02-03T08:41:56Z</time>
      </trkpt>
      <trkpt lat="45.40084" lon="6.12989">
        <ele>1665.9</ele>
        <time>2021-02-03T08:41:57Z</time>
      </trkpt>
      <trkpt lat="45.40083" lon="6.1299">
        <ele>1665.9</ele>
        <time>2021-02-03T08:41:58Z</time>
      </trkpt>
      <trkpt lat="45.40083" lon="6.1299">
        <ele>1665.9</ele>
        <time>2021-02-03T08:41:59Z</time>
      </trkpt>
      <trkpt lat="45.40083" lon="6.1299">
        <ele>1666.6</ele>
        <time>2021-02-03T08:42:00Z</time>
      </trkpt>
      <trkpt lat="45.40082" lon="6.12991">
        <ele>1666.6</ele>
        <time>2021-02-03T08:42:01Z</time>
      </trkpt>
      <trkpt lat="45.40082" lon="6.12991">
        <ele>1666.6</ele>
        <time>2021-02-03T08:42:02Z</time>
      </trkpt>
      <trkpt lat="45.40081" lon="6.12992">
        <ele>1666.6</ele>
        <time>2021-02-03T08:42:03Z</time>
      </trkpt>
      <trkpt lat="45.40081" lon="6.12992">
        <ele>1666.6</ele>
        <time>2021-02-03T08:42:04Z</time>
      </trkpt>
      <trkpt lat="45.4008" lon="6.12993">
        <ele>1666.6</ele>
        <time>2021-02-03T08:42:05Z</time>
      </trkpt>
      <trkpt lat="45.4008" lon="6.12994">
        <ele>1666.6</ele>
        <time>2021-02-03T08:42:06Z</time>
      </trkpt>
      <trkpt lat="45.4008" lon="6.12995">
        <ele>1667.3</ele>
        <time>2021-02-03T08:42:07Z</time>
      </trkpt>
      <trkpt lat="45.4008" lon="6.12995">
        <ele>1667.3</ele>
        <time>2021-02-03T08:42:08Z</time>
      </trkpt>
      <trkpt lat="45.4008" lon="6.12996">
        <ele>1667.3</ele>
        <time>2021-02-03T08:42:09Z</time>
      </trkpt>
      <trkpt lat="45.40079" lon="6.12996">
        <ele>1667.3</ele>
        <time>2021-02-03T08:42:10Z</time>
      </trkpt>
      <trkpt lat="45.40078" lon="6.12996">
        <ele>1667.3</ele>
        <time>2021-02-03T08:42:11Z</time>
      </trkpt>
      <trkpt lat="45.40077" lon="6.12996">
        <ele>1668</ele>
        <time>2021-02-03T08:42:12Z</time>
      </trkpt>
      <trkpt lat="45.40076" lon="6.12997">
        <ele>1668</ele>
        <time>2021-02-03T08:42:13Z</time>
      </trkpt>
      <trkpt lat="45.40076" lon="6.12997">
        <ele>1668</ele>
        <time>2021-02-03T08:42:14Z</time>
      </trkpt>
      <trkpt lat="45.40075" lon="6.12998">
        <ele>1668</ele>
        <time>2021-02-03T08:42:15Z</time>
      </trkpt>
      <trkpt lat="45.40074" lon="6.12998">
        <ele>1668</ele>
        <time>2021-02-03T08:42:16Z</time>
      </trkpt>
      <trkpt lat="45.40074" lon="6.12999">
        <ele>1668.6</ele>
        <time>2021-02-03T08:42:17Z</time>
      </trkpt>
      <trkpt lat="45.40073" lon="6.12999">
        <ele>1668.6</ele>
        <time>2021-02-03T08:42:18Z</time>
      </trkpt>
      <trkpt lat="45.40073" lon="6.13">
        <ele>1668.6</ele>
        <time>2021-02-03T08:42:19Z</time>
      </trkpt>
      <trkpt lat="45.40072" lon="6.13001">
        <ele>1668.6</ele>
        <time>2021-02-03T08:42:20Z</time>
      </trkpt>
      <trkpt lat="45.40071" lon="6.13001">
        <ele>1668.6</ele>
        <time>2021-02-03T08:42:21Z</time>
      </trkpt>
      <trkpt lat="45.4007" lon="6.13001">
        <ele>1669.3</ele>
        <time>2021-02-03T08:42:22Z</time>
      </trkpt>
      <trkpt lat="45.4007" lon="6.13">
        <ele>1669.3</ele>
        <time>2021-02-03T08:42:23Z</time>
      </trkpt>
      <trkpt lat="45.40069" lon="6.13">
        <ele>1669.3</ele>
        <time>2021-02-03T08:42:24Z</time>
      </trkpt>
      <trkpt lat="45.40069" lon="6.12999">
        <ele>1669.3</ele>
        <time>2021-02-03T08:42:25Z</time>
      </trkpt>
      <trkpt lat="45.40068" lon="6.12998">
        <ele>1669.4</ele>
        <time>2021-02-03T08:42:26Z</time>
      </trkpt>
      <trkpt lat="45.40068" lon="6.12998">
        <ele>1670.1</ele>
        <time>2021-02-03T08:42:27Z</time>
      </trkpt>
      <trkpt lat="45.40067" lon="6.12997">
        <ele>1670.1</ele>
        <time>2021-02-03T08:42:28Z</time>
      </trkpt>
      <trkpt lat="45.40066" lon="6.12997">
        <ele>1670.1</ele>
        <time>2021-02-03T08:42:29Z</time>
      </trkpt>
      <trkpt lat="45.40066" lon="6.12996">
        <ele>1670.1</ele>
        <time>2021-02-03T08:42:30Z</time>
      </trkpt>
      <trkpt lat="45.40065" lon="6.12996">
        <ele>1670.9</ele>
        <time>2021-02-03T08:42:31Z</time>
      </trkpt>
      <trkpt lat="45.40064" lon="6.12996">
        <ele>1670.9</ele>
        <time>2021-02-03T08:42:32Z</time>
      </trkpt>
      <trkpt lat="45.40064" lon="6.12996">
        <ele>1670.9</ele>
        <time>2021-02-03T08:42:33Z</time>
      </trkpt>
      <trkpt lat="45.40064" lon="6.12997">
        <ele>1670.9</ele>
        <time>2021-02-03T08:42:34Z</time>
      </trkpt>
      <trkpt lat="45.40064" lon="6.12998">
        <ele>1670.9</ele>
        <time>2021-02-03T08:42:35Z</time>
      </trkpt>
      <trkpt lat="45.40064" lon="6.12998">
        <ele>1670.9</ele>
        <time>2021-02-03T08:42:36Z</time>
      </trkpt>
      <trkpt lat="45.40064" lon="6.12999">
        <ele>1670.8</ele>
        <time>2021-02-03T08:42:37Z</time>
      </trkpt>
      <trkpt lat="45.40064" lon="6.12999">
        <ele>1670.8</ele>
        <time>2021-02-03T08:42:38Z</time>
      </trkpt>
      <trkpt lat="45.40064" lon="6.13">
        <ele>1670.8</ele>
        <time>2021-02-03T08:42:39Z</time>
      </trkpt>
      <trkpt lat="45.40064" lon="6.13">
        <ele>1670.8</ele>
        <time>2021-02-03T08:42:40Z</time>
      </trkpt>
      <trkpt lat="45.40064" lon="6.13001">
        <ele>1670.8</ele>
        <time>2021-02-03T08:42:41Z</time>
      </trkpt>
      <trkpt lat="45.40064" lon="6.13001">
        <ele>1670.8</ele>
        <time>2021-02-03T08:42:42Z</time>
      </trkpt>
      <trkpt lat="45.40064" lon="6.13002">
        <ele>1670.8</ele>
        <time>2021-02-03T08:42:43Z</time>
      </trkpt>
      <trkpt lat="45.40064" lon="6.13002">
        <ele>1670.8</ele>
        <time>2021-02-03T08:42:44Z</time>
      </trkpt>
      <trkpt lat="45.40064" lon="6.13003">
        <ele>1670.6</ele>
        <time>2021-02-03T08:42:45Z</time>
      </trkpt>
      <trkpt lat="45.40064" lon="6.13004">
        <ele>1670.6</ele>
        <time>2021-02-03T08:42:46Z</time>
      </trkpt>
      <trkpt lat="45.40064" lon="6.13004">
        <ele>1670.6</ele>
        <time>2021-02-03T08:45:23Z</time>
      </trkpt>
      <trkpt lat="45.40064" lon="6.13005">
        <ele>1670.6</ele>
        <time>2021-02-03T08:45:24Z</time>
      </trkpt>
      <trkpt lat="45.40064" lon="6.13005">
        <ele>1670.6</ele>
        <time>2021-02-03T08:45:25Z</time>
      </trkpt>
      <trkpt lat="45.40064" lon="6.13006">
        <ele>1670.6</ele>
        <time>2021-02-03T08:45:26Z</time>
      </trkpt>
      <trkpt lat="45.40064" lon="6.13006">
        <ele>1670.6</ele>
        <time>2021-02-03T08:45:27Z</time>
      </trkpt>
      <trkpt lat="45.40064" lon="6.13007">
        <ele>1670.6</ele>
        <time>2021-02-03T08:45:28Z</time>
      </trkpt>
      <trkpt lat="45.40065" lon="6.13007">
        <ele>1670.5</ele>
        <time>2021-02-03T08:45:29Z</time>
      </trkpt>
      <trkpt lat="45.40065" lon="6.13008">
        <ele>1670.5</ele>
        <time>2021-02-03T08:45:30Z</time>
      </trkpt>
      <trkpt lat="45.40065" lon="6.13008">
        <ele>1670.5</ele>
        <time>2021-02-03T08:45:31Z</time>
      </trkpt>
      <trkpt lat="45.40065" lon="6.13009">
        <ele>1670.5</ele>
        <time>2021-02-03T08:45:32Z</time>
      </trkpt>
      <trkpt lat="45.40065" lon="6.1301">
        <ele>1670.5</ele>
        <time>2021-02-03T08:45:33Z</time>
      </trkpt>
      <trkpt lat="45.40065" lon="6.1301">
        <ele>1670.5</ele>
        <time>2021-02-03T08:49:22Z</time>
      </trkpt>
      <trkpt lat="45.40065" lon="6.13011">
        <ele>1670.5</ele>
        <time>2021-02-03T08:49:23Z</time>
      </trkpt>
      <trkpt lat="45.40065" lon="6.13011">
        <ele>1670.5</ele>
        <time>2021-02-03T08:49:24Z</time>
      </trkpt>
      <trkpt lat="45.40065" lon="6.13012">
        <ele>1670.4</ele>
        <time>2021-02-03T08:49:25Z</time>
      </trkpt>
      <trkpt lat="45.40064" lon="6.13012">
        <ele>1670.4</ele>
        <time>2021-02-03T08:49:26Z</time>
      </trkpt>
      <trkpt lat="45.40063" lon="6.13013">
        <ele>1670.4</ele>
        <time>2021-02-03T08:49:27Z</time>
      </trkpt>
      <trkpt lat="45.40063" lon="6.13013">
        <ele>1670.4</ele>
        <time>2021-02-03T08:49:28Z</time>
      </trkpt>
      <trkpt lat="45.40062" lon="6.13014">
        <ele>1670.4</ele>
        <time>2021-02-03T08:49:29Z</time>
      </trkpt>
      <trkpt lat="45.40061" lon="6.13014">
        <ele>1671.2</ele>
        <time>2021-02-03T08:49:30Z</time>
      </trkpt>
      <trkpt lat="45.40061" lon="6.13015">
        <ele>1671.2</ele>
        <time>2021-02-03T08:49:31Z</time>
      </trkpt>
      <trkpt lat="45.4006" lon="6.13015">
        <ele>1671.2</ele>
        <time>2021-02-03T08:49:32Z</time>
      </trkpt>
      <trkpt lat="45.40059" lon="6.13016">
        <ele>1671.1</ele>
        <time>2021-02-03T08:49:33Z</time>
      </trkpt>
      <trkpt lat="45.40059" lon="6.13016">
        <ele>1671.9</ele>
        <time>2021-02-03T08:49:34Z</time>
      </trkpt>
      <trkpt lat="45.40058" lon="6.13016">
        <ele>1671.9</ele>
        <time>2021-02-03T08:49:35Z</time>
      </trkpt>
      <trkpt lat="45.40058" lon="6.13017">
        <ele>1671.9</ele>
        <time>2021-02-03T08:49:36Z</time>
      </trkpt>
      <trkpt lat="45.40058" lon="6.13017">
        <ele>1671.9</ele>
        <time>2021-02-03T08:49:37Z</time>
      </trkpt>
      <trkpt lat="45.40058" lon="6.13018">
        <ele>1671.9</ele>
        <time>2021-02-03T08:49:38Z</time>
      </trkpt>
      <trkpt lat="45.40058" lon="6.13019">
        <ele>1671.9</ele>
        <time>2021-02-03T08:49:39Z</time>
      </trkpt>
      <trkpt lat="45.40058" lon="6.13019">
        <ele>1671.9</ele>
        <time>2021-02-03T08:49:40Z</time>
      </trkpt>
      <trkpt lat="45.40058" lon="6.1302">
        <ele>1671.8</ele>
        <time>2021-02-03T08:49:41Z</time>
      </trkpt>
      <trkpt lat="45.40057" lon="6.13021">
        <ele>1671.8</ele>
        <time>2021-02-03T08:49:42Z</time>
      </trkpt>
      <trkpt lat="45.40057" lon="6.13021">
        <ele>1671.8</ele>
        <time>2021-02-03T08:49:43Z</time>
      </trkpt>
      <trkpt lat="45.40057" lon="6.13021">
        <ele>1671.8</ele>
        <time>2021-02-03T08:49:44Z</time>
      </trkpt>
      <trkpt lat="45.40057" lon="6.13021">
        <ele>1671.8</ele>
        <time>2021-02-03T08:49:45Z</time>
      </trkpt>
      <trkpt lat="45.40056" lon="6.13021">
        <ele>1671.8</ele>
        <time>2021-02-03T08:49:46Z</time>
      </trkpt>
      <trkpt lat="45.40056" lon="6.13021">
        <ele>1672.6</ele>
        <time>2021-02-03T08:49:47Z</time>
      </trkpt>
      <trkpt lat="45.40055" lon="6.13021">
        <ele>1672.6</ele>
        <time>2021-02-03T08:49:48Z</time>
      </trkpt>
      <trkpt lat="45.40055" lon="6.1302">
        <ele>1672.6</ele>
        <time>2021-02-03T08:49:49Z</time>
      </trkpt>
      <trkpt lat="45.40054" lon="6.1302">
        <ele>1672.6</ele>
        <time>2021-02-03T08:49:50Z</time>
      </trkpt>
      <trkpt lat="45.40054" lon="6.1302">
        <ele>1672.8</ele>
        <time>2021-02-03T08:49:51Z</time>
      </trkpt>
      <trkpt lat="45.40053" lon="6.1302">
        <ele>1672.8</ele>
        <time>2021-02-03T08:49:52Z</time>
      </trkpt>
      <trkpt lat="45.40052" lon="6.13019">
        <ele>1673.7</ele>
        <time>2021-02-03T08:49:53Z</time>
      </trkpt>
      <trkpt lat="45.40052" lon="6.13019">
        <ele>1673.7</ele>
        <time>2021-02-03T08:49:54Z</time>
      </trkpt>
      <trkpt lat="45.40051" lon="6.13019">
        <ele>1673.7</ele>
        <time>2021-02-03T08:49:55Z</time>
      </trkpt>
      <trkpt lat="45.40051" lon="6.13019">
        <ele>1673.7</ele>
        <time>2021-02-03T08:49:56Z</time>
      </trkpt>
      <trkpt lat="45.4005" lon="6.13019">
        <ele>1673.7</ele>
        <time>2021-02-03T08:49:57Z</time>
      </trkpt>
      <trkpt lat="45.4005" lon="6.13018">
        <ele>1674.6</ele>
        <time>2021-02-03T08:49:58Z</time>
      </trkpt>
      <trkpt lat="45.40049" lon="6.13018">
        <ele>1674.6</ele>
        <time>2021-02-03T08:49:59Z</time>
      </trkpt>
      <trkpt lat="45.40049" lon="6.13018">
        <ele>1674.6</ele>
        <time>2021-02-03T08:50:00Z</time>
      </trkpt>
      <trkpt lat="45.40048" lon="6.13018">
        <ele>1674.6</ele>
        <time>2021-02-03T08:50:01Z</time>
      </trkpt>
      <trkpt lat="45.40047" lon="6.13017">
        <ele>1674.6</ele>
        <time>2021-02-03T08:50:02Z</time>
      </trkpt>
      <trkpt lat="45.40047" lon="6.13017">
        <ele>1675.4</ele>
        <time>2021-02-03T08:50:03Z</time>
      </trkpt>
      <trkpt lat="45.40046" lon="6.13016">
        <ele>1675.4</ele>
        <time>2021-02-03T08:50:04Z</time>
      </trkpt>
      <trkpt lat="45.40046" lon="6.13016">
        <ele>1675.4</ele>
        <time>2021-02-03T08:50:05Z</time>
      </trkpt>
      <trkpt lat="45.40045" lon="6.13017">
        <ele>1675.4</ele>
        <time>2021-02-03T08:50:06Z</time>
      </trkpt>
      <trkpt lat="45.40045" lon="6.13017">
        <ele>1675.4</ele>
        <time>2021-02-03T08:50:07Z</time>
      </trkpt>
      <trkpt lat="45.40045" lon="6.13017">
        <ele>1675.4</ele>
        <time>2021-02-03T08:50:08Z</time>
      </trkpt>
      <trkpt lat="45.40044" lon="6.13018">
        <ele>1675.4</ele>
        <time>2021-02-03T08:50:09Z</time>
      </trkpt>
      <trkpt lat="45.40044" lon="6.13018">
        <ele>1676.2</ele>
        <time>2021-02-03T08:50:10Z</time>
      </trkpt>
      <trkpt lat="45.40043" lon="6.13018">
        <ele>1676.2</ele>
        <time>2021-02-03T08:50:11Z</time>
      </trkpt>
      <trkpt lat="45.40043" lon="6.13019">
        <ele>1676.2</ele>
        <time>2021-02-03T08:50:12Z</time>
      </trkpt>
      <trkpt lat="45.40043" lon="6.1302">
        <ele>1676.2</ele>
        <time>2021-02-03T08:50:13Z</time>
      </trkpt>
      <trkpt lat="45.40043" lon="6.13021">
        <ele>1676.1</ele>
        <time>2021-02-03T08:50:14Z</time>
      </trkpt>
      <trkpt lat="45.40042" lon="6.13021">
        <ele>1676.1</ele>
        <time>2021-02-03T08:50:15Z</time>
      </trkpt>
      <trkpt lat="45.40042" lon="6.13022">
        <ele>1676.1</ele>
        <time>2021-02-03T08:50:16Z</time>
      </trkpt>
      <trkpt lat="45.40042" lon="6.13023">
        <ele>1676.1</ele>
        <time>2021-02-03T08:50:17Z</time>
      </trkpt>
      <trkpt lat="45.40042" lon="6.13023">
        <ele>1676.1</ele>
        <time>2021-02-03T08:50:18Z</time>
      </trkpt>
      <trkpt lat="45.40041" lon="6.13024">
        <ele>1676.1</ele>
        <time>2021-02-03T08:50:19Z</time>
      </trkpt>
      <trkpt lat="45.40041" lon="6.13025">
        <ele>1675.9</ele>
        <time>2021-02-03T08:50:20Z</time>
      </trkpt>
      <trkpt lat="45.40041" lon="6.13026">
        <ele>1675.9</ele>
        <time>2021-02-03T08:50:21Z</time>
      </trkpt>
      <trkpt lat="45.40041" lon="6.13026">
        <ele>1676.7</ele>
        <time>2021-02-03T08:50:22Z</time>
      </trkpt>
      <trkpt lat="45.4004" lon="6.13027">
        <ele>1676.7</ele>
        <time>2021-02-03T08:50:23Z</time>
      </trkpt>
      <trkpt lat="45.4004" lon="6.13028">
        <ele>1676.7</ele>
        <time>2021-02-03T08:50:24Z</time>
      </trkpt>
      <trkpt lat="45.40039" lon="6.13029">
        <ele>1676.6</ele>
        <time>2021-02-03T08:50:25Z</time>
      </trkpt>
      <trkpt lat="45.40039" lon="6.1303">
        <ele>1676.6</ele>
        <time>2021-02-03T08:50:26Z</time>
      </trkpt>
      <trkpt lat="45.40039" lon="6.13031">
        <ele>1676.6</ele>
        <time>2021-02-03T08:50:27Z</time>
      </trkpt>
      <trkpt lat="45.40039" lon="6.13032">
        <ele>1676.6</ele>
        <time>2021-02-03T08:50:28Z</time>
      </trkpt>
      <trkpt lat="45.40039" lon="6.13033">
        <ele>1676.5</ele>
        <time>2021-02-03T08:50:29Z</time>
      </trkpt>
      <trkpt lat="45.40039" lon="6.13034">
        <ele>1676.5</ele>
        <time>2021-02-03T08:50:30Z</time>
      </trkpt>
      <trkpt lat="45.40038" lon="6.13035">
        <ele>1676.5</ele>
        <time>2021-02-03T08:50:31Z</time>
      </trkpt>
      <trkpt lat="45.40038" lon="6.13035">
        <ele>1676.5</ele>
        <time>2021-02-03T08:50:32Z</time>
      </trkpt>
      <trkpt lat="45.40038" lon="6.13036">
        <ele>1677.2</ele>
        <time>2021-02-03T08:50:33Z</time>
      </trkpt>
      <trkpt lat="45.40037" lon="6.13036">
        <ele>1677.2</ele>
        <time>2021-02-03T08:50:34Z</time>
      </trkpt>
      <trkpt lat="45.40037" lon="6.13036">
        <ele>1677.2</ele>
        <time>2021-02-03T08:50:35Z</time>
      </trkpt>
      <trkpt lat="45.40036" lon="6.13036">
        <ele>1677.2</ele>
        <time>2021-02-03T08:50:36Z</time>
      </trkpt>
      <trkpt lat="45.40035" lon="6.13035">
        <ele>1677.2</ele>
        <time>2021-02-03T08:50:37Z</time>
      </trkpt>
      <trkpt lat="45.40035" lon="6.13035">
        <ele>1678</ele>
        <time>2021-02-03T08:50:38Z</time>
      </trkpt>
      <trkpt lat="45.40034" lon="6.13035">
        <ele>1678</ele>
        <time>2021-02-03T08:50:39Z</time>
      </trkpt>
      <trkpt lat="45.40033" lon="6.13034">
        <ele>1678</ele>
        <time>2021-02-03T08:50:40Z</time>
      </trkpt>
      <trkpt lat="45.40032" lon="6.13034">
        <ele>1678</ele>
        <time>2021-02-03T08:50:41Z</time>
      </trkpt>
      <trkpt lat="45.40032" lon="6.13034">
        <ele>1678.9</ele>
        <time>2021-02-03T08:50:42Z</time>
      </trkpt>
      <trkpt lat="45.40031" lon="6.13033">
        <ele>1678.9</ele>
        <time>2021-02-03T08:50:43Z</time>
      </trkpt>
      <trkpt lat="45.4003" lon="6.13033">
        <ele>1678.9</ele>
        <time>2021-02-03T08:50:44Z</time>
      </trkpt>
      <trkpt lat="45.40029" lon="6.13033">
        <ele>1679.1</ele>
        <time>2021-02-03T08:50:45Z</time>
      </trkpt>
      <trkpt lat="45.40029" lon="6.13032">
        <ele>1680.1</ele>
        <time>2021-02-03T08:50:46Z</time>
      </trkpt>
      <trkpt lat="45.40028" lon="6.13032">
        <ele>1680.1</ele>
        <time>2021-02-03T08:50:47Z</time>
      </trkpt>
      <trkpt lat="45.40027" lon="6.13031">
        <ele>1680.1</ele>
        <time>2021-02-03T08:50:48Z</time>
      </trkpt>
      <trkpt lat="45.40027" lon="6.13031">
        <ele>1680.1</ele>
        <time>2021-02-03T08:50:49Z</time>
      </trkpt>
      <trkpt lat="45.40026" lon="6.13031">
        <ele>1680.1</ele>
        <time>2021-02-03T08:50:50Z</time>
      </trkpt>
      <trkpt lat="45.40026" lon="6.1303">
        <ele>1681.1</ele>
        <time>2021-02-03T08:50:51Z</time>
      </trkpt>
      <trkpt lat="45.40025" lon="6.1303">
        <ele>1681.1</ele>
        <time>2021-02-03T08:50:52Z</time>
      </trkpt>
      <trkpt lat="45.40025" lon="6.1303">
        <ele>1681.1</ele>
        <time>2021-02-03T08:50:53Z</time>
      </trkpt>
      <trkpt lat="45.40024" lon="6.13029">
        <ele>1681.1</ele>
        <time>2021-02-03T08:50:54Z</time>
      </trkpt>
      <trkpt lat="45.40023" lon="6.13029">
        <ele>1681.1</ele>
        <time>2021-02-03T08:50:55Z</time>
      </trkpt>
      <trkpt lat="45.40023" lon="6.13029">
        <ele>1682.2</ele>
        <time>2021-02-03T08:50:56Z</time>
      </trkpt>
      <trkpt lat="45.40022" lon="6.13029">
        <ele>1682.2</ele>
        <time>2021-02-03T08:50:57Z</time>
      </trkpt>
      <trkpt lat="45.40021" lon="6.13029">
        <ele>1682.2</ele>
        <time>2021-02-03T08:50:58Z</time>
      </trkpt>
      <trkpt lat="45.40021" lon="6.13029">
        <ele>1682.2</ele>
        <time>2021-02-03T08:50:59Z</time>
      </trkpt>
      <trkpt lat="45.40021" lon="6.1303">
        <ele>1682.2</ele>
        <time>2021-02-03T08:51:00Z</time>
      </trkpt>
      <trkpt lat="45.4002" lon="6.13031">
        <ele>1682.2</ele>
        <time>2021-02-03T08:51:01Z</time>
      </trkpt>
      <trkpt lat="45.4002" lon="6.13032">
        <ele>1682.2</ele>
        <time>2021-02-03T08:51:02Z</time>
      </trkpt>
      <trkpt lat="45.4002" lon="6.13033">
        <ele>1682.2</ele>
        <time>2021-02-03T08:51:03Z</time>
      </trkpt>
      <trkpt lat="45.4002" lon="6.13033">
        <ele>1682.1</ele>
        <time>2021-02-03T08:51:04Z</time>
      </trkpt>
      <trkpt lat="45.4002" lon="6.13034">
        <ele>1682.1</ele>
        <time>2021-02-03T08:51:05Z</time>
      </trkpt>
      <trkpt lat="45.4002" lon="6.13035">
        <ele>1682.1</ele>
        <time>2021-02-03T08:51:06Z</time>
      </trkpt>
      <trkpt lat="45.4002" lon="6.13036">
        <ele>1683</ele>
        <time>2021-02-03T08:51:07Z</time>
      </trkpt>
      <trkpt lat="45.40019" lon="6.13036">
        <ele>1683</ele>
        <time>2021-02-03T08:51:08Z</time>
      </trkpt>
      <trkpt lat="45.40019" lon="6.13037">
        <ele>1683</ele>
        <time>2021-02-03T08:51:09Z</time>
      </trkpt>
      <trkpt lat="45.40019" lon="6.13037">
        <ele>1683</ele>
        <time>2021-02-03T08:51:10Z</time>
      </trkpt>
      <trkpt lat="45.40018" lon="6.13038">
        <ele>1682.9</ele>
        <time>2021-02-03T08:51:11Z</time>
      </trkpt>
      <trkpt lat="45.40018" lon="6.13039">
        <ele>1682.9</ele>
        <time>2021-02-03T08:51:12Z</time>
      </trkpt>
      <trkpt lat="45.40017" lon="6.13039">
        <ele>1682.9</ele>
        <time>2021-02-03T08:51:13Z</time>
      </trkpt>
      <trkpt lat="45.40017" lon="6.1304">
        <ele>1682.9</ele>
        <time>2021-02-03T08:51:14Z</time>
      </trkpt>
      <trkpt lat="45.40016" lon="6.13041">
        <ele>1683.8</ele>
        <time>2021-02-03T08:51:15Z</time>
      </trkpt>
      <trkpt lat="45.40016" lon="6.13041">
        <ele>1683.8</ele>
        <time>2021-02-03T08:51:16Z</time>
      </trkpt>
      <trkpt lat="45.40015" lon="6.13041">
        <ele>1683.8</ele>
        <time>2021-02-03T08:51:17Z</time>
      </trkpt>
      <trkpt lat="45.40014" lon="6.13042">
        <ele>1683.7</ele>
        <time>2021-02-03T08:51:18Z</time>
      </trkpt>
      <trkpt lat="45.40013" lon="6.13042">
        <ele>1684.6</ele>
        <time>2021-02-03T08:51:19Z</time>
      </trkpt>
      <trkpt lat="45.40013" lon="6.13042">
        <ele>1684.6</ele>
        <time>2021-02-03T08:51:20Z</time>
      </trkpt>
      <trkpt lat="45.40012" lon="6.13042">
        <ele>1684.6</ele>
        <time>2021-02-03T08:51:21Z</time>
      </trkpt>
      <trkpt lat="45.40011" lon="6.13043">
        <ele>1684.6</ele>
        <time>2021-02-03T08:51:22Z</time>
      </trkpt>
      <trkpt lat="45.4001" lon="6.13043">
        <ele>1685.6</ele>
        <time>2021-02-03T08:51:23Z</time>
      </trkpt>
      <trkpt lat="45.4001" lon="6.13043">
        <ele>1685.6</ele>
        <time>2021-02-03T08:51:24Z</time>
      </trkpt>
      <trkpt lat="45.40009" lon="6.13043">
        <ele>1685.6</ele>
        <time>2021-02-03T08:51:25Z</time>
      </trkpt>
      <trkpt lat="45.40009" lon="6.13043">
        <ele>1685.6</ele>
        <time>2021-02-03T08:51:26Z</time>
      </trkpt>
      <trkpt lat="45.40008" lon="6.13044">
        <ele>1685.6</ele>
        <time>2021-02-03T08:51:27Z</time>
      </trkpt>
      <trkpt lat="45.40008" lon="6.13044">
        <ele>1686.7</ele>
        <time>2021-02-03T08:51:28Z</time>
      </trkpt>
      <trkpt lat="45.40007" lon="6.13044">
        <ele>1686.7</ele>
        <time>2021-02-03T08:51:29Z</time>
      </trkpt>
      <trkpt lat="45.40007" lon="6.13045">
        <ele>1686.7</ele>
        <time>2021-02-03T08:51:30Z</time>
      </trkpt>
      <trkpt lat="45.40007" lon="6.13045">
        <ele>1686.7</ele>
        <time>2021-02-03T08:51:31Z</time>
      </trkpt>
      <trkpt lat="45.40006" lon="6.13046">
        <ele>1686.6</ele>
        <time>2021-02-03T08:51:32Z</time>
      </trkpt>
      <trkpt lat="45.40006" lon="6.13047">
        <ele>1686.6</ele>
        <time>2021-02-03T08:51:33Z</time>
      </trkpt>
      <trkpt lat="45.40005" lon="6.13047">
        <ele>1686.6</ele>
        <time>2021-02-03T08:51:34Z</time>
      </trkpt>
      <trkpt lat="45.40005" lon="6.13048">
        <ele>1687.8</ele>
        <time>2021-02-03T08:51:35Z</time>
      </trkpt>
      <trkpt lat="45.40004" lon="6.13049">
        <ele>1687.8</ele>
        <time>2021-02-03T08:51:36Z</time>
      </trkpt>
      <trkpt lat="45.40004" lon="6.1305">
        <ele>1687.8</ele>
        <time>2021-02-03T08:51:37Z</time>
      </trkpt>
      <trkpt lat="45.40003" lon="6.1305">
        <ele>1687.7</ele>
        <time>2021-02-03T08:51:38Z</time>
      </trkpt>
      <trkpt lat="45.40003" lon="6.13051">
        <ele>1687.7</ele>
        <time>2021-02-03T08:51:39Z</time>
      </trkpt>
      <trkpt lat="45.40002" lon="6.13052">
        <ele>1687.7</ele>
        <time>2021-02-03T08:51:40Z</time>
      </trkpt>
      <trkpt lat="45.40002" lon="6.13053">
        <ele>1687.7</ele>
        <time>2021-02-03T08:51:41Z</time>
      </trkpt>
      <trkpt lat="45.40001" lon="6.13053">
        <ele>1689</ele>
        <time>2021-02-03T08:51:42Z</time>
      </trkpt>
      <trkpt lat="45.4" lon="6.13054">
        <ele>1689</ele>
        <time>2021-02-03T08:51:43Z</time>
      </trkpt>
      <trkpt lat="45.4" lon="6.13054">
        <ele>1688.9</ele>
        <time>2021-02-03T08:51:44Z</time>
      </trkpt>
      <trkpt lat="45.4" lon="6.13055">
        <ele>1688.9</ele>
        <time>2021-02-03T08:51:45Z</time>
      </trkpt>
      <trkpt lat="45.39999" lon="6.13056">
        <ele>1688.9</ele>
        <time>2021-02-03T08:51:46Z</time>
      </trkpt>
      <trkpt lat="45.39999" lon="6.13056">
        <ele>1688.9</ele>
        <time>2021-02-03T08:51:47Z</time>
      </trkpt>
      <trkpt lat="45.39998" lon="6.13056">
        <ele>1690.2</ele>
        <time>2021-02-03T08:51:48Z</time>
      </trkpt>
      <trkpt lat="45.39998" lon="6.13056">
        <ele>1690.2</ele>
        <time>2021-02-03T08:51:49Z</time>
      </trkpt>
      <trkpt lat="45.39997" lon="6.13056">
        <ele>1690.2</ele>
        <time>2021-02-03T08:51:50Z</time>
      </trkpt>
      <trkpt lat="45.39997" lon="6.13056">
        <ele>1690.2</ele>
        <time>2021-02-03T08:51:51Z</time>
      </trkpt>
      <trkpt lat="45.39996" lon="6.13056">
        <ele>1690.2</ele>
        <time>2021-02-03T08:51:52Z</time>
      </trkpt>
      <trkpt lat="45.39996" lon="6.13056">
        <ele>1690.2</ele>
        <time>2021-02-03T08:51:53Z</time>
      </trkpt>
      <trkpt lat="45.39995" lon="6.13055">
        <ele>1691.5</ele>
        <time>2021-02-03T08:51:54Z</time>
      </trkpt>
      <trkpt lat="45.39995" lon="6.13055">
        <ele>1691.5</ele>
        <time>2021-02-03T08:51:55Z</time>
      </trkpt>
      <trkpt lat="45.39995" lon="6.13055">
        <ele>1691.5</ele>
        <time>2021-02-03T08:51:56Z</time>
      </trkpt>
      <trkpt lat="45.39995" lon="6.13055">
        <ele>1691.5</ele>
        <time>2021-02-03T08:51:57Z</time>
      </trkpt>
      <trkpt lat="45.39994" lon="6.13055">
        <ele>1691.5</ele>
        <time>2021-02-03T08:51:58Z</time>
      </trkpt>
      <trkpt lat="45.39994" lon="6.13054">
        <ele>1691.5</ele>
        <time>2021-02-03T08:51:59Z</time>
      </trkpt>
      <trkpt lat="45.39993" lon="6.13054">
        <ele>1691.5</ele>
        <time>2021-02-03T08:52:00Z</time>
      </trkpt>
      <trkpt lat="45.39993" lon="6.13054">
        <ele>1691.5</ele>
        <time>2021-02-03T08:52:01Z</time>
      </trkpt>
      <trkpt lat="45.39993" lon="6.13054">
        <ele>1691.5</ele>
        <time>2021-02-03T08:52:02Z</time>
      </trkpt>
      <trkpt lat="45.39993" lon="6.13054">
        <ele>1692.7</ele>
        <time>2021-02-03T08:52:03Z</time>
      </trkpt>
      <trkpt lat="45.39992" lon="6.13054">
        <ele>1692.8</ele>
        <time>2021-02-03T08:52:04Z</time>
      </trkpt>
      <trkpt lat="45.39992" lon="6.13054">
        <ele>1692.8</ele>
        <time>2021-02-03T08:52:05Z</time>
      </trkpt>
      <trkpt lat="45.39992" lon="6.13054">
        <ele>1692.8</ele>
        <time>2021-02-03T08:52:06Z</time>
      </trkpt>
      <trkpt lat="45.39991" lon="6.13053">
        <ele>1692.8</ele>
        <time>2021-02-03T08:52:07Z</time>
      </trkpt>
      <trkpt lat="45.39991" lon="6.13053">
        <ele>1692.8</ele>
        <time>2021-02-03T08:52:08Z</time>
      </trkpt>
      <trkpt lat="45.39991" lon="6.13052">
        <ele>1692.8</ele>
        <time>2021-02-03T08:52:09Z</time>
      </trkpt>
      <trkpt lat="45.3999" lon="6.13052">
        <ele>1692.8</ele>
        <time>2021-02-03T08:52:10Z</time>
      </trkpt>
      <trkpt lat="45.39989" lon="6.13052">
        <ele>1694</ele>
        <time>2021-02-03T08:52:11Z</time>
      </trkpt>
      <trkpt lat="45.39988" lon="6.13051">
        <ele>1694</ele>
        <time>2021-02-03T08:52:12Z</time>
      </trkpt>
      <trkpt lat="45.39988" lon="6.13051">
        <ele>1694</ele>
        <time>2021-02-03T08:52:13Z</time>
      </trkpt>
      <trkpt lat="45.39987" lon="6.13052">
        <ele>1694</ele>
        <time>2021-02-03T08:52:14Z</time>
      </trkpt>
      <trkpt lat="45.39987" lon="6.13052">
        <ele>1695.3</ele>
        <time>2021-02-03T08:52:15Z</time>
      </trkpt>
      <trkpt lat="45.39986" lon="6.13053">
        <ele>1695.3</ele>
        <time>2021-02-03T08:52:16Z</time>
      </trkpt>
      <trkpt lat="45.39986" lon="6.13054">
        <ele>1695.3</ele>
        <time>2021-02-03T08:52:17Z</time>
      </trkpt>
      <trkpt lat="45.39986" lon="6.13055">
        <ele>1695.1</ele>
        <time>2021-02-03T08:52:18Z</time>
      </trkpt>
      <trkpt lat="45.39985" lon="6.13055">
        <ele>1695.1</ele>
        <time>2021-02-03T08:52:19Z</time>
      </trkpt>
      <trkpt lat="45.39985" lon="6.13056">
        <ele>1695.1</ele>
        <time>2021-02-03T08:52:20Z</time>
      </trkpt>
      <trkpt lat="45.39984" lon="6.13056">
        <ele>1695.1</ele>
        <time>2021-02-03T08:52:21Z</time>
      </trkpt>
      <trkpt lat="45.39984" lon="6.13057">
        <ele>1696.4</ele>
        <time>2021-02-03T08:52:22Z</time>
      </trkpt>
      <trkpt lat="45.39983" lon="6.13057">
        <ele>1696.4</ele>
        <time>2021-02-03T08:52:23Z</time>
      </trkpt>
      <trkpt lat="45.39983" lon="6.13057">
        <ele>1696.4</ele>
        <time>2021-02-03T08:52:24Z</time>
      </trkpt>
      <trkpt lat="45.39983" lon="6.13058">
        <ele>1696.4</ele>
        <time>2021-02-03T08:52:25Z</time>
      </trkpt>
      <trkpt lat="45.39982" lon="6.13058">
        <ele>1696.4</ele>
        <time>2021-02-03T08:52:26Z</time>
      </trkpt>
      <trkpt lat="45.39982" lon="6.13058">
        <ele>1696.4</ele>
        <time>2021-02-03T08:52:27Z</time>
      </trkpt>
      <trkpt lat="45.39981" lon="6.13058">
        <ele>1696.4</ele>
        <time>2021-02-03T08:52:28Z</time>
      </trkpt>
      <trkpt lat="45.39981" lon="6.13059">
        <ele>1696.3</ele>
        <time>2021-02-03T08:52:29Z</time>
      </trkpt>
      <trkpt lat="45.39981" lon="6.13059">
        <ele>1696.3</ele>
        <time>2021-02-03T08:52:30Z</time>
      </trkpt>
      <trkpt lat="45.39981" lon="6.1306">
        <ele>1697.6</ele>
        <time>2021-02-03T08:52:31Z</time>
      </trkpt>
      <trkpt lat="45.3998" lon="6.1306">
        <ele>1697.6</ele>
        <time>2021-02-03T08:52:32Z</time>
      </trkpt>
      <trkpt lat="45.3998" lon="6.1306">
        <ele>1697.6</ele>
        <time>2021-02-03T08:52:33Z</time>
      </trkpt>
      <trkpt lat="45.39979" lon="6.1306">
        <ele>1697.6</ele>
        <time>2021-02-03T08:52:34Z</time>
      </trkpt>
      <trkpt lat="45.39979" lon="6.1306">
        <ele>1697.6</ele>
        <time>2021-02-03T08:52:35Z</time>
      </trkpt>
      <trkpt lat="45.39978" lon="6.13061">
        <ele>1697.6</ele>
        <time>2021-02-03T08:52:36Z</time>
      </trkpt>
      <trkpt lat="45.39978" lon="6.13061">
        <ele>1697.6</ele>
        <time>2021-02-03T08:52:37Z</time>
      </trkpt>
      <trkpt lat="45.39978" lon="6.13061">
        <ele>1697.6</ele>
        <time>2021-02-03T08:52:38Z</time>
      </trkpt>
      <trkpt lat="45.39978" lon="6.13061">
        <ele>1697.6</ele>
        <time>2021-02-03T08:52:39Z</time>
      </trkpt>
      <trkpt lat="45.39977" lon="6.1306">
        <ele>1699.1</ele>
        <time>2021-02-03T08:52:40Z</time>
      </trkpt>
      <trkpt lat="45.39977" lon="6.13058">
        <ele>1699.3</ele>
        <time>2021-02-03T08:52:41Z</time>
      </trkpt>
      <trkpt lat="45.39977" lon="6.13057">
        <ele>1699.3</ele>
        <time>2021-02-03T08:52:42Z</time>
      </trkpt>
      <trkpt lat="45.39976" lon="6.13056">
        <ele>1699.3</ele>
        <time>2021-02-03T08:52:43Z</time>
      </trkpt>
      <trkpt lat="45.39976" lon="6.13055">
        <ele>1699.3</ele>
        <time>2021-02-03T08:52:54Z</time>
      </trkpt>
      <trkpt lat="45.39975" lon="6.13053">
        <ele>1699.4</ele>
        <time>2021-02-03T08:52:55Z</time>
      </trkpt>
      <trkpt lat="45.39975" lon="6.13052">
        <ele>1699.4</ele>
        <time>2021-02-03T08:52:56Z</time>
      </trkpt>
      <trkpt lat="45.39975" lon="6.13051">
        <ele>1699.4</ele>
        <time>2021-02-03T08:52:57Z</time>
      </trkpt>
      <trkpt lat="45.39974" lon="6.1305">
        <ele>1701.1</ele>
        <time>2021-02-03T08:52:58Z</time>
      </trkpt>
      <trkpt lat="45.39974" lon="6.13049">
        <ele>1701.1</ele>
        <time>2021-02-03T08:52:59Z</time>
      </trkpt>
      <trkpt lat="45.39974" lon="6.13049">
        <ele>1701.1</ele>
        <time>2021-02-03T08:53:00Z</time>
      </trkpt>
      <trkpt lat="45.39973" lon="6.13049">
        <ele>1701.1</ele>
        <time>2021-02-03T08:53:01Z</time>
      </trkpt>
      <trkpt lat="45.39973" lon="6.13048">
        <ele>1701.1</ele>
        <time>2021-02-03T08:53:02Z</time>
      </trkpt>
      <trkpt lat="45.39973" lon="6.13047">
        <ele>1701.1</ele>
        <time>2021-02-03T08:53:03Z</time>
      </trkpt>
      <trkpt lat="45.39972" lon="6.13046">
        <ele>1701.1</ele>
        <time>2021-02-03T08:53:04Z</time>
      </trkpt>
      <trkpt lat="45.39972" lon="6.13045">
        <ele>1701.3</ele>
        <time>2021-02-03T08:53:05Z</time>
      </trkpt>
      <trkpt lat="45.39972" lon="6.13045">
        <ele>1701.3</ele>
        <time>2021-02-03T08:53:06Z</time>
      </trkpt>
      <trkpt lat="45.39972" lon="6.13044">
        <ele>1701.3</ele>
        <time>2021-02-03T08:53:07Z</time>
      </trkpt>
      <trkpt lat="45.39972" lon="6.13043">
        <ele>1701.3</ele>
        <time>2021-02-03T08:53:08Z</time>
      </trkpt>
      <trkpt lat="45.39972" lon="6.13043">
        <ele>1701.3</ele>
        <time>2021-02-03T08:53:09Z</time>
      </trkpt>
      <trkpt lat="45.39972" lon="6.13042">
        <ele>1702.8</ele>
        <time>2021-02-03T08:53:10Z</time>
      </trkpt>
      <trkpt lat="45.39971" lon="6.13041">
        <ele>1703</ele>
        <time>2021-02-03T08:53:11Z</time>
      </trkpt>
      <trkpt lat="45.39971" lon="6.1304">
        <ele>1703</ele>
        <time>2021-02-03T08:53:12Z</time>
      </trkpt>
      <trkpt lat="45.39971" lon="6.13039">
        <ele>1703</ele>
        <time>2021-02-03T08:53:13Z</time>
      </trkpt>
      <trkpt lat="45.39971" lon="6.13039">
        <ele>1703</ele>
        <time>2021-02-03T08:53:14Z</time>
      </trkpt>
      <trkpt lat="45.39971" lon="6.13038">
        <ele>1703</ele>
        <time>2021-02-03T08:53:15Z</time>
      </trkpt>
      <trkpt lat="45.39971" lon="6.13037">
        <ele>1703.2</ele>
        <time>2021-02-03T08:53:16Z</time>
      </trkpt>
      <trkpt lat="45.39971" lon="6.13036">
        <ele>1703.2</ele>
        <time>2021-02-03T08:53:17Z</time>
      </trkpt>
      <trkpt lat="45.39971" lon="6.13036">
        <ele>1703.2</ele>
        <time>2021-02-03T08:53:18Z</time>
      </trkpt>
      <trkpt lat="45.39971" lon="6.13035">
        <ele>1703.2</ele>
        <time>2021-02-03T08:53:19Z</time>
      </trkpt>
      <trkpt lat="45.39971" lon="6.13035">
        <ele>1703.2</ele>
        <time>2021-02-03T08:53:20Z</time>
      </trkpt>
      <trkpt lat="45.39971" lon="6.13034">
        <ele>1703.2</ele>
        <time>2021-02-03T08:53:21Z</time>
      </trkpt>
      <trkpt lat="45.39971" lon="6.13033">
        <ele>1703.2</ele>
        <time>2021-02-03T08:53:22Z</time>
      </trkpt>
      <trkpt lat="45.3997" lon="6.13033">
        <ele>1703.4</ele>
        <time>2021-02-03T08:53:23Z</time>
      </trkpt>
      <trkpt lat="45.3997" lon="6.13032">
        <ele>1703.4</ele>
        <time>2021-02-03T08:53:24Z</time>
      </trkpt>
      <trkpt lat="45.39969" lon="6.13032">
        <ele>1703.4</ele>
        <time>2021-02-03T08:53:25Z</time>
      </trkpt>
      <trkpt lat="45.39969" lon="6.13032">
        <ele>1703.4</ele>
        <time>2021-02-03T08:53:26Z</time>
      </trkpt>
      <trkpt lat="45.39969" lon="6.13032">
        <ele>1703.4</ele>
        <time>2021-02-03T08:53:27Z</time>
      </trkpt>
      <trkpt lat="45.39968" lon="6.13032">
        <ele>1704.9</ele>
        <time>2021-02-03T08:53:28Z</time>
      </trkpt>
      <trkpt lat="45.39968" lon="6.13032">
        <ele>1704.9</ele>
        <time>2021-02-03T08:53:29Z</time>
      </trkpt>
      <trkpt lat="45.39967" lon="6.13032">
        <ele>1704.9</ele>
        <time>2021-02-03T08:53:30Z</time>
      </trkpt>
      <trkpt lat="45.39967" lon="6.13032">
        <ele>1704.9</ele>
        <time>2021-02-03T08:53:31Z</time>
      </trkpt>
      <trkpt lat="45.39966" lon="6.13032">
        <ele>1704.9</ele>
        <time>2021-02-03T08:53:32Z</time>
      </trkpt>
      <trkpt lat="45.39966" lon="6.13032">
        <ele>1704.9</ele>
        <time>2021-02-03T08:53:33Z</time>
      </trkpt>
      <trkpt lat="45.39966" lon="6.13033">
        <ele>1706.3</ele>
        <time>2021-02-03T08:53:34Z</time>
      </trkpt>
      <trkpt lat="45.39965" lon="6.13033">
        <ele>1706.3</ele>
        <time>2021-02-03T08:53:35Z</time>
      </trkpt>
      <trkpt lat="45.39965" lon="6.13033">
        <ele>1706.3</ele>
        <time>2021-02-03T08:53:36Z</time>
      </trkpt>
      <trkpt lat="45.39964" lon="6.13033">
        <ele>1706.2</ele>
        <time>2021-02-03T08:53:37Z</time>
      </trkpt>
      <trkpt lat="45.39963" lon="6.13033">
        <ele>1706.2</ele>
        <time>2021-02-03T08:53:38Z</time>
      </trkpt>
      <trkpt lat="45.39963" lon="6.13033">
        <ele>1706.2</ele>
        <time>2021-02-03T08:53:39Z</time>
      </trkpt>
      <trkpt lat="45.39962" lon="6.13034">
        <ele>1707.6</ele>
        <time>2021-02-03T08:53:40Z</time>
      </trkpt>
      <trkpt lat="45.39962" lon="6.13034">
        <ele>1707.6</ele>
        <time>2021-02-03T08:53:41Z</time>
      </trkpt>
      <trkpt lat="45.39961" lon="6.13034">
        <ele>1707.6</ele>
        <time>2021-02-03T08:53:42Z</time>
      </trkpt>
      <trkpt lat="45.39961" lon="6.13034">
        <ele>1707.6</ele>
        <time>2021-02-03T08:53:43Z</time>
      </trkpt>
      <trkpt lat="45.3996" lon="6.13035">
        <ele>1707.6</ele>
        <time>2021-02-03T08:53:44Z</time>
      </trkpt>
      <trkpt lat="45.3996" lon="6.13035">
        <ele>1709</ele>
        <time>2021-02-03T08:53:45Z</time>
      </trkpt>
      <trkpt lat="45.39959" lon="6.13036">
        <ele>1709</ele>
        <time>2021-02-03T08:53:46Z</time>
      </trkpt>
      <trkpt lat="45.39958" lon="6.13036">
        <ele>1709</ele>
        <time>2021-02-03T08:53:47Z</time>
      </trkpt>
      <trkpt lat="45.39958" lon="6.13036">
        <ele>1709</ele>
        <time>2021-02-03T08:53:48Z</time>
      </trkpt>
      <trkpt lat="45.39958" lon="6.13037">
        <ele>1709</ele>
        <time>2021-02-03T08:53:49Z</time>
      </trkpt>
      <trkpt lat="45.39957" lon="6.13037">
        <ele>1709</ele>
        <time>2021-02-03T08:53:50Z</time>
      </trkpt>
      <trkpt lat="45.39956" lon="6.13038">
        <ele>1710.1</ele>
        <time>2021-02-03T08:53:51Z</time>
      </trkpt>
      <trkpt lat="45.39956" lon="6.13039">
        <ele>1710.1</ele>
        <time>2021-02-03T08:53:52Z</time>
      </trkpt>
      <trkpt lat="45.39955" lon="6.13039">
        <ele>1710.1</ele>
        <time>2021-02-03T08:53:53Z</time>
      </trkpt>
      <trkpt lat="45.39955" lon="6.1304">
        <ele>1710.1</ele>
        <time>2021-02-03T08:53:54Z</time>
      </trkpt>
      <trkpt lat="45.39954" lon="6.13041">
        <ele>1710.1</ele>
        <time>2021-02-03T08:53:55Z</time>
      </trkpt>
      <trkpt lat="45.39954" lon="6.13041">
        <ele>1710.1</ele>
        <time>2021-02-03T08:53:56Z</time>
      </trkpt>
      <trkpt lat="45.39953" lon="6.13041">
        <ele>1711.5</ele>
        <time>2021-02-03T08:53:57Z</time>
      </trkpt>
      <trkpt lat="45.39952" lon="6.13041">
        <ele>1711.5</ele>
        <time>2021-02-03T08:53:58Z</time>
      </trkpt>
      <trkpt lat="45.39952" lon="6.13041">
        <ele>1711.5</ele>
        <time>2021-02-03T08:53:59Z</time>
      </trkpt>
      <trkpt lat="45.39951" lon="6.1304">
        <ele>1711.5</ele>
        <time>2021-02-03T08:54:00Z</time>
      </trkpt>
      <trkpt lat="45.39951" lon="6.1304">
        <ele>1711.5</ele>
        <time>2021-02-03T08:54:01Z</time>
      </trkpt>
      <trkpt lat="45.3995" lon="6.13039">
        <ele>1712.9</ele>
        <time>2021-02-03T08:54:02Z</time>
      </trkpt>
      <trkpt lat="45.39949" lon="6.13039">
        <ele>1712.9</ele>
        <time>2021-02-03T08:54:03Z</time>
      </trkpt>
      <trkpt lat="45.39949" lon="6.13039">
        <ele>1712.9</ele>
        <time>2021-02-03T08:54:04Z</time>
      </trkpt>
      <trkpt lat="45.39948" lon="6.13038">
        <ele>1712.9</ele>
        <time>2021-02-03T08:54:05Z</time>
      </trkpt>
      <trkpt lat="45.39948" lon="6.13038">
        <ele>1712.9</ele>
        <time>2021-02-03T08:54:06Z</time>
      </trkpt>
      <trkpt lat="45.39947" lon="6.13037">
        <ele>1714.5</ele>
        <time>2021-02-03T08:54:07Z</time>
      </trkpt>
      <trkpt lat="45.39947" lon="6.13036">
        <ele>1714.5</ele>
        <time>2021-02-03T08:54:08Z</time>
      </trkpt>
      <trkpt lat="45.39946" lon="6.13036">
        <ele>1714.5</ele>
        <time>2021-02-03T08:54:09Z</time>
      </trkpt>
      <trkpt lat="45.39946" lon="6.13035">
        <ele>1714.5</ele>
        <time>2021-02-03T08:54:10Z</time>
      </trkpt>
      <trkpt lat="45.39946" lon="6.13034">
        <ele>1714.5</ele>
        <time>2021-02-03T08:54:11Z</time>
      </trkpt>
      <trkpt lat="45.39945" lon="6.13034">
        <ele>1714.5</ele>
        <time>2021-02-03T08:54:12Z</time>
      </trkpt>
      <trkpt lat="45.39945" lon="6.13033">
        <ele>1714.5</ele>
        <time>2021-02-03T08:54:13Z</time>
      </trkpt>
      <trkpt lat="45.39944" lon="6.13033">
        <ele>1715.9</ele>
        <time>2021-02-03T08:54:14Z</time>
      </trkpt>
      <trkpt lat="45.39944" lon="6.13033">
        <ele>1715.9</ele>
        <time>2021-02-03T08:54:15Z</time>
      </trkpt>
      <trkpt lat="45.39943" lon="6.13034">
        <ele>1716</ele>
        <time>2021-02-03T08:54:16Z</time>
      </trkpt>
      <trkpt lat="45.39943" lon="6.13034">
        <ele>1716</ele>
        <time>2021-02-03T08:54:17Z</time>
      </trkpt>
      <trkpt lat="45.39942" lon="6.13034">
        <ele>1716.1</ele>
        <time>2021-02-03T08:54:18Z</time>
      </trkpt>
      <trkpt lat="45.39942" lon="6.13035">
        <ele>1716.1</ele>
        <time>2021-02-03T08:54:19Z</time>
      </trkpt>
      <trkpt lat="45.39942" lon="6.13035">
        <ele>1716.2</ele>
        <time>2021-02-03T08:54:20Z</time>
      </trkpt>
      <trkpt lat="45.39941" lon="6.13035">
        <ele>1717.7</ele>
        <time>2021-02-03T08:54:21Z</time>
      </trkpt>
      <trkpt lat="45.39941" lon="6.13035">
        <ele>1717.8</ele>
        <time>2021-02-03T08:54:22Z</time>
      </trkpt>
      <trkpt lat="45.39941" lon="6.13036">
        <ele>1717.8</ele>
        <time>2021-02-03T08:54:23Z</time>
      </trkpt>
      <trkpt lat="45.39941" lon="6.13036">
        <ele>1717.9</ele>
        <time>2021-02-03T08:54:24Z</time>
      </trkpt>
      <trkpt lat="45.3994" lon="6.13036">
        <ele>1717.9</ele>
        <time>2021-02-03T08:54:25Z</time>
      </trkpt>
      <trkpt lat="45.3994" lon="6.13037">
        <ele>1717.9</ele>
        <time>2021-02-03T08:54:26Z</time>
      </trkpt>
      <trkpt lat="45.39939" lon="6.13037">
        <ele>1718</ele>
        <time>2021-02-03T08:54:27Z</time>
      </trkpt>
      <trkpt lat="45.39939" lon="6.13037">
        <ele>1718</ele>
        <time>2021-02-03T08:54:28Z</time>
      </trkpt>
      <trkpt lat="45.39939" lon="6.13037">
        <ele>1718</ele>
        <time>2021-02-03T08:54:29Z</time>
      </trkpt>
      <trkpt lat="45.39939" lon="6.13038">
        <ele>1718</ele>
        <time>2021-02-03T08:54:30Z</time>
      </trkpt>
      <trkpt lat="45.39939" lon="6.13038">
        <ele>1718.1</ele>
        <time>2021-02-03T08:54:31Z</time>
      </trkpt>
      <trkpt lat="45.39939" lon="6.13038">
        <ele>1718.1</ele>
        <time>2021-02-03T08:54:32Z</time>
      </trkpt>
      <trkpt lat="45.39938" lon="6.13039">
        <ele>1719.7</ele>
        <time>2021-02-03T08:54:33Z</time>
      </trkpt>
      <trkpt lat="45.39938" lon="6.1304">
        <ele>1719.7</ele>
        <time>2021-02-03T08:54:34Z</time>
      </trkpt>
      <trkpt lat="45.39938" lon="6.13041">
        <ele>1719.7</ele>
        <time>2021-02-03T08:54:35Z</time>
      </trkpt>
      <trkpt lat="45.39938" lon="6.13041">
        <ele>1719.8</ele>
        <time>2021-02-03T08:54:36Z</time>
      </trkpt>
      <trkpt lat="45.39938" lon="6.13042">
        <ele>1719.7</ele>
        <time>2021-02-03T08:54:37Z</time>
      </trkpt>
      <trkpt lat="45.39938" lon="6.13043">
        <ele>1719.8</ele>
        <time>2021-02-03T08:54:38Z</time>
      </trkpt>
      <trkpt lat="45.39937" lon="6.13043">
        <ele>1719.8</ele>
        <time>2021-02-03T08:54:39Z</time>
      </trkpt>
      <trkpt lat="45.39936" lon="6.13044">
        <ele>1719.9</ele>
        <time>2021-02-03T08:54:40Z</time>
      </trkpt>
      <trkpt lat="45.39936" lon="6.13044">
        <ele>1719.9</ele>
        <time>2021-02-03T08:54:41Z</time>
      </trkpt>
      <trkpt lat="45.39936" lon="6.13045">
        <ele>1720</ele>
        <time>2021-02-03T08:54:42Z</time>
      </trkpt>
      <trkpt lat="45.39935" lon="6.13045">
        <ele>1721.3</ele>
        <time>2021-02-03T08:54:43Z</time>
      </trkpt>
      <trkpt lat="45.39934" lon="6.13046">
        <ele>1721.4</ele>
        <time>2021-02-03T08:54:44Z</time>
      </trkpt>
      <trkpt lat="45.39934" lon="6.13046">
        <ele>1721.4</ele>
        <time>2021-02-03T08:54:45Z</time>
      </trkpt>
      <trkpt lat="45.39933" lon="6.13046">
        <ele>1721.4</ele>
        <time>2021-02-03T08:54:46Z</time>
      </trkpt>
      <trkpt lat="45.39933" lon="6.13046">
        <ele>1721.5</ele>
        <time>2021-02-03T08:54:47Z</time>
      </trkpt>
      <trkpt lat="45.39932" lon="6.13046">
        <ele>1722.7</ele>
        <time>2021-02-03T08:54:48Z</time>
      </trkpt>
      <trkpt lat="45.39931" lon="6.13045">
        <ele>1722.9</ele>
        <time>2021-02-03T08:54:49Z</time>
      </trkpt>
      <trkpt lat="45.39931" lon="6.13045">
        <ele>1722.9</ele>
        <time>2021-02-03T08:54:50Z</time>
      </trkpt>
      <trkpt lat="45.3993" lon="6.13044">
        <ele>1723</ele>
        <time>2021-02-03T08:54:51Z</time>
      </trkpt>
      <trkpt lat="45.3993" lon="6.13043">
        <ele>1723</ele>
        <time>2021-02-03T08:54:52Z</time>
      </trkpt>
      <trkpt lat="45.3993" lon="6.13043">
        <ele>1723.1</ele>
        <time>2021-02-03T08:54:53Z</time>
      </trkpt>
      <trkpt lat="45.39929" lon="6.13043">
        <ele>1724.2</ele>
        <time>2021-02-03T08:54:54Z</time>
      </trkpt>
      <trkpt lat="45.39929" lon="6.13042">
        <ele>1724.3</ele>
        <time>2021-02-03T08:54:55Z</time>
      </trkpt>
      <trkpt lat="45.39928" lon="6.13042">
        <ele>1724.3</ele>
        <time>2021-02-03T08:54:56Z</time>
      </trkpt>
      <trkpt lat="45.39928" lon="6.13042">
        <ele>1724.4</ele>
        <time>2021-02-03T08:54:57Z</time>
      </trkpt>
      <trkpt lat="45.39927" lon="6.13042">
        <ele>1724.4</ele>
        <time>2021-02-03T08:54:58Z</time>
      </trkpt>
      <trkpt lat="45.39927" lon="6.13042">
        <ele>1724.5</ele>
        <time>2021-02-03T08:54:59Z</time>
      </trkpt>
      <trkpt lat="45.39926" lon="6.13042">
        <ele>1725.7</ele>
        <time>2021-02-03T08:55:00Z</time>
      </trkpt>
      <trkpt lat="45.39926" lon="6.13041">
        <ele>1725.8</ele>
        <time>2021-02-03T08:55:01Z</time>
      </trkpt>
      <trkpt lat="45.39925" lon="6.13041">
        <ele>1725.9</ele>
        <time>2021-02-03T08:55:02Z</time>
      </trkpt>
      <trkpt lat="45.39925" lon="6.1304">
        <ele>1725.9</ele>
        <time>2021-02-03T08:55:03Z</time>
      </trkpt>
      <trkpt lat="45.39925" lon="6.13039">
        <ele>1726</ele>
        <time>2021-02-03T08:55:04Z</time>
      </trkpt>
      <trkpt lat="45.39924" lon="6.13039">
        <ele>1726</ele>
        <time>2021-02-03T08:55:05Z</time>
      </trkpt>
      <trkpt lat="45.39924" lon="6.13038">
        <ele>1726</ele>
        <time>2021-02-03T08:55:06Z</time>
      </trkpt>
      <trkpt lat="45.39924" lon="6.13038">
        <ele>1726.1</ele>
        <time>2021-02-03T08:55:07Z</time>
      </trkpt>
      <trkpt lat="45.39923" lon="6.13037">
        <ele>1727.3</ele>
        <time>2021-02-03T08:55:08Z</time>
      </trkpt>
      <trkpt lat="45.39923" lon="6.13038">
        <ele>1727.4</ele>
        <time>2021-02-03T08:55:09Z</time>
      </trkpt>
      <trkpt lat="45.39922" lon="6.13038">
        <ele>1727.4</ele>
        <time>2021-02-03T08:55:10Z</time>
      </trkpt>
      <trkpt lat="45.39922" lon="6.13039">
        <ele>1727.5</ele>
        <time>2021-02-03T08:55:11Z</time>
      </trkpt>
      <trkpt lat="45.39921" lon="6.1304">
        <ele>1727.5</ele>
        <time>2021-02-03T08:55:12Z</time>
      </trkpt>
      <trkpt lat="45.39921" lon="6.1304">
        <ele>1727.6</ele>
        <time>2021-02-03T08:55:13Z</time>
      </trkpt>
      <trkpt lat="45.39921" lon="6.13041">
        <ele>1727.6</ele>
        <time>2021-02-03T08:55:14Z</time>
      </trkpt>
      <trkpt lat="45.3992" lon="6.13041">
        <ele>1728.9</ele>
        <time>2021-02-03T08:55:26Z</time>
      </trkpt>
      <trkpt lat="45.3992" lon="6.13042">
        <ele>1729</ele>
        <time>2021-02-03T08:55:27Z</time>
      </trkpt>
      <trkpt lat="45.39919" lon="6.13042">
        <ele>1729</ele>
        <time>2021-02-03T08:55:28Z</time>
      </trkpt>
      <trkpt lat="45.39919" lon="6.13043">
        <ele>1729.1</ele>
        <time>2021-02-03T08:55:29Z</time>
      </trkpt>
      <trkpt lat="45.39918" lon="6.13043">
        <ele>1729.1</ele>
        <time>2021-02-03T08:55:30Z</time>
      </trkpt>
      <trkpt lat="45.39918" lon="6.13044">
        <ele>1729.2</ele>
        <time>2021-02-03T08:55:31Z</time>
      </trkpt>
      <trkpt lat="45.39918" lon="6.13045">
        <ele>1729.2</ele>
        <time>2021-02-03T08:55:32Z</time>
      </trkpt>
      <trkpt lat="45.39917" lon="6.13045">
        <ele>1730.7</ele>
        <time>2021-02-03T08:55:33Z</time>
      </trkpt>
      <trkpt lat="45.39917" lon="6.13046">
        <ele>1730.6</ele>
        <time>2021-02-03T08:55:34Z</time>
      </trkpt>
      <trkpt lat="45.39916" lon="6.13046">
        <ele>1730.7</ele>
        <time>2021-02-03T08:55:35Z</time>
      </trkpt>
      <trkpt lat="45.39916" lon="6.13047">
        <ele>1730.7</ele>
        <time>2021-02-03T08:55:36Z</time>
      </trkpt>
      <trkpt lat="45.39916" lon="6.13047">
        <ele>1730.7</ele>
        <time>2021-02-03T08:55:37Z</time>
      </trkpt>
      <trkpt lat="45.39915" lon="6.13047">
        <ele>1730.8</ele>
        <time>2021-02-03T08:55:38Z</time>
      </trkpt>
      <trkpt lat="45.39914" lon="6.13046">
        <ele>1732.2</ele>
        <time>2021-02-03T08:55:39Z</time>
      </trkpt>
      <trkpt lat="45.39913" lon="6.13046">
        <ele>1732.3</ele>
        <time>2021-02-03T08:55:40Z</time>
      </trkpt>
      <trkpt lat="45.39913" lon="6.13045">
        <ele>1732.3</ele>
        <time>2021-02-03T08:55:41Z</time>
      </trkpt>
      <trkpt lat="45.39913" lon="6.13044">
        <ele>1732.4</ele>
        <time>2021-02-03T08:55:42Z</time>
      </trkpt>
      <trkpt lat="45.39912" lon="6.13043">
        <ele>1732.4</ele>
        <time>2021-02-03T08:55:43Z</time>
      </trkpt>
      <trkpt lat="45.39912" lon="6.13043">
        <ele>1732.5</ele>
        <time>2021-02-03T08:55:44Z</time>
      </trkpt>
      <trkpt lat="45.39911" lon="6.13042">
        <ele>1732.5</ele>
        <time>2021-02-03T08:55:45Z</time>
      </trkpt>
      <trkpt lat="45.39911" lon="6.13041">
        <ele>1733.7</ele>
        <time>2021-02-03T08:55:46Z</time>
      </trkpt>
      <trkpt lat="45.39911" lon="6.13041">
        <ele>1733.8</ele>
        <time>2021-02-03T08:55:47Z</time>
      </trkpt>
      <trkpt lat="45.3991" lon="6.1304">
        <ele>1733.8</ele>
        <time>2021-02-03T08:55:48Z</time>
      </trkpt>
      <trkpt lat="45.3991" lon="6.13039">
        <ele>1733.9</ele>
        <time>2021-02-03T08:55:49Z</time>
      </trkpt>
      <trkpt lat="45.3991" lon="6.13039">
        <ele>1733.9</ele>
        <time>2021-02-03T08:55:50Z</time>
      </trkpt>
      <trkpt lat="45.3991" lon="6.13038">
        <ele>1734</ele>
        <time>2021-02-03T08:55:51Z</time>
      </trkpt>
      <trkpt lat="45.3991" lon="6.13037">
        <ele>1734</ele>
        <time>2021-02-03T08:55:52Z</time>
      </trkpt>
      <trkpt lat="45.3991" lon="6.13036">
        <ele>1734.1</ele>
        <time>2021-02-03T08:55:53Z</time>
      </trkpt>
      <trkpt lat="45.3991" lon="6.13035">
        <ele>1734.1</ele>
        <time>2021-02-03T08:55:54Z</time>
      </trkpt>
      <trkpt lat="45.3991" lon="6.13035">
        <ele>1734.2</ele>
        <time>2021-02-03T08:55:55Z</time>
      </trkpt>
      <trkpt lat="45.3991" lon="6.13034">
        <ele>1734.2</ele>
        <time>2021-02-03T08:55:56Z</time>
      </trkpt>
      <trkpt lat="45.39909" lon="6.13033">
        <ele>1734.2</ele>
        <time>2021-02-03T08:55:57Z</time>
      </trkpt>
      <trkpt lat="45.39909" lon="6.13032">
        <ele>1734.4</ele>
        <time>2021-02-03T08:55:58Z</time>
      </trkpt>
      <trkpt lat="45.39909" lon="6.13032">
        <ele>1734.4</ele>
        <time>2021-02-03T08:55:59Z</time>
      </trkpt>
      <trkpt lat="45.39909" lon="6.13031">
        <ele>1734.5</ele>
        <time>2021-02-03T08:56:00Z</time>
      </trkpt>
      <trkpt lat="45.39909" lon="6.1303">
        <ele>1734.5</ele>
        <time>2021-02-03T08:56:01Z</time>
      </trkpt>
      <trkpt lat="45.39909" lon="6.13029">
        <ele>1734.6</ele>
        <time>2021-02-03T08:56:02Z</time>
      </trkpt>
      <trkpt lat="45.39909" lon="6.13029">
        <ele>1734.6</ele>
        <time>2021-02-03T08:56:03Z</time>
      </trkpt>
      <trkpt lat="45.39909" lon="6.13028">
        <ele>1734.7</ele>
        <time>2021-02-03T08:56:04Z</time>
      </trkpt>
      <trkpt lat="45.39909" lon="6.13027">
        <ele>1734.7</ele>
        <time>2021-02-03T08:56:05Z</time>
      </trkpt>
      <trkpt lat="45.39909" lon="6.13027">
        <ele>1734.7</ele>
        <time>2021-02-03T08:56:06Z</time>
      </trkpt>
      <trkpt lat="45.39909" lon="6.13026">
        <ele>1734.7</ele>
        <time>2021-02-03T08:56:07Z</time>
      </trkpt>
      <trkpt lat="45.39908" lon="6.13025">
        <ele>1734.7</ele>
        <time>2021-02-03T08:56:08Z</time>
      </trkpt>
      <trkpt lat="45.39908" lon="6.13025">
        <ele>1735.7</ele>
        <time>2021-02-03T08:56:09Z</time>
      </trkpt>
      <trkpt lat="45.39908" lon="6.13024">
        <ele>1735.7</ele>
        <time>2021-02-03T08:56:10Z</time>
      </trkpt>
      <trkpt lat="45.39908" lon="6.13023">
        <ele>1735.7</ele>
        <time>2021-02-03T08:56:11Z</time>
      </trkpt>
      <trkpt lat="45.39908" lon="6.13022">
        <ele>1735.7</ele>
        <time>2021-02-03T08:56:12Z</time>
      </trkpt>
      <trkpt lat="45.39908" lon="6.13022">
        <ele>1735.7</ele>
        <time>2021-02-03T08:56:13Z</time>
      </trkpt>
      <trkpt lat="45.39908" lon="6.13021">
        <ele>1735.7</ele>
        <time>2021-02-03T08:56:14Z</time>
      </trkpt>
      <trkpt lat="45.39908" lon="6.1302">
        <ele>1735.7</ele>
        <time>2021-02-03T08:56:15Z</time>
      </trkpt>
      <trkpt lat="45.39908" lon="6.13019">
        <ele>1735.7</ele>
        <time>2021-02-03T08:56:16Z</time>
      </trkpt>
      <trkpt lat="45.39908" lon="6.13018">
        <ele>1735.7</ele>
        <time>2021-02-03T08:56:17Z</time>
      </trkpt>
      <trkpt lat="45.39908" lon="6.13018">
        <ele>1735.7</ele>
        <time>2021-02-03T08:56:18Z</time>
      </trkpt>
      <trkpt lat="45.39907" lon="6.13017">
        <ele>1735.7</ele>
        <time>2021-02-03T08:56:19Z</time>
      </trkpt>
      <trkpt lat="45.39907" lon="6.13016">
        <ele>1735.7</ele>
        <time>2021-02-03T08:56:20Z</time>
      </trkpt>
      <trkpt lat="45.39907" lon="6.13015">
        <ele>1735.6</ele>
        <time>2021-02-03T08:56:21Z</time>
      </trkpt>
      <trkpt lat="45.39907" lon="6.13014">
        <ele>1735.6</ele>
        <time>2021-02-03T08:56:22Z</time>
      </trkpt>
      <trkpt lat="45.39906" lon="6.13013">
        <ele>1735.6</ele>
        <time>2021-02-03T08:56:23Z</time>
      </trkpt>
      <trkpt lat="45.39906" lon="6.13012">
        <ele>1735.6</ele>
        <time>2021-02-03T08:56:24Z</time>
      </trkpt>
      <trkpt lat="45.39906" lon="6.1301">
        <ele>1735.5</ele>
        <time>2021-02-03T08:56:25Z</time>
      </trkpt>
      <trkpt lat="45.39906" lon="6.13009">
        <ele>1735.5</ele>
        <time>2021-02-03T08:56:26Z</time>
      </trkpt>
      <trkpt lat="45.39905" lon="6.13008">
        <ele>1735.5</ele>
        <time>2021-02-03T08:56:27Z</time>
      </trkpt>
      <trkpt lat="45.39905" lon="6.13007">
        <ele>1735.5</ele>
        <time>2021-02-03T08:56:28Z</time>
      </trkpt>
      <trkpt lat="45.39905" lon="6.13006">
        <ele>1735.4</ele>
        <time>2021-02-03T08:56:29Z</time>
      </trkpt>
      <trkpt lat="45.39905" lon="6.13005">
        <ele>1736.2</ele>
        <time>2021-02-03T08:56:30Z</time>
      </trkpt>
      <trkpt lat="45.39905" lon="6.13004">
        <ele>1736.2</ele>
        <time>2021-02-03T08:56:31Z</time>
      </trkpt>
      <trkpt lat="45.39904" lon="6.13004">
        <ele>1736.2</ele>
        <time>2021-02-03T08:56:32Z</time>
      </trkpt>
      <trkpt lat="45.39904" lon="6.13003">
        <ele>1736.2</ele>
        <time>2021-02-03T08:56:33Z</time>
      </trkpt>
      <trkpt lat="45.39903" lon="6.13002">
        <ele>1736.1</ele>
        <time>2021-02-03T08:56:34Z</time>
      </trkpt>
      <trkpt lat="45.39903" lon="6.13002">
        <ele>1736.1</ele>
        <time>2021-02-03T08:56:35Z</time>
      </trkpt>
      <trkpt lat="45.39902" lon="6.13001">
        <ele>1736.9</ele>
        <time>2021-02-03T08:56:36Z</time>
      </trkpt>
      <trkpt lat="45.39901" lon="6.13001">
        <ele>1736.9</ele>
        <time>2021-02-03T08:56:37Z</time>
      </trkpt>
      <trkpt lat="45.399" lon="6.13">
        <ele>1736.9</ele>
        <time>2021-02-03T08:56:38Z</time>
      </trkpt>
      <trkpt lat="45.399" lon="6.13">
        <ele>1736.9</ele>
        <time>2021-02-03T08:56:39Z</time>
      </trkpt>
      <trkpt lat="45.39899" lon="6.12999">
        <ele>1737.8</ele>
        <time>2021-02-03T08:56:40Z</time>
      </trkpt>
      <trkpt lat="45.39899" lon="6.12999">
        <ele>1737.8</ele>
        <time>2021-02-03T08:56:41Z</time>
      </trkpt>
      <trkpt lat="45.39898" lon="6.12999">
        <ele>1737.8</ele>
        <time>2021-02-03T08:56:42Z</time>
      </trkpt>
      <trkpt lat="45.39897" lon="6.12998">
        <ele>1737.5</ele>
        <time>2021-02-03T08:56:43Z</time>
      </trkpt>
      <trkpt lat="45.39897" lon="6.12998">
        <ele>1737.5</ele>
        <time>2021-02-03T08:56:44Z</time>
      </trkpt>
      <trkpt lat="45.39896" lon="6.12998">
        <ele>1738.5</ele>
        <time>2021-02-03T08:56:45Z</time>
      </trkpt>
      <trkpt lat="45.39895" lon="6.12997">
        <ele>1738.5</ele>
        <time>2021-02-03T08:56:46Z</time>
      </trkpt>
      <trkpt lat="45.39895" lon="6.12996">
        <ele>1738.5</ele>
        <time>2021-02-03T08:56:47Z</time>
      </trkpt>
      <trkpt lat="45.39894" lon="6.12996">
        <ele>1738.5</ele>
        <time>2021-02-03T08:56:48Z</time>
      </trkpt>
      <trkpt lat="45.39893" lon="6.12996">
        <ele>1739.4</ele>
        <time>2021-02-03T08:56:49Z</time>
      </trkpt>
      <trkpt lat="45.39892" lon="6.12996">
        <ele>1739.4</ele>
        <time>2021-02-03T08:56:50Z</time>
      </trkpt>
      <trkpt lat="45.39892" lon="6.12995">
        <ele>1739.4</ele>
        <time>2021-02-03T08:56:51Z</time>
      </trkpt>
      <trkpt lat="45.39891" lon="6.12995">
        <ele>1739.4</ele>
        <time>2021-02-03T08:56:52Z</time>
      </trkpt>
      <trkpt lat="45.3989" lon="6.12995">
        <ele>1740.4</ele>
        <time>2021-02-03T08:56:53Z</time>
      </trkpt>
      <trkpt lat="45.39889" lon="6.12995">
        <ele>1740.4</ele>
        <time>2021-02-03T08:56:54Z</time>
      </trkpt>
      <trkpt lat="45.39889" lon="6.12996">
        <ele>1740.4</ele>
        <time>2021-02-03T08:56:55Z</time>
      </trkpt>
      <trkpt lat="45.39888" lon="6.12996">
        <ele>1740.4</ele>
        <time>2021-02-03T08:56:56Z</time>
      </trkpt>
      <trkpt lat="45.39888" lon="6.12996">
        <ele>1740.4</ele>
        <time>2021-02-03T08:56:57Z</time>
      </trkpt>
      <trkpt lat="45.39888" lon="6.12996">
        <ele>1740.4</ele>
        <time>2021-02-03T08:56:58Z</time>
      </trkpt>
      <trkpt lat="45.39887" lon="6.12997">
        <ele>1741.3</ele>
        <time>2021-02-03T08:56:59Z</time>
      </trkpt>
      <trkpt lat="45.39887" lon="6.12998">
        <ele>1741.3</ele>
        <time>2021-02-03T08:57:00Z</time>
      </trkpt>
      <trkpt lat="45.39886" lon="6.12998">
        <ele>1741.3</ele>
        <time>2021-02-03T08:57:01Z</time>
      </trkpt>
      <trkpt lat="45.39886" lon="6.12999">
        <ele>1741.5</ele>
        <time>2021-02-03T08:57:02Z</time>
      </trkpt>
      <trkpt lat="45.39885" lon="6.12999">
        <ele>1741.5</ele>
        <time>2021-02-03T08:57:03Z</time>
      </trkpt>
      <trkpt lat="45.39885" lon="6.13">
        <ele>1741.5</ele>
        <time>2021-02-03T08:57:04Z</time>
      </trkpt>
      <trkpt lat="45.39884" lon="6.13">
        <ele>1741.5</ele>
        <time>2021-02-03T08:57:05Z</time>
      </trkpt>
      <trkpt lat="45.39884" lon="6.13001">
        <ele>1742.4</ele>
        <time>2021-02-03T08:57:06Z</time>
      </trkpt>
      <trkpt lat="45.39883" lon="6.13002">
        <ele>1742.4</ele>
        <time>2021-02-03T08:57:07Z</time>
      </trkpt>
      <trkpt lat="45.39883" lon="6.13002">
        <ele>1742.4</ele>
        <time>2021-02-03T08:57:08Z</time>
      </trkpt>
      <trkpt lat="45.39882" lon="6.13003">
        <ele>1742.4</ele>
        <time>2021-02-03T08:57:09Z</time>
      </trkpt>
      <trkpt lat="45.39882" lon="6.13003">
        <ele>1742.6</ele>
        <time>2021-02-03T08:57:10Z</time>
      </trkpt>
      <trkpt lat="45.39881" lon="6.13004">
        <ele>1742.6</ele>
        <time>2021-02-03T08:57:11Z</time>
      </trkpt>
      <trkpt lat="45.39881" lon="6.13004">
        <ele>1743.5</ele>
        <time>2021-02-03T08:57:12Z</time>
      </trkpt>
      <trkpt lat="45.3988" lon="6.13004">
        <ele>1743.5</ele>
        <time>2021-02-03T08:57:13Z</time>
      </trkpt>
      <trkpt lat="45.3988" lon="6.13005">
        <ele>1743.5</ele>
        <time>2021-02-03T08:57:14Z</time>
      </trkpt>
      <trkpt lat="45.3988" lon="6.13005">
        <ele>1743.5</ele>
        <time>2021-02-03T08:57:15Z</time>
      </trkpt>
      <trkpt lat="45.39879" lon="6.13006">
        <ele>1743.5</ele>
        <time>2021-02-03T08:57:16Z</time>
      </trkpt>
      <trkpt lat="45.39878" lon="6.13007">
        <ele>1744.3</ele>
        <time>2021-02-03T08:57:17Z</time>
      </trkpt>
      <trkpt lat="45.39878" lon="6.13008">
        <ele>1744.5</ele>
        <time>2021-02-03T08:57:18Z</time>
      </trkpt>
      <trkpt lat="45.39877" lon="6.13008">
        <ele>1744.6</ele>
        <time>2021-02-03T08:57:19Z</time>
      </trkpt>
      <trkpt lat="45.39877" lon="6.13009">
        <ele>1744.7</ele>
        <time>2021-02-03T08:57:20Z</time>
      </trkpt>
      <trkpt lat="45.39877" lon="6.1301">
        <ele>1744.9</ele>
        <time>2021-02-03T08:57:21Z</time>
      </trkpt>
      <trkpt lat="45.39876" lon="6.13011">
        <ele>1745</ele>
        <time>2021-02-03T08:57:22Z</time>
      </trkpt>
      <trkpt lat="45.39876" lon="6.13011">
        <ele>1745.1</ele>
        <time>2021-02-03T08:57:23Z</time>
      </trkpt>
      <trkpt lat="45.39876" lon="6.13012">
        <ele>1745.3</ele>
        <time>2021-02-03T08:57:24Z</time>
      </trkpt>
      <trkpt lat="45.39875" lon="6.13013">
        <ele>1745.4</ele>
        <time>2021-02-03T08:57:25Z</time>
      </trkpt>
      <trkpt lat="45.39875" lon="6.13014">
        <ele>1745.6</ele>
        <time>2021-02-03T08:57:26Z</time>
      </trkpt>
      <trkpt lat="45.39875" lon="6.13014">
        <ele>1745.7</ele>
        <time>2021-02-03T08:57:27Z</time>
      </trkpt>
      <trkpt lat="45.39874" lon="6.13015">
        <ele>1745.8</ele>
        <time>2021-02-03T08:57:28Z</time>
      </trkpt>
      <trkpt lat="45.39874" lon="6.13016">
        <ele>1746</ele>
        <time>2021-02-03T09:00:57Z</time>
      </trkpt>
      <trkpt lat="45.39874" lon="6.13017">
        <ele>1746.1</ele>
        <time>2021-02-03T09:00:58Z</time>
      </trkpt>
      <trkpt lat="45.39873" lon="6.13017">
        <ele>1746.2</ele>
        <time>2021-02-03T09:00:59Z</time>
      </trkpt>
      <trkpt lat="45.39873" lon="6.13018">
        <ele>1746.4</ele>
        <time>2021-02-03T09:01:00Z</time>
      </trkpt>
      <trkpt lat="45.39873" lon="6.13019">
        <ele>1746.5</ele>
        <time>2021-02-03T09:01:01Z</time>
      </trkpt>
      <trkpt lat="45.39872" lon="6.13019">
        <ele>1746.6</ele>
        <time>2021-02-03T09:01:02Z</time>
      </trkpt>
      <trkpt lat="45.39872" lon="6.1302">
        <ele>1746.8</ele>
        <time>2021-02-03T09:01:03Z</time>
      </trkpt>
      <trkpt lat="45.39872" lon="6.13021">
        <ele>1746.9</ele>
        <time>2021-02-03T09:01:04Z</time>
      </trkpt>
      <trkpt lat="45.39871" lon="6.13022">
        <ele>1747</ele>
        <time>2021-02-03T09:01:05Z</time>
      </trkpt>
      <trkpt lat="45.39871" lon="6.13022">
        <ele>1747.1</ele>
        <time>2021-02-03T09:01:06Z</time>
      </trkpt>
      <trkpt lat="45.39871" lon="6.13022">
        <ele>1747.3</ele>
        <time>2021-02-03T09:01:07Z</time>
      </trkpt>
      <trkpt lat="45.3987" lon="6.13023">
        <ele>1747.4</ele>
        <time>2021-02-03T09:01:08Z</time>
      </trkpt>
      <trkpt lat="45.39869" lon="6.13024">
        <ele>1747.6</ele>
        <time>2021-02-03T09:01:09Z</time>
      </trkpt>
      <trkpt lat="45.39869" lon="6.13024">
        <ele>1747.7</ele>
        <time>2021-02-03T09:01:10Z</time>
      </trkpt>
      <trkpt lat="45.39869" lon="6.13025">
        <ele>1747.9</ele>
        <time>2021-02-03T09:01:11Z</time>
      </trkpt>
      <trkpt lat="45.39868" lon="6.13025">
        <ele>1748</ele>
        <time>2021-02-03T09:01:12Z</time>
      </trkpt>
      <trkpt lat="45.39867" lon="6.13026">
        <ele>1748.1</ele>
        <time>2021-02-03T09:01:13Z</time>
      </trkpt>
      <trkpt lat="45.39867" lon="6.13026">
        <ele>1748.3</ele>
        <time>2021-02-03T09:01:14Z</time>
      </trkpt>
      <trkpt lat="45.39866" lon="6.13027">
        <ele>1748.4</ele>
        <time>2021-02-03T09:01:15Z</time>
      </trkpt>
      <trkpt lat="45.39866" lon="6.13027">
        <ele>1748.5</ele>
        <time>2021-02-03T09:01:16Z</time>
      </trkpt>
      <trkpt lat="45.39865" lon="6.13028">
        <ele>1748.7</ele>
        <time>2021-02-03T09:01:17Z</time>
      </trkpt>
      <trkpt lat="45.39865" lon="6.13028">
        <ele>1748.8</ele>
        <time>2021-02-03T09:01:18Z</time>
      </trkpt>
      <trkpt lat="45.39865" lon="6.13029">
        <ele>1749</ele>
        <time>2021-02-03T09:01:19Z</time>
      </trkpt>
      <trkpt lat="45.39864" lon="6.13029">
        <ele>1749.1</ele>
        <time>2021-02-03T09:01:20Z</time>
      </trkpt>
      <trkpt lat="45.39863" lon="6.1303">
        <ele>1749.3</ele>
        <time>2021-02-03T09:01:21Z</time>
      </trkpt>
      <trkpt lat="45.39863" lon="6.1303">
        <ele>1749.4</ele>
        <time>2021-02-03T09:01:22Z</time>
      </trkpt>
      <trkpt lat="45.39862" lon="6.13031">
        <ele>1749.6</ele>
        <time>2021-02-03T09:01:23Z</time>
      </trkpt>
      <trkpt lat="45.39862" lon="6.13032">
        <ele>1749.8</ele>
        <time>2021-02-03T09:01:24Z</time>
      </trkpt>
      <trkpt lat="45.39861" lon="6.13032">
        <ele>1749.9</ele>
        <time>2021-02-03T09:01:25Z</time>
      </trkpt>
      <trkpt lat="45.39861" lon="6.13033">
        <ele>1750.1</ele>
        <time>2021-02-03T09:01:26Z</time>
      </trkpt>
      <trkpt lat="45.3986" lon="6.13033">
        <ele>1750.2</ele>
        <time>2021-02-03T09:01:27Z</time>
      </trkpt>
      <trkpt lat="45.3986" lon="6.13034">
        <ele>1750.4</ele>
        <time>2021-02-03T09:01:28Z</time>
      </trkpt>
      <trkpt lat="45.39859" lon="6.13034">
        <ele>1750.5</ele>
        <time>2021-02-03T09:01:29Z</time>
      </trkpt>
      <trkpt lat="45.39858" lon="6.13035">
        <ele>1750.8</ele>
        <time>2021-02-03T09:01:30Z</time>
      </trkpt>
      <trkpt lat="45.39858" lon="6.13036">
        <ele>1750.9</ele>
        <time>2021-02-03T09:01:31Z</time>
      </trkpt>
      <trkpt lat="45.39857" lon="6.13036">
        <ele>1751.1</ele>
        <time>2021-02-03T09:01:32Z</time>
      </trkpt>
      <trkpt lat="45.39856" lon="6.13037">
        <ele>1751.3</ele>
        <time>2021-02-03T09:01:33Z</time>
      </trkpt>
      <trkpt lat="45.39856" lon="6.13037">
        <ele>1751.4</ele>
        <time>2021-02-03T09:01:34Z</time>
      </trkpt>
      <trkpt lat="45.39855" lon="6.13038">
        <ele>1751.6</ele>
        <time>2021-02-03T09:01:35Z</time>
      </trkpt>
      <trkpt lat="45.39855" lon="6.13038">
        <ele>1751.8</ele>
        <time>2021-02-03T09:01:36Z</time>
      </trkpt>
      <trkpt lat="45.39854" lon="6.13039">
        <ele>1751.9</ele>
        <time>2021-02-03T09:01:37Z</time>
      </trkpt>
      <trkpt lat="45.39853" lon="6.13039">
        <ele>1752.1</ele>
        <time>2021-02-03T09:01:38Z</time>
      </trkpt>
      <trkpt lat="45.39853" lon="6.1304">
        <ele>1752.3</ele>
        <time>2021-02-03T09:01:39Z</time>
      </trkpt>
      <trkpt lat="45.39852" lon="6.1304">
        <ele>1752.4</ele>
        <time>2021-02-03T09:01:40Z</time>
      </trkpt>
      <trkpt lat="45.39852" lon="6.13041">
        <ele>1752.6</ele>
        <time>2021-02-03T09:02:04Z</time>
      </trkpt>
      <trkpt lat="45.39851" lon="6.13041">
        <ele>1752.8</ele>
        <time>2021-02-03T09:02:05Z</time>
      </trkpt>
      <trkpt lat="45.3985" lon="6.13042">
        <ele>1753</ele>
        <time>2021-02-03T09:02:06Z</time>
      </trkpt>
      <trkpt lat="45.3985" lon="6.13043">
        <ele>1753.1</ele>
        <time>2021-02-03T09:02:07Z</time>
      </trkpt>
      <trkpt lat="45.39849" lon="6.13043">
        <ele>1753.3</ele>
        <time>2021-02-03T09:02:08Z</time>
      </trkpt>
      <trkpt lat="45.39849" lon="6.13044">
        <ele>1753.5</ele>
        <time>2021-02-03T09:02:09Z</time>
      </trkpt>
      <trkpt lat="45.39848" lon="6.13044">
        <ele>1753.6</ele>
        <time>2021-02-03T09:02:10Z</time>
      </trkpt>
      <trkpt lat="45.39848" lon="6.13045">
        <ele>1753.8</ele>
        <time>2021-02-03T09:02:11Z</time>
      </trkpt>
      <trkpt lat="45.39847" lon="6.13045">
        <ele>1753.9</ele>
        <time>2021-02-03T09:02:12Z</time>
      </trkpt>
      <trkpt lat="45.39847" lon="6.13046">
        <ele>1754.1</ele>
        <time>2021-02-03T09:02:13Z</time>
      </trkpt>
      <trkpt lat="45.39847" lon="6.13046">
        <ele>1754.1</ele>
        <time>2021-02-03T09:02:14Z</time>
      </trkpt>
      <trkpt lat="45.39847" lon="6.13047">
        <ele>1754.3</ele>
        <time>2021-02-03T09:02:15Z</time>
      </trkpt>
      <trkpt lat="45.39846" lon="6.13047">
        <ele>1754.4</ele>
        <time>2021-02-03T09:02:16Z</time>
      </trkpt>
      <trkpt lat="45.39846" lon="6.13048">
        <ele>1754.5</ele>
        <time>2021-02-03T09:02:17Z</time>
      </trkpt>
      <trkpt lat="45.39845" lon="6.13048">
        <ele>1754.7</ele>
        <time>2021-02-03T09:02:18Z</time>
      </trkpt>
      <trkpt lat="45.39844" lon="6.13048">
        <ele>1754.9</ele>
        <time>2021-02-03T09:02:19Z</time>
      </trkpt>
      <trkpt lat="45.39844" lon="6.13048">
        <ele>1755</ele>
        <time>2021-02-03T09:02:20Z</time>
      </trkpt>
      <trkpt lat="45.39844" lon="6.13049">
        <ele>1755.1</ele>
        <time>2021-02-03T09:02:21Z</time>
      </trkpt>
      <trkpt lat="45.39843" lon="6.13049">
        <ele>1755.2</ele>
        <time>2021-02-03T09:02:22Z</time>
      </trkpt>
      <trkpt lat="45.39843" lon="6.13049">
        <ele>1755.3</ele>
        <time>2021-02-03T09:02:23Z</time>
      </trkpt>
      <trkpt lat="45.39843" lon="6.13049">
        <ele>1755.3</ele>
        <time>2021-02-03T09:02:24Z</time>
      </trkpt>
      <trkpt lat="45.39842" lon="6.13049">
        <ele>1755.4</ele>
        <time>2021-02-03T09:02:25Z</time>
      </trkpt>
      <trkpt lat="45.39842" lon="6.13048">
        <ele>1755.6</ele>
        <time>2021-02-03T09:02:26Z</time>
      </trkpt>
      <trkpt lat="45.39841" lon="6.13048">
        <ele>1755.7</ele>
        <time>2021-02-03T09:02:27Z</time>
      </trkpt>
      <trkpt lat="45.39841" lon="6.13047">
        <ele>1755.9</ele>
        <time>2021-02-03T09:02:28Z</time>
      </trkpt>
      <trkpt lat="45.3984" lon="6.13047">
        <ele>1756</ele>
        <time>2021-02-03T09:02:29Z</time>
      </trkpt>
      <trkpt lat="45.3984" lon="6.13046">
        <ele>1756.2</ele>
        <time>2021-02-03T09:02:30Z</time>
      </trkpt>
      <trkpt lat="45.3984" lon="6.13046">
        <ele>1756.3</ele>
        <time>2021-02-03T09:02:31Z</time>
      </trkpt>
      <trkpt lat="45.39839" lon="6.13045">
        <ele>1756.5</ele>
        <time>2021-02-03T09:02:32Z</time>
      </trkpt>
      <trkpt lat="45.39839" lon="6.13045">
        <ele>1756.6</ele>
        <time>2021-02-03T09:02:33Z</time>
      </trkpt>
      <trkpt lat="45.39839" lon="6.13045">
        <ele>1756.6</ele>
        <time>2021-02-03T09:02:34Z</time>
      </trkpt>
      <trkpt lat="45.39838" lon="6.13045">
        <ele>1756.7</ele>
        <time>2021-02-03T09:02:35Z</time>
      </trkpt>
      <trkpt lat="45.39837" lon="6.13045">
        <ele>1756.9</ele>
        <time>2021-02-03T09:02:36Z</time>
      </trkpt>
      <trkpt lat="45.39837" lon="6.13044">
        <ele>1757.1</ele>
        <time>2021-02-03T09:02:37Z</time>
      </trkpt>
      <trkpt lat="45.39836" lon="6.13044">
        <ele>1757.2</ele>
        <time>2021-02-03T09:02:38Z</time>
      </trkpt>
      <trkpt lat="45.39836" lon="6.13044">
        <ele>1757.4</ele>
        <time>2021-02-03T09:02:39Z</time>
      </trkpt>
      <trkpt lat="45.39835" lon="6.13043">
        <ele>1757.5</ele>
        <time>2021-02-03T09:02:40Z</time>
      </trkpt>
      <trkpt lat="45.39835" lon="6.13043">
        <ele>1757.6</ele>
        <time>2021-02-03T09:02:41Z</time>
      </trkpt>
      <trkpt lat="45.39834" lon="6.13043">
        <ele>1757.7</ele>
        <time>2021-02-03T09:02:42Z</time>
      </trkpt>
      <trkpt lat="45.39834" lon="6.13043">
        <ele>1757.8</ele>
        <time>2021-02-03T09:02:43Z</time>
      </trkpt>
      <trkpt lat="45.39834" lon="6.13043">
        <ele>1757.9</ele>
        <time>2021-02-03T09:02:44Z</time>
      </trkpt>
      <trkpt lat="45.39833" lon="6.13042">
        <ele>1758</ele>
        <time>2021-02-03T09:02:45Z</time>
      </trkpt>
      <trkpt lat="45.39833" lon="6.13042">
        <ele>1758.2</ele>
        <time>2021-02-03T09:02:46Z</time>
      </trkpt>
      <trkpt lat="45.39832" lon="6.13042">
        <ele>1758.3</ele>
        <time>2021-02-03T09:02:47Z</time>
      </trkpt>
      <trkpt lat="45.39832" lon="6.13041">
        <ele>1758.5</ele>
        <time>2021-02-03T09:02:48Z</time>
      </trkpt>
      <trkpt lat="45.39831" lon="6.1304">
        <ele>1758.7</ele>
        <time>2021-02-03T09:02:49Z</time>
      </trkpt>
      <trkpt lat="45.39831" lon="6.1304">
        <ele>1758.8</ele>
        <time>2021-02-03T09:02:50Z</time>
      </trkpt>
      <trkpt lat="45.3983" lon="6.13039">
        <ele>1759</ele>
        <time>2021-02-03T09:02:51Z</time>
      </trkpt>
      <trkpt lat="45.3983" lon="6.13039">
        <ele>1759.1</ele>
        <time>2021-02-03T09:02:52Z</time>
      </trkpt>
      <trkpt lat="45.39829" lon="6.13038">
        <ele>1759.2</ele>
        <time>2021-02-03T09:02:53Z</time>
      </trkpt>
      <trkpt lat="45.39829" lon="6.13038">
        <ele>1759.4</ele>
        <time>2021-02-03T09:02:54Z</time>
      </trkpt>
      <trkpt lat="45.39828" lon="6.13038">
        <ele>1759.6</ele>
        <time>2021-02-03T09:02:55Z</time>
      </trkpt>
      <trkpt lat="45.39828" lon="6.13038">
        <ele>1759.7</ele>
        <time>2021-02-03T09:02:56Z</time>
      </trkpt>
      <trkpt lat="45.39827" lon="6.13038">
        <ele>1759.9</ele>
        <time>2021-02-03T09:02:57Z</time>
      </trkpt>
      <trkpt lat="45.39827" lon="6.13037">
        <ele>1760</ele>
        <time>2021-02-03T09:02:58Z</time>
      </trkpt>
      <trkpt lat="45.39826" lon="6.13037">
        <ele>1760.2</ele>
        <time>2021-02-03T09:02:59Z</time>
      </trkpt>
      <trkpt lat="45.39826" lon="6.13038">
        <ele>1760.3</ele>
        <time>2021-02-03T09:03:00Z</time>
      </trkpt>
      <trkpt lat="45.39825" lon="6.13038">
        <ele>1760.4</ele>
        <time>2021-02-03T09:03:01Z</time>
      </trkpt>
      <trkpt lat="45.39825" lon="6.13038">
        <ele>1760.5</ele>
        <time>2021-02-03T09:03:02Z</time>
      </trkpt>
      <trkpt lat="45.39824" lon="6.13038">
        <ele>1760.6</ele>
        <time>2021-02-03T09:03:03Z</time>
      </trkpt>
      <trkpt lat="45.39824" lon="6.13039">
        <ele>1760.8</ele>
        <time>2021-02-03T09:03:04Z</time>
      </trkpt>
      <trkpt lat="45.39824" lon="6.1304">
        <ele>1760.9</ele>
        <time>2021-02-03T09:03:05Z</time>
      </trkpt>
      <trkpt lat="45.39824" lon="6.1304">
        <ele>1761</ele>
        <time>2021-02-03T09:03:06Z</time>
      </trkpt>
      <trkpt lat="45.39823" lon="6.13041">
        <ele>1761.1</ele>
        <time>2021-02-03T09:03:07Z</time>
      </trkpt>
      <trkpt lat="45.39823" lon="6.13041">
        <ele>1761.3</ele>
        <time>2021-02-03T09:03:08Z</time>
      </trkpt>
      <trkpt lat="45.39823" lon="6.13042">
        <ele>1761.4</ele>
        <time>2021-02-03T09:03:09Z</time>
      </trkpt>
      <trkpt lat="45.39823" lon="6.13043">
        <ele>1761.5</ele>
        <time>2021-02-03T09:03:10Z</time>
      </trkpt>
      <trkpt lat="45.39823" lon="6.13043">
        <ele>1761.6</ele>
        <time>2021-02-03T09:03:11Z</time>
      </trkpt>
      <trkpt lat="45.39822" lon="6.13044">
        <ele>1761.8</ele>
        <time>2021-02-03T09:03:12Z</time>
      </trkpt>
      <trkpt lat="45.39822" lon="6.13044">
        <ele>1761.9</ele>
        <time>2021-02-03T09:03:13Z</time>
      </trkpt>
      <trkpt lat="45.39822" lon="6.13045">
        <ele>1762</ele>
        <time>2021-02-03T09:03:14Z</time>
      </trkpt>
      <trkpt lat="45.39821" lon="6.13046">
        <ele>1762.2</ele>
        <time>2021-02-03T09:03:15Z</time>
      </trkpt>
      <trkpt lat="45.39821" lon="6.13046">
        <ele>1762.3</ele>
        <time>2021-02-03T09:03:16Z</time>
      </trkpt>
      <trkpt lat="45.39821" lon="6.13046">
        <ele>1762.4</ele>
        <time>2021-02-03T09:03:17Z</time>
      </trkpt>
      <trkpt lat="45.3982" lon="6.13047">
        <ele>1762.5</ele>
        <time>2021-02-03T09:03:18Z</time>
      </trkpt>
      <trkpt lat="45.3982" lon="6.13047">
        <ele>1762.6</ele>
        <time>2021-02-03T09:03:19Z</time>
      </trkpt>
      <trkpt lat="45.39819" lon="6.13048">
        <ele>1762.8</ele>
        <time>2021-02-03T09:03:20Z</time>
      </trkpt>
      <trkpt lat="45.39819" lon="6.13048">
        <ele>1762.9</ele>
        <time>2021-02-03T09:03:21Z</time>
      </trkpt>
      <trkpt lat="45.39819" lon="6.13048">
        <ele>1763</ele>
        <time>2021-02-03T09:03:22Z</time>
      </trkpt>
      <trkpt lat="45.39818" lon="6.13049">
        <ele>1763.1</ele>
        <time>2021-02-03T09:03:23Z</time>
      </trkpt>
      <trkpt lat="45.39818" lon="6.13049">
        <ele>1763.3</ele>
        <time>2021-02-03T09:03:24Z</time>
      </trkpt>
      <trkpt lat="45.39817" lon="6.13049">
        <ele>1763.4</ele>
        <time>2021-02-03T09:03:25Z</time>
      </trkpt>
      <trkpt lat="45.39816" lon="6.13049">
        <ele>1763.6</ele>
        <time>2021-02-03T09:03:26Z</time>
      </trkpt>
      <trkpt lat="45.39816" lon="6.13049">
        <ele>1763.7</ele>
        <time>2021-02-03T09:03:27Z</time>
      </trkpt>
      <trkpt lat="45.39815" lon="6.1305">
        <ele>1763.9</ele>
        <time>2021-02-03T09:03:28Z</time>
      </trkpt>
      <trkpt lat="45.39815" lon="6.1305">
        <ele>1764</ele>
        <time>2021-02-03T09:03:29Z</time>
      </trkpt>
      <trkpt lat="45.39814" lon="6.1305">
        <ele>1764.2</ele>
        <time>2021-02-03T09:03:30Z</time>
      </trkpt>
      <trkpt lat="45.39813" lon="6.13051">
        <ele>1764.4</ele>
        <time>2021-02-03T09:03:31Z</time>
      </trkpt>
      <trkpt lat="45.39813" lon="6.13051">
        <ele>1764.5</ele>
        <time>2021-02-03T09:03:32Z</time>
      </trkpt>
      <trkpt lat="45.39812" lon="6.13051">
        <ele>1764.7</ele>
        <time>2021-02-03T09:03:33Z</time>
      </trkpt>
      <trkpt lat="45.39812" lon="6.13052">
        <ele>1764.8</ele>
        <time>2021-02-03T09:03:34Z</time>
      </trkpt>
      <trkpt lat="45.39811" lon="6.13052">
        <ele>1765</ele>
        <time>2021-02-03T09:03:35Z</time>
      </trkpt>
      <trkpt lat="45.39811" lon="6.13052">
        <ele>1765.1</ele>
        <time>2021-02-03T09:03:36Z</time>
      </trkpt>
      <trkpt lat="45.3981" lon="6.13052">
        <ele>1765.3</ele>
        <time>2021-02-03T09:03:37Z</time>
      </trkpt>
      <trkpt lat="45.3981" lon="6.13053">
        <ele>1765.4</ele>
        <time>2021-02-03T09:03:38Z</time>
      </trkpt>
      <trkpt lat="45.39809" lon="6.13053">
        <ele>1765.5</ele>
        <time>2021-02-03T09:03:39Z</time>
      </trkpt>
      <trkpt lat="45.39808" lon="6.13052">
        <ele>1765.8</ele>
        <time>2021-02-03T09:03:40Z</time>
      </trkpt>
      <trkpt lat="45.39807" lon="6.13052">
        <ele>1766</ele>
        <time>2021-02-03T09:03:41Z</time>
      </trkpt>
      <trkpt lat="45.39807" lon="6.13052">
        <ele>1766.2</ele>
        <time>2021-02-03T09:03:42Z</time>
      </trkpt>
      <trkpt lat="45.39806" lon="6.13051">
        <ele>1766.4</ele>
        <time>2021-02-03T09:03:43Z</time>
      </trkpt>
      <trkpt lat="45.39805" lon="6.13051">
        <ele>1766.6</ele>
        <time>2021-02-03T09:03:44Z</time>
      </trkpt>
      <trkpt lat="45.39804" lon="6.1305">
        <ele>1766.8</ele>
        <time>2021-02-03T09:03:45Z</time>
      </trkpt>
      <trkpt lat="45.39804" lon="6.1305">
        <ele>1767</ele>
        <time>2021-02-03T09:03:46Z</time>
      </trkpt>
      <trkpt lat="45.39803" lon="6.13049">
        <ele>1767.2</ele>
        <time>2021-02-03T09:03:47Z</time>
      </trkpt>
      <trkpt lat="45.39802" lon="6.13049">
        <ele>1767.4</ele>
        <time>2021-02-03T09:03:48Z</time>
      </trkpt>
      <trkpt lat="45.39802" lon="6.13048">
        <ele>1767.6</ele>
        <time>2021-02-03T09:03:49Z</time>
      </trkpt>
      <trkpt lat="45.39801" lon="6.13048">
        <ele>1767.8</ele>
        <time>2021-02-03T09:04:12Z</time>
      </trkpt>
      <trkpt lat="45.398" lon="6.13048">
        <ele>1768</ele>
        <time>2021-02-03T09:04:13Z</time>
      </trkpt>
      <trkpt lat="45.39799" lon="6.13047">
        <ele>1768.2</ele>
        <time>2021-02-03T09:04:14Z</time>
      </trkpt>
      <trkpt lat="45.39799" lon="6.13047">
        <ele>1768.4</ele>
        <time>2021-02-03T09:04:15Z</time>
      </trkpt>
      <trkpt lat="45.39798" lon="6.13046">
        <ele>1768.6</ele>
        <time>2021-02-03T09:04:16Z</time>
      </trkpt>
      <trkpt lat="45.39797" lon="6.13046">
        <ele>1768.8</ele>
        <time>2021-02-03T09:04:17Z</time>
      </trkpt>
      <trkpt lat="45.39797" lon="6.13045">
        <ele>1768.9</ele>
        <time>2021-02-03T09:04:18Z</time>
      </trkpt>
      <trkpt lat="45.39796" lon="6.13045">
        <ele>1769</ele>
        <time>2021-02-03T09:04:19Z</time>
      </trkpt>
      <trkpt lat="45.39796" lon="6.13045">
        <ele>1769.2</ele>
        <time>2021-02-03T09:04:20Z</time>
      </trkpt>
      <trkpt lat="45.39795" lon="6.13045">
        <ele>1769.3</ele>
        <time>2021-02-03T09:04:21Z</time>
      </trkpt>
      <trkpt lat="45.39795" lon="6.13045">
        <ele>1769.4</ele>
        <time>2021-02-03T09:04:22Z</time>
      </trkpt>
      <trkpt lat="45.39795" lon="6.13045">
        <ele>1769.4</ele>
        <time>2021-02-03T09:04:23Z</time>
      </trkpt>
      <trkpt lat="45.39794" lon="6.13045">
        <ele>1769.5</ele>
        <time>2021-02-03T09:04:24Z</time>
      </trkpt>
      <trkpt lat="45.39794" lon="6.13045">
        <ele>1769.6</ele>
        <time>2021-02-03T09:04:25Z</time>
      </trkpt>
      <trkpt lat="45.39793" lon="6.13045">
        <ele>1769.7</ele>
        <time>2021-02-03T09:04:26Z</time>
      </trkpt>
      <trkpt lat="45.39793" lon="6.13045">
        <ele>1769.9</ele>
        <time>2021-02-03T09:04:27Z</time>
      </trkpt>
      <trkpt lat="45.39793" lon="6.13044">
        <ele>1769.9</ele>
        <time>2021-02-03T09:04:28Z</time>
      </trkpt>
      <trkpt lat="45.39792" lon="6.13044">
        <ele>1770</ele>
        <time>2021-02-03T09:04:29Z</time>
      </trkpt>
      <trkpt lat="45.39792" lon="6.13044">
        <ele>1770.1</ele>
        <time>2021-02-03T09:04:30Z</time>
      </trkpt>
      <trkpt lat="45.39791" lon="6.13044">
        <ele>1770.2</ele>
        <time>2021-02-03T09:04:31Z</time>
      </trkpt>
      <trkpt lat="45.39791" lon="6.13044">
        <ele>1770.3</ele>
        <time>2021-02-03T09:05:00Z</time>
      </trkpt>
      <trkpt lat="45.3979" lon="6.13044">
        <ele>1770.4</ele>
        <time>2021-02-03T09:05:01Z</time>
      </trkpt>
      <trkpt lat="45.3979" lon="6.13044">
        <ele>1770.5</ele>
        <time>2021-02-03T09:05:02Z</time>
      </trkpt>
      <trkpt lat="45.3979" lon="6.13044">
        <ele>1770.6</ele>
        <time>2021-02-03T09:05:03Z</time>
      </trkpt>
      <trkpt lat="45.39789" lon="6.13044">
        <ele>1770.7</ele>
        <time>2021-02-03T09:05:04Z</time>
      </trkpt>
      <trkpt lat="45.39789" lon="6.13043">
        <ele>1770.9</ele>
        <time>2021-02-03T09:05:05Z</time>
      </trkpt>
      <trkpt lat="45.39788" lon="6.13043">
        <ele>1771</ele>
        <time>2021-02-03T09:05:06Z</time>
      </trkpt>
      <trkpt lat="45.39788" lon="6.13042">
        <ele>1771.2</ele>
        <time>2021-02-03T09:05:07Z</time>
      </trkpt>
      <trkpt lat="45.39787" lon="6.13041">
        <ele>1771.3</ele>
        <time>2021-02-03T09:05:08Z</time>
      </trkpt>
      <trkpt lat="45.39787" lon="6.13041">
        <ele>1771.5</ele>
        <time>2021-02-03T09:05:09Z</time>
      </trkpt>
      <trkpt lat="45.39786" lon="6.1304">
        <ele>1771.6</ele>
        <time>2021-02-03T09:05:10Z</time>
      </trkpt>
      <trkpt lat="45.39786" lon="6.1304">
        <ele>1771.6</ele>
        <time>2021-02-03T09:05:11Z</time>
      </trkpt>
      <trkpt lat="45.39786" lon="6.1304">
        <ele>1771.8</ele>
        <time>2021-02-03T09:05:12Z</time>
      </trkpt>
      <trkpt lat="45.39785" lon="6.13039">
        <ele>1771.9</ele>
        <time>2021-02-03T09:05:13Z</time>
      </trkpt>
      <trkpt lat="45.39785" lon="6.13039">
        <ele>1772</ele>
        <time>2021-02-03T09:05:14Z</time>
      </trkpt>
      <trkpt lat="45.39785" lon="6.13038">
        <ele>1772.1</ele>
        <time>2021-02-03T09:05:15Z</time>
      </trkpt>
      <trkpt lat="45.39784" lon="6.13038">
        <ele>1772.3</ele>
        <time>2021-02-03T09:05:16Z</time>
      </trkpt>
      <trkpt lat="45.39784" lon="6.13037">
        <ele>1772.4</ele>
        <time>2021-02-03T09:05:17Z</time>
      </trkpt>
      <trkpt lat="45.39783" lon="6.13037">
        <ele>1772.5</ele>
        <time>2021-02-03T09:05:18Z</time>
      </trkpt>
      <trkpt lat="45.39783" lon="6.13036">
        <ele>1772.7</ele>
        <time>2021-02-03T09:05:19Z</time>
      </trkpt>
      <trkpt lat="45.39782" lon="6.13036">
        <ele>1772.8</ele>
        <time>2021-02-03T09:05:20Z</time>
      </trkpt>
      <trkpt lat="45.39782" lon="6.13036">
        <ele>1772.9</ele>
        <time>2021-02-03T09:05:21Z</time>
      </trkpt>
      <trkpt lat="45.39782" lon="6.13035">
        <ele>1773</ele>
        <time>2021-02-03T09:05:22Z</time>
      </trkpt>
      <trkpt lat="45.39781" lon="6.13035">
        <ele>1773.2</ele>
        <time>2021-02-03T09:05:23Z</time>
      </trkpt>
      <trkpt lat="45.3978" lon="6.13035">
        <ele>1773.4</ele>
        <time>2021-02-03T09:05:24Z</time>
      </trkpt>
      <trkpt lat="45.39779" lon="6.13034">
        <ele>1773.6</ele>
        <time>2021-02-03T09:05:25Z</time>
      </trkpt>
      <trkpt lat="45.39779" lon="6.13034">
        <ele>1773.7</ele>
        <time>2021-02-03T09:05:26Z</time>
      </trkpt>
      <trkpt lat="45.39778" lon="6.13034">
        <ele>1773.8</ele>
        <time>2021-02-03T09:05:27Z</time>
      </trkpt>
      <trkpt lat="45.39777" lon="6.13033">
        <ele>1774</ele>
        <time>2021-02-03T09:05:28Z</time>
      </trkpt>
      <trkpt lat="45.39777" lon="6.13033">
        <ele>1774.2</ele>
        <time>2021-02-03T09:05:29Z</time>
      </trkpt>
      <trkpt lat="45.39776" lon="6.13032">
        <ele>1774.4</ele>
        <time>2021-02-03T09:05:30Z</time>
      </trkpt>
      <trkpt lat="45.39775" lon="6.13031">
        <ele>1774.7</ele>
        <time>2021-02-03T09:05:31Z</time>
      </trkpt>
      <trkpt lat="45.39774" lon="6.1303">
        <ele>1774.9</ele>
        <time>2021-02-03T09:05:32Z</time>
      </trkpt>
      <trkpt lat="45.39773" lon="6.1303">
        <ele>1775.1</ele>
        <time>2021-02-03T09:05:33Z</time>
      </trkpt>
      <trkpt lat="45.39773" lon="6.13029">
        <ele>1775.3</ele>
        <time>2021-02-03T09:05:34Z</time>
      </trkpt>
      <trkpt lat="45.39772" lon="6.13029">
        <ele>1775.5</ele>
        <time>2021-02-03T09:05:35Z</time>
      </trkpt>
      <trkpt lat="45.39771" lon="6.13029">
        <ele>1775.7</ele>
        <time>2021-02-03T09:05:36Z</time>
      </trkpt>
      <trkpt lat="45.3977" lon="6.13028">
        <ele>1775.9</ele>
        <time>2021-02-03T09:05:37Z</time>
      </trkpt>
      <trkpt lat="45.39769" lon="6.13028">
        <ele>1776</ele>
        <time>2021-02-03T09:05:38Z</time>
      </trkpt>
      <trkpt lat="45.39769" lon="6.13028">
        <ele>1776.2</ele>
        <time>2021-02-03T09:05:39Z</time>
      </trkpt>
      <trkpt lat="45.39768" lon="6.13028">
        <ele>1776.3</ele>
        <time>2021-02-03T09:05:40Z</time>
      </trkpt>
      <trkpt lat="45.39768" lon="6.13028">
        <ele>1776.5</ele>
        <time>2021-02-03T09:05:41Z</time>
      </trkpt>
      <trkpt lat="45.39767" lon="6.13027">
        <ele>1776.6</ele>
        <time>2021-02-03T09:05:42Z</time>
      </trkpt>
      <trkpt lat="45.39766" lon="6.13027">
        <ele>1776.8</ele>
        <time>2021-02-03T09:05:43Z</time>
      </trkpt>
      <trkpt lat="45.39766" lon="6.13027">
        <ele>1776.9</ele>
        <time>2021-02-03T09:05:44Z</time>
      </trkpt>
      <trkpt lat="45.39765" lon="6.13026">
        <ele>1777</ele>
        <time>2021-02-03T09:05:45Z</time>
      </trkpt>
      <trkpt lat="45.39765" lon="6.13026">
        <ele>1777.1</ele>
        <time>2021-02-03T09:05:46Z</time>
      </trkpt>
      <trkpt lat="45.39764" lon="6.13026">
        <ele>1777.2</ele>
        <time>2021-02-03T09:05:47Z</time>
      </trkpt>
      <trkpt lat="45.39764" lon="6.13026">
        <ele>1777.4</ele>
        <time>2021-02-03T09:05:48Z</time>
      </trkpt>
      <trkpt lat="45.39763" lon="6.13026">
        <ele>1777.5</ele>
        <time>2021-02-03T09:05:49Z</time>
      </trkpt>
      <trkpt lat="45.39763" lon="6.13026">
        <ele>1777.6</ele>
        <time>2021-02-03T09:05:50Z</time>
      </trkpt>
      <trkpt lat="45.39762" lon="6.13025">
        <ele>1777.7</ele>
        <time>2021-02-03T09:05:51Z</time>
      </trkpt>
      <trkpt lat="45.39762" lon="6.13025">
        <ele>1777.9</ele>
        <time>2021-02-03T09:05:52Z</time>
      </trkpt>
      <trkpt lat="45.39761" lon="6.13024">
        <ele>1778.1</ele>
        <time>2021-02-03T09:05:53Z</time>
      </trkpt>
      <trkpt lat="45.3976" lon="6.13024">
        <ele>1778.3</ele>
        <time>2021-02-03T09:05:54Z</time>
      </trkpt>
      <trkpt lat="45.3976" lon="6.13023">
        <ele>1778.5</ele>
        <time>2021-02-03T09:05:55Z</time>
      </trkpt>
      <trkpt lat="45.39759" lon="6.13023">
        <ele>1778.6</ele>
        <time>2021-02-03T09:05:56Z</time>
      </trkpt>
      <trkpt lat="45.39759" lon="6.13023">
        <ele>1778.7</ele>
        <time>2021-02-03T09:05:57Z</time>
      </trkpt>
      <trkpt lat="45.39758" lon="6.13023">
        <ele>1778.8</ele>
        <time>2021-02-03T09:05:58Z</time>
      </trkpt>
      <trkpt lat="45.39758" lon="6.13023">
        <ele>1778.8</ele>
        <time>2021-02-03T09:05:59Z</time>
      </trkpt>
      <trkpt lat="45.39758" lon="6.13023">
        <ele>1778.9</ele>
        <time>2021-02-03T09:06:00Z</time>
      </trkpt>
      <trkpt lat="45.39757" lon="6.13023">
        <ele>1779</ele>
        <time>2021-02-03T09:06:01Z</time>
      </trkpt>
      <trkpt lat="45.39757" lon="6.13023">
        <ele>1779.1</ele>
        <time>2021-02-03T09:06:02Z</time>
      </trkpt>
      <trkpt lat="45.39757" lon="6.13023">
        <ele>1779.2</ele>
        <time>2021-02-03T09:06:03Z</time>
      </trkpt>
      <trkpt lat="45.39756" lon="6.13023">
        <ele>1779.3</ele>
        <time>2021-02-03T09:06:04Z</time>
      </trkpt>
      <trkpt lat="45.39756" lon="6.13023">
        <ele>1779.4</ele>
        <time>2021-02-03T09:06:05Z</time>
      </trkpt>
      <trkpt lat="45.39755" lon="6.13023">
        <ele>1779.4</ele>
        <time>2021-02-03T09:06:06Z</time>
      </trkpt>
      <trkpt lat="45.39755" lon="6.13023">
        <ele>1779.5</ele>
        <time>2021-02-03T09:06:11Z</time>
      </trkpt>
      <trkpt lat="45.39755" lon="6.13023">
        <ele>1779.6</ele>
        <time>2021-02-03T09:06:12Z</time>
      </trkpt>
      <trkpt lat="45.39754" lon="6.13023">
        <ele>1779.7</ele>
        <time>2021-02-03T09:06:13Z</time>
      </trkpt>
      <trkpt lat="45.39754" lon="6.13023">
        <ele>1779.8</ele>
        <time>2021-02-03T09:06:14Z</time>
      </trkpt>
      <trkpt lat="45.39754" lon="6.13023">
        <ele>1779.9</ele>
        <time>2021-02-03T09:06:15Z</time>
      </trkpt>
      <trkpt lat="45.39752" lon="6.13023">
        <ele>1780.2</ele>
        <time>2021-02-03T09:06:16Z</time>
      </trkpt>
      <trkpt lat="45.39752" lon="6.13024">
        <ele>1780.4</ele>
        <time>2021-02-03T09:06:17Z</time>
      </trkpt>
      <trkpt lat="45.39751" lon="6.13024">
        <ele>1780.6</ele>
        <time>2021-02-03T09:06:18Z</time>
      </trkpt>
      <trkpt lat="45.3975" lon="6.13025">
        <ele>1780.7</ele>
        <time>2021-02-03T09:06:19Z</time>
      </trkpt>
      <trkpt lat="45.39749" lon="6.13025">
        <ele>1780.9</ele>
        <time>2021-02-03T09:06:20Z</time>
      </trkpt>
      <trkpt lat="45.39749" lon="6.13025">
        <ele>1781.1</ele>
        <time>2021-02-03T09:06:21Z</time>
      </trkpt>
      <trkpt lat="45.39748" lon="6.13026">
        <ele>1781.3</ele>
        <time>2021-02-03T09:06:22Z</time>
      </trkpt>
      <trkpt lat="45.39747" lon="6.13026">
        <ele>1781.5</ele>
        <time>2021-02-03T09:06:23Z</time>
      </trkpt>
      <trkpt lat="45.39747" lon="6.13027">
        <ele>1781.6</ele>
        <time>2021-02-03T09:06:24Z</time>
      </trkpt>
      <trkpt lat="45.39746" lon="6.13027">
        <ele>1781.8</ele>
        <time>2021-02-03T09:06:46Z</time>
      </trkpt>
      <trkpt lat="45.39745" lon="6.13027">
        <ele>1782</ele>
        <time>2021-02-03T09:06:47Z</time>
      </trkpt>
      <trkpt lat="45.39745" lon="6.13028">
        <ele>1782.2</ele>
        <time>2021-02-03T09:06:48Z</time>
      </trkpt>
      <trkpt lat="45.39744" lon="6.13028">
        <ele>1782.4</ele>
        <time>2021-02-03T09:06:49Z</time>
      </trkpt>
      <trkpt lat="45.39743" lon="6.13029">
        <ele>1782.6</ele>
        <time>2021-02-03T09:06:50Z</time>
      </trkpt>
      <trkpt lat="45.39742" lon="6.13029">
        <ele>1782.8</ele>
        <time>2021-02-03T09:06:51Z</time>
      </trkpt>
      <trkpt lat="45.39742" lon="6.13029">
        <ele>1783</ele>
        <time>2021-02-03T09:06:52Z</time>
      </trkpt>
      <trkpt lat="45.39741" lon="6.1303">
        <ele>1783.2</ele>
        <time>2021-02-03T09:06:53Z</time>
      </trkpt>
      <trkpt lat="45.3974" lon="6.1303">
        <ele>1783.4</ele>
        <time>2021-02-03T09:06:54Z</time>
      </trkpt>
      <trkpt lat="45.3974" lon="6.13031">
        <ele>1783.6</ele>
        <time>2021-02-03T09:06:55Z</time>
      </trkpt>
      <trkpt lat="45.39739" lon="6.13031">
        <ele>1783.8</ele>
        <time>2021-02-03T09:06:56Z</time>
      </trkpt>
      <trkpt lat="45.39738" lon="6.13031">
        <ele>1784</ele>
        <time>2021-02-03T09:06:57Z</time>
      </trkpt>
      <trkpt lat="45.39738" lon="6.13032">
        <ele>1784.2</ele>
        <time>2021-02-03T09:06:58Z</time>
      </trkpt>
      <trkpt lat="45.39737" lon="6.13032">
        <ele>1784.4</ele>
        <time>2021-02-03T09:07:22Z</time>
      </trkpt>
      <trkpt lat="45.39736" lon="6.13032">
        <ele>1784.6</ele>
        <time>2021-02-03T09:07:23Z</time>
      </trkpt>
      <trkpt lat="45.39735" lon="6.13033">
        <ele>1784.8</ele>
        <time>2021-02-03T09:07:24Z</time>
      </trkpt>
      <trkpt lat="45.39735" lon="6.13033">
        <ele>1785</ele>
        <time>2021-02-03T09:07:25Z</time>
      </trkpt>
      <trkpt lat="45.39734" lon="6.13034">
        <ele>1785.2</ele>
        <time>2021-02-03T09:07:26Z</time>
      </trkpt>
      <trkpt lat="45.39733" lon="6.13034">
        <ele>1785.3</ele>
        <time>2021-02-03T09:07:27Z</time>
      </trkpt>
      <trkpt lat="45.39733" lon="6.13035">
        <ele>1785.5</ele>
        <time>2021-02-03T09:07:28Z</time>
      </trkpt>
      <trkpt lat="45.39732" lon="6.13035">
        <ele>1785.7</ele>
        <time>2021-02-03T09:07:29Z</time>
      </trkpt>
      <trkpt lat="45.39732" lon="6.13036">
        <ele>1785.9</ele>
        <time>2021-02-03T09:07:30Z</time>
      </trkpt>
      <trkpt lat="45.39731" lon="6.13036">
        <ele>1786.1</ele>
        <time>2021-02-03T09:07:31Z</time>
      </trkpt>
      <trkpt lat="45.39731" lon="6.13036">
        <ele>1786.2</ele>
        <time>2021-02-03T09:07:32Z</time>
      </trkpt>
      <trkpt lat="45.3973" lon="6.13037">
        <ele>1786.4</ele>
        <time>2021-02-03T09:07:33Z</time>
      </trkpt>
      <trkpt lat="45.3973" lon="6.13037">
        <ele>1786.5</ele>
        <time>2021-02-03T09:07:34Z</time>
      </trkpt>
      <trkpt lat="45.39729" lon="6.13038">
        <ele>1786.7</ele>
        <time>2021-02-03T09:07:35Z</time>
      </trkpt>
      <trkpt lat="45.39729" lon="6.13038">
        <ele>1786.8</ele>
        <time>2021-02-03T09:07:36Z</time>
      </trkpt>
      <trkpt lat="45.39728" lon="6.13039">
        <ele>1787</ele>
        <time>2021-02-03T09:07:37Z</time>
      </trkpt>
      <trkpt lat="45.39728" lon="6.13039">
        <ele>1787.1</ele>
        <time>2021-02-03T09:07:38Z</time>
      </trkpt>
      <trkpt lat="45.39727" lon="6.13039">
        <ele>1787.3</ele>
        <time>2021-02-03T09:07:39Z</time>
      </trkpt>
      <trkpt lat="45.39727" lon="6.1304">
        <ele>1787.5</ele>
        <time>2021-02-03T09:07:40Z</time>
      </trkpt>
      <trkpt lat="45.39726" lon="6.1304">
        <ele>1787.7</ele>
        <time>2021-02-03T09:07:41Z</time>
      </trkpt>
      <trkpt lat="45.39725" lon="6.1304">
        <ele>1787.8</ele>
        <time>2021-02-03T09:07:42Z</time>
      </trkpt>
      <trkpt lat="45.39725" lon="6.1304">
        <ele>1788.1</ele>
        <time>2021-02-03T09:07:43Z</time>
      </trkpt>
      <trkpt lat="45.39724" lon="6.13041">
        <ele>1788.2</ele>
        <time>2021-02-03T09:07:44Z</time>
      </trkpt>
      <trkpt lat="45.39724" lon="6.13041">
        <ele>1788.4</ele>
        <time>2021-02-03T09:07:45Z</time>
      </trkpt>
      <trkpt lat="45.39723" lon="6.13042">
        <ele>1788.6</ele>
        <time>2021-02-03T09:07:46Z</time>
      </trkpt>
      <trkpt lat="45.39723" lon="6.13042">
        <ele>1788.8</ele>
        <time>2021-02-03T09:07:47Z</time>
      </trkpt>
      <trkpt lat="45.39722" lon="6.13043">
        <ele>1789</ele>
        <time>2021-02-03T09:07:48Z</time>
      </trkpt>
      <trkpt lat="45.39722" lon="6.13043">
        <ele>1789.2</ele>
        <time>2021-02-03T09:07:49Z</time>
      </trkpt>
      <trkpt lat="45.39721" lon="6.13044">
        <ele>1789.4</ele>
        <time>2021-02-03T09:07:50Z</time>
      </trkpt>
      <trkpt lat="45.3972" lon="6.13044">
        <ele>1789.6</ele>
        <time>2021-02-03T09:07:51Z</time>
      </trkpt>
      <trkpt lat="45.3972" lon="6.13045">
        <ele>1789.8</ele>
        <time>2021-02-03T09:07:52Z</time>
      </trkpt>
      <trkpt lat="45.39719" lon="6.13046">
        <ele>1789.9</ele>
        <time>2021-02-03T09:07:53Z</time>
      </trkpt>
      <trkpt lat="45.39719" lon="6.13046">
        <ele>1790.1</ele>
        <time>2021-02-03T09:07:54Z</time>
      </trkpt>
      <trkpt lat="45.39719" lon="6.13047">
        <ele>1790.3</ele>
        <time>2021-02-03T09:07:55Z</time>
      </trkpt>
      <trkpt lat="45.39719" lon="6.13048">
        <ele>1790.4</ele>
        <time>2021-02-03T09:07:56Z</time>
      </trkpt>
      <trkpt lat="45.39719" lon="6.13048">
        <ele>1790.5</ele>
        <time>2021-02-03T09:07:57Z</time>
      </trkpt>
      <trkpt lat="45.39718" lon="6.13049">
        <ele>1790.7</ele>
        <time>2021-02-03T09:07:58Z</time>
      </trkpt>
      <trkpt lat="45.39718" lon="6.13049">
        <ele>1790.8</ele>
        <time>2021-02-03T09:07:59Z</time>
      </trkpt>
      <trkpt lat="45.39718" lon="6.1305">
        <ele>1790.9</ele>
        <time>2021-02-03T09:08:00Z</time>
      </trkpt>
      <trkpt lat="45.39717" lon="6.13051">
        <ele>1791.2</ele>
        <time>2021-02-03T09:08:01Z</time>
      </trkpt>
      <trkpt lat="45.39717" lon="6.13051">
        <ele>1791.3</ele>
        <time>2021-02-03T09:08:02Z</time>
      </trkpt>
      <trkpt lat="45.39717" lon="6.13052">
        <ele>1791.4</ele>
        <time>2021-02-03T09:08:03Z</time>
      </trkpt>
      <trkpt lat="45.39717" lon="6.13052">
        <ele>1791.5</ele>
        <time>2021-02-03T09:08:04Z</time>
      </trkpt>
      <trkpt lat="45.39717" lon="6.13053">
        <ele>1791.6</ele>
        <time>2021-02-03T09:08:05Z</time>
      </trkpt>
      <trkpt lat="45.39716" lon="6.13053">
        <ele>1791.7</ele>
        <time>2021-02-03T09:08:07Z</time>
      </trkpt>
      <trkpt lat="45.39716" lon="6.13054">
        <ele>1791.8</ele>
        <time>2021-02-03T09:08:08Z</time>
      </trkpt>
      <trkpt lat="45.39716" lon="6.13054">
        <ele>1792</ele>
        <time>2021-02-03T09:08:09Z</time>
      </trkpt>
      <trkpt lat="45.39716" lon="6.13054">
        <ele>1792.1</ele>
        <time>2021-02-03T09:08:10Z</time>
      </trkpt>
      <trkpt lat="45.39715" lon="6.13055">
        <ele>1792.2</ele>
        <time>2021-02-03T09:08:11Z</time>
      </trkpt>
      <trkpt lat="45.39715" lon="6.13055">
        <ele>1792.3</ele>
        <time>2021-02-03T09:08:12Z</time>
      </trkpt>
      <trkpt lat="45.39715" lon="6.13056">
        <ele>1792.4</ele>
        <time>2021-02-03T09:08:13Z</time>
      </trkpt>
      <trkpt lat="45.39715" lon="6.13056">
        <ele>1792.5</ele>
        <time>2021-02-03T09:08:14Z</time>
      </trkpt>
      <trkpt lat="45.39714" lon="6.13057">
        <ele>1792.6</ele>
        <time>2021-02-03T09:08:15Z</time>
      </trkpt>
      <trkpt lat="45.39714" lon="6.13057">
        <ele>1792.8</ele>
        <time>2021-02-03T09:08:16Z</time>
      </trkpt>
      <trkpt lat="45.39714" lon="6.13058">
        <ele>1792.9</ele>
        <time>2021-02-03T09:08:17Z</time>
      </trkpt>
      <trkpt lat="45.39714" lon="6.13059">
        <ele>1793.1</ele>
        <time>2021-02-03T09:08:18Z</time>
      </trkpt>
      <trkpt lat="45.39714" lon="6.13059">
        <ele>1793.2</ele>
        <time>2021-02-03T09:08:19Z</time>
      </trkpt>
      <trkpt lat="45.39713" lon="6.1306">
        <ele>1793.4</ele>
        <time>2021-02-03T09:08:20Z</time>
      </trkpt>
      <trkpt lat="45.39713" lon="6.13061">
        <ele>1793.5</ele>
        <time>2021-02-03T09:08:21Z</time>
      </trkpt>
      <trkpt lat="45.39713" lon="6.13061">
        <ele>1793.6</ele>
        <time>2021-02-03T09:08:22Z</time>
      </trkpt>
      <trkpt lat="45.39713" lon="6.13062">
        <ele>1793.8</ele>
        <time>2021-02-03T09:08:23Z</time>
      </trkpt>
      <trkpt lat="45.39713" lon="6.13063">
        <ele>1793.9</ele>
        <time>2021-02-03T09:08:24Z</time>
      </trkpt>
      <trkpt lat="45.39713" lon="6.13063">
        <ele>1794.1</ele>
        <time>2021-02-03T09:08:25Z</time>
      </trkpt>
      <trkpt lat="45.39713" lon="6.13064">
        <ele>1794.2</ele>
        <time>2021-02-03T09:08:26Z</time>
      </trkpt>
      <trkpt lat="45.39714" lon="6.13065">
        <ele>1794.3</ele>
        <time>2021-02-03T09:08:27Z</time>
      </trkpt>
      <trkpt lat="45.39714" lon="6.13065">
        <ele>1794.4</ele>
        <time>2021-02-03T09:08:28Z</time>
      </trkpt>
      <trkpt lat="45.39714" lon="6.13066">
        <ele>1794.6</ele>
        <time>2021-02-03T09:08:29Z</time>
      </trkpt>
      <trkpt lat="45.39714" lon="6.13067">
        <ele>1794.7</ele>
        <time>2021-02-03T09:08:30Z</time>
      </trkpt>
      <trkpt lat="45.39714" lon="6.13067">
        <ele>1794.8</ele>
        <time>2021-02-03T09:08:31Z</time>
      </trkpt>
      <trkpt lat="45.39714" lon="6.13068">
        <ele>1795</ele>
        <time>2021-02-03T09:08:32Z</time>
      </trkpt>
      <trkpt lat="45.39714" lon="6.13069">
        <ele>1795.1</ele>
        <time>2021-02-03T09:08:33Z</time>
      </trkpt>
      <trkpt lat="45.39714" lon="6.13069">
        <ele>1795.2</ele>
        <time>2021-02-03T09:08:34Z</time>
      </trkpt>
      <trkpt lat="45.39714" lon="6.1307">
        <ele>1795.4</ele>
        <time>2021-02-03T09:08:35Z</time>
      </trkpt>
      <trkpt lat="45.39714" lon="6.13071">
        <ele>1795.5</ele>
        <time>2021-02-03T09:08:36Z</time>
      </trkpt>
      <trkpt lat="45.39714" lon="6.13071">
        <ele>1795.6</ele>
        <time>2021-02-03T09:08:37Z</time>
      </trkpt>
      <trkpt lat="45.39714" lon="6.13072">
        <ele>1795.8</ele>
        <time>2021-02-03T09:08:38Z</time>
      </trkpt>
      <trkpt lat="45.39714" lon="6.13073">
        <ele>1795.9</ele>
        <time>2021-02-03T09:08:39Z</time>
      </trkpt>
      <trkpt lat="45.39713" lon="6.13074">
        <ele>1796.1</ele>
        <time>2021-02-03T09:08:40Z</time>
      </trkpt>
      <trkpt lat="45.39713" lon="6.13074">
        <ele>1796.2</ele>
        <time>2021-02-03T09:08:41Z</time>
      </trkpt>
      <trkpt lat="45.39713" lon="6.13075">
        <ele>1796.4</ele>
        <time>2021-02-03T09:08:42Z</time>
      </trkpt>
      <trkpt lat="45.39713" lon="6.13076">
        <ele>1796.5</ele>
        <time>2021-02-03T09:08:43Z</time>
      </trkpt>
      <trkpt lat="45.39713" lon="6.13077">
        <ele>1796.7</ele>
        <time>2021-02-03T09:08:44Z</time>
      </trkpt>
      <trkpt lat="45.39713" lon="6.13077">
        <ele>1796.7</ele>
        <time>2021-02-03T09:08:45Z</time>
      </trkpt>
      <trkpt lat="45.39713" lon="6.13078">
        <ele>1796.8</ele>
        <time>2021-02-03T09:08:46Z</time>
      </trkpt>
      <trkpt lat="45.39712" lon="6.13081">
        <ele>1797.5</ele>
        <time>2021-02-03T09:08:47Z</time>
      </trkpt>
      <trkpt lat="45.39712" lon="6.13083">
        <ele>1798</ele>
        <time>2021-02-03T09:08:48Z</time>
      </trkpt>
      <trkpt lat="45.39711" lon="6.13086">
        <ele>1798.4</ele>
        <time>2021-02-03T09:08:49Z</time>
      </trkpt>
      <trkpt lat="45.39711" lon="6.13088">
        <ele>1798.9</ele>
        <time>2021-02-03T09:08:50Z</time>
      </trkpt>
      <trkpt lat="45.39711" lon="6.13091">
        <ele>1799.3</ele>
        <time>2021-02-03T09:09:15Z</time>
      </trkpt>
      <trkpt lat="45.3971" lon="6.13093">
        <ele>1799.8</ele>
        <time>2021-02-03T09:09:16Z</time>
      </trkpt>
      <trkpt lat="45.3971" lon="6.13096">
        <ele>1800.2</ele>
        <time>2021-02-03T09:09:17Z</time>
      </trkpt>
      <trkpt lat="45.39709" lon="6.13098">
        <ele>1800.7</ele>
        <time>2021-02-03T09:09:18Z</time>
      </trkpt>
      <trkpt lat="45.39709" lon="6.13101">
        <ele>1801.1</ele>
        <time>2021-02-03T09:09:19Z</time>
      </trkpt>
      <trkpt lat="45.39708" lon="6.13103">
        <ele>1801.6</ele>
        <time>2021-02-03T09:09:20Z</time>
      </trkpt>
      <trkpt lat="45.39708" lon="6.13104">
        <ele>1801.7</ele>
        <time>2021-02-03T09:09:21Z</time>
      </trkpt>
      <trkpt lat="45.39708" lon="6.13105">
        <ele>1801.9</ele>
        <time>2021-02-03T09:09:22Z</time>
      </trkpt>
      <trkpt lat="45.39708" lon="6.13105">
        <ele>1802</ele>
        <time>2021-02-03T09:09:23Z</time>
      </trkpt>
      <trkpt lat="45.39708" lon="6.13106">
        <ele>1802.2</ele>
        <time>2021-02-03T09:09:24Z</time>
      </trkpt>
      <trkpt lat="45.39708" lon="6.13107">
        <ele>1802.3</ele>
        <time>2021-02-03T09:09:25Z</time>
      </trkpt>
      <trkpt lat="45.39708" lon="6.13109">
        <ele>1802.7</ele>
        <time>2021-02-03T09:09:26Z</time>
      </trkpt>
      <trkpt lat="45.39709" lon="6.1311">
        <ele>1802.9</ele>
        <time>2021-02-03T09:09:27Z</time>
      </trkpt>
      <trkpt lat="45.39709" lon="6.13112">
        <ele>1803.2</ele>
        <time>2021-02-03T09:09:36Z</time>
      </trkpt>
      <trkpt lat="45.39709" lon="6.13113">
        <ele>1803.4</ele>
        <time>2021-02-03T09:09:37Z</time>
      </trkpt>
      <trkpt lat="45.39709" lon="6.13114">
        <ele>1803.6</ele>
        <time>2021-02-03T09:09:38Z</time>
      </trkpt>
      <trkpt lat="45.39709" lon="6.13116">
        <ele>1803.9</ele>
        <time>2021-02-03T09:09:39Z</time>
      </trkpt>
      <trkpt lat="45.3971" lon="6.13117">
        <ele>1804.1</ele>
        <time>2021-02-03T09:09:40Z</time>
      </trkpt>
      <trkpt lat="45.3971" lon="6.13119">
        <ele>1804.4</ele>
        <time>2021-02-03T09:09:41Z</time>
      </trkpt>
      <trkpt lat="45.3971" lon="6.13119">
        <ele>1804.5</ele>
        <time>2021-02-03T09:09:42Z</time>
      </trkpt>
      <trkpt lat="45.3971" lon="6.1312">
        <ele>1804.6</ele>
        <time>2021-02-03T09:09:43Z</time>
      </trkpt>
      <trkpt lat="45.3971" lon="6.13121">
        <ele>1804.7</ele>
        <time>2021-02-03T09:09:44Z</time>
      </trkpt>
      <trkpt lat="45.39709" lon="6.13121">
        <ele>1804.9</ele>
        <time>2021-02-03T09:09:45Z</time>
      </trkpt>
      <trkpt lat="45.39709" lon="6.13122">
        <ele>1805</ele>
        <time>2021-02-03T09:09:46Z</time>
      </trkpt>
      <trkpt lat="45.39709" lon="6.13123">
        <ele>1805.1</ele>
        <time>2021-02-03T09:09:47Z</time>
      </trkpt>
      <trkpt lat="45.39709" lon="6.13124">
        <ele>1805.2</ele>
        <time>2021-02-03T09:09:48Z</time>
      </trkpt>
      <trkpt lat="45.39709" lon="6.13124">
        <ele>1805.4</ele>
        <time>2021-02-03T09:09:49Z</time>
      </trkpt>
      <trkpt lat="45.39709" lon="6.13125">
        <ele>1805.5</ele>
        <time>2021-02-03T09:09:50Z</time>
      </trkpt>
      <trkpt lat="45.39709" lon="6.13126">
        <ele>1805.6</ele>
        <time>2021-02-03T09:09:51Z</time>
      </trkpt>
      <trkpt lat="45.39708" lon="6.13127">
        <ele>1805.8</ele>
        <time>2021-02-03T09:09:52Z</time>
      </trkpt>
      <trkpt lat="45.39708" lon="6.13128">
        <ele>1806</ele>
        <time>2021-02-03T09:09:53Z</time>
      </trkpt>
      <trkpt lat="45.39708" lon="6.13129">
        <ele>1806.1</ele>
        <time>2021-02-03T09:09:54Z</time>
      </trkpt>
      <trkpt lat="45.39708" lon="6.1313">
        <ele>1806.2</ele>
        <time>2021-02-03T09:09:55Z</time>
      </trkpt>
      <trkpt lat="45.39708" lon="6.1313">
        <ele>1806.4</ele>
        <time>2021-02-03T09:09:56Z</time>
      </trkpt>
      <trkpt lat="45.39708" lon="6.13131">
        <ele>1806.5</ele>
        <time>2021-02-03T09:09:57Z</time>
      </trkpt>
      <trkpt lat="45.39708" lon="6.13132">
        <ele>1806.6</ele>
        <time>2021-02-03T09:09:58Z</time>
      </trkpt>
      <trkpt lat="45.39708" lon="6.13133">
        <ele>1806.7</ele>
        <time>2021-02-03T09:09:59Z</time>
      </trkpt>
      <trkpt lat="45.39708" lon="6.13133">
        <ele>1806.8</ele>
        <time>2021-02-03T09:10:00Z</time>
      </trkpt>
      <trkpt lat="45.39708" lon="6.13134">
        <ele>1807</ele>
        <time>2021-02-03T09:10:01Z</time>
      </trkpt>
      <trkpt lat="45.39708" lon="6.13135">
        <ele>1807.1</ele>
        <time>2021-02-03T09:10:02Z</time>
      </trkpt>
      <trkpt lat="45.39708" lon="6.13136">
        <ele>1807.2</ele>
        <time>2021-02-03T09:10:03Z</time>
      </trkpt>
      <trkpt lat="45.39708" lon="6.13136">
        <ele>1807.3</ele>
        <time>2021-02-03T09:10:04Z</time>
      </trkpt>
      <trkpt lat="45.39708" lon="6.13137">
        <ele>1807.5</ele>
        <time>2021-02-03T09:10:05Z</time>
      </trkpt>
      <trkpt lat="45.39708" lon="6.13138">
        <ele>1807.6</ele>
        <time>2021-02-03T09:10:06Z</time>
      </trkpt>
      <trkpt lat="45.39708" lon="6.13139">
        <ele>1807.7</ele>
        <time>2021-02-03T09:10:07Z</time>
      </trkpt>
      <trkpt lat="45.39708" lon="6.1314">
        <ele>1807.9</ele>
        <time>2021-02-03T09:10:08Z</time>
      </trkpt>
      <trkpt lat="45.39708" lon="6.13141">
        <ele>1808</ele>
        <time>2021-02-03T09:10:09Z</time>
      </trkpt>
      <trkpt lat="45.39708" lon="6.13141">
        <ele>1808.1</ele>
        <time>2021-02-03T09:10:10Z</time>
      </trkpt>
      <trkpt lat="45.39708" lon="6.13142">
        <ele>1808.3</ele>
        <time>2021-02-03T09:10:11Z</time>
      </trkpt>
      <trkpt lat="45.39708" lon="6.13144">
        <ele>1808.5</ele>
        <time>2021-02-03T09:10:12Z</time>
      </trkpt>
      <trkpt lat="45.39708" lon="6.13145">
        <ele>1808.6</ele>
        <time>2021-02-03T09:10:13Z</time>
      </trkpt>
      <trkpt lat="45.39708" lon="6.13145">
        <ele>1808.9</ele>
        <time>2021-02-03T09:10:14Z</time>
      </trkpt>
      <trkpt lat="45.39708" lon="6.13146">
        <ele>1808.9</ele>
        <time>2021-02-03T09:10:15Z</time>
      </trkpt>
      <trkpt lat="45.39708" lon="6.13147">
        <ele>1808.9</ele>
        <time>2021-02-03T09:10:16Z</time>
      </trkpt>
      <trkpt lat="45.39708" lon="6.13148">
        <ele>1808.9</ele>
        <time>2021-02-03T09:10:17Z</time>
      </trkpt>
      <trkpt lat="45.39708" lon="6.13149">
        <ele>1808.9</ele>
        <time>2021-02-03T09:10:18Z</time>
      </trkpt>
      <trkpt lat="45.39708" lon="6.1315">
        <ele>1809</ele>
        <time>2021-02-03T09:10:19Z</time>
      </trkpt>
      <trkpt lat="45.39708" lon="6.1315">
        <ele>1809</ele>
        <time>2021-02-03T09:10:20Z</time>
      </trkpt>
      <trkpt lat="45.39708" lon="6.13151">
        <ele>1809</ele>
        <time>2021-02-03T09:10:21Z</time>
      </trkpt>
      <trkpt lat="45.39708" lon="6.13152">
        <ele>1809</ele>
        <time>2021-02-03T09:10:22Z</time>
      </trkpt>
      <trkpt lat="45.39708" lon="6.13153">
        <ele>1809</ele>
        <time>2021-02-03T09:10:23Z</time>
      </trkpt>
      <trkpt lat="45.39708" lon="6.13155">
        <ele>1809.1</ele>
        <time>2021-02-03T09:10:24Z</time>
      </trkpt>
      <trkpt lat="45.39708" lon="6.13156">
        <ele>1809.1</ele>
        <time>2021-02-03T09:10:25Z</time>
      </trkpt>
      <trkpt lat="45.39708" lon="6.13157">
        <ele>1809.2</ele>
        <time>2021-02-03T09:10:26Z</time>
      </trkpt>
      <trkpt lat="45.39707" lon="6.13159">
        <ele>1809.2</ele>
        <time>2021-02-03T09:10:27Z</time>
      </trkpt>
      <trkpt lat="45.39707" lon="6.1316">
        <ele>1809.3</ele>
        <time>2021-02-03T09:10:35Z</time>
      </trkpt>
      <trkpt lat="45.39707" lon="6.13161">
        <ele>1809.3</ele>
        <time>2021-02-03T09:10:36Z</time>
      </trkpt>
      <trkpt lat="45.39707" lon="6.13163">
        <ele>1809.3</ele>
        <time>2021-02-03T09:10:37Z</time>
      </trkpt>
      <trkpt lat="45.39707" lon="6.13164">
        <ele>1809.4</ele>
        <time>2021-02-03T09:10:38Z</time>
      </trkpt>
      <trkpt lat="45.39706" lon="6.13165">
        <ele>1809.4</ele>
        <time>2021-02-03T09:10:39Z</time>
      </trkpt>
      <trkpt lat="45.39706" lon="6.13166">
        <ele>1809.4</ele>
        <time>2021-02-03T09:10:40Z</time>
      </trkpt>
      <trkpt lat="45.39706" lon="6.13167">
        <ele>1809.4</ele>
        <time>2021-02-03T09:10:41Z</time>
      </trkpt>
      <trkpt lat="45.39706" lon="6.13167">
        <ele>1809.5</ele>
        <time>2021-02-03T09:10:42Z</time>
      </trkpt>
      <trkpt lat="45.39706" lon="6.13168">
        <ele>1809.5</ele>
        <time>2021-02-03T09:10:43Z</time>
      </trkpt>
      <trkpt lat="45.39706" lon="6.13169">
        <ele>1809.5</ele>
        <time>2021-02-03T09:10:44Z</time>
      </trkpt>
      <trkpt lat="45.39706" lon="6.13169">
        <ele>1809.5</ele>
        <time>2021-02-03T09:10:45Z</time>
      </trkpt>
      <trkpt lat="45.39706" lon="6.1317">
        <ele>1809.5</ele>
        <time>2021-02-03T09:10:46Z</time>
      </trkpt>
      <trkpt lat="45.39705" lon="6.13171">
        <ele>1809.6</ele>
        <time>2021-02-03T09:10:47Z</time>
      </trkpt>
      <trkpt lat="45.39705" lon="6.13172">
        <ele>1809.6</ele>
        <time>2021-02-03T09:10:48Z</time>
      </trkpt>
      <trkpt lat="45.39706" lon="6.13172">
        <ele>1809.6</ele>
        <time>2021-02-03T09:10:49Z</time>
      </trkpt>
      <trkpt lat="45.39706" lon="6.13173">
        <ele>1809.6</ele>
        <time>2021-02-03T09:10:50Z</time>
      </trkpt>
      <trkpt lat="45.39705" lon="6.13174">
        <ele>1809.6</ele>
        <time>2021-02-03T09:10:51Z</time>
      </trkpt>
      <trkpt lat="45.39705" lon="6.13174">
        <ele>1809.7</ele>
        <time>2021-02-03T09:10:52Z</time>
      </trkpt>
      <trkpt lat="45.39705" lon="6.13175">
        <ele>1809.7</ele>
        <time>2021-02-03T09:10:53Z</time>
      </trkpt>
      <trkpt lat="45.39705" lon="6.13176">
        <ele>1809.7</ele>
        <time>2021-02-03T09:10:54Z</time>
      </trkpt>
      <trkpt lat="45.39705" lon="6.13177">
        <ele>1809.7</ele>
        <time>2021-02-03T09:10:55Z</time>
      </trkpt>
      <trkpt lat="45.39705" lon="6.13177">
        <ele>1809.7</ele>
        <time>2021-02-03T09:10:56Z</time>
      </trkpt>
      <trkpt lat="45.39705" lon="6.13178">
        <ele>1809.8</ele>
        <time>2021-02-03T09:10:57Z</time>
      </trkpt>
      <trkpt lat="45.39705" lon="6.13178">
        <ele>1809.8</ele>
        <time>2021-02-03T09:10:58Z</time>
      </trkpt>
      <trkpt lat="45.39705" lon="6.13179">
        <ele>1809.8</ele>
        <time>2021-02-03T09:10:59Z</time>
      </trkpt>
      <trkpt lat="45.39704" lon="6.1318">
        <ele>1809.8</ele>
        <time>2021-02-03T09:11:00Z</time>
      </trkpt>
      <trkpt lat="45.39704" lon="6.1318">
        <ele>1809.8</ele>
        <time>2021-02-03T09:11:01Z</time>
      </trkpt>
      <trkpt lat="45.39706" lon="6.1318">
        <ele>1809.9</ele>
        <time>2021-02-03T09:11:02Z</time>
      </trkpt>
      <trkpt lat="45.39707" lon="6.13179">
        <ele>1810</ele>
        <time>2021-02-03T09:11:03Z</time>
      </trkpt>
      <trkpt lat="45.39709" lon="6.13179">
        <ele>1810</ele>
        <time>2021-02-03T09:11:04Z</time>
      </trkpt>
      <trkpt lat="45.3971" lon="6.13178">
        <ele>1810.1</ele>
        <time>2021-02-03T09:11:05Z</time>
      </trkpt>
      <trkpt lat="45.39712" lon="6.13177">
        <ele>1810.1</ele>
        <time>2021-02-03T09:11:17Z</time>
      </trkpt>
      <trkpt lat="45.39713" lon="6.13176">
        <ele>1810.2</ele>
        <time>2021-02-03T09:11:18Z</time>
      </trkpt>
      <trkpt lat="45.39714" lon="6.13175">
        <ele>1810.3</ele>
        <time>2021-02-03T09:11:19Z</time>
      </trkpt>
      <trkpt lat="45.39715" lon="6.13175">
        <ele>1810.3</ele>
        <time>2021-02-03T09:11:20Z</time>
      </trkpt>
      <trkpt lat="45.39716" lon="6.13175">
        <ele>1810.4</ele>
        <time>2021-02-03T09:11:21Z</time>
      </trkpt>
      <trkpt lat="45.39717" lon="6.13174">
        <ele>1810.4</ele>
        <time>2021-02-03T09:11:22Z</time>
      </trkpt>
      <trkpt lat="45.39717" lon="6.13174">
        <ele>1810.4</ele>
        <time>2021-02-03T09:11:23Z</time>
      </trkpt>
      <trkpt lat="45.39718" lon="6.13174">
        <ele>1810.5</ele>
        <time>2021-02-03T09:11:24Z</time>
      </trkpt>
      <trkpt lat="45.39719" lon="6.13173">
        <ele>1810.5</ele>
        <time>2021-02-03T09:11:25Z</time>
      </trkpt>
      <trkpt lat="45.3972" lon="6.13173">
        <ele>1810.5</ele>
        <time>2021-02-03T09:11:26Z</time>
      </trkpt>
      <trkpt lat="45.3972" lon="6.13173">
        <ele>1810.5</ele>
        <time>2021-02-03T09:11:27Z</time>
      </trkpt>
      <trkpt lat="45.39721" lon="6.13173">
        <ele>1810.6</ele>
        <time>2021-02-03T09:11:28Z</time>
      </trkpt>
      <trkpt lat="45.39721" lon="6.13172">
        <ele>1810.6</ele>
        <time>2021-02-03T09:11:29Z</time>
      </trkpt>
      <trkpt lat="45.39722" lon="6.1317">
        <ele>1810.7</ele>
        <time>2021-02-03T09:11:30Z</time>
      </trkpt>
      <trkpt lat="45.39722" lon="6.13168">
        <ele>1810.7</ele>
        <time>2021-02-03T09:11:31Z</time>
      </trkpt>
      <trkpt lat="45.39721" lon="6.13166">
        <ele>1810.8</ele>
        <time>2021-02-03T09:11:32Z</time>
      </trkpt>
      <trkpt lat="45.3972" lon="6.13162">
        <ele>1810.9</ele>
        <time>2021-02-03T09:11:33Z</time>
      </trkpt>
      <trkpt lat="45.39719" lon="6.13161">
        <ele>1811</ele>
        <time>2021-02-03T09:11:34Z</time>
      </trkpt>
      <trkpt lat="45.39717" lon="6.13158">
        <ele>1811.1</ele>
        <time>2021-02-03T09:11:35Z</time>
      </trkpt>
      <trkpt lat="45.39717" lon="6.13157">
        <ele>1811.1</ele>
        <time>2021-02-03T09:11:36Z</time>
      </trkpt>
      <trkpt lat="45.39716" lon="6.13153">
        <ele>1811.3</ele>
        <time>2021-02-03T09:11:37Z</time>
      </trkpt>
      <trkpt lat="45.39715" lon="6.13151">
        <ele>1811.3</ele>
        <time>2021-02-03T09:11:38Z</time>
      </trkpt>
      <trkpt lat="45.39714" lon="6.13147">
        <ele>1811.5</ele>
        <time>2021-02-03T09:11:39Z</time>
      </trkpt>
      <trkpt lat="45.39713" lon="6.13146">
        <ele>1811.5</ele>
        <time>2021-02-03T09:11:40Z</time>
      </trkpt>
      <trkpt lat="45.39711" lon="6.13143">
        <ele>1811.6</ele>
        <time>2021-02-03T09:11:41Z</time>
      </trkpt>
      <trkpt lat="45.3971" lon="6.13142">
        <ele>1811.7</ele>
        <time>2021-02-03T09:11:42Z</time>
      </trkpt>
      <trkpt lat="45.39708" lon="6.1314">
        <ele>1811.8</ele>
        <time>2021-02-03T09:11:43Z</time>
      </trkpt>
      <trkpt lat="45.39707" lon="6.1314">
        <ele>1811.8</ele>
        <time>2021-02-03T09:11:44Z</time>
      </trkpt>
      <trkpt lat="45.39706" lon="6.1314">
        <ele>1811.9</ele>
        <time>2021-02-03T09:11:45Z</time>
      </trkpt>
      <trkpt lat="45.39705" lon="6.13141">
        <ele>1811.9</ele>
        <time>2021-02-03T09:11:46Z</time>
      </trkpt>
      <trkpt lat="45.39704" lon="6.13142">
        <ele>1812</ele>
        <time>2021-02-03T09:11:47Z</time>
      </trkpt>
      <trkpt lat="45.39704" lon="6.13143">
        <ele>1812</ele>
        <time>2021-02-03T09:11:48Z</time>
      </trkpt>
      <trkpt lat="45.39703" lon="6.13143">
        <ele>1812.1</ele>
        <time>2021-02-03T09:11:49Z</time>
      </trkpt>
      <trkpt lat="45.39703" lon="6.13144">
        <ele>1812.1</ele>
        <time>2021-02-03T09:11:50Z</time>
      </trkpt>
      <trkpt lat="45.39702" lon="6.13145">
        <ele>1812.1</ele>
        <time>2021-02-03T09:11:51Z</time>
      </trkpt>
      <trkpt lat="45.39701" lon="6.13147">
        <ele>1812.2</ele>
        <time>2021-02-03T09:11:52Z</time>
      </trkpt>
      <trkpt lat="45.39701" lon="6.13147">
        <ele>1812.2</ele>
        <time>2021-02-03T09:11:53Z</time>
      </trkpt>
      <trkpt lat="45.39701" lon="6.13148">
        <ele>1812.2</ele>
        <time>2021-02-03T09:11:54Z</time>
      </trkpt>
      <trkpt lat="45.39701" lon="6.13149">
        <ele>1812.3</ele>
        <time>2021-02-03T09:11:55Z</time>
      </trkpt>
      <trkpt lat="45.39701" lon="6.1315">
        <ele>1812.3</ele>
        <time>2021-02-03T09:11:56Z</time>
      </trkpt>
      <trkpt lat="45.397" lon="6.13151">
        <ele>1812.3</ele>
        <time>2021-02-03T09:11:57Z</time>
      </trkpt>
      <trkpt lat="45.397" lon="6.13151">
        <ele>1812.4</ele>
        <time>2021-02-03T09:11:58Z</time>
      </trkpt>
      <trkpt lat="45.397" lon="6.13152">
        <ele>1812.4</ele>
        <time>2021-02-03T09:11:59Z</time>
      </trkpt>
      <trkpt lat="45.397" lon="6.13153">
        <ele>1812.4</ele>
        <time>2021-02-03T09:12:00Z</time>
      </trkpt>
      <trkpt lat="45.397" lon="6.13154">
        <ele>1812.4</ele>
        <time>2021-02-03T09:12:01Z</time>
      </trkpt>
      <trkpt lat="45.397" lon="6.13154">
        <ele>1812.5</ele>
        <time>2021-02-03T09:12:02Z</time>
      </trkpt>
      <trkpt lat="45.39701" lon="6.13155">
        <ele>1812.5</ele>
        <time>2021-02-03T09:12:03Z</time>
      </trkpt>
      <trkpt lat="45.39701" lon="6.13155">
        <ele>1812.5</ele>
        <time>2021-02-03T09:12:04Z</time>
      </trkpt>
      <trkpt lat="45.39701" lon="6.13155">
        <ele>1812.5</ele>
        <time>2021-02-03T09:12:05Z</time>
      </trkpt>
      <trkpt lat="45.39702" lon="6.13156">
        <ele>1812.5</ele>
        <time>2021-02-03T09:12:06Z</time>
      </trkpt>
      <trkpt lat="45.39702" lon="6.13156">
        <ele>1812.5</ele>
        <time>2021-02-03T09:12:07Z</time>
      </trkpt>
      <trkpt lat="45.39702" lon="6.13156">
        <ele>1812.6</ele>
        <time>2021-02-03T09:12:08Z</time>
      </trkpt>
      <trkpt lat="45.39704" lon="6.13157">
        <ele>1812.7</ele>
        <time>2021-02-03T09:12:09Z</time>
      </trkpt>
      <trkpt lat="45.39704" lon="6.13158">
        <ele>1812.7</ele>
        <time>2021-02-03T09:12:10Z</time>
      </trkpt>
      <trkpt lat="45.39705" lon="6.13159">
        <ele>1812.8</ele>
        <time>2021-02-03T09:12:11Z</time>
      </trkpt>
      <trkpt lat="45.39706" lon="6.1316">
        <ele>1812.8</ele>
        <time>2021-02-03T09:12:12Z</time>
      </trkpt>
      <trkpt lat="45.39707" lon="6.13161">
        <ele>1812.9</ele>
        <time>2021-02-03T09:12:18Z</time>
      </trkpt>
      <trkpt lat="45.39707" lon="6.13161">
        <ele>1812.9</ele>
        <time>2021-02-03T09:12:19Z</time>
      </trkpt>
      <trkpt lat="45.39708" lon="6.13162">
        <ele>1813</ele>
        <time>2021-02-03T09:12:20Z</time>
      </trkpt>
      <trkpt lat="45.39709" lon="6.13163">
        <ele>1813</ele>
        <time>2021-02-03T09:12:21Z</time>
      </trkpt>
      <trkpt lat="45.3971" lon="6.13164">
        <ele>1813</ele>
        <time>2021-02-03T09:12:22Z</time>
      </trkpt>
      <trkpt lat="45.3971" lon="6.13164">
        <ele>1813.1</ele>
        <time>2021-02-03T09:12:23Z</time>
      </trkpt>
      <trkpt lat="45.3971" lon="6.13165">
        <ele>1813.1</ele>
        <time>2021-02-03T09:12:24Z</time>
      </trkpt>
      <trkpt lat="45.3971" lon="6.13166">
        <ele>1813.1</ele>
        <time>2021-02-03T09:12:25Z</time>
      </trkpt>
      <trkpt lat="45.3971" lon="6.13167">
        <ele>1813.2</ele>
        <time>2021-02-03T09:12:26Z</time>
      </trkpt>
      <trkpt lat="45.3971" lon="6.13168">
        <ele>1813.2</ele>
        <time>2021-02-03T09:12:27Z</time>
      </trkpt>
      <trkpt lat="45.3971" lon="6.13169">
        <ele>1813.2</ele>
        <time>2021-02-03T09:12:28Z</time>
      </trkpt>
      <trkpt lat="45.39709" lon="6.1317">
        <ele>1813.3</ele>
        <time>2021-02-03T09:12:29Z</time>
      </trkpt>
      <trkpt lat="45.39709" lon="6.1317">
        <ele>1813.3</ele>
        <time>2021-02-03T09:12:30Z</time>
      </trkpt>
      <trkpt lat="45.39709" lon="6.13171">
        <ele>1813.3</ele>
        <time>2021-02-03T09:12:31Z</time>
      </trkpt>
      <trkpt lat="45.39708" lon="6.13172">
        <ele>1813.4</ele>
        <time>2021-02-03T09:12:32Z</time>
      </trkpt>
      <trkpt lat="45.39708" lon="6.13173">
        <ele>1813.4</ele>
        <time>2021-02-03T09:12:33Z</time>
      </trkpt>
      <trkpt lat="45.39707" lon="6.13173">
        <ele>1813.5</ele>
        <time>2021-02-03T09:12:34Z</time>
      </trkpt>
      <trkpt lat="45.39707" lon="6.13174">
        <ele>1813.5</ele>
        <time>2021-02-03T09:12:35Z</time>
      </trkpt>
      <trkpt lat="45.39706" lon="6.13175">
        <ele>1813.5</ele>
        <time>2021-02-03T09:12:36Z</time>
      </trkpt>
      <trkpt lat="45.39706" lon="6.13176">
        <ele>1813.6</ele>
        <time>2021-02-03T09:12:37Z</time>
      </trkpt>
      <trkpt lat="45.39706" lon="6.13176">
        <ele>1813.6</ele>
        <time>2021-02-03T09:12:38Z</time>
      </trkpt>
      <trkpt lat="45.39705" lon="6.13177">
        <ele>1813.6</ele>
        <time>2021-02-03T09:12:39Z</time>
      </trkpt>
      <trkpt lat="45.39705" lon="6.13178">
        <ele>1813.7</ele>
        <time>2021-02-03T09:12:40Z</time>
      </trkpt>
      <trkpt lat="45.39705" lon="6.13178">
        <ele>1813.7</ele>
        <time>2021-02-03T09:12:41Z</time>
      </trkpt>
      <trkpt lat="45.39705" lon="6.13179">
        <ele>1813.7</ele>
        <time>2021-02-03T09:12:42Z</time>
      </trkpt>
      <trkpt lat="45.39705" lon="6.1318">
        <ele>1813.8</ele>
        <time>2021-02-03T09:12:43Z</time>
      </trkpt>
      <trkpt lat="45.39705" lon="6.1318">
        <ele>1813.8</ele>
        <time>2021-02-03T09:12:44Z</time>
      </trkpt>
      <trkpt lat="45.39704" lon="6.13181">
        <ele>1813.8</ele>
        <time>2021-02-03T09:12:45Z</time>
      </trkpt>
      <trkpt lat="45.39704" lon="6.13182">
        <ele>1813.9</ele>
        <time>2021-02-03T09:12:46Z</time>
      </trkpt>
      <trkpt lat="45.39704" lon="6.13182">
        <ele>1813.9</ele>
        <time>2021-02-03T09:12:47Z</time>
      </trkpt>
      <trkpt lat="45.39704" lon="6.13183">
        <ele>1813.9</ele>
        <time>2021-02-03T09:12:48Z</time>
      </trkpt>
      <trkpt lat="45.39704" lon="6.13184">
        <ele>1814</ele>
        <time>2021-02-03T09:12:49Z</time>
      </trkpt>
      <trkpt lat="45.39704" lon="6.13185">
        <ele>1814</ele>
        <time>2021-02-03T09:12:50Z</time>
      </trkpt>
      <trkpt lat="45.39703" lon="6.13185">
        <ele>1814</ele>
        <time>2021-02-03T09:12:51Z</time>
      </trkpt>
      <trkpt lat="45.39703" lon="6.13186">
        <ele>1814.1</ele>
        <time>2021-02-03T09:12:52Z</time>
      </trkpt>
      <trkpt lat="45.39703" lon="6.13187">
        <ele>1814.1</ele>
        <time>2021-02-03T09:12:53Z</time>
      </trkpt>
      <trkpt lat="45.39703" lon="6.13188">
        <ele>1814.9</ele>
        <time>2021-02-03T09:12:54Z</time>
      </trkpt>
      <trkpt lat="45.39703" lon="6.13188">
        <ele>1815</ele>
        <time>2021-02-03T09:12:55Z</time>
      </trkpt>
      <trkpt lat="45.39703" lon="6.13189">
        <ele>1815</ele>
        <time>2021-02-03T09:12:56Z</time>
      </trkpt>
      <trkpt lat="45.39702" lon="6.1319">
        <ele>1815.1</ele>
        <time>2021-02-03T09:12:57Z</time>
      </trkpt>
      <trkpt lat="45.39702" lon="6.1319">
        <ele>1815.2</ele>
        <time>2021-02-03T09:12:58Z</time>
      </trkpt>
      <trkpt lat="45.39702" lon="6.13191">
        <ele>1815.2</ele>
        <time>2021-02-03T09:12:59Z</time>
      </trkpt>
      <trkpt lat="45.39702" lon="6.13192">
        <ele>1816</ele>
        <time>2021-02-03T09:13:00Z</time>
      </trkpt>
      <trkpt lat="45.39701" lon="6.13193">
        <ele>1816.1</ele>
        <time>2021-02-03T09:13:01Z</time>
      </trkpt>
      <trkpt lat="45.39701" lon="6.13193">
        <ele>1816.1</ele>
        <time>2021-02-03T09:13:02Z</time>
      </trkpt>
      <trkpt lat="45.397" lon="6.13194">
        <ele>1816.3</ele>
        <time>2021-02-03T09:13:03Z</time>
      </trkpt>
      <trkpt lat="45.397" lon="6.13195">
        <ele>1816.3</ele>
        <time>2021-02-03T09:13:04Z</time>
      </trkpt>
      <trkpt lat="45.39699" lon="6.13196">
        <ele>1817.1</ele>
        <time>2021-02-03T09:13:05Z</time>
      </trkpt>
      <trkpt lat="45.39698" lon="6.13197">
        <ele>1817.1</ele>
        <time>2021-02-03T09:13:06Z</time>
      </trkpt>
      <trkpt lat="45.39698" lon="6.13198">
        <ele>1817.2</ele>
        <time>2021-02-03T09:13:07Z</time>
      </trkpt>
      <trkpt lat="45.39697" lon="6.13198">
        <ele>1817.2</ele>
        <time>2021-02-03T09:13:08Z</time>
      </trkpt>
      <trkpt lat="45.39697" lon="6.13199">
        <ele>1817.3</ele>
        <time>2021-02-03T09:13:09Z</time>
      </trkpt>
      <trkpt lat="45.39696" lon="6.132">
        <ele>1817.3</ele>
        <time>2021-02-03T09:13:10Z</time>
      </trkpt>
      <trkpt lat="45.39695" lon="6.13201">
        <ele>1818</ele>
        <time>2021-02-03T09:13:11Z</time>
      </trkpt>
      <trkpt lat="45.39695" lon="6.13202">
        <ele>1818.1</ele>
        <time>2021-02-03T09:13:12Z</time>
      </trkpt>
      <trkpt lat="45.39694" lon="6.13203">
        <ele>1818</ele>
        <time>2021-02-03T09:13:13Z</time>
      </trkpt>
      <trkpt lat="45.39694" lon="6.13203">
        <ele>1818.1</ele>
        <time>2021-02-03T09:13:14Z</time>
      </trkpt>
      <trkpt lat="45.39693" lon="6.13204">
        <ele>1818.1</ele>
        <time>2021-02-03T09:19:22Z</time>
      </trkpt>
      <trkpt lat="45.39692" lon="6.13205">
        <ele>1818.7</ele>
        <time>2021-02-03T09:19:23Z</time>
      </trkpt>
      <trkpt lat="45.39692" lon="6.13206">
        <ele>1818.8</ele>
        <time>2021-02-03T09:19:24Z</time>
      </trkpt>
      <trkpt lat="45.39691" lon="6.13207">
        <ele>1818.7</ele>
        <time>2021-02-03T09:19:25Z</time>
      </trkpt>
      <trkpt lat="45.3969" lon="6.13207">
        <ele>1818.7</ele>
        <time>2021-02-03T09:19:26Z</time>
      </trkpt>
      <trkpt lat="45.3969" lon="6.13207">
        <ele>1818.8</ele>
        <time>2021-02-03T09:19:27Z</time>
      </trkpt>
      <trkpt lat="45.39689" lon="6.13208">
        <ele>1818.9</ele>
        <time>2021-02-03T09:19:28Z</time>
      </trkpt>
      <trkpt lat="45.39688" lon="6.13209">
        <ele>1818.9</ele>
        <time>2021-02-03T09:19:29Z</time>
      </trkpt>
      <trkpt lat="45.39687" lon="6.13209">
        <ele>1819.2</ele>
        <time>2021-02-03T09:19:30Z</time>
      </trkpt>
      <trkpt lat="45.39686" lon="6.1321">
        <ele>1819.3</ele>
        <time>2021-02-03T09:19:31Z</time>
      </trkpt>
      <trkpt lat="45.39686" lon="6.13211">
        <ele>1819.3</ele>
        <time>2021-02-03T09:19:32Z</time>
      </trkpt>
      <trkpt lat="45.39685" lon="6.13211">
        <ele>1819.1</ele>
        <time>2021-02-03T09:19:33Z</time>
      </trkpt>
      <trkpt lat="45.39684" lon="6.13212">
        <ele>1819.1</ele>
        <time>2021-02-03T09:19:34Z</time>
      </trkpt>
      <trkpt lat="45.39683" lon="6.13213">
        <ele>1819.2</ele>
        <time>2021-02-03T09:19:35Z</time>
      </trkpt>
      <trkpt lat="45.39682" lon="6.13214">
        <ele>1819.2</ele>
        <time>2021-02-03T09:19:36Z</time>
      </trkpt>
      <trkpt lat="45.39681" lon="6.13215">
        <ele>1819.2</ele>
        <time>2021-02-03T09:19:37Z</time>
      </trkpt>
      <trkpt lat="45.3968" lon="6.13215">
        <ele>1819.3</ele>
        <time>2021-02-03T09:19:38Z</time>
      </trkpt>
      <trkpt lat="45.3968" lon="6.13216">
        <ele>1819.3</ele>
        <time>2021-02-03T09:19:39Z</time>
      </trkpt>
      <trkpt lat="45.39679" lon="6.13217">
        <ele>1819.3</ele>
        <time>2021-02-03T09:19:40Z</time>
      </trkpt>
      <trkpt lat="45.39678" lon="6.13217">
        <ele>1819.3</ele>
        <time>2021-02-03T09:19:41Z</time>
      </trkpt>
      <trkpt lat="45.39678" lon="6.13218">
        <ele>1819.3</ele>
        <time>2021-02-03T09:19:42Z</time>
      </trkpt>
      <trkpt lat="45.39677" lon="6.13219">
        <ele>1819.4</ele>
        <time>2021-02-03T09:19:43Z</time>
      </trkpt>
      <trkpt lat="45.39676" lon="6.1322">
        <ele>1819.4</ele>
        <time>2021-02-03T09:19:44Z</time>
      </trkpt>
      <trkpt lat="45.39675" lon="6.1322">
        <ele>1819.4</ele>
        <time>2021-02-03T09:19:45Z</time>
      </trkpt>
      <trkpt lat="45.39675" lon="6.13221">
        <ele>1819.4</ele>
        <time>2021-02-03T09:19:46Z</time>
      </trkpt>
      <trkpt lat="45.39674" lon="6.13222">
        <ele>1819.4</ele>
        <time>2021-02-03T09:19:47Z</time>
      </trkpt>
      <trkpt lat="45.39673" lon="6.13222">
        <ele>1819.4</ele>
        <time>2021-02-03T09:19:48Z</time>
      </trkpt>
      <trkpt lat="45.39672" lon="6.13223">
        <ele>1819.5</ele>
        <time>2021-02-03T09:19:49Z</time>
      </trkpt>
      <trkpt lat="45.39672" lon="6.13224">
        <ele>1819.5</ele>
        <time>2021-02-03T09:19:50Z</time>
      </trkpt>
      <trkpt lat="45.39671" lon="6.13225">
        <ele>1819.5</ele>
        <time>2021-02-03T09:19:51Z</time>
      </trkpt>
      <trkpt lat="45.3967" lon="6.13225">
        <ele>1819.5</ele>
        <time>2021-02-03T09:19:52Z</time>
      </trkpt>
      <trkpt lat="45.3967" lon="6.13226">
        <ele>1819.5</ele>
        <time>2021-02-03T09:19:53Z</time>
      </trkpt>
      <trkpt lat="45.39669" lon="6.13226">
        <ele>1819.5</ele>
        <time>2021-02-03T09:19:54Z</time>
      </trkpt>
      <trkpt lat="45.39668" lon="6.13227">
        <ele>1819.6</ele>
        <time>2021-02-03T09:19:55Z</time>
      </trkpt>
      <trkpt lat="45.39668" lon="6.13228">
        <ele>1819.6</ele>
        <time>2021-02-03T09:19:56Z</time>
      </trkpt>
      <trkpt lat="45.39667" lon="6.13229">
        <ele>1819.6</ele>
        <time>2021-02-03T09:19:57Z</time>
      </trkpt>
      <trkpt lat="45.39666" lon="6.13229">
        <ele>1819.6</ele>
        <time>2021-02-03T09:19:58Z</time>
      </trkpt>
      <trkpt lat="45.39665" lon="6.1323">
        <ele>1819.6</ele>
        <time>2021-02-03T09:19:59Z</time>
      </trkpt>
      <trkpt lat="45.39664" lon="6.13231">
        <ele>1819.7</ele>
        <time>2021-02-03T09:20:00Z</time>
      </trkpt>
      <trkpt lat="45.39664" lon="6.13232">
        <ele>1819.7</ele>
        <time>2021-02-03T09:20:01Z</time>
      </trkpt>
      <trkpt lat="45.39663" lon="6.13232">
        <ele>1819.7</ele>
        <time>2021-02-03T09:20:02Z</time>
      </trkpt>
      <trkpt lat="45.39662" lon="6.13233">
        <ele>1819.8</ele>
        <time>2021-02-03T09:20:03Z</time>
      </trkpt>
      <trkpt lat="45.39661" lon="6.13234">
        <ele>1819.8</ele>
        <time>2021-02-03T09:20:04Z</time>
      </trkpt>
      <trkpt lat="45.39661" lon="6.13235">
        <ele>1819.8</ele>
        <time>2021-02-03T09:20:05Z</time>
      </trkpt>
      <trkpt lat="45.3966" lon="6.13236">
        <ele>1819.8</ele>
        <time>2021-02-03T09:20:06Z</time>
      </trkpt>
      <trkpt lat="45.39659" lon="6.13237">
        <ele>1819.9</ele>
        <time>2021-02-03T09:20:07Z</time>
      </trkpt>
      <trkpt lat="45.39659" lon="6.13238">
        <ele>1819.9</ele>
        <time>2021-02-03T09:20:08Z</time>
      </trkpt>
      <trkpt lat="45.39658" lon="6.13239">
        <ele>1819.9</ele>
        <time>2021-02-03T09:20:09Z</time>
      </trkpt>
      <trkpt lat="45.39657" lon="6.13239">
        <ele>1820</ele>
        <time>2021-02-03T09:20:10Z</time>
      </trkpt>
      <trkpt lat="45.39657" lon="6.1324">
        <ele>1820</ele>
        <time>2021-02-03T09:20:11Z</time>
      </trkpt>
      <trkpt lat="45.39656" lon="6.13241">
        <ele>1820</ele>
        <time>2021-02-03T09:20:12Z</time>
      </trkpt>
      <trkpt lat="45.39656" lon="6.13242">
        <ele>1820.1</ele>
        <time>2021-02-03T09:20:13Z</time>
      </trkpt>
      <trkpt lat="45.39655" lon="6.13243">
        <ele>1820.1</ele>
        <time>2021-02-03T09:20:14Z</time>
      </trkpt>
      <trkpt lat="45.39654" lon="6.13244">
        <ele>1820.1</ele>
        <time>2021-02-03T09:20:15Z</time>
      </trkpt>
      <trkpt lat="45.39654" lon="6.13245">
        <ele>1820.2</ele>
        <time>2021-02-03T09:20:16Z</time>
      </trkpt>
      <trkpt lat="45.39653" lon="6.13245">
        <ele>1820.2</ele>
        <time>2021-02-03T09:20:17Z</time>
      </trkpt>
      <trkpt lat="45.39653" lon="6.13246">
        <ele>1820.2</ele>
        <time>2021-02-03T09:20:18Z</time>
      </trkpt>
      <trkpt lat="45.39652" lon="6.13247">
        <ele>1820.3</ele>
        <time>2021-02-03T09:20:19Z</time>
      </trkpt>
      <trkpt lat="45.39652" lon="6.13248">
        <ele>1820.3</ele>
        <time>2021-02-03T09:20:20Z</time>
      </trkpt>
      <trkpt lat="45.39651" lon="6.13249">
        <ele>1820.3</ele>
        <time>2021-02-03T09:20:21Z</time>
      </trkpt>
      <trkpt lat="45.3965" lon="6.13249">
        <ele>1820.4</ele>
        <time>2021-02-03T09:20:22Z</time>
      </trkpt>
      <trkpt lat="45.3965" lon="6.1325">
        <ele>1820.4</ele>
        <time>2021-02-03T09:20:23Z</time>
      </trkpt>
      <trkpt lat="45.39649" lon="6.13251">
        <ele>1820.4</ele>
        <time>2021-02-03T09:20:24Z</time>
      </trkpt>
      <trkpt lat="45.39649" lon="6.13252">
        <ele>1820.4</ele>
        <time>2021-02-03T09:20:25Z</time>
      </trkpt>
      <trkpt lat="45.39648" lon="6.13253">
        <ele>1820.5</ele>
        <time>2021-02-03T09:20:26Z</time>
      </trkpt>
      <trkpt lat="45.39647" lon="6.13254">
        <ele>1820.5</ele>
        <time>2021-02-03T09:20:27Z</time>
      </trkpt>
      <trkpt lat="45.39647" lon="6.13254">
        <ele>1820.5</ele>
        <time>2021-02-03T09:20:28Z</time>
      </trkpt>
      <trkpt lat="45.39646" lon="6.13255">
        <ele>1820.6</ele>
        <time>2021-02-03T09:20:29Z</time>
      </trkpt>
      <trkpt lat="45.39646" lon="6.13256">
        <ele>1820.6</ele>
        <time>2021-02-03T09:20:30Z</time>
      </trkpt>
      <trkpt lat="45.39645" lon="6.13257">
        <ele>1820.6</ele>
        <time>2021-02-03T09:20:31Z</time>
      </trkpt>
      <trkpt lat="45.39644" lon="6.13258">
        <ele>1820.7</ele>
        <time>2021-02-03T09:20:32Z</time>
      </trkpt>
      <trkpt lat="45.39644" lon="6.13259">
        <ele>1820.7</ele>
        <time>2021-02-03T09:20:33Z</time>
      </trkpt>
      <trkpt lat="45.39643" lon="6.1326">
        <ele>1820.7</ele>
        <time>2021-02-03T09:20:34Z</time>
      </trkpt>
      <trkpt lat="45.39643" lon="6.13261">
        <ele>1820.8</ele>
        <time>2021-02-03T09:20:35Z</time>
      </trkpt>
      <trkpt lat="45.39642" lon="6.13262">
        <ele>1820.8</ele>
        <time>2021-02-03T09:20:36Z</time>
      </trkpt>
      <trkpt lat="45.39642" lon="6.13263">
        <ele>1820.8</ele>
        <time>2021-02-03T09:20:37Z</time>
      </trkpt>
      <trkpt lat="45.39641" lon="6.13264">
        <ele>1820.9</ele>
        <time>2021-02-03T09:20:38Z</time>
      </trkpt>
      <trkpt lat="45.39641" lon="6.13265">
        <ele>1820.9</ele>
        <time>2021-02-03T09:20:39Z</time>
      </trkpt>
      <trkpt lat="45.3964" lon="6.13266">
        <ele>1820.9</ele>
        <time>2021-02-03T09:20:40Z</time>
      </trkpt>
      <trkpt lat="45.39639" lon="6.13267">
        <ele>1821</ele>
        <time>2021-02-03T09:20:41Z</time>
      </trkpt>
      <trkpt lat="45.39639" lon="6.13268">
        <ele>1821</ele>
        <time>2021-02-03T09:20:42Z</time>
      </trkpt>
      <trkpt lat="45.39638" lon="6.13269">
        <ele>1821</ele>
        <time>2021-02-03T09:20:43Z</time>
      </trkpt>
      <trkpt lat="45.39637" lon="6.1327">
        <ele>1821.1</ele>
        <time>2021-02-03T09:20:44Z</time>
      </trkpt>
      <trkpt lat="45.39637" lon="6.13271">
        <ele>1821.1</ele>
        <time>2021-02-03T09:20:45Z</time>
      </trkpt>
      <trkpt lat="45.39636" lon="6.13272">
        <ele>1821.1</ele>
        <time>2021-02-03T09:20:46Z</time>
      </trkpt>
      <trkpt lat="45.39636" lon="6.13273">
        <ele>1821.2</ele>
        <time>2021-02-03T09:20:47Z</time>
      </trkpt>
      <trkpt lat="45.39635" lon="6.13274">
        <ele>1821.2</ele>
        <time>2021-02-03T09:20:48Z</time>
      </trkpt>
      <trkpt lat="45.39634" lon="6.13275">
        <ele>1821.3</ele>
        <time>2021-02-03T09:20:49Z</time>
      </trkpt>
      <trkpt lat="45.39634" lon="6.13276">
        <ele>1821.3</ele>
        <time>2021-02-03T09:20:50Z</time>
      </trkpt>
      <trkpt lat="45.39633" lon="6.13277">
        <ele>1821.3</ele>
        <time>2021-02-03T09:20:51Z</time>
      </trkpt>
      <trkpt lat="45.39632" lon="6.13278">
        <ele>1821.4</ele>
        <time>2021-02-03T09:20:52Z</time>
      </trkpt>
      <trkpt lat="45.39632" lon="6.13279">
        <ele>1821.4</ele>
        <time>2021-02-03T09:20:53Z</time>
      </trkpt>
      <trkpt lat="45.39631" lon="6.1328">
        <ele>1821.5</ele>
        <time>2021-02-03T09:20:54Z</time>
      </trkpt>
      <trkpt lat="45.3963" lon="6.13281">
        <ele>1821.5</ele>
        <time>2021-02-03T09:20:55Z</time>
      </trkpt>
      <trkpt lat="45.3963" lon="6.13282">
        <ele>1821.6</ele>
        <time>2021-02-03T09:20:56Z</time>
      </trkpt>
      <trkpt lat="45.3963" lon="6.13283">
        <ele>1821.6</ele>
        <time>2021-02-03T09:20:57Z</time>
      </trkpt>
      <trkpt lat="45.39629" lon="6.13284">
        <ele>1821.7</ele>
        <time>2021-02-03T09:20:58Z</time>
      </trkpt>
      <trkpt lat="45.39628" lon="6.13285">
        <ele>1821.7</ele>
        <time>2021-02-03T09:20:59Z</time>
      </trkpt>
      <trkpt lat="45.39628" lon="6.13286">
        <ele>1821.7</ele>
        <time>2021-02-03T09:21:00Z</time>
      </trkpt>
      <trkpt lat="45.39628" lon="6.13287">
        <ele>1821.8</ele>
        <time>2021-02-03T09:21:01Z</time>
      </trkpt>
      <trkpt lat="45.39627" lon="6.13287">
        <ele>1821.8</ele>
        <time>2021-02-03T09:21:02Z</time>
      </trkpt>
      <trkpt lat="45.39627" lon="6.13288">
        <ele>1821.9</ele>
        <time>2021-02-03T09:21:03Z</time>
      </trkpt>
      <trkpt lat="45.39626" lon="6.13289">
        <ele>1821.9</ele>
        <time>2021-02-03T09:21:04Z</time>
      </trkpt>
      <trkpt lat="45.39626" lon="6.1329">
        <ele>1821.9</ele>
        <time>2021-02-03T09:21:05Z</time>
      </trkpt>
      <trkpt lat="45.39625" lon="6.13291">
        <ele>1822</ele>
        <time>2021-02-03T09:21:06Z</time>
      </trkpt>
      <trkpt lat="45.39624" lon="6.13292">
        <ele>1822</ele>
        <time>2021-02-03T09:21:07Z</time>
      </trkpt>
      <trkpt lat="45.39624" lon="6.13293">
        <ele>1822.1</ele>
        <time>2021-02-03T09:21:08Z</time>
      </trkpt>
      <trkpt lat="45.39623" lon="6.13294">
        <ele>1822.2</ele>
        <time>2021-02-03T09:21:09Z</time>
      </trkpt>
      <trkpt lat="45.39622" lon="6.13294">
        <ele>1822.2</ele>
        <time>2021-02-03T09:21:10Z</time>
      </trkpt>
      <trkpt lat="45.39622" lon="6.13295">
        <ele>1822.3</ele>
        <time>2021-02-03T09:21:11Z</time>
      </trkpt>
      <trkpt lat="45.39621" lon="6.13296">
        <ele>1822.3</ele>
        <time>2021-02-03T09:21:12Z</time>
      </trkpt>
      <trkpt lat="45.3962" lon="6.13297">
        <ele>1822.4</ele>
        <time>2021-02-03T09:21:13Z</time>
      </trkpt>
      <trkpt lat="45.3962" lon="6.13298">
        <ele>1822.4</ele>
        <time>2021-02-03T09:21:14Z</time>
      </trkpt>
      <trkpt lat="45.39619" lon="6.13299">
        <ele>1822.5</ele>
        <time>2021-02-03T09:21:15Z</time>
      </trkpt>
      <trkpt lat="45.39618" lon="6.133">
        <ele>1822.5</ele>
        <time>2021-02-03T09:21:16Z</time>
      </trkpt>
      <trkpt lat="45.39618" lon="6.13301">
        <ele>1822.6</ele>
        <time>2021-02-03T09:21:17Z</time>
      </trkpt>
      <trkpt lat="45.39617" lon="6.13302">
        <ele>1822.7</ele>
        <time>2021-02-03T09:21:18Z</time>
      </trkpt>
      <trkpt lat="45.39616" lon="6.13303">
        <ele>1822.7</ele>
        <time>2021-02-03T09:21:19Z</time>
      </trkpt>
      <trkpt lat="45.39616" lon="6.13304">
        <ele>1822.8</ele>
        <time>2021-02-03T09:21:20Z</time>
      </trkpt>
      <trkpt lat="45.39615" lon="6.13304">
        <ele>1822.8</ele>
        <time>2021-02-03T09:21:21Z</time>
      </trkpt>
      <trkpt lat="45.39615" lon="6.13305">
        <ele>1822.9</ele>
        <time>2021-02-03T09:21:22Z</time>
      </trkpt>
      <trkpt lat="45.39614" lon="6.13306">
        <ele>1822.9</ele>
        <time>2021-02-03T09:21:23Z</time>
      </trkpt>
      <trkpt lat="45.39613" lon="6.13307">
        <ele>1823</ele>
        <time>2021-02-03T09:21:24Z</time>
      </trkpt>
      <trkpt lat="45.39613" lon="6.13308">
        <ele>1823</ele>
        <time>2021-02-03T09:21:25Z</time>
      </trkpt>
      <trkpt lat="45.39612" lon="6.1331">
        <ele>1823.1</ele>
        <time>2021-02-03T09:21:26Z</time>
      </trkpt>
      <trkpt lat="45.39612" lon="6.13311">
        <ele>1823.2</ele>
        <time>2021-02-03T09:21:27Z</time>
      </trkpt>
      <trkpt lat="45.39611" lon="6.13312">
        <ele>1823.2</ele>
        <time>2021-02-03T09:21:28Z</time>
      </trkpt>
      <trkpt lat="45.39611" lon="6.13313">
        <ele>1823.3</ele>
        <time>2021-02-03T09:21:29Z</time>
      </trkpt>
      <trkpt lat="45.3961" lon="6.13314">
        <ele>1823.3</ele>
        <time>2021-02-03T09:21:30Z</time>
      </trkpt>
      <trkpt lat="45.3961" lon="6.13315">
        <ele>1823.4</ele>
        <time>2021-02-03T09:21:31Z</time>
      </trkpt>
      <trkpt lat="45.3961" lon="6.13316">
        <ele>1823.4</ele>
        <time>2021-02-03T09:21:32Z</time>
      </trkpt>
      <trkpt lat="45.39609" lon="6.13317">
        <ele>1823.5</ele>
        <time>2021-02-03T09:21:33Z</time>
      </trkpt>
      <trkpt lat="45.39609" lon="6.13318">
        <ele>1823.5</ele>
        <time>2021-02-03T09:21:34Z</time>
      </trkpt>
      <trkpt lat="45.39608" lon="6.13319">
        <ele>1823.6</ele>
        <time>2021-02-03T09:21:35Z</time>
      </trkpt>
      <trkpt lat="45.39608" lon="6.1332">
        <ele>1823.6</ele>
        <time>2021-02-03T09:21:36Z</time>
      </trkpt>
      <trkpt lat="45.39607" lon="6.13321">
        <ele>1823.7</ele>
        <time>2021-02-03T09:21:37Z</time>
      </trkpt>
      <trkpt lat="45.39607" lon="6.13322">
        <ele>1823.7</ele>
        <time>2021-02-03T09:21:38Z</time>
      </trkpt>
      <trkpt lat="45.39607" lon="6.13323">
        <ele>1823.7</ele>
        <time>2021-02-03T09:21:39Z</time>
      </trkpt>
      <trkpt lat="45.39606" lon="6.13324">
        <ele>1823.8</ele>
        <time>2021-02-03T09:21:40Z</time>
      </trkpt>
      <trkpt lat="45.39606" lon="6.13325">
        <ele>1823.9</ele>
        <time>2021-02-03T09:21:41Z</time>
      </trkpt>
      <trkpt lat="45.39605" lon="6.13326">
        <ele>1823.9</ele>
        <time>2021-02-03T09:21:42Z</time>
      </trkpt>
      <trkpt lat="45.39605" lon="6.13327">
        <ele>1823.9</ele>
        <time>2021-02-03T09:21:43Z</time>
      </trkpt>
      <trkpt lat="45.39604" lon="6.13328">
        <ele>1824</ele>
        <time>2021-02-03T09:21:44Z</time>
      </trkpt>
      <trkpt lat="45.39604" lon="6.1333">
        <ele>1824.1</ele>
        <time>2021-02-03T09:21:45Z</time>
      </trkpt>
      <trkpt lat="45.39603" lon="6.13331">
        <ele>1824.1</ele>
        <time>2021-02-03T09:21:46Z</time>
      </trkpt>
      <trkpt lat="45.39603" lon="6.13332">
        <ele>1824.2</ele>
        <time>2021-02-03T09:21:47Z</time>
      </trkpt>
      <trkpt lat="45.39602" lon="6.13333">
        <ele>1824.2</ele>
        <time>2021-02-03T09:21:48Z</time>
      </trkpt>
      <trkpt lat="45.39602" lon="6.13334">
        <ele>1824.3</ele>
        <time>2021-02-03T09:21:49Z</time>
      </trkpt>
      <trkpt lat="45.39601" lon="6.13335">
        <ele>1824.3</ele>
        <time>2021-02-03T09:21:50Z</time>
      </trkpt>
      <trkpt lat="45.39601" lon="6.13336">
        <ele>1824.3</ele>
        <time>2021-02-03T09:21:51Z</time>
      </trkpt>
      <trkpt lat="45.396" lon="6.13337">
        <ele>1824.4</ele>
        <time>2021-02-03T09:21:52Z</time>
      </trkpt>
      <trkpt lat="45.396" lon="6.13338">
        <ele>1824.5</ele>
        <time>2021-02-03T09:21:53Z</time>
      </trkpt>
      <trkpt lat="45.39599" lon="6.13339">
        <ele>1824.5</ele>
        <time>2021-02-03T09:21:54Z</time>
      </trkpt>
      <trkpt lat="45.39599" lon="6.1334">
        <ele>1824.6</ele>
        <time>2021-02-03T09:21:55Z</time>
      </trkpt>
      <trkpt lat="45.39598" lon="6.13341">
        <ele>1824.6</ele>
        <time>2021-02-03T09:21:56Z</time>
      </trkpt>
      <trkpt lat="45.39598" lon="6.13342">
        <ele>1824.7</ele>
        <time>2021-02-03T09:21:57Z</time>
      </trkpt>
      <trkpt lat="45.39597" lon="6.13343">
        <ele>1824.7</ele>
        <time>2021-02-03T09:21:58Z</time>
      </trkpt>
      <trkpt lat="45.39597" lon="6.13344">
        <ele>1824.8</ele>
        <time>2021-02-03T09:21:59Z</time>
      </trkpt>
      <trkpt lat="45.39596" lon="6.13345">
        <ele>1824.8</ele>
        <time>2021-02-03T09:22:00Z</time>
      </trkpt>
      <trkpt lat="45.39596" lon="6.13346">
        <ele>1824.9</ele>
        <time>2021-02-03T09:22:01Z</time>
      </trkpt>
      <trkpt lat="45.39595" lon="6.13347">
        <ele>1824.9</ele>
        <time>2021-02-03T09:22:02Z</time>
      </trkpt>
      <trkpt lat="45.39595" lon="6.13348">
        <ele>1825</ele>
        <time>2021-02-03T09:22:03Z</time>
      </trkpt>
      <trkpt lat="45.39594" lon="6.13349">
        <ele>1825</ele>
        <time>2021-02-03T09:22:04Z</time>
      </trkpt>
      <trkpt lat="45.39594" lon="6.1335">
        <ele>1825.1</ele>
        <time>2021-02-03T09:22:05Z</time>
      </trkpt>
      <trkpt lat="45.39594" lon="6.13351">
        <ele>1825.1</ele>
        <time>2021-02-03T09:22:06Z</time>
      </trkpt>
      <trkpt lat="45.39593" lon="6.13352">
        <ele>1825.2</ele>
        <time>2021-02-03T09:22:07Z</time>
      </trkpt>
      <trkpt lat="45.39593" lon="6.13353">
        <ele>1825.2</ele>
        <time>2021-02-03T09:22:08Z</time>
      </trkpt>
      <trkpt lat="45.39592" lon="6.13354">
        <ele>1825.3</ele>
        <time>2021-02-03T09:22:09Z</time>
      </trkpt>
      <trkpt lat="45.39592" lon="6.13355">
        <ele>1825.3</ele>
        <time>2021-02-03T09:22:10Z</time>
      </trkpt>
      <trkpt lat="45.39592" lon="6.13356">
        <ele>1825.4</ele>
        <time>2021-02-03T09:22:11Z</time>
      </trkpt>
      <trkpt lat="45.39591" lon="6.13357">
        <ele>1825.5</ele>
        <time>2021-02-03T09:22:12Z</time>
      </trkpt>
      <trkpt lat="45.39591" lon="6.13358">
        <ele>1825.5</ele>
        <time>2021-02-03T09:22:13Z</time>
      </trkpt>
      <trkpt lat="45.39591" lon="6.13359">
        <ele>1825.5</ele>
        <time>2021-02-03T09:22:14Z</time>
      </trkpt>
      <trkpt lat="45.3959" lon="6.1336">
        <ele>1825.6</ele>
        <time>2021-02-03T09:22:15Z</time>
      </trkpt>
      <trkpt lat="45.39589" lon="6.13361">
        <ele>1825.7</ele>
        <time>2021-02-03T09:22:16Z</time>
      </trkpt>
      <trkpt lat="45.39589" lon="6.13361">
        <ele>1825.7</ele>
        <time>2021-02-03T09:22:17Z</time>
      </trkpt>
      <trkpt lat="45.39588" lon="6.13362">
        <ele>1825.8</ele>
        <time>2021-02-03T09:22:18Z</time>
      </trkpt>
      <trkpt lat="45.39588" lon="6.13363">
        <ele>1825.9</ele>
        <time>2021-02-03T09:22:19Z</time>
      </trkpt>
      <trkpt lat="45.39587" lon="6.13364">
        <ele>1825.9</ele>
        <time>2021-02-03T09:22:20Z</time>
      </trkpt>
      <trkpt lat="45.39587" lon="6.13365">
        <ele>1826</ele>
        <time>2021-02-03T09:22:21Z</time>
      </trkpt>
      <trkpt lat="45.39586" lon="6.13366">
        <ele>1826</ele>
        <time>2021-02-03T09:22:22Z</time>
      </trkpt>
      <trkpt lat="45.39586" lon="6.13367">
        <ele>1826.1</ele>
        <time>2021-02-03T09:22:23Z</time>
      </trkpt>
      <trkpt lat="45.39585" lon="6.13368">
        <ele>1826.2</ele>
        <time>2021-02-03T09:22:24Z</time>
      </trkpt>
      <trkpt lat="45.39585" lon="6.13369">
        <ele>1826.3</ele>
        <time>2021-02-03T09:22:25Z</time>
      </trkpt>
      <trkpt lat="45.39584" lon="6.1337">
        <ele>1826.3</ele>
        <time>2021-02-03T09:22:26Z</time>
      </trkpt>
      <trkpt lat="45.39584" lon="6.13371">
        <ele>1826.4</ele>
        <time>2021-02-03T09:22:27Z</time>
      </trkpt>
      <trkpt lat="45.39583" lon="6.13372">
        <ele>1826.4</ele>
        <time>2021-02-03T09:22:28Z</time>
      </trkpt>
      <trkpt lat="45.39583" lon="6.13373">
        <ele>1826.5</ele>
        <time>2021-02-03T09:22:29Z</time>
      </trkpt>
      <trkpt lat="45.39582" lon="6.13374">
        <ele>1826.6</ele>
        <time>2021-02-03T09:22:30Z</time>
      </trkpt>
      <trkpt lat="45.39582" lon="6.13375">
        <ele>1826.6</ele>
        <time>2021-02-03T09:22:31Z</time>
      </trkpt>
      <trkpt lat="45.39581" lon="6.13376">
        <ele>1826.7</ele>
        <time>2021-02-03T09:22:32Z</time>
      </trkpt>
      <trkpt lat="45.39581" lon="6.13377">
        <ele>1826.8</ele>
        <time>2021-02-03T09:22:33Z</time>
      </trkpt>
      <trkpt lat="45.3958" lon="6.13378">
        <ele>1826.8</ele>
        <time>2021-02-03T09:22:34Z</time>
      </trkpt>
      <trkpt lat="45.39579" lon="6.13379">
        <ele>1826.9</ele>
        <time>2021-02-03T09:22:35Z</time>
      </trkpt>
      <trkpt lat="45.39579" lon="6.1338">
        <ele>1827</ele>
        <time>2021-02-03T09:22:36Z</time>
      </trkpt>
      <trkpt lat="45.39578" lon="6.13381">
        <ele>1827</ele>
        <time>2021-02-03T09:22:37Z</time>
      </trkpt>
      <trkpt lat="45.39577" lon="6.13382">
        <ele>1827.1</ele>
        <time>2021-02-03T09:22:38Z</time>
      </trkpt>
      <trkpt lat="45.39577" lon="6.13383">
        <ele>1827.1</ele>
        <time>2021-02-03T09:22:39Z</time>
      </trkpt>
      <trkpt lat="45.39576" lon="6.13384">
        <ele>1827.2</ele>
        <time>2021-02-03T09:22:40Z</time>
      </trkpt>
      <trkpt lat="45.39576" lon="6.13384">
        <ele>1827.3</ele>
        <time>2021-02-03T09:22:41Z</time>
      </trkpt>
      <trkpt lat="45.39575" lon="6.13385">
        <ele>1827.3</ele>
        <time>2021-02-03T09:22:42Z</time>
      </trkpt>
      <trkpt lat="45.39575" lon="6.13386">
        <ele>1827.4</ele>
        <time>2021-02-03T09:22:43Z</time>
      </trkpt>
      <trkpt lat="45.39575" lon="6.13387">
        <ele>1827.4</ele>
        <time>2021-02-03T09:22:44Z</time>
      </trkpt>
      <trkpt lat="45.39574" lon="6.13388">
        <ele>1827.5</ele>
        <time>2021-02-03T09:22:45Z</time>
      </trkpt>
      <trkpt lat="45.39574" lon="6.13389">
        <ele>1827.5</ele>
        <time>2021-02-03T09:22:46Z</time>
      </trkpt>
      <trkpt lat="45.39573" lon="6.1339">
        <ele>1827.6</ele>
        <time>2021-02-03T09:22:47Z</time>
      </trkpt>
      <trkpt lat="45.39573" lon="6.13391">
        <ele>1827.7</ele>
        <time>2021-02-03T09:22:48Z</time>
      </trkpt>
      <trkpt lat="45.39573" lon="6.13392">
        <ele>1827.7</ele>
        <time>2021-02-03T09:22:49Z</time>
      </trkpt>
      <trkpt lat="45.39572" lon="6.13392">
        <ele>1827.7</ele>
        <time>2021-02-03T09:22:50Z</time>
      </trkpt>
      <trkpt lat="45.39572" lon="6.13393">
        <ele>1827.8</ele>
        <time>2021-02-03T09:22:51Z</time>
      </trkpt>
      <trkpt lat="45.39571" lon="6.13394">
        <ele>1827.8</ele>
        <time>2021-02-03T09:22:52Z</time>
      </trkpt>
      <trkpt lat="45.39571" lon="6.13395">
        <ele>1827.9</ele>
        <time>2021-02-03T09:22:53Z</time>
      </trkpt>
      <trkpt lat="45.3957" lon="6.13396">
        <ele>1828</ele>
        <time>2021-02-03T09:22:54Z</time>
      </trkpt>
      <trkpt lat="45.39569" lon="6.13396">
        <ele>1828</ele>
        <time>2021-02-03T09:22:55Z</time>
      </trkpt>
      <trkpt lat="45.39569" lon="6.13397">
        <ele>1828.1</ele>
        <time>2021-02-03T09:22:56Z</time>
      </trkpt>
      <trkpt lat="45.39568" lon="6.13398">
        <ele>1828.1</ele>
        <time>2021-02-03T09:22:57Z</time>
      </trkpt>
      <trkpt lat="45.39568" lon="6.13399">
        <ele>1828.2</ele>
        <time>2021-02-03T09:22:58Z</time>
      </trkpt>
      <trkpt lat="45.39567" lon="6.134">
        <ele>1828.3</ele>
        <time>2021-02-03T09:22:59Z</time>
      </trkpt>
      <trkpt lat="45.39566" lon="6.13401">
        <ele>1828.3</ele>
        <time>2021-02-03T09:23:00Z</time>
      </trkpt>
      <trkpt lat="45.39566" lon="6.13402">
        <ele>1828.4</ele>
        <time>2021-02-03T09:23:01Z</time>
      </trkpt>
      <trkpt lat="45.39565" lon="6.13402">
        <ele>1828.4</ele>
        <time>2021-02-03T09:23:02Z</time>
      </trkpt>
      <trkpt lat="45.39564" lon="6.13403">
        <ele>1828.5</ele>
        <time>2021-02-03T09:23:03Z</time>
      </trkpt>
      <trkpt lat="45.39563" lon="6.13404">
        <ele>1828.6</ele>
        <time>2021-02-03T09:23:04Z</time>
      </trkpt>
      <trkpt lat="45.39563" lon="6.13405">
        <ele>1828.6</ele>
        <time>2021-02-03T09:23:05Z</time>
      </trkpt>
      <trkpt lat="45.39562" lon="6.13406">
        <ele>1828.7</ele>
        <time>2021-02-03T09:23:06Z</time>
      </trkpt>
      <trkpt lat="45.39561" lon="6.13406">
        <ele>1828.8</ele>
        <time>2021-02-03T09:23:07Z</time>
      </trkpt>
      <trkpt lat="45.3956" lon="6.13407">
        <ele>1828.8</ele>
        <time>2021-02-03T09:23:08Z</time>
      </trkpt>
      <trkpt lat="45.39559" lon="6.13408">
        <ele>1828.9</ele>
        <time>2021-02-03T09:23:09Z</time>
      </trkpt>
      <trkpt lat="45.39559" lon="6.13408">
        <ele>1828.9</ele>
        <time>2021-02-03T09:23:10Z</time>
      </trkpt>
      <trkpt lat="45.39558" lon="6.13409">
        <ele>1829</ele>
        <time>2021-02-03T09:23:11Z</time>
      </trkpt>
      <trkpt lat="45.39557" lon="6.1341">
        <ele>1829.1</ele>
        <time>2021-02-03T09:23:12Z</time>
      </trkpt>
      <trkpt lat="45.39556" lon="6.1341">
        <ele>1829.1</ele>
        <time>2021-02-03T09:23:13Z</time>
      </trkpt>
      <trkpt lat="45.39556" lon="6.13411">
        <ele>1829.2</ele>
        <time>2021-02-03T09:23:14Z</time>
      </trkpt>
      <trkpt lat="45.39555" lon="6.13412">
        <ele>1829.2</ele>
        <time>2021-02-03T09:23:15Z</time>
      </trkpt>
      <trkpt lat="45.39554" lon="6.13412">
        <ele>1829.3</ele>
        <time>2021-02-03T09:23:16Z</time>
      </trkpt>
      <trkpt lat="45.39553" lon="6.13413">
        <ele>1829.3</ele>
        <time>2021-02-03T09:23:17Z</time>
      </trkpt>
      <trkpt lat="45.39553" lon="6.13414">
        <ele>1829.4</ele>
        <time>2021-02-03T09:23:18Z</time>
      </trkpt>
      <trkpt lat="45.39552" lon="6.13414">
        <ele>1829.5</ele>
        <time>2021-02-03T09:23:19Z</time>
      </trkpt>
      <trkpt lat="45.39551" lon="6.13415">
        <ele>1829.5</ele>
        <time>2021-02-03T09:23:20Z</time>
      </trkpt>
      <trkpt lat="45.3955" lon="6.13416">
        <ele>1829.6</ele>
        <time>2021-02-03T09:23:21Z</time>
      </trkpt>
      <trkpt lat="45.39549" lon="6.13417">
        <ele>1829.7</ele>
        <time>2021-02-03T09:23:22Z</time>
      </trkpt>
      <trkpt lat="45.39549" lon="6.13417">
        <ele>1829.7</ele>
        <time>2021-02-03T09:23:23Z</time>
      </trkpt>
      <trkpt lat="45.39548" lon="6.13418">
        <ele>1829.8</ele>
        <time>2021-02-03T09:23:24Z</time>
      </trkpt>
      <trkpt lat="45.39547" lon="6.13419">
        <ele>1829.8</ele>
        <time>2021-02-03T09:23:25Z</time>
      </trkpt>
      <trkpt lat="45.39546" lon="6.13419">
        <ele>1829.9</ele>
        <time>2021-02-03T09:23:26Z</time>
      </trkpt>
      <trkpt lat="45.39546" lon="6.1342">
        <ele>1830</ele>
        <time>2021-02-03T09:23:27Z</time>
      </trkpt>
      <trkpt lat="45.39545" lon="6.13421">
        <ele>1830</ele>
        <time>2021-02-03T09:23:28Z</time>
      </trkpt>
      <trkpt lat="45.39544" lon="6.13421">
        <ele>1830.1</ele>
        <time>2021-02-03T09:23:29Z</time>
      </trkpt>
      <trkpt lat="45.39543" lon="6.13422">
        <ele>1830.1</ele>
        <time>2021-02-03T09:23:30Z</time>
      </trkpt>
      <trkpt lat="45.39543" lon="6.13423">
        <ele>1830.2</ele>
        <time>2021-02-03T09:23:31Z</time>
      </trkpt>
      <trkpt lat="45.39542" lon="6.13424">
        <ele>1830.3</ele>
        <time>2021-02-03T09:23:32Z</time>
      </trkpt>
      <trkpt lat="45.39541" lon="6.13424">
        <ele>1830.3</ele>
        <time>2021-02-03T09:23:33Z</time>
      </trkpt>
      <trkpt lat="45.39541" lon="6.13425">
        <ele>1830.4</ele>
        <time>2021-02-03T09:23:34Z</time>
      </trkpt>
      <trkpt lat="45.3954" lon="6.13426">
        <ele>1830.4</ele>
        <time>2021-02-03T09:23:35Z</time>
      </trkpt>
      <trkpt lat="45.3954" lon="6.13427">
        <ele>1830.5</ele>
        <time>2021-02-03T09:23:36Z</time>
      </trkpt>
      <trkpt lat="45.39539" lon="6.13428">
        <ele>1830.6</ele>
        <time>2021-02-03T09:23:37Z</time>
      </trkpt>
      <trkpt lat="45.39538" lon="6.13429">
        <ele>1830.6</ele>
        <time>2021-02-03T09:23:38Z</time>
      </trkpt>
      <trkpt lat="45.39538" lon="6.1343">
        <ele>1830.7</ele>
        <time>2021-02-03T09:23:39Z</time>
      </trkpt>
      <trkpt lat="45.39537" lon="6.13431">
        <ele>1830.7</ele>
        <time>2021-02-03T09:23:40Z</time>
      </trkpt>
      <trkpt lat="45.39536" lon="6.13432">
        <ele>1830.8</ele>
        <time>2021-02-03T09:23:41Z</time>
      </trkpt>
      <trkpt lat="45.39536" lon="6.13432">
        <ele>1830.9</ele>
        <time>2021-02-03T09:23:42Z</time>
      </trkpt>
      <trkpt lat="45.39535" lon="6.13433">
        <ele>1830.9</ele>
        <time>2021-02-03T09:23:43Z</time>
      </trkpt>
      <trkpt lat="45.39534" lon="6.13434">
        <ele>1831</ele>
        <time>2021-02-03T09:23:44Z</time>
      </trkpt>
      <trkpt lat="45.39533" lon="6.13434">
        <ele>1831</ele>
        <time>2021-02-03T09:23:45Z</time>
      </trkpt>
      <trkpt lat="45.39533" lon="6.13435">
        <ele>1831.1</ele>
        <time>2021-02-03T09:23:46Z</time>
      </trkpt>
      <trkpt lat="45.39532" lon="6.13436">
        <ele>1831.1</ele>
        <time>2021-02-03T09:23:47Z</time>
      </trkpt>
      <trkpt lat="45.39532" lon="6.13437">
        <ele>1831.2</ele>
        <time>2021-02-03T09:23:48Z</time>
      </trkpt>
      <trkpt lat="45.39531" lon="6.13438">
        <ele>1831.2</ele>
        <time>2021-02-03T09:23:49Z</time>
      </trkpt>
      <trkpt lat="45.3953" lon="6.13439">
        <ele>1831.3</ele>
        <time>2021-02-03T09:23:50Z</time>
      </trkpt>
      <trkpt lat="45.3953" lon="6.13439">
        <ele>1831.3</ele>
        <time>2021-02-03T09:23:51Z</time>
      </trkpt>
      <trkpt lat="45.39529" lon="6.1344">
        <ele>1831.4</ele>
        <time>2021-02-03T09:23:52Z</time>
      </trkpt>
      <trkpt lat="45.39528" lon="6.13441">
        <ele>1831.5</ele>
        <time>2021-02-03T09:23:53Z</time>
      </trkpt>
      <trkpt lat="45.39528" lon="6.13442">
        <ele>1831.5</ele>
        <time>2021-02-03T09:23:54Z</time>
      </trkpt>
      <trkpt lat="45.39527" lon="6.13443">
        <ele>1831.6</ele>
        <time>2021-02-03T09:23:55Z</time>
      </trkpt>
      <trkpt lat="45.39526" lon="6.13444">
        <ele>1831.6</ele>
        <time>2021-02-03T09:23:56Z</time>
      </trkpt>
      <trkpt lat="45.39526" lon="6.13445">
        <ele>1831.7</ele>
        <time>2021-02-03T09:23:57Z</time>
      </trkpt>
      <trkpt lat="45.39525" lon="6.13446">
        <ele>1831.7</ele>
        <time>2021-02-03T09:23:58Z</time>
      </trkpt>
      <trkpt lat="45.39524" lon="6.13446">
        <ele>1831.8</ele>
        <time>2021-02-03T09:23:59Z</time>
      </trkpt>
      <trkpt lat="45.39524" lon="6.13447">
        <ele>1831.8</ele>
        <time>2021-02-03T09:24:00Z</time>
      </trkpt>
      <trkpt lat="45.39523" lon="6.13448">
        <ele>1831.9</ele>
        <time>2021-02-03T09:24:01Z</time>
      </trkpt>
      <trkpt lat="45.39523" lon="6.13449">
        <ele>1831.9</ele>
        <time>2021-02-03T09:24:02Z</time>
      </trkpt>
      <trkpt lat="45.39522" lon="6.1345">
        <ele>1831.9</ele>
        <time>2021-02-03T09:24:03Z</time>
      </trkpt>
      <trkpt lat="45.39522" lon="6.13451">
        <ele>1832</ele>
        <time>2021-02-03T09:24:04Z</time>
      </trkpt>
      <trkpt lat="45.39521" lon="6.13452">
        <ele>1832</ele>
        <time>2021-02-03T09:24:05Z</time>
      </trkpt>
      <trkpt lat="45.39521" lon="6.13453">
        <ele>1832.1</ele>
        <time>2021-02-03T09:24:06Z</time>
      </trkpt>
      <trkpt lat="45.3952" lon="6.13454">
        <ele>1832.1</ele>
        <time>2021-02-03T09:24:07Z</time>
      </trkpt>
      <trkpt lat="45.3952" lon="6.13455">
        <ele>1832.2</ele>
        <time>2021-02-03T09:24:08Z</time>
      </trkpt>
      <trkpt lat="45.39519" lon="6.13456">
        <ele>1832.2</ele>
        <time>2021-02-03T09:24:09Z</time>
      </trkpt>
      <trkpt lat="45.39519" lon="6.13457">
        <ele>1832.3</ele>
        <time>2021-02-03T09:24:10Z</time>
      </trkpt>
      <trkpt lat="45.39518" lon="6.13458">
        <ele>1832.3</ele>
        <time>2021-02-03T09:24:11Z</time>
      </trkpt>
      <trkpt lat="45.39517" lon="6.13459">
        <ele>1832.4</ele>
        <time>2021-02-03T09:24:12Z</time>
      </trkpt>
      <trkpt lat="45.39516" lon="6.1346">
        <ele>1832.4</ele>
        <time>2021-02-03T09:24:13Z</time>
      </trkpt>
      <trkpt lat="45.39516" lon="6.13461">
        <ele>1832.5</ele>
        <time>2021-02-03T09:24:14Z</time>
      </trkpt>
      <trkpt lat="45.39515" lon="6.13462">
        <ele>1832.5</ele>
        <time>2021-02-03T09:24:15Z</time>
      </trkpt>
      <trkpt lat="45.39515" lon="6.13463">
        <ele>1832.6</ele>
        <time>2021-02-03T09:24:16Z</time>
      </trkpt>
      <trkpt lat="45.39514" lon="6.13464">
        <ele>1832.6</ele>
        <time>2021-02-03T09:24:17Z</time>
      </trkpt>
      <trkpt lat="45.39514" lon="6.13465">
        <ele>1832.6</ele>
        <time>2021-02-03T09:24:18Z</time>
      </trkpt>
      <trkpt lat="45.39513" lon="6.13465">
        <ele>1832.7</ele>
        <time>2021-02-03T09:24:19Z</time>
      </trkpt>
      <trkpt lat="45.39513" lon="6.13467">
        <ele>1832.7</ele>
        <time>2021-02-03T09:24:20Z</time>
      </trkpt>
      <trkpt lat="45.39512" lon="6.13468">
        <ele>1832.8</ele>
        <time>2021-02-03T09:24:21Z</time>
      </trkpt>
      <trkpt lat="45.39512" lon="6.13469">
        <ele>1832.8</ele>
        <time>2021-02-03T09:24:22Z</time>
      </trkpt>
      <trkpt lat="45.39511" lon="6.1347">
        <ele>1832.9</ele>
        <time>2021-02-03T09:24:23Z</time>
      </trkpt>
      <trkpt lat="45.39511" lon="6.13471">
        <ele>1832.9</ele>
        <time>2021-02-03T09:24:24Z</time>
      </trkpt>
      <trkpt lat="45.39511" lon="6.13473">
        <ele>1833</ele>
        <time>2021-02-03T09:24:25Z</time>
      </trkpt>
      <trkpt lat="45.3951" lon="6.13474">
        <ele>1833</ele>
        <time>2021-02-03T09:24:26Z</time>
      </trkpt>
      <trkpt lat="45.3951" lon="6.13475">
        <ele>1833.1</ele>
        <time>2021-02-03T09:24:27Z</time>
      </trkpt>
      <trkpt lat="45.39509" lon="6.13476">
        <ele>1833.1</ele>
        <time>2021-02-03T09:24:28Z</time>
      </trkpt>
      <trkpt lat="45.39509" lon="6.13478">
        <ele>1833.2</ele>
        <time>2021-02-03T09:24:29Z</time>
      </trkpt>
      <trkpt lat="45.39508" lon="6.13479">
        <ele>1833.2</ele>
        <time>2021-02-03T09:24:30Z</time>
      </trkpt>
      <trkpt lat="45.39508" lon="6.1348">
        <ele>1833.3</ele>
        <time>2021-02-03T09:24:31Z</time>
      </trkpt>
      <trkpt lat="45.39508" lon="6.13481">
        <ele>1833.3</ele>
        <time>2021-02-03T09:24:32Z</time>
      </trkpt>
      <trkpt lat="45.39508" lon="6.13483">
        <ele>1833.3</ele>
        <time>2021-02-03T09:24:33Z</time>
      </trkpt>
      <trkpt lat="45.39507" lon="6.13484">
        <ele>1833.4</ele>
        <time>2021-02-03T09:24:34Z</time>
      </trkpt>
      <trkpt lat="45.39507" lon="6.13485">
        <ele>1833.4</ele>
        <time>2021-02-03T09:24:35Z</time>
      </trkpt>
      <trkpt lat="45.39506" lon="6.13486">
        <ele>1833.5</ele>
        <time>2021-02-03T09:24:36Z</time>
      </trkpt>
      <trkpt lat="45.39506" lon="6.13488">
        <ele>1833.5</ele>
        <time>2021-02-03T09:24:37Z</time>
      </trkpt>
      <trkpt lat="45.39506" lon="6.13489">
        <ele>1833.6</ele>
        <time>2021-02-03T09:24:38Z</time>
      </trkpt>
      <trkpt lat="45.39506" lon="6.1349">
        <ele>1833.6</ele>
        <time>2021-02-03T09:24:39Z</time>
      </trkpt>
      <trkpt lat="45.39506" lon="6.13491">
        <ele>1833.7</ele>
        <time>2021-02-03T09:24:40Z</time>
      </trkpt>
      <trkpt lat="45.39505" lon="6.13492">
        <ele>1833.7</ele>
        <time>2021-02-03T09:24:41Z</time>
      </trkpt>
      <trkpt lat="45.39505" lon="6.13494">
        <ele>1833.8</ele>
        <time>2021-02-03T09:24:42Z</time>
      </trkpt>
      <trkpt lat="45.39505" lon="6.13495">
        <ele>1833.8</ele>
        <time>2021-02-03T09:24:43Z</time>
      </trkpt>
      <trkpt lat="45.39505" lon="6.13496">
        <ele>1833.9</ele>
        <time>2021-02-03T09:24:44Z</time>
      </trkpt>
      <trkpt lat="45.39505" lon="6.13498">
        <ele>1833.9</ele>
        <time>2021-02-03T09:24:45Z</time>
      </trkpt>
      <trkpt lat="45.39505" lon="6.13499">
        <ele>1834</ele>
        <time>2021-02-03T09:24:46Z</time>
      </trkpt>
      <trkpt lat="45.39505" lon="6.135">
        <ele>1834</ele>
        <time>2021-02-03T09:24:47Z</time>
      </trkpt>
      <trkpt lat="45.39505" lon="6.13501">
        <ele>1834.1</ele>
        <time>2021-02-03T09:24:48Z</time>
      </trkpt>
      <trkpt lat="45.39505" lon="6.13502">
        <ele>1834.1</ele>
        <time>2021-02-03T09:24:49Z</time>
      </trkpt>
      <trkpt lat="45.39504" lon="6.13503">
        <ele>1834.2</ele>
        <time>2021-02-03T09:24:50Z</time>
      </trkpt>
      <trkpt lat="45.39504" lon="6.13504">
        <ele>1834.2</ele>
        <time>2021-02-03T09:24:51Z</time>
      </trkpt>
      <trkpt lat="45.39504" lon="6.13506">
        <ele>1834.2</ele>
        <time>2021-02-03T09:24:52Z</time>
      </trkpt>
      <trkpt lat="45.39504" lon="6.13507">
        <ele>1834.3</ele>
        <time>2021-02-03T09:24:53Z</time>
      </trkpt>
      <trkpt lat="45.39504" lon="6.13508">
        <ele>1834.3</ele>
        <time>2021-02-03T09:24:54Z</time>
      </trkpt>
      <trkpt lat="45.39504" lon="6.13509">
        <ele>1834.4</ele>
        <time>2021-02-03T09:24:55Z</time>
      </trkpt>
      <trkpt lat="45.39504" lon="6.13511">
        <ele>1834.5</ele>
        <time>2021-02-03T09:24:56Z</time>
      </trkpt>
      <trkpt lat="45.39504" lon="6.13512">
        <ele>1834.5</ele>
        <time>2021-02-03T09:24:57Z</time>
      </trkpt>
      <trkpt lat="45.39504" lon="6.13513">
        <ele>1834.6</ele>
        <time>2021-02-03T09:24:58Z</time>
      </trkpt>
      <trkpt lat="45.39503" lon="6.13514">
        <ele>1834.6</ele>
        <time>2021-02-03T09:24:59Z</time>
      </trkpt>
      <trkpt lat="45.39503" lon="6.13515">
        <ele>1834.6</ele>
        <time>2021-02-03T09:25:00Z</time>
      </trkpt>
      <trkpt lat="45.39503" lon="6.13516">
        <ele>1834.7</ele>
        <time>2021-02-03T09:25:01Z</time>
      </trkpt>
      <trkpt lat="45.39502" lon="6.13518">
        <ele>1834.8</ele>
        <time>2021-02-03T09:25:02Z</time>
      </trkpt>
      <trkpt lat="45.39502" lon="6.13519">
        <ele>1834.8</ele>
        <time>2021-02-03T09:25:03Z</time>
      </trkpt>
      <trkpt lat="45.39502" lon="6.1352">
        <ele>1834.9</ele>
        <time>2021-02-03T09:25:04Z</time>
      </trkpt>
      <trkpt lat="45.39501" lon="6.13521">
        <ele>1834.9</ele>
        <time>2021-02-03T09:25:05Z</time>
      </trkpt>
      <trkpt lat="45.39501" lon="6.13522">
        <ele>1835</ele>
        <time>2021-02-03T09:25:06Z</time>
      </trkpt>
      <trkpt lat="45.395" lon="6.13523">
        <ele>1835</ele>
        <time>2021-02-03T09:25:07Z</time>
      </trkpt>
      <trkpt lat="45.395" lon="6.13524">
        <ele>1835.1</ele>
        <time>2021-02-03T09:25:08Z</time>
      </trkpt>
      <trkpt lat="45.39499" lon="6.13526">
        <ele>1835.1</ele>
        <time>2021-02-03T09:25:09Z</time>
      </trkpt>
      <trkpt lat="45.39499" lon="6.13527">
        <ele>1835.2</ele>
        <time>2021-02-03T09:25:10Z</time>
      </trkpt>
      <trkpt lat="45.39498" lon="6.13528">
        <ele>1835.3</ele>
        <time>2021-02-03T09:25:11Z</time>
      </trkpt>
      <trkpt lat="45.39498" lon="6.13529">
        <ele>1835.3</ele>
        <time>2021-02-03T09:25:12Z</time>
      </trkpt>
      <trkpt lat="45.39497" lon="6.13531">
        <ele>1835.4</ele>
        <time>2021-02-03T09:25:13Z</time>
      </trkpt>
      <trkpt lat="45.39497" lon="6.13532">
        <ele>1835.4</ele>
        <time>2021-02-03T09:25:14Z</time>
      </trkpt>
      <trkpt lat="45.39497" lon="6.13533">
        <ele>1835.5</ele>
        <time>2021-02-03T09:25:15Z</time>
      </trkpt>
      <trkpt lat="45.39496" lon="6.13534">
        <ele>1835.5</ele>
        <time>2021-02-03T09:25:16Z</time>
      </trkpt>
      <trkpt lat="45.39496" lon="6.13535">
        <ele>1835.6</ele>
        <time>2021-02-03T09:25:17Z</time>
      </trkpt>
      <trkpt lat="45.39496" lon="6.13536">
        <ele>1835.7</ele>
        <time>2021-02-03T09:25:18Z</time>
      </trkpt>
      <trkpt lat="45.39495" lon="6.13538">
        <ele>1835.7</ele>
        <time>2021-02-03T09:25:19Z</time>
      </trkpt>
      <trkpt lat="45.39495" lon="6.13539">
        <ele>1835.8</ele>
        <time>2021-02-03T09:25:20Z</time>
      </trkpt>
      <trkpt lat="45.39494" lon="6.1354">
        <ele>1835.8</ele>
        <time>2021-02-03T09:25:21Z</time>
      </trkpt>
      <trkpt lat="45.39493" lon="6.13541">
        <ele>1835.9</ele>
        <time>2021-02-03T09:25:22Z</time>
      </trkpt>
      <trkpt lat="45.39493" lon="6.13542">
        <ele>1836</ele>
        <time>2021-02-03T09:25:23Z</time>
      </trkpt>
      <trkpt lat="45.39492" lon="6.13543">
        <ele>1836</ele>
        <time>2021-02-03T09:25:24Z</time>
      </trkpt>
      <trkpt lat="45.39492" lon="6.13544">
        <ele>1836.1</ele>
        <time>2021-02-03T09:25:25Z</time>
      </trkpt>
      <trkpt lat="45.39491" lon="6.13545">
        <ele>1836.1</ele>
        <time>2021-02-03T09:25:26Z</time>
      </trkpt>
      <trkpt lat="45.39491" lon="6.13546">
        <ele>1836.2</ele>
        <time>2021-02-03T09:25:27Z</time>
      </trkpt>
      <trkpt lat="45.3949" lon="6.13547">
        <ele>1836.2</ele>
        <time>2021-02-03T09:25:28Z</time>
      </trkpt>
      <trkpt lat="45.3949" lon="6.13549">
        <ele>1836.3</ele>
        <time>2021-02-03T09:25:29Z</time>
      </trkpt>
      <trkpt lat="45.39489" lon="6.1355">
        <ele>1836.3</ele>
        <time>2021-02-03T09:25:30Z</time>
      </trkpt>
      <trkpt lat="45.39489" lon="6.13551">
        <ele>1836.4</ele>
        <time>2021-02-03T09:25:31Z</time>
      </trkpt>
      <trkpt lat="45.39489" lon="6.13552">
        <ele>1836.5</ele>
        <time>2021-02-03T09:25:32Z</time>
      </trkpt>
      <trkpt lat="45.39488" lon="6.13553">
        <ele>1836.5</ele>
        <time>2021-02-03T09:25:33Z</time>
      </trkpt>
      <trkpt lat="45.39488" lon="6.13554">
        <ele>1836.6</ele>
        <time>2021-02-03T09:25:34Z</time>
      </trkpt>
      <trkpt lat="45.39487" lon="6.13555">
        <ele>1836.6</ele>
        <time>2021-02-03T09:25:35Z</time>
      </trkpt>
      <trkpt lat="45.39487" lon="6.13556">
        <ele>1836.7</ele>
        <time>2021-02-03T09:25:36Z</time>
      </trkpt>
      <trkpt lat="45.39487" lon="6.13558">
        <ele>1836.7</ele>
        <time>2021-02-03T09:25:37Z</time>
      </trkpt>
      <trkpt lat="45.39486" lon="6.13559">
        <ele>1836.8</ele>
        <time>2021-02-03T09:25:38Z</time>
      </trkpt>
      <trkpt lat="45.39486" lon="6.1356">
        <ele>1836.8</ele>
        <time>2021-02-03T09:25:39Z</time>
      </trkpt>
      <trkpt lat="45.39486" lon="6.13561">
        <ele>1836.9</ele>
        <time>2021-02-03T09:25:40Z</time>
      </trkpt>
      <trkpt lat="45.39485" lon="6.13562">
        <ele>1837</ele>
        <time>2021-02-03T09:25:41Z</time>
      </trkpt>
      <trkpt lat="45.39485" lon="6.13563">
        <ele>1837</ele>
        <time>2021-02-03T09:25:42Z</time>
      </trkpt>
      <trkpt lat="45.39485" lon="6.13564">
        <ele>1837.1</ele>
        <time>2021-02-03T09:25:43Z</time>
      </trkpt>
      <trkpt lat="45.39484" lon="6.13565">
        <ele>1837.1</ele>
        <time>2021-02-03T09:25:44Z</time>
      </trkpt>
      <trkpt lat="45.39483" lon="6.13567">
        <ele>1837.2</ele>
        <time>2021-02-03T09:25:45Z</time>
      </trkpt>
      <trkpt lat="45.39483" lon="6.13568">
        <ele>1837.3</ele>
        <time>2021-02-03T09:25:46Z</time>
      </trkpt>
      <trkpt lat="45.39483" lon="6.13569">
        <ele>1837.3</ele>
        <time>2021-02-03T09:25:47Z</time>
      </trkpt>
      <trkpt lat="45.39482" lon="6.1357">
        <ele>1837.4</ele>
        <time>2021-02-03T09:25:48Z</time>
      </trkpt>
      <trkpt lat="45.39481" lon="6.13571">
        <ele>1837.5</ele>
        <time>2021-02-03T09:25:49Z</time>
      </trkpt>
      <trkpt lat="45.39481" lon="6.13572">
        <ele>1837.5</ele>
        <time>2021-02-03T09:25:50Z</time>
      </trkpt>
      <trkpt lat="45.39481" lon="6.13573">
        <ele>1837.6</ele>
        <time>2021-02-03T09:25:51Z</time>
      </trkpt>
      <trkpt lat="45.3948" lon="6.13574">
        <ele>1837.6</ele>
        <time>2021-02-03T09:25:52Z</time>
      </trkpt>
      <trkpt lat="45.3948" lon="6.13575">
        <ele>1837.7</ele>
        <time>2021-02-03T09:25:53Z</time>
      </trkpt>
      <trkpt lat="45.3948" lon="6.13576">
        <ele>1837.7</ele>
        <time>2021-02-03T09:25:54Z</time>
      </trkpt>
      <trkpt lat="45.3948" lon="6.13578">
        <ele>1837.8</ele>
        <time>2021-02-03T09:25:55Z</time>
      </trkpt>
      <trkpt lat="45.39479" lon="6.13579">
        <ele>1837.9</ele>
        <time>2021-02-03T09:25:56Z</time>
      </trkpt>
      <trkpt lat="45.39479" lon="6.1358">
        <ele>1837.9</ele>
        <time>2021-02-03T09:25:57Z</time>
      </trkpt>
      <trkpt lat="45.39479" lon="6.13582">
        <ele>1838</ele>
        <time>2021-02-03T09:25:58Z</time>
      </trkpt>
      <trkpt lat="45.39478" lon="6.13583">
        <ele>1838.1</ele>
        <time>2021-02-03T09:25:59Z</time>
      </trkpt>
      <trkpt lat="45.39478" lon="6.13584">
        <ele>1838.1</ele>
        <time>2021-02-03T09:26:00Z</time>
      </trkpt>
      <trkpt lat="45.39478" lon="6.13585">
        <ele>1838.2</ele>
        <time>2021-02-03T09:26:01Z</time>
      </trkpt>
      <trkpt lat="45.39477" lon="6.13587">
        <ele>1838.3</ele>
        <time>2021-02-03T09:26:02Z</time>
      </trkpt>
      <trkpt lat="45.39477" lon="6.13588">
        <ele>1838.3</ele>
        <time>2021-02-03T09:26:03Z</time>
      </trkpt>
      <trkpt lat="45.39476" lon="6.13589">
        <ele>1838.4</ele>
        <time>2021-02-03T09:26:04Z</time>
      </trkpt>
      <trkpt lat="45.39476" lon="6.1359">
        <ele>1838.4</ele>
        <time>2021-02-03T09:26:05Z</time>
      </trkpt>
      <trkpt lat="45.39476" lon="6.13591">
        <ele>1838.5</ele>
        <time>2021-02-03T09:26:06Z</time>
      </trkpt>
      <trkpt lat="45.39475" lon="6.13592">
        <ele>1838.5</ele>
        <time>2021-02-03T09:26:07Z</time>
      </trkpt>
      <trkpt lat="45.39475" lon="6.13593">
        <ele>1838.5</ele>
        <time>2021-02-03T09:26:08Z</time>
      </trkpt>
      <trkpt lat="45.39475" lon="6.13594">
        <ele>1838.6</ele>
        <time>2021-02-03T09:26:09Z</time>
      </trkpt>
      <trkpt lat="45.39474" lon="6.13595">
        <ele>1838.7</ele>
        <time>2021-02-03T09:26:10Z</time>
      </trkpt>
      <trkpt lat="45.39474" lon="6.13596">
        <ele>1838.7</ele>
        <time>2021-02-03T09:26:11Z</time>
      </trkpt>
      <trkpt lat="45.39474" lon="6.13597">
        <ele>1838.8</ele>
        <time>2021-02-03T09:26:12Z</time>
      </trkpt>
      <trkpt lat="45.39473" lon="6.13598">
        <ele>1838.8</ele>
        <time>2021-02-03T09:26:13Z</time>
      </trkpt>
      <trkpt lat="45.39473" lon="6.13599">
        <ele>1838.9</ele>
        <time>2021-02-03T09:26:14Z</time>
      </trkpt>
      <trkpt lat="45.39472" lon="6.136">
        <ele>1838.9</ele>
        <time>2021-02-03T09:26:15Z</time>
      </trkpt>
      <trkpt lat="45.39472" lon="6.13601">
        <ele>1839</ele>
        <time>2021-02-03T09:26:16Z</time>
      </trkpt>
      <trkpt lat="45.39471" lon="6.13602">
        <ele>1839</ele>
        <time>2021-02-03T09:26:17Z</time>
      </trkpt>
      <trkpt lat="45.39471" lon="6.13603">
        <ele>1839.1</ele>
        <time>2021-02-03T09:26:18Z</time>
      </trkpt>
      <trkpt lat="45.3947" lon="6.13604">
        <ele>1839.1</ele>
        <time>2021-02-03T09:26:19Z</time>
      </trkpt>
      <trkpt lat="45.3947" lon="6.13605">
        <ele>1839.2</ele>
        <time>2021-02-03T09:26:20Z</time>
      </trkpt>
      <trkpt lat="45.39469" lon="6.13606">
        <ele>1839.2</ele>
        <time>2021-02-03T09:26:21Z</time>
      </trkpt>
      <trkpt lat="45.39469" lon="6.13607">
        <ele>1839.3</ele>
        <time>2021-02-03T09:26:22Z</time>
      </trkpt>
      <trkpt lat="45.39468" lon="6.13608">
        <ele>1839.3</ele>
        <time>2021-02-03T09:26:23Z</time>
      </trkpt>
      <trkpt lat="45.39468" lon="6.13608">
        <ele>1839.4</ele>
        <time>2021-02-03T09:26:24Z</time>
      </trkpt>
      <trkpt lat="45.39467" lon="6.13609">
        <ele>1839.4</ele>
        <time>2021-02-03T09:26:25Z</time>
      </trkpt>
      <trkpt lat="45.39467" lon="6.1361">
        <ele>1839.5</ele>
        <time>2021-02-03T09:26:26Z</time>
      </trkpt>
      <trkpt lat="45.39466" lon="6.13612">
        <ele>1839.5</ele>
        <time>2021-02-03T09:26:27Z</time>
      </trkpt>
      <trkpt lat="45.39465" lon="6.13613">
        <ele>1839.6</ele>
        <time>2021-02-03T09:26:28Z</time>
      </trkpt>
      <trkpt lat="45.39465" lon="6.13614">
        <ele>1839.7</ele>
        <time>2021-02-03T09:26:29Z</time>
      </trkpt>
      <trkpt lat="45.39464" lon="6.13615">
        <ele>1839.8</ele>
        <time>2021-02-03T09:26:30Z</time>
      </trkpt>
      <trkpt lat="45.39464" lon="6.13616">
        <ele>1839.8</ele>
        <time>2021-02-03T09:26:31Z</time>
      </trkpt>
      <trkpt lat="45.39463" lon="6.13617">
        <ele>1839.8</ele>
        <time>2021-02-03T09:26:32Z</time>
      </trkpt>
      <trkpt lat="45.39462" lon="6.13618">
        <ele>1839.9</ele>
        <time>2021-02-03T09:26:33Z</time>
      </trkpt>
      <trkpt lat="45.39462" lon="6.13619">
        <ele>1840</ele>
        <time>2021-02-03T09:26:34Z</time>
      </trkpt>
      <trkpt lat="45.39461" lon="6.1362">
        <ele>1840</ele>
        <time>2021-02-03T09:26:35Z</time>
      </trkpt>
      <trkpt lat="45.3946" lon="6.13621">
        <ele>1840.1</ele>
        <time>2021-02-03T09:26:36Z</time>
      </trkpt>
      <trkpt lat="45.3946" lon="6.13622">
        <ele>1840.2</ele>
        <time>2021-02-03T09:26:37Z</time>
      </trkpt>
      <trkpt lat="45.39459" lon="6.13623">
        <ele>1840.2</ele>
        <time>2021-02-03T09:26:38Z</time>
      </trkpt>
      <trkpt lat="45.39459" lon="6.13624">
        <ele>1840.3</ele>
        <time>2021-02-03T09:26:39Z</time>
      </trkpt>
      <trkpt lat="45.39458" lon="6.13624">
        <ele>1840.4</ele>
        <time>2021-02-03T09:26:40Z</time>
      </trkpt>
      <trkpt lat="45.39457" lon="6.13625">
        <ele>1840.4</ele>
        <time>2021-02-03T09:26:41Z</time>
      </trkpt>
      <trkpt lat="45.39457" lon="6.13626">
        <ele>1840.5</ele>
        <time>2021-02-03T09:26:42Z</time>
      </trkpt>
      <trkpt lat="45.39456" lon="6.13627">
        <ele>1840.5</ele>
        <time>2021-02-03T09:26:43Z</time>
      </trkpt>
      <trkpt lat="45.39456" lon="6.13628">
        <ele>1840.6</ele>
        <time>2021-02-03T09:26:44Z</time>
      </trkpt>
      <trkpt lat="45.39455" lon="6.13629">
        <ele>1840.7</ele>
        <time>2021-02-03T09:26:45Z</time>
      </trkpt>
      <trkpt lat="45.39455" lon="6.1363">
        <ele>1840.7</ele>
        <time>2021-02-03T09:26:46Z</time>
      </trkpt>
      <trkpt lat="45.39454" lon="6.13631">
        <ele>1840.8</ele>
        <time>2021-02-03T09:26:47Z</time>
      </trkpt>
      <trkpt lat="45.39454" lon="6.13632">
        <ele>1840.9</ele>
        <time>2021-02-03T09:26:48Z</time>
      </trkpt>
      <trkpt lat="45.39454" lon="6.13633">
        <ele>1841</ele>
        <time>2021-02-03T09:26:49Z</time>
      </trkpt>
      <trkpt lat="45.39453" lon="6.13634">
        <ele>1841</ele>
        <time>2021-02-03T09:26:50Z</time>
      </trkpt>
      <trkpt lat="45.39453" lon="6.13635">
        <ele>1841.1</ele>
        <time>2021-02-03T09:26:51Z</time>
      </trkpt>
      <trkpt lat="45.39452" lon="6.13636">
        <ele>1841.2</ele>
        <time>2021-02-03T09:26:52Z</time>
      </trkpt>
      <trkpt lat="45.39452" lon="6.13637">
        <ele>1841.2</ele>
        <time>2021-02-03T09:26:53Z</time>
      </trkpt>
      <trkpt lat="45.39452" lon="6.13638">
        <ele>1841.3</ele>
        <time>2021-02-03T09:26:54Z</time>
      </trkpt>
      <trkpt lat="45.39451" lon="6.13639">
        <ele>1841.4</ele>
        <time>2021-02-03T09:26:55Z</time>
      </trkpt>
      <trkpt lat="45.39451" lon="6.13641">
        <ele>1841.4</ele>
        <time>2021-02-03T09:26:56Z</time>
      </trkpt>
      <trkpt lat="45.39451" lon="6.13642">
        <ele>1841.4</ele>
        <time>2021-02-03T09:26:57Z</time>
      </trkpt>
      <trkpt lat="45.3945" lon="6.13643">
        <ele>1841.5</ele>
        <time>2021-02-03T09:26:58Z</time>
      </trkpt>
      <trkpt lat="45.3945" lon="6.13644">
        <ele>1841.5</ele>
        <time>2021-02-03T09:26:59Z</time>
      </trkpt>
      <trkpt lat="45.39449" lon="6.13645">
        <ele>1841.6</ele>
        <time>2021-02-03T09:27:00Z</time>
      </trkpt>
      <trkpt lat="45.39449" lon="6.13646">
        <ele>1841.7</ele>
        <time>2021-02-03T09:27:01Z</time>
      </trkpt>
      <trkpt lat="45.39449" lon="6.13647">
        <ele>1841.7</ele>
        <time>2021-02-03T09:27:02Z</time>
      </trkpt>
      <trkpt lat="45.39448" lon="6.13648">
        <ele>1841.8</ele>
        <time>2021-02-03T09:27:03Z</time>
      </trkpt>
      <trkpt lat="45.39448" lon="6.13649">
        <ele>1841.9</ele>
        <time>2021-02-03T09:27:04Z</time>
      </trkpt>
      <trkpt lat="45.39448" lon="6.1365">
        <ele>1841.9</ele>
        <time>2021-02-03T09:27:05Z</time>
      </trkpt>
      <trkpt lat="45.39448" lon="6.13651">
        <ele>1842</ele>
        <time>2021-02-03T09:27:06Z</time>
      </trkpt>
      <trkpt lat="45.39447" lon="6.13653">
        <ele>1842.1</ele>
        <time>2021-02-03T09:27:07Z</time>
      </trkpt>
      <trkpt lat="45.39447" lon="6.13654">
        <ele>1842.1</ele>
        <time>2021-02-03T09:27:08Z</time>
      </trkpt>
      <trkpt lat="45.39447" lon="6.13655">
        <ele>1842.2</ele>
        <time>2021-02-03T09:27:09Z</time>
      </trkpt>
      <trkpt lat="45.39447" lon="6.13656">
        <ele>1842.3</ele>
        <time>2021-02-03T09:27:10Z</time>
      </trkpt>
      <trkpt lat="45.39447" lon="6.13657">
        <ele>1842.3</ele>
        <time>2021-02-03T09:27:11Z</time>
      </trkpt>
      <trkpt lat="45.39447" lon="6.13659">
        <ele>1842.4</ele>
        <time>2021-02-03T09:27:12Z</time>
      </trkpt>
      <trkpt lat="45.39447" lon="6.1366">
        <ele>1842.5</ele>
        <time>2021-02-03T09:27:13Z</time>
      </trkpt>
      <trkpt lat="45.39447" lon="6.13661">
        <ele>1842.5</ele>
        <time>2021-02-03T09:27:14Z</time>
      </trkpt>
      <trkpt lat="45.39447" lon="6.13662">
        <ele>1842.6</ele>
        <time>2021-02-03T09:27:15Z</time>
      </trkpt>
      <trkpt lat="45.39447" lon="6.13663">
        <ele>1842.7</ele>
        <time>2021-02-03T09:27:16Z</time>
      </trkpt>
      <trkpt lat="45.39447" lon="6.13665">
        <ele>1842.7</ele>
        <time>2021-02-03T09:27:17Z</time>
      </trkpt>
      <trkpt lat="45.39448" lon="6.13666">
        <ele>1842.8</ele>
        <time>2021-02-03T09:27:18Z</time>
      </trkpt>
      <trkpt lat="45.39448" lon="6.13667">
        <ele>1842.8</ele>
        <time>2021-02-03T09:27:19Z</time>
      </trkpt>
      <trkpt lat="45.39448" lon="6.13668">
        <ele>1842.9</ele>
        <time>2021-02-03T09:27:20Z</time>
      </trkpt>
      <trkpt lat="45.39448" lon="6.1367">
        <ele>1842.9</ele>
        <time>2021-02-03T09:27:21Z</time>
      </trkpt>
      <trkpt lat="45.39448" lon="6.13671">
        <ele>1843</ele>
        <time>2021-02-03T09:27:22Z</time>
      </trkpt>
      <trkpt lat="45.39448" lon="6.13672">
        <ele>1843</ele>
        <time>2021-02-03T09:27:23Z</time>
      </trkpt>
      <trkpt lat="45.39448" lon="6.13673">
        <ele>1843.1</ele>
        <time>2021-02-03T09:27:24Z</time>
      </trkpt>
      <trkpt lat="45.39448" lon="6.13674">
        <ele>1843.2</ele>
        <time>2021-02-03T09:27:25Z</time>
      </trkpt>
      <trkpt lat="45.39448" lon="6.13676">
        <ele>1843.2</ele>
        <time>2021-02-03T09:27:26Z</time>
      </trkpt>
      <trkpt lat="45.39448" lon="6.13677">
        <ele>1843.3</ele>
        <time>2021-02-03T09:27:27Z</time>
      </trkpt>
      <trkpt lat="45.39448" lon="6.13678">
        <ele>1843.3</ele>
        <time>2021-02-03T09:27:28Z</time>
      </trkpt>
      <trkpt lat="45.39448" lon="6.1368">
        <ele>1843.4</ele>
        <time>2021-02-03T09:27:29Z</time>
      </trkpt>
      <trkpt lat="45.39448" lon="6.13682">
        <ele>1843.4</ele>
        <time>2021-02-03T09:27:30Z</time>
      </trkpt>
      <trkpt lat="45.39448" lon="6.13683">
        <ele>1843.5</ele>
        <time>2021-02-03T09:27:31Z</time>
      </trkpt>
      <trkpt lat="45.39448" lon="6.13684">
        <ele>1843.6</ele>
        <time>2021-02-03T09:27:32Z</time>
      </trkpt>
      <trkpt lat="45.39448" lon="6.13685">
        <ele>1843.6</ele>
        <time>2021-02-03T09:27:33Z</time>
      </trkpt>
      <trkpt lat="45.39448" lon="6.13687">
        <ele>1843.6</ele>
        <time>2021-02-03T09:27:34Z</time>
      </trkpt>
      <trkpt lat="45.39448" lon="6.13688">
        <ele>1843.7</ele>
        <time>2021-02-03T09:27:35Z</time>
      </trkpt>
      <trkpt lat="45.39449" lon="6.13691">
        <ele>1843.8</ele>
        <time>2021-02-03T09:27:36Z</time>
      </trkpt>
      <trkpt lat="45.39449" lon="6.13691">
        <ele>1843.8</ele>
        <time>2021-02-03T09:27:37Z</time>
      </trkpt>
      <trkpt lat="45.39449" lon="6.13692">
        <ele>1843.9</ele>
        <time>2021-02-03T09:27:38Z</time>
      </trkpt>
      <trkpt lat="45.39449" lon="6.13693">
        <ele>1843.9</ele>
        <time>2021-02-03T09:27:39Z</time>
      </trkpt>
      <trkpt lat="45.39449" lon="6.13695">
        <ele>1843.9</ele>
        <time>2021-02-03T09:27:40Z</time>
      </trkpt>
      <trkpt lat="45.39449" lon="6.13696">
        <ele>1844</ele>
        <time>2021-02-03T09:27:41Z</time>
      </trkpt>
      <trkpt lat="45.3945" lon="6.13698">
        <ele>1844</ele>
        <time>2021-02-03T09:27:42Z</time>
      </trkpt>
      <trkpt lat="45.3945" lon="6.13699">
        <ele>1844.1</ele>
        <time>2021-02-03T09:27:43Z</time>
      </trkpt>
      <trkpt lat="45.3945" lon="6.137">
        <ele>1844.1</ele>
        <time>2021-02-03T09:27:44Z</time>
      </trkpt>
      <trkpt lat="45.3945" lon="6.13701">
        <ele>1844.2</ele>
        <time>2021-02-03T09:27:45Z</time>
      </trkpt>
      <trkpt lat="45.3945" lon="6.13702">
        <ele>1844.2</ele>
        <time>2021-02-03T09:27:46Z</time>
      </trkpt>
      <trkpt lat="45.3945" lon="6.13704">
        <ele>1844.3</ele>
        <time>2021-02-03T09:27:47Z</time>
      </trkpt>
      <trkpt lat="45.3945" lon="6.13705">
        <ele>1844.3</ele>
        <time>2021-02-03T09:27:48Z</time>
      </trkpt>
      <trkpt lat="45.3945" lon="6.13706">
        <ele>1844.4</ele>
        <time>2021-02-03T09:27:49Z</time>
      </trkpt>
      <trkpt lat="45.3945" lon="6.13708">
        <ele>1844.4</ele>
        <time>2021-02-03T09:27:50Z</time>
      </trkpt>
      <trkpt lat="45.3945" lon="6.13709">
        <ele>1844.5</ele>
        <time>2021-02-03T09:27:51Z</time>
      </trkpt>
      <trkpt lat="45.3945" lon="6.1371">
        <ele>1844.5</ele>
        <time>2021-02-03T09:27:52Z</time>
      </trkpt>
      <trkpt lat="45.3945" lon="6.13712">
        <ele>1844.6</ele>
        <time>2021-02-03T09:27:53Z</time>
      </trkpt>
      <trkpt lat="45.3945" lon="6.13713">
        <ele>1844.7</ele>
        <time>2021-02-03T09:27:54Z</time>
      </trkpt>
      <trkpt lat="45.3945" lon="6.13714">
        <ele>1844.7</ele>
        <time>2021-02-03T09:27:55Z</time>
      </trkpt>
      <trkpt lat="45.3945" lon="6.13715">
        <ele>1844.8</ele>
        <time>2021-02-03T09:27:56Z</time>
      </trkpt>
      <trkpt lat="45.3945" lon="6.13717">
        <ele>1844.8</ele>
        <time>2021-02-03T09:27:57Z</time>
      </trkpt>
      <trkpt lat="45.3945" lon="6.13718">
        <ele>1844.9</ele>
        <time>2021-02-03T09:27:58Z</time>
      </trkpt>
      <trkpt lat="45.3945" lon="6.13719">
        <ele>1844.9</ele>
        <time>2021-02-03T09:27:59Z</time>
      </trkpt>
      <trkpt lat="45.3945" lon="6.1372">
        <ele>1845</ele>
        <time>2021-02-03T09:28:00Z</time>
      </trkpt>
      <trkpt lat="45.3945" lon="6.13722">
        <ele>1845</ele>
        <time>2021-02-03T09:28:01Z</time>
      </trkpt>
      <trkpt lat="45.3945" lon="6.13723">
        <ele>1845.1</ele>
        <time>2021-02-03T09:28:02Z</time>
      </trkpt>
      <trkpt lat="45.39451" lon="6.13724">
        <ele>1845.1</ele>
        <time>2021-02-03T09:28:03Z</time>
      </trkpt>
      <trkpt lat="45.39451" lon="6.13725">
        <ele>1845.2</ele>
        <time>2021-02-03T09:28:04Z</time>
      </trkpt>
      <trkpt lat="45.39451" lon="6.13726">
        <ele>1845.2</ele>
        <time>2021-02-03T09:28:05Z</time>
      </trkpt>
      <trkpt lat="45.39451" lon="6.13728">
        <ele>1845.3</ele>
        <time>2021-02-03T09:28:06Z</time>
      </trkpt>
      <trkpt lat="45.39451" lon="6.13729">
        <ele>1845.3</ele>
        <time>2021-02-03T09:28:07Z</time>
      </trkpt>
      <trkpt lat="45.39451" lon="6.1373">
        <ele>1845.4</ele>
        <time>2021-02-03T09:28:08Z</time>
      </trkpt>
      <trkpt lat="45.39451" lon="6.13731">
        <ele>1845.4</ele>
        <time>2021-02-03T09:28:09Z</time>
      </trkpt>
      <trkpt lat="45.39451" lon="6.13733">
        <ele>1845.5</ele>
        <time>2021-02-03T09:28:10Z</time>
      </trkpt>
      <trkpt lat="45.39452" lon="6.13734">
        <ele>1845.5</ele>
        <time>2021-02-03T09:28:11Z</time>
      </trkpt>
      <trkpt lat="45.39452" lon="6.13736">
        <ele>1845.6</ele>
        <time>2021-02-03T09:28:12Z</time>
      </trkpt>
      <trkpt lat="45.39452" lon="6.13737">
        <ele>1845.6</ele>
        <time>2021-02-03T09:28:13Z</time>
      </trkpt>
      <trkpt lat="45.39452" lon="6.13738">
        <ele>1845.7</ele>
        <time>2021-02-03T09:28:14Z</time>
      </trkpt>
      <trkpt lat="45.39452" lon="6.1374">
        <ele>1845.7</ele>
        <time>2021-02-03T09:28:15Z</time>
      </trkpt>
      <trkpt lat="45.39452" lon="6.13741">
        <ele>1845.8</ele>
        <time>2021-02-03T09:28:16Z</time>
      </trkpt>
      <trkpt lat="45.39452" lon="6.13743">
        <ele>1845.8</ele>
        <time>2021-02-03T09:28:17Z</time>
      </trkpt>
      <trkpt lat="45.39453" lon="6.13744">
        <ele>1845.9</ele>
        <time>2021-02-03T09:28:18Z</time>
      </trkpt>
      <trkpt lat="45.39453" lon="6.13745">
        <ele>1845.9</ele>
        <time>2021-02-03T09:28:19Z</time>
      </trkpt>
      <trkpt lat="45.39453" lon="6.13747">
        <ele>1846</ele>
        <time>2021-02-03T09:28:20Z</time>
      </trkpt>
      <trkpt lat="45.39453" lon="6.13748">
        <ele>1846</ele>
        <time>2021-02-03T09:28:21Z</time>
      </trkpt>
      <trkpt lat="45.39453" lon="6.13749">
        <ele>1846.1</ele>
        <time>2021-02-03T09:28:22Z</time>
      </trkpt>
      <trkpt lat="45.39454" lon="6.13751">
        <ele>1846.1</ele>
        <time>2021-02-03T09:28:23Z</time>
      </trkpt>
      <trkpt lat="45.39454" lon="6.13752">
        <ele>1846.2</ele>
        <time>2021-02-03T09:28:24Z</time>
      </trkpt>
      <trkpt lat="45.39454" lon="6.13754">
        <ele>1846.2</ele>
        <time>2021-02-03T09:28:25Z</time>
      </trkpt>
      <trkpt lat="45.39454" lon="6.13755">
        <ele>1846.3</ele>
        <time>2021-02-03T09:28:26Z</time>
      </trkpt>
      <trkpt lat="45.39454" lon="6.13756">
        <ele>1846.3</ele>
        <time>2021-02-03T09:28:27Z</time>
      </trkpt>
      <trkpt lat="45.39454" lon="6.13758">
        <ele>1846.4</ele>
        <time>2021-02-03T09:28:28Z</time>
      </trkpt>
      <trkpt lat="45.39454" lon="6.13759">
        <ele>1846.5</ele>
        <time>2021-02-03T09:28:29Z</time>
      </trkpt>
      <trkpt lat="45.39454" lon="6.1376">
        <ele>1846.5</ele>
        <time>2021-02-03T09:28:30Z</time>
      </trkpt>
      <trkpt lat="45.39454" lon="6.13761">
        <ele>1846.6</ele>
        <time>2021-02-03T09:28:31Z</time>
      </trkpt>
      <trkpt lat="45.39454" lon="6.13762">
        <ele>1846.6</ele>
        <time>2021-02-03T09:28:32Z</time>
      </trkpt>
      <trkpt lat="45.39454" lon="6.13764">
        <ele>1846.6</ele>
        <time>2021-02-03T09:28:33Z</time>
      </trkpt>
      <trkpt lat="45.39454" lon="6.13765">
        <ele>1846.7</ele>
        <time>2021-02-03T09:28:34Z</time>
      </trkpt>
      <trkpt lat="45.39454" lon="6.13766">
        <ele>1846.7</ele>
        <time>2021-02-03T09:28:35Z</time>
      </trkpt>
      <trkpt lat="45.39454" lon="6.13767">
        <ele>1846.8</ele>
        <time>2021-02-03T09:28:36Z</time>
      </trkpt>
      <trkpt lat="45.39453" lon="6.13768">
        <ele>1846.9</ele>
        <time>2021-02-03T09:28:37Z</time>
      </trkpt>
      <trkpt lat="45.39453" lon="6.1377">
        <ele>1846.9</ele>
        <time>2021-02-03T09:28:38Z</time>
      </trkpt>
      <trkpt lat="45.39453" lon="6.13772">
        <ele>1847</ele>
        <time>2021-02-03T09:28:39Z</time>
      </trkpt>
      <trkpt lat="45.39453" lon="6.13773">
        <ele>1847.1</ele>
        <time>2021-02-03T09:28:40Z</time>
      </trkpt>
      <trkpt lat="45.39453" lon="6.13774">
        <ele>1847.1</ele>
        <time>2021-02-03T09:28:41Z</time>
      </trkpt>
      <trkpt lat="45.39453" lon="6.13775">
        <ele>1847.1</ele>
        <time>2021-02-03T09:28:42Z</time>
      </trkpt>
      <trkpt lat="45.39453" lon="6.13776">
        <ele>1847.2</ele>
        <time>2021-02-03T09:28:43Z</time>
      </trkpt>
      <trkpt lat="45.39453" lon="6.13777">
        <ele>1847.2</ele>
        <time>2021-02-03T09:28:44Z</time>
      </trkpt>
      <trkpt lat="45.39452" lon="6.13778">
        <ele>1847.3</ele>
        <time>2021-02-03T09:28:45Z</time>
      </trkpt>
      <trkpt lat="45.39452" lon="6.1378">
        <ele>1847.3</ele>
        <time>2021-02-03T09:28:46Z</time>
      </trkpt>
      <trkpt lat="45.39452" lon="6.13781">
        <ele>1847.4</ele>
        <time>2021-02-03T09:28:47Z</time>
      </trkpt>
      <trkpt lat="45.39452" lon="6.13782">
        <ele>1847.5</ele>
        <time>2021-02-03T09:28:48Z</time>
      </trkpt>
      <trkpt lat="45.39452" lon="6.13783">
        <ele>1847.5</ele>
        <time>2021-02-03T09:28:49Z</time>
      </trkpt>
      <trkpt lat="45.39452" lon="6.13784">
        <ele>1847.6</ele>
        <time>2021-02-03T09:28:50Z</time>
      </trkpt>
      <trkpt lat="45.39452" lon="6.13786">
        <ele>1847.6</ele>
        <time>2021-02-03T09:28:51Z</time>
      </trkpt>
      <trkpt lat="45.39452" lon="6.13787">
        <ele>1847.7</ele>
        <time>2021-02-03T09:28:52Z</time>
      </trkpt>
      <trkpt lat="45.39451" lon="6.13789">
        <ele>1847.8</ele>
        <time>2021-02-03T09:28:53Z</time>
      </trkpt>
      <trkpt lat="45.39451" lon="6.1379">
        <ele>1847.8</ele>
        <time>2021-02-03T09:28:54Z</time>
      </trkpt>
      <trkpt lat="45.39451" lon="6.13791">
        <ele>1847.9</ele>
        <time>2021-02-03T09:28:55Z</time>
      </trkpt>
      <trkpt lat="45.39451" lon="6.13793">
        <ele>1848</ele>
        <time>2021-02-03T09:28:56Z</time>
      </trkpt>
      <trkpt lat="45.39451" lon="6.13794">
        <ele>1848</ele>
        <time>2021-02-03T09:28:57Z</time>
      </trkpt>
      <trkpt lat="45.39451" lon="6.13795">
        <ele>1848.1</ele>
        <time>2021-02-03T09:28:58Z</time>
      </trkpt>
      <trkpt lat="45.39451" lon="6.13796">
        <ele>1848.1</ele>
        <time>2021-02-03T09:28:59Z</time>
      </trkpt>
      <trkpt lat="45.39451" lon="6.13797">
        <ele>1848.2</ele>
        <time>2021-02-03T09:29:00Z</time>
      </trkpt>
      <trkpt lat="45.39451" lon="6.13798">
        <ele>1848.3</ele>
        <time>2021-02-03T09:29:01Z</time>
      </trkpt>
      <trkpt lat="45.39451" lon="6.138">
        <ele>1848.3</ele>
        <time>2021-02-03T09:29:02Z</time>
      </trkpt>
      <trkpt lat="45.39451" lon="6.13801">
        <ele>1848.4</ele>
        <time>2021-02-03T09:29:03Z</time>
      </trkpt>
      <trkpt lat="45.39451" lon="6.13802">
        <ele>1848.5</ele>
        <time>2021-02-03T09:29:04Z</time>
      </trkpt>
      <trkpt lat="45.39451" lon="6.13803">
        <ele>1848.5</ele>
        <time>2021-02-03T09:29:05Z</time>
      </trkpt>
      <trkpt lat="45.3945" lon="6.13805">
        <ele>1848.6</ele>
        <time>2021-02-03T09:29:06Z</time>
      </trkpt>
      <trkpt lat="45.3945" lon="6.13806">
        <ele>1848.7</ele>
        <time>2021-02-03T09:29:07Z</time>
      </trkpt>
      <trkpt lat="45.3945" lon="6.13807">
        <ele>1848.8</ele>
        <time>2021-02-03T09:29:08Z</time>
      </trkpt>
      <trkpt lat="45.3945" lon="6.13808">
        <ele>1848.8</ele>
        <time>2021-02-03T09:29:09Z</time>
      </trkpt>
      <trkpt lat="45.3945" lon="6.13809">
        <ele>1848.9</ele>
        <time>2021-02-03T09:29:10Z</time>
      </trkpt>
      <trkpt lat="45.39449" lon="6.13811">
        <ele>1849</ele>
        <time>2021-02-03T09:29:11Z</time>
      </trkpt>
      <trkpt lat="45.39449" lon="6.13812">
        <ele>1849.1</ele>
        <time>2021-02-03T09:29:12Z</time>
      </trkpt>
      <trkpt lat="45.39449" lon="6.13813">
        <ele>1849.1</ele>
        <time>2021-02-03T09:29:13Z</time>
      </trkpt>
      <trkpt lat="45.39449" lon="6.13814">
        <ele>1849.2</ele>
        <time>2021-02-03T09:29:14Z</time>
      </trkpt>
      <trkpt lat="45.39449" lon="6.13815">
        <ele>1849.3</ele>
        <time>2021-02-03T09:29:15Z</time>
      </trkpt>
      <trkpt lat="45.39449" lon="6.13816">
        <ele>1849.4</ele>
        <time>2021-02-03T09:29:16Z</time>
      </trkpt>
      <trkpt lat="45.39449" lon="6.13817">
        <ele>1849.4</ele>
        <time>2021-02-03T09:29:17Z</time>
      </trkpt>
      <trkpt lat="45.39449" lon="6.13819">
        <ele>1849.5</ele>
        <time>2021-02-03T09:29:18Z</time>
      </trkpt>
      <trkpt lat="45.39449" lon="6.1382">
        <ele>1849.6</ele>
        <time>2021-02-03T09:29:19Z</time>
      </trkpt>
      <trkpt lat="45.39448" lon="6.13821">
        <ele>1849.7</ele>
        <time>2021-02-03T09:29:20Z</time>
      </trkpt>
      <trkpt lat="45.39448" lon="6.13822">
        <ele>1849.8</ele>
        <time>2021-02-03T09:29:21Z</time>
      </trkpt>
      <trkpt lat="45.39448" lon="6.13824">
        <ele>1849.9</ele>
        <time>2021-02-03T09:29:22Z</time>
      </trkpt>
      <trkpt lat="45.39448" lon="6.13825">
        <ele>1849.9</ele>
        <time>2021-02-03T09:29:23Z</time>
      </trkpt>
      <trkpt lat="45.39448" lon="6.13826">
        <ele>1850</ele>
        <time>2021-02-03T09:29:24Z</time>
      </trkpt>
      <trkpt lat="45.39448" lon="6.13827">
        <ele>1850.1</ele>
        <time>2021-02-03T09:29:25Z</time>
      </trkpt>
      <trkpt lat="45.39447" lon="6.13829">
        <ele>1850.2</ele>
        <time>2021-02-03T09:29:26Z</time>
      </trkpt>
      <trkpt lat="45.39447" lon="6.1383">
        <ele>1850.3</ele>
        <time>2021-02-03T09:29:27Z</time>
      </trkpt>
      <trkpt lat="45.39447" lon="6.13831">
        <ele>1850.4</ele>
        <time>2021-02-03T09:29:28Z</time>
      </trkpt>
      <trkpt lat="45.39447" lon="6.13833">
        <ele>1850.4</ele>
        <time>2021-02-03T09:29:29Z</time>
      </trkpt>
      <trkpt lat="45.39447" lon="6.13834">
        <ele>1850.5</ele>
        <time>2021-02-03T09:29:30Z</time>
      </trkpt>
      <trkpt lat="45.39447" lon="6.13835">
        <ele>1850.6</ele>
        <time>2021-02-03T09:29:31Z</time>
      </trkpt>
      <trkpt lat="45.39447" lon="6.13836">
        <ele>1850.6</ele>
        <time>2021-02-03T09:29:32Z</time>
      </trkpt>
      <trkpt lat="45.39447" lon="6.13837">
        <ele>1850.7</ele>
        <time>2021-02-03T09:29:33Z</time>
      </trkpt>
      <trkpt lat="45.39447" lon="6.13838">
        <ele>1850.8</ele>
        <time>2021-02-03T09:29:34Z</time>
      </trkpt>
      <trkpt lat="45.39447" lon="6.13839">
        <ele>1850.9</ele>
        <time>2021-02-03T09:29:35Z</time>
      </trkpt>
      <trkpt lat="45.39447" lon="6.1384">
        <ele>1850.9</ele>
        <time>2021-02-03T09:29:36Z</time>
      </trkpt>
      <trkpt lat="45.39446" lon="6.13841">
        <ele>1851</ele>
        <time>2021-02-03T09:29:37Z</time>
      </trkpt>
      <trkpt lat="45.39446" lon="6.13843">
        <ele>1851.1</ele>
        <time>2021-02-03T09:29:38Z</time>
      </trkpt>
      <trkpt lat="45.39446" lon="6.13844">
        <ele>1851.2</ele>
        <time>2021-02-03T09:29:39Z</time>
      </trkpt>
      <trkpt lat="45.39446" lon="6.13845">
        <ele>1851.2</ele>
        <time>2021-02-03T09:29:40Z</time>
      </trkpt>
      <trkpt lat="45.39446" lon="6.13845">
        <ele>1851.3</ele>
        <time>2021-02-03T09:29:41Z</time>
      </trkpt>
      <trkpt lat="45.39446" lon="6.13845">
        <ele>1851.3</ele>
        <time>2021-02-03T09:29:42Z</time>
      </trkpt>
      <trkpt lat="45.39446" lon="6.13846">
        <ele>1851.3</ele>
        <time>2021-02-03T09:29:43Z</time>
      </trkpt>
      <trkpt lat="45.39446" lon="6.13846">
        <ele>1851.3</ele>
        <time>2021-02-03T09:29:44Z</time>
      </trkpt>
      <trkpt lat="45.39446" lon="6.13847">
        <ele>1851.4</ele>
        <time>2021-02-03T09:29:45Z</time>
      </trkpt>
      <trkpt lat="45.39446" lon="6.13848">
        <ele>1851.5</ele>
        <time>2021-02-03T09:29:46Z</time>
      </trkpt>
      <trkpt lat="45.39446" lon="6.13849">
        <ele>1851.5</ele>
        <time>2021-02-03T09:29:47Z</time>
      </trkpt>
      <trkpt lat="45.39446" lon="6.1385">
        <ele>1851.6</ele>
        <time>2021-02-03T09:29:48Z</time>
      </trkpt>
      <trkpt lat="45.39446" lon="6.13851">
        <ele>1851.7</ele>
        <time>2021-02-03T09:29:49Z</time>
      </trkpt>
      <trkpt lat="45.39445" lon="6.13852">
        <ele>1851.7</ele>
        <time>2021-02-03T09:29:50Z</time>
      </trkpt>
      <trkpt lat="45.39445" lon="6.13853">
        <ele>1851.8</ele>
        <time>2021-02-03T09:29:51Z</time>
      </trkpt>
      <trkpt lat="45.39445" lon="6.13853">
        <ele>1851.8</ele>
        <time>2021-02-03T09:29:52Z</time>
      </trkpt>
      <trkpt lat="45.39444" lon="6.13854">
        <ele>1851.9</ele>
        <time>2021-02-03T09:29:53Z</time>
      </trkpt>
      <trkpt lat="45.39444" lon="6.13855">
        <ele>1852</ele>
        <time>2021-02-03T09:29:54Z</time>
      </trkpt>
      <trkpt lat="45.39444" lon="6.13856">
        <ele>1852</ele>
        <time>2021-02-03T09:29:55Z</time>
      </trkpt>
      <trkpt lat="45.39443" lon="6.13856">
        <ele>1852.1</ele>
        <time>2021-02-03T09:29:56Z</time>
      </trkpt>
      <trkpt lat="45.39443" lon="6.13856">
        <ele>1852.1</ele>
        <time>2021-02-03T09:29:57Z</time>
      </trkpt>
      <trkpt lat="45.39442" lon="6.13857">
        <ele>1852.2</ele>
        <time>2021-02-03T09:29:58Z</time>
      </trkpt>
      <trkpt lat="45.39441" lon="6.13858">
        <ele>1852.3</ele>
        <time>2021-02-03T09:29:59Z</time>
      </trkpt>
      <trkpt lat="45.3944" lon="6.13858">
        <ele>1852.4</ele>
        <time>2021-02-03T09:30:00Z</time>
      </trkpt>
      <trkpt lat="45.3944" lon="6.13859">
        <ele>1852.5</ele>
        <time>2021-02-03T09:30:01Z</time>
      </trkpt>
      <trkpt lat="45.39439" lon="6.13859">
        <ele>1852.5</ele>
        <time>2021-02-03T09:30:02Z</time>
      </trkpt>
      <trkpt lat="45.39438" lon="6.1386">
        <ele>1852.6</ele>
        <time>2021-02-03T09:30:03Z</time>
      </trkpt>
      <trkpt lat="45.39438" lon="6.1386">
        <ele>1852.7</ele>
        <time>2021-02-03T09:30:04Z</time>
      </trkpt>
      <trkpt lat="45.39437" lon="6.13861">
        <ele>1852.7</ele>
        <time>2021-02-03T09:30:05Z</time>
      </trkpt>
      <trkpt lat="45.39437" lon="6.13862">
        <ele>1852.8</ele>
        <time>2021-02-03T09:30:06Z</time>
      </trkpt>
      <trkpt lat="45.39437" lon="6.13863">
        <ele>1852.9</ele>
        <time>2021-02-03T09:30:07Z</time>
      </trkpt>
      <trkpt lat="45.39437" lon="6.13864">
        <ele>1852.9</ele>
        <time>2021-02-03T09:30:08Z</time>
      </trkpt>
      <trkpt lat="45.39437" lon="6.13865">
        <ele>1853</ele>
        <time>2021-02-03T09:30:09Z</time>
      </trkpt>
      <trkpt lat="45.39437" lon="6.13866">
        <ele>1853.1</ele>
        <time>2021-02-03T09:30:10Z</time>
      </trkpt>
      <trkpt lat="45.39437" lon="6.13867">
        <ele>1853.1</ele>
        <time>2021-02-03T09:30:11Z</time>
      </trkpt>
      <trkpt lat="45.39437" lon="6.13868">
        <ele>1853.2</ele>
        <time>2021-02-03T09:30:12Z</time>
      </trkpt>
      <trkpt lat="45.39436" lon="6.13869">
        <ele>1853.3</ele>
        <time>2021-02-03T09:30:13Z</time>
      </trkpt>
      <trkpt lat="45.39436" lon="6.1387">
        <ele>1853.3</ele>
        <time>2021-02-03T09:30:14Z</time>
      </trkpt>
      <trkpt lat="45.39436" lon="6.13871">
        <ele>1853.4</ele>
        <time>2021-02-03T09:30:15Z</time>
      </trkpt>
      <trkpt lat="45.39436" lon="6.13872">
        <ele>1853.5</ele>
        <time>2021-02-03T09:30:16Z</time>
      </trkpt>
      <trkpt lat="45.39436" lon="6.13873">
        <ele>1853.6</ele>
        <time>2021-02-03T09:30:17Z</time>
      </trkpt>
      <trkpt lat="45.39435" lon="6.13874">
        <ele>1853.6</ele>
        <time>2021-02-03T09:30:18Z</time>
      </trkpt>
      <trkpt lat="45.39435" lon="6.13875">
        <ele>1853.7</ele>
        <time>2021-02-03T09:30:19Z</time>
      </trkpt>
      <trkpt lat="45.39435" lon="6.13876">
        <ele>1853.8</ele>
        <time>2021-02-03T09:30:20Z</time>
      </trkpt>
      <trkpt lat="45.39435" lon="6.13877">
        <ele>1853.9</ele>
        <time>2021-02-03T09:30:21Z</time>
      </trkpt>
      <trkpt lat="45.39434" lon="6.13878">
        <ele>1853.9</ele>
        <time>2021-02-03T09:30:22Z</time>
      </trkpt>
      <trkpt lat="45.39434" lon="6.1388">
        <ele>1854</ele>
        <time>2021-02-03T09:30:23Z</time>
      </trkpt>
      <trkpt lat="45.39434" lon="6.13881">
        <ele>1854.1</ele>
        <time>2021-02-03T09:30:24Z</time>
      </trkpt>
      <trkpt lat="45.39434" lon="6.13881">
        <ele>1854.1</ele>
        <time>2021-02-03T09:30:25Z</time>
      </trkpt>
      <trkpt lat="45.39434" lon="6.13882">
        <ele>1854.2</ele>
        <time>2021-02-03T09:30:26Z</time>
      </trkpt>
      <trkpt lat="45.39434" lon="6.13883">
        <ele>1854.2</ele>
        <time>2021-02-03T09:30:27Z</time>
      </trkpt>
      <trkpt lat="45.39434" lon="6.13885">
        <ele>1854.3</ele>
        <time>2021-02-03T09:30:28Z</time>
      </trkpt>
      <trkpt lat="45.39434" lon="6.13886">
        <ele>1854.3</ele>
        <time>2021-02-03T09:30:29Z</time>
      </trkpt>
      <trkpt lat="45.39434" lon="6.13887">
        <ele>1854.4</ele>
        <time>2021-02-03T09:30:30Z</time>
      </trkpt>
      <trkpt lat="45.39434" lon="6.13888">
        <ele>1854.5</ele>
        <time>2021-02-03T09:30:31Z</time>
      </trkpt>
      <trkpt lat="45.39434" lon="6.13889">
        <ele>1854.5</ele>
        <time>2021-02-03T09:30:32Z</time>
      </trkpt>
      <trkpt lat="45.39434" lon="6.13891">
        <ele>1854.6</ele>
        <time>2021-02-03T09:30:33Z</time>
      </trkpt>
      <trkpt lat="45.39434" lon="6.13892">
        <ele>1854.6</ele>
        <time>2021-02-03T09:30:34Z</time>
      </trkpt>
      <trkpt lat="45.39434" lon="6.13893">
        <ele>1854.7</ele>
        <time>2021-02-03T09:30:35Z</time>
      </trkpt>
      <trkpt lat="45.39434" lon="6.13894">
        <ele>1854.7</ele>
        <time>2021-02-03T09:30:36Z</time>
      </trkpt>
      <trkpt lat="45.39434" lon="6.13895">
        <ele>1854.8</ele>
        <time>2021-02-03T09:30:37Z</time>
      </trkpt>
      <trkpt lat="45.39434" lon="6.13897">
        <ele>1854.8</ele>
        <time>2021-02-03T09:30:38Z</time>
      </trkpt>
      <trkpt lat="45.39434" lon="6.13898">
        <ele>1854.8</ele>
        <time>2021-02-03T09:30:39Z</time>
      </trkpt>
      <trkpt lat="45.39434" lon="6.13899">
        <ele>1854.9</ele>
        <time>2021-02-03T09:30:40Z</time>
      </trkpt>
      <trkpt lat="45.39433" lon="6.139">
        <ele>1854.9</ele>
        <time>2021-02-03T09:30:41Z</time>
      </trkpt>
      <trkpt lat="45.39433" lon="6.13901">
        <ele>1854.9</ele>
        <time>2021-02-03T09:30:42Z</time>
      </trkpt>
      <trkpt lat="45.39433" lon="6.13903">
        <ele>1855</ele>
        <time>2021-02-03T09:30:43Z</time>
      </trkpt>
      <trkpt lat="45.39433" lon="6.13904">
        <ele>1855</ele>
        <time>2021-02-03T09:30:44Z</time>
      </trkpt>
      <trkpt lat="45.39433" lon="6.13905">
        <ele>1855</ele>
        <time>2021-02-03T09:30:45Z</time>
      </trkpt>
      <trkpt lat="45.39433" lon="6.13907">
        <ele>1855.1</ele>
        <time>2021-02-03T09:30:46Z</time>
      </trkpt>
      <trkpt lat="45.39433" lon="6.13908">
        <ele>1855.1</ele>
        <time>2021-02-03T09:30:47Z</time>
      </trkpt>
      <trkpt lat="45.39433" lon="6.1391">
        <ele>1855.2</ele>
        <time>2021-02-03T09:30:48Z</time>
      </trkpt>
      <trkpt lat="45.39433" lon="6.13911">
        <ele>1855.2</ele>
        <time>2021-02-03T09:30:49Z</time>
      </trkpt>
      <trkpt lat="45.39432" lon="6.13912">
        <ele>1855.2</ele>
        <time>2021-02-03T09:30:50Z</time>
      </trkpt>
      <trkpt lat="45.39432" lon="6.13913">
        <ele>1855.2</ele>
        <time>2021-02-03T09:30:51Z</time>
      </trkpt>
      <trkpt lat="45.39432" lon="6.13914">
        <ele>1855.3</ele>
        <time>2021-02-03T09:30:52Z</time>
      </trkpt>
      <trkpt lat="45.39432" lon="6.13916">
        <ele>1855.3</ele>
        <time>2021-02-03T09:30:53Z</time>
      </trkpt>
      <trkpt lat="45.39432" lon="6.13917">
        <ele>1855.3</ele>
        <time>2021-02-03T09:30:54Z</time>
      </trkpt>
      <trkpt lat="45.39432" lon="6.13918">
        <ele>1855.4</ele>
        <time>2021-02-03T09:30:55Z</time>
      </trkpt>
      <trkpt lat="45.39432" lon="6.1392">
        <ele>1855.4</ele>
        <time>2021-02-03T09:30:56Z</time>
      </trkpt>
      <trkpt lat="45.39432" lon="6.13921">
        <ele>1855.5</ele>
        <time>2021-02-03T09:30:57Z</time>
      </trkpt>
      <trkpt lat="45.39432" lon="6.13923">
        <ele>1855.5</ele>
        <time>2021-02-03T09:30:58Z</time>
      </trkpt>
      <trkpt lat="45.39432" lon="6.13925">
        <ele>1855.6</ele>
        <time>2021-02-03T09:30:59Z</time>
      </trkpt>
      <trkpt lat="45.39432" lon="6.13926">
        <ele>1855.6</ele>
        <time>2021-02-03T09:31:00Z</time>
      </trkpt>
      <trkpt lat="45.39432" lon="6.13928">
        <ele>1855.6</ele>
        <time>2021-02-03T09:31:01Z</time>
      </trkpt>
      <trkpt lat="45.39432" lon="6.1393">
        <ele>1856.2</ele>
        <time>2021-02-03T09:31:02Z</time>
      </trkpt>
      <trkpt lat="45.39432" lon="6.13932">
        <ele>1856.6</ele>
        <time>2021-02-03T09:31:03Z</time>
      </trkpt>
      <trkpt lat="45.39432" lon="6.13935">
        <ele>1856.4</ele>
        <time>2021-02-03T09:31:04Z</time>
      </trkpt>
      <trkpt lat="45.39432" lon="6.13937">
        <ele>1856.8</ele>
        <time>2021-02-03T09:31:05Z</time>
      </trkpt>
      <trkpt lat="45.39432" lon="6.1394">
        <ele>1857.4</ele>
        <time>2021-02-03T09:31:06Z</time>
      </trkpt>
      <trkpt lat="45.39431" lon="6.13942">
        <ele>1857.7</ele>
        <time>2021-02-03T09:31:07Z</time>
      </trkpt>
      <trkpt lat="45.39431" lon="6.13944">
        <ele>1858.3</ele>
        <time>2021-02-03T09:31:08Z</time>
      </trkpt>
      <trkpt lat="45.3943" lon="6.13946">
        <ele>1858.7</ele>
        <time>2021-02-03T09:31:09Z</time>
      </trkpt>
      <trkpt lat="45.3943" lon="6.13948">
        <ele>1859.2</ele>
        <time>2021-02-03T09:31:10Z</time>
      </trkpt>
      <trkpt lat="45.3943" lon="6.13949">
        <ele>1859.6</ele>
        <time>2021-02-03T09:31:11Z</time>
      </trkpt>
      <trkpt lat="45.39429" lon="6.1395">
        <ele>1859.2</ele>
        <time>2021-02-03T09:31:12Z</time>
      </trkpt>
      <trkpt lat="45.39428" lon="6.13951">
        <ele>1859.6</ele>
        <time>2021-02-03T09:31:13Z</time>
      </trkpt>
      <trkpt lat="45.39428" lon="6.13952">
        <ele>1860.1</ele>
        <time>2021-02-03T09:31:14Z</time>
      </trkpt>
      <trkpt lat="45.39427" lon="6.13953">
        <ele>1860.5</ele>
        <time>2021-02-03T09:31:15Z</time>
      </trkpt>
      <trkpt lat="45.39427" lon="6.13954">
        <ele>1860.9</ele>
        <time>2021-02-03T09:31:16Z</time>
      </trkpt>
      <trkpt lat="45.39426" lon="6.13955">
        <ele>1861</ele>
        <time>2021-02-03T09:31:17Z</time>
      </trkpt>
      <trkpt lat="45.39425" lon="6.13956">
        <ele>1861</ele>
        <time>2021-02-03T09:31:18Z</time>
      </trkpt>
      <trkpt lat="45.39425" lon="6.13958">
        <ele>1861.1</ele>
        <time>2021-02-03T09:31:19Z</time>
      </trkpt>
      <trkpt lat="45.39424" lon="6.13959">
        <ele>1861.1</ele>
        <time>2021-02-03T09:31:20Z</time>
      </trkpt>
      <trkpt lat="45.39424" lon="6.1396">
        <ele>1861.2</ele>
        <time>2021-02-03T09:31:21Z</time>
      </trkpt>
      <trkpt lat="45.39423" lon="6.13961">
        <ele>1861.3</ele>
        <time>2021-02-03T09:31:22Z</time>
      </trkpt>
      <trkpt lat="45.39422" lon="6.13962">
        <ele>1861.3</ele>
        <time>2021-02-03T09:31:23Z</time>
      </trkpt>
      <trkpt lat="45.39421" lon="6.13962">
        <ele>1861.4</ele>
        <time>2021-02-03T09:31:24Z</time>
      </trkpt>
      <trkpt lat="45.39421" lon="6.13963">
        <ele>1861.4</ele>
        <time>2021-02-03T09:31:25Z</time>
      </trkpt>
      <trkpt lat="45.3942" lon="6.13964">
        <ele>1861.5</ele>
        <time>2021-02-03T09:31:26Z</time>
      </trkpt>
      <trkpt lat="45.39419" lon="6.13965">
        <ele>1861.5</ele>
        <time>2021-02-03T09:31:27Z</time>
      </trkpt>
      <trkpt lat="45.39419" lon="6.13965">
        <ele>1861.6</ele>
        <time>2021-02-03T09:31:28Z</time>
      </trkpt>
      <trkpt lat="45.39418" lon="6.13967">
        <ele>1861.7</ele>
        <time>2021-02-03T09:31:29Z</time>
      </trkpt>
      <trkpt lat="45.39417" lon="6.13967">
        <ele>1861.7</ele>
        <time>2021-02-03T09:31:30Z</time>
      </trkpt>
      <trkpt lat="45.39416" lon="6.13968">
        <ele>1861.8</ele>
        <time>2021-02-03T09:31:31Z</time>
      </trkpt>
      <trkpt lat="45.39415" lon="6.13969">
        <ele>1861.8</ele>
        <time>2021-02-03T09:31:32Z</time>
      </trkpt>
      <trkpt lat="45.39415" lon="6.1397">
        <ele>1861.9</ele>
        <time>2021-02-03T09:31:33Z</time>
      </trkpt>
      <trkpt lat="45.39414" lon="6.13971">
        <ele>1862</ele>
        <time>2021-02-03T09:31:34Z</time>
      </trkpt>
      <trkpt lat="45.39413" lon="6.13971">
        <ele>1862</ele>
        <time>2021-02-03T09:31:35Z</time>
      </trkpt>
      <trkpt lat="45.39412" lon="6.13972">
        <ele>1862.1</ele>
        <time>2021-02-03T09:31:36Z</time>
      </trkpt>
      <trkpt lat="45.39411" lon="6.13973">
        <ele>1862.1</ele>
        <time>2021-02-03T09:31:37Z</time>
      </trkpt>
      <trkpt lat="45.39411" lon="6.13973">
        <ele>1862.2</ele>
        <time>2021-02-03T09:31:38Z</time>
      </trkpt>
      <trkpt lat="45.3941" lon="6.13974">
        <ele>1862.3</ele>
        <time>2021-02-03T09:31:39Z</time>
      </trkpt>
      <trkpt lat="45.39409" lon="6.13975">
        <ele>1862.4</ele>
        <time>2021-02-03T09:31:40Z</time>
      </trkpt>
      <trkpt lat="45.39409" lon="6.13976">
        <ele>1862.5</ele>
        <time>2021-02-03T09:31:41Z</time>
      </trkpt>
      <trkpt lat="45.39408" lon="6.13976">
        <ele>1862.6</ele>
        <time>2021-02-03T09:31:42Z</time>
      </trkpt>
      <trkpt lat="45.39407" lon="6.13977">
        <ele>1862.7</ele>
        <time>2021-02-03T09:31:43Z</time>
      </trkpt>
      <trkpt lat="45.39407" lon="6.13978">
        <ele>1862.8</ele>
        <time>2021-02-03T09:31:44Z</time>
      </trkpt>
      <trkpt lat="45.39406" lon="6.13979">
        <ele>1862.8</ele>
        <time>2021-02-03T09:31:45Z</time>
      </trkpt>
      <trkpt lat="45.39406" lon="6.1398">
        <ele>1862.9</ele>
        <time>2021-02-03T09:31:46Z</time>
      </trkpt>
      <trkpt lat="45.39405" lon="6.1398">
        <ele>1863</ele>
        <time>2021-02-03T09:31:47Z</time>
      </trkpt>
      <trkpt lat="45.39405" lon="6.13981">
        <ele>1863.1</ele>
        <time>2021-02-03T09:31:48Z</time>
      </trkpt>
      <trkpt lat="45.39404" lon="6.13982">
        <ele>1863.2</ele>
        <time>2021-02-03T09:31:49Z</time>
      </trkpt>
      <trkpt lat="45.39404" lon="6.13983">
        <ele>1863.2</ele>
        <time>2021-02-03T09:31:50Z</time>
      </trkpt>
      <trkpt lat="45.39403" lon="6.13983">
        <ele>1863.3</ele>
        <time>2021-02-03T09:31:51Z</time>
      </trkpt>
      <trkpt lat="45.39402" lon="6.13984">
        <ele>1863.4</ele>
        <time>2021-02-03T09:31:52Z</time>
      </trkpt>
      <trkpt lat="45.39402" lon="6.13984">
        <ele>1863.5</ele>
        <time>2021-02-03T09:31:53Z</time>
      </trkpt>
      <trkpt lat="45.39401" lon="6.13985">
        <ele>1863.6</ele>
        <time>2021-02-03T09:31:54Z</time>
      </trkpt>
      <trkpt lat="45.394" lon="6.13985">
        <ele>1863.7</ele>
        <time>2021-02-03T09:31:55Z</time>
      </trkpt>
      <trkpt lat="45.39398" lon="6.13985">
        <ele>1863.9</ele>
        <time>2021-02-03T09:31:56Z</time>
      </trkpt>
      <trkpt lat="45.39398" lon="6.13985">
        <ele>1864</ele>
        <time>2021-02-03T09:31:57Z</time>
      </trkpt>
      <trkpt lat="45.39397" lon="6.13986">
        <ele>1864.1</ele>
        <time>2021-02-03T09:31:58Z</time>
      </trkpt>
      <trkpt lat="45.39396" lon="6.13987">
        <ele>1864.2</ele>
        <time>2021-02-03T09:31:59Z</time>
      </trkpt>
      <trkpt lat="45.39395" lon="6.13988">
        <ele>1864.3</ele>
        <time>2021-02-03T09:32:00Z</time>
      </trkpt>
      <trkpt lat="45.39394" lon="6.13989">
        <ele>1864.5</ele>
        <time>2021-02-03T09:32:01Z</time>
      </trkpt>
      <trkpt lat="45.39393" lon="6.13989">
        <ele>1864.6</ele>
        <time>2021-02-03T09:32:02Z</time>
      </trkpt>
      <trkpt lat="45.39392" lon="6.1399">
        <ele>1864.7</ele>
        <time>2021-02-03T09:32:03Z</time>
      </trkpt>
      <trkpt lat="45.39392" lon="6.13991">
        <ele>1864.8</ele>
        <time>2021-02-03T09:32:04Z</time>
      </trkpt>
      <trkpt lat="45.39391" lon="6.13992">
        <ele>1864.9</ele>
        <time>2021-02-03T09:32:05Z</time>
      </trkpt>
      <trkpt lat="45.3939" lon="6.13993">
        <ele>1865.1</ele>
        <time>2021-02-03T09:32:06Z</time>
      </trkpt>
      <trkpt lat="45.39389" lon="6.13994">
        <ele>1865.2</ele>
        <time>2021-02-03T09:32:07Z</time>
      </trkpt>
      <trkpt lat="45.39389" lon="6.13994">
        <ele>1865.3</ele>
        <time>2021-02-03T09:32:08Z</time>
      </trkpt>
      <trkpt lat="45.39388" lon="6.13995">
        <ele>1865.4</ele>
        <time>2021-02-03T09:32:09Z</time>
      </trkpt>
      <trkpt lat="45.39387" lon="6.13996">
        <ele>1865.5</ele>
        <time>2021-02-03T09:32:10Z</time>
      </trkpt>
      <trkpt lat="45.39386" lon="6.13996">
        <ele>1865.6</ele>
        <time>2021-02-03T09:32:11Z</time>
      </trkpt>
      <trkpt lat="45.39386" lon="6.13997">
        <ele>1865.7</ele>
        <time>2021-02-03T09:32:12Z</time>
      </trkpt>
      <trkpt lat="45.39385" lon="6.13998">
        <ele>1865.8</ele>
        <time>2021-02-03T09:32:13Z</time>
      </trkpt>
      <trkpt lat="45.39384" lon="6.13998">
        <ele>1865.9</ele>
        <time>2021-02-03T09:32:14Z</time>
      </trkpt>
      <trkpt lat="45.39384" lon="6.13999">
        <ele>1866.1</ele>
        <time>2021-02-03T09:32:15Z</time>
      </trkpt>
      <trkpt lat="45.39383" lon="6.14">
        <ele>1866.2</ele>
        <time>2021-02-03T09:32:16Z</time>
      </trkpt>
      <trkpt lat="45.39382" lon="6.14">
        <ele>1866.3</ele>
        <time>2021-02-03T09:32:17Z</time>
      </trkpt>
      <trkpt lat="45.39381" lon="6.14001">
        <ele>1866.4</ele>
        <time>2021-02-03T09:32:18Z</time>
      </trkpt>
      <trkpt lat="45.39381" lon="6.14002">
        <ele>1866.5</ele>
        <time>2021-02-03T09:32:19Z</time>
      </trkpt>
      <trkpt lat="45.3938" lon="6.14002">
        <ele>1866.6</ele>
        <time>2021-02-03T09:32:20Z</time>
      </trkpt>
      <trkpt lat="45.39379" lon="6.14003">
        <ele>1866.7</ele>
        <time>2021-02-03T09:32:21Z</time>
      </trkpt>
      <trkpt lat="45.39379" lon="6.14004">
        <ele>1866.8</ele>
        <time>2021-02-03T09:32:22Z</time>
      </trkpt>
      <trkpt lat="45.39378" lon="6.14005">
        <ele>1867</ele>
        <time>2021-02-03T09:32:23Z</time>
      </trkpt>
      <trkpt lat="45.39377" lon="6.14005">
        <ele>1867.1</ele>
        <time>2021-02-03T09:32:24Z</time>
      </trkpt>
      <trkpt lat="45.39376" lon="6.14006">
        <ele>1867.2</ele>
        <time>2021-02-03T09:32:25Z</time>
      </trkpt>
      <trkpt lat="45.39376" lon="6.14007">
        <ele>1867.3</ele>
        <time>2021-02-03T09:32:26Z</time>
      </trkpt>
      <trkpt lat="45.39375" lon="6.14008">
        <ele>1867.4</ele>
        <time>2021-02-03T09:32:27Z</time>
      </trkpt>
      <trkpt lat="45.39374" lon="6.14009">
        <ele>1867.5</ele>
        <time>2021-02-03T09:32:28Z</time>
      </trkpt>
      <trkpt lat="45.39373" lon="6.14009">
        <ele>1867.7</ele>
        <time>2021-02-03T09:32:29Z</time>
      </trkpt>
      <trkpt lat="45.39373" lon="6.1401">
        <ele>1867.8</ele>
        <time>2021-02-03T09:32:30Z</time>
      </trkpt>
      <trkpt lat="45.39372" lon="6.14011">
        <ele>1867.9</ele>
        <time>2021-02-03T09:32:31Z</time>
      </trkpt>
      <trkpt lat="45.39371" lon="6.14011">
        <ele>1868</ele>
        <time>2021-02-03T09:32:32Z</time>
      </trkpt>
      <trkpt lat="45.3937" lon="6.14012">
        <ele>1868.1</ele>
        <time>2021-02-03T09:32:33Z</time>
      </trkpt>
      <trkpt lat="45.3937" lon="6.14013">
        <ele>1868.3</ele>
        <time>2021-02-03T09:32:34Z</time>
      </trkpt>
      <trkpt lat="45.39369" lon="6.14014">
        <ele>1868.4</ele>
        <time>2021-02-03T09:32:35Z</time>
      </trkpt>
      <trkpt lat="45.39369" lon="6.14014">
        <ele>1868.5</ele>
        <time>2021-02-03T09:32:36Z</time>
      </trkpt>
      <trkpt lat="45.39368" lon="6.14015">
        <ele>1868.6</ele>
        <time>2021-02-03T09:32:37Z</time>
      </trkpt>
      <trkpt lat="45.39367" lon="6.14015">
        <ele>1868.7</ele>
        <time>2021-02-03T09:32:38Z</time>
      </trkpt>
      <trkpt lat="45.39366" lon="6.14016">
        <ele>1868.8</ele>
        <time>2021-02-03T09:32:39Z</time>
      </trkpt>
      <trkpt lat="45.39366" lon="6.14017">
        <ele>1868.9</ele>
        <time>2021-02-03T09:32:40Z</time>
      </trkpt>
      <trkpt lat="45.39365" lon="6.14017">
        <ele>1869</ele>
        <time>2021-02-03T09:32:41Z</time>
      </trkpt>
      <trkpt lat="45.39364" lon="6.14018">
        <ele>1869.2</ele>
        <time>2021-02-03T09:32:42Z</time>
      </trkpt>
      <trkpt lat="45.39363" lon="6.14019">
        <ele>1869.3</ele>
        <time>2021-02-03T09:32:43Z</time>
      </trkpt>
      <trkpt lat="45.39363" lon="6.14019">
        <ele>1869.4</ele>
        <time>2021-02-03T09:32:44Z</time>
      </trkpt>
      <trkpt lat="45.39362" lon="6.1402">
        <ele>1869.5</ele>
        <time>2021-02-03T09:32:45Z</time>
      </trkpt>
      <trkpt lat="45.39361" lon="6.1402">
        <ele>1869.6</ele>
        <time>2021-02-03T09:32:46Z</time>
      </trkpt>
      <trkpt lat="45.39361" lon="6.14021">
        <ele>1869.8</ele>
        <time>2021-02-03T09:32:47Z</time>
      </trkpt>
      <trkpt lat="45.3936" lon="6.14021">
        <ele>1869.9</ele>
        <time>2021-02-03T09:32:48Z</time>
      </trkpt>
      <trkpt lat="45.39359" lon="6.14022">
        <ele>1870</ele>
        <time>2021-02-03T09:32:49Z</time>
      </trkpt>
      <trkpt lat="45.39359" lon="6.14022">
        <ele>1870.1</ele>
        <time>2021-02-03T09:32:50Z</time>
      </trkpt>
      <trkpt lat="45.39358" lon="6.14023">
        <ele>1870.2</ele>
        <time>2021-02-03T09:32:51Z</time>
      </trkpt>
      <trkpt lat="45.39357" lon="6.14024">
        <ele>1870.4</ele>
        <time>2021-02-03T09:32:52Z</time>
      </trkpt>
      <trkpt lat="45.39357" lon="6.14024">
        <ele>1870.5</ele>
        <time>2021-02-03T09:32:53Z</time>
      </trkpt>
      <trkpt lat="45.39356" lon="6.14025">
        <ele>1870.6</ele>
        <time>2021-02-03T09:32:54Z</time>
      </trkpt>
      <trkpt lat="45.39355" lon="6.14025">
        <ele>1870.8</ele>
        <time>2021-02-03T09:32:55Z</time>
      </trkpt>
      <trkpt lat="45.39354" lon="6.14026">
        <ele>1870.9</ele>
        <time>2021-02-03T09:32:56Z</time>
      </trkpt>
      <trkpt lat="45.39354" lon="6.14026">
        <ele>1871.1</ele>
        <time>2021-02-03T09:32:57Z</time>
      </trkpt>
      <trkpt lat="45.39353" lon="6.14027">
        <ele>1871.2</ele>
        <time>2021-02-03T09:32:58Z</time>
      </trkpt>
      <trkpt lat="45.39352" lon="6.14027">
        <ele>1871.3</ele>
        <time>2021-02-03T09:32:59Z</time>
      </trkpt>
      <trkpt lat="45.39351" lon="6.14028">
        <ele>1871.5</ele>
        <time>2021-02-03T09:33:00Z</time>
      </trkpt>
      <trkpt lat="45.39351" lon="6.14028">
        <ele>1871.7</ele>
        <time>2021-02-03T09:33:01Z</time>
      </trkpt>
      <trkpt lat="45.3935" lon="6.14029">
        <ele>1871.8</ele>
        <time>2021-02-03T09:33:02Z</time>
      </trkpt>
      <trkpt lat="45.39349" lon="6.14029">
        <ele>1871.9</ele>
        <time>2021-02-03T09:33:03Z</time>
      </trkpt>
      <trkpt lat="45.39349" lon="6.1403">
        <ele>1872</ele>
        <time>2021-02-03T09:33:04Z</time>
      </trkpt>
      <trkpt lat="45.39348" lon="6.1403">
        <ele>1872.2</ele>
        <time>2021-02-03T09:33:05Z</time>
      </trkpt>
      <trkpt lat="45.39348" lon="6.1403">
        <ele>1872.3</ele>
        <time>2021-02-03T09:33:06Z</time>
      </trkpt>
      <trkpt lat="45.39347" lon="6.14031">
        <ele>1872.4</ele>
        <time>2021-02-03T09:33:07Z</time>
      </trkpt>
      <trkpt lat="45.39346" lon="6.14031">
        <ele>1872.5</ele>
        <time>2021-02-03T09:33:08Z</time>
      </trkpt>
      <trkpt lat="45.39346" lon="6.14032">
        <ele>1872.7</ele>
        <time>2021-02-03T09:33:09Z</time>
      </trkpt>
      <trkpt lat="45.39345" lon="6.14032">
        <ele>1872.8</ele>
        <time>2021-02-03T09:33:10Z</time>
      </trkpt>
      <trkpt lat="45.39345" lon="6.14033">
        <ele>1872.9</ele>
        <time>2021-02-03T09:33:11Z</time>
      </trkpt>
      <trkpt lat="45.39345" lon="6.14033">
        <ele>1872.9</ele>
        <time>2021-02-03T09:33:12Z</time>
      </trkpt>
      <trkpt lat="45.39344" lon="6.14033">
        <ele>1873.1</ele>
        <time>2021-02-03T09:33:13Z</time>
      </trkpt>
      <trkpt lat="45.39343" lon="6.14034">
        <ele>1873.2</ele>
        <time>2021-02-03T09:33:14Z</time>
      </trkpt>
      <trkpt lat="45.39343" lon="6.14035">
        <ele>1873.4</ele>
        <time>2021-02-03T09:33:15Z</time>
      </trkpt>
      <trkpt lat="45.39342" lon="6.14036">
        <ele>1873.6</ele>
        <time>2021-02-03T09:33:16Z</time>
      </trkpt>
      <trkpt lat="45.39342" lon="6.14036">
        <ele>1873.7</ele>
        <time>2021-02-03T09:33:17Z</time>
      </trkpt>
      <trkpt lat="45.39342" lon="6.14037">
        <ele>1873.8</ele>
        <time>2021-02-03T09:33:18Z</time>
      </trkpt>
      <trkpt lat="45.39342" lon="6.14038">
        <ele>1873.9</ele>
        <time>2021-02-03T09:33:19Z</time>
      </trkpt>
      <trkpt lat="45.39342" lon="6.14039">
        <ele>1874</ele>
        <time>2021-02-03T09:33:20Z</time>
      </trkpt>
      <trkpt lat="45.39342" lon="6.14039">
        <ele>1874.1</ele>
        <time>2021-02-03T09:33:21Z</time>
      </trkpt>
      <trkpt lat="45.39342" lon="6.1404">
        <ele>1874.2</ele>
        <time>2021-02-03T09:33:22Z</time>
      </trkpt>
      <trkpt lat="45.39342" lon="6.14041">
        <ele>1874.4</ele>
        <time>2021-02-03T09:33:23Z</time>
      </trkpt>
      <trkpt lat="45.39342" lon="6.14041">
        <ele>1874.5</ele>
        <time>2021-02-03T09:33:24Z</time>
      </trkpt>
      <trkpt lat="45.39342" lon="6.14042">
        <ele>1874.6</ele>
        <time>2021-02-03T09:33:25Z</time>
      </trkpt>
      <trkpt lat="45.39342" lon="6.14043">
        <ele>1874.7</ele>
        <time>2021-02-03T09:33:26Z</time>
      </trkpt>
      <trkpt lat="45.39342" lon="6.14043">
        <ele>1874.8</ele>
        <time>2021-02-03T09:33:36Z</time>
      </trkpt>
      <trkpt lat="45.39342" lon="6.14044">
        <ele>1874.9</ele>
        <time>2021-02-03T09:33:37Z</time>
      </trkpt>
      <trkpt lat="45.39342" lon="6.14045">
        <ele>1875</ele>
        <time>2021-02-03T09:33:38Z</time>
      </trkpt>
      <trkpt lat="45.39342" lon="6.14046">
        <ele>1875.1</ele>
        <time>2021-02-03T09:33:39Z</time>
      </trkpt>
      <trkpt lat="45.39343" lon="6.14046">
        <ele>1875.2</ele>
        <time>2021-02-03T09:33:40Z</time>
      </trkpt>
      <trkpt lat="45.39343" lon="6.14047">
        <ele>1875.3</ele>
        <time>2021-02-03T09:33:41Z</time>
      </trkpt>
      <trkpt lat="45.39342" lon="6.14048">
        <ele>1875.6</ele>
        <time>2021-02-03T09:33:42Z</time>
      </trkpt>
      <trkpt lat="45.39342" lon="6.14049">
        <ele>1875.7</ele>
        <time>2021-02-03T09:33:43Z</time>
      </trkpt>
      <trkpt lat="45.39341" lon="6.1405">
        <ele>1875.8</ele>
        <time>2021-02-03T09:33:44Z</time>
      </trkpt>
      <trkpt lat="45.39341" lon="6.1405">
        <ele>1876</ele>
        <time>2021-02-03T09:33:45Z</time>
      </trkpt>
      <trkpt lat="45.39341" lon="6.14051">
        <ele>1876.1</ele>
        <time>2021-02-03T09:33:46Z</time>
      </trkpt>
      <trkpt lat="45.3934" lon="6.14052">
        <ele>1876.2</ele>
        <time>2021-02-03T09:35:45Z</time>
      </trkpt>
      <trkpt lat="45.3934" lon="6.14052">
        <ele>1876.4</ele>
        <time>2021-02-03T09:35:46Z</time>
      </trkpt>
      <trkpt lat="45.3934" lon="6.14053">
        <ele>1876.5</ele>
        <time>2021-02-03T09:35:47Z</time>
      </trkpt>
      <trkpt lat="45.39339" lon="6.14053">
        <ele>1876.6</ele>
        <time>2021-02-03T09:35:48Z</time>
      </trkpt>
      <trkpt lat="45.39339" lon="6.14054">
        <ele>1876.8</ele>
        <time>2021-02-03T09:35:49Z</time>
      </trkpt>
      <trkpt lat="45.39339" lon="6.14055">
        <ele>1876.9</ele>
        <time>2021-02-03T09:35:50Z</time>
      </trkpt>
      <trkpt lat="45.39338" lon="6.14055">
        <ele>1877</ele>
        <time>2021-02-03T09:35:51Z</time>
      </trkpt>
      <trkpt lat="45.39338" lon="6.14056">
        <ele>1877.2</ele>
        <time>2021-02-03T09:35:52Z</time>
      </trkpt>
      <trkpt lat="45.39337" lon="6.14056">
        <ele>1877.4</ele>
        <time>2021-02-03T09:35:53Z</time>
      </trkpt>
      <trkpt lat="45.39336" lon="6.14056">
        <ele>1877.6</ele>
        <time>2021-02-03T09:35:54Z</time>
      </trkpt>
      <trkpt lat="45.39336" lon="6.14057">
        <ele>1877.8</ele>
        <time>2021-02-03T09:35:55Z</time>
      </trkpt>
      <trkpt lat="45.39335" lon="6.14057">
        <ele>1877.9</ele>
        <time>2021-02-03T09:35:56Z</time>
      </trkpt>
      <trkpt lat="45.39334" lon="6.14058">
        <ele>1878.1</ele>
        <time>2021-02-03T09:35:57Z</time>
      </trkpt>
      <trkpt lat="45.39333" lon="6.14058">
        <ele>1878.3</ele>
        <time>2021-02-03T09:35:58Z</time>
      </trkpt>
      <trkpt lat="45.39333" lon="6.14058">
        <ele>1878.5</ele>
        <time>2021-02-03T09:35:59Z</time>
      </trkpt>
      <trkpt lat="45.39332" lon="6.14059">
        <ele>1878.7</ele>
        <time>2021-02-03T09:36:00Z</time>
      </trkpt>
      <trkpt lat="45.39332" lon="6.14059">
        <ele>1878.9</ele>
        <time>2021-02-03T09:36:01Z</time>
      </trkpt>
      <trkpt lat="45.39331" lon="6.14059">
        <ele>1879</ele>
        <time>2021-02-03T09:36:02Z</time>
      </trkpt>
      <trkpt lat="45.3933" lon="6.14059">
        <ele>1879.2</ele>
        <time>2021-02-03T09:36:03Z</time>
      </trkpt>
      <trkpt lat="45.3933" lon="6.14059">
        <ele>1879.3</ele>
        <time>2021-02-03T09:36:04Z</time>
      </trkpt>
      <trkpt lat="45.39329" lon="6.1406">
        <ele>1879.5</ele>
        <time>2021-02-03T09:36:05Z</time>
      </trkpt>
      <trkpt lat="45.39329" lon="6.1406">
        <ele>1879.7</ele>
        <time>2021-02-03T09:36:06Z</time>
      </trkpt>
      <trkpt lat="45.39328" lon="6.1406">
        <ele>1879.9</ele>
        <time>2021-02-03T09:36:07Z</time>
      </trkpt>
      <trkpt lat="45.39328" lon="6.14061">
        <ele>1880</ele>
        <time>2021-02-03T09:36:08Z</time>
      </trkpt>
      <trkpt lat="45.39327" lon="6.14061">
        <ele>1880.2</ele>
        <time>2021-02-03T09:36:09Z</time>
      </trkpt>
      <trkpt lat="45.39327" lon="6.14061">
        <ele>1880.4</ele>
        <time>2021-02-03T09:36:10Z</time>
      </trkpt>
      <trkpt lat="45.39326" lon="6.14062">
        <ele>1880.5</ele>
        <time>2021-02-03T09:36:11Z</time>
      </trkpt>
      <trkpt lat="45.39326" lon="6.14062">
        <ele>1880.7</ele>
        <time>2021-02-03T09:36:12Z</time>
      </trkpt>
      <trkpt lat="45.39325" lon="6.14063">
        <ele>1880.9</ele>
        <time>2021-02-03T09:36:13Z</time>
      </trkpt>
      <trkpt lat="45.39324" lon="6.14063">
        <ele>1881</ele>
        <time>2021-02-03T09:36:14Z</time>
      </trkpt>
      <trkpt lat="45.39324" lon="6.14063">
        <ele>1881.2</ele>
        <time>2021-02-03T09:36:15Z</time>
      </trkpt>
      <trkpt lat="45.39323" lon="6.14064">
        <ele>1881.5</ele>
        <time>2021-02-03T09:36:16Z</time>
      </trkpt>
      <trkpt lat="45.39322" lon="6.14064">
        <ele>1881.7</ele>
        <time>2021-02-03T09:36:17Z</time>
      </trkpt>
      <trkpt lat="45.39322" lon="6.14065">
        <ele>1881.9</ele>
        <time>2021-02-03T09:36:18Z</time>
      </trkpt>
      <trkpt lat="45.39321" lon="6.14065">
        <ele>1882.1</ele>
        <time>2021-02-03T09:36:19Z</time>
      </trkpt>
      <trkpt lat="45.3932" lon="6.14065">
        <ele>1882.4</ele>
        <time>2021-02-03T09:36:20Z</time>
      </trkpt>
      <trkpt lat="45.39319" lon="6.14066">
        <ele>1882.6</ele>
        <time>2021-02-03T09:36:21Z</time>
      </trkpt>
      <trkpt lat="45.39318" lon="6.14066">
        <ele>1882.8</ele>
        <time>2021-02-03T09:36:22Z</time>
      </trkpt>
      <trkpt lat="45.39318" lon="6.14066">
        <ele>1883.1</ele>
        <time>2021-02-03T09:36:23Z</time>
      </trkpt>
      <trkpt lat="45.39317" lon="6.14067">
        <ele>1883.2</ele>
        <time>2021-02-03T09:36:24Z</time>
      </trkpt>
      <trkpt lat="45.39316" lon="6.14067">
        <ele>1883.4</ele>
        <time>2021-02-03T09:36:25Z</time>
      </trkpt>
      <trkpt lat="45.39316" lon="6.14067">
        <ele>1883.7</ele>
        <time>2021-02-03T09:36:26Z</time>
      </trkpt>
      <trkpt lat="45.39315" lon="6.14067">
        <ele>1883.8</ele>
        <time>2021-02-03T09:36:27Z</time>
      </trkpt>
      <trkpt lat="45.39314" lon="6.14068">
        <ele>1884</ele>
        <time>2021-02-03T09:36:28Z</time>
      </trkpt>
      <trkpt lat="45.39314" lon="6.14068">
        <ele>1884.2</ele>
        <time>2021-02-03T09:36:29Z</time>
      </trkpt>
      <trkpt lat="45.39313" lon="6.14069">
        <ele>1884.4</ele>
        <time>2021-02-03T09:36:30Z</time>
      </trkpt>
      <trkpt lat="45.39313" lon="6.14069">
        <ele>1884.6</ele>
        <time>2021-02-03T09:36:31Z</time>
      </trkpt>
      <trkpt lat="45.39312" lon="6.14069">
        <ele>1884.8</ele>
        <time>2021-02-03T09:36:32Z</time>
      </trkpt>
      <trkpt lat="45.39311" lon="6.1407">
        <ele>1885</ele>
        <time>2021-02-03T09:36:33Z</time>
      </trkpt>
      <trkpt lat="45.3931" lon="6.1407">
        <ele>1885.2</ele>
        <time>2021-02-03T09:36:34Z</time>
      </trkpt>
      <trkpt lat="45.3931" lon="6.14071">
        <ele>1885.4</ele>
        <time>2021-02-03T09:36:35Z</time>
      </trkpt>
      <trkpt lat="45.39309" lon="6.14071">
        <ele>1885.6</ele>
        <time>2021-02-03T09:36:36Z</time>
      </trkpt>
      <trkpt lat="45.39309" lon="6.14072">
        <ele>1885.8</ele>
        <time>2021-02-03T09:36:37Z</time>
      </trkpt>
      <trkpt lat="45.39308" lon="6.14072">
        <ele>1886</ele>
        <time>2021-02-03T09:36:38Z</time>
      </trkpt>
      <trkpt lat="45.39308" lon="6.14073">
        <ele>1886.1</ele>
        <time>2021-02-03T09:36:39Z</time>
      </trkpt>
      <trkpt lat="45.39307" lon="6.14073">
        <ele>1886.3</ele>
        <time>2021-02-03T09:36:40Z</time>
      </trkpt>
      <trkpt lat="45.39307" lon="6.14073">
        <ele>1886.4</ele>
        <time>2021-02-03T09:36:41Z</time>
      </trkpt>
      <trkpt lat="45.39306" lon="6.14074">
        <ele>1886.6</ele>
        <time>2021-02-03T09:36:42Z</time>
      </trkpt>
      <trkpt lat="45.39306" lon="6.14075">
        <ele>1886.8</ele>
        <time>2021-02-03T09:36:43Z</time>
      </trkpt>
      <trkpt lat="45.39305" lon="6.14075">
        <ele>1886.9</ele>
        <time>2021-02-03T09:36:44Z</time>
      </trkpt>
      <trkpt lat="45.39305" lon="6.14076">
        <ele>1887.1</ele>
        <time>2021-02-03T09:36:45Z</time>
      </trkpt>
      <trkpt lat="45.39304" lon="6.14076">
        <ele>1887.2</ele>
        <time>2021-02-03T09:36:46Z</time>
      </trkpt>
      <trkpt lat="45.39304" lon="6.14077">
        <ele>1887.4</ele>
        <time>2021-02-03T09:36:47Z</time>
      </trkpt>
      <trkpt lat="45.39303" lon="6.14077">
        <ele>1887.6</ele>
        <time>2021-02-03T09:36:48Z</time>
      </trkpt>
      <trkpt lat="45.39303" lon="6.14077">
        <ele>1887.7</ele>
        <time>2021-02-03T09:36:49Z</time>
      </trkpt>
      <trkpt lat="45.39303" lon="6.14078">
        <ele>1887.9</ele>
        <time>2021-02-03T09:36:50Z</time>
      </trkpt>
      <trkpt lat="45.39302" lon="6.14078">
        <ele>1888</ele>
        <time>2021-02-03T09:36:51Z</time>
      </trkpt>
      <trkpt lat="45.39302" lon="6.14079">
        <ele>1888.2</ele>
        <time>2021-02-03T09:36:52Z</time>
      </trkpt>
      <trkpt lat="45.39301" lon="6.14079">
        <ele>1888.4</ele>
        <time>2021-02-03T09:36:53Z</time>
      </trkpt>
      <trkpt lat="45.393" lon="6.14079">
        <ele>1888.5</ele>
        <time>2021-02-03T09:36:54Z</time>
      </trkpt>
      <trkpt lat="45.393" lon="6.1408">
        <ele>1888.7</ele>
        <time>2021-02-03T09:36:55Z</time>
      </trkpt>
      <trkpt lat="45.39299" lon="6.1408">
        <ele>1888.9</ele>
        <time>2021-02-03T09:36:56Z</time>
      </trkpt>
      <trkpt lat="45.39299" lon="6.14081">
        <ele>1889</ele>
        <time>2021-02-03T09:36:57Z</time>
      </trkpt>
      <trkpt lat="45.39298" lon="6.14081">
        <ele>1889.2</ele>
        <time>2021-02-03T09:36:58Z</time>
      </trkpt>
      <trkpt lat="45.39298" lon="6.14082">
        <ele>1889.4</ele>
        <time>2021-02-03T09:36:59Z</time>
      </trkpt>
      <trkpt lat="45.39297" lon="6.14082">
        <ele>1889.5</ele>
        <time>2021-02-03T09:37:00Z</time>
      </trkpt>
      <trkpt lat="45.39297" lon="6.14082">
        <ele>1889.7</ele>
        <time>2021-02-03T09:37:01Z</time>
      </trkpt>
      <trkpt lat="45.39296" lon="6.14083">
        <ele>1889.8</ele>
        <time>2021-02-03T09:37:02Z</time>
      </trkpt>
      <trkpt lat="45.39296" lon="6.14083">
        <ele>1890</ele>
        <time>2021-02-03T09:37:03Z</time>
      </trkpt>
      <trkpt lat="45.39295" lon="6.14083">
        <ele>1890.2</ele>
        <time>2021-02-03T09:37:04Z</time>
      </trkpt>
      <trkpt lat="45.39295" lon="6.14084">
        <ele>1890.3</ele>
        <time>2021-02-03T09:37:05Z</time>
      </trkpt>
      <trkpt lat="45.39294" lon="6.14084">
        <ele>1890.4</ele>
        <time>2021-02-03T09:37:06Z</time>
      </trkpt>
      <trkpt lat="45.39294" lon="6.14085">
        <ele>1890.6</ele>
        <time>2021-02-03T09:37:07Z</time>
      </trkpt>
      <trkpt lat="45.39293" lon="6.14085">
        <ele>1890.8</ele>
        <time>2021-02-03T09:37:08Z</time>
      </trkpt>
      <trkpt lat="45.39293" lon="6.14086">
        <ele>1891</ele>
        <time>2021-02-03T09:37:09Z</time>
      </trkpt>
      <trkpt lat="45.39292" lon="6.14086">
        <ele>1891.1</ele>
        <time>2021-02-03T09:37:10Z</time>
      </trkpt>
      <trkpt lat="45.39292" lon="6.14086">
        <ele>1891.3</ele>
        <time>2021-02-03T09:37:11Z</time>
      </trkpt>
      <trkpt lat="45.39291" lon="6.14087">
        <ele>1891.5</ele>
        <time>2021-02-03T09:37:12Z</time>
      </trkpt>
      <trkpt lat="45.3929" lon="6.14087">
        <ele>1891.7</ele>
        <time>2021-02-03T09:37:13Z</time>
      </trkpt>
      <trkpt lat="45.3929" lon="6.14088">
        <ele>1891.9</ele>
        <time>2021-02-03T09:37:14Z</time>
      </trkpt>
      <trkpt lat="45.39289" lon="6.14088">
        <ele>1892.1</ele>
        <time>2021-02-03T09:37:15Z</time>
      </trkpt>
      <trkpt lat="45.39288" lon="6.14089">
        <ele>1892.3</ele>
        <time>2021-02-03T09:37:16Z</time>
      </trkpt>
      <trkpt lat="45.39288" lon="6.14089">
        <ele>1892.5</ele>
        <time>2021-02-03T09:37:17Z</time>
      </trkpt>
      <trkpt lat="45.39287" lon="6.1409">
        <ele>1892.7</ele>
        <time>2021-02-03T09:37:18Z</time>
      </trkpt>
      <trkpt lat="45.39286" lon="6.1409">
        <ele>1892.9</ele>
        <time>2021-02-03T09:37:19Z</time>
      </trkpt>
      <trkpt lat="45.39286" lon="6.14091">
        <ele>1893.1</ele>
        <time>2021-02-03T09:37:20Z</time>
      </trkpt>
      <trkpt lat="45.39285" lon="6.14091">
        <ele>1893.3</ele>
        <time>2021-02-03T09:37:21Z</time>
      </trkpt>
      <trkpt lat="45.39285" lon="6.14092">
        <ele>1893.4</ele>
        <time>2021-02-03T09:37:22Z</time>
      </trkpt>
      <trkpt lat="45.39284" lon="6.14092">
        <ele>1893.6</ele>
        <time>2021-02-03T09:37:23Z</time>
      </trkpt>
      <trkpt lat="45.39283" lon="6.14093">
        <ele>1893.8</ele>
        <time>2021-02-03T09:37:24Z</time>
      </trkpt>
      <trkpt lat="45.39283" lon="6.14093">
        <ele>1894.1</ele>
        <time>2021-02-03T09:37:25Z</time>
      </trkpt>
      <trkpt lat="45.39282" lon="6.14093">
        <ele>1894.2</ele>
        <time>2021-02-03T09:37:26Z</time>
      </trkpt>
      <trkpt lat="45.39281" lon="6.14094">
        <ele>1894.4</ele>
        <time>2021-02-03T09:37:27Z</time>
      </trkpt>
      <trkpt lat="45.39281" lon="6.14095">
        <ele>1894.6</ele>
        <time>2021-02-03T09:37:28Z</time>
      </trkpt>
      <trkpt lat="45.3928" lon="6.14095">
        <ele>1894.8</ele>
        <time>2021-02-03T09:37:29Z</time>
      </trkpt>
      <trkpt lat="45.3928" lon="6.14095">
        <ele>1895</ele>
        <time>2021-02-03T09:37:30Z</time>
      </trkpt>
      <trkpt lat="45.39279" lon="6.14096">
        <ele>1895.1</ele>
        <time>2021-02-03T09:37:31Z</time>
      </trkpt>
      <trkpt lat="45.39278" lon="6.14096">
        <ele>1895.3</ele>
        <time>2021-02-03T09:37:32Z</time>
      </trkpt>
      <trkpt lat="45.39278" lon="6.14096">
        <ele>1895.5</ele>
        <time>2021-02-03T09:37:33Z</time>
      </trkpt>
      <trkpt lat="45.39277" lon="6.14097">
        <ele>1895.6</ele>
        <time>2021-02-03T09:37:34Z</time>
      </trkpt>
      <trkpt lat="45.39277" lon="6.14097">
        <ele>1895.8</ele>
        <time>2021-02-03T09:37:35Z</time>
      </trkpt>
      <trkpt lat="45.39276" lon="6.14097">
        <ele>1896</ele>
        <time>2021-02-03T09:37:36Z</time>
      </trkpt>
      <trkpt lat="45.39276" lon="6.14098">
        <ele>1896.1</ele>
        <time>2021-02-03T09:37:37Z</time>
      </trkpt>
      <trkpt lat="45.39275" lon="6.14098">
        <ele>1896.2</ele>
        <time>2021-02-03T09:37:38Z</time>
      </trkpt>
      <trkpt lat="45.39275" lon="6.14098">
        <ele>1896.4</ele>
        <time>2021-02-03T09:37:39Z</time>
      </trkpt>
      <trkpt lat="45.39274" lon="6.14099">
        <ele>1896.6</ele>
        <time>2021-02-03T09:37:40Z</time>
      </trkpt>
      <trkpt lat="45.39274" lon="6.14099">
        <ele>1896.7</ele>
        <time>2021-02-03T09:37:41Z</time>
      </trkpt>
      <trkpt lat="45.39273" lon="6.14099">
        <ele>1896.9</ele>
        <time>2021-02-03T09:37:42Z</time>
      </trkpt>
      <trkpt lat="45.39273" lon="6.141">
        <ele>1897.1</ele>
        <time>2021-02-03T09:37:43Z</time>
      </trkpt>
      <trkpt lat="45.39272" lon="6.141">
        <ele>1897.3</ele>
        <time>2021-02-03T09:37:44Z</time>
      </trkpt>
      <trkpt lat="45.39271" lon="6.14101">
        <ele>1897.4</ele>
        <time>2021-02-03T09:37:45Z</time>
      </trkpt>
      <trkpt lat="45.39271" lon="6.14101">
        <ele>1897.6</ele>
        <time>2021-02-03T09:37:46Z</time>
      </trkpt>
      <trkpt lat="45.3927" lon="6.14101">
        <ele>1897.7</ele>
        <time>2021-02-03T09:37:47Z</time>
      </trkpt>
      <trkpt lat="45.3927" lon="6.14101">
        <ele>1897.9</ele>
        <time>2021-02-03T09:37:48Z</time>
      </trkpt>
      <trkpt lat="45.39269" lon="6.14102">
        <ele>1898</ele>
        <time>2021-02-03T09:37:49Z</time>
      </trkpt>
      <trkpt lat="45.39269" lon="6.14102">
        <ele>1898.2</ele>
        <time>2021-02-03T09:37:50Z</time>
      </trkpt>
      <trkpt lat="45.39268" lon="6.14102">
        <ele>1898.3</ele>
        <time>2021-02-03T09:37:51Z</time>
      </trkpt>
      <trkpt lat="45.39268" lon="6.14102">
        <ele>1898.5</ele>
        <time>2021-02-03T09:37:52Z</time>
      </trkpt>
      <trkpt lat="45.39267" lon="6.14103">
        <ele>1898.6</ele>
        <time>2021-02-03T09:37:53Z</time>
      </trkpt>
      <trkpt lat="45.39267" lon="6.14103">
        <ele>1898.8</ele>
        <time>2021-02-03T09:37:54Z</time>
      </trkpt>
      <trkpt lat="45.39266" lon="6.14103">
        <ele>1899</ele>
        <time>2021-02-03T09:37:55Z</time>
      </trkpt>
      <trkpt lat="45.39266" lon="6.14103">
        <ele>1899.1</ele>
        <time>2021-02-03T09:37:56Z</time>
      </trkpt>
      <trkpt lat="45.39265" lon="6.14104">
        <ele>1899.3</ele>
        <time>2021-02-03T09:37:57Z</time>
      </trkpt>
      <trkpt lat="45.39264" lon="6.14104">
        <ele>1899.4</ele>
        <time>2021-02-03T09:37:58Z</time>
      </trkpt>
      <trkpt lat="45.39264" lon="6.14104">
        <ele>1899.6</ele>
        <time>2021-02-03T09:37:59Z</time>
      </trkpt>
      <trkpt lat="45.39263" lon="6.14104">
        <ele>1899.8</ele>
        <time>2021-02-03T09:38:00Z</time>
      </trkpt>
      <trkpt lat="45.39262" lon="6.14105">
        <ele>1900</ele>
        <time>2021-02-03T09:38:01Z</time>
      </trkpt>
      <trkpt lat="45.39262" lon="6.14105">
        <ele>1900.2</ele>
        <time>2021-02-03T09:38:02Z</time>
      </trkpt>
      <trkpt lat="45.39261" lon="6.14105">
        <ele>1900.4</ele>
        <time>2021-02-03T09:38:03Z</time>
      </trkpt>
      <trkpt lat="45.3926" lon="6.14105">
        <ele>1900.6</ele>
        <time>2021-02-03T09:38:04Z</time>
      </trkpt>
      <trkpt lat="45.3926" lon="6.14105">
        <ele>1900.8</ele>
        <time>2021-02-03T09:38:05Z</time>
      </trkpt>
      <trkpt lat="45.39259" lon="6.14105">
        <ele>1900.9</ele>
        <time>2021-02-03T09:38:06Z</time>
      </trkpt>
      <trkpt lat="45.39259" lon="6.14106">
        <ele>1901.1</ele>
        <time>2021-02-03T09:38:07Z</time>
      </trkpt>
      <trkpt lat="45.39258" lon="6.14106">
        <ele>1901.2</ele>
        <time>2021-02-03T09:38:08Z</time>
      </trkpt>
      <trkpt lat="45.39257" lon="6.14106">
        <ele>1901.4</ele>
        <time>2021-02-03T09:38:09Z</time>
      </trkpt>
      <trkpt lat="45.39257" lon="6.14106">
        <ele>1901.6</ele>
        <time>2021-02-03T09:38:10Z</time>
      </trkpt>
      <trkpt lat="45.39256" lon="6.14106">
        <ele>1901.7</ele>
        <time>2021-02-03T09:38:11Z</time>
      </trkpt>
      <trkpt lat="45.39256" lon="6.14106">
        <ele>1901.9</ele>
        <time>2021-02-03T09:38:12Z</time>
      </trkpt>
      <trkpt lat="45.39255" lon="6.14106">
        <ele>1902.1</ele>
        <time>2021-02-03T09:38:13Z</time>
      </trkpt>
      <trkpt lat="45.39254" lon="6.14107">
        <ele>1902.2</ele>
        <time>2021-02-03T09:38:14Z</time>
      </trkpt>
      <trkpt lat="45.39254" lon="6.14107">
        <ele>1902.4</ele>
        <time>2021-02-03T09:38:15Z</time>
      </trkpt>
      <trkpt lat="45.39253" lon="6.14107">
        <ele>1902.5</ele>
        <time>2021-02-03T09:38:16Z</time>
      </trkpt>
      <trkpt lat="45.39253" lon="6.14107">
        <ele>1902.7</ele>
        <time>2021-02-03T09:38:17Z</time>
      </trkpt>
      <trkpt lat="45.39252" lon="6.14107">
        <ele>1902.8</ele>
        <time>2021-02-03T09:38:18Z</time>
      </trkpt>
      <trkpt lat="45.39252" lon="6.14108">
        <ele>1903</ele>
        <time>2021-02-03T09:38:19Z</time>
      </trkpt>
      <trkpt lat="45.39251" lon="6.14108">
        <ele>1903.1</ele>
        <time>2021-02-03T09:38:20Z</time>
      </trkpt>
      <trkpt lat="45.3925" lon="6.14108">
        <ele>1903.3</ele>
        <time>2021-02-03T09:38:21Z</time>
      </trkpt>
      <trkpt lat="45.3925" lon="6.14108">
        <ele>1903.4</ele>
        <time>2021-02-03T09:38:22Z</time>
      </trkpt>
      <trkpt lat="45.39249" lon="6.14108">
        <ele>1903.6</ele>
        <time>2021-02-03T09:38:23Z</time>
      </trkpt>
      <trkpt lat="45.39249" lon="6.14108">
        <ele>1903.7</ele>
        <time>2021-02-03T09:38:24Z</time>
      </trkpt>
      <trkpt lat="45.39248" lon="6.14109">
        <ele>1903.9</ele>
        <time>2021-02-03T09:38:25Z</time>
      </trkpt>
      <trkpt lat="45.39247" lon="6.14109">
        <ele>1904</ele>
        <time>2021-02-03T09:38:26Z</time>
      </trkpt>
      <trkpt lat="45.39247" lon="6.14109">
        <ele>1904.2</ele>
        <time>2021-02-03T09:38:27Z</time>
      </trkpt>
      <trkpt lat="45.39246" lon="6.14109">
        <ele>1904.3</ele>
        <time>2021-02-03T09:38:28Z</time>
      </trkpt>
      <trkpt lat="45.39246" lon="6.14109">
        <ele>1904.5</ele>
        <time>2021-02-03T09:38:29Z</time>
      </trkpt>
      <trkpt lat="45.39245" lon="6.14109">
        <ele>1904.6</ele>
        <time>2021-02-03T09:38:30Z</time>
      </trkpt>
      <trkpt lat="45.39245" lon="6.14109">
        <ele>1904.7</ele>
        <time>2021-02-03T09:38:31Z</time>
      </trkpt>
      <trkpt lat="45.39244" lon="6.14109">
        <ele>1904.9</ele>
        <time>2021-02-03T09:38:32Z</time>
      </trkpt>
      <trkpt lat="45.39244" lon="6.14109">
        <ele>1905</ele>
        <time>2021-02-03T09:38:33Z</time>
      </trkpt>
      <trkpt lat="45.39243" lon="6.14109">
        <ele>1905.2</ele>
        <time>2021-02-03T09:38:34Z</time>
      </trkpt>
      <trkpt lat="45.39242" lon="6.14109">
        <ele>1905.3</ele>
        <time>2021-02-03T09:38:35Z</time>
      </trkpt>
      <trkpt lat="45.39242" lon="6.14109">
        <ele>1905.5</ele>
        <time>2021-02-03T09:38:36Z</time>
      </trkpt>
      <trkpt lat="45.39241" lon="6.14109">
        <ele>1905.6</ele>
        <time>2021-02-03T09:38:37Z</time>
      </trkpt>
      <trkpt lat="45.39241" lon="6.14109">
        <ele>1905.8</ele>
        <time>2021-02-03T09:38:38Z</time>
      </trkpt>
      <trkpt lat="45.3924" lon="6.1411">
        <ele>1905.9</ele>
        <time>2021-02-03T09:38:39Z</time>
      </trkpt>
      <trkpt lat="45.3924" lon="6.1411">
        <ele>1906</ele>
        <time>2021-02-03T09:38:40Z</time>
      </trkpt>
      <trkpt lat="45.39239" lon="6.1411">
        <ele>1906.2</ele>
        <time>2021-02-03T09:38:41Z</time>
      </trkpt>
      <trkpt lat="45.39238" lon="6.1411">
        <ele>1906.3</ele>
        <time>2021-02-03T09:38:42Z</time>
      </trkpt>
      <trkpt lat="45.39238" lon="6.1411">
        <ele>1906.5</ele>
        <time>2021-02-03T09:38:43Z</time>
      </trkpt>
      <trkpt lat="45.39237" lon="6.1411">
        <ele>1906.6</ele>
        <time>2021-02-03T09:38:44Z</time>
      </trkpt>
      <trkpt lat="45.39237" lon="6.1411">
        <ele>1906.7</ele>
        <time>2021-02-03T09:38:45Z</time>
      </trkpt>
      <trkpt lat="45.39236" lon="6.14111">
        <ele>1906.9</ele>
        <time>2021-02-03T09:38:46Z</time>
      </trkpt>
      <trkpt lat="45.39236" lon="6.14111">
        <ele>1907</ele>
        <time>2021-02-03T09:38:47Z</time>
      </trkpt>
      <trkpt lat="45.39235" lon="6.14111">
        <ele>1907.2</ele>
        <time>2021-02-03T09:38:48Z</time>
      </trkpt>
      <trkpt lat="45.39235" lon="6.14111">
        <ele>1907.3</ele>
        <time>2021-02-03T09:38:49Z</time>
      </trkpt>
      <trkpt lat="45.39234" lon="6.14111">
        <ele>1907.4</ele>
        <time>2021-02-03T09:38:50Z</time>
      </trkpt>
      <trkpt lat="45.39234" lon="6.14111">
        <ele>1907.6</ele>
        <time>2021-02-03T09:38:51Z</time>
      </trkpt>
      <trkpt lat="45.39233" lon="6.14112">
        <ele>1907.7</ele>
        <time>2021-02-03T09:38:52Z</time>
      </trkpt>
      <trkpt lat="45.39232" lon="6.14112">
        <ele>1907.9</ele>
        <time>2021-02-03T09:38:53Z</time>
      </trkpt>
      <trkpt lat="45.39232" lon="6.14112">
        <ele>1908</ele>
        <time>2021-02-03T09:38:54Z</time>
      </trkpt>
      <trkpt lat="45.39231" lon="6.14112">
        <ele>1908.2</ele>
        <time>2021-02-03T09:38:55Z</time>
      </trkpt>
      <trkpt lat="45.39231" lon="6.14112">
        <ele>1908.3</ele>
        <time>2021-02-03T09:38:56Z</time>
      </trkpt>
      <trkpt lat="45.3923" lon="6.14112">
        <ele>1908.4</ele>
        <time>2021-02-03T09:38:57Z</time>
      </trkpt>
      <trkpt lat="45.39229" lon="6.14113">
        <ele>1908.6</ele>
        <time>2021-02-03T09:38:58Z</time>
      </trkpt>
      <trkpt lat="45.39229" lon="6.14113">
        <ele>1908.7</ele>
        <time>2021-02-03T09:38:59Z</time>
      </trkpt>
      <trkpt lat="45.39228" lon="6.14113">
        <ele>1908.9</ele>
        <time>2021-02-03T09:39:00Z</time>
      </trkpt>
      <trkpt lat="45.39228" lon="6.14113">
        <ele>1909</ele>
        <time>2021-02-03T09:39:01Z</time>
      </trkpt>
      <trkpt lat="45.39227" lon="6.14114">
        <ele>1909.1</ele>
        <time>2021-02-03T09:39:02Z</time>
      </trkpt>
      <trkpt lat="45.39227" lon="6.14114">
        <ele>1909.3</ele>
        <time>2021-02-03T09:39:03Z</time>
      </trkpt>
      <trkpt lat="45.39226" lon="6.14114">
        <ele>1909.4</ele>
        <time>2021-02-03T09:39:04Z</time>
      </trkpt>
      <trkpt lat="45.39226" lon="6.14114">
        <ele>1909.5</ele>
        <time>2021-02-03T09:39:05Z</time>
      </trkpt>
      <trkpt lat="45.39225" lon="6.14114">
        <ele>1909.7</ele>
        <time>2021-02-03T09:39:06Z</time>
      </trkpt>
      <trkpt lat="45.39225" lon="6.14114">
        <ele>1909.8</ele>
        <time>2021-02-03T09:39:07Z</time>
      </trkpt>
      <trkpt lat="45.39224" lon="6.14115">
        <ele>1909.9</ele>
        <time>2021-02-03T09:39:08Z</time>
      </trkpt>
      <trkpt lat="45.39224" lon="6.14115">
        <ele>1910</ele>
        <time>2021-02-03T09:39:09Z</time>
      </trkpt>
      <trkpt lat="45.39223" lon="6.14115">
        <ele>1910.2</ele>
        <time>2021-02-03T09:39:10Z</time>
      </trkpt>
      <trkpt lat="45.39222" lon="6.14115">
        <ele>1910.3</ele>
        <time>2021-02-03T09:39:11Z</time>
      </trkpt>
      <trkpt lat="45.39222" lon="6.14115">
        <ele>1910.5</ele>
        <time>2021-02-03T09:39:12Z</time>
      </trkpt>
      <trkpt lat="45.39221" lon="6.14116">
        <ele>1910.6</ele>
        <time>2021-02-03T09:39:13Z</time>
      </trkpt>
      <trkpt lat="45.39221" lon="6.14116">
        <ele>1910.7</ele>
        <time>2021-02-03T09:39:14Z</time>
      </trkpt>
      <trkpt lat="45.3922" lon="6.14116">
        <ele>1910.9</ele>
        <time>2021-02-03T09:39:15Z</time>
      </trkpt>
      <trkpt lat="45.39219" lon="6.14116">
        <ele>1911</ele>
        <time>2021-02-03T09:39:16Z</time>
      </trkpt>
      <trkpt lat="45.39219" lon="6.14116">
        <ele>1911.1</ele>
        <time>2021-02-03T09:39:17Z</time>
      </trkpt>
      <trkpt lat="45.39218" lon="6.14117">
        <ele>1911.3</ele>
        <time>2021-02-03T09:39:18Z</time>
      </trkpt>
      <trkpt lat="45.39218" lon="6.14117">
        <ele>1911.4</ele>
        <time>2021-02-03T09:39:19Z</time>
      </trkpt>
      <trkpt lat="45.39217" lon="6.14117">
        <ele>1911.5</ele>
        <time>2021-02-03T09:39:20Z</time>
      </trkpt>
      <trkpt lat="45.39217" lon="6.14117">
        <ele>1911.7</ele>
        <time>2021-02-03T09:39:21Z</time>
      </trkpt>
      <trkpt lat="45.39216" lon="6.14117">
        <ele>1911.8</ele>
        <time>2021-02-03T09:39:22Z</time>
      </trkpt>
      <trkpt lat="45.39215" lon="6.14118">
        <ele>1911.9</ele>
        <time>2021-02-03T09:39:23Z</time>
      </trkpt>
      <trkpt lat="45.39215" lon="6.14118">
        <ele>1912.1</ele>
        <time>2021-02-03T09:39:24Z</time>
      </trkpt>
      <trkpt lat="45.39214" lon="6.14118">
        <ele>1912.2</ele>
        <time>2021-02-03T09:39:25Z</time>
      </trkpt>
      <trkpt lat="45.39213" lon="6.14118">
        <ele>1912.4</ele>
        <time>2021-02-03T09:39:26Z</time>
      </trkpt>
      <trkpt lat="45.39213" lon="6.14118">
        <ele>1912.5</ele>
        <time>2021-02-03T09:39:27Z</time>
      </trkpt>
      <trkpt lat="45.39212" lon="6.14119">
        <ele>1912.6</ele>
        <time>2021-02-03T09:39:28Z</time>
      </trkpt>
      <trkpt lat="45.39212" lon="6.14119">
        <ele>1912.7</ele>
        <time>2021-02-03T09:39:29Z</time>
      </trkpt>
      <trkpt lat="45.39211" lon="6.14119">
        <ele>1912.9</ele>
        <time>2021-02-03T09:39:30Z</time>
      </trkpt>
      <trkpt lat="45.39211" lon="6.14119">
        <ele>1913</ele>
        <time>2021-02-03T09:39:31Z</time>
      </trkpt>
      <trkpt lat="45.3921" lon="6.14119">
        <ele>1913.1</ele>
        <time>2021-02-03T09:39:32Z</time>
      </trkpt>
      <trkpt lat="45.39209" lon="6.1412">
        <ele>1913.3</ele>
        <time>2021-02-03T09:39:33Z</time>
      </trkpt>
      <trkpt lat="45.39209" lon="6.1412">
        <ele>1913.4</ele>
        <time>2021-02-03T09:39:34Z</time>
      </trkpt>
      <trkpt lat="45.39208" lon="6.1412">
        <ele>1913.5</ele>
        <time>2021-02-03T09:39:35Z</time>
      </trkpt>
      <trkpt lat="45.39208" lon="6.14121">
        <ele>1913.6</ele>
        <time>2021-02-03T09:39:36Z</time>
      </trkpt>
      <trkpt lat="45.39207" lon="6.14121">
        <ele>1913.7</ele>
        <time>2021-02-03T09:39:37Z</time>
      </trkpt>
      <trkpt lat="45.39207" lon="6.14121">
        <ele>1913.9</ele>
        <time>2021-02-03T09:39:38Z</time>
      </trkpt>
      <trkpt lat="45.39206" lon="6.14122">
        <ele>1914</ele>
        <time>2021-02-03T09:39:39Z</time>
      </trkpt>
      <trkpt lat="45.39206" lon="6.14122">
        <ele>1914.1</ele>
        <time>2021-02-03T09:39:40Z</time>
      </trkpt>
      <trkpt lat="45.39205" lon="6.14122">
        <ele>1914.2</ele>
        <time>2021-02-03T09:39:41Z</time>
      </trkpt>
      <trkpt lat="45.39205" lon="6.14122">
        <ele>1914.4</ele>
        <time>2021-02-03T09:39:42Z</time>
      </trkpt>
      <trkpt lat="45.39204" lon="6.14123">
        <ele>1914.5</ele>
        <time>2021-02-03T09:39:43Z</time>
      </trkpt>
      <trkpt lat="45.39203" lon="6.14123">
        <ele>1914.6</ele>
        <time>2021-02-03T09:39:44Z</time>
      </trkpt>
      <trkpt lat="45.39203" lon="6.14123">
        <ele>1914.8</ele>
        <time>2021-02-03T09:39:45Z</time>
      </trkpt>
      <trkpt lat="45.39202" lon="6.14123">
        <ele>1914.9</ele>
        <time>2021-02-03T09:39:46Z</time>
      </trkpt>
      <trkpt lat="45.39202" lon="6.14124">
        <ele>1915.1</ele>
        <time>2021-02-03T09:39:47Z</time>
      </trkpt>
      <trkpt lat="45.39201" lon="6.14124">
        <ele>1915.2</ele>
        <time>2021-02-03T09:39:48Z</time>
      </trkpt>
      <trkpt lat="45.392" lon="6.14124">
        <ele>1915.3</ele>
        <time>2021-02-03T09:39:49Z</time>
      </trkpt>
      <trkpt lat="45.392" lon="6.14124">
        <ele>1915.5</ele>
        <time>2021-02-03T09:39:50Z</time>
      </trkpt>
      <trkpt lat="45.39199" lon="6.14124">
        <ele>1915.6</ele>
        <time>2021-02-03T09:39:51Z</time>
      </trkpt>
      <trkpt lat="45.39198" lon="6.14124">
        <ele>1915.7</ele>
        <time>2021-02-03T09:39:52Z</time>
      </trkpt>
      <trkpt lat="45.39198" lon="6.14124">
        <ele>1915.8</ele>
        <time>2021-02-03T09:39:53Z</time>
      </trkpt>
      <trkpt lat="45.39197" lon="6.14124">
        <ele>1916</ele>
        <time>2021-02-03T09:39:54Z</time>
      </trkpt>
      <trkpt lat="45.39197" lon="6.14124">
        <ele>1916.1</ele>
        <time>2021-02-03T09:39:55Z</time>
      </trkpt>
      <trkpt lat="45.39196" lon="6.14124">
        <ele>1916.2</ele>
        <time>2021-02-03T09:39:56Z</time>
      </trkpt>
      <trkpt lat="45.39195" lon="6.14124">
        <ele>1916.4</ele>
        <time>2021-02-03T09:39:57Z</time>
      </trkpt>
      <trkpt lat="45.39194" lon="6.14125">
        <ele>1916.5</ele>
        <time>2021-02-03T09:39:58Z</time>
      </trkpt>
      <trkpt lat="45.39194" lon="6.14125">
        <ele>1916.6</ele>
        <time>2021-02-03T09:39:59Z</time>
      </trkpt>
      <trkpt lat="45.39193" lon="6.14125">
        <ele>1916.8</ele>
        <time>2021-02-03T09:40:00Z</time>
      </trkpt>
      <trkpt lat="45.39193" lon="6.14125">
        <ele>1916.9</ele>
        <time>2021-02-03T09:40:01Z</time>
      </trkpt>
      <trkpt lat="45.39192" lon="6.14125">
        <ele>1917</ele>
        <time>2021-02-03T09:40:02Z</time>
      </trkpt>
      <trkpt lat="45.39191" lon="6.14126">
        <ele>1917.1</ele>
        <time>2021-02-03T09:40:03Z</time>
      </trkpt>
      <trkpt lat="45.39191" lon="6.14126">
        <ele>1917.2</ele>
        <time>2021-02-03T09:40:04Z</time>
      </trkpt>
      <trkpt lat="45.3919" lon="6.14126">
        <ele>1917.4</ele>
        <time>2021-02-03T09:40:05Z</time>
      </trkpt>
      <trkpt lat="45.39189" lon="6.14126">
        <ele>1917.5</ele>
        <time>2021-02-03T09:40:06Z</time>
      </trkpt>
      <trkpt lat="45.39188" lon="6.14127">
        <ele>1917.6</ele>
        <time>2021-02-03T09:40:07Z</time>
      </trkpt>
      <trkpt lat="45.39188" lon="6.14127">
        <ele>1917.8</ele>
        <time>2021-02-03T09:40:08Z</time>
      </trkpt>
      <trkpt lat="45.39187" lon="6.14127">
        <ele>1917.9</ele>
        <time>2021-02-03T09:40:09Z</time>
      </trkpt>
      <trkpt lat="45.39186" lon="6.14127">
        <ele>1918</ele>
        <time>2021-02-03T09:40:10Z</time>
      </trkpt>
      <trkpt lat="45.39186" lon="6.14127">
        <ele>1918.2</ele>
        <time>2021-02-03T09:40:11Z</time>
      </trkpt>
      <trkpt lat="45.39185" lon="6.14127">
        <ele>1918.3</ele>
        <time>2021-02-03T09:40:12Z</time>
      </trkpt>
      <trkpt lat="45.39184" lon="6.14128">
        <ele>1918.4</ele>
        <time>2021-02-03T09:40:13Z</time>
      </trkpt>
      <trkpt lat="45.39183" lon="6.14128">
        <ele>1918.5</ele>
        <time>2021-02-03T09:40:14Z</time>
      </trkpt>
      <trkpt lat="45.39183" lon="6.14128">
        <ele>1918.6</ele>
        <time>2021-02-03T09:40:15Z</time>
      </trkpt>
      <trkpt lat="45.39182" lon="6.14128">
        <ele>1918.8</ele>
        <time>2021-02-03T09:40:16Z</time>
      </trkpt>
      <trkpt lat="45.39181" lon="6.14129">
        <ele>1918.9</ele>
        <time>2021-02-03T09:40:17Z</time>
      </trkpt>
      <trkpt lat="45.39181" lon="6.14129">
        <ele>1919</ele>
        <time>2021-02-03T09:40:18Z</time>
      </trkpt>
      <trkpt lat="45.3918" lon="6.14129">
        <ele>1919.1</ele>
        <time>2021-02-03T09:40:19Z</time>
      </trkpt>
      <trkpt lat="45.39179" lon="6.14129">
        <ele>1919.3</ele>
        <time>2021-02-03T09:40:20Z</time>
      </trkpt>
      <trkpt lat="45.39179" lon="6.14129">
        <ele>1919.4</ele>
        <time>2021-02-03T09:40:21Z</time>
      </trkpt>
      <trkpt lat="45.39178" lon="6.1413">
        <ele>1919.5</ele>
        <time>2021-02-03T09:40:22Z</time>
      </trkpt>
      <trkpt lat="45.39177" lon="6.1413">
        <ele>1919.6</ele>
        <time>2021-02-03T09:40:23Z</time>
      </trkpt>
      <trkpt lat="45.39176" lon="6.1413">
        <ele>1919.8</ele>
        <time>2021-02-03T09:40:24Z</time>
      </trkpt>
      <trkpt lat="45.39176" lon="6.14131">
        <ele>1919.9</ele>
        <time>2021-02-03T09:40:25Z</time>
      </trkpt>
      <trkpt lat="45.39175" lon="6.14131">
        <ele>1920</ele>
        <time>2021-02-03T09:40:26Z</time>
      </trkpt>
      <trkpt lat="45.39174" lon="6.14132">
        <ele>1920.1</ele>
        <time>2021-02-03T09:40:27Z</time>
      </trkpt>
      <trkpt lat="45.39174" lon="6.14132">
        <ele>1920.3</ele>
        <time>2021-02-03T09:40:28Z</time>
      </trkpt>
      <trkpt lat="45.39173" lon="6.14132">
        <ele>1920.4</ele>
        <time>2021-02-03T09:40:29Z</time>
      </trkpt>
      <trkpt lat="45.39172" lon="6.14133">
        <ele>1920.5</ele>
        <time>2021-02-03T09:40:30Z</time>
      </trkpt>
      <trkpt lat="45.39172" lon="6.14133">
        <ele>1920.6</ele>
        <time>2021-02-03T09:40:31Z</time>
      </trkpt>
      <trkpt lat="45.39171" lon="6.14134">
        <ele>1920.8</ele>
        <time>2021-02-03T09:40:32Z</time>
      </trkpt>
      <trkpt lat="45.3917" lon="6.14134">
        <ele>1920.9</ele>
        <time>2021-02-03T09:40:33Z</time>
      </trkpt>
      <trkpt lat="45.3917" lon="6.14134">
        <ele>1921</ele>
        <time>2021-02-03T09:40:34Z</time>
      </trkpt>
      <trkpt lat="45.39169" lon="6.14135">
        <ele>1921.1</ele>
        <time>2021-02-03T09:40:35Z</time>
      </trkpt>
      <trkpt lat="45.39168" lon="6.14135">
        <ele>1921.2</ele>
        <time>2021-02-03T09:40:36Z</time>
      </trkpt>
      <trkpt lat="45.39168" lon="6.14135">
        <ele>1921.4</ele>
        <time>2021-02-03T09:40:37Z</time>
      </trkpt>
      <trkpt lat="45.39167" lon="6.14136">
        <ele>1921.5</ele>
        <time>2021-02-03T09:40:38Z</time>
      </trkpt>
      <trkpt lat="45.39166" lon="6.14136">
        <ele>1921.6</ele>
        <time>2021-02-03T09:40:39Z</time>
      </trkpt>
      <trkpt lat="45.39165" lon="6.14136">
        <ele>1921.7</ele>
        <time>2021-02-03T09:40:40Z</time>
      </trkpt>
      <trkpt lat="45.39165" lon="6.14137">
        <ele>1921.9</ele>
        <time>2021-02-03T09:40:41Z</time>
      </trkpt>
      <trkpt lat="45.39164" lon="6.14137">
        <ele>1922</ele>
        <time>2021-02-03T09:40:42Z</time>
      </trkpt>
      <trkpt lat="45.39163" lon="6.14137">
        <ele>1922.2</ele>
        <time>2021-02-03T09:40:43Z</time>
      </trkpt>
      <trkpt lat="45.39162" lon="6.14138">
        <ele>1922.3</ele>
        <time>2021-02-03T09:40:44Z</time>
      </trkpt>
      <trkpt lat="45.39161" lon="6.14138">
        <ele>1922.4</ele>
        <time>2021-02-03T09:40:45Z</time>
      </trkpt>
      <trkpt lat="45.39161" lon="6.14138">
        <ele>1922.5</ele>
        <time>2021-02-03T09:40:46Z</time>
      </trkpt>
      <trkpt lat="45.3916" lon="6.14139">
        <ele>1922.7</ele>
        <time>2021-02-03T09:40:47Z</time>
      </trkpt>
      <trkpt lat="45.39159" lon="6.14139">
        <ele>1922.8</ele>
        <time>2021-02-03T09:40:48Z</time>
      </trkpt>
      <trkpt lat="45.39159" lon="6.1414">
        <ele>1922.9</ele>
        <time>2021-02-03T09:40:49Z</time>
      </trkpt>
      <trkpt lat="45.39158" lon="6.1414">
        <ele>1923</ele>
        <time>2021-02-03T09:40:50Z</time>
      </trkpt>
      <trkpt lat="45.39158" lon="6.1414">
        <ele>1923.1</ele>
        <time>2021-02-03T09:40:51Z</time>
      </trkpt>
      <trkpt lat="45.39157" lon="6.14141">
        <ele>1923.2</ele>
        <time>2021-02-03T09:40:52Z</time>
      </trkpt>
      <trkpt lat="45.39156" lon="6.14141">
        <ele>1923.4</ele>
        <time>2021-02-03T09:40:53Z</time>
      </trkpt>
      <trkpt lat="45.39156" lon="6.14142">
        <ele>1923.5</ele>
        <time>2021-02-03T09:40:54Z</time>
      </trkpt>
      <trkpt lat="45.39155" lon="6.14142">
        <ele>1923.6</ele>
        <time>2021-02-03T09:40:55Z</time>
      </trkpt>
      <trkpt lat="45.39154" lon="6.14143">
        <ele>1923.7</ele>
        <time>2021-02-03T09:40:56Z</time>
      </trkpt>
      <trkpt lat="45.39154" lon="6.14143">
        <ele>1923.8</ele>
        <time>2021-02-03T09:40:57Z</time>
      </trkpt>
      <trkpt lat="45.39153" lon="6.14143">
        <ele>1923.9</ele>
        <time>2021-02-03T09:40:58Z</time>
      </trkpt>
      <trkpt lat="45.39153" lon="6.14143">
        <ele>1924</ele>
        <time>2021-02-03T09:40:59Z</time>
      </trkpt>
      <trkpt lat="45.39152" lon="6.14144">
        <ele>1924.1</ele>
        <time>2021-02-03T09:41:00Z</time>
      </trkpt>
      <trkpt lat="45.39151" lon="6.14144">
        <ele>1924.3</ele>
        <time>2021-02-03T09:41:01Z</time>
      </trkpt>
      <trkpt lat="45.39151" lon="6.14144">
        <ele>1924.4</ele>
        <time>2021-02-03T09:41:02Z</time>
      </trkpt>
      <trkpt lat="45.3915" lon="6.14144">
        <ele>1924.5</ele>
        <time>2021-02-03T09:41:03Z</time>
      </trkpt>
      <trkpt lat="45.39149" lon="6.14144">
        <ele>1924.6</ele>
        <time>2021-02-03T09:41:04Z</time>
      </trkpt>
      <trkpt lat="45.39148" lon="6.14144">
        <ele>1924.8</ele>
        <time>2021-02-03T09:41:05Z</time>
      </trkpt>
      <trkpt lat="45.39148" lon="6.14144">
        <ele>1924.9</ele>
        <time>2021-02-03T09:41:06Z</time>
      </trkpt>
      <trkpt lat="45.39147" lon="6.14144">
        <ele>1925</ele>
        <time>2021-02-03T09:41:07Z</time>
      </trkpt>
      <trkpt lat="45.39146" lon="6.14145">
        <ele>1925.1</ele>
        <time>2021-02-03T09:41:08Z</time>
      </trkpt>
      <trkpt lat="45.39146" lon="6.14145">
        <ele>1925.3</ele>
        <time>2021-02-03T09:41:09Z</time>
      </trkpt>
      <trkpt lat="45.39145" lon="6.14145">
        <ele>1925.4</ele>
        <time>2021-02-03T09:41:10Z</time>
      </trkpt>
      <trkpt lat="45.39144" lon="6.14145">
        <ele>1925.5</ele>
        <time>2021-02-03T09:41:11Z</time>
      </trkpt>
      <trkpt lat="45.39143" lon="6.14145">
        <ele>1925.7</ele>
        <time>2021-02-03T09:41:12Z</time>
      </trkpt>
      <trkpt lat="45.39142" lon="6.14145">
        <ele>1925.8</ele>
        <time>2021-02-03T09:41:13Z</time>
      </trkpt>
      <trkpt lat="45.39142" lon="6.14145">
        <ele>1925.9</ele>
        <time>2021-02-03T09:41:14Z</time>
      </trkpt>
      <trkpt lat="45.39141" lon="6.14145">
        <ele>1926.1</ele>
        <time>2021-02-03T09:41:15Z</time>
      </trkpt>
      <trkpt lat="45.3914" lon="6.14146">
        <ele>1926.2</ele>
        <time>2021-02-03T09:41:16Z</time>
      </trkpt>
      <trkpt lat="45.3914" lon="6.14146">
        <ele>1926.3</ele>
        <time>2021-02-03T09:41:17Z</time>
      </trkpt>
      <trkpt lat="45.39139" lon="6.14146">
        <ele>1926.4</ele>
        <time>2021-02-03T09:41:18Z</time>
      </trkpt>
      <trkpt lat="45.39138" lon="6.14146">
        <ele>1926.6</ele>
        <time>2021-02-03T09:41:19Z</time>
      </trkpt>
      <trkpt lat="45.39137" lon="6.14146">
        <ele>1926.7</ele>
        <time>2021-02-03T09:41:20Z</time>
      </trkpt>
      <trkpt lat="45.39137" lon="6.14147">
        <ele>1926.8</ele>
        <time>2021-02-03T09:41:21Z</time>
      </trkpt>
      <trkpt lat="45.39136" lon="6.14147">
        <ele>1926.9</ele>
        <time>2021-02-03T09:41:22Z</time>
      </trkpt>
      <trkpt lat="45.39135" lon="6.14147">
        <ele>1927.1</ele>
        <time>2021-02-03T09:41:23Z</time>
      </trkpt>
      <trkpt lat="45.39134" lon="6.14147">
        <ele>1927.2</ele>
        <time>2021-02-03T09:41:24Z</time>
      </trkpt>
      <trkpt lat="45.39134" lon="6.14147">
        <ele>1927.3</ele>
        <time>2021-02-03T09:41:25Z</time>
      </trkpt>
      <trkpt lat="45.39133" lon="6.14147">
        <ele>1927.4</ele>
        <time>2021-02-03T09:41:26Z</time>
      </trkpt>
      <trkpt lat="45.39132" lon="6.14147">
        <ele>1927.5</ele>
        <time>2021-02-03T09:41:27Z</time>
      </trkpt>
      <trkpt lat="45.39132" lon="6.14147">
        <ele>1927.6</ele>
        <time>2021-02-03T09:41:28Z</time>
      </trkpt>
      <trkpt lat="45.39131" lon="6.14147">
        <ele>1927.8</ele>
        <time>2021-02-03T09:41:29Z</time>
      </trkpt>
      <trkpt lat="45.3913" lon="6.14147">
        <ele>1927.9</ele>
        <time>2021-02-03T09:41:30Z</time>
      </trkpt>
      <trkpt lat="45.3913" lon="6.14147">
        <ele>1928</ele>
        <time>2021-02-03T09:41:31Z</time>
      </trkpt>
      <trkpt lat="45.39129" lon="6.14147">
        <ele>1928.1</ele>
        <time>2021-02-03T09:41:32Z</time>
      </trkpt>
      <trkpt lat="45.39128" lon="6.14148">
        <ele>1928.2</ele>
        <time>2021-02-03T09:41:33Z</time>
      </trkpt>
      <trkpt lat="45.39127" lon="6.14148">
        <ele>1928.4</ele>
        <time>2021-02-03T09:41:34Z</time>
      </trkpt>
      <trkpt lat="45.39127" lon="6.14148">
        <ele>1928.5</ele>
        <time>2021-02-03T09:41:35Z</time>
      </trkpt>
      <trkpt lat="45.39126" lon="6.14148">
        <ele>1928.6</ele>
        <time>2021-02-03T09:41:36Z</time>
      </trkpt>
      <trkpt lat="45.39125" lon="6.14148">
        <ele>1928.7</ele>
        <time>2021-02-03T09:41:37Z</time>
      </trkpt>
      <trkpt lat="45.39124" lon="6.14148">
        <ele>1928.8</ele>
        <time>2021-02-03T09:41:38Z</time>
      </trkpt>
      <trkpt lat="45.39124" lon="6.14148">
        <ele>1928.9</ele>
        <time>2021-02-03T09:41:39Z</time>
      </trkpt>
      <trkpt lat="45.39123" lon="6.14148">
        <ele>1929</ele>
        <time>2021-02-03T09:41:40Z</time>
      </trkpt>
      <trkpt lat="45.39122" lon="6.14148">
        <ele>1929.2</ele>
        <time>2021-02-03T09:41:41Z</time>
      </trkpt>
      <trkpt lat="45.39121" lon="6.14148">
        <ele>1929.3</ele>
        <time>2021-02-03T09:41:42Z</time>
      </trkpt>
      <trkpt lat="45.39121" lon="6.14148">
        <ele>1929.4</ele>
        <time>2021-02-03T09:41:43Z</time>
      </trkpt>
      <trkpt lat="45.3912" lon="6.14148">
        <ele>1929.5</ele>
        <time>2021-02-03T09:41:44Z</time>
      </trkpt>
      <trkpt lat="45.39119" lon="6.14148">
        <ele>1929.6</ele>
        <time>2021-02-03T09:41:45Z</time>
      </trkpt>
      <trkpt lat="45.39119" lon="6.14148">
        <ele>1929.7</ele>
        <time>2021-02-03T09:41:46Z</time>
      </trkpt>
      <trkpt lat="45.39118" lon="6.14148">
        <ele>1929.8</ele>
        <time>2021-02-03T09:41:47Z</time>
      </trkpt>
      <trkpt lat="45.39117" lon="6.14148">
        <ele>1929.9</ele>
        <time>2021-02-03T09:41:48Z</time>
      </trkpt>
      <trkpt lat="45.39116" lon="6.14149">
        <ele>1930.1</ele>
        <time>2021-02-03T09:41:49Z</time>
      </trkpt>
      <trkpt lat="45.39116" lon="6.14149">
        <ele>1930.2</ele>
        <time>2021-02-03T09:41:50Z</time>
      </trkpt>
      <trkpt lat="45.39115" lon="6.14149">
        <ele>1930.3</ele>
        <time>2021-02-03T09:41:51Z</time>
      </trkpt>
      <trkpt lat="45.39114" lon="6.14149">
        <ele>1930.4</ele>
        <time>2021-02-03T09:41:52Z</time>
      </trkpt>
      <trkpt lat="45.39113" lon="6.14149">
        <ele>1930.5</ele>
        <time>2021-02-03T09:41:53Z</time>
      </trkpt>
      <trkpt lat="45.39113" lon="6.14149">
        <ele>1930.6</ele>
        <time>2021-02-03T09:41:54Z</time>
      </trkpt>
      <trkpt lat="45.39112" lon="6.1415">
        <ele>1930.7</ele>
        <time>2021-02-03T09:41:55Z</time>
      </trkpt>
      <trkpt lat="45.39111" lon="6.1415">
        <ele>1930.8</ele>
        <time>2021-02-03T09:41:56Z</time>
      </trkpt>
      <trkpt lat="45.39111" lon="6.1415">
        <ele>1930.9</ele>
        <time>2021-02-03T09:41:57Z</time>
      </trkpt>
      <trkpt lat="45.3911" lon="6.1415">
        <ele>1931.1</ele>
        <time>2021-02-03T09:41:58Z</time>
      </trkpt>
      <trkpt lat="45.39109" lon="6.1415">
        <ele>1931.1</ele>
        <time>2021-02-03T09:41:59Z</time>
      </trkpt>
      <trkpt lat="45.39108" lon="6.1415">
        <ele>1931.3</ele>
        <time>2021-02-03T09:42:00Z</time>
      </trkpt>
      <trkpt lat="45.39108" lon="6.14151">
        <ele>1931.4</ele>
        <time>2021-02-03T09:42:01Z</time>
      </trkpt>
      <trkpt lat="45.39107" lon="6.14151">
        <ele>1931.5</ele>
        <time>2021-02-03T09:42:02Z</time>
      </trkpt>
      <trkpt lat="45.39106" lon="6.14151">
        <ele>1931.6</ele>
        <time>2021-02-03T09:42:03Z</time>
      </trkpt>
      <trkpt lat="45.39105" lon="6.14151">
        <ele>1931.7</ele>
        <time>2021-02-03T09:42:04Z</time>
      </trkpt>
      <trkpt lat="45.39105" lon="6.14151">
        <ele>1931.8</ele>
        <time>2021-02-03T09:42:05Z</time>
      </trkpt>
      <trkpt lat="45.39104" lon="6.14152">
        <ele>1931.9</ele>
        <time>2021-02-03T09:42:06Z</time>
      </trkpt>
      <trkpt lat="45.39103" lon="6.14152">
        <ele>1932.1</ele>
        <time>2021-02-03T09:42:07Z</time>
      </trkpt>
      <trkpt lat="45.39102" lon="6.14152">
        <ele>1932.2</ele>
        <time>2021-02-03T09:42:08Z</time>
      </trkpt>
      <trkpt lat="45.39102" lon="6.14152">
        <ele>1932.3</ele>
        <time>2021-02-03T09:42:09Z</time>
      </trkpt>
      <trkpt lat="45.39101" lon="6.14153">
        <ele>1932.4</ele>
        <time>2021-02-03T09:42:10Z</time>
      </trkpt>
      <trkpt lat="45.391" lon="6.14153">
        <ele>1932.5</ele>
        <time>2021-02-03T09:42:11Z</time>
      </trkpt>
      <trkpt lat="45.391" lon="6.14153">
        <ele>1932.6</ele>
        <time>2021-02-03T09:42:12Z</time>
      </trkpt>
      <trkpt lat="45.39099" lon="6.14153">
        <ele>1932.7</ele>
        <time>2021-02-03T09:42:13Z</time>
      </trkpt>
      <trkpt lat="45.39098" lon="6.14154">
        <ele>1932.8</ele>
        <time>2021-02-03T09:42:14Z</time>
      </trkpt>
      <trkpt lat="45.39097" lon="6.14154">
        <ele>1932.9</ele>
        <time>2021-02-03T09:42:15Z</time>
      </trkpt>
      <trkpt lat="45.39097" lon="6.14154">
        <ele>1933</ele>
        <time>2021-02-03T09:42:16Z</time>
      </trkpt>
      <trkpt lat="45.39096" lon="6.14155">
        <ele>1933.2</ele>
        <time>2021-02-03T09:42:17Z</time>
      </trkpt>
      <trkpt lat="45.39095" lon="6.14155">
        <ele>1933.3</ele>
        <time>2021-02-03T09:42:18Z</time>
      </trkpt>
      <trkpt lat="45.39095" lon="6.14155">
        <ele>1933.4</ele>
        <time>2021-02-03T09:42:19Z</time>
      </trkpt>
      <trkpt lat="45.39094" lon="6.14156">
        <ele>1933.4</ele>
        <time>2021-02-03T09:42:20Z</time>
      </trkpt>
      <trkpt lat="45.39094" lon="6.14156">
        <ele>1933.5</ele>
        <time>2021-02-03T09:42:21Z</time>
      </trkpt>
      <trkpt lat="45.39093" lon="6.14157">
        <ele>1933.6</ele>
        <time>2021-02-03T09:42:22Z</time>
      </trkpt>
      <trkpt lat="45.39093" lon="6.14157">
        <ele>1933.7</ele>
        <time>2021-02-03T09:42:23Z</time>
      </trkpt>
      <trkpt lat="45.39092" lon="6.14158">
        <ele>1933.8</ele>
        <time>2021-02-03T09:42:24Z</time>
      </trkpt>
      <trkpt lat="45.39092" lon="6.14158">
        <ele>1933.8</ele>
        <time>2021-02-03T09:42:25Z</time>
      </trkpt>
      <trkpt lat="45.39091" lon="6.14158">
        <ele>1933.9</ele>
        <time>2021-02-03T09:42:26Z</time>
      </trkpt>
      <trkpt lat="45.39091" lon="6.14159">
        <ele>1934</ele>
        <time>2021-02-03T09:42:27Z</time>
      </trkpt>
      <trkpt lat="45.3909" lon="6.14159">
        <ele>1934.1</ele>
        <time>2021-02-03T09:42:28Z</time>
      </trkpt>
      <trkpt lat="45.3909" lon="6.1416">
        <ele>1934.2</ele>
        <time>2021-02-03T09:42:29Z</time>
      </trkpt>
      <trkpt lat="45.39089" lon="6.1416">
        <ele>1934.2</ele>
        <time>2021-02-03T09:42:30Z</time>
      </trkpt>
      <trkpt lat="45.39089" lon="6.14161">
        <ele>1934.3</ele>
        <time>2021-02-03T09:49:35Z</time>
      </trkpt>
      <trkpt lat="45.39088" lon="6.14161">
        <ele>1934.4</ele>
        <time>2021-02-03T09:49:36Z</time>
      </trkpt>
      <trkpt lat="45.39088" lon="6.14161">
        <ele>1934.5</ele>
        <time>2021-02-03T09:49:37Z</time>
      </trkpt>
      <trkpt lat="45.39087" lon="6.14162">
        <ele>1934.6</ele>
        <time>2021-02-03T09:49:38Z</time>
      </trkpt>
      <trkpt lat="45.39086" lon="6.14163">
        <ele>1934.8</ele>
        <time>2021-02-03T09:49:39Z</time>
      </trkpt>
      <trkpt lat="45.39085" lon="6.14164">
        <ele>1934.9</ele>
        <time>2021-02-03T09:49:40Z</time>
      </trkpt>
      <trkpt lat="45.39085" lon="6.14165">
        <ele>1935</ele>
        <time>2021-02-03T09:49:41Z</time>
      </trkpt>
      <trkpt lat="45.39084" lon="6.14166">
        <ele>1935.1</ele>
        <time>2021-02-03T09:49:42Z</time>
      </trkpt>
      <trkpt lat="45.39083" lon="6.14167">
        <ele>1935.3</ele>
        <time>2021-02-03T09:49:43Z</time>
      </trkpt>
      <trkpt lat="45.39083" lon="6.14168">
        <ele>1935.4</ele>
        <time>2021-02-03T09:49:44Z</time>
      </trkpt>
      <trkpt lat="45.39082" lon="6.14168">
        <ele>1935.5</ele>
        <time>2021-02-03T09:49:45Z</time>
      </trkpt>
      <trkpt lat="45.39082" lon="6.14169">
        <ele>1935.6</ele>
        <time>2021-02-03T09:49:46Z</time>
      </trkpt>
      <trkpt lat="45.39081" lon="6.1417">
        <ele>1935.7</ele>
        <time>2021-02-03T09:49:47Z</time>
      </trkpt>
      <trkpt lat="45.3908" lon="6.1417">
        <ele>1935.8</ele>
        <time>2021-02-03T09:49:48Z</time>
      </trkpt>
      <trkpt lat="45.39079" lon="6.14171">
        <ele>1935.9</ele>
        <time>2021-02-03T09:49:49Z</time>
      </trkpt>
      <trkpt lat="45.39079" lon="6.14171">
        <ele>1936</ele>
        <time>2021-02-03T09:49:50Z</time>
      </trkpt>
      <trkpt lat="45.39078" lon="6.14172">
        <ele>1936.1</ele>
        <time>2021-02-03T09:49:51Z</time>
      </trkpt>
      <trkpt lat="45.39078" lon="6.14172">
        <ele>1936.2</ele>
        <time>2021-02-03T09:49:52Z</time>
      </trkpt>
      <trkpt lat="45.39077" lon="6.14173">
        <ele>1936.3</ele>
        <time>2021-02-03T09:49:53Z</time>
      </trkpt>
      <trkpt lat="45.39076" lon="6.14173">
        <ele>1936.4</ele>
        <time>2021-02-03T09:49:54Z</time>
      </trkpt>
      <trkpt lat="45.39076" lon="6.14174">
        <ele>1936.5</ele>
        <time>2021-02-03T09:49:55Z</time>
      </trkpt>
      <trkpt lat="45.39075" lon="6.14175">
        <ele>1936.7</ele>
        <time>2021-02-03T09:49:56Z</time>
      </trkpt>
      <trkpt lat="45.39074" lon="6.14176">
        <ele>1936.8</ele>
        <time>2021-02-03T09:49:57Z</time>
      </trkpt>
      <trkpt lat="45.39074" lon="6.14176">
        <ele>1936.9</ele>
        <time>2021-02-03T09:49:58Z</time>
      </trkpt>
      <trkpt lat="45.39073" lon="6.14177">
        <ele>1936.9</ele>
        <time>2021-02-03T09:49:59Z</time>
      </trkpt>
      <trkpt lat="45.39073" lon="6.14177">
        <ele>1937</ele>
        <time>2021-02-03T09:50:00Z</time>
      </trkpt>
      <trkpt lat="45.39072" lon="6.14177">
        <ele>1937.1</ele>
        <time>2021-02-03T09:50:01Z</time>
      </trkpt>
      <trkpt lat="45.39071" lon="6.14177">
        <ele>1937.2</ele>
        <time>2021-02-03T09:50:02Z</time>
      </trkpt>
      <trkpt lat="45.39071" lon="6.14177">
        <ele>1937.3</ele>
        <time>2021-02-03T09:50:03Z</time>
      </trkpt>
      <trkpt lat="45.3907" lon="6.14177">
        <ele>1937.3</ele>
        <time>2021-02-03T09:50:04Z</time>
      </trkpt>
      <trkpt lat="45.39069" lon="6.14177">
        <ele>1937.4</ele>
        <time>2021-02-03T09:50:05Z</time>
      </trkpt>
      <trkpt lat="45.39069" lon="6.14177">
        <ele>1937.5</ele>
        <time>2021-02-03T09:50:06Z</time>
      </trkpt>
      <trkpt lat="45.39068" lon="6.14177">
        <ele>1937.6</ele>
        <time>2021-02-03T09:50:07Z</time>
      </trkpt>
      <trkpt lat="45.39068" lon="6.14177">
        <ele>1937.7</ele>
        <time>2021-02-03T09:50:08Z</time>
      </trkpt>
      <trkpt lat="45.39067" lon="6.14177">
        <ele>1937.7</ele>
        <time>2021-02-03T09:50:09Z</time>
      </trkpt>
      <trkpt lat="45.39066" lon="6.14177">
        <ele>1937.8</ele>
        <time>2021-02-03T09:50:10Z</time>
      </trkpt>
      <trkpt lat="45.39066" lon="6.14177">
        <ele>1937.9</ele>
        <time>2021-02-03T09:50:11Z</time>
      </trkpt>
      <trkpt lat="45.39065" lon="6.14178">
        <ele>1938</ele>
        <time>2021-02-03T09:50:12Z</time>
      </trkpt>
      <trkpt lat="45.39065" lon="6.14178">
        <ele>1938.1</ele>
        <time>2021-02-03T09:50:13Z</time>
      </trkpt>
      <trkpt lat="45.39064" lon="6.14178">
        <ele>1938.1</ele>
        <time>2021-02-03T09:50:14Z</time>
      </trkpt>
      <trkpt lat="45.39064" lon="6.14178">
        <ele>1938.2</ele>
        <time>2021-02-03T09:50:15Z</time>
      </trkpt>
      <trkpt lat="45.39063" lon="6.14178">
        <ele>1938.2</ele>
        <time>2021-02-03T09:50:16Z</time>
      </trkpt>
      <trkpt lat="45.39063" lon="6.14178">
        <ele>1938.3</ele>
        <time>2021-02-03T09:50:17Z</time>
      </trkpt>
      <trkpt lat="45.39063" lon="6.14178">
        <ele>1938.3</ele>
        <time>2021-02-03T09:50:18Z</time>
      </trkpt>
      <trkpt lat="45.39062" lon="6.14178">
        <ele>1938.4</ele>
        <time>2021-02-03T09:50:19Z</time>
      </trkpt>
      <trkpt lat="45.39062" lon="6.14179">
        <ele>1938.5</ele>
        <time>2021-02-03T09:50:20Z</time>
      </trkpt>
      <trkpt lat="45.39061" lon="6.14179">
        <ele>1938.5</ele>
        <time>2021-02-03T09:50:21Z</time>
      </trkpt>
      <trkpt lat="45.39061" lon="6.14179">
        <ele>1938.6</ele>
        <time>2021-02-03T09:50:22Z</time>
      </trkpt>
      <trkpt lat="45.3906" lon="6.14179">
        <ele>1938.7</ele>
        <time>2021-02-03T09:50:23Z</time>
      </trkpt>
      <trkpt lat="45.3906" lon="6.1418">
        <ele>1938.7</ele>
        <time>2021-02-03T09:50:24Z</time>
      </trkpt>
      <trkpt lat="45.39059" lon="6.1418">
        <ele>1938.8</ele>
        <time>2021-02-03T09:50:25Z</time>
      </trkpt>
      <trkpt lat="45.39059" lon="6.1418">
        <ele>1938.8</ele>
        <time>2021-02-03T09:50:26Z</time>
      </trkpt>
      <trkpt lat="45.39058" lon="6.1418">
        <ele>1938.9</ele>
        <time>2021-02-03T09:50:27Z</time>
      </trkpt>
      <trkpt lat="45.39058" lon="6.1418">
        <ele>1938.9</ele>
        <time>2021-02-03T09:50:28Z</time>
      </trkpt>
      <trkpt lat="45.39057" lon="6.14181">
        <ele>1938.9</ele>
        <time>2021-02-03T09:50:29Z</time>
      </trkpt>
      <trkpt lat="45.39057" lon="6.14181">
        <ele>1938.9</ele>
        <time>2021-02-03T09:50:30Z</time>
      </trkpt>
      <trkpt lat="45.39056" lon="6.14181">
        <ele>1938.9</ele>
        <time>2021-02-03T09:50:31Z</time>
      </trkpt>
      <trkpt lat="45.39056" lon="6.14182">
        <ele>1938.9</ele>
        <time>2021-02-03T09:50:32Z</time>
      </trkpt>
      <trkpt lat="45.39055" lon="6.14182">
        <ele>1939.1</ele>
        <time>2021-02-03T09:50:33Z</time>
      </trkpt>
      <trkpt lat="45.39055" lon="6.14182">
        <ele>1939.1</ele>
        <time>2021-02-03T09:50:34Z</time>
      </trkpt>
      <trkpt lat="45.39054" lon="6.14183">
        <ele>1939.1</ele>
        <time>2021-02-03T09:50:35Z</time>
      </trkpt>
      <trkpt lat="45.39054" lon="6.14183">
        <ele>1940.7</ele>
        <time>2021-02-03T09:50:36Z</time>
      </trkpt>
      <trkpt lat="45.39053" lon="6.14184">
        <ele>1940.7</ele>
        <time>2021-02-03T09:50:37Z</time>
      </trkpt>
      <trkpt lat="45.39053" lon="6.14184">
        <ele>1940.7</ele>
        <time>2021-02-03T09:50:38Z</time>
      </trkpt>
      <trkpt lat="45.39053" lon="6.14185">
        <ele>1940.7</ele>
        <time>2021-02-03T09:50:39Z</time>
      </trkpt>
      <trkpt lat="45.39052" lon="6.14186">
        <ele>1940.9</ele>
        <time>2021-02-03T09:50:40Z</time>
      </trkpt>
      <trkpt lat="45.39052" lon="6.14186">
        <ele>1940.9</ele>
        <time>2021-02-03T09:50:41Z</time>
      </trkpt>
      <trkpt lat="45.39052" lon="6.14187">
        <ele>1940.9</ele>
        <time>2021-02-03T09:50:42Z</time>
      </trkpt>
      <trkpt lat="45.39052" lon="6.14188">
        <ele>1942.4</ele>
        <time>2021-02-03T09:50:43Z</time>
      </trkpt>
      <trkpt lat="45.39052" lon="6.14189">
        <ele>1942.4</ele>
        <time>2021-02-03T09:50:44Z</time>
      </trkpt>
      <trkpt lat="45.39052" lon="6.1419">
        <ele>1942.4</ele>
        <time>2021-02-03T09:50:45Z</time>
      </trkpt>
      <trkpt lat="45.39052" lon="6.14191">
        <ele>1942.4</ele>
        <time>2021-02-03T09:50:46Z</time>
      </trkpt>
      <trkpt lat="45.39052" lon="6.14192">
        <ele>1943.8</ele>
        <time>2021-02-03T09:50:47Z</time>
      </trkpt>
      <trkpt lat="45.39053" lon="6.14193">
        <ele>1943.6</ele>
        <time>2021-02-03T09:50:48Z</time>
      </trkpt>
      <trkpt lat="45.39053" lon="6.14193">
        <ele>1943.6</ele>
        <time>2021-02-03T09:50:49Z</time>
      </trkpt>
      <trkpt lat="45.39053" lon="6.14194">
        <ele>1943.6</ele>
        <time>2021-02-03T09:50:50Z</time>
      </trkpt>
      <trkpt lat="45.39054" lon="6.14195">
        <ele>1943.6</ele>
        <time>2021-02-03T09:50:51Z</time>
      </trkpt>
      <trkpt lat="45.39054" lon="6.14195">
        <ele>1943.6</ele>
        <time>2021-02-03T09:50:52Z</time>
      </trkpt>
      <trkpt lat="45.39054" lon="6.14196">
        <ele>1943.6</ele>
        <time>2021-02-03T09:50:53Z</time>
      </trkpt>
      <trkpt lat="45.39055" lon="6.14196">
        <ele>1944.9</ele>
        <time>2021-02-03T09:50:54Z</time>
      </trkpt>
      <trkpt lat="45.39055" lon="6.14197">
        <ele>1944.9</ele>
        <time>2021-02-03T09:50:55Z</time>
      </trkpt>
      <trkpt lat="45.39056" lon="6.14198">
        <ele>1944.6</ele>
        <time>2021-02-03T09:50:56Z</time>
      </trkpt>
      <trkpt lat="45.39056" lon="6.14199">
        <ele>1944.6</ele>
        <time>2021-02-03T09:50:57Z</time>
      </trkpt>
      <trkpt lat="45.39056" lon="6.142">
        <ele>1944.6</ele>
        <time>2021-02-03T09:50:58Z</time>
      </trkpt>
      <trkpt lat="45.39057" lon="6.14201">
        <ele>1945.7</ele>
        <time>2021-02-03T09:50:59Z</time>
      </trkpt>
      <trkpt lat="45.39057" lon="6.14202">
        <ele>1945.7</ele>
        <time>2021-02-03T09:51:00Z</time>
      </trkpt>
      <trkpt lat="45.39057" lon="6.14203">
        <ele>1945.7</ele>
        <time>2021-02-03T09:51:01Z</time>
      </trkpt>
      <trkpt lat="45.39058" lon="6.14204">
        <ele>1945.7</ele>
        <time>2021-02-03T09:51:07Z</time>
      </trkpt>
      <trkpt lat="45.39058" lon="6.14205">
        <ele>1946.7</ele>
        <time>2021-02-03T09:51:08Z</time>
      </trkpt>
      <trkpt lat="45.39059" lon="6.14206">
        <ele>1946.3</ele>
        <time>2021-02-03T09:51:09Z</time>
      </trkpt>
      <trkpt lat="45.39059" lon="6.14206">
        <ele>1946.3</ele>
        <time>2021-02-03T09:51:10Z</time>
      </trkpt>
      <trkpt lat="45.39059" lon="6.14207">
        <ele>1946.3</ele>
        <time>2021-02-03T09:51:11Z</time>
      </trkpt>
      <trkpt lat="45.3906" lon="6.14208">
        <ele>1946.3</ele>
        <time>2021-02-03T09:51:12Z</time>
      </trkpt>
      <trkpt lat="45.3906" lon="6.14209">
        <ele>1947.2</ele>
        <time>2021-02-03T09:51:13Z</time>
      </trkpt>
      <trkpt lat="45.3906" lon="6.1421">
        <ele>1947.2</ele>
        <time>2021-02-03T09:51:14Z</time>
      </trkpt>
      <trkpt lat="45.39061" lon="6.14211">
        <ele>1947.2</ele>
        <time>2021-02-03T09:51:15Z</time>
      </trkpt>
      <trkpt lat="45.39061" lon="6.14211">
        <ele>1947.2</ele>
        <time>2021-02-03T09:51:16Z</time>
      </trkpt>
      <trkpt lat="45.39061" lon="6.14212">
        <ele>1947.2</ele>
        <time>2021-02-03T09:51:17Z</time>
      </trkpt>
      <trkpt lat="45.39062" lon="6.14213">
        <ele>1946.8</ele>
        <time>2021-02-03T09:51:18Z</time>
      </trkpt>
      <trkpt lat="45.39062" lon="6.14213">
        <ele>1947.6</ele>
        <time>2021-02-03T09:51:19Z</time>
      </trkpt>
      <trkpt lat="45.39063" lon="6.14214">
        <ele>1947.6</ele>
        <time>2021-02-03T09:51:20Z</time>
      </trkpt>
      <trkpt lat="45.39063" lon="6.14215">
        <ele>1947.6</ele>
        <time>2021-02-03T09:51:21Z</time>
      </trkpt>
      <trkpt lat="45.39063" lon="6.14216">
        <ele>1947.6</ele>
        <time>2021-02-03T09:51:22Z</time>
      </trkpt>
      <trkpt lat="45.39064" lon="6.14217">
        <ele>1947.6</ele>
        <time>2021-02-03T09:51:23Z</time>
      </trkpt>
      <trkpt lat="45.39064" lon="6.14217">
        <ele>1947.6</ele>
        <time>2021-02-03T09:51:24Z</time>
      </trkpt>
      <trkpt lat="45.39064" lon="6.14218">
        <ele>1948.2</ele>
        <time>2021-02-03T09:51:25Z</time>
      </trkpt>
      <trkpt lat="45.39065" lon="6.14219">
        <ele>1947.8</ele>
        <time>2021-02-03T09:51:26Z</time>
      </trkpt>
      <trkpt lat="45.39065" lon="6.14219">
        <ele>1947.8</ele>
        <time>2021-02-03T09:51:27Z</time>
      </trkpt>
      <trkpt lat="45.39065" lon="6.1422">
        <ele>1947.8</ele>
        <time>2021-02-03T09:51:28Z</time>
      </trkpt>
      <trkpt lat="45.39065" lon="6.14221">
        <ele>1947.8</ele>
        <time>2021-02-03T09:51:29Z</time>
      </trkpt>
      <trkpt lat="45.39065" lon="6.14221">
        <ele>1947.8</ele>
        <time>2021-02-03T09:51:30Z</time>
      </trkpt>
      <trkpt lat="45.39066" lon="6.14222">
        <ele>1948.4</ele>
        <time>2021-02-03T09:51:31Z</time>
      </trkpt>
      <trkpt lat="45.39066" lon="6.14222">
        <ele>1948.4</ele>
        <time>2021-02-03T09:51:32Z</time>
      </trkpt>
      <trkpt lat="45.39066" lon="6.14222">
        <ele>1948.4</ele>
        <time>2021-02-03T09:51:33Z</time>
      </trkpt>
      <trkpt lat="45.39067" lon="6.14223">
        <ele>1948.4</ele>
        <time>2021-02-03T09:51:34Z</time>
      </trkpt>
      <trkpt lat="45.39067" lon="6.14223">
        <ele>1948.4</ele>
        <time>2021-02-03T09:51:35Z</time>
      </trkpt>
      <trkpt lat="45.39067" lon="6.14223">
        <ele>1948.4</ele>
        <time>2021-02-03T09:51:36Z</time>
      </trkpt>
      <trkpt lat="45.39067" lon="6.14224">
        <ele>1948.4</ele>
        <time>2021-02-03T09:51:37Z</time>
      </trkpt>
      <trkpt lat="45.39067" lon="6.14224">
        <ele>1948.4</ele>
        <time>2021-02-03T09:51:38Z</time>
      </trkpt>
      <trkpt lat="45.39068" lon="6.14225">
        <ele>1947.9</ele>
        <time>2021-02-03T09:51:39Z</time>
      </trkpt>
      <trkpt lat="45.39068" lon="6.14225">
        <ele>1947.9</ele>
        <time>2021-02-03T09:51:40Z</time>
      </trkpt>
      <trkpt lat="45.39068" lon="6.14226">
        <ele>1948.3</ele>
        <time>2021-02-03T09:51:41Z</time>
      </trkpt>
      <trkpt lat="45.39068" lon="6.14227">
        <ele>1948.3</ele>
        <time>2021-02-03T09:51:42Z</time>
      </trkpt>
      <trkpt lat="45.39069" lon="6.14227">
        <ele>1948.3</ele>
        <time>2021-02-03T09:51:43Z</time>
      </trkpt>
      <trkpt lat="45.39069" lon="6.14228">
        <ele>1948.3</ele>
        <time>2021-02-03T09:51:44Z</time>
      </trkpt>
      <trkpt lat="45.3907" lon="6.14229">
        <ele>1948.3</ele>
        <time>2021-02-03T09:51:45Z</time>
      </trkpt>
      <trkpt lat="45.3907" lon="6.14229">
        <ele>1948.3</ele>
        <time>2021-02-03T09:51:46Z</time>
      </trkpt>
      <trkpt lat="45.3907" lon="6.1423">
        <ele>1948.3</ele>
        <time>2021-02-03T09:51:47Z</time>
      </trkpt>
      <trkpt lat="45.3907" lon="6.1423">
        <ele>1948.6</ele>
        <time>2021-02-03T09:51:48Z</time>
      </trkpt>
      <trkpt lat="45.39071" lon="6.14231">
        <ele>1948.1</ele>
        <time>2021-02-03T09:51:49Z</time>
      </trkpt>
      <trkpt lat="45.39071" lon="6.14232">
        <ele>1948.1</ele>
        <time>2021-02-03T09:51:50Z</time>
      </trkpt>
      <trkpt lat="45.39071" lon="6.14232">
        <ele>1948.1</ele>
        <time>2021-02-03T09:51:51Z</time>
      </trkpt>
      <trkpt lat="45.39072" lon="6.14233">
        <ele>1948.1</ele>
        <time>2021-02-03T09:51:52Z</time>
      </trkpt>
      <trkpt lat="45.39072" lon="6.14233">
        <ele>1948.1</ele>
        <time>2021-02-03T09:51:53Z</time>
      </trkpt>
      <trkpt lat="45.39072" lon="6.14234">
        <ele>1948.1</ele>
        <time>2021-02-03T09:51:54Z</time>
      </trkpt>
      <trkpt lat="45.39073" lon="6.14234">
        <ele>1948.1</ele>
        <time>2021-02-03T09:51:55Z</time>
      </trkpt>
      <trkpt lat="45.39073" lon="6.14235">
        <ele>1948.3</ele>
        <time>2021-02-03T09:51:56Z</time>
      </trkpt>
      <trkpt lat="45.39074" lon="6.14235">
        <ele>1947.4</ele>
        <time>2021-02-03T09:51:57Z</time>
      </trkpt>
      <trkpt lat="45.39074" lon="6.14236">
        <ele>1947.4</ele>
        <time>2021-02-03T09:51:58Z</time>
      </trkpt>
      <trkpt lat="45.39074" lon="6.14236">
        <ele>1947.4</ele>
        <time>2021-02-03T09:51:59Z</time>
      </trkpt>
      <trkpt lat="45.39075" lon="6.1424">
        <ele>1947.5</ele>
        <time>2021-02-03T09:52:00Z</time>
      </trkpt>
      <trkpt lat="45.39075" lon="6.14243">
        <ele>1947.5</ele>
        <time>2021-02-03T09:52:01Z</time>
      </trkpt>
      <trkpt lat="45.39076" lon="6.14246">
        <ele>1947.4</ele>
        <time>2021-02-03T09:52:19Z</time>
      </trkpt>
      <trkpt lat="45.39076" lon="6.14249">
        <ele>1947.4</ele>
        <time>2021-02-03T09:52:20Z</time>
      </trkpt>
      <trkpt lat="45.39076" lon="6.14252">
        <ele>1947.3</ele>
        <time>2021-02-03T09:52:21Z</time>
      </trkpt>
      <trkpt lat="45.39076" lon="6.14253">
        <ele>1947.3</ele>
        <time>2021-02-03T09:52:22Z</time>
      </trkpt>
      <trkpt lat="45.39076" lon="6.14254">
        <ele>1947.3</ele>
        <time>2021-02-03T09:52:23Z</time>
      </trkpt>
      <trkpt lat="45.39075" lon="6.14255">
        <ele>1947.3</ele>
        <time>2021-02-03T09:52:24Z</time>
      </trkpt>
      <trkpt lat="45.39075" lon="6.14256">
        <ele>1947.1</ele>
        <time>2021-02-03T09:52:25Z</time>
      </trkpt>
      <trkpt lat="45.39075" lon="6.14257">
        <ele>1947.1</ele>
        <time>2021-02-03T09:52:26Z</time>
      </trkpt>
      <trkpt lat="45.39075" lon="6.14258">
        <ele>1947.1</ele>
        <time>2021-02-03T09:52:27Z</time>
      </trkpt>
      <trkpt lat="45.39075" lon="6.14259">
        <ele>1947.1</ele>
        <time>2021-02-03T09:52:28Z</time>
      </trkpt>
      <trkpt lat="45.39075" lon="6.14259">
        <ele>1947.1</ele>
        <time>2021-02-03T09:52:29Z</time>
      </trkpt>
      <trkpt lat="45.39075" lon="6.1426">
        <ele>1947</ele>
        <time>2021-02-03T09:52:30Z</time>
      </trkpt>
      <trkpt lat="45.39074" lon="6.14261">
        <ele>1947</ele>
        <time>2021-02-03T09:52:31Z</time>
      </trkpt>
      <trkpt lat="45.39074" lon="6.14262">
        <ele>1947</ele>
        <time>2021-02-03T09:52:32Z</time>
      </trkpt>
      <trkpt lat="45.39074" lon="6.14263">
        <ele>1947</ele>
        <time>2021-02-03T09:52:33Z</time>
      </trkpt>
      <trkpt lat="45.39074" lon="6.14264">
        <ele>1947</ele>
        <time>2021-02-03T09:52:34Z</time>
      </trkpt>
      <trkpt lat="45.39074" lon="6.14265">
        <ele>1946.8</ele>
        <time>2021-02-03T09:52:35Z</time>
      </trkpt>
      <trkpt lat="45.39074" lon="6.14265">
        <ele>1946.8</ele>
        <time>2021-02-03T09:52:36Z</time>
      </trkpt>
      <trkpt lat="45.39074" lon="6.14265">
        <ele>1946.8</ele>
        <time>2021-02-03T09:52:37Z</time>
      </trkpt>
      <trkpt lat="45.39074" lon="6.14266">
        <ele>1946.8</ele>
        <time>2021-02-03T09:52:38Z</time>
      </trkpt>
      <trkpt lat="45.39074" lon="6.14266">
        <ele>1946.8</ele>
        <time>2021-02-03T09:52:39Z</time>
      </trkpt>
      <trkpt lat="45.39074" lon="6.14267">
        <ele>1946.8</ele>
        <time>2021-02-03T09:52:40Z</time>
      </trkpt>
      <trkpt lat="45.39074" lon="6.14267">
        <ele>1946.8</ele>
        <time>2021-02-03T09:52:41Z</time>
      </trkpt>
      <trkpt lat="45.39074" lon="6.14268">
        <ele>1946.8</ele>
        <time>2021-02-03T09:52:42Z</time>
      </trkpt>
      <trkpt lat="45.39074" lon="6.14269">
        <ele>1946.8</ele>
        <time>2021-02-03T09:52:43Z</time>
      </trkpt>
      <trkpt lat="45.39074" lon="6.14269">
        <ele>1946.5</ele>
        <time>2021-02-03T09:52:44Z</time>
      </trkpt>
      <trkpt lat="45.39074" lon="6.1427">
        <ele>1946.5</ele>
        <time>2021-02-03T09:52:45Z</time>
      </trkpt>
      <trkpt lat="45.39074" lon="6.1427">
        <ele>1946.5</ele>
        <time>2021-02-03T09:52:46Z</time>
      </trkpt>
      <trkpt lat="45.39074" lon="6.14271">
        <ele>1946.5</ele>
        <time>2021-02-03T09:52:47Z</time>
      </trkpt>
      <trkpt lat="45.39074" lon="6.14271">
        <ele>1946.5</ele>
        <time>2021-02-03T09:52:48Z</time>
      </trkpt>
      <trkpt lat="45.39073" lon="6.14272">
        <ele>1947.6</ele>
        <time>2021-02-03T09:52:49Z</time>
      </trkpt>
      <trkpt lat="45.39073" lon="6.14273">
        <ele>1947.6</ele>
        <time>2021-02-03T09:52:50Z</time>
      </trkpt>
      <trkpt lat="45.39073" lon="6.14273">
        <ele>1947.4</ele>
        <time>2021-02-03T09:52:51Z</time>
      </trkpt>
      <trkpt lat="45.39072" lon="6.14274">
        <ele>1947.4</ele>
        <time>2021-02-03T09:52:52Z</time>
      </trkpt>
      <trkpt lat="45.39072" lon="6.14274">
        <ele>1947.4</ele>
        <time>2021-02-03T09:52:53Z</time>
      </trkpt>
      <trkpt lat="45.39072" lon="6.14274">
        <ele>1947.4</ele>
        <time>2021-02-03T09:52:54Z</time>
      </trkpt>
      <trkpt lat="45.39071" lon="6.14274">
        <ele>1947.4</ele>
        <time>2021-02-03T09:52:55Z</time>
      </trkpt>
      <trkpt lat="45.3907" lon="6.14274">
        <ele>1948.1</ele>
        <time>2021-02-03T09:52:56Z</time>
      </trkpt>
      <trkpt lat="45.3907" lon="6.14275">
        <ele>1948.1</ele>
        <time>2021-02-03T09:52:57Z</time>
      </trkpt>
      <trkpt lat="45.39069" lon="6.14275">
        <ele>1948.1</ele>
        <time>2021-02-03T09:52:58Z</time>
      </trkpt>
      <trkpt lat="45.39069" lon="6.14275">
        <ele>1948.1</ele>
        <time>2021-02-03T09:52:59Z</time>
      </trkpt>
      <trkpt lat="45.39068" lon="6.14275">
        <ele>1948.1</ele>
        <time>2021-02-03T09:53:00Z</time>
      </trkpt>
      <trkpt lat="45.39068" lon="6.14275">
        <ele>1948.1</ele>
        <time>2021-02-03T09:53:01Z</time>
      </trkpt>
      <trkpt lat="45.39067" lon="6.14275">
        <ele>1948.8</ele>
        <time>2021-02-03T09:53:02Z</time>
      </trkpt>
      <trkpt lat="45.39067" lon="6.14275">
        <ele>1948.8</ele>
        <time>2021-02-03T09:53:03Z</time>
      </trkpt>
      <trkpt lat="45.39067" lon="6.14275">
        <ele>1948.8</ele>
        <time>2021-02-03T09:53:04Z</time>
      </trkpt>
      <trkpt lat="45.39067" lon="6.14275">
        <ele>1948.8</ele>
        <time>2021-02-03T09:53:05Z</time>
      </trkpt>
      <trkpt lat="45.39067" lon="6.14275">
        <ele>1948.8</ele>
        <time>2021-02-03T09:53:06Z</time>
      </trkpt>
      <trkpt lat="45.39067" lon="6.14275">
        <ele>1948.8</ele>
        <time>2021-02-03T09:53:07Z</time>
      </trkpt>
      <trkpt lat="45.39067" lon="6.14275">
        <ele>1948.8</ele>
        <time>2021-02-03T09:53:08Z</time>
      </trkpt>
      <trkpt lat="45.39067" lon="6.14275">
        <ele>1948.8</ele>
        <time>2021-02-03T09:53:09Z</time>
      </trkpt>
      <trkpt lat="45.39066" lon="6.14276">
        <ele>1948.8</ele>
        <time>2021-02-03T09:53:10Z</time>
      </trkpt>
      <trkpt lat="45.39066" lon="6.14277">
        <ele>1948.8</ele>
        <time>2021-02-03T09:53:11Z</time>
      </trkpt>
      <trkpt lat="45.39066" lon="6.14277">
        <ele>1948.8</ele>
        <time>2021-02-03T09:53:12Z</time>
      </trkpt>
      <trkpt lat="45.39066" lon="6.14278">
        <ele>1948.5</ele>
        <time>2021-02-03T09:53:13Z</time>
      </trkpt>
      <trkpt lat="45.39066" lon="6.14278">
        <ele>1948.5</ele>
        <time>2021-02-03T09:53:14Z</time>
      </trkpt>
      <trkpt lat="45.39066" lon="6.14279">
        <ele>1948.5</ele>
        <time>2021-02-03T09:53:15Z</time>
      </trkpt>
      <trkpt lat="45.39066" lon="6.1428">
        <ele>1948.5</ele>
        <time>2021-02-03T09:53:16Z</time>
      </trkpt>
      <trkpt lat="45.39066" lon="6.1428">
        <ele>1948.5</ele>
        <time>2021-02-03T09:53:17Z</time>
      </trkpt>
      <trkpt lat="45.39066" lon="6.14281">
        <ele>1948.5</ele>
        <time>2021-02-03T09:53:18Z</time>
      </trkpt>
      <trkpt lat="45.39066" lon="6.14282">
        <ele>1948.3</ele>
        <time>2021-02-03T09:53:19Z</time>
      </trkpt>
      <trkpt lat="45.39066" lon="6.14282">
        <ele>1948.3</ele>
        <time>2021-02-03T09:53:20Z</time>
      </trkpt>
      <trkpt lat="45.39066" lon="6.14283">
        <ele>1948.3</ele>
        <time>2021-02-03T09:53:21Z</time>
      </trkpt>
      <trkpt lat="45.39066" lon="6.14284">
        <ele>1948.3</ele>
        <time>2021-02-03T09:53:22Z</time>
      </trkpt>
      <trkpt lat="45.39066" lon="6.14285">
        <ele>1948.3</ele>
        <time>2021-02-03T09:53:23Z</time>
      </trkpt>
      <trkpt lat="45.39065" lon="6.14286">
        <ele>1948.3</ele>
        <time>2021-02-03T09:53:24Z</time>
      </trkpt>
      <trkpt lat="45.39065" lon="6.14287">
        <ele>1948</ele>
        <time>2021-02-03T09:53:25Z</time>
      </trkpt>
      <trkpt lat="45.39065" lon="6.14288">
        <ele>1948</ele>
        <time>2021-02-03T09:53:26Z</time>
      </trkpt>
      <trkpt lat="45.39065" lon="6.14289">
        <ele>1948</ele>
        <time>2021-02-03T09:53:27Z</time>
      </trkpt>
      <trkpt lat="45.39064" lon="6.14289">
        <ele>1948.7</ele>
        <time>2021-02-03T09:53:28Z</time>
      </trkpt>
      <trkpt lat="45.39064" lon="6.1429">
        <ele>1948.7</ele>
        <time>2021-02-03T09:53:29Z</time>
      </trkpt>
      <trkpt lat="45.39064" lon="6.14291">
        <ele>1948.4</ele>
        <time>2021-02-03T09:53:30Z</time>
      </trkpt>
      <trkpt lat="45.39063" lon="6.14292">
        <ele>1948.4</ele>
        <time>2021-02-03T09:53:31Z</time>
      </trkpt>
      <trkpt lat="45.39063" lon="6.14293">
        <ele>1948.4</ele>
        <time>2021-02-03T09:53:32Z</time>
      </trkpt>
      <trkpt lat="45.39063" lon="6.14294">
        <ele>1948.4</ele>
        <time>2021-02-03T09:53:33Z</time>
      </trkpt>
      <trkpt lat="45.39062" lon="6.14295">
        <ele>1948.4</ele>
        <time>2021-02-03T09:53:34Z</time>
      </trkpt>
      <trkpt lat="45.39062" lon="6.14295">
        <ele>1948.1</ele>
        <time>2021-02-03T09:53:35Z</time>
      </trkpt>
      <trkpt lat="45.39062" lon="6.14296">
        <ele>1948.1</ele>
        <time>2021-02-03T09:53:36Z</time>
      </trkpt>
      <trkpt lat="45.39062" lon="6.14297">
        <ele>1948.1</ele>
        <time>2021-02-03T09:53:37Z</time>
      </trkpt>
      <trkpt lat="45.39061" lon="6.14298">
        <ele>1948.9</ele>
        <time>2021-02-03T09:53:38Z</time>
      </trkpt>
      <trkpt lat="45.39061" lon="6.14299">
        <ele>1948.9</ele>
        <time>2021-02-03T09:53:39Z</time>
      </trkpt>
      <trkpt lat="45.39061" lon="6.143">
        <ele>1948.5</ele>
        <time>2021-02-03T09:53:40Z</time>
      </trkpt>
      <trkpt lat="45.3906" lon="6.143">
        <ele>1948.5</ele>
        <time>2021-02-03T09:53:41Z</time>
      </trkpt>
      <trkpt lat="45.3906" lon="6.14301">
        <ele>1948.5</ele>
        <time>2021-02-03T09:53:42Z</time>
      </trkpt>
      <trkpt lat="45.39059" lon="6.14302">
        <ele>1948.5</ele>
        <time>2021-02-03T09:53:43Z</time>
      </trkpt>
      <trkpt lat="45.39059" lon="6.14303">
        <ele>1948.5</ele>
        <time>2021-02-03T09:53:44Z</time>
      </trkpt>
      <trkpt lat="45.39059" lon="6.14304">
        <ele>1948.2</ele>
        <time>2021-02-03T09:53:45Z</time>
      </trkpt>
      <trkpt lat="45.39058" lon="6.14305">
        <ele>1949</ele>
        <time>2021-02-03T09:53:46Z</time>
      </trkpt>
      <trkpt lat="45.39058" lon="6.14306">
        <ele>1949</ele>
        <time>2021-02-03T09:53:47Z</time>
      </trkpt>
      <trkpt lat="45.39057" lon="6.14307">
        <ele>1949</ele>
        <time>2021-02-03T09:53:48Z</time>
      </trkpt>
      <trkpt lat="45.39057" lon="6.14307">
        <ele>1949</ele>
        <time>2021-02-03T09:53:49Z</time>
      </trkpt>
      <trkpt lat="45.39056" lon="6.14308">
        <ele>1948.7</ele>
        <time>2021-02-03T09:53:50Z</time>
      </trkpt>
      <trkpt lat="45.39056" lon="6.14309">
        <ele>1948.7</ele>
        <time>2021-02-03T09:53:51Z</time>
      </trkpt>
      <trkpt lat="45.39055" lon="6.1431">
        <ele>1949.5</ele>
        <time>2021-02-03T09:53:52Z</time>
      </trkpt>
      <trkpt lat="45.39055" lon="6.14311">
        <ele>1949.5</ele>
        <time>2021-02-03T09:53:53Z</time>
      </trkpt>
      <trkpt lat="45.39054" lon="6.14312">
        <ele>1949.2</ele>
        <time>2021-02-03T09:53:54Z</time>
      </trkpt>
      <trkpt lat="45.39054" lon="6.14313">
        <ele>1949.2</ele>
        <time>2021-02-03T09:53:55Z</time>
      </trkpt>
      <trkpt lat="45.39053" lon="6.14314">
        <ele>1949.2</ele>
        <time>2021-02-03T09:53:56Z</time>
      </trkpt>
      <trkpt lat="45.39053" lon="6.14315">
        <ele>1949.2</ele>
        <time>2021-02-03T09:53:57Z</time>
      </trkpt>
      <trkpt lat="45.39052" lon="6.14315">
        <ele>1950</ele>
        <time>2021-02-03T09:53:58Z</time>
      </trkpt>
      <trkpt lat="45.39052" lon="6.14316">
        <ele>1949.8</ele>
        <time>2021-02-03T09:53:59Z</time>
      </trkpt>
      <trkpt lat="45.39052" lon="6.14317">
        <ele>1949.8</ele>
        <time>2021-02-03T09:54:00Z</time>
      </trkpt>
      <trkpt lat="45.39052" lon="6.14318">
        <ele>1949.9</ele>
        <time>2021-02-03T09:54:01Z</time>
      </trkpt>
      <trkpt lat="45.39051" lon="6.14319">
        <ele>1950</ele>
        <time>2021-02-03T09:54:02Z</time>
      </trkpt>
      <trkpt lat="45.39051" lon="6.1432">
        <ele>1950</ele>
        <time>2021-02-03T09:54:03Z</time>
      </trkpt>
      <trkpt lat="45.39051" lon="6.14321">
        <ele>1949.9</ele>
        <time>2021-02-03T09:54:04Z</time>
      </trkpt>
      <trkpt lat="45.39051" lon="6.14322">
        <ele>1949.9</ele>
        <time>2021-02-03T09:54:05Z</time>
      </trkpt>
      <trkpt lat="45.39051" lon="6.14322">
        <ele>1950</ele>
        <time>2021-02-03T09:54:06Z</time>
      </trkpt>
      <trkpt lat="45.39051" lon="6.14323">
        <ele>1950.1</ele>
        <time>2021-02-03T09:54:07Z</time>
      </trkpt>
      <trkpt lat="45.39051" lon="6.14324">
        <ele>1950.1</ele>
        <time>2021-02-03T09:54:08Z</time>
      </trkpt>
      <trkpt lat="45.39051" lon="6.14325">
        <ele>1949.9</ele>
        <time>2021-02-03T09:54:09Z</time>
      </trkpt>
      <trkpt lat="45.39051" lon="6.14327">
        <ele>1950</ele>
        <time>2021-02-03T09:54:10Z</time>
      </trkpt>
      <trkpt lat="45.39052" lon="6.14327">
        <ele>1950</ele>
        <time>2021-02-03T09:54:11Z</time>
      </trkpt>
      <trkpt lat="45.39052" lon="6.14328">
        <ele>1950.1</ele>
        <time>2021-02-03T09:54:12Z</time>
      </trkpt>
      <trkpt lat="45.39052" lon="6.14329">
        <ele>1949.9</ele>
        <time>2021-02-03T09:54:13Z</time>
      </trkpt>
      <trkpt lat="45.39052" lon="6.1433">
        <ele>1949.9</ele>
        <time>2021-02-03T09:54:14Z</time>
      </trkpt>
      <trkpt lat="45.39053" lon="6.1433">
        <ele>1949.1</ele>
        <time>2021-02-03T09:54:15Z</time>
      </trkpt>
      <trkpt lat="45.39053" lon="6.14331">
        <ele>1949.2</ele>
        <time>2021-02-03T09:54:16Z</time>
      </trkpt>
      <trkpt lat="45.39053" lon="6.14332">
        <ele>1949.2</ele>
        <time>2021-02-03T09:54:17Z</time>
      </trkpt>
      <trkpt lat="45.39054" lon="6.14333">
        <ele>1949.3</ele>
        <time>2021-02-03T09:54:18Z</time>
      </trkpt>
      <trkpt lat="45.39054" lon="6.14334">
        <ele>1949</ele>
        <time>2021-02-03T09:54:19Z</time>
      </trkpt>
      <trkpt lat="45.39054" lon="6.14335">
        <ele>1949.1</ele>
        <time>2021-02-03T09:54:20Z</time>
      </trkpt>
      <trkpt lat="45.39054" lon="6.14337">
        <ele>1949.2</ele>
        <time>2021-02-03T09:54:21Z</time>
      </trkpt>
      <trkpt lat="45.39054" lon="6.14337">
        <ele>1949.2</ele>
        <time>2021-02-03T09:54:22Z</time>
      </trkpt>
      <trkpt lat="45.39054" lon="6.14338">
        <ele>1948.9</ele>
        <time>2021-02-03T09:54:23Z</time>
      </trkpt>
      <trkpt lat="45.39053" lon="6.1434">
        <ele>1949</ele>
        <time>2021-02-03T09:54:24Z</time>
      </trkpt>
      <trkpt lat="45.39053" lon="6.14341">
        <ele>1949.1</ele>
        <time>2021-02-03T09:54:25Z</time>
      </trkpt>
      <trkpt lat="45.39053" lon="6.14342">
        <ele>1949.1</ele>
        <time>2021-02-03T09:54:26Z</time>
      </trkpt>
      <trkpt lat="45.39052" lon="6.14343">
        <ele>1949.8</ele>
        <time>2021-02-03T09:54:27Z</time>
      </trkpt>
      <trkpt lat="45.39052" lon="6.14344">
        <ele>1949.9</ele>
        <time>2021-02-03T09:54:28Z</time>
      </trkpt>
      <trkpt lat="45.39051" lon="6.14345">
        <ele>1949.9</ele>
        <time>2021-02-03T09:54:29Z</time>
      </trkpt>
      <trkpt lat="45.3905" lon="6.14347">
        <ele>1949.6</ele>
        <time>2021-02-03T09:54:30Z</time>
      </trkpt>
      <trkpt lat="45.3905" lon="6.14348">
        <ele>1949.7</ele>
        <time>2021-02-03T09:54:31Z</time>
      </trkpt>
      <trkpt lat="45.39049" lon="6.14349">
        <ele>1950.7</ele>
        <time>2021-02-03T09:54:32Z</time>
      </trkpt>
      <trkpt lat="45.39049" lon="6.1435">
        <ele>1950.8</ele>
        <time>2021-02-03T09:54:33Z</time>
      </trkpt>
      <trkpt lat="45.39048" lon="6.14351">
        <ele>1950.4</ele>
        <time>2021-02-03T09:54:34Z</time>
      </trkpt>
      <trkpt lat="45.39048" lon="6.14352">
        <ele>1950.5</ele>
        <time>2021-02-03T09:54:35Z</time>
      </trkpt>
      <trkpt lat="45.39047" lon="6.14352">
        <ele>1950.6</ele>
        <time>2021-02-03T09:54:36Z</time>
      </trkpt>
      <trkpt lat="45.39047" lon="6.14353">
        <ele>1950.6</ele>
        <time>2021-02-03T09:54:37Z</time>
      </trkpt>
      <trkpt lat="45.39047" lon="6.14354">
        <ele>1950.7</ele>
        <time>2021-02-03T09:54:38Z</time>
      </trkpt>
      <trkpt lat="45.39046" lon="6.14355">
        <ele>1951.3</ele>
        <time>2021-02-03T09:54:39Z</time>
      </trkpt>
      <trkpt lat="45.39046" lon="6.14355">
        <ele>1951.3</ele>
        <time>2021-02-03T09:54:40Z</time>
      </trkpt>
      <trkpt lat="45.39046" lon="6.14355">
        <ele>1951.4</ele>
        <time>2021-02-03T09:54:41Z</time>
      </trkpt>
      <trkpt lat="45.39046" lon="6.14355">
        <ele>1951.5</ele>
        <time>2021-02-03T09:54:42Z</time>
      </trkpt>
      <trkpt lat="45.39046" lon="6.14355">
        <ele>1951.5</ele>
        <time>2021-02-03T09:54:43Z</time>
      </trkpt>
      <trkpt lat="45.39046" lon="6.14355">
        <ele>1951.6</ele>
        <time>2021-02-03T09:54:44Z</time>
      </trkpt>
      <trkpt lat="45.39046" lon="6.14355">
        <ele>1951.7</ele>
        <time>2021-02-03T09:54:45Z</time>
      </trkpt>
      <trkpt lat="45.39046" lon="6.14354">
        <ele>1952.2</ele>
        <time>2021-02-03T09:54:46Z</time>
      </trkpt>
      <trkpt lat="45.39046" lon="6.14354">
        <ele>1952.2</ele>
        <time>2021-02-03T09:54:47Z</time>
      </trkpt>
      <trkpt lat="45.39046" lon="6.14354">
        <ele>1952.3</ele>
        <time>2021-02-03T09:54:48Z</time>
      </trkpt>
      <trkpt lat="45.39045" lon="6.14354">
        <ele>1952.4</ele>
        <time>2021-02-03T09:54:49Z</time>
      </trkpt>
      <trkpt lat="45.39045" lon="6.14355">
        <ele>1952</ele>
        <time>2021-02-03T09:54:50Z</time>
      </trkpt>
      <trkpt lat="45.39044" lon="6.14356">
        <ele>1952</ele>
        <time>2021-02-03T09:54:51Z</time>
      </trkpt>
      <trkpt lat="45.39043" lon="6.14357">
        <ele>1952.1</ele>
        <time>2021-02-03T09:54:52Z</time>
      </trkpt>
      <trkpt lat="45.39043" lon="6.14357">
        <ele>1953.1</ele>
        <time>2021-02-03T09:54:53Z</time>
      </trkpt>
      <trkpt lat="45.39042" lon="6.14358">
        <ele>1953.1</ele>
        <time>2021-02-03T09:54:54Z</time>
      </trkpt>
      <trkpt lat="45.39042" lon="6.14359">
        <ele>1953.2</ele>
        <time>2021-02-03T09:54:55Z</time>
      </trkpt>
      <trkpt lat="45.39041" lon="6.14359">
        <ele>1952.9</ele>
        <time>2021-02-03T09:54:56Z</time>
      </trkpt>
      <trkpt lat="45.39041" lon="6.1436">
        <ele>1952.9</ele>
        <time>2021-02-03T09:54:57Z</time>
      </trkpt>
      <trkpt lat="45.3904" lon="6.1436">
        <ele>1953.8</ele>
        <time>2021-02-03T09:54:58Z</time>
      </trkpt>
      <trkpt lat="45.39039" lon="6.14361">
        <ele>1953.9</ele>
        <time>2021-02-03T09:54:59Z</time>
      </trkpt>
      <trkpt lat="45.39039" lon="6.14361">
        <ele>1954</ele>
        <time>2021-02-03T09:55:00Z</time>
      </trkpt>
      <trkpt lat="45.39038" lon="6.14362">
        <ele>1954</ele>
        <time>2021-02-03T09:55:01Z</time>
      </trkpt>
      <trkpt lat="45.39037" lon="6.14362">
        <ele>1954.1</ele>
        <time>2021-02-03T09:55:02Z</time>
      </trkpt>
      <trkpt lat="45.39037" lon="6.14363">
        <ele>1955.1</ele>
        <time>2021-02-03T09:55:03Z</time>
      </trkpt>
      <trkpt lat="45.39036" lon="6.14364">
        <ele>1954.7</ele>
        <time>2021-02-03T09:55:04Z</time>
      </trkpt>
      <trkpt lat="45.39035" lon="6.14365">
        <ele>1954.8</ele>
        <time>2021-02-03T09:55:05Z</time>
      </trkpt>
      <trkpt lat="45.39035" lon="6.14365">
        <ele>1954.9</ele>
        <time>2021-02-03T09:55:06Z</time>
      </trkpt>
      <trkpt lat="45.39034" lon="6.14366">
        <ele>1955.8</ele>
        <time>2021-02-03T09:55:07Z</time>
      </trkpt>
      <trkpt lat="45.39034" lon="6.14367">
        <ele>1955.9</ele>
        <time>2021-02-03T09:55:08Z</time>
      </trkpt>
      <trkpt lat="45.39033" lon="6.14368">
        <ele>1955.5</ele>
        <time>2021-02-03T09:55:09Z</time>
      </trkpt>
      <trkpt lat="45.39033" lon="6.14369">
        <ele>1955.6</ele>
        <time>2021-02-03T09:55:10Z</time>
      </trkpt>
      <trkpt lat="45.39032" lon="6.1437">
        <ele>1955.6</ele>
        <time>2021-02-03T09:55:11Z</time>
      </trkpt>
      <trkpt lat="45.39032" lon="6.14371">
        <ele>1955.7</ele>
        <time>2021-02-03T09:55:12Z</time>
      </trkpt>
      <trkpt lat="45.39031" lon="6.14372">
        <ele>1956.7</ele>
        <time>2021-02-03T09:55:13Z</time>
      </trkpt>
      <trkpt lat="45.39031" lon="6.14372">
        <ele>1956.4</ele>
        <time>2021-02-03T09:55:14Z</time>
      </trkpt>
      <trkpt lat="45.3903" lon="6.14373">
        <ele>1956.4</ele>
        <time>2021-02-03T09:55:15Z</time>
      </trkpt>
      <trkpt lat="45.3903" lon="6.14374">
        <ele>1956.5</ele>
        <time>2021-02-03T09:55:16Z</time>
      </trkpt>
      <trkpt lat="45.39029" lon="6.14375">
        <ele>1956.6</ele>
        <time>2021-02-03T09:55:17Z</time>
      </trkpt>
      <trkpt lat="45.39028" lon="6.14376">
        <ele>1957.6</ele>
        <time>2021-02-03T09:55:18Z</time>
      </trkpt>
      <trkpt lat="45.39028" lon="6.14377">
        <ele>1957.3</ele>
        <time>2021-02-03T09:55:19Z</time>
      </trkpt>
      <trkpt lat="45.39027" lon="6.14377">
        <ele>1957.3</ele>
        <time>2021-02-03T09:55:20Z</time>
      </trkpt>
      <trkpt lat="45.39027" lon="6.14378">
        <ele>1957.4</ele>
        <time>2021-02-03T09:55:21Z</time>
      </trkpt>
      <trkpt lat="45.39027" lon="6.14379">
        <ele>1957.5</ele>
        <time>2021-02-03T09:55:22Z</time>
      </trkpt>
      <trkpt lat="45.39026" lon="6.1438">
        <ele>1957.5</ele>
        <time>2021-02-03T09:55:23Z</time>
      </trkpt>
      <trkpt lat="45.39026" lon="6.14381">
        <ele>1957.2</ele>
        <time>2021-02-03T09:55:24Z</time>
      </trkpt>
      <trkpt lat="45.39026" lon="6.14382">
        <ele>1957.3</ele>
        <time>2021-02-03T09:55:25Z</time>
      </trkpt>
      <trkpt lat="45.39025" lon="6.14382">
        <ele>1958.3</ele>
        <time>2021-02-03T09:55:26Z</time>
      </trkpt>
      <trkpt lat="45.39025" lon="6.14383">
        <ele>1958.4</ele>
        <time>2021-02-03T09:55:27Z</time>
      </trkpt>
      <trkpt lat="45.39025" lon="6.14384">
        <ele>1958.5</ele>
        <time>2021-02-03T09:55:28Z</time>
      </trkpt>
      <trkpt lat="45.39024" lon="6.14385">
        <ele>1958.1</ele>
        <time>2021-02-03T09:55:29Z</time>
      </trkpt>
      <trkpt lat="45.39024" lon="6.14386">
        <ele>1958.2</ele>
        <time>2021-02-03T09:55:30Z</time>
      </trkpt>
      <trkpt lat="45.39024" lon="6.14387">
        <ele>1958.3</ele>
        <time>2021-02-03T09:55:31Z</time>
      </trkpt>
      <trkpt lat="45.39024" lon="6.14388">
        <ele>1958.3</ele>
        <time>2021-02-03T09:55:32Z</time>
      </trkpt>
      <trkpt lat="45.39024" lon="6.14389">
        <ele>1958.4</ele>
        <time>2021-02-03T09:55:33Z</time>
      </trkpt>
      <trkpt lat="45.39024" lon="6.14389">
        <ele>1958</ele>
        <time>2021-02-03T09:55:34Z</time>
      </trkpt>
      <trkpt lat="45.39023" lon="6.14389">
        <ele>1958.1</ele>
        <time>2021-02-03T09:55:35Z</time>
      </trkpt>
      <trkpt lat="45.39023" lon="6.1439">
        <ele>1958.2</ele>
        <time>2021-02-03T09:55:36Z</time>
      </trkpt>
      <trkpt lat="45.39022" lon="6.1439">
        <ele>1959.2</ele>
        <time>2021-02-03T09:55:37Z</time>
      </trkpt>
      <trkpt lat="45.39022" lon="6.1439">
        <ele>1959.3</ele>
        <time>2021-02-03T09:55:38Z</time>
      </trkpt>
      <trkpt lat="45.39021" lon="6.1439">
        <ele>1959.3</ele>
        <time>2021-02-03T09:55:39Z</time>
      </trkpt>
      <trkpt lat="45.39021" lon="6.1439">
        <ele>1959.3</ele>
        <time>2021-02-03T09:55:40Z</time>
      </trkpt>
      <trkpt lat="45.3902" lon="6.1439">
        <ele>1959.3</ele>
        <time>2021-02-03T09:55:41Z</time>
      </trkpt>
      <trkpt lat="45.3902" lon="6.14391">
        <ele>1959.3</ele>
        <time>2021-02-03T09:55:42Z</time>
      </trkpt>
      <trkpt lat="45.39019" lon="6.14391">
        <ele>1960.1</ele>
        <time>2021-02-03T09:55:43Z</time>
      </trkpt>
      <trkpt lat="45.39018" lon="6.14391">
        <ele>1960.1</ele>
        <time>2021-02-03T09:55:44Z</time>
      </trkpt>
      <trkpt lat="45.39018" lon="6.14392">
        <ele>1960.1</ele>
        <time>2021-02-03T09:55:45Z</time>
      </trkpt>
      <trkpt lat="45.39017" lon="6.14392">
        <ele>1960.1</ele>
        <time>2021-02-03T09:55:46Z</time>
      </trkpt>
      <trkpt lat="45.39017" lon="6.14392">
        <ele>1960.1</ele>
        <time>2021-02-03T09:55:47Z</time>
      </trkpt>
      <trkpt lat="45.39017" lon="6.14392">
        <ele>1960.1</ele>
        <time>2021-02-03T09:55:48Z</time>
      </trkpt>
      <trkpt lat="45.39017" lon="6.14392">
        <ele>1960.1</ele>
        <time>2021-02-03T09:55:49Z</time>
      </trkpt>
      <trkpt lat="45.39017" lon="6.14392">
        <ele>1960.1</ele>
        <time>2021-02-03T09:55:50Z</time>
      </trkpt>
      <trkpt lat="45.39017" lon="6.14392">
        <ele>1960.1</ele>
        <time>2021-02-03T09:55:51Z</time>
      </trkpt>
      <trkpt lat="45.39017" lon="6.14392">
        <ele>1960.1</ele>
        <time>2021-02-03T09:55:52Z</time>
      </trkpt>
      <trkpt lat="45.39017" lon="6.14392">
        <ele>1960.1</ele>
        <time>2021-02-03T09:55:53Z</time>
      </trkpt>
      <trkpt lat="45.39016" lon="6.14392">
        <ele>1960.9</ele>
        <time>2021-02-03T09:55:54Z</time>
      </trkpt>
      <trkpt lat="45.39015" lon="6.14393">
        <ele>1960.9</ele>
        <time>2021-02-03T09:55:55Z</time>
      </trkpt>
      <trkpt lat="45.39014" lon="6.14393">
        <ele>1960.9</ele>
        <time>2021-02-03T09:55:56Z</time>
      </trkpt>
      <trkpt lat="45.39014" lon="6.14394">
        <ele>1960.5</ele>
        <time>2021-02-03T09:56:01Z</time>
      </trkpt>
      <trkpt lat="45.39013" lon="6.14394">
        <ele>1961.2</ele>
        <time>2021-02-03T09:56:02Z</time>
      </trkpt>
      <trkpt lat="45.39013" lon="6.14395">
        <ele>1961.2</ele>
        <time>2021-02-03T09:56:03Z</time>
      </trkpt>
      <trkpt lat="45.39012" lon="6.14395">
        <ele>1961.2</ele>
        <time>2021-02-03T09:56:04Z</time>
      </trkpt>
      <trkpt lat="45.39011" lon="6.14396">
        <ele>1961.2</ele>
        <time>2021-02-03T09:56:05Z</time>
      </trkpt>
      <trkpt lat="45.39011" lon="6.14396">
        <ele>1961.2</ele>
        <time>2021-02-03T09:56:06Z</time>
      </trkpt>
      <trkpt lat="45.39011" lon="6.14397">
        <ele>1961.2</ele>
        <time>2021-02-03T09:56:07Z</time>
      </trkpt>
      <trkpt lat="45.3901" lon="6.14397">
        <ele>1961.2</ele>
        <time>2021-02-03T09:56:08Z</time>
      </trkpt>
      <trkpt lat="45.3901" lon="6.14398">
        <ele>1961.5</ele>
        <time>2021-02-03T09:56:09Z</time>
      </trkpt>
      <trkpt lat="45.39009" lon="6.14399">
        <ele>1961.5</ele>
        <time>2021-02-03T09:56:10Z</time>
      </trkpt>
      <trkpt lat="45.39009" lon="6.144">
        <ele>1961.5</ele>
        <time>2021-02-03T09:56:11Z</time>
      </trkpt>
      <trkpt lat="45.39009" lon="6.144">
        <ele>1961.5</ele>
        <time>2021-02-03T09:56:12Z</time>
      </trkpt>
      <trkpt lat="45.39008" lon="6.14401">
        <ele>1961.5</ele>
        <time>2021-02-03T09:56:13Z</time>
      </trkpt>
      <trkpt lat="45.39008" lon="6.14401">
        <ele>1961.5</ele>
        <time>2021-02-03T09:56:14Z</time>
      </trkpt>
      <trkpt lat="45.39008" lon="6.14402">
        <ele>1961.5</ele>
        <time>2021-02-03T09:56:15Z</time>
      </trkpt>
      <trkpt lat="45.39007" lon="6.14402">
        <ele>1961.9</ele>
        <time>2021-02-03T09:56:16Z</time>
      </trkpt>
      <trkpt lat="45.39007" lon="6.14403">
        <ele>1961.9</ele>
        <time>2021-02-03T09:56:17Z</time>
      </trkpt>
      <trkpt lat="45.39007" lon="6.14403">
        <ele>1961.9</ele>
        <time>2021-02-03T09:56:18Z</time>
      </trkpt>
      <trkpt lat="45.39006" lon="6.14403">
        <ele>1961.9</ele>
        <time>2021-02-03T09:56:19Z</time>
      </trkpt>
      <trkpt lat="45.39006" lon="6.14403">
        <ele>1961.9</ele>
        <time>2021-02-03T09:56:20Z</time>
      </trkpt>
      <trkpt lat="45.39006" lon="6.14404">
        <ele>1961.9</ele>
        <time>2021-02-03T09:56:21Z</time>
      </trkpt>
      <trkpt lat="45.39005" lon="6.14404">
        <ele>1961.9</ele>
        <time>2021-02-03T09:56:22Z</time>
      </trkpt>
      <trkpt lat="45.39005" lon="6.14405">
        <ele>1961.9</ele>
        <time>2021-02-03T09:56:23Z</time>
      </trkpt>
      <trkpt lat="45.39005" lon="6.14406">
        <ele>1961.9</ele>
        <time>2021-02-03T09:56:24Z</time>
      </trkpt>
      <trkpt lat="45.39005" lon="6.14406">
        <ele>1961.6</ele>
        <time>2021-02-03T09:56:25Z</time>
      </trkpt>
      <trkpt lat="45.39006" lon="6.14407">
        <ele>1961.6</ele>
        <time>2021-02-03T09:56:26Z</time>
      </trkpt>
      <trkpt lat="45.39006" lon="6.14408">
        <ele>1961.6</ele>
        <time>2021-02-03T09:56:27Z</time>
      </trkpt>
      <trkpt lat="45.39006" lon="6.14408">
        <ele>1961.6</ele>
        <time>2021-02-03T09:56:28Z</time>
      </trkpt>
      <trkpt lat="45.39006" lon="6.14409">
        <ele>1961.6</ele>
        <time>2021-02-03T09:56:29Z</time>
      </trkpt>
      <trkpt lat="45.39006" lon="6.1441">
        <ele>1961.6</ele>
        <time>2021-02-03T09:56:30Z</time>
      </trkpt>
      <trkpt lat="45.39007" lon="6.1441">
        <ele>1961.6</ele>
        <time>2021-02-03T09:57:13Z</time>
      </trkpt>
      <trkpt lat="45.39007" lon="6.14411">
        <ele>1961.3</ele>
        <time>2021-02-03T09:57:14Z</time>
      </trkpt>
      <trkpt lat="45.39007" lon="6.14412">
        <ele>1961.3</ele>
        <time>2021-02-03T09:57:15Z</time>
      </trkpt>
      <trkpt lat="45.39007" lon="6.14413">
        <ele>1960.6</ele>
        <time>2021-02-03T09:57:16Z</time>
      </trkpt>
      <trkpt lat="45.39007" lon="6.14413">
        <ele>1961.3</ele>
        <time>2021-02-03T09:57:17Z</time>
      </trkpt>
      <trkpt lat="45.39007" lon="6.14414">
        <ele>1961.3</ele>
        <time>2021-02-03T09:57:18Z</time>
      </trkpt>
      <trkpt lat="45.39007" lon="6.14414">
        <ele>1961.3</ele>
        <time>2021-02-03T09:57:19Z</time>
      </trkpt>
      <trkpt lat="45.39007" lon="6.14414">
        <ele>1961.3</ele>
        <time>2021-02-03T09:57:20Z</time>
      </trkpt>
      <trkpt lat="45.39006" lon="6.14414">
        <ele>1961.3</ele>
        <time>2021-02-03T09:57:21Z</time>
      </trkpt>
      <trkpt lat="45.39006" lon="6.14414">
        <ele>1961.3</ele>
        <time>2021-02-03T09:57:22Z</time>
      </trkpt>
      <trkpt lat="45.39006" lon="6.14415">
        <ele>1961.3</ele>
        <time>2021-02-03T09:57:23Z</time>
      </trkpt>
      <trkpt lat="45.39006" lon="6.14415">
        <ele>1961</ele>
        <time>2021-02-03T09:57:24Z</time>
      </trkpt>
      <trkpt lat="45.39006" lon="6.14415">
        <ele>1961</ele>
        <time>2021-02-03T09:57:25Z</time>
      </trkpt>
      <trkpt lat="45.39006" lon="6.14415">
        <ele>1961</ele>
        <time>2021-02-03T09:57:26Z</time>
      </trkpt>
      <trkpt lat="45.39006" lon="6.14415">
        <ele>1961</ele>
        <time>2021-02-03T09:57:51Z</time>
      </trkpt>
      <trkpt lat="45.39006" lon="6.14415">
        <ele>1961</ele>
        <time>2021-02-03T09:57:52Z</time>
      </trkpt>
      <trkpt lat="45.39006" lon="6.14416">
        <ele>1961</ele>
        <time>2021-02-03T09:57:53Z</time>
      </trkpt>
      <trkpt lat="45.39005" lon="6.14416">
        <ele>1961</ele>
        <time>2021-02-03T09:57:54Z</time>
      </trkpt>
      <trkpt lat="45.39005" lon="6.14416">
        <ele>1961</ele>
        <time>2021-02-03T09:57:55Z</time>
      </trkpt>
      <trkpt lat="45.39005" lon="6.14416">
        <ele>1961</ele>
        <time>2021-02-03T09:57:56Z</time>
      </trkpt>
      <trkpt lat="45.39005" lon="6.14416">
        <ele>1961</ele>
        <time>2021-02-03T09:57:57Z</time>
      </trkpt>
      <trkpt lat="45.39005" lon="6.14417">
        <ele>1961</ele>
        <time>2021-02-03T09:57:58Z</time>
      </trkpt>
      <trkpt lat="45.39005" lon="6.14417">
        <ele>1961</ele>
        <time>2021-02-03T09:57:59Z</time>
      </trkpt>
      <trkpt lat="45.39005" lon="6.14417">
        <ele>1961</ele>
        <time>2021-02-03T09:58:00Z</time>
      </trkpt>
      <trkpt lat="45.39005" lon="6.14417">
        <ele>1961</ele>
        <time>2021-02-03T09:58:01Z</time>
      </trkpt>
      <trkpt lat="45.39005" lon="6.14417">
        <ele>1961</ele>
        <time>2021-02-03T09:58:02Z</time>
      </trkpt>
      <trkpt lat="45.39004" lon="6.14418">
        <ele>1961</ele>
        <time>2021-02-03T09:58:03Z</time>
      </trkpt>
      <trkpt lat="45.39004" lon="6.14418">
        <ele>1961</ele>
        <time>2021-02-03T09:58:04Z</time>
      </trkpt>
      <trkpt lat="45.39004" lon="6.14418">
        <ele>1961</ele>
        <time>2021-02-03T10:01:44Z</time>
      </trkpt>
      <trkpt lat="45.39004" lon="6.14418">
        <ele>1961.8</ele>
        <time>2021-02-03T10:01:45Z</time>
      </trkpt>
      <trkpt lat="45.39004" lon="6.14418">
        <ele>1961.8</ele>
        <time>2021-02-03T10:01:46Z</time>
      </trkpt>
      <trkpt lat="45.39004" lon="6.14418">
        <ele>1961.8</ele>
        <time>2021-02-03T10:01:47Z</time>
      </trkpt>
      <trkpt lat="45.39004" lon="6.14419">
        <ele>1961.8</ele>
        <time>2021-02-03T10:01:48Z</time>
      </trkpt>
      <trkpt lat="45.39003" lon="6.14419">
        <ele>1961.6</ele>
        <time>2021-02-03T10:01:49Z</time>
      </trkpt>
      <trkpt lat="45.39002" lon="6.1442">
        <ele>1961.6</ele>
        <time>2021-02-03T10:01:50Z</time>
      </trkpt>
      <trkpt lat="45.39001" lon="6.14421">
        <ele>1961.6</ele>
        <time>2021-02-03T10:01:51Z</time>
      </trkpt>
      <trkpt lat="45.39001" lon="6.14422">
        <ele>1962.4</ele>
        <time>2021-02-03T10:01:52Z</time>
      </trkpt>
      <trkpt lat="45.39" lon="6.14422">
        <ele>1962.4</ele>
        <time>2021-02-03T10:01:53Z</time>
      </trkpt>
      <trkpt lat="45.39" lon="6.14423">
        <ele>1962.4</ele>
        <time>2021-02-03T10:01:54Z</time>
      </trkpt>
      <trkpt lat="45.39" lon="6.14423">
        <ele>1962.2</ele>
        <time>2021-02-03T10:01:55Z</time>
      </trkpt>
      <trkpt lat="45.39" lon="6.14424">
        <ele>1962.2</ele>
        <time>2021-02-03T10:01:56Z</time>
      </trkpt>
      <trkpt lat="45.39" lon="6.14425">
        <ele>1962.2</ele>
        <time>2021-02-03T10:01:57Z</time>
      </trkpt>
      <trkpt lat="45.39" lon="6.14426">
        <ele>1962.2</ele>
        <time>2021-02-03T10:01:58Z</time>
      </trkpt>
      <trkpt lat="45.39" lon="6.14427">
        <ele>1962.2</ele>
        <time>2021-02-03T10:01:59Z</time>
      </trkpt>
      <trkpt lat="45.39" lon="6.14428">
        <ele>1962</ele>
        <time>2021-02-03T10:02:00Z</time>
      </trkpt>
      <trkpt lat="45.39" lon="6.14429">
        <ele>1962</ele>
        <time>2021-02-03T10:02:01Z</time>
      </trkpt>
      <trkpt lat="45.39" lon="6.1443">
        <ele>1962</ele>
        <time>2021-02-03T10:02:02Z</time>
      </trkpt>
      <trkpt lat="45.39" lon="6.1443">
        <ele>1962</ele>
        <time>2021-02-03T10:02:03Z</time>
      </trkpt>
      <trkpt lat="45.39" lon="6.14431">
        <ele>1962</ele>
        <time>2021-02-03T10:02:04Z</time>
      </trkpt>
      <trkpt lat="45.39" lon="6.14431">
        <ele>1962</ele>
        <time>2021-02-03T10:02:05Z</time>
      </trkpt>
      <trkpt lat="45.39" lon="6.14431">
        <ele>1962</ele>
        <time>2021-02-03T10:02:06Z</time>
      </trkpt>
      <trkpt lat="45.38999" lon="6.14432">
        <ele>1961.8</ele>
        <time>2021-02-03T10:02:07Z</time>
      </trkpt>
      <trkpt lat="45.38999" lon="6.14433">
        <ele>1961.8</ele>
        <time>2021-02-03T10:02:08Z</time>
      </trkpt>
      <trkpt lat="45.38998" lon="6.14434">
        <ele>1962.7</ele>
        <time>2021-02-03T10:02:09Z</time>
      </trkpt>
      <trkpt lat="45.38997" lon="6.14434">
        <ele>1962.7</ele>
        <time>2021-02-03T10:02:10Z</time>
      </trkpt>
      <trkpt lat="45.38996" lon="6.14435">
        <ele>1962.7</ele>
        <time>2021-02-03T10:02:11Z</time>
      </trkpt>
      <trkpt lat="45.38995" lon="6.14435">
        <ele>1963.4</ele>
        <time>2021-02-03T10:02:12Z</time>
      </trkpt>
      <trkpt lat="45.38994" lon="6.14436">
        <ele>1963.4</ele>
        <time>2021-02-03T10:02:13Z</time>
      </trkpt>
      <trkpt lat="45.38993" lon="6.14436">
        <ele>1963.4</ele>
        <time>2021-02-03T10:02:19Z</time>
      </trkpt>
      <trkpt lat="45.38992" lon="6.14437">
        <ele>1964</ele>
        <time>2021-02-03T10:02:20Z</time>
      </trkpt>
      <trkpt lat="45.38991" lon="6.14437">
        <ele>1964</ele>
        <time>2021-02-03T10:02:21Z</time>
      </trkpt>
      <trkpt lat="45.3899" lon="6.14437">
        <ele>1964</ele>
        <time>2021-02-03T10:02:22Z</time>
      </trkpt>
      <trkpt lat="45.38989" lon="6.14438">
        <ele>1964</ele>
        <time>2021-02-03T10:02:23Z</time>
      </trkpt>
      <trkpt lat="45.38988" lon="6.14438">
        <ele>1964.7</ele>
        <time>2021-02-03T10:02:24Z</time>
      </trkpt>
      <trkpt lat="45.38988" lon="6.14439">
        <ele>1964.7</ele>
        <time>2021-02-03T10:02:25Z</time>
      </trkpt>
      <trkpt lat="45.38987" lon="6.14439">
        <ele>1964.7</ele>
        <time>2021-02-03T10:02:26Z</time>
      </trkpt>
      <trkpt lat="45.38986" lon="6.1444">
        <ele>1965.4</ele>
        <time>2021-02-03T10:02:27Z</time>
      </trkpt>
      <trkpt lat="45.38985" lon="6.1444">
        <ele>1965.4</ele>
        <time>2021-02-03T10:02:28Z</time>
      </trkpt>
      <trkpt lat="45.38984" lon="6.14441">
        <ele>1965.4</ele>
        <time>2021-02-03T10:02:29Z</time>
      </trkpt>
      <trkpt lat="45.38983" lon="6.14441">
        <ele>1965.4</ele>
        <time>2021-02-03T10:02:30Z</time>
      </trkpt>
      <trkpt lat="45.38983" lon="6.14441">
        <ele>1966.1</ele>
        <time>2021-02-03T10:02:31Z</time>
      </trkpt>
      <trkpt lat="45.38982" lon="6.14442">
        <ele>1966.1</ele>
        <time>2021-02-03T10:02:32Z</time>
      </trkpt>
      <trkpt lat="45.38981" lon="6.14442">
        <ele>1966.1</ele>
        <time>2021-02-03T10:02:33Z</time>
      </trkpt>
      <trkpt lat="45.38981" lon="6.14442">
        <ele>1966.1</ele>
        <time>2021-02-03T10:02:34Z</time>
      </trkpt>
      <trkpt lat="45.3898" lon="6.14442">
        <ele>1966.1</ele>
        <time>2021-02-03T10:02:35Z</time>
      </trkpt>
      <trkpt lat="45.3898" lon="6.14443">
        <ele>1967</ele>
        <time>2021-02-03T10:02:36Z</time>
      </trkpt>
      <trkpt lat="45.38979" lon="6.14443">
        <ele>1967</ele>
        <time>2021-02-03T10:02:37Z</time>
      </trkpt>
      <trkpt lat="45.38978" lon="6.14443">
        <ele>1967</ele>
        <time>2021-02-03T10:02:38Z</time>
      </trkpt>
      <trkpt lat="45.38978" lon="6.14443">
        <ele>1967</ele>
        <time>2021-02-03T10:02:39Z</time>
      </trkpt>
      <trkpt lat="45.38977" lon="6.14443">
        <ele>1967</ele>
        <time>2021-02-03T10:02:40Z</time>
      </trkpt>
      <trkpt lat="45.38976" lon="6.14444">
        <ele>1967.9</ele>
        <time>2021-02-03T10:02:41Z</time>
      </trkpt>
      <trkpt lat="45.38976" lon="6.14444">
        <ele>1967.9</ele>
        <time>2021-02-03T10:02:42Z</time>
      </trkpt>
      <trkpt lat="45.38975" lon="6.14444">
        <ele>1967.9</ele>
        <time>2021-02-03T10:02:43Z</time>
      </trkpt>
      <trkpt lat="45.38974" lon="6.14444">
        <ele>1968.7</ele>
        <time>2021-02-03T10:02:44Z</time>
      </trkpt>
      <trkpt lat="45.38973" lon="6.14444">
        <ele>1968.7</ele>
        <time>2021-02-03T10:02:45Z</time>
      </trkpt>
      <trkpt lat="45.38972" lon="6.14444">
        <ele>1968.7</ele>
        <time>2021-02-03T10:02:46Z</time>
      </trkpt>
      <trkpt lat="45.38971" lon="6.14445">
        <ele>1969.6</ele>
        <time>2021-02-03T10:02:47Z</time>
      </trkpt>
      <trkpt lat="45.3897" lon="6.14445">
        <ele>1969.7</ele>
        <time>2021-02-03T10:02:48Z</time>
      </trkpt>
      <trkpt lat="45.38969" lon="6.14446">
        <ele>1969.7</ele>
        <time>2021-02-03T10:02:49Z</time>
      </trkpt>
      <trkpt lat="45.38968" lon="6.14446">
        <ele>1969.7</ele>
        <time>2021-02-03T10:02:50Z</time>
      </trkpt>
      <trkpt lat="45.38967" lon="6.14446">
        <ele>1970.5</ele>
        <time>2021-02-03T10:02:51Z</time>
      </trkpt>
      <trkpt lat="45.38966" lon="6.14447">
        <ele>1970.5</ele>
        <time>2021-02-03T10:02:52Z</time>
      </trkpt>
      <trkpt lat="45.38965" lon="6.14447">
        <ele>1971.3</ele>
        <time>2021-02-03T10:02:53Z</time>
      </trkpt>
      <trkpt lat="45.38963" lon="6.14448">
        <ele>1971.3</ele>
        <time>2021-02-03T10:02:54Z</time>
      </trkpt>
      <trkpt lat="45.38962" lon="6.14449">
        <ele>1972.2</ele>
        <time>2021-02-03T10:02:55Z</time>
      </trkpt>
      <trkpt lat="45.38959" lon="6.1445">
        <ele>1972.3</ele>
        <time>2021-02-03T10:02:56Z</time>
      </trkpt>
      <trkpt lat="45.38959" lon="6.1445">
        <ele>1973.1</ele>
        <time>2021-02-03T10:02:57Z</time>
      </trkpt>
      <trkpt lat="45.38958" lon="6.14451">
        <ele>1973.1</ele>
        <time>2021-02-03T10:02:58Z</time>
      </trkpt>
      <trkpt lat="45.38957" lon="6.14452">
        <ele>1973.1</ele>
        <time>2021-02-03T10:02:59Z</time>
      </trkpt>
      <trkpt lat="45.38956" lon="6.14452">
        <ele>1973.9</ele>
        <time>2021-02-03T10:03:00Z</time>
      </trkpt>
      <trkpt lat="45.38955" lon="6.14453">
        <ele>1973.9</ele>
        <time>2021-02-03T10:03:01Z</time>
      </trkpt>
      <trkpt lat="45.38954" lon="6.14454">
        <ele>1974.1</ele>
        <time>2021-02-03T10:03:02Z</time>
      </trkpt>
      <trkpt lat="45.38953" lon="6.14454">
        <ele>1974.1</ele>
        <time>2021-02-03T10:03:03Z</time>
      </trkpt>
      <trkpt lat="45.38952" lon="6.14455">
        <ele>1974.9</ele>
        <time>2021-02-03T10:03:04Z</time>
      </trkpt>
      <trkpt lat="45.38951" lon="6.14456">
        <ele>1974.9</ele>
        <time>2021-02-03T10:03:05Z</time>
      </trkpt>
      <trkpt lat="45.3895" lon="6.14456">
        <ele>1974.9</ele>
        <time>2021-02-03T10:03:06Z</time>
      </trkpt>
      <trkpt lat="45.38949" lon="6.14457">
        <ele>1975.8</ele>
        <time>2021-02-03T10:03:07Z</time>
      </trkpt>
      <trkpt lat="45.38949" lon="6.14457">
        <ele>1975.8</ele>
        <time>2021-02-03T10:03:08Z</time>
      </trkpt>
      <trkpt lat="45.38948" lon="6.14458">
        <ele>1975.8</ele>
        <time>2021-02-03T10:03:09Z</time>
      </trkpt>
      <trkpt lat="45.38947" lon="6.14458">
        <ele>1976.9</ele>
        <time>2021-02-03T10:03:10Z</time>
      </trkpt>
      <trkpt lat="45.38946" lon="6.14458">
        <ele>1976.9</ele>
        <time>2021-02-03T10:03:11Z</time>
      </trkpt>
      <trkpt lat="45.38946" lon="6.14458">
        <ele>1976.9</ele>
        <time>2021-02-03T10:03:12Z</time>
      </trkpt>
      <trkpt lat="45.38945" lon="6.14459">
        <ele>1976.9</ele>
        <time>2021-02-03T10:03:13Z</time>
      </trkpt>
      <trkpt lat="45.38944" lon="6.14459">
        <ele>1976.9</ele>
        <time>2021-02-03T10:03:14Z</time>
      </trkpt>
      <trkpt lat="45.38943" lon="6.14459">
        <ele>1977.8</ele>
        <time>2021-02-03T10:03:15Z</time>
      </trkpt>
      <trkpt lat="45.38943" lon="6.1446">
        <ele>1977.8</ele>
        <time>2021-02-03T10:03:16Z</time>
      </trkpt>
      <trkpt lat="45.38942" lon="6.1446">
        <ele>1977.8</ele>
        <time>2021-02-03T10:03:17Z</time>
      </trkpt>
      <trkpt lat="45.38941" lon="6.14461">
        <ele>1977.8</ele>
        <time>2021-02-03T10:03:18Z</time>
      </trkpt>
      <trkpt lat="45.38941" lon="6.14461">
        <ele>1978.7</ele>
        <time>2021-02-03T10:03:19Z</time>
      </trkpt>
      <trkpt lat="45.3894" lon="6.14462">
        <ele>1979</ele>
        <time>2021-02-03T10:03:20Z</time>
      </trkpt>
      <trkpt lat="45.38939" lon="6.14462">
        <ele>1979</ele>
        <time>2021-02-03T10:03:21Z</time>
      </trkpt>
      <trkpt lat="45.38939" lon="6.14463">
        <ele>1979</ele>
        <time>2021-02-03T10:03:22Z</time>
      </trkpt>
      <trkpt lat="45.38938" lon="6.14463">
        <ele>1979</ele>
        <time>2021-02-03T10:03:23Z</time>
      </trkpt>
      <trkpt lat="45.38937" lon="6.14464">
        <ele>1979.9</ele>
        <time>2021-02-03T10:03:24Z</time>
      </trkpt>
      <trkpt lat="45.38937" lon="6.14464">
        <ele>1979.9</ele>
        <time>2021-02-03T10:03:25Z</time>
      </trkpt>
      <trkpt lat="45.38937" lon="6.14465">
        <ele>1979.9</ele>
        <time>2021-02-03T10:03:26Z</time>
      </trkpt>
      <trkpt lat="45.38936" lon="6.14465">
        <ele>1979.9</ele>
        <time>2021-02-03T10:03:27Z</time>
      </trkpt>
      <trkpt lat="45.38935" lon="6.14466">
        <ele>1979.9</ele>
        <time>2021-02-03T10:03:28Z</time>
      </trkpt>
      <trkpt lat="45.38935" lon="6.14466">
        <ele>1980.7</ele>
        <time>2021-02-03T10:03:29Z</time>
      </trkpt>
      <trkpt lat="45.38934" lon="6.14467">
        <ele>1981.1</ele>
        <time>2021-02-03T10:03:30Z</time>
      </trkpt>
      <trkpt lat="45.38934" lon="6.14467">
        <ele>1981.1</ele>
        <time>2021-02-03T10:03:31Z</time>
      </trkpt>
      <trkpt lat="45.38933" lon="6.14468">
        <ele>1981.1</ele>
        <time>2021-02-03T10:03:32Z</time>
      </trkpt>
      <trkpt lat="45.38933" lon="6.14468">
        <ele>1981.1</ele>
        <time>2021-02-03T10:03:33Z</time>
      </trkpt>
      <trkpt lat="45.38933" lon="6.14469">
        <ele>1981.1</ele>
        <time>2021-02-03T10:03:34Z</time>
      </trkpt>
      <trkpt lat="45.38932" lon="6.14469">
        <ele>1981.1</ele>
        <time>2021-02-03T10:03:35Z</time>
      </trkpt>
      <trkpt lat="45.38931" lon="6.14469">
        <ele>1981.8</ele>
        <time>2021-02-03T10:03:36Z</time>
      </trkpt>
      <trkpt lat="45.38931" lon="6.14469">
        <ele>1981.8</ele>
        <time>2021-02-03T10:03:37Z</time>
      </trkpt>
      <trkpt lat="45.3893" lon="6.14469">
        <ele>1981.8</ele>
        <time>2021-02-03T10:03:38Z</time>
      </trkpt>
      <trkpt lat="45.3893" lon="6.1447">
        <ele>1981.8</ele>
        <time>2021-02-03T10:03:39Z</time>
      </trkpt>
      <trkpt lat="45.38929" lon="6.1447">
        <ele>1982.5</ele>
        <time>2021-02-03T10:03:40Z</time>
      </trkpt>
      <trkpt lat="45.38928" lon="6.1447">
        <ele>1982.5</ele>
        <time>2021-02-03T10:03:41Z</time>
      </trkpt>
      <trkpt lat="45.38928" lon="6.14471">
        <ele>1983</ele>
        <time>2021-02-03T10:03:42Z</time>
      </trkpt>
      <trkpt lat="45.38927" lon="6.14471">
        <ele>1983</ele>
        <time>2021-02-03T10:03:43Z</time>
      </trkpt>
      <trkpt lat="45.38927" lon="6.14472">
        <ele>1983</ele>
        <time>2021-02-03T10:03:44Z</time>
      </trkpt>
      <trkpt lat="45.38927" lon="6.14472">
        <ele>1983</ele>
        <time>2021-02-03T10:03:45Z</time>
      </trkpt>
      <trkpt lat="45.38927" lon="6.14472">
        <ele>1983</ele>
        <time>2021-02-03T10:03:46Z</time>
      </trkpt>
      <trkpt lat="45.38927" lon="6.14473">
        <ele>1983</ele>
        <time>2021-02-03T10:03:47Z</time>
      </trkpt>
      <trkpt lat="45.38927" lon="6.14473">
        <ele>1983</ele>
        <time>2021-02-03T10:03:48Z</time>
      </trkpt>
      <trkpt lat="45.38927" lon="6.14473">
        <ele>1983</ele>
        <time>2021-02-03T10:03:49Z</time>
      </trkpt>
      <trkpt lat="45.38927" lon="6.14473">
        <ele>1983</ele>
        <time>2021-02-03T10:03:50Z</time>
      </trkpt>
      <trkpt lat="45.38927" lon="6.14473">
        <ele>1983</ele>
        <time>2021-02-03T10:03:51Z</time>
      </trkpt>
      <trkpt lat="45.38927" lon="6.14474">
        <ele>1983</ele>
        <time>2021-02-03T10:03:52Z</time>
      </trkpt>
      <trkpt lat="45.38926" lon="6.14474">
        <ele>1983</ele>
        <time>2021-02-03T10:03:53Z</time>
      </trkpt>
      <trkpt lat="45.38926" lon="6.14474">
        <ele>1983</ele>
        <time>2021-02-03T10:03:54Z</time>
      </trkpt>
      <trkpt lat="45.38926" lon="6.14474">
        <ele>1983</ele>
        <time>2021-02-03T10:03:55Z</time>
      </trkpt>
      <trkpt lat="45.38926" lon="6.14475">
        <ele>1983</ele>
        <time>2021-02-03T10:04:08Z</time>
      </trkpt>
      <trkpt lat="45.38926" lon="6.14475">
        <ele>1983.4</ele>
        <time>2021-02-03T10:04:09Z</time>
      </trkpt>
      <trkpt lat="45.38926" lon="6.14475">
        <ele>1983.4</ele>
        <time>2021-02-03T10:04:10Z</time>
      </trkpt>
      <trkpt lat="45.38926" lon="6.14475">
        <ele>1983.4</ele>
        <time>2021-02-03T10:04:11Z</time>
      </trkpt>
      <trkpt lat="45.38926" lon="6.14476">
        <ele>1983.4</ele>
        <time>2021-02-03T10:04:12Z</time>
      </trkpt>
      <trkpt lat="45.38926" lon="6.14476">
        <ele>1983.4</ele>
        <time>2021-02-03T10:04:13Z</time>
      </trkpt>
      <trkpt lat="45.38926" lon="6.14476">
        <ele>1983.4</ele>
        <time>2021-02-03T10:04:14Z</time>
      </trkpt>
      <trkpt lat="45.38926" lon="6.14476">
        <ele>1983.4</ele>
        <time>2021-02-03T10:04:15Z</time>
      </trkpt>
      <trkpt lat="45.38926" lon="6.14477">
        <ele>1983.4</ele>
        <time>2021-02-03T10:04:16Z</time>
      </trkpt>
      <trkpt lat="45.38926" lon="6.14477">
        <ele>1984.2</ele>
        <time>2021-02-03T10:04:17Z</time>
      </trkpt>
      <trkpt lat="45.38926" lon="6.14477">
        <ele>1984.2</ele>
        <time>2021-02-03T10:04:18Z</time>
      </trkpt>
      <trkpt lat="45.38926" lon="6.14477">
        <ele>1984.2</ele>
        <time>2021-02-03T10:04:19Z</time>
      </trkpt>
      <trkpt lat="45.38926" lon="6.14478">
        <ele>1984.2</ele>
        <time>2021-02-03T10:04:20Z</time>
      </trkpt>
      <trkpt lat="45.38926" lon="6.14478">
        <ele>1984.2</ele>
        <time>2021-02-03T10:04:21Z</time>
      </trkpt>
      <trkpt lat="45.38926" lon="6.14478">
        <ele>1984.2</ele>
        <time>2021-02-03T10:04:22Z</time>
      </trkpt>
      <trkpt lat="45.38926" lon="6.14478">
        <ele>1984.2</ele>
        <time>2021-02-03T10:04:25Z</time>
      </trkpt>
      <trkpt lat="45.38926" lon="6.14479">
        <ele>1984.2</ele>
        <time>2021-02-03T10:04:26Z</time>
      </trkpt>
      <trkpt lat="45.38925" lon="6.14479">
        <ele>1984.2</ele>
        <time>2021-02-03T10:04:27Z</time>
      </trkpt>
      <trkpt lat="45.38925" lon="6.14479">
        <ele>1984.2</ele>
        <time>2021-02-03T10:04:28Z</time>
      </trkpt>
      <trkpt lat="45.38925" lon="6.1448">
        <ele>1984.7</ele>
        <time>2021-02-03T10:04:29Z</time>
      </trkpt>
      <trkpt lat="45.38925" lon="6.1448">
        <ele>1984.7</ele>
        <time>2021-02-03T10:04:30Z</time>
      </trkpt>
      <trkpt lat="45.38925" lon="6.1448">
        <ele>1984.7</ele>
        <time>2021-02-03T10:04:31Z</time>
      </trkpt>
      <trkpt lat="45.38925" lon="6.14481">
        <ele>1984.7</ele>
        <time>2021-02-03T10:04:32Z</time>
      </trkpt>
      <trkpt lat="45.38925" lon="6.14481">
        <ele>1984.7</ele>
        <time>2021-02-03T10:04:33Z</time>
      </trkpt>
      <trkpt lat="45.38925" lon="6.14482">
        <ele>1984.7</ele>
        <time>2021-02-03T10:04:34Z</time>
      </trkpt>
      <trkpt lat="45.38924" lon="6.14482">
        <ele>1984.7</ele>
        <time>2021-02-03T10:04:35Z</time>
      </trkpt>
      <trkpt lat="45.38924" lon="6.14482">
        <ele>1984.7</ele>
        <time>2021-02-03T10:04:36Z</time>
      </trkpt>
      <trkpt lat="45.38924" lon="6.14482">
        <ele>1984.7</ele>
        <time>2021-02-03T10:04:37Z</time>
      </trkpt>
      <trkpt lat="45.38923" lon="6.14483">
        <ele>1984.7</ele>
        <time>2021-02-03T10:04:38Z</time>
      </trkpt>
      <trkpt lat="45.38923" lon="6.14483">
        <ele>1985.2</ele>
        <time>2021-02-03T10:04:39Z</time>
      </trkpt>
      <trkpt lat="45.38923" lon="6.14484">
        <ele>1986.1</ele>
        <time>2021-02-03T10:04:40Z</time>
      </trkpt>
      <trkpt lat="45.38922" lon="6.14485">
        <ele>1986.1</ele>
        <time>2021-02-03T10:04:41Z</time>
      </trkpt>
      <trkpt lat="45.38922" lon="6.14486">
        <ele>1986.1</ele>
        <time>2021-02-03T10:04:42Z</time>
      </trkpt>
      <trkpt lat="45.38921" lon="6.14486">
        <ele>1986.1</ele>
        <time>2021-02-03T10:04:43Z</time>
      </trkpt>
      <trkpt lat="45.38921" lon="6.14487">
        <ele>1986.1</ele>
        <time>2021-02-03T10:04:44Z</time>
      </trkpt>
      <trkpt lat="45.3892" lon="6.14487">
        <ele>1986.1</ele>
        <time>2021-02-03T10:04:45Z</time>
      </trkpt>
      <trkpt lat="45.38919" lon="6.14488">
        <ele>1987.2</ele>
        <time>2021-02-03T10:04:46Z</time>
      </trkpt>
      <trkpt lat="45.38919" lon="6.14488">
        <ele>1987.8</ele>
        <time>2021-02-03T10:04:47Z</time>
      </trkpt>
      <trkpt lat="45.38919" lon="6.14488">
        <ele>1987.8</ele>
        <time>2021-02-03T10:04:48Z</time>
      </trkpt>
      <trkpt lat="45.38919" lon="6.14489">
        <ele>1987.8</ele>
        <time>2021-02-03T10:04:49Z</time>
      </trkpt>
      <trkpt lat="45.38918" lon="6.14489">
        <ele>1987.8</ele>
        <time>2021-02-03T10:04:50Z</time>
      </trkpt>
      <trkpt lat="45.38918" lon="6.1449">
        <ele>1987.8</ele>
        <time>2021-02-03T10:04:51Z</time>
      </trkpt>
      <trkpt lat="45.38918" lon="6.14491">
        <ele>1987.8</ele>
        <time>2021-02-03T10:04:52Z</time>
      </trkpt>
      <trkpt lat="45.38917" lon="6.14491">
        <ele>1987.8</ele>
        <time>2021-02-03T10:04:53Z</time>
      </trkpt>
      <trkpt lat="45.38917" lon="6.14492">
        <ele>1987.8</ele>
        <time>2021-02-03T10:04:54Z</time>
      </trkpt>
      <trkpt lat="45.38917" lon="6.14492">
        <ele>1988.4</ele>
        <time>2021-02-03T10:04:55Z</time>
      </trkpt>
      <trkpt lat="45.38916" lon="6.14493">
        <ele>1989.6</ele>
        <time>2021-02-03T10:04:56Z</time>
      </trkpt>
      <trkpt lat="45.38916" lon="6.14494">
        <ele>1989.6</ele>
        <time>2021-02-03T10:04:57Z</time>
      </trkpt>
      <trkpt lat="45.38916" lon="6.14495">
        <ele>1989.6</ele>
        <time>2021-02-03T10:04:58Z</time>
      </trkpt>
      <trkpt lat="45.38915" lon="6.14496">
        <ele>1989.6</ele>
        <time>2021-02-03T10:04:59Z</time>
      </trkpt>
      <trkpt lat="45.38915" lon="6.14496">
        <ele>1989.6</ele>
        <time>2021-02-03T10:05:00Z</time>
      </trkpt>
      <trkpt lat="45.38914" lon="6.14497">
        <ele>1990.2</ele>
        <time>2021-02-03T10:05:01Z</time>
      </trkpt>
      <trkpt lat="45.38914" lon="6.14498">
        <ele>1990.2</ele>
        <time>2021-02-03T10:05:02Z</time>
      </trkpt>
      <trkpt lat="45.38913" lon="6.14498">
        <ele>1991.4</ele>
        <time>2021-02-03T10:05:03Z</time>
      </trkpt>
      <trkpt lat="45.38913" lon="6.14499">
        <ele>1991.4</ele>
        <time>2021-02-03T10:05:04Z</time>
      </trkpt>
      <trkpt lat="45.38912" lon="6.145">
        <ele>1991.4</ele>
        <time>2021-02-03T10:05:05Z</time>
      </trkpt>
      <trkpt lat="45.38912" lon="6.145">
        <ele>1991.4</ele>
        <time>2021-02-03T10:05:06Z</time>
      </trkpt>
      <trkpt lat="45.38911" lon="6.14501">
        <ele>1992.1</ele>
        <time>2021-02-03T10:05:07Z</time>
      </trkpt>
      <trkpt lat="45.38911" lon="6.14502">
        <ele>1993.1</ele>
        <time>2021-02-03T10:05:08Z</time>
      </trkpt>
      <trkpt lat="45.3891" lon="6.14502">
        <ele>1993.1</ele>
        <time>2021-02-03T10:05:09Z</time>
      </trkpt>
      <trkpt lat="45.3891" lon="6.14503">
        <ele>1993.1</ele>
        <time>2021-02-03T10:05:10Z</time>
      </trkpt>
      <trkpt lat="45.38909" lon="6.14503">
        <ele>1993.1</ele>
        <time>2021-02-03T10:05:11Z</time>
      </trkpt>
      <trkpt lat="45.38908" lon="6.14503">
        <ele>1993.1</ele>
        <time>2021-02-03T10:05:12Z</time>
      </trkpt>
      <trkpt lat="45.38908" lon="6.14504">
        <ele>1993.1</ele>
        <time>2021-02-03T10:05:13Z</time>
      </trkpt>
      <trkpt lat="45.38907" lon="6.14504">
        <ele>1994.1</ele>
        <time>2021-02-03T10:05:14Z</time>
      </trkpt>
      <trkpt lat="45.38907" lon="6.14504">
        <ele>1994.1</ele>
        <time>2021-02-03T10:05:15Z</time>
      </trkpt>
      <trkpt lat="45.38906" lon="6.14504">
        <ele>1994.1</ele>
        <time>2021-02-03T10:05:16Z</time>
      </trkpt>
      <trkpt lat="45.38905" lon="6.14505">
        <ele>1994.1</ele>
        <time>2021-02-03T10:05:17Z</time>
      </trkpt>
      <trkpt lat="45.38904" lon="6.14505">
        <ele>1995</ele>
        <time>2021-02-03T10:05:18Z</time>
      </trkpt>
      <trkpt lat="45.38904" lon="6.14505">
        <ele>1995.8</ele>
        <time>2021-02-03T10:05:19Z</time>
      </trkpt>
      <trkpt lat="45.38903" lon="6.14505">
        <ele>1995.8</ele>
        <time>2021-02-03T10:05:20Z</time>
      </trkpt>
      <trkpt lat="45.38902" lon="6.14505">
        <ele>1995.8</ele>
        <time>2021-02-03T10:05:21Z</time>
      </trkpt>
      <trkpt lat="45.38902" lon="6.14505">
        <ele>1996.7</ele>
        <time>2021-02-03T10:05:22Z</time>
      </trkpt>
      <trkpt lat="45.38901" lon="6.14506">
        <ele>1996.7</ele>
        <time>2021-02-03T10:05:23Z</time>
      </trkpt>
      <trkpt lat="45.389" lon="6.14506">
        <ele>1996.7</ele>
        <time>2021-02-03T10:05:24Z</time>
      </trkpt>
      <trkpt lat="45.389" lon="6.14506">
        <ele>1996.7</ele>
        <time>2021-02-03T10:05:25Z</time>
      </trkpt>
      <trkpt lat="45.38899" lon="6.14506">
        <ele>1996.7</ele>
        <time>2021-02-03T10:05:26Z</time>
      </trkpt>
      <trkpt lat="45.38898" lon="6.14507">
        <ele>1997.6</ele>
        <time>2021-02-03T10:05:27Z</time>
      </trkpt>
      <trkpt lat="45.38898" lon="6.14507">
        <ele>1997.6</ele>
        <time>2021-02-03T10:05:28Z</time>
      </trkpt>
      <trkpt lat="45.38897" lon="6.14507">
        <ele>1997.6</ele>
        <time>2021-02-03T10:05:29Z</time>
      </trkpt>
      <trkpt lat="45.38897" lon="6.14507">
        <ele>1997.6</ele>
        <time>2021-02-03T10:05:30Z</time>
      </trkpt>
      <trkpt lat="45.38896" lon="6.14507">
        <ele>1997.6</ele>
        <time>2021-02-03T10:05:31Z</time>
      </trkpt>
      <trkpt lat="45.38895" lon="6.14507">
        <ele>1998.5</ele>
        <time>2021-02-03T10:05:32Z</time>
      </trkpt>
      <trkpt lat="45.38895" lon="6.14507">
        <ele>1998.5</ele>
        <time>2021-02-03T10:05:33Z</time>
      </trkpt>
      <trkpt lat="45.38894" lon="6.14507">
        <ele>1998.5</ele>
        <time>2021-02-03T10:05:34Z</time>
      </trkpt>
      <trkpt lat="45.38894" lon="6.14508">
        <ele>1998.5</ele>
        <time>2021-02-03T10:05:35Z</time>
      </trkpt>
      <trkpt lat="45.38893" lon="6.14508">
        <ele>1998.5</ele>
        <time>2021-02-03T10:05:36Z</time>
      </trkpt>
      <trkpt lat="45.38893" lon="6.14508">
        <ele>1998.5</ele>
        <time>2021-02-03T10:05:37Z</time>
      </trkpt>
      <trkpt lat="45.38892" lon="6.14508">
        <ele>1999.5</ele>
        <time>2021-02-03T10:05:38Z</time>
      </trkpt>
      <trkpt lat="45.38892" lon="6.14509">
        <ele>1999.5</ele>
        <time>2021-02-03T10:05:39Z</time>
      </trkpt>
      <trkpt lat="45.38891" lon="6.14509">
        <ele>1999.5</ele>
        <time>2021-02-03T10:05:40Z</time>
      </trkpt>
      <trkpt lat="45.38891" lon="6.14509">
        <ele>2000.4</ele>
        <time>2021-02-03T10:05:41Z</time>
      </trkpt>
      <trkpt lat="45.3889" lon="6.1451">
        <ele>2000.4</ele>
        <time>2021-02-03T10:05:42Z</time>
      </trkpt>
      <trkpt lat="45.38889" lon="6.1451">
        <ele>2001.3</ele>
        <time>2021-02-03T10:05:43Z</time>
      </trkpt>
      <trkpt lat="45.38889" lon="6.1451">
        <ele>2001.3</ele>
        <time>2021-02-03T10:05:44Z</time>
      </trkpt>
      <trkpt lat="45.38888" lon="6.14511">
        <ele>2001.3</ele>
        <time>2021-02-03T10:05:45Z</time>
      </trkpt>
      <trkpt lat="45.38888" lon="6.14511">
        <ele>2001.3</ele>
        <time>2021-02-03T10:05:46Z</time>
      </trkpt>
      <trkpt lat="45.38887" lon="6.14511">
        <ele>2001.3</ele>
        <time>2021-02-03T10:05:47Z</time>
      </trkpt>
      <trkpt lat="45.38887" lon="6.14511">
        <ele>2002.1</ele>
        <time>2021-02-03T10:05:48Z</time>
      </trkpt>
      <trkpt lat="45.38886" lon="6.14511">
        <ele>2002.1</ele>
        <time>2021-02-03T10:05:49Z</time>
      </trkpt>
      <trkpt lat="45.38886" lon="6.14511">
        <ele>2002.1</ele>
        <time>2021-02-03T10:05:50Z</time>
      </trkpt>
      <trkpt lat="45.38885" lon="6.14512">
        <ele>2002.1</ele>
        <time>2021-02-03T10:05:51Z</time>
      </trkpt>
      <trkpt lat="45.38884" lon="6.14512">
        <ele>2002.1</ele>
        <time>2021-02-03T10:05:52Z</time>
      </trkpt>
      <trkpt lat="45.38883" lon="6.14512">
        <ele>2002.9</ele>
        <time>2021-02-03T10:05:53Z</time>
      </trkpt>
      <trkpt lat="45.38883" lon="6.14512">
        <ele>2002.9</ele>
        <time>2021-02-03T10:05:54Z</time>
      </trkpt>
      <trkpt lat="45.38882" lon="6.14512">
        <ele>2002.9</ele>
        <time>2021-02-03T10:05:55Z</time>
      </trkpt>
      <trkpt lat="45.38882" lon="6.14512">
        <ele>2002.9</ele>
        <time>2021-02-03T10:05:56Z</time>
      </trkpt>
      <trkpt lat="45.38881" lon="6.14512">
        <ele>2002.9</ele>
        <time>2021-02-03T10:05:57Z</time>
      </trkpt>
      <trkpt lat="45.3888" lon="6.14512">
        <ele>2003.6</ele>
        <time>2021-02-03T10:05:58Z</time>
      </trkpt>
      <trkpt lat="45.3888" lon="6.14513">
        <ele>2003.6</ele>
        <time>2021-02-03T10:05:59Z</time>
      </trkpt>
      <trkpt lat="45.38879" lon="6.14513">
        <ele>2003.6</ele>
        <time>2021-02-03T10:06:00Z</time>
      </trkpt>
      <trkpt lat="45.38879" lon="6.14513">
        <ele>2003.6</ele>
        <time>2021-02-03T10:06:01Z</time>
      </trkpt>
      <trkpt lat="45.38878" lon="6.14513">
        <ele>2003.6</ele>
        <time>2021-02-03T10:06:02Z</time>
      </trkpt>
      <trkpt lat="45.38878" lon="6.14514">
        <ele>2005.3</ele>
        <time>2021-02-03T10:06:03Z</time>
      </trkpt>
      <trkpt lat="45.38877" lon="6.14514">
        <ele>2005.3</ele>
        <time>2021-02-03T10:06:04Z</time>
      </trkpt>
      <trkpt lat="45.38877" lon="6.14514">
        <ele>2005.3</ele>
        <time>2021-02-03T10:06:05Z</time>
      </trkpt>
      <trkpt lat="45.38876" lon="6.14515">
        <ele>2005.3</ele>
        <time>2021-02-03T10:06:06Z</time>
      </trkpt>
      <trkpt lat="45.38876" lon="6.14515">
        <ele>2005.3</ele>
        <time>2021-02-03T10:06:07Z</time>
      </trkpt>
      <trkpt lat="45.38875" lon="6.14516">
        <ele>2005.3</ele>
        <time>2021-02-03T10:06:08Z</time>
      </trkpt>
      <trkpt lat="45.38875" lon="6.14516">
        <ele>2005.3</ele>
        <time>2021-02-03T10:06:09Z</time>
      </trkpt>
      <trkpt lat="45.38874" lon="6.14516">
        <ele>2005.9</ele>
        <time>2021-02-03T10:06:10Z</time>
      </trkpt>
      <trkpt lat="45.38874" lon="6.14516">
        <ele>2005.9</ele>
        <time>2021-02-03T10:06:11Z</time>
      </trkpt>
      <trkpt lat="45.38873" lon="6.14517">
        <ele>2005.9</ele>
        <time>2021-02-03T10:06:12Z</time>
      </trkpt>
      <trkpt lat="45.38873" lon="6.14517">
        <ele>2005.9</ele>
        <time>2021-02-03T10:06:13Z</time>
      </trkpt>
      <trkpt lat="45.38872" lon="6.14518">
        <ele>2006.9</ele>
        <time>2021-02-03T10:06:14Z</time>
      </trkpt>
      <trkpt lat="45.38872" lon="6.14518">
        <ele>2006.9</ele>
        <time>2021-02-03T10:06:15Z</time>
      </trkpt>
      <trkpt lat="45.38871" lon="6.14518">
        <ele>2007.6</ele>
        <time>2021-02-03T10:06:16Z</time>
      </trkpt>
      <trkpt lat="45.38871" lon="6.14518">
        <ele>2007.6</ele>
        <time>2021-02-03T10:06:17Z</time>
      </trkpt>
      <trkpt lat="45.3887" lon="6.14518">
        <ele>2007.6</ele>
        <time>2021-02-03T10:06:18Z</time>
      </trkpt>
      <trkpt lat="45.3887" lon="6.14518">
        <ele>2007.6</ele>
        <time>2021-02-03T10:06:19Z</time>
      </trkpt>
      <trkpt lat="45.38869" lon="6.14518">
        <ele>2007.6</ele>
        <time>2021-02-03T10:06:20Z</time>
      </trkpt>
      <trkpt lat="45.38869" lon="6.14519">
        <ele>2007.6</ele>
        <time>2021-02-03T10:06:21Z</time>
      </trkpt>
      <trkpt lat="45.38868" lon="6.14519">
        <ele>2008.3</ele>
        <time>2021-02-03T10:06:22Z</time>
      </trkpt>
      <trkpt lat="45.38868" lon="6.14519">
        <ele>2008.3</ele>
        <time>2021-02-03T10:06:23Z</time>
      </trkpt>
      <trkpt lat="45.38867" lon="6.1452">
        <ele>2008.3</ele>
        <time>2021-02-03T10:06:24Z</time>
      </trkpt>
      <trkpt lat="45.38866" lon="6.1452">
        <ele>2008.3</ele>
        <time>2021-02-03T10:06:25Z</time>
      </trkpt>
      <trkpt lat="45.38866" lon="6.1452">
        <ele>2008.3</ele>
        <time>2021-02-03T10:06:26Z</time>
      </trkpt>
      <trkpt lat="45.38866" lon="6.1452">
        <ele>2008.3</ele>
        <time>2021-02-03T10:06:27Z</time>
      </trkpt>
      <trkpt lat="45.38865" lon="6.1452">
        <ele>2009</ele>
        <time>2021-02-03T10:06:28Z</time>
      </trkpt>
      <trkpt lat="45.38865" lon="6.1452">
        <ele>2009</ele>
        <time>2021-02-03T10:06:29Z</time>
      </trkpt>
      <trkpt lat="45.38864" lon="6.14521">
        <ele>2009</ele>
        <time>2021-02-03T10:06:30Z</time>
      </trkpt>
      <trkpt lat="45.38863" lon="6.14521">
        <ele>2009</ele>
        <time>2021-02-03T10:06:31Z</time>
      </trkpt>
      <trkpt lat="45.38862" lon="6.14522">
        <ele>2009.7</ele>
        <time>2021-02-03T10:06:32Z</time>
      </trkpt>
      <trkpt lat="45.38861" lon="6.14522">
        <ele>2009.7</ele>
        <time>2021-02-03T10:06:33Z</time>
      </trkpt>
      <trkpt lat="45.3886" lon="6.14522">
        <ele>2010.8</ele>
        <time>2021-02-03T10:06:34Z</time>
      </trkpt>
      <trkpt lat="45.3886" lon="6.14523">
        <ele>2010.8</ele>
        <time>2021-02-03T10:06:35Z</time>
      </trkpt>
      <trkpt lat="45.38859" lon="6.14523">
        <ele>2011.5</ele>
        <time>2021-02-03T10:06:36Z</time>
      </trkpt>
      <trkpt lat="45.38858" lon="6.14523">
        <ele>2011.5</ele>
        <time>2021-02-03T10:07:05Z</time>
      </trkpt>
      <trkpt lat="45.38857" lon="6.14524">
        <ele>2011.5</ele>
        <time>2021-02-03T10:07:06Z</time>
      </trkpt>
      <trkpt lat="45.38856" lon="6.14524">
        <ele>2012.1</ele>
        <time>2021-02-03T10:07:07Z</time>
      </trkpt>
      <trkpt lat="45.38856" lon="6.14525">
        <ele>2012.1</ele>
        <time>2021-02-03T10:07:08Z</time>
      </trkpt>
      <trkpt lat="45.38855" lon="6.14525">
        <ele>2012.1</ele>
        <time>2021-02-03T10:07:09Z</time>
      </trkpt>
      <trkpt lat="45.38854" lon="6.14525">
        <ele>2012.1</ele>
        <time>2021-02-03T10:07:10Z</time>
      </trkpt>
      <trkpt lat="45.38854" lon="6.14526">
        <ele>2012.8</ele>
        <time>2021-02-03T10:07:11Z</time>
      </trkpt>
      <trkpt lat="45.38853" lon="6.14526">
        <ele>2012.8</ele>
        <time>2021-02-03T10:07:12Z</time>
      </trkpt>
      <trkpt lat="45.38852" lon="6.14526">
        <ele>2013.9</ele>
        <time>2021-02-03T10:07:13Z</time>
      </trkpt>
      <trkpt lat="45.38852" lon="6.14527">
        <ele>2013.9</ele>
        <time>2021-02-03T10:07:14Z</time>
      </trkpt>
      <trkpt lat="45.38851" lon="6.14527">
        <ele>2013.9</ele>
        <time>2021-02-03T10:07:15Z</time>
      </trkpt>
      <trkpt lat="45.3885" lon="6.14527">
        <ele>2014.5</ele>
        <time>2021-02-03T10:07:16Z</time>
      </trkpt>
      <trkpt lat="45.3885" lon="6.14527">
        <ele>2014.5</ele>
        <time>2021-02-03T10:07:17Z</time>
      </trkpt>
      <trkpt lat="45.38849" lon="6.14528">
        <ele>2014.5</ele>
        <time>2021-02-03T10:07:18Z</time>
      </trkpt>
      <trkpt lat="45.38849" lon="6.14528">
        <ele>2014.5</ele>
        <time>2021-02-03T10:07:19Z</time>
      </trkpt>
      <trkpt lat="45.38848" lon="6.14529">
        <ele>2014.5</ele>
        <time>2021-02-03T10:07:20Z</time>
      </trkpt>
      <trkpt lat="45.38848" lon="6.14529">
        <ele>2014.5</ele>
        <time>2021-02-03T10:07:21Z</time>
      </trkpt>
      <trkpt lat="45.38847" lon="6.1453">
        <ele>2015</ele>
        <time>2021-02-03T10:07:22Z</time>
      </trkpt>
      <trkpt lat="45.38847" lon="6.1453">
        <ele>2015</ele>
        <time>2021-02-03T10:07:23Z</time>
      </trkpt>
      <trkpt lat="45.38846" lon="6.14531">
        <ele>2016.2</ele>
        <time>2021-02-03T10:07:24Z</time>
      </trkpt>
      <trkpt lat="45.38846" lon="6.14532">
        <ele>2016.2</ele>
        <time>2021-02-03T10:07:25Z</time>
      </trkpt>
      <trkpt lat="45.38845" lon="6.14532">
        <ele>2016.2</ele>
        <time>2021-02-03T10:07:26Z</time>
      </trkpt>
      <trkpt lat="45.38845" lon="6.14533">
        <ele>2016.2</ele>
        <time>2021-02-03T10:07:27Z</time>
      </trkpt>
      <trkpt lat="45.38844" lon="6.14534">
        <ele>2016.7</ele>
        <time>2021-02-03T10:07:28Z</time>
      </trkpt>
      <trkpt lat="45.38844" lon="6.14534">
        <ele>2016.7</ele>
        <time>2021-02-03T10:07:29Z</time>
      </trkpt>
      <trkpt lat="45.38843" lon="6.14535">
        <ele>2016.7</ele>
        <time>2021-02-03T10:07:30Z</time>
      </trkpt>
      <trkpt lat="45.38843" lon="6.14536">
        <ele>2017.8</ele>
        <time>2021-02-03T10:07:31Z</time>
      </trkpt>
      <trkpt lat="45.38842" lon="6.14536">
        <ele>2017.8</ele>
        <time>2021-02-03T10:07:32Z</time>
      </trkpt>
      <trkpt lat="45.38841" lon="6.14537">
        <ele>2018.3</ele>
        <time>2021-02-03T10:07:33Z</time>
      </trkpt>
      <trkpt lat="45.38841" lon="6.14537">
        <ele>2018.3</ele>
        <time>2021-02-03T10:07:34Z</time>
      </trkpt>
      <trkpt lat="45.38841" lon="6.14538">
        <ele>2018.3</ele>
        <time>2021-02-03T10:07:35Z</time>
      </trkpt>
      <trkpt lat="45.3884" lon="6.14538">
        <ele>2018.3</ele>
        <time>2021-02-03T10:07:36Z</time>
      </trkpt>
      <trkpt lat="45.3884" lon="6.14539">
        <ele>2018.3</ele>
        <time>2021-02-03T10:07:37Z</time>
      </trkpt>
      <trkpt lat="45.3884" lon="6.1454">
        <ele>2019.3</ele>
        <time>2021-02-03T10:07:38Z</time>
      </trkpt>
      <trkpt lat="45.38839" lon="6.1454">
        <ele>2019.3</ele>
        <time>2021-02-03T10:07:39Z</time>
      </trkpt>
      <trkpt lat="45.38839" lon="6.14541">
        <ele>2019.3</ele>
        <time>2021-02-03T10:07:40Z</time>
      </trkpt>
      <trkpt lat="45.38838" lon="6.14541">
        <ele>2019.9</ele>
        <time>2021-02-03T10:07:41Z</time>
      </trkpt>
      <trkpt lat="45.38838" lon="6.14542">
        <ele>2019.9</ele>
        <time>2021-02-03T10:07:42Z</time>
      </trkpt>
      <trkpt lat="45.38838" lon="6.14543">
        <ele>2019.9</ele>
        <time>2021-02-03T10:07:43Z</time>
      </trkpt>
      <trkpt lat="45.38837" lon="6.14543">
        <ele>2019.9</ele>
        <time>2021-02-03T10:07:44Z</time>
      </trkpt>
      <trkpt lat="45.38837" lon="6.14544">
        <ele>2020.9</ele>
        <time>2021-02-03T10:07:45Z</time>
      </trkpt>
      <trkpt lat="45.38836" lon="6.14545">
        <ele>2020.9</ele>
        <time>2021-02-03T10:07:46Z</time>
      </trkpt>
      <trkpt lat="45.38836" lon="6.14545">
        <ele>2020.9</ele>
        <time>2021-02-03T10:07:47Z</time>
      </trkpt>
      <trkpt lat="45.38835" lon="6.14546">
        <ele>2021.5</ele>
        <time>2021-02-03T10:07:48Z</time>
      </trkpt>
      <trkpt lat="45.38835" lon="6.14547">
        <ele>2021.5</ele>
        <time>2021-02-03T10:07:49Z</time>
      </trkpt>
      <trkpt lat="45.38835" lon="6.14547">
        <ele>2021.5</ele>
        <time>2021-02-03T10:07:50Z</time>
      </trkpt>
      <trkpt lat="45.38834" lon="6.14548">
        <ele>2021.5</ele>
        <time>2021-02-03T10:07:51Z</time>
      </trkpt>
      <trkpt lat="45.38834" lon="6.14548">
        <ele>2022.4</ele>
        <time>2021-02-03T10:07:52Z</time>
      </trkpt>
      <trkpt lat="45.38833" lon="6.14549">
        <ele>2022.4</ele>
        <time>2021-02-03T10:07:53Z</time>
      </trkpt>
      <trkpt lat="45.38833" lon="6.14549">
        <ele>2022.4</ele>
        <time>2021-02-03T10:07:54Z</time>
      </trkpt>
      <trkpt lat="45.38832" lon="6.1455">
        <ele>2023</ele>
        <time>2021-02-03T10:07:55Z</time>
      </trkpt>
      <trkpt lat="45.38832" lon="6.1455">
        <ele>2023</ele>
        <time>2021-02-03T10:07:56Z</time>
      </trkpt>
      <trkpt lat="45.38832" lon="6.14551">
        <ele>2023</ele>
        <time>2021-02-03T10:07:57Z</time>
      </trkpt>
      <trkpt lat="45.38832" lon="6.14552">
        <ele>2023</ele>
        <time>2021-02-03T10:07:58Z</time>
      </trkpt>
      <trkpt lat="45.38831" lon="6.14552">
        <ele>2023</ele>
        <time>2021-02-03T10:07:59Z</time>
      </trkpt>
      <trkpt lat="45.38832" lon="6.14552">
        <ele>2023</ele>
        <time>2021-02-03T10:08:00Z</time>
      </trkpt>
      <trkpt lat="45.38832" lon="6.14551">
        <ele>2023</ele>
        <time>2021-02-03T10:08:01Z</time>
      </trkpt>
      <trkpt lat="45.38832" lon="6.14551">
        <ele>2023</ele>
        <time>2021-02-03T10:08:02Z</time>
      </trkpt>
      <trkpt lat="45.38832" lon="6.1455">
        <ele>2023</ele>
        <time>2021-02-03T10:08:03Z</time>
      </trkpt>
      <trkpt lat="45.38833" lon="6.1455">
        <ele>2022.4</ele>
        <time>2021-02-03T10:08:04Z</time>
      </trkpt>
      <trkpt lat="45.38833" lon="6.14549">
        <ele>2022.4</ele>
        <time>2021-02-03T10:08:05Z</time>
      </trkpt>
      <trkpt lat="45.38833" lon="6.14549">
        <ele>2022.4</ele>
        <time>2021-02-03T10:08:06Z</time>
      </trkpt>
      <trkpt lat="45.38833" lon="6.14548">
        <ele>2022.4</ele>
        <time>2021-02-03T10:08:07Z</time>
      </trkpt>
      <trkpt lat="45.38834" lon="6.14547">
        <ele>2021.5</ele>
        <time>2021-02-03T10:08:08Z</time>
      </trkpt>
      <trkpt lat="45.38834" lon="6.14547">
        <ele>2021.5</ele>
        <time>2021-02-03T10:08:09Z</time>
      </trkpt>
      <trkpt lat="45.38834" lon="6.14546">
        <ele>2021.5</ele>
        <time>2021-02-03T10:10:15Z</time>
      </trkpt>
      <trkpt lat="45.38834" lon="6.14546">
        <ele>2021.5</ele>
        <time>2021-02-03T10:10:16Z</time>
      </trkpt>
      <trkpt lat="45.38835" lon="6.14545">
        <ele>2021.5</ele>
        <time>2021-02-03T10:10:17Z</time>
      </trkpt>
      <trkpt lat="45.38835" lon="6.14545">
        <ele>2021.5</ele>
        <time>2021-02-03T10:10:18Z</time>
      </trkpt>
      <trkpt lat="45.38835" lon="6.14544">
        <ele>2021.5</ele>
        <time>2021-02-03T10:10:19Z</time>
      </trkpt>
      <trkpt lat="45.38836" lon="6.14543">
        <ele>2019.9</ele>
        <time>2021-02-03T10:10:20Z</time>
      </trkpt>
      <trkpt lat="45.38837" lon="6.14542">
        <ele>2019.9</ele>
        <time>2021-02-03T10:10:21Z</time>
      </trkpt>
      <trkpt lat="45.38838" lon="6.14541">
        <ele>2019.9</ele>
        <time>2021-02-03T10:10:22Z</time>
      </trkpt>
      <trkpt lat="45.38838" lon="6.1454">
        <ele>2019.9</ele>
        <time>2021-02-03T10:10:23Z</time>
      </trkpt>
      <trkpt lat="45.3884" lon="6.14539">
        <ele>2018.3</ele>
        <time>2021-02-03T10:10:24Z</time>
      </trkpt>
      <trkpt lat="45.38841" lon="6.14538">
        <ele>2018.3</ele>
        <time>2021-02-03T10:10:25Z</time>
      </trkpt>
      <trkpt lat="45.38842" lon="6.14537">
        <ele>2017.8</ele>
        <time>2021-02-03T10:10:26Z</time>
      </trkpt>
      <trkpt lat="45.38842" lon="6.14536">
        <ele>2017.8</ele>
        <time>2021-02-03T10:10:27Z</time>
      </trkpt>
      <trkpt lat="45.38843" lon="6.14536">
        <ele>2017.8</ele>
        <time>2021-02-03T10:10:28Z</time>
      </trkpt>
      <trkpt lat="45.38843" lon="6.14535">
        <ele>2017.8</ele>
        <time>2021-02-03T10:10:29Z</time>
      </trkpt>
      <trkpt lat="45.38844" lon="6.14534">
        <ele>2016.7</ele>
        <time>2021-02-03T10:10:30Z</time>
      </trkpt>
      <trkpt lat="45.38844" lon="6.14534">
        <ele>2016.7</ele>
        <time>2021-02-03T10:10:31Z</time>
      </trkpt>
      <trkpt lat="45.38845" lon="6.14534">
        <ele>2016.2</ele>
        <time>2021-02-03T10:10:32Z</time>
      </trkpt>
      <trkpt lat="45.38845" lon="6.14534">
        <ele>2016.2</ele>
        <time>2021-02-03T10:10:33Z</time>
      </trkpt>
      <trkpt lat="45.38846" lon="6.14534">
        <ele>2016.2</ele>
        <time>2021-02-03T10:10:34Z</time>
      </trkpt>
      <trkpt lat="45.38846" lon="6.14533">
        <ele>2016.2</ele>
        <time>2021-02-03T10:10:35Z</time>
      </trkpt>
      <trkpt lat="45.38847" lon="6.14533">
        <ele>2016.2</ele>
        <time>2021-02-03T10:10:36Z</time>
      </trkpt>
      <trkpt lat="45.38847" lon="6.14533">
        <ele>2016.2</ele>
        <time>2021-02-03T10:10:37Z</time>
      </trkpt>
      <trkpt lat="45.38847" lon="6.14533">
        <ele>2016.2</ele>
        <time>2021-02-03T10:10:38Z</time>
      </trkpt>
      <trkpt lat="45.38848" lon="6.14533">
        <ele>2015.6</ele>
        <time>2021-02-03T10:10:39Z</time>
      </trkpt>
      <trkpt lat="45.38848" lon="6.14532">
        <ele>2015.6</ele>
        <time>2021-02-03T10:10:40Z</time>
      </trkpt>
      <trkpt lat="45.38849" lon="6.14532">
        <ele>2015.6</ele>
        <time>2021-02-03T10:10:41Z</time>
      </trkpt>
      <trkpt lat="45.38849" lon="6.14532">
        <ele>2015.6</ele>
        <time>2021-02-03T10:10:42Z</time>
      </trkpt>
      <trkpt lat="45.38849" lon="6.14532">
        <ele>2015.6</ele>
        <time>2021-02-03T10:10:43Z</time>
      </trkpt>
      <trkpt lat="45.3885" lon="6.14531">
        <ele>2015.6</ele>
        <time>2021-02-03T10:10:44Z</time>
      </trkpt>
      <trkpt lat="45.3885" lon="6.14531">
        <ele>2015.6</ele>
        <time>2021-02-03T10:10:58Z</time>
      </trkpt>
      <trkpt lat="45.38851" lon="6.14531">
        <ele>2015</ele>
        <time>2021-02-03T10:10:59Z</time>
      </trkpt>
      <trkpt lat="45.38851" lon="6.14531">
        <ele>2015</ele>
        <time>2021-02-03T10:11:00Z</time>
      </trkpt>
      <trkpt lat="45.38852" lon="6.14531">
        <ele>2015</ele>
        <time>2021-02-03T10:11:01Z</time>
      </trkpt>
      <trkpt lat="45.38852" lon="6.1453">
        <ele>2013.9</ele>
        <time>2021-02-03T10:11:02Z</time>
      </trkpt>
      <trkpt lat="45.38853" lon="6.1453">
        <ele>2013.9</ele>
        <time>2021-02-03T10:11:03Z</time>
      </trkpt>
      <trkpt lat="45.38853" lon="6.14529">
        <ele>2013.9</ele>
        <time>2021-02-03T10:11:04Z</time>
      </trkpt>
      <trkpt lat="45.38854" lon="6.14529">
        <ele>2013.3</ele>
        <time>2021-02-03T10:11:05Z</time>
      </trkpt>
      <trkpt lat="45.38855" lon="6.14528">
        <ele>2013.3</ele>
        <time>2021-02-03T10:11:06Z</time>
      </trkpt>
      <trkpt lat="45.38855" lon="6.14528">
        <ele>2013.3</ele>
        <time>2021-02-03T10:11:07Z</time>
      </trkpt>
      <trkpt lat="45.38856" lon="6.14527">
        <ele>2013.3</ele>
        <time>2021-02-03T10:11:08Z</time>
      </trkpt>
      <trkpt lat="45.38856" lon="6.14527">
        <ele>2013.3</ele>
        <time>2021-02-03T10:11:09Z</time>
      </trkpt>
      <trkpt lat="45.38857" lon="6.14526">
        <ele>2011.5</ele>
        <time>2021-02-03T10:11:10Z</time>
      </trkpt>
      <trkpt lat="45.38857" lon="6.14526">
        <ele>2011.5</ele>
        <time>2021-02-03T10:11:11Z</time>
      </trkpt>
      <trkpt lat="45.38858" lon="6.14525">
        <ele>2011.5</ele>
        <time>2021-02-03T10:11:18Z</time>
      </trkpt>
      <trkpt lat="45.38858" lon="6.14525">
        <ele>2011.5</ele>
        <time>2021-02-03T10:11:19Z</time>
      </trkpt>
      <trkpt lat="45.38859" lon="6.14524">
        <ele>2011.5</ele>
        <time>2021-02-03T10:11:20Z</time>
      </trkpt>
      <trkpt lat="45.38859" lon="6.14524">
        <ele>2011.5</ele>
        <time>2021-02-03T10:11:21Z</time>
      </trkpt>
      <trkpt lat="45.3886" lon="6.14523">
        <ele>2010.8</ele>
        <time>2021-02-03T10:11:22Z</time>
      </trkpt>
      <trkpt lat="45.38861" lon="6.14523">
        <ele>2010.8</ele>
        <time>2021-02-03T10:11:23Z</time>
      </trkpt>
      <trkpt lat="45.38861" lon="6.14523">
        <ele>2010.8</ele>
        <time>2021-02-03T10:11:24Z</time>
      </trkpt>
      <trkpt lat="45.38861" lon="6.14522">
        <ele>2010.8</ele>
        <time>2021-02-03T10:11:25Z</time>
      </trkpt>
      <trkpt lat="45.38862" lon="6.14522">
        <ele>2010.8</ele>
        <time>2021-02-03T10:11:26Z</time>
      </trkpt>
      <trkpt lat="45.38862" lon="6.14522">
        <ele>2009.7</ele>
        <time>2021-02-03T10:11:27Z</time>
      </trkpt>
      <trkpt lat="45.38862" lon="6.14521">
        <ele>2009.7</ele>
        <time>2021-02-03T10:11:28Z</time>
      </trkpt>
      <trkpt lat="45.38863" lon="6.14521">
        <ele>2009</ele>
        <time>2021-02-03T10:11:29Z</time>
      </trkpt>
      <trkpt lat="45.38863" lon="6.14521">
        <ele>2009</ele>
        <time>2021-02-03T10:11:30Z</time>
      </trkpt>
      <trkpt lat="45.38863" lon="6.1452">
        <ele>2009</ele>
        <time>2021-02-03T10:11:31Z</time>
      </trkpt>
      <trkpt lat="45.38864" lon="6.1452">
        <ele>2009</ele>
        <time>2021-02-03T10:11:32Z</time>
      </trkpt>
      <trkpt lat="45.38864" lon="6.1452">
        <ele>2009</ele>
        <time>2021-02-03T10:11:33Z</time>
      </trkpt>
      <trkpt lat="45.38864" lon="6.14519">
        <ele>2009</ele>
        <time>2021-02-03T10:11:34Z</time>
      </trkpt>
      <trkpt lat="45.38865" lon="6.14519">
        <ele>2009</ele>
        <time>2021-02-03T10:11:35Z</time>
      </trkpt>
      <trkpt lat="45.38866" lon="6.14519">
        <ele>2008.3</ele>
        <time>2021-02-03T10:11:36Z</time>
      </trkpt>
      <trkpt lat="45.38868" lon="6.14519">
        <ele>2008.3</ele>
        <time>2021-02-03T10:11:37Z</time>
      </trkpt>
      <trkpt lat="45.38869" lon="6.14518">
        <ele>2007.6</ele>
        <time>2021-02-03T10:11:38Z</time>
      </trkpt>
      <trkpt lat="45.3887" lon="6.14518">
        <ele>2007.6</ele>
        <time>2021-02-03T10:11:39Z</time>
      </trkpt>
      <trkpt lat="45.38871" lon="6.14518">
        <ele>2007.6</ele>
        <time>2021-02-03T10:11:40Z</time>
      </trkpt>
      <trkpt lat="45.38872" lon="6.14518">
        <ele>2006.9</ele>
        <time>2021-02-03T10:11:41Z</time>
      </trkpt>
      <trkpt lat="45.38873" lon="6.14518">
        <ele>2006.9</ele>
        <time>2021-02-03T10:11:42Z</time>
      </trkpt>
      <trkpt lat="45.38874" lon="6.14518">
        <ele>2006.9</ele>
        <time>2021-02-03T10:11:43Z</time>
      </trkpt>
      <trkpt lat="45.38875" lon="6.14518">
        <ele>2006.3</ele>
        <time>2021-02-03T10:11:44Z</time>
      </trkpt>
      <trkpt lat="45.38876" lon="6.14518">
        <ele>2006.3</ele>
        <time>2021-02-03T10:11:45Z</time>
      </trkpt>
      <trkpt lat="45.38877" lon="6.14518">
        <ele>2006.3</ele>
        <time>2021-02-03T10:11:46Z</time>
      </trkpt>
      <trkpt lat="45.38878" lon="6.14518">
        <ele>2005.6</ele>
        <time>2021-02-03T10:11:47Z</time>
      </trkpt>
      <trkpt lat="45.38879" lon="6.14518">
        <ele>2005.6</ele>
        <time>2021-02-03T10:11:48Z</time>
      </trkpt>
      <trkpt lat="45.38881" lon="6.14518">
        <ele>2004.6</ele>
        <time>2021-02-03T10:11:49Z</time>
      </trkpt>
      <trkpt lat="45.38881" lon="6.14517">
        <ele>2003.9</ele>
        <time>2021-02-03T10:11:50Z</time>
      </trkpt>
      <trkpt lat="45.38882" lon="6.14517">
        <ele>2003.9</ele>
        <time>2021-02-03T10:11:51Z</time>
      </trkpt>
      <trkpt lat="45.38882" lon="6.14518">
        <ele>2003.9</ele>
        <time>2021-02-03T10:11:52Z</time>
      </trkpt>
      <trkpt lat="45.38883" lon="6.14518">
        <ele>2003.9</ele>
        <time>2021-02-03T10:11:53Z</time>
      </trkpt>
      <trkpt lat="45.38884" lon="6.14518">
        <ele>2003.1</ele>
        <time>2021-02-03T10:11:54Z</time>
      </trkpt>
      <trkpt lat="45.38883" lon="6.14518">
        <ele>2003.9</ele>
        <time>2021-02-03T10:11:55Z</time>
      </trkpt>
      <trkpt lat="45.38882" lon="6.14518">
        <ele>2003.9</ele>
        <time>2021-02-03T10:11:56Z</time>
      </trkpt>
      <trkpt lat="45.38882" lon="6.14518">
        <ele>2003.9</ele>
        <time>2021-02-03T10:11:57Z</time>
      </trkpt>
      <trkpt lat="45.38881" lon="6.14518">
        <ele>2003.9</ele>
        <time>2021-02-03T10:11:58Z</time>
      </trkpt>
      <trkpt lat="45.3888" lon="6.14518">
        <ele>2004.6</ele>
        <time>2021-02-03T10:11:59Z</time>
      </trkpt>
      <trkpt lat="45.3888" lon="6.14518">
        <ele>2004.6</ele>
        <time>2021-02-03T10:12:00Z</time>
      </trkpt>
      <trkpt lat="45.38879" lon="6.14518">
        <ele>2004.6</ele>
        <time>2021-02-03T10:12:01Z</time>
      </trkpt>
      <trkpt lat="45.38878" lon="6.14518">
        <ele>2004.6</ele>
        <time>2021-02-03T10:12:02Z</time>
      </trkpt>
      <trkpt lat="45.38878" lon="6.14517">
        <ele>2005.3</ele>
        <time>2021-02-03T10:12:03Z</time>
      </trkpt>
      <trkpt lat="45.38877" lon="6.14517">
        <ele>2005.3</ele>
        <time>2021-02-03T10:12:04Z</time>
      </trkpt>
      <trkpt lat="45.38876" lon="6.14517">
        <ele>2005.3</ele>
        <time>2021-02-03T10:12:38Z</time>
      </trkpt>
      <trkpt lat="45.38875" lon="6.14517">
        <ele>2005.3</ele>
        <time>2021-02-03T10:12:39Z</time>
      </trkpt>
      <trkpt lat="45.38875" lon="6.14517">
        <ele>2005.3</ele>
        <time>2021-02-03T10:12:40Z</time>
      </trkpt>
      <trkpt lat="45.38874" lon="6.14517">
        <ele>2005.9</ele>
        <time>2021-02-03T10:12:41Z</time>
      </trkpt>
      <trkpt lat="45.38873" lon="6.14517">
        <ele>2005.9</ele>
        <time>2021-02-03T10:12:42Z</time>
      </trkpt>
      <trkpt lat="45.38873" lon="6.14517">
        <ele>2005.9</ele>
        <time>2021-02-03T10:12:43Z</time>
      </trkpt>
      <trkpt lat="45.38872" lon="6.14517">
        <ele>2005.9</ele>
        <time>2021-02-03T10:12:44Z</time>
      </trkpt>
      <trkpt lat="45.38871" lon="6.14518">
        <ele>2007.6</ele>
        <time>2021-02-03T10:12:45Z</time>
      </trkpt>
      <trkpt lat="45.38871" lon="6.14518">
        <ele>2007.6</ele>
        <time>2021-02-03T10:12:46Z</time>
      </trkpt>
      <trkpt lat="45.3887" lon="6.14518">
        <ele>2007.6</ele>
        <time>2021-02-03T10:12:47Z</time>
      </trkpt>
      <trkpt lat="45.3887" lon="6.14519">
        <ele>2007.6</ele>
        <time>2021-02-03T10:12:48Z</time>
      </trkpt>
      <trkpt lat="45.3887" lon="6.14519">
        <ele>2007.6</ele>
        <time>2021-02-03T10:12:49Z</time>
      </trkpt>
      <trkpt lat="45.3887" lon="6.14518">
        <ele>2007.6</ele>
        <time>2021-02-03T10:12:50Z</time>
      </trkpt>
      <trkpt lat="45.3887" lon="6.14518">
        <ele>2007.6</ele>
        <time>2021-02-03T10:12:51Z</time>
      </trkpt>
      <trkpt lat="45.3887" lon="6.14518">
        <ele>2007.6</ele>
        <time>2021-02-03T10:12:52Z</time>
      </trkpt>
      <trkpt lat="45.38869" lon="6.14518">
        <ele>2007.6</ele>
        <time>2021-02-03T10:12:53Z</time>
      </trkpt>
      <trkpt lat="45.38869" lon="6.14519">
        <ele>2007.6</ele>
        <time>2021-02-03T10:12:54Z</time>
      </trkpt>
      <trkpt lat="45.38868" lon="6.1452">
        <ele>2008.3</ele>
        <time>2021-02-03T10:12:55Z</time>
      </trkpt>
      <trkpt lat="45.38868" lon="6.1452">
        <ele>2008.3</ele>
        <time>2021-02-03T10:12:56Z</time>
      </trkpt>
      <trkpt lat="45.38867" lon="6.14521">
        <ele>2008.3</ele>
        <time>2021-02-03T10:12:57Z</time>
      </trkpt>
      <trkpt lat="45.38867" lon="6.14522">
        <ele>2008.3</ele>
        <time>2021-02-03T10:12:58Z</time>
      </trkpt>
      <trkpt lat="45.38866" lon="6.14522">
        <ele>2009.4</ele>
        <time>2021-02-03T10:12:59Z</time>
      </trkpt>
      <trkpt lat="45.38866" lon="6.14523">
        <ele>2010.1</ele>
        <time>2021-02-03T10:13:00Z</time>
      </trkpt>
      <trkpt lat="45.38865" lon="6.14523">
        <ele>2010.1</ele>
        <time>2021-02-03T10:13:01Z</time>
      </trkpt>
      <trkpt lat="45.38865" lon="6.14524">
        <ele>2010.1</ele>
        <time>2021-02-03T10:13:02Z</time>
      </trkpt>
      <trkpt lat="45.38864" lon="6.14525">
        <ele>2010.1</ele>
        <time>2021-02-03T10:13:03Z</time>
      </trkpt>
      <trkpt lat="45.38864" lon="6.14525">
        <ele>2010.1</ele>
        <time>2021-02-03T10:13:04Z</time>
      </trkpt>
      <trkpt lat="45.38863" lon="6.14525">
        <ele>2010.1</ele>
        <time>2021-02-03T10:13:05Z</time>
      </trkpt>
      <trkpt lat="45.38863" lon="6.14525">
        <ele>2010.1</ele>
        <time>2021-02-03T10:13:06Z</time>
      </trkpt>
      <trkpt lat="45.38862" lon="6.14526">
        <ele>2010.8</ele>
        <time>2021-02-03T10:13:07Z</time>
      </trkpt>
      <trkpt lat="45.38862" lon="6.14527">
        <ele>2011.9</ele>
        <time>2021-02-03T10:13:08Z</time>
      </trkpt>
      <trkpt lat="45.38862" lon="6.14528">
        <ele>2011.9</ele>
        <time>2021-02-03T10:13:09Z</time>
      </trkpt>
      <trkpt lat="45.38861" lon="6.14529">
        <ele>2011.9</ele>
        <time>2021-02-03T10:13:10Z</time>
      </trkpt>
      <trkpt lat="45.3886" lon="6.14529">
        <ele>2011.9</ele>
        <time>2021-02-03T10:13:11Z</time>
      </trkpt>
      <trkpt lat="45.3886" lon="6.1453">
        <ele>2011.9</ele>
        <time>2021-02-03T10:13:12Z</time>
      </trkpt>
      <trkpt lat="45.38859" lon="6.1453">
        <ele>2012.6</ele>
        <time>2021-02-03T10:13:13Z</time>
      </trkpt>
      <trkpt lat="45.38859" lon="6.1453">
        <ele>2012.6</ele>
        <time>2021-02-03T10:13:14Z</time>
      </trkpt>
      <trkpt lat="45.38858" lon="6.1453">
        <ele>2012.6</ele>
        <time>2021-02-03T10:13:15Z</time>
      </trkpt>
      <trkpt lat="45.38858" lon="6.1453">
        <ele>2012.6</ele>
        <time>2021-02-03T10:13:16Z</time>
      </trkpt>
      <trkpt lat="45.38857" lon="6.1453">
        <ele>2012.6</ele>
        <time>2021-02-03T10:13:17Z</time>
      </trkpt>
      <trkpt lat="45.38856" lon="6.1453">
        <ele>2013.3</ele>
        <time>2021-02-03T10:13:18Z</time>
      </trkpt>
      <trkpt lat="45.38856" lon="6.1453">
        <ele>2013.3</ele>
        <time>2021-02-03T10:13:19Z</time>
      </trkpt>
      <trkpt lat="45.38855" lon="6.1453">
        <ele>2013.3</ele>
        <time>2021-02-03T10:13:20Z</time>
      </trkpt>
      <trkpt lat="45.38855" lon="6.1453">
        <ele>2013.3</ele>
        <time>2021-02-03T10:13:21Z</time>
      </trkpt>
      <trkpt lat="45.38854" lon="6.1453">
        <ele>2013.3</ele>
        <time>2021-02-03T10:13:22Z</time>
      </trkpt>
      <trkpt lat="45.38853" lon="6.1453">
        <ele>2013.9</ele>
        <time>2021-02-03T10:13:40Z</time>
      </trkpt>
      <trkpt lat="45.38853" lon="6.1453">
        <ele>2013.9</ele>
        <time>2021-02-03T10:13:41Z</time>
      </trkpt>
      <trkpt lat="45.38852" lon="6.1453">
        <ele>2013.9</ele>
        <time>2021-02-03T10:13:42Z</time>
      </trkpt>
      <trkpt lat="45.38852" lon="6.1453">
        <ele>2013.9</ele>
        <time>2021-02-03T10:13:43Z</time>
      </trkpt>
      <trkpt lat="45.38851" lon="6.1453">
        <ele>2013.9</ele>
        <time>2021-02-03T10:13:44Z</time>
      </trkpt>
      <trkpt lat="45.3885" lon="6.1453">
        <ele>2014.5</ele>
        <time>2021-02-03T10:13:45Z</time>
      </trkpt>
      <trkpt lat="45.3885" lon="6.1453">
        <ele>2014.5</ele>
        <time>2021-02-03T10:13:46Z</time>
      </trkpt>
      <trkpt lat="45.38849" lon="6.1453">
        <ele>2014.5</ele>
        <time>2021-02-03T10:13:47Z</time>
      </trkpt>
      <trkpt lat="45.38849" lon="6.14531">
        <ele>2015.6</ele>
        <time>2021-02-03T10:13:48Z</time>
      </trkpt>
      <trkpt lat="45.38848" lon="6.14531">
        <ele>2015.6</ele>
        <time>2021-02-03T10:13:49Z</time>
      </trkpt>
      <trkpt lat="45.38848" lon="6.14531">
        <ele>2015.6</ele>
        <time>2021-02-03T10:13:50Z</time>
      </trkpt>
      <trkpt lat="45.38847" lon="6.14532">
        <ele>2016.2</ele>
        <time>2021-02-03T10:13:51Z</time>
      </trkpt>
      <trkpt lat="45.38847" lon="6.14532">
        <ele>2016.2</ele>
        <time>2021-02-03T10:13:52Z</time>
      </trkpt>
      <trkpt lat="45.38846" lon="6.14533">
        <ele>2016.2</ele>
        <time>2021-02-03T10:13:53Z</time>
      </trkpt>
      <trkpt lat="45.38846" lon="6.14533">
        <ele>2016.2</ele>
        <time>2021-02-03T10:13:54Z</time>
      </trkpt>
      <trkpt lat="45.38845" lon="6.14533">
        <ele>2016.2</ele>
        <time>2021-02-03T10:13:55Z</time>
      </trkpt>
      <trkpt lat="45.38844" lon="6.14534">
        <ele>2016.7</ele>
        <time>2021-02-03T10:13:56Z</time>
      </trkpt>
      <trkpt lat="45.38844" lon="6.14534">
        <ele>2016.7</ele>
        <time>2021-02-03T10:13:57Z</time>
      </trkpt>
      <trkpt lat="45.38844" lon="6.14534">
        <ele>2016.7</ele>
        <time>2021-02-03T10:13:58Z</time>
      </trkpt>
      <trkpt lat="45.38843" lon="6.14535">
        <ele>2016.7</ele>
        <time>2021-02-03T10:13:59Z</time>
      </trkpt>
      <trkpt lat="45.38843" lon="6.14535">
        <ele>2017.8</ele>
        <time>2021-02-03T10:14:00Z</time>
      </trkpt>
      <trkpt lat="45.38843" lon="6.14536">
        <ele>2017.8</ele>
        <time>2021-02-03T10:14:01Z</time>
      </trkpt>
      <trkpt lat="45.38842" lon="6.14536">
        <ele>2017.8</ele>
        <time>2021-02-03T10:14:02Z</time>
      </trkpt>
      <trkpt lat="45.38842" lon="6.14536">
        <ele>2017.8</ele>
        <time>2021-02-03T10:14:03Z</time>
      </trkpt>
      <trkpt lat="45.38842" lon="6.14537">
        <ele>2017.8</ele>
        <time>2021-02-03T10:14:04Z</time>
      </trkpt>
      <trkpt lat="45.38841" lon="6.14537">
        <ele>2018.3</ele>
        <time>2021-02-03T10:14:05Z</time>
      </trkpt>
      <trkpt lat="45.38841" lon="6.14538">
        <ele>2018.3</ele>
        <time>2021-02-03T10:14:06Z</time>
      </trkpt>
      <trkpt lat="45.3884" lon="6.14538">
        <ele>2018.3</ele>
        <time>2021-02-03T10:14:07Z</time>
      </trkpt>
      <trkpt lat="45.3884" lon="6.1454">
        <ele>2019.3</ele>
        <time>2021-02-03T10:14:08Z</time>
      </trkpt>
      <trkpt lat="45.38839" lon="6.1454">
        <ele>2019.3</ele>
        <time>2021-02-03T10:14:09Z</time>
      </trkpt>
      <trkpt lat="45.38839" lon="6.14541">
        <ele>2019.3</ele>
        <time>2021-02-03T10:14:10Z</time>
      </trkpt>
      <trkpt lat="45.38838" lon="6.14541">
        <ele>2019.9</ele>
        <time>2021-02-03T10:14:11Z</time>
      </trkpt>
      <trkpt lat="45.38838" lon="6.14542">
        <ele>2019.9</ele>
        <time>2021-02-03T10:14:12Z</time>
      </trkpt>
      <trkpt lat="45.38838" lon="6.14543">
        <ele>2019.9</ele>
        <time>2021-02-03T10:14:13Z</time>
      </trkpt>
      <trkpt lat="45.38837" lon="6.14543">
        <ele>2019.9</ele>
        <time>2021-02-03T10:14:14Z</time>
      </trkpt>
      <trkpt lat="45.38837" lon="6.14544">
        <ele>2020.9</ele>
        <time>2021-02-03T10:14:15Z</time>
      </trkpt>
      <trkpt lat="45.38836" lon="6.14544">
        <ele>2020.9</ele>
        <time>2021-02-03T10:14:16Z</time>
      </trkpt>
      <trkpt lat="45.38836" lon="6.14545">
        <ele>2020.9</ele>
        <time>2021-02-03T10:14:17Z</time>
      </trkpt>
      <trkpt lat="45.38835" lon="6.14546">
        <ele>2021.5</ele>
        <time>2021-02-03T10:15:14Z</time>
      </trkpt>
      <trkpt lat="45.38835" lon="6.14546">
        <ele>2021.5</ele>
        <time>2021-02-03T10:15:15Z</time>
      </trkpt>
      <trkpt lat="45.38835" lon="6.14547">
        <ele>2021.5</ele>
        <time>2021-02-03T10:15:16Z</time>
      </trkpt>
      <trkpt lat="45.38834" lon="6.14547">
        <ele>2021.5</ele>
        <time>2021-02-03T10:15:17Z</time>
      </trkpt>
      <trkpt lat="45.38834" lon="6.14548">
        <ele>2022.4</ele>
        <time>2021-02-03T10:15:18Z</time>
      </trkpt>
      <trkpt lat="45.38834" lon="6.14548">
        <ele>2022.4</ele>
        <time>2021-02-03T10:15:19Z</time>
      </trkpt>
      <trkpt lat="45.38833" lon="6.14549">
        <ele>2022.4</ele>
        <time>2021-02-03T10:15:20Z</time>
      </trkpt>
      <trkpt lat="45.38833" lon="6.14549">
        <ele>2022.4</ele>
        <time>2021-02-03T10:15:21Z</time>
      </trkpt>
      <trkpt lat="45.38833" lon="6.1455">
        <ele>2022.4</ele>
        <time>2021-02-03T10:15:22Z</time>
      </trkpt>
      <trkpt lat="45.38833" lon="6.14551">
        <ele>2022.4</ele>
        <time>2021-02-03T10:15:23Z</time>
      </trkpt>
      <trkpt lat="45.38832" lon="6.14551">
        <ele>2023</ele>
        <time>2021-02-03T10:15:24Z</time>
      </trkpt>
      <trkpt lat="45.38832" lon="6.14552">
        <ele>2023</ele>
        <time>2021-02-03T10:15:25Z</time>
      </trkpt>
      <trkpt lat="45.38832" lon="6.14553">
        <ele>2023.8</ele>
        <time>2021-02-03T10:15:26Z</time>
      </trkpt>
      <trkpt lat="45.38831" lon="6.14553">
        <ele>2023.8</ele>
        <time>2021-02-03T10:15:27Z</time>
      </trkpt>
      <trkpt lat="45.38831" lon="6.14554">
        <ele>2023.8</ele>
        <time>2021-02-03T10:15:28Z</time>
      </trkpt>
      <trkpt lat="45.38831" lon="6.14554">
        <ele>2023.8</ele>
        <time>2021-02-03T10:15:29Z</time>
      </trkpt>
      <trkpt lat="45.38831" lon="6.14555">
        <ele>2023.8</ele>
        <time>2021-02-03T10:15:30Z</time>
      </trkpt>
      <trkpt lat="45.3883" lon="6.14555">
        <ele>2023.8</ele>
        <time>2021-02-03T10:15:31Z</time>
      </trkpt>
      <trkpt lat="45.3883" lon="6.14556">
        <ele>2023.8</ele>
        <time>2021-02-03T10:15:32Z</time>
      </trkpt>
      <trkpt lat="45.3883" lon="6.14557">
        <ele>2024.6</ele>
        <time>2021-02-03T10:15:33Z</time>
      </trkpt>
      <trkpt lat="45.3883" lon="6.14557">
        <ele>2024.6</ele>
        <time>2021-02-03T10:15:34Z</time>
      </trkpt>
      <trkpt lat="45.38829" lon="6.14558">
        <ele>2025.2</ele>
        <time>2021-02-03T10:15:35Z</time>
      </trkpt>
      <trkpt lat="45.38829" lon="6.14559">
        <ele>2025.2</ele>
        <time>2021-02-03T10:15:36Z</time>
      </trkpt>
      <trkpt lat="45.38829" lon="6.1456">
        <ele>2025.2</ele>
        <time>2021-02-03T10:15:37Z</time>
      </trkpt>
      <trkpt lat="45.38828" lon="6.14561">
        <ele>2025.2</ele>
        <time>2021-02-03T10:15:38Z</time>
      </trkpt>
      <trkpt lat="45.38828" lon="6.14561">
        <ele>2025.9</ele>
        <time>2021-02-03T10:15:39Z</time>
      </trkpt>
      <trkpt lat="45.38828" lon="6.14562">
        <ele>2025.9</ele>
        <time>2021-02-03T10:15:40Z</time>
      </trkpt>
      <trkpt lat="45.38828" lon="6.14563">
        <ele>2025.9</ele>
        <time>2021-02-03T10:15:41Z</time>
      </trkpt>
      <trkpt lat="45.38828" lon="6.14564">
        <ele>2025.9</ele>
        <time>2021-02-03T10:15:42Z</time>
      </trkpt>
      <trkpt lat="45.38827" lon="6.14565">
        <ele>2025.9</ele>
        <time>2021-02-03T10:15:43Z</time>
      </trkpt>
      <trkpt lat="45.38827" lon="6.14566">
        <ele>2026.7</ele>
        <time>2021-02-03T10:15:44Z</time>
      </trkpt>
      <trkpt lat="45.38826" lon="6.14568">
        <ele>2027.2</ele>
        <time>2021-02-03T10:15:45Z</time>
      </trkpt>
      <trkpt lat="45.38826" lon="6.14568">
        <ele>2027.2</ele>
        <time>2021-02-03T10:15:46Z</time>
      </trkpt>
      <trkpt lat="45.38825" lon="6.14569">
        <ele>2027.2</ele>
        <time>2021-02-03T10:15:47Z</time>
      </trkpt>
      <trkpt lat="45.38825" lon="6.1457">
        <ele>2027.9</ele>
        <time>2021-02-03T10:15:48Z</time>
      </trkpt>
      <trkpt lat="45.38825" lon="6.1457">
        <ele>2027.9</ele>
        <time>2021-02-03T10:15:49Z</time>
      </trkpt>
      <trkpt lat="45.38825" lon="6.14571">
        <ele>2027.9</ele>
        <time>2021-02-03T10:15:50Z</time>
      </trkpt>
      <trkpt lat="45.38825" lon="6.14572">
        <ele>2027.9</ele>
        <time>2021-02-03T10:15:51Z</time>
      </trkpt>
      <trkpt lat="45.38825" lon="6.14573">
        <ele>2027.9</ele>
        <time>2021-02-03T10:15:52Z</time>
      </trkpt>
      <trkpt lat="45.38826" lon="6.14574">
        <ele>2028.6</ele>
        <time>2021-02-03T10:15:53Z</time>
      </trkpt>
      <trkpt lat="45.38826" lon="6.14575">
        <ele>2028.6</ele>
        <time>2021-02-03T10:15:54Z</time>
      </trkpt>
      <trkpt lat="45.38826" lon="6.14576">
        <ele>2028.6</ele>
        <time>2021-02-03T10:15:55Z</time>
      </trkpt>
      <trkpt lat="45.38826" lon="6.14576">
        <ele>2028.6</ele>
        <time>2021-02-03T10:15:56Z</time>
      </trkpt>
      <trkpt lat="45.38826" lon="6.14577">
        <ele>2028.6</ele>
        <time>2021-02-03T10:15:57Z</time>
      </trkpt>
      <trkpt lat="45.38826" lon="6.14578">
        <ele>2029.3</ele>
        <time>2021-02-03T10:15:58Z</time>
      </trkpt>
      <trkpt lat="45.38826" lon="6.14579">
        <ele>2029.3</ele>
        <time>2021-02-03T10:15:59Z</time>
      </trkpt>
      <trkpt lat="45.38826" lon="6.1458">
        <ele>2028.8</ele>
        <time>2021-02-03T10:16:00Z</time>
      </trkpt>
      <trkpt lat="45.38827" lon="6.14581">
        <ele>2028.8</ele>
        <time>2021-02-03T10:16:01Z</time>
      </trkpt>
      <trkpt lat="45.38827" lon="6.14582">
        <ele>2029.5</ele>
        <time>2021-02-03T10:16:02Z</time>
      </trkpt>
      <trkpt lat="45.38827" lon="6.14583">
        <ele>2029.5</ele>
        <time>2021-02-03T10:16:03Z</time>
      </trkpt>
      <trkpt lat="45.38827" lon="6.14584">
        <ele>2029.5</ele>
        <time>2021-02-03T10:16:04Z</time>
      </trkpt>
      <trkpt lat="45.38827" lon="6.14585">
        <ele>2029.5</ele>
        <time>2021-02-03T10:16:05Z</time>
      </trkpt>
      <trkpt lat="45.38827" lon="6.14586">
        <ele>2029.5</ele>
        <time>2021-02-03T10:16:06Z</time>
      </trkpt>
      <trkpt lat="45.38827" lon="6.14587">
        <ele>2030.2</ele>
        <time>2021-02-03T10:16:07Z</time>
      </trkpt>
      <trkpt lat="45.38827" lon="6.14588">
        <ele>2030.2</ele>
        <time>2021-02-03T10:16:08Z</time>
      </trkpt>
      <trkpt lat="45.38827" lon="6.14589">
        <ele>2030.2</ele>
        <time>2021-02-03T10:16:09Z</time>
      </trkpt>
      <trkpt lat="45.38827" lon="6.1459">
        <ele>2030.2</ele>
        <time>2021-02-03T10:16:10Z</time>
      </trkpt>
      <trkpt lat="45.38828" lon="6.14591">
        <ele>2030.2</ele>
        <time>2021-02-03T10:16:11Z</time>
      </trkpt>
      <trkpt lat="45.38828" lon="6.14591">
        <ele>2030.9</ele>
        <time>2021-02-03T10:16:12Z</time>
      </trkpt>
      <trkpt lat="45.38828" lon="6.14592">
        <ele>2030.9</ele>
        <time>2021-02-03T10:16:13Z</time>
      </trkpt>
      <trkpt lat="45.38828" lon="6.14593">
        <ele>2030.9</ele>
        <time>2021-02-03T10:16:14Z</time>
      </trkpt>
      <trkpt lat="45.38828" lon="6.14594">
        <ele>2030.9</ele>
        <time>2021-02-03T10:16:15Z</time>
      </trkpt>
      <trkpt lat="45.38828" lon="6.14594">
        <ele>2030.9</ele>
        <time>2021-02-03T10:16:16Z</time>
      </trkpt>
      <trkpt lat="45.38828" lon="6.14595">
        <ele>2031.5</ele>
        <time>2021-02-03T10:16:17Z</time>
      </trkpt>
      <trkpt lat="45.38828" lon="6.14596">
        <ele>2031.5</ele>
        <time>2021-02-03T10:16:18Z</time>
      </trkpt>
      <trkpt lat="45.38828" lon="6.14597">
        <ele>2031.5</ele>
        <time>2021-02-03T10:16:19Z</time>
      </trkpt>
      <trkpt lat="45.38828" lon="6.14598">
        <ele>2031.5</ele>
        <time>2021-02-03T10:16:20Z</time>
      </trkpt>
      <trkpt lat="45.38828" lon="6.14598">
        <ele>2031.5</ele>
        <time>2021-02-03T10:16:21Z</time>
      </trkpt>
      <trkpt lat="45.38828" lon="6.14599">
        <ele>2032.2</ele>
        <time>2021-02-03T10:16:22Z</time>
      </trkpt>
      <trkpt lat="45.38828" lon="6.146">
        <ele>2032.2</ele>
        <time>2021-02-03T10:16:23Z</time>
      </trkpt>
      <trkpt lat="45.38828" lon="6.14601">
        <ele>2032.2</ele>
        <time>2021-02-03T10:16:24Z</time>
      </trkpt>
      <trkpt lat="45.38828" lon="6.14602">
        <ele>2032.2</ele>
        <time>2021-02-03T10:16:25Z</time>
      </trkpt>
      <trkpt lat="45.38828" lon="6.14602">
        <ele>2032.2</ele>
        <time>2021-02-03T10:16:26Z</time>
      </trkpt>
      <trkpt lat="45.38828" lon="6.14603">
        <ele>2032.2</ele>
        <time>2021-02-03T10:16:27Z</time>
      </trkpt>
      <trkpt lat="45.38828" lon="6.14604">
        <ele>2032.9</ele>
        <time>2021-02-03T10:16:28Z</time>
      </trkpt>
      <trkpt lat="45.38828" lon="6.14605">
        <ele>2032.9</ele>
        <time>2021-02-03T10:16:29Z</time>
      </trkpt>
      <trkpt lat="45.38828" lon="6.14605">
        <ele>2032.9</ele>
        <time>2021-02-03T10:16:30Z</time>
      </trkpt>
      <trkpt lat="45.38828" lon="6.14606">
        <ele>2032.9</ele>
        <time>2021-02-03T10:16:31Z</time>
      </trkpt>
      <trkpt lat="45.38828" lon="6.14607">
        <ele>2032.9</ele>
        <time>2021-02-03T10:16:32Z</time>
      </trkpt>
      <trkpt lat="45.38828" lon="6.14608">
        <ele>2033.6</ele>
        <time>2021-02-03T10:16:33Z</time>
      </trkpt>
      <trkpt lat="45.38828" lon="6.14609">
        <ele>2033.6</ele>
        <time>2021-02-03T10:16:34Z</time>
      </trkpt>
      <trkpt lat="45.38828" lon="6.1461">
        <ele>2033.6</ele>
        <time>2021-02-03T10:16:35Z</time>
      </trkpt>
      <trkpt lat="45.38828" lon="6.14611">
        <ele>2033.6</ele>
        <time>2021-02-03T10:16:36Z</time>
      </trkpt>
      <trkpt lat="45.38828" lon="6.14611">
        <ele>2033.6</ele>
        <time>2021-02-03T10:16:37Z</time>
      </trkpt>
      <trkpt lat="45.38828" lon="6.14612">
        <ele>2034.4</ele>
        <time>2021-02-03T10:16:38Z</time>
      </trkpt>
      <trkpt lat="45.38828" lon="6.14613">
        <ele>2034.4</ele>
        <time>2021-02-03T10:16:39Z</time>
      </trkpt>
      <trkpt lat="45.38828" lon="6.14614">
        <ele>2034.4</ele>
        <time>2021-02-03T10:16:40Z</time>
      </trkpt>
      <trkpt lat="45.38828" lon="6.14615">
        <ele>2034.4</ele>
        <time>2021-02-03T10:16:41Z</time>
      </trkpt>
      <trkpt lat="45.38827" lon="6.14615">
        <ele>2034.4</ele>
        <time>2021-02-03T10:16:42Z</time>
      </trkpt>
      <trkpt lat="45.38827" lon="6.14616">
        <ele>2034.4</ele>
        <time>2021-02-03T10:16:43Z</time>
      </trkpt>
      <trkpt lat="45.38827" lon="6.14617">
        <ele>2035.1</ele>
        <time>2021-02-03T10:16:44Z</time>
      </trkpt>
      <trkpt lat="45.38827" lon="6.14618">
        <ele>2035.1</ele>
        <time>2021-02-03T10:16:45Z</time>
      </trkpt>
      <trkpt lat="45.38827" lon="6.14619">
        <ele>2035.1</ele>
        <time>2021-02-03T10:16:46Z</time>
      </trkpt>
      <trkpt lat="45.38827" lon="6.14621">
        <ele>2035.1</ele>
        <time>2021-02-03T10:16:47Z</time>
      </trkpt>
      <trkpt lat="45.38827" lon="6.14622">
        <ele>2035.9</ele>
        <time>2021-02-03T10:16:48Z</time>
      </trkpt>
      <trkpt lat="45.38826" lon="6.14623">
        <ele>2036.2</ele>
        <time>2021-02-03T10:16:49Z</time>
      </trkpt>
      <trkpt lat="45.38826" lon="6.14624">
        <ele>2036.2</ele>
        <time>2021-02-03T10:16:50Z</time>
      </trkpt>
      <trkpt lat="45.38826" lon="6.14624">
        <ele>2036.2</ele>
        <time>2021-02-03T10:16:51Z</time>
      </trkpt>
      <trkpt lat="45.38826" lon="6.14625">
        <ele>2036.6</ele>
        <time>2021-02-03T10:16:52Z</time>
      </trkpt>
      <trkpt lat="45.38827" lon="6.14626">
        <ele>2036.6</ele>
        <time>2021-02-03T10:16:53Z</time>
      </trkpt>
      <trkpt lat="45.38827" lon="6.14627">
        <ele>2036.6</ele>
        <time>2021-02-03T10:16:54Z</time>
      </trkpt>
      <trkpt lat="45.38827" lon="6.14628">
        <ele>2036.6</ele>
        <time>2021-02-03T10:16:55Z</time>
      </trkpt>
      <trkpt lat="45.38827" lon="6.14629">
        <ele>2036.6</ele>
        <time>2021-02-03T10:16:56Z</time>
      </trkpt>
      <trkpt lat="45.38827" lon="6.14629">
        <ele>2036.6</ele>
        <time>2021-02-03T10:16:57Z</time>
      </trkpt>
      <trkpt lat="45.38828" lon="6.1463">
        <ele>2037.3</ele>
        <time>2021-02-03T10:16:58Z</time>
      </trkpt>
      <trkpt lat="45.38828" lon="6.1463">
        <ele>2037.3</ele>
        <time>2021-02-03T10:16:59Z</time>
      </trkpt>
      <trkpt lat="45.38828" lon="6.1463">
        <ele>2037.3</ele>
        <time>2021-02-03T10:17:00Z</time>
      </trkpt>
      <trkpt lat="45.38828" lon="6.14631">
        <ele>2037.3</ele>
        <time>2021-02-03T10:17:01Z</time>
      </trkpt>
      <trkpt lat="45.38829" lon="6.14631">
        <ele>2037.3</ele>
        <time>2021-02-03T10:17:02Z</time>
      </trkpt>
      <trkpt lat="45.38829" lon="6.14631">
        <ele>2037.3</ele>
        <time>2021-02-03T10:17:03Z</time>
      </trkpt>
      <trkpt lat="45.38829" lon="6.14632">
        <ele>2037.3</ele>
        <time>2021-02-03T10:17:04Z</time>
      </trkpt>
      <trkpt lat="45.38829" lon="6.14632">
        <ele>2037.3</ele>
        <time>2021-02-03T10:17:05Z</time>
      </trkpt>
      <trkpt lat="45.38829" lon="6.14633">
        <ele>2037.3</ele>
        <time>2021-02-03T10:17:06Z</time>
      </trkpt>
      <trkpt lat="45.3883" lon="6.14633">
        <ele>2036.9</ele>
        <time>2021-02-03T10:17:07Z</time>
      </trkpt>
      <trkpt lat="45.3883" lon="6.14633">
        <ele>2036.9</ele>
        <time>2021-02-03T10:17:30Z</time>
      </trkpt>
      <trkpt lat="45.3883" lon="6.14634">
        <ele>2037.5</ele>
        <time>2021-02-03T10:17:31Z</time>
      </trkpt>
      <trkpt lat="45.3883" lon="6.14634">
        <ele>2037.5</ele>
        <time>2021-02-03T10:17:32Z</time>
      </trkpt>
      <trkpt lat="45.3883" lon="6.14634">
        <ele>2037.5</ele>
        <time>2021-02-03T10:17:33Z</time>
      </trkpt>
      <trkpt lat="45.38831" lon="6.14636">
        <ele>2037.5</ele>
        <time>2021-02-03T10:17:34Z</time>
      </trkpt>
      <trkpt lat="45.38831" lon="6.14637">
        <ele>2037.5</ele>
        <time>2021-02-03T10:17:35Z</time>
      </trkpt>
      <trkpt lat="45.38831" lon="6.14638">
        <ele>2037.5</ele>
        <time>2021-02-03T10:17:36Z</time>
      </trkpt>
      <trkpt lat="45.38831" lon="6.14639">
        <ele>2038.1</ele>
        <time>2021-02-03T10:17:37Z</time>
      </trkpt>
      <trkpt lat="45.38831" lon="6.1464">
        <ele>2038.1</ele>
        <time>2021-02-03T10:17:38Z</time>
      </trkpt>
      <trkpt lat="45.38831" lon="6.14641">
        <ele>2038.1</ele>
        <time>2021-02-03T10:17:39Z</time>
      </trkpt>
      <trkpt lat="45.38832" lon="6.14641">
        <ele>2038.1</ele>
        <time>2021-02-03T10:17:40Z</time>
      </trkpt>
      <trkpt lat="45.38832" lon="6.14642">
        <ele>2038.6</ele>
        <time>2021-02-03T10:17:41Z</time>
      </trkpt>
      <trkpt lat="45.38831" lon="6.14643">
        <ele>2038.6</ele>
        <time>2021-02-03T10:17:42Z</time>
      </trkpt>
      <trkpt lat="45.38831" lon="6.14644">
        <ele>2038.6</ele>
        <time>2021-02-03T10:17:43Z</time>
      </trkpt>
      <trkpt lat="45.38831" lon="6.14645">
        <ele>2038.6</ele>
        <time>2021-02-03T10:17:44Z</time>
      </trkpt>
      <trkpt lat="45.38831" lon="6.14646">
        <ele>2038.6</ele>
        <time>2021-02-03T10:17:45Z</time>
      </trkpt>
      <trkpt lat="45.3883" lon="6.14648">
        <ele>2039.2</ele>
        <time>2021-02-03T10:17:46Z</time>
      </trkpt>
      <trkpt lat="45.3883" lon="6.14649">
        <ele>2039.2</ele>
        <time>2021-02-03T10:17:47Z</time>
      </trkpt>
      <trkpt lat="45.38829" lon="6.1465">
        <ele>2039.5</ele>
        <time>2021-02-03T10:17:48Z</time>
      </trkpt>
      <trkpt lat="45.38828" lon="6.14651">
        <ele>2040</ele>
        <time>2021-02-03T10:17:49Z</time>
      </trkpt>
      <trkpt lat="45.38828" lon="6.14653">
        <ele>2040</ele>
        <time>2021-02-03T10:17:50Z</time>
      </trkpt>
      <trkpt lat="45.38827" lon="6.14653">
        <ele>2040</ele>
        <time>2021-02-03T10:17:51Z</time>
      </trkpt>
      <trkpt lat="45.38827" lon="6.14654">
        <ele>2040</ele>
        <time>2021-02-03T10:17:52Z</time>
      </trkpt>
      <trkpt lat="45.38827" lon="6.14655">
        <ele>2040</ele>
        <time>2021-02-03T10:17:53Z</time>
      </trkpt>
      <trkpt lat="45.38826" lon="6.14655">
        <ele>2040.7</ele>
        <time>2021-02-03T10:17:54Z</time>
      </trkpt>
      <trkpt lat="45.38826" lon="6.14656">
        <ele>2040.7</ele>
        <time>2021-02-03T10:17:55Z</time>
      </trkpt>
      <trkpt lat="45.38825" lon="6.14657">
        <ele>2040.7</ele>
        <time>2021-02-03T10:17:56Z</time>
      </trkpt>
      <trkpt lat="45.38824" lon="6.14658">
        <ele>2040.7</ele>
        <time>2021-02-03T10:17:57Z</time>
      </trkpt>
      <trkpt lat="45.38823" lon="6.1466">
        <ele>2041.3</ele>
        <time>2021-02-03T10:17:58Z</time>
      </trkpt>
      <trkpt lat="45.38823" lon="6.14661">
        <ele>2041.3</ele>
        <time>2021-02-03T10:17:59Z</time>
      </trkpt>
      <trkpt lat="45.38822" lon="6.14662">
        <ele>2041.3</ele>
        <time>2021-02-03T10:18:00Z</time>
      </trkpt>
      <trkpt lat="45.38822" lon="6.14663">
        <ele>2041.3</ele>
        <time>2021-02-03T10:18:01Z</time>
      </trkpt>
      <trkpt lat="45.38821" lon="6.14664">
        <ele>2041.8</ele>
        <time>2021-02-03T10:18:02Z</time>
      </trkpt>
      <trkpt lat="45.3882" lon="6.14665">
        <ele>2041.9</ele>
        <time>2021-02-03T10:18:03Z</time>
      </trkpt>
      <trkpt lat="45.3882" lon="6.14665">
        <ele>2041.9</ele>
        <time>2021-02-03T10:18:04Z</time>
      </trkpt>
      <trkpt lat="45.38819" lon="6.14666">
        <ele>2041.9</ele>
        <time>2021-02-03T10:18:05Z</time>
      </trkpt>
      <trkpt lat="45.38819" lon="6.14667">
        <ele>2041.9</ele>
        <time>2021-02-03T10:18:06Z</time>
      </trkpt>
      <trkpt lat="45.38818" lon="6.14667">
        <ele>2041.9</ele>
        <time>2021-02-03T10:18:07Z</time>
      </trkpt>
      <trkpt lat="45.38818" lon="6.14668">
        <ele>2042.3</ele>
        <time>2021-02-03T10:18:08Z</time>
      </trkpt>
      <trkpt lat="45.38817" lon="6.14669">
        <ele>2042.4</ele>
        <time>2021-02-03T10:18:09Z</time>
      </trkpt>
      <trkpt lat="45.38817" lon="6.14669">
        <ele>2042.4</ele>
        <time>2021-02-03T10:18:10Z</time>
      </trkpt>
      <trkpt lat="45.38816" lon="6.1467">
        <ele>2042.4</ele>
        <time>2021-02-03T10:18:11Z</time>
      </trkpt>
      <trkpt lat="45.38816" lon="6.1467">
        <ele>2042.4</ele>
        <time>2021-02-03T10:18:12Z</time>
      </trkpt>
      <trkpt lat="45.38816" lon="6.14671">
        <ele>2042.4</ele>
        <time>2021-02-03T10:18:13Z</time>
      </trkpt>
      <trkpt lat="45.38815" lon="6.14671">
        <ele>2042.4</ele>
        <time>2021-02-03T10:18:14Z</time>
      </trkpt>
      <trkpt lat="45.38815" lon="6.14672">
        <ele>2042.4</ele>
        <time>2021-02-03T10:18:15Z</time>
      </trkpt>
      <trkpt lat="45.38815" lon="6.14673">
        <ele>2042.9</ele>
        <time>2021-02-03T10:18:16Z</time>
      </trkpt>
      <trkpt lat="45.38814" lon="6.14673">
        <ele>2043</ele>
        <time>2021-02-03T10:18:17Z</time>
      </trkpt>
      <trkpt lat="45.38814" lon="6.14674">
        <ele>2043</ele>
        <time>2021-02-03T10:18:18Z</time>
      </trkpt>
      <trkpt lat="45.38813" lon="6.14674">
        <ele>2043</ele>
        <time>2021-02-03T10:18:19Z</time>
      </trkpt>
      <trkpt lat="45.38813" lon="6.14675">
        <ele>2043</ele>
        <time>2021-02-03T10:18:20Z</time>
      </trkpt>
      <trkpt lat="45.38812" lon="6.14675">
        <ele>2043</ele>
        <time>2021-02-03T10:18:21Z</time>
      </trkpt>
      <trkpt lat="45.38812" lon="6.14676">
        <ele>2043</ele>
        <time>2021-02-03T10:18:22Z</time>
      </trkpt>
      <trkpt lat="45.38812" lon="6.14677">
        <ele>2043.4</ele>
        <time>2021-02-03T10:18:23Z</time>
      </trkpt>
      <trkpt lat="45.38811" lon="6.14677">
        <ele>2043.5</ele>
        <time>2021-02-03T10:18:24Z</time>
      </trkpt>
      <trkpt lat="45.38811" lon="6.14678">
        <ele>2043.5</ele>
        <time>2021-02-03T10:18:25Z</time>
      </trkpt>
      <trkpt lat="45.3881" lon="6.14679">
        <ele>2043.5</ele>
        <time>2021-02-03T10:18:26Z</time>
      </trkpt>
      <trkpt lat="45.3881" lon="6.1468">
        <ele>2043.5</ele>
        <time>2021-02-03T10:18:27Z</time>
      </trkpt>
      <trkpt lat="45.38809" lon="6.1468">
        <ele>2043.5</ele>
        <time>2021-02-03T10:18:28Z</time>
      </trkpt>
      <trkpt lat="45.38809" lon="6.14681">
        <ele>2043.8</ele>
        <time>2021-02-03T10:18:29Z</time>
      </trkpt>
      <trkpt lat="45.38809" lon="6.14681">
        <ele>2043.8</ele>
        <time>2021-02-03T10:18:30Z</time>
      </trkpt>
      <trkpt lat="45.38808" lon="6.14682">
        <ele>2043.9</ele>
        <time>2021-02-03T10:18:31Z</time>
      </trkpt>
      <trkpt lat="45.38807" lon="6.14683">
        <ele>2043.9</ele>
        <time>2021-02-03T10:18:32Z</time>
      </trkpt>
      <trkpt lat="45.38807" lon="6.14684">
        <ele>2043.9</ele>
        <time>2021-02-03T10:18:33Z</time>
      </trkpt>
      <trkpt lat="45.38806" lon="6.14684">
        <ele>2043.9</ele>
        <time>2021-02-03T10:18:34Z</time>
      </trkpt>
      <trkpt lat="45.38806" lon="6.14685">
        <ele>2043.9</ele>
        <time>2021-02-03T10:18:35Z</time>
      </trkpt>
      <trkpt lat="45.38805" lon="6.14685">
        <ele>2044.2</ele>
        <time>2021-02-03T10:18:36Z</time>
      </trkpt>
      <trkpt lat="45.38805" lon="6.14686">
        <ele>2044.3</ele>
        <time>2021-02-03T10:18:37Z</time>
      </trkpt>
      <trkpt lat="45.38805" lon="6.14687">
        <ele>2044.3</ele>
        <time>2021-02-03T10:18:38Z</time>
      </trkpt>
      <trkpt lat="45.38805" lon="6.14687">
        <ele>2044.3</ele>
        <time>2021-02-03T10:18:39Z</time>
      </trkpt>
      <trkpt lat="45.38804" lon="6.14687">
        <ele>2044.3</ele>
        <time>2021-02-03T10:18:40Z</time>
      </trkpt>
      <trkpt lat="45.38804" lon="6.14687">
        <ele>2044.3</ele>
        <time>2021-02-03T10:18:41Z</time>
      </trkpt>
      <trkpt lat="45.38804" lon="6.14688">
        <ele>2044.3</ele>
        <time>2021-02-03T10:18:42Z</time>
      </trkpt>
      <trkpt lat="45.38804" lon="6.14688">
        <ele>2044.3</ele>
        <time>2021-02-03T10:18:43Z</time>
      </trkpt>
      <trkpt lat="45.38803" lon="6.14689">
        <ele>2044.3</ele>
        <time>2021-02-03T10:18:44Z</time>
      </trkpt>
      <trkpt lat="45.38803" lon="6.14689">
        <ele>2044.6</ele>
        <time>2021-02-03T10:18:45Z</time>
      </trkpt>
      <trkpt lat="45.38802" lon="6.1469">
        <ele>2044.6</ele>
        <time>2021-02-03T10:18:46Z</time>
      </trkpt>
      <trkpt lat="45.38802" lon="6.14691">
        <ele>2044.6</ele>
        <time>2021-02-03T10:18:47Z</time>
      </trkpt>
      <trkpt lat="45.38801" lon="6.14693">
        <ele>2044.6</ele>
        <time>2021-02-03T10:18:48Z</time>
      </trkpt>
      <trkpt lat="45.388" lon="6.14694">
        <ele>2044.8</ele>
        <time>2021-02-03T10:18:49Z</time>
      </trkpt>
      <trkpt lat="45.38799" lon="6.14696">
        <ele>2044.9</ele>
        <time>2021-02-03T10:18:58Z</time>
      </trkpt>
      <trkpt lat="45.38798" lon="6.14697">
        <ele>2044.9</ele>
        <time>2021-02-03T10:18:59Z</time>
      </trkpt>
      <trkpt lat="45.38797" lon="6.14698">
        <ele>2045</ele>
        <time>2021-02-03T10:19:00Z</time>
      </trkpt>
      <trkpt lat="45.38796" lon="6.147">
        <ele>2045</ele>
        <time>2021-02-03T10:19:01Z</time>
      </trkpt>
      <trkpt lat="45.38795" lon="6.14701">
        <ele>2045</ele>
        <time>2021-02-03T10:19:02Z</time>
      </trkpt>
      <trkpt lat="45.38794" lon="6.14702">
        <ele>2045.1</ele>
        <time>2021-02-03T10:19:03Z</time>
      </trkpt>
      <trkpt lat="45.38793" lon="6.14704">
        <ele>2045.1</ele>
        <time>2021-02-03T10:19:04Z</time>
      </trkpt>
      <trkpt lat="45.38792" lon="6.14705">
        <ele>2045.1</ele>
        <time>2021-02-03T10:19:05Z</time>
      </trkpt>
      <trkpt lat="45.38791" lon="6.14707">
        <ele>2045.1</ele>
        <time>2021-02-03T10:19:06Z</time>
      </trkpt>
      <trkpt lat="45.3879" lon="6.14708">
        <ele>2045.2</ele>
        <time>2021-02-03T10:19:07Z</time>
      </trkpt>
      <trkpt lat="45.38789" lon="6.14709">
        <ele>2045.2</ele>
        <time>2021-02-03T10:19:08Z</time>
      </trkpt>
      <trkpt lat="45.38788" lon="6.14711">
        <ele>2045.2</ele>
        <time>2021-02-03T10:19:09Z</time>
      </trkpt>
      <trkpt lat="45.38787" lon="6.14712">
        <ele>2045.1</ele>
        <time>2021-02-03T10:19:46Z</time>
      </trkpt>
      <trkpt lat="45.38786" lon="6.14713">
        <ele>2045.1</ele>
        <time>2021-02-03T10:19:47Z</time>
      </trkpt>
      <trkpt lat="45.38785" lon="6.14715">
        <ele>2045.1</ele>
        <time>2021-02-03T10:19:48Z</time>
      </trkpt>
      <trkpt lat="45.38784" lon="6.14716">
        <ele>2045</ele>
        <time>2021-02-03T10:19:49Z</time>
      </trkpt>
      <trkpt lat="45.38784" lon="6.14717">
        <ele>2045.1</ele>
        <time>2021-02-03T10:19:50Z</time>
      </trkpt>
      <trkpt lat="45.38783" lon="6.14717">
        <ele>2045.1</ele>
        <time>2021-02-03T10:19:51Z</time>
      </trkpt>
      <trkpt lat="45.38782" lon="6.14717">
        <ele>2045.1</ele>
        <time>2021-02-03T10:19:52Z</time>
      </trkpt>
      <trkpt lat="45.38782" lon="6.14718">
        <ele>2045.1</ele>
        <time>2021-02-03T10:19:53Z</time>
      </trkpt>
      <trkpt lat="45.38781" lon="6.14718">
        <ele>2045.1</ele>
        <time>2021-02-03T10:19:54Z</time>
      </trkpt>
      <trkpt lat="45.38781" lon="6.14718">
        <ele>2045.1</ele>
        <time>2021-02-03T10:19:55Z</time>
      </trkpt>
      <trkpt lat="45.38781" lon="6.14718">
        <ele>2045.1</ele>
        <time>2021-02-03T10:19:56Z</time>
      </trkpt>
      <trkpt lat="45.3878" lon="6.14719">
        <ele>2045.1</ele>
        <time>2021-02-03T10:19:57Z</time>
      </trkpt>
      <trkpt lat="45.3878" lon="6.14719">
        <ele>2045.1</ele>
        <time>2021-02-03T10:19:58Z</time>
      </trkpt>
      <trkpt lat="45.38779" lon="6.14719">
        <ele>2045.1</ele>
        <time>2021-02-03T10:19:59Z</time>
      </trkpt>
      <trkpt lat="45.38779" lon="6.14719">
        <ele>2045.1</ele>
        <time>2021-02-03T10:20:00Z</time>
      </trkpt>
      <trkpt lat="45.38779" lon="6.14719">
        <ele>2045.1</ele>
        <time>2021-02-03T10:20:01Z</time>
      </trkpt>
      <trkpt lat="45.38778" lon="6.14719">
        <ele>2045</ele>
        <time>2021-02-03T10:20:02Z</time>
      </trkpt>
      <trkpt lat="45.38778" lon="6.1472">
        <ele>2045.1</ele>
        <time>2021-02-03T10:20:03Z</time>
      </trkpt>
      <trkpt lat="45.38778" lon="6.1472">
        <ele>2045.1</ele>
        <time>2021-02-03T10:20:04Z</time>
      </trkpt>
      <trkpt lat="45.38777" lon="6.1472">
        <ele>2045.1</ele>
        <time>2021-02-03T10:20:18Z</time>
      </trkpt>
      <trkpt lat="45.38777" lon="6.1472">
        <ele>2045.1</ele>
        <time>2021-02-03T10:20:19Z</time>
      </trkpt>
      <trkpt lat="45.38777" lon="6.1472">
        <ele>2045.1</ele>
        <time>2021-02-03T10:20:20Z</time>
      </trkpt>
      <trkpt lat="45.38776" lon="6.1472">
        <ele>2045.1</ele>
        <time>2021-02-03T10:20:21Z</time>
      </trkpt>
      <trkpt lat="45.38776" lon="6.14721">
        <ele>2045.1</ele>
        <time>2021-02-03T10:20:22Z</time>
      </trkpt>
      <trkpt lat="45.38775" lon="6.14721">
        <ele>2045.2</ele>
        <time>2021-02-03T10:20:23Z</time>
      </trkpt>
      <trkpt lat="45.38775" lon="6.14721">
        <ele>2045.2</ele>
        <time>2021-02-03T10:20:24Z</time>
      </trkpt>
      <trkpt lat="45.38775" lon="6.14722">
        <ele>2045.2</ele>
        <time>2021-02-03T10:20:25Z</time>
      </trkpt>
      <trkpt lat="45.38774" lon="6.14722">
        <ele>2045.3</ele>
        <time>2021-02-03T10:20:26Z</time>
      </trkpt>
      <trkpt lat="45.38773" lon="6.14722">
        <ele>2045.3</ele>
        <time>2021-02-03T10:20:27Z</time>
      </trkpt>
      <trkpt lat="45.38773" lon="6.14723">
        <ele>2045.4</ele>
        <time>2021-02-03T10:20:28Z</time>
      </trkpt>
      <trkpt lat="45.38772" lon="6.14724">
        <ele>2045.4</ele>
        <time>2021-02-03T10:20:29Z</time>
      </trkpt>
      <trkpt lat="45.38772" lon="6.14724">
        <ele>2045.5</ele>
        <time>2021-02-03T10:20:30Z</time>
      </trkpt>
      <trkpt lat="45.38771" lon="6.14724">
        <ele>2045.5</ele>
        <time>2021-02-03T10:20:31Z</time>
      </trkpt>
      <trkpt lat="45.3877" lon="6.14724">
        <ele>2045.6</ele>
        <time>2021-02-03T10:20:32Z</time>
      </trkpt>
      <trkpt lat="45.3877" lon="6.14724">
        <ele>2045.7</ele>
        <time>2021-02-03T10:20:33Z</time>
      </trkpt>
      <trkpt lat="45.38769" lon="6.14725">
        <ele>2045.7</ele>
        <time>2021-02-03T10:20:34Z</time>
      </trkpt>
      <trkpt lat="45.38768" lon="6.14726">
        <ele>2045.8</ele>
        <time>2021-02-03T10:20:35Z</time>
      </trkpt>
      <trkpt lat="45.38767" lon="6.14726">
        <ele>2045.9</ele>
        <time>2021-02-03T10:20:36Z</time>
      </trkpt>
      <trkpt lat="45.38767" lon="6.14727">
        <ele>2045.9</ele>
        <time>2021-02-03T10:20:37Z</time>
      </trkpt>
      <trkpt lat="45.38766" lon="6.14727">
        <ele>2046</ele>
        <time>2021-02-03T10:20:38Z</time>
      </trkpt>
      <trkpt lat="45.38766" lon="6.14728">
        <ele>2046.1</ele>
        <time>2021-02-03T10:20:39Z</time>
      </trkpt>
      <trkpt lat="45.38765" lon="6.14728">
        <ele>2046.1</ele>
        <time>2021-02-03T10:20:40Z</time>
      </trkpt>
      <trkpt lat="45.38765" lon="6.14729">
        <ele>2046.1</ele>
        <time>2021-02-03T10:20:41Z</time>
      </trkpt>
      <trkpt lat="45.38765" lon="6.14729">
        <ele>2046.1</ele>
        <time>2021-02-03T10:20:42Z</time>
      </trkpt>
      <trkpt lat="45.38765" lon="6.14729">
        <ele>2046.2</ele>
        <time>2021-02-03T10:20:43Z</time>
      </trkpt>
      <trkpt lat="45.38764" lon="6.14729">
        <ele>2046.2</ele>
        <time>2021-02-03T10:20:44Z</time>
      </trkpt>
      <trkpt lat="45.38764" lon="6.14729">
        <ele>2046.3</ele>
        <time>2021-02-03T10:20:45Z</time>
      </trkpt>
      <trkpt lat="45.38763" lon="6.14729">
        <ele>2046.3</ele>
        <time>2021-02-03T10:20:46Z</time>
      </trkpt>
      <trkpt lat="45.38763" lon="6.14729">
        <ele>2046.4</ele>
        <time>2021-02-03T10:20:47Z</time>
      </trkpt>
      <trkpt lat="45.38762" lon="6.14729">
        <ele>2046.4</ele>
        <time>2021-02-03T10:20:48Z</time>
      </trkpt>
      <trkpt lat="45.38762" lon="6.1473">
        <ele>2046.5</ele>
        <time>2021-02-03T10:20:49Z</time>
      </trkpt>
      <trkpt lat="45.38762" lon="6.1473">
        <ele>2046.5</ele>
        <time>2021-02-03T10:20:50Z</time>
      </trkpt>
      <trkpt lat="45.38761" lon="6.1473">
        <ele>2046.6</ele>
        <time>2021-02-03T10:20:51Z</time>
      </trkpt>
      <trkpt lat="45.38761" lon="6.1473">
        <ele>2046.6</ele>
        <time>2021-02-03T10:20:52Z</time>
      </trkpt>
      <trkpt lat="45.3876" lon="6.1473">
        <ele>2046.7</ele>
        <time>2021-02-03T10:20:53Z</time>
      </trkpt>
      <trkpt lat="45.3876" lon="6.1473">
        <ele>2046.7</ele>
        <time>2021-02-03T10:20:54Z</time>
      </trkpt>
      <trkpt lat="45.38759" lon="6.14731">
        <ele>2046.8</ele>
        <time>2021-02-03T10:20:55Z</time>
      </trkpt>
      <trkpt lat="45.38759" lon="6.14731">
        <ele>2046.8</ele>
        <time>2021-02-03T10:20:56Z</time>
      </trkpt>
      <trkpt lat="45.38758" lon="6.14731">
        <ele>2046.9</ele>
        <time>2021-02-03T10:20:57Z</time>
      </trkpt>
      <trkpt lat="45.38758" lon="6.14731">
        <ele>2046.9</ele>
        <time>2021-02-03T10:20:58Z</time>
      </trkpt>
      <trkpt lat="45.38757" lon="6.14731">
        <ele>2047</ele>
        <time>2021-02-03T10:20:59Z</time>
      </trkpt>
      <trkpt lat="45.38757" lon="6.14732">
        <ele>2047</ele>
        <time>2021-02-03T10:21:00Z</time>
      </trkpt>
      <trkpt lat="45.38756" lon="6.14732">
        <ele>2047.1</ele>
        <time>2021-02-03T10:21:01Z</time>
      </trkpt>
      <trkpt lat="45.38756" lon="6.14732">
        <ele>2047.1</ele>
        <time>2021-02-03T10:21:02Z</time>
      </trkpt>
      <trkpt lat="45.38755" lon="6.14732">
        <ele>2047.2</ele>
        <time>2021-02-03T10:21:03Z</time>
      </trkpt>
      <trkpt lat="45.38755" lon="6.14733">
        <ele>2047.3</ele>
        <time>2021-02-03T10:21:04Z</time>
      </trkpt>
      <trkpt lat="45.38754" lon="6.14733">
        <ele>2047.3</ele>
        <time>2021-02-03T10:21:05Z</time>
      </trkpt>
      <trkpt lat="45.38753" lon="6.14734">
        <ele>2047.4</ele>
        <time>2021-02-03T10:21:06Z</time>
      </trkpt>
      <trkpt lat="45.38753" lon="6.14735">
        <ele>2047.5</ele>
        <time>2021-02-03T10:21:07Z</time>
      </trkpt>
      <trkpt lat="45.38752" lon="6.14735">
        <ele>2047.6</ele>
        <time>2021-02-03T10:21:08Z</time>
      </trkpt>
      <trkpt lat="45.38752" lon="6.14736">
        <ele>2047.6</ele>
        <time>2021-02-03T10:21:09Z</time>
      </trkpt>
      <trkpt lat="45.38751" lon="6.14736">
        <ele>2047.7</ele>
        <time>2021-02-03T10:21:10Z</time>
      </trkpt>
      <trkpt lat="45.3875" lon="6.14737">
        <ele>2047.8</ele>
        <time>2021-02-03T10:21:11Z</time>
      </trkpt>
      <trkpt lat="45.3875" lon="6.14737">
        <ele>2047.9</ele>
        <time>2021-02-03T10:21:12Z</time>
      </trkpt>
      <trkpt lat="45.38749" lon="6.14738">
        <ele>2047.9</ele>
        <time>2021-02-03T10:21:13Z</time>
      </trkpt>
      <trkpt lat="45.38749" lon="6.14738">
        <ele>2048</ele>
        <time>2021-02-03T10:21:14Z</time>
      </trkpt>
      <trkpt lat="45.38748" lon="6.14739">
        <ele>2048.1</ele>
        <time>2021-02-03T10:21:15Z</time>
      </trkpt>
      <trkpt lat="45.38748" lon="6.14739">
        <ele>2048.1</ele>
        <time>2021-02-03T10:21:16Z</time>
      </trkpt>
      <trkpt lat="45.38747" lon="6.1474">
        <ele>2048.2</ele>
        <time>2021-02-03T10:21:17Z</time>
      </trkpt>
      <trkpt lat="45.38746" lon="6.14741">
        <ele>2048.3</ele>
        <time>2021-02-03T10:21:18Z</time>
      </trkpt>
      <trkpt lat="45.38745" lon="6.14741">
        <ele>2048.4</ele>
        <time>2021-02-03T10:21:19Z</time>
      </trkpt>
      <trkpt lat="45.38745" lon="6.14742">
        <ele>2048.5</ele>
        <time>2021-02-03T10:21:20Z</time>
      </trkpt>
      <trkpt lat="45.38744" lon="6.14743">
        <ele>2048.6</ele>
        <time>2021-02-03T10:21:21Z</time>
      </trkpt>
      <trkpt lat="45.38744" lon="6.14744">
        <ele>2048.6</ele>
        <time>2021-02-03T10:21:22Z</time>
      </trkpt>
      <trkpt lat="45.38743" lon="6.14744">
        <ele>2048.7</ele>
        <time>2021-02-03T10:21:23Z</time>
      </trkpt>
      <trkpt lat="45.38743" lon="6.14745">
        <ele>2048.8</ele>
        <time>2021-02-03T10:21:24Z</time>
      </trkpt>
      <trkpt lat="45.38742" lon="6.14746">
        <ele>2048.8</ele>
        <time>2021-02-03T10:21:25Z</time>
      </trkpt>
      <trkpt lat="45.38741" lon="6.14747">
        <ele>2049</ele>
        <time>2021-02-03T10:21:26Z</time>
      </trkpt>
      <trkpt lat="45.38741" lon="6.14748">
        <ele>2049</ele>
        <time>2021-02-03T10:21:27Z</time>
      </trkpt>
      <trkpt lat="45.3874" lon="6.14748">
        <ele>2049.1</ele>
        <time>2021-02-03T10:21:28Z</time>
      </trkpt>
      <trkpt lat="45.3874" lon="6.14749">
        <ele>2049.1</ele>
        <time>2021-02-03T10:21:29Z</time>
      </trkpt>
      <trkpt lat="45.3874" lon="6.14749">
        <ele>2049.2</ele>
        <time>2021-02-03T10:21:30Z</time>
      </trkpt>
      <trkpt lat="45.38739" lon="6.1475">
        <ele>2049.3</ele>
        <time>2021-02-03T10:21:31Z</time>
      </trkpt>
      <trkpt lat="45.38739" lon="6.14751">
        <ele>2049.3</ele>
        <time>2021-02-03T10:21:32Z</time>
      </trkpt>
      <trkpt lat="45.38738" lon="6.14751">
        <ele>2049.4</ele>
        <time>2021-02-03T10:21:33Z</time>
      </trkpt>
      <trkpt lat="45.38738" lon="6.14752">
        <ele>2049.4</ele>
        <time>2021-02-03T10:21:34Z</time>
      </trkpt>
      <trkpt lat="45.38737" lon="6.14753">
        <ele>2049.5</ele>
        <time>2021-02-03T10:21:35Z</time>
      </trkpt>
      <trkpt lat="45.38737" lon="6.14753">
        <ele>2049.5</ele>
        <time>2021-02-03T10:21:36Z</time>
      </trkpt>
      <trkpt lat="45.38737" lon="6.14754">
        <ele>2049.6</ele>
        <time>2021-02-03T10:21:37Z</time>
      </trkpt>
      <trkpt lat="45.38736" lon="6.14755">
        <ele>2049.6</ele>
        <time>2021-02-03T10:21:38Z</time>
      </trkpt>
      <trkpt lat="45.38736" lon="6.14755">
        <ele>2049.7</ele>
        <time>2021-02-03T10:21:54Z</time>
      </trkpt>
      <trkpt lat="45.38735" lon="6.14756">
        <ele>2049.7</ele>
        <time>2021-02-03T10:21:55Z</time>
      </trkpt>
      <trkpt lat="45.38735" lon="6.14756">
        <ele>2049.8</ele>
        <time>2021-02-03T10:21:56Z</time>
      </trkpt>
      <trkpt lat="45.38734" lon="6.14757">
        <ele>2049.8</ele>
        <time>2021-02-03T10:21:57Z</time>
      </trkpt>
      <trkpt lat="45.38734" lon="6.14758">
        <ele>2049.9</ele>
        <time>2021-02-03T10:21:58Z</time>
      </trkpt>
      <trkpt lat="45.38734" lon="6.14758">
        <ele>2049.9</ele>
        <time>2021-02-03T10:21:59Z</time>
      </trkpt>
      <trkpt lat="45.38733" lon="6.14758">
        <ele>2050</ele>
        <time>2021-02-03T10:22:00Z</time>
      </trkpt>
      <trkpt lat="45.38732" lon="6.14759">
        <ele>2050</ele>
        <time>2021-02-03T10:22:01Z</time>
      </trkpt>
      <trkpt lat="45.38732" lon="6.14759">
        <ele>2050.1</ele>
        <time>2021-02-03T10:22:02Z</time>
      </trkpt>
      <trkpt lat="45.38731" lon="6.1476">
        <ele>2050.1</ele>
        <time>2021-02-03T10:22:03Z</time>
      </trkpt>
      <trkpt lat="45.38731" lon="6.1476">
        <ele>2050.2</ele>
        <time>2021-02-03T10:22:04Z</time>
      </trkpt>
      <trkpt lat="45.3873" lon="6.14761">
        <ele>2050.3</ele>
        <time>2021-02-03T10:22:05Z</time>
      </trkpt>
      <trkpt lat="45.3873" lon="6.14761">
        <ele>2050.3</ele>
        <time>2021-02-03T10:22:06Z</time>
      </trkpt>
      <trkpt lat="45.3873" lon="6.1476">
        <ele>2050.3</ele>
        <time>2021-02-03T10:22:07Z</time>
      </trkpt>
      <trkpt lat="45.38729" lon="6.14761">
        <ele>2050.3</ele>
        <time>2021-02-03T10:22:08Z</time>
      </trkpt>
      <trkpt lat="45.38729" lon="6.14761">
        <ele>2050.4</ele>
        <time>2021-02-03T10:22:09Z</time>
      </trkpt>
      <trkpt lat="45.38728" lon="6.14761">
        <ele>2050.4</ele>
        <time>2021-02-03T10:22:10Z</time>
      </trkpt>
      <trkpt lat="45.38728" lon="6.14761">
        <ele>2050.5</ele>
        <time>2021-02-03T10:22:11Z</time>
      </trkpt>
      <trkpt lat="45.38727" lon="6.14761">
        <ele>2050.5</ele>
        <time>2021-02-03T10:22:12Z</time>
      </trkpt>
      <trkpt lat="45.38726" lon="6.14761">
        <ele>2050.6</ele>
        <time>2021-02-03T10:22:13Z</time>
      </trkpt>
      <trkpt lat="45.38726" lon="6.14762">
        <ele>2050.7</ele>
        <time>2021-02-03T10:22:14Z</time>
      </trkpt>
      <trkpt lat="45.38725" lon="6.14762">
        <ele>2050.7</ele>
        <time>2021-02-03T10:22:15Z</time>
      </trkpt>
      <trkpt lat="45.38724" lon="6.14762">
        <ele>2050.8</ele>
        <time>2021-02-03T10:22:16Z</time>
      </trkpt>
      <trkpt lat="45.38724" lon="6.14763">
        <ele>2050.9</ele>
        <time>2021-02-03T10:22:17Z</time>
      </trkpt>
      <trkpt lat="45.38723" lon="6.14763">
        <ele>2050.9</ele>
        <time>2021-02-03T10:22:18Z</time>
      </trkpt>
      <trkpt lat="45.38722" lon="6.14763">
        <ele>2051</ele>
        <time>2021-02-03T10:22:19Z</time>
      </trkpt>
      <trkpt lat="45.38722" lon="6.14763">
        <ele>2051.1</ele>
        <time>2021-02-03T10:22:20Z</time>
      </trkpt>
      <trkpt lat="45.38721" lon="6.14763">
        <ele>2051.1</ele>
        <time>2021-02-03T10:22:21Z</time>
      </trkpt>
      <trkpt lat="45.38721" lon="6.14763">
        <ele>2051.2</ele>
        <time>2021-02-03T10:22:22Z</time>
      </trkpt>
      <trkpt lat="45.3872" lon="6.14764">
        <ele>2051.2</ele>
        <time>2021-02-03T10:22:23Z</time>
      </trkpt>
      <trkpt lat="45.38719" lon="6.14764">
        <ele>2051.3</ele>
        <time>2021-02-03T10:22:24Z</time>
      </trkpt>
      <trkpt lat="45.38719" lon="6.14765">
        <ele>2051.4</ele>
        <time>2021-02-03T10:22:25Z</time>
      </trkpt>
      <trkpt lat="45.38718" lon="6.14765">
        <ele>2051.5</ele>
        <time>2021-02-03T10:22:26Z</time>
      </trkpt>
      <trkpt lat="45.38718" lon="6.14765">
        <ele>2051.5</ele>
        <time>2021-02-03T10:22:27Z</time>
      </trkpt>
      <trkpt lat="45.38717" lon="6.14766">
        <ele>2051.6</ele>
        <time>2021-02-03T10:22:28Z</time>
      </trkpt>
      <trkpt lat="45.38717" lon="6.14766">
        <ele>2051.6</ele>
        <time>2021-02-03T10:22:29Z</time>
      </trkpt>
      <trkpt lat="45.38717" lon="6.14767">
        <ele>2051.7</ele>
        <time>2021-02-03T10:22:30Z</time>
      </trkpt>
      <trkpt lat="45.38716" lon="6.14767">
        <ele>2051.7</ele>
        <time>2021-02-03T10:22:31Z</time>
      </trkpt>
      <trkpt lat="45.38716" lon="6.14767">
        <ele>2051.8</ele>
        <time>2021-02-03T10:22:32Z</time>
      </trkpt>
      <trkpt lat="45.38715" lon="6.14767">
        <ele>2051.9</ele>
        <time>2021-02-03T10:22:33Z</time>
      </trkpt>
      <trkpt lat="45.38715" lon="6.14768">
        <ele>2051.9</ele>
        <time>2021-02-03T10:22:34Z</time>
      </trkpt>
      <trkpt lat="45.38714" lon="6.14768">
        <ele>2052</ele>
        <time>2021-02-03T10:22:35Z</time>
      </trkpt>
      <trkpt lat="45.38713" lon="6.14769">
        <ele>2052.1</ele>
        <time>2021-02-03T10:22:36Z</time>
      </trkpt>
      <trkpt lat="45.38713" lon="6.14769">
        <ele>2052.2</ele>
        <time>2021-02-03T10:22:37Z</time>
      </trkpt>
      <trkpt lat="45.38712" lon="6.14769">
        <ele>2052.2</ele>
        <time>2021-02-03T10:22:38Z</time>
      </trkpt>
      <trkpt lat="45.38712" lon="6.14769">
        <ele>2052.3</ele>
        <time>2021-02-03T10:22:39Z</time>
      </trkpt>
      <trkpt lat="45.38711" lon="6.14769">
        <ele>2052.4</ele>
        <time>2021-02-03T10:22:40Z</time>
      </trkpt>
      <trkpt lat="45.38711" lon="6.1477">
        <ele>2052.5</ele>
        <time>2021-02-03T10:22:41Z</time>
      </trkpt>
      <trkpt lat="45.3871" lon="6.1477">
        <ele>2052.5</ele>
        <time>2021-02-03T10:22:42Z</time>
      </trkpt>
      <trkpt lat="45.3871" lon="6.1477">
        <ele>2052.6</ele>
        <time>2021-02-03T10:22:43Z</time>
      </trkpt>
      <trkpt lat="45.38709" lon="6.1477">
        <ele>2052.6</ele>
        <time>2021-02-03T10:22:44Z</time>
      </trkpt>
      <trkpt lat="45.38709" lon="6.14771">
        <ele>2052.7</ele>
        <time>2021-02-03T10:22:45Z</time>
      </trkpt>
      <trkpt lat="45.38708" lon="6.14771">
        <ele>2052.8</ele>
        <time>2021-02-03T10:22:46Z</time>
      </trkpt>
      <trkpt lat="45.38708" lon="6.14771">
        <ele>2052.8</ele>
        <time>2021-02-03T10:22:48Z</time>
      </trkpt>
      <trkpt lat="45.38708" lon="6.14771">
        <ele>2052.9</ele>
        <time>2021-02-03T10:22:49Z</time>
      </trkpt>
      <trkpt lat="45.38707" lon="6.14771">
        <ele>2053</ele>
        <time>2021-02-03T10:22:50Z</time>
      </trkpt>
      <trkpt lat="45.38707" lon="6.14772">
        <ele>2053</ele>
        <time>2021-02-03T10:22:51Z</time>
      </trkpt>
      <trkpt lat="45.38706" lon="6.14772">
        <ele>2053.1</ele>
        <time>2021-02-03T10:22:52Z</time>
      </trkpt>
      <trkpt lat="45.38706" lon="6.14772">
        <ele>2053.2</ele>
        <time>2021-02-03T10:22:53Z</time>
      </trkpt>
      <trkpt lat="45.38705" lon="6.14773">
        <ele>2053.3</ele>
        <time>2021-02-03T10:22:54Z</time>
      </trkpt>
      <trkpt lat="45.38705" lon="6.14773">
        <ele>2053.3</ele>
        <time>2021-02-03T10:22:55Z</time>
      </trkpt>
      <trkpt lat="45.38705" lon="6.14773">
        <ele>2053.4</ele>
        <time>2021-02-03T10:22:56Z</time>
      </trkpt>
      <trkpt lat="45.38705" lon="6.14774">
        <ele>2053.4</ele>
        <time>2021-02-03T10:22:57Z</time>
      </trkpt>
      <trkpt lat="45.38704" lon="6.14774">
        <ele>2053.5</ele>
        <time>2021-02-03T10:22:58Z</time>
      </trkpt>
      <trkpt lat="45.38704" lon="6.14774">
        <ele>2053.5</ele>
        <time>2021-02-03T10:22:59Z</time>
      </trkpt>
      <trkpt lat="45.38703" lon="6.14774">
        <ele>2053.6</ele>
        <time>2021-02-03T10:23:00Z</time>
      </trkpt>
      <trkpt lat="45.38703" lon="6.14774">
        <ele>2053.6</ele>
        <time>2021-02-03T10:23:01Z</time>
      </trkpt>
      <trkpt lat="45.38702" lon="6.14774">
        <ele>2053.7</ele>
        <time>2021-02-03T10:23:02Z</time>
      </trkpt>
      <trkpt lat="45.38702" lon="6.14774">
        <ele>2053.8</ele>
        <time>2021-02-03T10:23:03Z</time>
      </trkpt>
      <trkpt lat="45.38702" lon="6.14774">
        <ele>2053.8</ele>
        <time>2021-02-03T10:23:04Z</time>
      </trkpt>
      <trkpt lat="45.38701" lon="6.14775">
        <ele>2053.9</ele>
        <time>2021-02-03T10:23:05Z</time>
      </trkpt>
      <trkpt lat="45.387" lon="6.14775">
        <ele>2054</ele>
        <time>2021-02-03T10:23:06Z</time>
      </trkpt>
      <trkpt lat="45.38699" lon="6.14776">
        <ele>2054.2</ele>
        <time>2021-02-03T10:23:07Z</time>
      </trkpt>
      <trkpt lat="45.38699" lon="6.14777">
        <ele>2054.3</ele>
        <time>2021-02-03T10:23:08Z</time>
      </trkpt>
      <trkpt lat="45.38698" lon="6.14777">
        <ele>2054.4</ele>
        <time>2021-02-03T10:23:09Z</time>
      </trkpt>
      <trkpt lat="45.38697" lon="6.14777">
        <ele>2054.6</ele>
        <time>2021-02-03T10:23:10Z</time>
      </trkpt>
      <trkpt lat="45.38696" lon="6.14778">
        <ele>2054.7</ele>
        <time>2021-02-03T10:23:11Z</time>
      </trkpt>
      <trkpt lat="45.38696" lon="6.14779">
        <ele>2054.8</ele>
        <time>2021-02-03T10:23:12Z</time>
      </trkpt>
      <trkpt lat="45.38696" lon="6.1478">
        <ele>2054.9</ele>
        <time>2021-02-03T10:23:13Z</time>
      </trkpt>
      <trkpt lat="45.38695" lon="6.1478">
        <ele>2054.9</ele>
        <time>2021-02-03T10:23:14Z</time>
      </trkpt>
      <trkpt lat="45.38695" lon="6.14781">
        <ele>2055</ele>
        <time>2021-02-03T10:23:15Z</time>
      </trkpt>
      <trkpt lat="45.38694" lon="6.14781">
        <ele>2055.1</ele>
        <time>2021-02-03T10:23:16Z</time>
      </trkpt>
      <trkpt lat="45.38694" lon="6.14782">
        <ele>2055.2</ele>
        <time>2021-02-03T10:23:17Z</time>
      </trkpt>
      <trkpt lat="45.38694" lon="6.14783">
        <ele>2055.3</ele>
        <time>2021-02-03T10:23:18Z</time>
      </trkpt>
      <trkpt lat="45.38693" lon="6.14783">
        <ele>2055.4</ele>
        <time>2021-02-03T10:23:19Z</time>
      </trkpt>
      <trkpt lat="45.38693" lon="6.14783">
        <ele>2055.5</ele>
        <time>2021-02-03T10:23:20Z</time>
      </trkpt>
      <trkpt lat="45.38692" lon="6.14783">
        <ele>2055.5</ele>
        <time>2021-02-03T10:23:21Z</time>
      </trkpt>
      <trkpt lat="45.38692" lon="6.14783">
        <ele>2055.6</ele>
        <time>2021-02-03T10:23:22Z</time>
      </trkpt>
      <trkpt lat="45.38691" lon="6.14784">
        <ele>2055.7</ele>
        <time>2021-02-03T10:23:23Z</time>
      </trkpt>
      <trkpt lat="45.3869" lon="6.14784">
        <ele>2055.8</ele>
        <time>2021-02-03T10:23:24Z</time>
      </trkpt>
      <trkpt lat="45.3869" lon="6.14784">
        <ele>2055.9</ele>
        <time>2021-02-03T10:23:25Z</time>
      </trkpt>
      <trkpt lat="45.3869" lon="6.14784">
        <ele>2055.9</ele>
        <time>2021-02-03T10:23:26Z</time>
      </trkpt>
      <trkpt lat="45.3869" lon="6.14784">
        <ele>2055.9</ele>
        <time>2021-02-03T10:23:27Z</time>
      </trkpt>
      <trkpt lat="45.38689" lon="6.14785">
        <ele>2056</ele>
        <time>2021-02-03T10:23:28Z</time>
      </trkpt>
      <trkpt lat="45.38689" lon="6.14785">
        <ele>2056.1</ele>
        <time>2021-02-03T10:23:29Z</time>
      </trkpt>
      <trkpt lat="45.38688" lon="6.14786">
        <ele>2056.2</ele>
        <time>2021-02-03T10:23:30Z</time>
      </trkpt>
      <trkpt lat="45.38687" lon="6.14786">
        <ele>2056.3</ele>
        <time>2021-02-03T10:23:31Z</time>
      </trkpt>
      <trkpt lat="45.38686" lon="6.14787">
        <ele>2056.5</ele>
        <time>2021-02-03T10:23:32Z</time>
      </trkpt>
      <trkpt lat="45.38685" lon="6.14788">
        <ele>2056.6</ele>
        <time>2021-02-03T10:23:33Z</time>
      </trkpt>
      <trkpt lat="45.38685" lon="6.14788">
        <ele>2056.7</ele>
        <time>2021-02-03T10:23:34Z</time>
      </trkpt>
      <trkpt lat="45.38684" lon="6.14788">
        <ele>2056.8</ele>
        <time>2021-02-03T10:23:35Z</time>
      </trkpt>
      <trkpt lat="45.38684" lon="6.14788">
        <ele>2056.9</ele>
        <time>2021-02-03T10:23:36Z</time>
      </trkpt>
      <trkpt lat="45.38683" lon="6.14787">
        <ele>2057.1</ele>
        <time>2021-02-03T10:23:37Z</time>
      </trkpt>
      <trkpt lat="45.38682" lon="6.14786">
        <ele>2057.2</ele>
        <time>2021-02-03T10:23:38Z</time>
      </trkpt>
      <trkpt lat="45.38681" lon="6.14786">
        <ele>2057.2</ele>
        <time>2021-02-03T10:23:39Z</time>
      </trkpt>
      <trkpt lat="45.38681" lon="6.14787">
        <ele>2057.3</ele>
        <time>2021-02-03T10:23:40Z</time>
      </trkpt>
      <trkpt lat="45.38681" lon="6.14788">
        <ele>2057.4</ele>
        <time>2021-02-03T10:23:41Z</time>
      </trkpt>
      <trkpt lat="45.3868" lon="6.14789">
        <ele>2057.5</ele>
        <time>2021-02-03T10:23:42Z</time>
      </trkpt>
      <trkpt lat="45.38679" lon="6.1479">
        <ele>2057.7</ele>
        <time>2021-02-03T10:23:43Z</time>
      </trkpt>
      <trkpt lat="45.38679" lon="6.14791">
        <ele>2057.9</ele>
        <time>2021-02-03T10:23:44Z</time>
      </trkpt>
      <trkpt lat="45.38678" lon="6.14793">
        <ele>2058</ele>
        <time>2021-02-03T10:23:45Z</time>
      </trkpt>
      <trkpt lat="45.38677" lon="6.14794">
        <ele>2058.2</ele>
        <time>2021-02-03T10:23:46Z</time>
      </trkpt>
      <trkpt lat="45.38677" lon="6.14795">
        <ele>2058.3</ele>
        <time>2021-02-03T10:23:47Z</time>
      </trkpt>
      <trkpt lat="45.38677" lon="6.14795">
        <ele>2058.3</ele>
        <time>2021-02-03T10:23:48Z</time>
      </trkpt>
      <trkpt lat="45.38676" lon="6.14796">
        <ele>2058.4</ele>
        <time>2021-02-03T10:23:49Z</time>
      </trkpt>
      <trkpt lat="45.38676" lon="6.14796">
        <ele>2058.5</ele>
        <time>2021-02-03T10:23:50Z</time>
      </trkpt>
      <trkpt lat="45.38675" lon="6.14797">
        <ele>2058.5</ele>
        <time>2021-02-03T10:23:51Z</time>
      </trkpt>
      <trkpt lat="45.38675" lon="6.14797">
        <ele>2058.6</ele>
        <time>2021-02-03T10:23:52Z</time>
      </trkpt>
      <trkpt lat="45.38674" lon="6.14798">
        <ele>2058.7</ele>
        <time>2021-02-03T10:23:53Z</time>
      </trkpt>
      <trkpt lat="45.38674" lon="6.14798">
        <ele>2058.8</ele>
        <time>2021-02-03T10:23:54Z</time>
      </trkpt>
      <trkpt lat="45.38673" lon="6.14799">
        <ele>2058.8</ele>
        <time>2021-02-03T10:23:55Z</time>
      </trkpt>
      <trkpt lat="45.38673" lon="6.14799">
        <ele>2058.9</ele>
        <time>2021-02-03T10:23:56Z</time>
      </trkpt>
      <trkpt lat="45.38672" lon="6.148">
        <ele>2059</ele>
        <time>2021-02-03T10:23:57Z</time>
      </trkpt>
      <trkpt lat="45.38672" lon="6.148">
        <ele>2059</ele>
        <time>2021-02-03T10:23:58Z</time>
      </trkpt>
      <trkpt lat="45.38672" lon="6.148">
        <ele>2059</ele>
        <time>2021-02-03T10:23:59Z</time>
      </trkpt>
      <trkpt lat="45.38671" lon="6.148">
        <ele>2059.1</ele>
        <time>2021-02-03T10:24:00Z</time>
      </trkpt>
      <trkpt lat="45.38671" lon="6.14801">
        <ele>2059.1</ele>
        <time>2021-02-03T10:24:01Z</time>
      </trkpt>
      <trkpt lat="45.38671" lon="6.14801">
        <ele>2059.2</ele>
        <time>2021-02-03T10:24:02Z</time>
      </trkpt>
      <trkpt lat="45.38671" lon="6.14802">
        <ele>2059.2</ele>
        <time>2021-02-03T10:24:03Z</time>
      </trkpt>
      <trkpt lat="45.3867" lon="6.14802">
        <ele>2059.2</ele>
        <time>2021-02-03T10:24:04Z</time>
      </trkpt>
      <trkpt lat="45.3867" lon="6.14803">
        <ele>2059.3</ele>
        <time>2021-02-03T10:24:05Z</time>
      </trkpt>
      <trkpt lat="45.38669" lon="6.14803">
        <ele>2059.3</ele>
        <time>2021-02-03T10:24:06Z</time>
      </trkpt>
      <trkpt lat="45.38669" lon="6.14804">
        <ele>2059.4</ele>
        <time>2021-02-03T10:24:07Z</time>
      </trkpt>
      <trkpt lat="45.38669" lon="6.14804">
        <ele>2059.4</ele>
        <time>2021-02-03T10:24:08Z</time>
      </trkpt>
      <trkpt lat="45.38669" lon="6.14805">
        <ele>2059.5</ele>
        <time>2021-02-03T10:24:09Z</time>
      </trkpt>
      <trkpt lat="45.38668" lon="6.14806">
        <ele>2059.5</ele>
        <time>2021-02-03T10:24:10Z</time>
      </trkpt>
      <trkpt lat="45.38668" lon="6.14806">
        <ele>2059.6</ele>
        <time>2021-02-03T10:24:11Z</time>
      </trkpt>
      <trkpt lat="45.38668" lon="6.14807">
        <ele>2059.6</ele>
        <time>2021-02-03T10:24:12Z</time>
      </trkpt>
      <trkpt lat="45.38667" lon="6.14807">
        <ele>2059.6</ele>
        <time>2021-02-03T10:24:13Z</time>
      </trkpt>
      <trkpt lat="45.38667" lon="6.14807">
        <ele>2059.7</ele>
        <time>2021-02-03T10:24:14Z</time>
      </trkpt>
      <trkpt lat="45.38666" lon="6.14808">
        <ele>2059.8</ele>
        <time>2021-02-03T10:24:15Z</time>
      </trkpt>
      <trkpt lat="45.38665" lon="6.14809">
        <ele>2059.8</ele>
        <time>2021-02-03T10:24:16Z</time>
      </trkpt>
      <trkpt lat="45.38664" lon="6.14809">
        <ele>2059.9</ele>
        <time>2021-02-03T10:24:17Z</time>
      </trkpt>
      <trkpt lat="45.38664" lon="6.1481">
        <ele>2059.9</ele>
        <time>2021-02-03T10:24:18Z</time>
      </trkpt>
      <trkpt lat="45.38663" lon="6.14811">
        <ele>2060</ele>
        <time>2021-02-03T10:24:19Z</time>
      </trkpt>
      <trkpt lat="45.38661" lon="6.14812">
        <ele>2060.1</ele>
        <time>2021-02-03T10:24:20Z</time>
      </trkpt>
      <trkpt lat="45.3866" lon="6.14812">
        <ele>2060.1</ele>
        <time>2021-02-03T10:24:21Z</time>
      </trkpt>
      <trkpt lat="45.38659" lon="6.14813">
        <ele>2060.1</ele>
        <time>2021-02-03T10:24:22Z</time>
      </trkpt>
      <trkpt lat="45.38658" lon="6.14813">
        <ele>2060.1</ele>
        <time>2021-02-03T10:24:23Z</time>
      </trkpt>
      <trkpt lat="45.38658" lon="6.14812">
        <ele>2060.2</ele>
        <time>2021-02-03T10:24:24Z</time>
      </trkpt>
      <trkpt lat="45.38657" lon="6.14812">
        <ele>2060.2</ele>
        <time>2021-02-03T10:24:25Z</time>
      </trkpt>
      <trkpt lat="45.38656" lon="6.14812">
        <ele>2060.2</ele>
        <time>2021-02-03T10:24:26Z</time>
      </trkpt>
      <trkpt lat="45.38655" lon="6.14811">
        <ele>2060.2</ele>
        <time>2021-02-03T10:24:27Z</time>
      </trkpt>
      <trkpt lat="45.38655" lon="6.1481">
        <ele>2060.2</ele>
        <time>2021-02-03T10:24:28Z</time>
      </trkpt>
      <trkpt lat="45.38654" lon="6.14809">
        <ele>2060.2</ele>
        <time>2021-02-03T10:24:29Z</time>
      </trkpt>
      <trkpt lat="45.38653" lon="6.14808">
        <ele>2060.2</ele>
        <time>2021-02-03T10:24:30Z</time>
      </trkpt>
      <trkpt lat="45.38652" lon="6.14808">
        <ele>2060.2</ele>
        <time>2021-02-03T10:24:31Z</time>
      </trkpt>
      <trkpt lat="45.38651" lon="6.14807">
        <ele>2060.2</ele>
        <time>2021-02-03T10:24:32Z</time>
      </trkpt>
      <trkpt lat="45.38651" lon="6.14807">
        <ele>2060.2</ele>
        <time>2021-02-03T10:24:33Z</time>
      </trkpt>
      <trkpt lat="45.38651" lon="6.14807">
        <ele>2060.2</ele>
        <time>2021-02-03T10:24:34Z</time>
      </trkpt>
      <trkpt lat="45.38652" lon="6.14806">
        <ele>2060.2</ele>
        <time>2021-02-03T10:24:35Z</time>
      </trkpt>
      <trkpt lat="45.38651" lon="6.14805">
        <ele>2060.2</ele>
        <time>2021-02-03T10:24:36Z</time>
      </trkpt>
      <trkpt lat="45.3865" lon="6.14805">
        <ele>2060.1</ele>
        <time>2021-02-03T10:24:37Z</time>
      </trkpt>
      <trkpt lat="45.38649" lon="6.14804">
        <ele>2060.1</ele>
        <time>2021-02-03T10:24:38Z</time>
      </trkpt>
      <trkpt lat="45.38649" lon="6.14803">
        <ele>2060.1</ele>
        <time>2021-02-03T10:24:39Z</time>
      </trkpt>
      <trkpt lat="45.38648" lon="6.14803">
        <ele>2060.1</ele>
        <time>2021-02-03T10:24:40Z</time>
      </trkpt>
      <trkpt lat="45.38647" lon="6.14802">
        <ele>2060</ele>
        <time>2021-02-03T10:24:41Z</time>
      </trkpt>
      <trkpt lat="45.38646" lon="6.14801">
        <ele>2060</ele>
        <time>2021-02-03T10:24:42Z</time>
      </trkpt>
      <trkpt lat="45.38646" lon="6.14801">
        <ele>2060</ele>
        <time>2021-02-03T10:24:48Z</time>
      </trkpt>
      <trkpt lat="45.38645" lon="6.148">
        <ele>2059.9</ele>
        <time>2021-02-03T10:24:49Z</time>
      </trkpt>
      <trkpt lat="45.38644" lon="6.14799">
        <ele>2059.9</ele>
        <time>2021-02-03T10:24:50Z</time>
      </trkpt>
      <trkpt lat="45.38643" lon="6.14799">
        <ele>2059.8</ele>
        <time>2021-02-03T10:24:51Z</time>
      </trkpt>
      <trkpt lat="45.38642" lon="6.14799">
        <ele>2059.8</ele>
        <time>2021-02-03T10:24:52Z</time>
      </trkpt>
      <trkpt lat="45.38642" lon="6.148">
        <ele>2059.8</ele>
        <time>2021-02-03T10:24:53Z</time>
      </trkpt>
      <trkpt lat="45.38641" lon="6.148">
        <ele>2059.7</ele>
        <time>2021-02-03T10:24:54Z</time>
      </trkpt>
      <trkpt lat="45.3864" lon="6.14801">
        <ele>2059.7</ele>
        <time>2021-02-03T10:24:55Z</time>
      </trkpt>
      <trkpt lat="45.3864" lon="6.14802">
        <ele>2059.7</ele>
        <time>2021-02-03T10:24:56Z</time>
      </trkpt>
      <trkpt lat="45.38639" lon="6.14802">
        <ele>2059.6</ele>
        <time>2021-02-03T10:24:57Z</time>
      </trkpt>
      <trkpt lat="45.38639" lon="6.14803">
        <ele>2059.6</ele>
        <time>2021-02-03T10:24:58Z</time>
      </trkpt>
      <trkpt lat="45.38638" lon="6.14804">
        <ele>2059.7</ele>
        <time>2021-02-03T10:24:59Z</time>
      </trkpt>
      <trkpt lat="45.38638" lon="6.14804">
        <ele>2059.6</ele>
        <time>2021-02-03T10:25:00Z</time>
      </trkpt>
      <trkpt lat="45.38638" lon="6.14805">
        <ele>2059.6</ele>
        <time>2021-02-03T10:25:01Z</time>
      </trkpt>
      <trkpt lat="45.38637" lon="6.14806">
        <ele>2059.6</ele>
        <time>2021-02-03T10:25:02Z</time>
      </trkpt>
      <trkpt lat="45.38637" lon="6.14806">
        <ele>2059.6</ele>
        <time>2021-02-03T10:25:03Z</time>
      </trkpt>
      <trkpt lat="45.38636" lon="6.14808">
        <ele>2059.5</ele>
        <time>2021-02-03T10:25:04Z</time>
      </trkpt>
      <trkpt lat="45.38636" lon="6.14809">
        <ele>2059.5</ele>
        <time>2021-02-03T10:25:05Z</time>
      </trkpt>
      <trkpt lat="45.38635" lon="6.1481">
        <ele>2059.5</ele>
        <time>2021-02-03T10:25:06Z</time>
      </trkpt>
      <trkpt lat="45.38635" lon="6.1481">
        <ele>2059.4</ele>
        <time>2021-02-03T10:25:07Z</time>
      </trkpt>
      <trkpt lat="45.38634" lon="6.14812">
        <ele>2059.4</ele>
        <time>2021-02-03T10:25:08Z</time>
      </trkpt>
      <trkpt lat="45.38634" lon="6.14813">
        <ele>2059.4</ele>
        <time>2021-02-03T10:25:09Z</time>
      </trkpt>
      <trkpt lat="45.38634" lon="6.14814">
        <ele>2059.4</ele>
        <time>2021-02-03T10:25:10Z</time>
      </trkpt>
      <trkpt lat="45.38634" lon="6.14815">
        <ele>2059.4</ele>
        <time>2021-02-03T10:25:11Z</time>
      </trkpt>
      <trkpt lat="45.38633" lon="6.14816">
        <ele>2059.4</ele>
        <time>2021-02-03T10:25:12Z</time>
      </trkpt>
      <trkpt lat="45.38633" lon="6.14818">
        <ele>2059.4</ele>
        <time>2021-02-03T10:25:13Z</time>
      </trkpt>
      <trkpt lat="45.38633" lon="6.14818">
        <ele>2059.4</ele>
        <time>2021-02-03T10:25:14Z</time>
      </trkpt>
      <trkpt lat="45.38633" lon="6.14819">
        <ele>2059.4</ele>
        <time>2021-02-03T10:25:15Z</time>
      </trkpt>
      <trkpt lat="45.38632" lon="6.1482">
        <ele>2059.4</ele>
        <time>2021-02-03T10:25:16Z</time>
      </trkpt>
      <trkpt lat="45.38632" lon="6.14821">
        <ele>2059.4</ele>
        <time>2021-02-03T10:25:17Z</time>
      </trkpt>
      <trkpt lat="45.38631" lon="6.14821">
        <ele>2059.4</ele>
        <time>2021-02-03T10:25:18Z</time>
      </trkpt>
      <trkpt lat="45.38631" lon="6.14822">
        <ele>2059.4</ele>
        <time>2021-02-03T10:25:19Z</time>
      </trkpt>
      <trkpt lat="45.3863" lon="6.14822">
        <ele>2059.4</ele>
        <time>2021-02-03T10:25:20Z</time>
      </trkpt>
      <trkpt lat="45.3863" lon="6.14823">
        <ele>2059.4</ele>
        <time>2021-02-03T10:25:21Z</time>
      </trkpt>
      <trkpt lat="45.38629" lon="6.14823">
        <ele>2059.4</ele>
        <time>2021-02-03T10:25:22Z</time>
      </trkpt>
      <trkpt lat="45.38629" lon="6.14824">
        <ele>2059.5</ele>
        <time>2021-02-03T10:25:23Z</time>
      </trkpt>
      <trkpt lat="45.38628" lon="6.14824">
        <ele>2059.5</ele>
        <time>2021-02-03T10:25:24Z</time>
      </trkpt>
      <trkpt lat="45.38628" lon="6.14825">
        <ele>2059.5</ele>
        <time>2021-02-03T10:25:25Z</time>
      </trkpt>
      <trkpt lat="45.38627" lon="6.14826">
        <ele>2059.5</ele>
        <time>2021-02-03T10:25:26Z</time>
      </trkpt>
      <trkpt lat="45.38627" lon="6.14826">
        <ele>2059.5</ele>
        <time>2021-02-03T10:25:46Z</time>
      </trkpt>
      <trkpt lat="45.38626" lon="6.14827">
        <ele>2059.5</ele>
        <time>2021-02-03T10:25:47Z</time>
      </trkpt>
      <trkpt lat="45.38625" lon="6.14829">
        <ele>2059.7</ele>
        <time>2021-02-03T10:25:48Z</time>
      </trkpt>
      <trkpt lat="45.38624" lon="6.1483">
        <ele>2059.7</ele>
        <time>2021-02-03T10:25:49Z</time>
      </trkpt>
      <trkpt lat="45.38623" lon="6.14831">
        <ele>2059.7</ele>
        <time>2021-02-03T10:25:50Z</time>
      </trkpt>
      <trkpt lat="45.38622" lon="6.14832">
        <ele>2059.8</ele>
        <time>2021-02-03T10:25:51Z</time>
      </trkpt>
      <trkpt lat="45.38621" lon="6.14834">
        <ele>2059.9</ele>
        <time>2021-02-03T10:25:52Z</time>
      </trkpt>
      <trkpt lat="45.3862" lon="6.14836">
        <ele>2060</ele>
        <time>2021-02-03T10:25:53Z</time>
      </trkpt>
      <trkpt lat="45.38618" lon="6.14837">
        <ele>2060.1</ele>
        <time>2021-02-03T10:25:54Z</time>
      </trkpt>
      <trkpt lat="45.38617" lon="6.14839">
        <ele>2060.2</ele>
        <time>2021-02-03T10:25:55Z</time>
      </trkpt>
      <trkpt lat="45.38616" lon="6.14841">
        <ele>2060.3</ele>
        <time>2021-02-03T10:25:56Z</time>
      </trkpt>
      <trkpt lat="45.38614" lon="6.14843">
        <ele>2060.5</ele>
        <time>2021-02-03T10:25:57Z</time>
      </trkpt>
      <trkpt lat="45.38613" lon="6.14844">
        <ele>2060.5</ele>
        <time>2021-02-03T10:25:58Z</time>
      </trkpt>
      <trkpt lat="45.38612" lon="6.14846">
        <ele>2060.6</ele>
        <time>2021-02-03T10:25:59Z</time>
      </trkpt>
      <trkpt lat="45.38611" lon="6.14847">
        <ele>2060.7</ele>
        <time>2021-02-03T10:26:00Z</time>
      </trkpt>
      <trkpt lat="45.3861" lon="6.14848">
        <ele>2060.8</ele>
        <time>2021-02-03T10:26:01Z</time>
      </trkpt>
      <trkpt lat="45.38609" lon="6.14849">
        <ele>2060.9</ele>
        <time>2021-02-03T10:26:02Z</time>
      </trkpt>
      <trkpt lat="45.38608" lon="6.14851">
        <ele>2060.9</ele>
        <time>2021-02-03T10:26:03Z</time>
      </trkpt>
      <trkpt lat="45.38607" lon="6.14852">
        <ele>2061</ele>
        <time>2021-02-03T10:26:04Z</time>
      </trkpt>
      <trkpt lat="45.38607" lon="6.14853">
        <ele>2061.1</ele>
        <time>2021-02-03T10:26:05Z</time>
      </trkpt>
      <trkpt lat="45.38606" lon="6.14854">
        <ele>2061.2</ele>
        <time>2021-02-03T10:26:06Z</time>
      </trkpt>
      <trkpt lat="45.38605" lon="6.14855">
        <ele>2061.2</ele>
        <time>2021-02-03T10:26:07Z</time>
      </trkpt>
      <trkpt lat="45.38605" lon="6.14856">
        <ele>2061.3</ele>
        <time>2021-02-03T10:26:08Z</time>
      </trkpt>
      <trkpt lat="45.38604" lon="6.14857">
        <ele>2061.4</ele>
        <time>2021-02-03T10:26:09Z</time>
      </trkpt>
      <trkpt lat="45.38604" lon="6.14858">
        <ele>2061.4</ele>
        <time>2021-02-03T10:26:10Z</time>
      </trkpt>
      <trkpt lat="45.38603" lon="6.14859">
        <ele>2061.5</ele>
        <time>2021-02-03T10:26:11Z</time>
      </trkpt>
      <trkpt lat="45.38603" lon="6.1486">
        <ele>2061.6</ele>
        <time>2021-02-03T10:26:12Z</time>
      </trkpt>
      <trkpt lat="45.38602" lon="6.14861">
        <ele>2061.7</ele>
        <time>2021-02-03T10:26:13Z</time>
      </trkpt>
      <trkpt lat="45.38601" lon="6.14862">
        <ele>2061.8</ele>
        <time>2021-02-03T10:26:14Z</time>
      </trkpt>
      <trkpt lat="45.386" lon="6.14863">
        <ele>2061.9</ele>
        <time>2021-02-03T10:26:15Z</time>
      </trkpt>
      <trkpt lat="45.386" lon="6.14864">
        <ele>2062</ele>
        <time>2021-02-03T10:26:16Z</time>
      </trkpt>
      <trkpt lat="45.38599" lon="6.14865">
        <ele>2062.1</ele>
        <time>2021-02-03T10:26:17Z</time>
      </trkpt>
      <trkpt lat="45.38598" lon="6.14866">
        <ele>2062.2</ele>
        <time>2021-02-03T10:26:18Z</time>
      </trkpt>
      <trkpt lat="45.38597" lon="6.14867">
        <ele>2062.3</ele>
        <time>2021-02-03T10:26:19Z</time>
      </trkpt>
      <trkpt lat="45.38597" lon="6.14869">
        <ele>2062.4</ele>
        <time>2021-02-03T10:26:20Z</time>
      </trkpt>
      <trkpt lat="45.38596" lon="6.1487">
        <ele>2062.5</ele>
        <time>2021-02-03T10:26:21Z</time>
      </trkpt>
      <trkpt lat="45.38596" lon="6.14871">
        <ele>2062.6</ele>
        <time>2021-02-03T10:26:22Z</time>
      </trkpt>
      <trkpt lat="45.38596" lon="6.14873">
        <ele>2062.7</ele>
        <time>2021-02-03T10:26:23Z</time>
      </trkpt>
      <trkpt lat="45.38596" lon="6.14874">
        <ele>2062.8</ele>
        <time>2021-02-03T10:26:24Z</time>
      </trkpt>
      <trkpt lat="45.38595" lon="6.14875">
        <ele>2062.9</ele>
        <time>2021-02-03T10:26:25Z</time>
      </trkpt>
      <trkpt lat="45.38595" lon="6.14877">
        <ele>2063</ele>
        <time>2021-02-03T10:26:26Z</time>
      </trkpt>
      <trkpt lat="45.38595" lon="6.14878">
        <ele>2063</ele>
        <time>2021-02-03T10:26:27Z</time>
      </trkpt>
      <trkpt lat="45.38595" lon="6.14879">
        <ele>2063.1</ele>
        <time>2021-02-03T10:26:28Z</time>
      </trkpt>
      <trkpt lat="45.38595" lon="6.1488">
        <ele>2063.2</ele>
        <time>2021-02-03T10:26:29Z</time>
      </trkpt>
      <trkpt lat="45.38595" lon="6.14881">
        <ele>2063.2</ele>
        <time>2021-02-03T10:26:30Z</time>
      </trkpt>
      <trkpt lat="45.38594" lon="6.14883">
        <ele>2063.3</ele>
        <time>2021-02-03T10:26:31Z</time>
      </trkpt>
      <trkpt lat="45.38594" lon="6.14884">
        <ele>2063.4</ele>
        <time>2021-02-03T10:26:32Z</time>
      </trkpt>
      <trkpt lat="45.38594" lon="6.14885">
        <ele>2063.4</ele>
        <time>2021-02-03T10:26:33Z</time>
      </trkpt>
      <trkpt lat="45.38594" lon="6.14886">
        <ele>2063.5</ele>
        <time>2021-02-03T10:26:34Z</time>
      </trkpt>
      <trkpt lat="45.38594" lon="6.14887">
        <ele>2063.5</ele>
        <time>2021-02-03T10:26:35Z</time>
      </trkpt>
      <trkpt lat="45.38594" lon="6.14888">
        <ele>2063.5</ele>
        <time>2021-02-03T10:26:36Z</time>
      </trkpt>
      <trkpt lat="45.38594" lon="6.14889">
        <ele>2063.6</ele>
        <time>2021-02-03T10:26:37Z</time>
      </trkpt>
      <trkpt lat="45.38594" lon="6.1489">
        <ele>2063.6</ele>
        <time>2021-02-03T10:26:38Z</time>
      </trkpt>
      <trkpt lat="45.38594" lon="6.14892">
        <ele>2063.7</ele>
        <time>2021-02-03T10:26:39Z</time>
      </trkpt>
      <trkpt lat="45.38594" lon="6.14893">
        <ele>2063.7</ele>
        <time>2021-02-03T10:26:40Z</time>
      </trkpt>
      <trkpt lat="45.38594" lon="6.14894">
        <ele>2063.7</ele>
        <time>2021-02-03T10:26:41Z</time>
      </trkpt>
      <trkpt lat="45.38594" lon="6.14895">
        <ele>2063.7</ele>
        <time>2021-02-03T10:26:42Z</time>
      </trkpt>
      <trkpt lat="45.38594" lon="6.14896">
        <ele>2063.7</ele>
        <time>2021-02-03T10:26:43Z</time>
      </trkpt>
      <trkpt lat="45.38594" lon="6.14897">
        <ele>2063.8</ele>
        <time>2021-02-03T10:26:44Z</time>
      </trkpt>
      <trkpt lat="45.38594" lon="6.14898">
        <ele>2063.8</ele>
        <time>2021-02-03T10:26:45Z</time>
      </trkpt>
      <trkpt lat="45.38593" lon="6.14898">
        <ele>2063.8</ele>
        <time>2021-02-03T10:26:46Z</time>
      </trkpt>
      <trkpt lat="45.38593" lon="6.14897">
        <ele>2063.8</ele>
        <time>2021-02-03T10:26:47Z</time>
      </trkpt>
      <trkpt lat="45.38593" lon="6.14896">
        <ele>2063.8</ele>
        <time>2021-02-03T10:26:48Z</time>
      </trkpt>
      <trkpt lat="45.38592" lon="6.14895">
        <ele>2063.8</ele>
        <time>2021-02-03T10:26:49Z</time>
      </trkpt>
      <trkpt lat="45.38592" lon="6.14894">
        <ele>2063.8</ele>
        <time>2021-02-03T10:26:50Z</time>
      </trkpt>
      <trkpt lat="45.38592" lon="6.14893">
        <ele>2063.8</ele>
        <time>2021-02-03T10:26:51Z</time>
      </trkpt>
      <trkpt lat="45.38592" lon="6.14892">
        <ele>2063.8</ele>
        <time>2021-02-03T10:26:52Z</time>
      </trkpt>
      <trkpt lat="45.38591" lon="6.14891">
        <ele>2063.8</ele>
        <time>2021-02-03T10:26:53Z</time>
      </trkpt>
      <trkpt lat="45.38591" lon="6.1489">
        <ele>2063.8</ele>
        <time>2021-02-03T10:26:54Z</time>
      </trkpt>
      <trkpt lat="45.38591" lon="6.14889">
        <ele>2063.8</ele>
        <time>2021-02-03T10:26:55Z</time>
      </trkpt>
      <trkpt lat="45.3859" lon="6.14888">
        <ele>2063.8</ele>
        <time>2021-02-03T10:26:56Z</time>
      </trkpt>
      <trkpt lat="45.3859" lon="6.14887">
        <ele>2063.8</ele>
        <time>2021-02-03T10:39:04Z</time>
      </trkpt>
      <trkpt lat="45.3859" lon="6.14886">
        <ele>2063.8</ele>
        <time>2021-02-03T10:39:05Z</time>
      </trkpt>
      <trkpt lat="45.3859" lon="6.14885">
        <ele>2063.8</ele>
        <time>2021-02-03T10:39:06Z</time>
      </trkpt>
      <trkpt lat="45.3859" lon="6.14883">
        <ele>2063.8</ele>
        <time>2021-02-03T10:39:07Z</time>
      </trkpt>
      <trkpt lat="45.38591" lon="6.14881">
        <ele>2063.7</ele>
        <time>2021-02-03T10:39:08Z</time>
      </trkpt>
      <trkpt lat="45.38591" lon="6.1488">
        <ele>2063.7</ele>
        <time>2021-02-03T10:39:09Z</time>
      </trkpt>
      <trkpt lat="45.3859" lon="6.14877">
        <ele>2063.7</ele>
        <time>2021-02-03T10:39:10Z</time>
      </trkpt>
      <trkpt lat="45.3859" lon="6.14873">
        <ele>2063.6</ele>
        <time>2021-02-03T10:39:11Z</time>
      </trkpt>
      <trkpt lat="45.3859" lon="6.14871">
        <ele>2063.6</ele>
        <time>2021-02-03T10:39:12Z</time>
      </trkpt>
      <trkpt lat="45.3859" lon="6.14867">
        <ele>2063.5</ele>
        <time>2021-02-03T10:39:13Z</time>
      </trkpt>
      <trkpt lat="45.3859" lon="6.14865">
        <ele>2063.5</ele>
        <time>2021-02-03T10:39:14Z</time>
      </trkpt>
      <trkpt lat="45.38591" lon="6.14861">
        <ele>2063.5</ele>
        <time>2021-02-03T10:39:15Z</time>
      </trkpt>
      <trkpt lat="45.38591" lon="6.14859">
        <ele>2063.5</ele>
        <time>2021-02-03T10:39:16Z</time>
      </trkpt>
      <trkpt lat="45.38592" lon="6.14855">
        <ele>2063.4</ele>
        <time>2021-02-03T10:39:17Z</time>
      </trkpt>
      <trkpt lat="45.38592" lon="6.14853">
        <ele>2063.4</ele>
        <time>2021-02-03T10:39:18Z</time>
      </trkpt>
      <trkpt lat="45.38592" lon="6.14852">
        <ele>2063.4</ele>
        <time>2021-02-03T10:39:19Z</time>
      </trkpt>
      <trkpt lat="45.38593" lon="6.1485">
        <ele>2063.4</ele>
        <time>2021-02-03T10:39:20Z</time>
      </trkpt>
      <trkpt lat="45.38593" lon="6.14849">
        <ele>2063.4</ele>
        <time>2021-02-03T10:39:21Z</time>
      </trkpt>
      <trkpt lat="45.38594" lon="6.14848">
        <ele>2063.4</ele>
        <time>2021-02-03T10:39:22Z</time>
      </trkpt>
      <trkpt lat="45.38594" lon="6.14846">
        <ele>2063.3</ele>
        <time>2021-02-03T10:39:23Z</time>
      </trkpt>
      <trkpt lat="45.38595" lon="6.14844">
        <ele>2063.3</ele>
        <time>2021-02-03T10:39:24Z</time>
      </trkpt>
      <trkpt lat="45.38595" lon="6.14842">
        <ele>2063.3</ele>
        <time>2021-02-03T10:39:25Z</time>
      </trkpt>
      <trkpt lat="45.38596" lon="6.14841">
        <ele>2063.2</ele>
        <time>2021-02-03T10:39:26Z</time>
      </trkpt>
      <trkpt lat="45.38598" lon="6.14839">
        <ele>2063.1</ele>
        <time>2021-02-03T10:39:27Z</time>
      </trkpt>
      <trkpt lat="45.38599" lon="6.14837">
        <ele>2063.1</ele>
        <time>2021-02-03T10:39:28Z</time>
      </trkpt>
      <trkpt lat="45.386" lon="6.14835">
        <ele>2063</ele>
        <time>2021-02-03T10:39:29Z</time>
      </trkpt>
      <trkpt lat="45.386" lon="6.14833">
        <ele>2062.9</ele>
        <time>2021-02-03T10:39:30Z</time>
      </trkpt>
      <trkpt lat="45.386" lon="6.14831">
        <ele>2062.9</ele>
        <time>2021-02-03T10:39:31Z</time>
      </trkpt>
      <trkpt lat="45.386" lon="6.1483">
        <ele>2062.8</ele>
        <time>2021-02-03T10:39:32Z</time>
      </trkpt>
      <trkpt lat="45.386" lon="6.14829">
        <ele>2062.8</ele>
        <time>2021-02-03T10:39:33Z</time>
      </trkpt>
      <trkpt lat="45.386" lon="6.14827">
        <ele>2062.7</ele>
        <time>2021-02-03T10:39:34Z</time>
      </trkpt>
      <trkpt lat="45.38601" lon="6.14825">
        <ele>2062.6</ele>
        <time>2021-02-03T10:39:35Z</time>
      </trkpt>
      <trkpt lat="45.38602" lon="6.14822">
        <ele>2062.4</ele>
        <time>2021-02-03T10:39:36Z</time>
      </trkpt>
      <trkpt lat="45.38603" lon="6.1482">
        <ele>2062.4</ele>
        <time>2021-02-03T10:39:37Z</time>
      </trkpt>
      <trkpt lat="45.38604" lon="6.14818">
        <ele>2062.3</ele>
        <time>2021-02-03T10:39:38Z</time>
      </trkpt>
      <trkpt lat="45.38604" lon="6.14816">
        <ele>2062.1</ele>
        <time>2021-02-03T10:39:39Z</time>
      </trkpt>
      <trkpt lat="45.38605" lon="6.14812">
        <ele>2061.9</ele>
        <time>2021-02-03T10:39:40Z</time>
      </trkpt>
      <trkpt lat="45.38606" lon="6.14811">
        <ele>2061.8</ele>
        <time>2021-02-03T10:39:41Z</time>
      </trkpt>
      <trkpt lat="45.38608" lon="6.14806">
        <ele>2061.5</ele>
        <time>2021-02-03T10:39:42Z</time>
      </trkpt>
      <trkpt lat="45.38608" lon="6.14804">
        <ele>2061.4</ele>
        <time>2021-02-03T10:39:43Z</time>
      </trkpt>
      <trkpt lat="45.3861" lon="6.148">
        <ele>2061.2</ele>
        <time>2021-02-03T10:39:44Z</time>
      </trkpt>
      <trkpt lat="45.38611" lon="6.14796">
        <ele>2060.9</ele>
        <time>2021-02-03T10:39:45Z</time>
      </trkpt>
      <trkpt lat="45.38613" lon="6.14791">
        <ele>2060.7</ele>
        <time>2021-02-03T10:39:46Z</time>
      </trkpt>
      <trkpt lat="45.38616" lon="6.14787">
        <ele>2060.3</ele>
        <time>2021-02-03T10:39:47Z</time>
      </trkpt>
      <trkpt lat="45.38619" lon="6.14782">
        <ele>2060.1</ele>
        <time>2021-02-03T10:39:48Z</time>
      </trkpt>
      <trkpt lat="45.3862" lon="6.14779">
        <ele>2059.9</ele>
        <time>2021-02-03T10:39:49Z</time>
      </trkpt>
      <trkpt lat="45.38622" lon="6.14774">
        <ele>2059.7</ele>
        <time>2021-02-03T10:39:50Z</time>
      </trkpt>
      <trkpt lat="45.38624" lon="6.14769">
        <ele>2059.4</ele>
        <time>2021-02-03T10:39:51Z</time>
      </trkpt>
      <trkpt lat="45.38626" lon="6.14765">
        <ele>2059.2</ele>
        <time>2021-02-03T10:39:52Z</time>
      </trkpt>
      <trkpt lat="45.38628" lon="6.1476">
        <ele>2059.2</ele>
        <time>2021-02-03T10:39:53Z</time>
      </trkpt>
      <trkpt lat="45.3863" lon="6.14755">
        <ele>2058.9</ele>
        <time>2021-02-03T10:39:54Z</time>
      </trkpt>
      <trkpt lat="45.38632" lon="6.14751">
        <ele>2058.6</ele>
        <time>2021-02-03T10:39:55Z</time>
      </trkpt>
      <trkpt lat="45.38635" lon="6.14748">
        <ele>2057.8</ele>
        <time>2021-02-03T10:39:56Z</time>
      </trkpt>
      <trkpt lat="45.38638" lon="6.14746">
        <ele>2057.4</ele>
        <time>2021-02-03T10:39:57Z</time>
      </trkpt>
      <trkpt lat="45.38638" lon="6.14745">
        <ele>2057</ele>
        <time>2021-02-03T10:39:58Z</time>
      </trkpt>
      <trkpt lat="45.38638" lon="6.14744">
        <ele>2056.9</ele>
        <time>2021-02-03T10:39:59Z</time>
      </trkpt>
      <trkpt lat="45.38637" lon="6.14744">
        <ele>2056.8</ele>
        <time>2021-02-03T10:40:00Z</time>
      </trkpt>
      <trkpt lat="45.38637" lon="6.14744">
        <ele>2056.7</ele>
        <time>2021-02-03T10:40:01Z</time>
      </trkpt>
      <trkpt lat="45.38637" lon="6.14744">
        <ele>2056.6</ele>
        <time>2021-02-03T10:40:02Z</time>
      </trkpt>
      <trkpt lat="45.38636" lon="6.14743">
        <ele>2056.7</ele>
        <time>2021-02-03T10:40:03Z</time>
      </trkpt>
      <trkpt lat="45.38636" lon="6.14743">
        <ele>2056.6</ele>
        <time>2021-02-03T10:40:04Z</time>
      </trkpt>
      <trkpt lat="45.38636" lon="6.14743">
        <ele>2056.5</ele>
        <time>2021-02-03T10:40:05Z</time>
      </trkpt>
      <trkpt lat="45.38635" lon="6.14743">
        <ele>2056.4</ele>
        <time>2021-02-03T10:40:06Z</time>
      </trkpt>
      <trkpt lat="45.38635" lon="6.14742">
        <ele>2056.3</ele>
        <time>2021-02-03T10:40:07Z</time>
      </trkpt>
      <trkpt lat="45.38634" lon="6.14742">
        <ele>2056.2</ele>
        <time>2021-02-03T10:40:08Z</time>
      </trkpt>
      <trkpt lat="45.38634" lon="6.14742">
        <ele>2056.1</ele>
        <time>2021-02-03T10:40:23Z</time>
      </trkpt>
      <trkpt lat="45.38634" lon="6.14742">
        <ele>2055.9</ele>
        <time>2021-02-03T10:40:24Z</time>
      </trkpt>
      <trkpt lat="45.38633" lon="6.14742">
        <ele>2056.1</ele>
        <time>2021-02-03T10:40:25Z</time>
      </trkpt>
      <trkpt lat="45.38633" lon="6.14741">
        <ele>2056</ele>
        <time>2021-02-03T10:40:26Z</time>
      </trkpt>
      <trkpt lat="45.38633" lon="6.14741">
        <ele>2055.8</ele>
        <time>2021-02-03T10:40:27Z</time>
      </trkpt>
      <trkpt lat="45.38632" lon="6.14741">
        <ele>2055.4</ele>
        <time>2021-02-03T10:40:28Z</time>
      </trkpt>
      <trkpt lat="45.38632" lon="6.14741">
        <ele>2055.3</ele>
        <time>2021-02-03T10:40:29Z</time>
      </trkpt>
      <trkpt lat="45.38631" lon="6.1474">
        <ele>2055.2</ele>
        <time>2021-02-03T10:40:30Z</time>
      </trkpt>
      <trkpt lat="45.38631" lon="6.1474">
        <ele>2055.1</ele>
        <time>2021-02-03T10:40:31Z</time>
      </trkpt>
      <trkpt lat="45.38631" lon="6.1474">
        <ele>2055</ele>
        <time>2021-02-03T10:40:32Z</time>
      </trkpt>
      <trkpt lat="45.3863" lon="6.1474">
        <ele>2055</ele>
        <time>2021-02-03T10:40:33Z</time>
      </trkpt>
      <trkpt lat="45.3863" lon="6.14739">
        <ele>2054.9</ele>
        <time>2021-02-03T10:40:34Z</time>
      </trkpt>
      <trkpt lat="45.3863" lon="6.14739">
        <ele>2054.8</ele>
        <time>2021-02-03T10:41:19Z</time>
      </trkpt>
      <trkpt lat="45.38629" lon="6.14739">
        <ele>2054.7</ele>
        <time>2021-02-03T10:41:20Z</time>
      </trkpt>
      <trkpt lat="45.38627" lon="6.14737">
        <ele>2054.8</ele>
        <time>2021-02-03T10:41:21Z</time>
      </trkpt>
      <trkpt lat="45.38624" lon="6.14733">
        <ele>2054.4</ele>
        <time>2021-02-03T10:41:22Z</time>
      </trkpt>
      <trkpt lat="45.38621" lon="6.14729">
        <ele>2054</ele>
        <time>2021-02-03T10:41:23Z</time>
      </trkpt>
      <trkpt lat="45.38621" lon="6.14724">
        <ele>2053.4</ele>
        <time>2021-02-03T10:41:24Z</time>
      </trkpt>
      <trkpt lat="45.38622" lon="6.14721">
        <ele>2052.5</ele>
        <time>2021-02-03T10:41:25Z</time>
      </trkpt>
      <trkpt lat="45.38625" lon="6.14719">
        <ele>2051.6</ele>
        <time>2021-02-03T10:41:26Z</time>
      </trkpt>
      <trkpt lat="45.38626" lon="6.14719">
        <ele>2051.5</ele>
        <time>2021-02-03T10:41:27Z</time>
      </trkpt>
      <trkpt lat="45.38628" lon="6.14718">
        <ele>2051.3</ele>
        <time>2021-02-03T10:41:28Z</time>
      </trkpt>
      <trkpt lat="45.38629" lon="6.14718">
        <ele>2051.2</ele>
        <time>2021-02-03T10:41:29Z</time>
      </trkpt>
      <trkpt lat="45.38631" lon="6.14718">
        <ele>2050.9</ele>
        <time>2021-02-03T10:41:30Z</time>
      </trkpt>
      <trkpt lat="45.38631" lon="6.14718">
        <ele>2050.8</ele>
        <time>2021-02-03T10:41:31Z</time>
      </trkpt>
      <trkpt lat="45.38632" lon="6.14719">
        <ele>2050.7</ele>
        <time>2021-02-03T10:41:32Z</time>
      </trkpt>
      <trkpt lat="45.38633" lon="6.14719">
        <ele>2050.6</ele>
        <time>2021-02-03T10:41:33Z</time>
      </trkpt>
      <trkpt lat="45.38634" lon="6.14719">
        <ele>2050.3</ele>
        <time>2021-02-03T10:41:34Z</time>
      </trkpt>
      <trkpt lat="45.38635" lon="6.14719">
        <ele>2050.2</ele>
        <time>2021-02-03T10:41:35Z</time>
      </trkpt>
      <trkpt lat="45.38635" lon="6.14719">
        <ele>2050.1</ele>
        <time>2021-02-03T10:41:36Z</time>
      </trkpt>
      <trkpt lat="45.38637" lon="6.14719">
        <ele>2049.8</ele>
        <time>2021-02-03T10:41:37Z</time>
      </trkpt>
      <trkpt lat="45.38637" lon="6.14718">
        <ele>2049.7</ele>
        <time>2021-02-03T10:41:38Z</time>
      </trkpt>
      <trkpt lat="45.38638" lon="6.14718">
        <ele>2049.6</ele>
        <time>2021-02-03T10:41:39Z</time>
      </trkpt>
      <trkpt lat="45.38639" lon="6.14717">
        <ele>2049.4</ele>
        <time>2021-02-03T10:41:40Z</time>
      </trkpt>
      <trkpt lat="45.38641" lon="6.14715">
        <ele>2048.5</ele>
        <time>2021-02-03T10:41:41Z</time>
      </trkpt>
      <trkpt lat="45.38642" lon="6.14713">
        <ele>2048.3</ele>
        <time>2021-02-03T10:41:42Z</time>
      </trkpt>
      <trkpt lat="45.38644" lon="6.1471">
        <ele>2047.3</ele>
        <time>2021-02-03T10:41:43Z</time>
      </trkpt>
      <trkpt lat="45.38641" lon="6.14705">
        <ele>2046.7</ele>
        <time>2021-02-03T10:41:44Z</time>
      </trkpt>
      <trkpt lat="45.38639" lon="6.14704">
        <ele>2046.8</ele>
        <time>2021-02-03T10:41:45Z</time>
      </trkpt>
      <trkpt lat="45.38636" lon="6.14701">
        <ele>2046.1</ele>
        <time>2021-02-03T10:41:46Z</time>
      </trkpt>
      <trkpt lat="45.38637" lon="6.14696">
        <ele>2045</ele>
        <time>2021-02-03T10:41:47Z</time>
      </trkpt>
      <trkpt lat="45.3864" lon="6.14692">
        <ele>2043.9</ele>
        <time>2021-02-03T10:41:48Z</time>
      </trkpt>
      <trkpt lat="45.38642" lon="6.14688">
        <ele>2043</ele>
        <time>2021-02-03T10:41:49Z</time>
      </trkpt>
      <trkpt lat="45.38643" lon="6.14681">
        <ele>2042</ele>
        <time>2021-02-03T10:41:50Z</time>
      </trkpt>
      <trkpt lat="45.38641" lon="6.14675">
        <ele>2040.1</ele>
        <time>2021-02-03T10:41:51Z</time>
      </trkpt>
      <trkpt lat="45.38638" lon="6.14669">
        <ele>2039.1</ele>
        <time>2021-02-03T10:41:52Z</time>
      </trkpt>
      <trkpt lat="45.3863" lon="6.14662">
        <ele>2037.1</ele>
        <time>2021-02-03T10:41:53Z</time>
      </trkpt>
      <trkpt lat="45.3863" lon="6.14657">
        <ele>2036</ele>
        <time>2021-02-03T10:41:54Z</time>
      </trkpt>
      <trkpt lat="45.38634" lon="6.14654">
        <ele>2034.9</ele>
        <time>2021-02-03T10:41:55Z</time>
      </trkpt>
      <trkpt lat="45.38636" lon="6.14649">
        <ele>2033.9</ele>
        <time>2021-02-03T10:41:56Z</time>
      </trkpt>
      <trkpt lat="45.38633" lon="6.14644">
        <ele>2032.7</ele>
        <time>2021-02-03T10:41:57Z</time>
      </trkpt>
      <trkpt lat="45.38631" lon="6.14639">
        <ele>2031.5</ele>
        <time>2021-02-03T10:41:58Z</time>
      </trkpt>
      <trkpt lat="45.38629" lon="6.14635">
        <ele>2030.1</ele>
        <time>2021-02-03T10:41:59Z</time>
      </trkpt>
      <trkpt lat="45.38631" lon="6.14631">
        <ele>2029</ele>
        <time>2021-02-03T10:42:00Z</time>
      </trkpt>
      <trkpt lat="45.38632" lon="6.14627">
        <ele>2027.6</ele>
        <time>2021-02-03T10:42:01Z</time>
      </trkpt>
      <trkpt lat="45.38631" lon="6.14622">
        <ele>2026.3</ele>
        <time>2021-02-03T10:42:02Z</time>
      </trkpt>
      <trkpt lat="45.38629" lon="6.14617">
        <ele>2024.6</ele>
        <time>2021-02-03T10:42:03Z</time>
      </trkpt>
      <trkpt lat="45.38632" lon="6.14614">
        <ele>2023.5</ele>
        <time>2021-02-03T10:42:04Z</time>
      </trkpt>
      <trkpt lat="45.38636" lon="6.1461">
        <ele>2022.5</ele>
        <time>2021-02-03T10:42:05Z</time>
      </trkpt>
      <trkpt lat="45.3864" lon="6.14607">
        <ele>2021.9</ele>
        <time>2021-02-03T10:42:06Z</time>
      </trkpt>
      <trkpt lat="45.38642" lon="6.14604">
        <ele>2020.6</ele>
        <time>2021-02-03T10:42:07Z</time>
      </trkpt>
      <trkpt lat="45.38644" lon="6.146">
        <ele>2020.8</ele>
        <time>2021-02-03T10:42:08Z</time>
      </trkpt>
      <trkpt lat="45.38645" lon="6.14597">
        <ele>2019.6</ele>
        <time>2021-02-03T10:42:09Z</time>
      </trkpt>
      <trkpt lat="45.38645" lon="6.14596">
        <ele>2019.5</ele>
        <time>2021-02-03T10:42:10Z</time>
      </trkpt>
      <trkpt lat="45.38646" lon="6.14594">
        <ele>2018.5</ele>
        <time>2021-02-03T10:42:11Z</time>
      </trkpt>
      <trkpt lat="45.38646" lon="6.14594">
        <ele>2018.4</ele>
        <time>2021-02-03T10:42:12Z</time>
      </trkpt>
      <trkpt lat="45.38647" lon="6.14593">
        <ele>2018.2</ele>
        <time>2021-02-03T10:42:13Z</time>
      </trkpt>
      <trkpt lat="45.38648" lon="6.14592">
        <ele>2018.1</ele>
        <time>2021-02-03T10:42:14Z</time>
      </trkpt>
      <trkpt lat="45.38649" lon="6.14591">
        <ele>2018.2</ele>
        <time>2021-02-03T10:42:15Z</time>
      </trkpt>
      <trkpt lat="45.3865" lon="6.14591">
        <ele>2018</ele>
        <time>2021-02-03T10:42:16Z</time>
      </trkpt>
      <trkpt lat="45.38651" lon="6.14583">
        <ele>2015.6</ele>
        <time>2021-02-03T10:42:17Z</time>
      </trkpt>
      <trkpt lat="45.38653" lon="6.14575">
        <ele>2013.2</ele>
        <time>2021-02-03T10:42:18Z</time>
      </trkpt>
      <trkpt lat="45.38659" lon="6.14564">
        <ele>2010.1</ele>
        <time>2021-02-03T10:42:19Z</time>
      </trkpt>
      <trkpt lat="45.38664" lon="6.14551">
        <ele>2007.8</ele>
        <time>2021-02-03T10:42:20Z</time>
      </trkpt>
      <trkpt lat="45.38669" lon="6.14538">
        <ele>2005.8</ele>
        <time>2021-02-03T10:42:21Z</time>
      </trkpt>
      <trkpt lat="45.38674" lon="6.14524">
        <ele>2004.6</ele>
        <time>2021-02-03T10:42:22Z</time>
      </trkpt>
      <trkpt lat="45.3868" lon="6.1451">
        <ele>2003.5</ele>
        <time>2021-02-03T10:42:23Z</time>
      </trkpt>
      <trkpt lat="45.3868" lon="6.14494">
        <ele>2001</ele>
        <time>2021-02-03T10:42:24Z</time>
      </trkpt>
      <trkpt lat="45.38683" lon="6.14479">
        <ele>1999</ele>
        <time>2021-02-03T10:42:25Z</time>
      </trkpt>
      <trkpt lat="45.38685" lon="6.14466">
        <ele>1998.3</ele>
        <time>2021-02-03T10:42:26Z</time>
      </trkpt>
      <trkpt lat="45.38686" lon="6.14454">
        <ele>1997</ele>
        <time>2021-02-03T10:42:27Z</time>
      </trkpt>
      <trkpt lat="45.38686" lon="6.14444">
        <ele>1995.7</ele>
        <time>2021-02-03T10:42:28Z</time>
      </trkpt>
      <trkpt lat="45.38684" lon="6.14436">
        <ele>1994.6</ele>
        <time>2021-02-03T10:42:29Z</time>
      </trkpt>
      <trkpt lat="45.38686" lon="6.14429">
        <ele>1994.6</ele>
        <time>2021-02-03T10:42:30Z</time>
      </trkpt>
      <trkpt lat="45.38686" lon="6.14423">
        <ele>1994.6</ele>
        <time>2021-02-03T10:42:31Z</time>
      </trkpt>
      <trkpt lat="45.38684" lon="6.14419">
        <ele>1994.5</ele>
        <time>2021-02-03T10:42:32Z</time>
      </trkpt>
      <trkpt lat="45.38683" lon="6.14415">
        <ele>1994.3</ele>
        <time>2021-02-03T10:42:33Z</time>
      </trkpt>
      <trkpt lat="45.38683" lon="6.1441">
        <ele>1994.1</ele>
        <time>2021-02-03T10:42:34Z</time>
      </trkpt>
      <trkpt lat="45.38683" lon="6.14408">
        <ele>1994</ele>
        <time>2021-02-03T10:42:35Z</time>
      </trkpt>
      <trkpt lat="45.38681" lon="6.14404">
        <ele>1993.8</ele>
        <time>2021-02-03T10:42:36Z</time>
      </trkpt>
      <trkpt lat="45.38683" lon="6.144">
        <ele>1993.5</ele>
        <time>2021-02-03T10:42:37Z</time>
      </trkpt>
      <trkpt lat="45.38684" lon="6.14398">
        <ele>1993.4</ele>
        <time>2021-02-03T10:42:38Z</time>
      </trkpt>
      <trkpt lat="45.38684" lon="6.14394">
        <ele>1993.1</ele>
        <time>2021-02-03T10:42:39Z</time>
      </trkpt>
      <trkpt lat="45.38684" lon="6.1439">
        <ele>1992.9</ele>
        <time>2021-02-03T10:42:40Z</time>
      </trkpt>
      <trkpt lat="45.38685" lon="6.14386">
        <ele>1992.6</ele>
        <time>2021-02-03T10:42:41Z</time>
      </trkpt>
      <trkpt lat="45.38687" lon="6.14383">
        <ele>1992.2</ele>
        <time>2021-02-03T10:42:42Z</time>
      </trkpt>
      <trkpt lat="45.38689" lon="6.14378">
        <ele>1991.8</ele>
        <time>2021-02-03T10:42:43Z</time>
      </trkpt>
      <trkpt lat="45.38691" lon="6.14373">
        <ele>1991.3</ele>
        <time>2021-02-03T10:42:44Z</time>
      </trkpt>
      <trkpt lat="45.38693" lon="6.14369">
        <ele>1990.8</ele>
        <time>2021-02-03T10:42:45Z</time>
      </trkpt>
      <trkpt lat="45.38692" lon="6.14364">
        <ele>1990.1</ele>
        <time>2021-02-03T10:42:46Z</time>
      </trkpt>
      <trkpt lat="45.38691" lon="6.14358">
        <ele>1989.4</ele>
        <time>2021-02-03T10:42:47Z</time>
      </trkpt>
      <trkpt lat="45.38692" lon="6.14352">
        <ele>1988.7</ele>
        <time>2021-02-03T10:42:48Z</time>
      </trkpt>
      <trkpt lat="45.38693" lon="6.14346">
        <ele>1987.9</ele>
        <time>2021-02-03T10:42:49Z</time>
      </trkpt>
      <trkpt lat="45.38695" lon="6.14339">
        <ele>1987</ele>
        <time>2021-02-03T10:42:50Z</time>
      </trkpt>
      <trkpt lat="45.38696" lon="6.14331">
        <ele>1986</ele>
        <time>2021-02-03T10:42:51Z</time>
      </trkpt>
      <trkpt lat="45.38697" lon="6.14323">
        <ele>1985</ele>
        <time>2021-02-03T10:42:52Z</time>
      </trkpt>
      <trkpt lat="45.38699" lon="6.14316">
        <ele>1984</ele>
        <time>2021-02-03T10:42:53Z</time>
      </trkpt>
      <trkpt lat="45.38701" lon="6.14309">
        <ele>1983.1</ele>
        <time>2021-02-03T10:42:54Z</time>
      </trkpt>
      <trkpt lat="45.38704" lon="6.14313">
        <ele>1982.3</ele>
        <time>2021-02-03T10:42:55Z</time>
      </trkpt>
      <trkpt lat="45.38705" lon="6.14314">
        <ele>1982</ele>
        <time>2021-02-03T10:42:56Z</time>
      </trkpt>
      <trkpt lat="45.38707" lon="6.14316">
        <ele>1981.7</ele>
        <time>2021-02-03T10:42:57Z</time>
      </trkpt>
      <trkpt lat="45.38709" lon="6.14318">
        <ele>1981.2</ele>
        <time>2021-02-03T10:42:58Z</time>
      </trkpt>
      <trkpt lat="45.38709" lon="6.14319">
        <ele>1981.1</ele>
        <time>2021-02-03T10:42:59Z</time>
      </trkpt>
      <trkpt lat="45.38709" lon="6.1432">
        <ele>1980.9</ele>
        <time>2021-02-03T10:43:00Z</time>
      </trkpt>
      <trkpt lat="45.38711" lon="6.14321">
        <ele>1980.7</ele>
        <time>2021-02-03T10:43:01Z</time>
      </trkpt>
      <trkpt lat="45.38712" lon="6.14321">
        <ele>1980.5</ele>
        <time>2021-02-03T10:43:02Z</time>
      </trkpt>
      <trkpt lat="45.38712" lon="6.14321">
        <ele>1980.4</ele>
        <time>2021-02-03T10:43:03Z</time>
      </trkpt>
      <trkpt lat="45.38713" lon="6.14321">
        <ele>1980.2</ele>
        <time>2021-02-03T10:43:04Z</time>
      </trkpt>
      <trkpt lat="45.38714" lon="6.14321">
        <ele>1980.1</ele>
        <time>2021-02-03T10:43:05Z</time>
      </trkpt>
      <trkpt lat="45.38715" lon="6.14321">
        <ele>1979.9</ele>
        <time>2021-02-03T10:43:06Z</time>
      </trkpt>
      <trkpt lat="45.38716" lon="6.14321">
        <ele>1979.8</ele>
        <time>2021-02-03T10:43:07Z</time>
      </trkpt>
      <trkpt lat="45.38716" lon="6.14321">
        <ele>1979.7</ele>
        <time>2021-02-03T10:43:08Z</time>
      </trkpt>
      <trkpt lat="45.38717" lon="6.14321">
        <ele>1979.5</ele>
        <time>2021-02-03T10:43:09Z</time>
      </trkpt>
      <trkpt lat="45.38718" lon="6.14321">
        <ele>1979.4</ele>
        <time>2021-02-03T10:43:10Z</time>
      </trkpt>
      <trkpt lat="45.38719" lon="6.14321">
        <ele>1979.2</ele>
        <time>2021-02-03T10:43:26Z</time>
      </trkpt>
      <trkpt lat="45.3872" lon="6.14321">
        <ele>1979.1</ele>
        <time>2021-02-03T10:43:27Z</time>
      </trkpt>
      <trkpt lat="45.38723" lon="6.14322">
        <ele>1978.5</ele>
        <time>2021-02-03T10:43:28Z</time>
      </trkpt>
      <trkpt lat="45.38724" lon="6.14322">
        <ele>1978.3</ele>
        <time>2021-02-03T10:43:29Z</time>
      </trkpt>
      <trkpt lat="45.38727" lon="6.14319">
        <ele>1977.7</ele>
        <time>2021-02-03T10:43:30Z</time>
      </trkpt>
      <trkpt lat="45.38729" lon="6.14315">
        <ele>1977</ele>
        <time>2021-02-03T10:43:31Z</time>
      </trkpt>
      <trkpt lat="45.38733" lon="6.1431">
        <ele>1976.3</ele>
        <time>2021-02-03T10:43:32Z</time>
      </trkpt>
      <trkpt lat="45.38737" lon="6.14307">
        <ele>1975.5</ele>
        <time>2021-02-03T10:43:33Z</time>
      </trkpt>
      <trkpt lat="45.38741" lon="6.14307">
        <ele>1974.8</ele>
        <time>2021-02-03T10:43:34Z</time>
      </trkpt>
      <trkpt lat="45.38746" lon="6.14308">
        <ele>1974.1</ele>
        <time>2021-02-03T10:43:35Z</time>
      </trkpt>
      <trkpt lat="45.38751" lon="6.14312">
        <ele>1973.3</ele>
        <time>2021-02-03T10:43:36Z</time>
      </trkpt>
      <trkpt lat="45.38756" lon="6.14312">
        <ele>1972.6</ele>
        <time>2021-02-03T10:43:37Z</time>
      </trkpt>
      <trkpt lat="45.3876" lon="6.14311">
        <ele>1972</ele>
        <time>2021-02-03T10:43:38Z</time>
      </trkpt>
      <trkpt lat="45.38765" lon="6.1431">
        <ele>1971.3</ele>
        <time>2021-02-03T10:43:39Z</time>
      </trkpt>
      <trkpt lat="45.3877" lon="6.14309">
        <ele>1970.7</ele>
        <time>2021-02-03T10:43:40Z</time>
      </trkpt>
      <trkpt lat="45.38773" lon="6.14308">
        <ele>1970.3</ele>
        <time>2021-02-03T10:43:41Z</time>
      </trkpt>
      <trkpt lat="45.38777" lon="6.14309">
        <ele>1969.9</ele>
        <time>2021-02-03T10:43:42Z</time>
      </trkpt>
      <trkpt lat="45.38782" lon="6.14309">
        <ele>1969.3</ele>
        <time>2021-02-03T10:43:43Z</time>
      </trkpt>
      <trkpt lat="45.38786" lon="6.14309">
        <ele>1968.8</ele>
        <time>2021-02-03T10:43:44Z</time>
      </trkpt>
      <trkpt lat="45.38791" lon="6.14309">
        <ele>1968.4</ele>
        <time>2021-02-03T10:43:45Z</time>
      </trkpt>
      <trkpt lat="45.38793" lon="6.14309">
        <ele>1968.2</ele>
        <time>2021-02-03T10:43:46Z</time>
      </trkpt>
      <trkpt lat="45.38797" lon="6.14309">
        <ele>1967.8</ele>
        <time>2021-02-03T10:43:47Z</time>
      </trkpt>
      <trkpt lat="45.38801" lon="6.1431">
        <ele>1967.5</ele>
        <time>2021-02-03T10:43:48Z</time>
      </trkpt>
      <trkpt lat="45.38804" lon="6.1431">
        <ele>1967.2</ele>
        <time>2021-02-03T10:43:49Z</time>
      </trkpt>
      <trkpt lat="45.38807" lon="6.1431">
        <ele>1967</ele>
        <time>2021-02-03T10:43:50Z</time>
      </trkpt>
      <trkpt lat="45.3881" lon="6.1431">
        <ele>1966.7</ele>
        <time>2021-02-03T10:43:51Z</time>
      </trkpt>
      <trkpt lat="45.38814" lon="6.1431">
        <ele>1966.4</ele>
        <time>2021-02-03T10:43:52Z</time>
      </trkpt>
      <trkpt lat="45.38815" lon="6.1431">
        <ele>1966.3</ele>
        <time>2021-02-03T10:43:53Z</time>
      </trkpt>
      <trkpt lat="45.38818" lon="6.14308">
        <ele>1966</ele>
        <time>2021-02-03T10:43:54Z</time>
      </trkpt>
      <trkpt lat="45.38821" lon="6.14308">
        <ele>1965.8</ele>
        <time>2021-02-03T10:43:55Z</time>
      </trkpt>
      <trkpt lat="45.38825" lon="6.14307">
        <ele>1965.5</ele>
        <time>2021-02-03T10:43:56Z</time>
      </trkpt>
      <trkpt lat="45.38827" lon="6.14306">
        <ele>1965.3</ele>
        <time>2021-02-03T10:43:57Z</time>
      </trkpt>
      <trkpt lat="45.38831" lon="6.14306">
        <ele>1965</ele>
        <time>2021-02-03T10:43:58Z</time>
      </trkpt>
      <trkpt lat="45.38835" lon="6.14305">
        <ele>1964.8</ele>
        <time>2021-02-03T10:43:59Z</time>
      </trkpt>
      <trkpt lat="45.38838" lon="6.14304">
        <ele>1964.5</ele>
        <time>2021-02-03T10:44:00Z</time>
      </trkpt>
      <trkpt lat="45.38842" lon="6.14302">
        <ele>1964.3</ele>
        <time>2021-02-03T10:44:01Z</time>
      </trkpt>
      <trkpt lat="45.38845" lon="6.143">
        <ele>1964</ele>
        <time>2021-02-03T10:44:02Z</time>
      </trkpt>
      <trkpt lat="45.38849" lon="6.14297">
        <ele>1963.8</ele>
        <time>2021-02-03T10:44:03Z</time>
      </trkpt>
      <trkpt lat="45.38851" lon="6.14293">
        <ele>1963.5</ele>
        <time>2021-02-03T10:44:04Z</time>
      </trkpt>
      <trkpt lat="45.38854" lon="6.14289">
        <ele>1963.2</ele>
        <time>2021-02-03T10:44:05Z</time>
      </trkpt>
      <trkpt lat="45.38857" lon="6.14285">
        <ele>1963</ele>
        <time>2021-02-03T10:44:06Z</time>
      </trkpt>
      <trkpt lat="45.38859" lon="6.14281">
        <ele>1962.7</ele>
        <time>2021-02-03T10:44:07Z</time>
      </trkpt>
      <trkpt lat="45.38859" lon="6.1428">
        <ele>1962.6</ele>
        <time>2021-02-03T10:44:08Z</time>
      </trkpt>
      <trkpt lat="45.38861" lon="6.14277">
        <ele>1962.4</ele>
        <time>2021-02-03T10:44:09Z</time>
      </trkpt>
      <trkpt lat="45.38862" lon="6.14276">
        <ele>1962.4</ele>
        <time>2021-02-03T10:44:10Z</time>
      </trkpt>
      <trkpt lat="45.38864" lon="6.14273">
        <ele>1962.2</ele>
        <time>2021-02-03T10:44:11Z</time>
      </trkpt>
      <trkpt lat="45.38865" lon="6.14269">
        <ele>1961.9</ele>
        <time>2021-02-03T10:44:12Z</time>
      </trkpt>
      <trkpt lat="45.38865" lon="6.14267">
        <ele>1961.9</ele>
        <time>2021-02-03T10:44:13Z</time>
      </trkpt>
      <trkpt lat="45.38867" lon="6.14264">
        <ele>1961.7</ele>
        <time>2021-02-03T10:44:14Z</time>
      </trkpt>
      <trkpt lat="45.38869" lon="6.14261">
        <ele>1961.5</ele>
        <time>2021-02-03T10:44:15Z</time>
      </trkpt>
      <trkpt lat="45.38871" lon="6.14256">
        <ele>1961.2</ele>
        <time>2021-02-03T10:44:16Z</time>
      </trkpt>
      <trkpt lat="45.38871" lon="6.14254">
        <ele>1961.1</ele>
        <time>2021-02-03T10:44:17Z</time>
      </trkpt>
      <trkpt lat="45.38874" lon="6.14252">
        <ele>1960.9</ele>
        <time>2021-02-03T10:44:18Z</time>
      </trkpt>
      <trkpt lat="45.38876" lon="6.14249">
        <ele>1960.7</ele>
        <time>2021-02-03T10:44:19Z</time>
      </trkpt>
      <trkpt lat="45.38877" lon="6.14247">
        <ele>1960.6</ele>
        <time>2021-02-03T10:44:20Z</time>
      </trkpt>
      <trkpt lat="45.38879" lon="6.14244">
        <ele>1960.4</ele>
        <time>2021-02-03T10:44:21Z</time>
      </trkpt>
      <trkpt lat="45.38879" lon="6.14243">
        <ele>1960.4</ele>
        <time>2021-02-03T10:44:22Z</time>
      </trkpt>
      <trkpt lat="45.38882" lon="6.1424">
        <ele>1960.2</ele>
        <time>2021-02-03T10:44:23Z</time>
      </trkpt>
      <trkpt lat="45.38883" lon="6.14241">
        <ele>1960.1</ele>
        <time>2021-02-03T10:44:24Z</time>
      </trkpt>
      <trkpt lat="45.38884" lon="6.14237">
        <ele>1959.9</ele>
        <time>2021-02-03T10:44:25Z</time>
      </trkpt>
      <trkpt lat="45.38885" lon="6.14236">
        <ele>1959.8</ele>
        <time>2021-02-03T10:44:26Z</time>
      </trkpt>
      <trkpt lat="45.38886" lon="6.14234">
        <ele>1959.7</ele>
        <time>2021-02-03T10:44:27Z</time>
      </trkpt>
      <trkpt lat="45.38886" lon="6.14231">
        <ele>1959.6</ele>
        <time>2021-02-03T10:44:28Z</time>
      </trkpt>
      <trkpt lat="45.38888" lon="6.1423">
        <ele>1959.4</ele>
        <time>2021-02-03T10:44:29Z</time>
      </trkpt>
      <trkpt lat="45.38889" lon="6.14228">
        <ele>1959.3</ele>
        <time>2021-02-03T10:44:30Z</time>
      </trkpt>
      <trkpt lat="45.38889" lon="6.14226">
        <ele>1959.2</ele>
        <time>2021-02-03T10:44:31Z</time>
      </trkpt>
      <trkpt lat="45.38891" lon="6.14224">
        <ele>1959.1</ele>
        <time>2021-02-03T10:44:32Z</time>
      </trkpt>
      <trkpt lat="45.38892" lon="6.14222">
        <ele>1959</ele>
        <time>2021-02-03T10:44:33Z</time>
      </trkpt>
      <trkpt lat="45.38893" lon="6.14221">
        <ele>1958.8</ele>
        <time>2021-02-03T10:44:34Z</time>
      </trkpt>
      <trkpt lat="45.38895" lon="6.14218">
        <ele>1958.6</ele>
        <time>2021-02-03T10:44:35Z</time>
      </trkpt>
      <trkpt lat="45.38896" lon="6.14217">
        <ele>1958.5</ele>
        <time>2021-02-03T10:44:36Z</time>
      </trkpt>
      <trkpt lat="45.38899" lon="6.14215">
        <ele>1958.2</ele>
        <time>2021-02-03T10:44:37Z</time>
      </trkpt>
      <trkpt lat="45.389" lon="6.14214">
        <ele>1958.2</ele>
        <time>2021-02-03T10:44:38Z</time>
      </trkpt>
      <trkpt lat="45.38901" lon="6.14213">
        <ele>1958</ele>
        <time>2021-02-03T10:44:39Z</time>
      </trkpt>
      <trkpt lat="45.38902" lon="6.14214">
        <ele>1957.9</ele>
        <time>2021-02-03T10:44:40Z</time>
      </trkpt>
      <trkpt lat="45.38903" lon="6.14214">
        <ele>1957.9</ele>
        <time>2021-02-03T10:44:41Z</time>
      </trkpt>
      <trkpt lat="45.38904" lon="6.14214">
        <ele>1957.7</ele>
        <time>2021-02-03T10:44:42Z</time>
      </trkpt>
      <trkpt lat="45.38904" lon="6.14214">
        <ele>1957.7</ele>
        <time>2021-02-03T10:44:43Z</time>
      </trkpt>
      <trkpt lat="45.38904" lon="6.14214">
        <ele>1957.7</ele>
        <time>2021-02-03T10:44:44Z</time>
      </trkpt>
      <trkpt lat="45.38904" lon="6.14214">
        <ele>1957.7</ele>
        <time>2021-02-03T10:44:45Z</time>
      </trkpt>
      <trkpt lat="45.38904" lon="6.14214">
        <ele>1957.7</ele>
        <time>2021-02-03T10:44:46Z</time>
      </trkpt>
      <trkpt lat="45.38904" lon="6.14214">
        <ele>1957.7</ele>
        <time>2021-02-03T10:44:47Z</time>
      </trkpt>
      <trkpt lat="45.38905" lon="6.14218">
        <ele>1957.5</ele>
        <time>2021-02-03T10:44:48Z</time>
      </trkpt>
      <trkpt lat="45.38907" lon="6.14216">
        <ele>1957.3</ele>
        <time>2021-02-03T10:44:49Z</time>
      </trkpt>
      <trkpt lat="45.38908" lon="6.14215">
        <ele>1957.2</ele>
        <time>2021-02-03T10:44:50Z</time>
      </trkpt>
      <trkpt lat="45.38909" lon="6.14214">
        <ele>1957</ele>
        <time>2021-02-03T10:45:06Z</time>
      </trkpt>
      <trkpt lat="45.3891" lon="6.14212">
        <ele>1956.9</ele>
        <time>2021-02-03T10:45:07Z</time>
      </trkpt>
      <trkpt lat="45.38911" lon="6.14211">
        <ele>1956.7</ele>
        <time>2021-02-03T10:45:08Z</time>
      </trkpt>
      <trkpt lat="45.38913" lon="6.1421">
        <ele>1956.6</ele>
        <time>2021-02-03T10:45:09Z</time>
      </trkpt>
      <trkpt lat="45.38914" lon="6.14208">
        <ele>1956.5</ele>
        <time>2021-02-03T10:45:10Z</time>
      </trkpt>
      <trkpt lat="45.38915" lon="6.14207">
        <ele>1956.3</ele>
        <time>2021-02-03T10:45:11Z</time>
      </trkpt>
      <trkpt lat="45.38916" lon="6.14206">
        <ele>1956.2</ele>
        <time>2021-02-03T10:45:12Z</time>
      </trkpt>
      <trkpt lat="45.38917" lon="6.14204">
        <ele>1956</ele>
        <time>2021-02-03T10:45:13Z</time>
      </trkpt>
      <trkpt lat="45.38918" lon="6.14203">
        <ele>1955.9</ele>
        <time>2021-02-03T10:45:14Z</time>
      </trkpt>
      <trkpt lat="45.3892" lon="6.14202">
        <ele>1955.7</ele>
        <time>2021-02-03T10:45:15Z</time>
      </trkpt>
      <trkpt lat="45.38921" lon="6.14201">
        <ele>1955.6</ele>
        <time>2021-02-03T10:45:16Z</time>
      </trkpt>
      <trkpt lat="45.38922" lon="6.142">
        <ele>1955.5</ele>
        <time>2021-02-03T10:45:17Z</time>
      </trkpt>
      <trkpt lat="45.38923" lon="6.14198">
        <ele>1955.3</ele>
        <time>2021-02-03T10:45:18Z</time>
      </trkpt>
      <trkpt lat="45.38925" lon="6.14197">
        <ele>1955.1</ele>
        <time>2021-02-03T10:45:19Z</time>
      </trkpt>
      <trkpt lat="45.38926" lon="6.14195">
        <ele>1954.9</ele>
        <time>2021-02-03T10:45:20Z</time>
      </trkpt>
      <trkpt lat="45.38929" lon="6.14193">
        <ele>1954.6</ele>
        <time>2021-02-03T10:45:21Z</time>
      </trkpt>
      <trkpt lat="45.3893" lon="6.14192">
        <ele>1954.5</ele>
        <time>2021-02-03T10:45:22Z</time>
      </trkpt>
      <trkpt lat="45.38932" lon="6.14189">
        <ele>1954.2</ele>
        <time>2021-02-03T10:45:23Z</time>
      </trkpt>
      <trkpt lat="45.38933" lon="6.14188">
        <ele>1954.1</ele>
        <time>2021-02-03T10:45:24Z</time>
      </trkpt>
      <trkpt lat="45.38936" lon="6.14185">
        <ele>1953.8</ele>
        <time>2021-02-03T10:45:25Z</time>
      </trkpt>
      <trkpt lat="45.38936" lon="6.14184">
        <ele>1953.6</ele>
        <time>2021-02-03T10:45:26Z</time>
      </trkpt>
      <trkpt lat="45.38939" lon="6.14181">
        <ele>1953.4</ele>
        <time>2021-02-03T10:45:27Z</time>
      </trkpt>
      <trkpt lat="45.38939" lon="6.1418">
        <ele>1953.2</ele>
        <time>2021-02-03T10:45:28Z</time>
      </trkpt>
      <trkpt lat="45.38943" lon="6.14176">
        <ele>1952.8</ele>
        <time>2021-02-03T10:45:29Z</time>
      </trkpt>
      <trkpt lat="45.38944" lon="6.14175">
        <ele>1952.7</ele>
        <time>2021-02-03T10:45:30Z</time>
      </trkpt>
      <trkpt lat="45.38947" lon="6.14173">
        <ele>1952.4</ele>
        <time>2021-02-03T10:45:31Z</time>
      </trkpt>
      <trkpt lat="45.38949" lon="6.1417">
        <ele>1952.1</ele>
        <time>2021-02-03T10:45:32Z</time>
      </trkpt>
      <trkpt lat="45.38951" lon="6.14167">
        <ele>1951.8</ele>
        <time>2021-02-03T10:45:33Z</time>
      </trkpt>
      <trkpt lat="45.38954" lon="6.14164">
        <ele>1951.5</ele>
        <time>2021-02-03T10:45:34Z</time>
      </trkpt>
      <trkpt lat="45.38957" lon="6.14162">
        <ele>1951.1</ele>
        <time>2021-02-03T10:45:35Z</time>
      </trkpt>
      <trkpt lat="45.3896" lon="6.14159">
        <ele>1950.7</ele>
        <time>2021-02-03T10:45:36Z</time>
      </trkpt>
      <trkpt lat="45.38962" lon="6.14157">
        <ele>1950.4</ele>
        <time>2021-02-03T10:45:37Z</time>
      </trkpt>
      <trkpt lat="45.38965" lon="6.14156">
        <ele>1950.1</ele>
        <time>2021-02-03T10:45:38Z</time>
      </trkpt>
      <trkpt lat="45.38968" lon="6.14154">
        <ele>1949.7</ele>
        <time>2021-02-03T10:45:39Z</time>
      </trkpt>
      <trkpt lat="45.38972" lon="6.14153">
        <ele>1949.3</ele>
        <time>2021-02-03T10:45:40Z</time>
      </trkpt>
      <trkpt lat="45.38975" lon="6.14151">
        <ele>1948.9</ele>
        <time>2021-02-03T10:45:41Z</time>
      </trkpt>
      <trkpt lat="45.38979" lon="6.1415">
        <ele>1948.4</ele>
        <time>2021-02-03T10:45:42Z</time>
      </trkpt>
      <trkpt lat="45.38983" lon="6.14149">
        <ele>1948</ele>
        <time>2021-02-03T10:45:43Z</time>
      </trkpt>
      <trkpt lat="45.38987" lon="6.14149">
        <ele>1947.4</ele>
        <time>2021-02-03T10:45:44Z</time>
      </trkpt>
      <trkpt lat="45.38992" lon="6.1415">
        <ele>1946.9</ele>
        <time>2021-02-03T10:45:45Z</time>
      </trkpt>
      <trkpt lat="45.38996" lon="6.14152">
        <ele>1946.4</ele>
        <time>2021-02-03T10:45:46Z</time>
      </trkpt>
      <trkpt lat="45.38999" lon="6.14154">
        <ele>1945.9</ele>
        <time>2021-02-03T10:45:47Z</time>
      </trkpt>
      <trkpt lat="45.39003" lon="6.14156">
        <ele>1945.5</ele>
        <time>2021-02-03T10:45:48Z</time>
      </trkpt>
      <trkpt lat="45.39007" lon="6.14157">
        <ele>1945.1</ele>
        <time>2021-02-03T10:45:49Z</time>
      </trkpt>
      <trkpt lat="45.3901" lon="6.14157">
        <ele>1944.7</ele>
        <time>2021-02-03T10:45:50Z</time>
      </trkpt>
      <trkpt lat="45.39014" lon="6.14155">
        <ele>1944.3</ele>
        <time>2021-02-03T10:45:51Z</time>
      </trkpt>
      <trkpt lat="45.39017" lon="6.14153">
        <ele>1943.9</ele>
        <time>2021-02-03T10:45:52Z</time>
      </trkpt>
      <trkpt lat="45.39021" lon="6.14151">
        <ele>1943.5</ele>
        <time>2021-02-03T10:45:53Z</time>
      </trkpt>
      <trkpt lat="45.39024" lon="6.1415">
        <ele>1943.1</ele>
        <time>2021-02-03T10:45:54Z</time>
      </trkpt>
      <trkpt lat="45.39028" lon="6.14149">
        <ele>1942.7</ele>
        <time>2021-02-03T10:45:55Z</time>
      </trkpt>
      <trkpt lat="45.39031" lon="6.14149">
        <ele>1942.3</ele>
        <time>2021-02-03T10:45:56Z</time>
      </trkpt>
      <trkpt lat="45.39034" lon="6.14148">
        <ele>1941.9</ele>
        <time>2021-02-03T10:45:57Z</time>
      </trkpt>
      <trkpt lat="45.39037" lon="6.14148">
        <ele>1941.6</ele>
        <time>2021-02-03T10:45:58Z</time>
      </trkpt>
      <trkpt lat="45.39039" lon="6.14149">
        <ele>1941.3</ele>
        <time>2021-02-03T10:45:59Z</time>
      </trkpt>
      <trkpt lat="45.3904" lon="6.1415">
        <ele>1941.2</ele>
        <time>2021-02-03T10:46:00Z</time>
      </trkpt>
      <trkpt lat="45.3904" lon="6.14152">
        <ele>1941</ele>
        <time>2021-02-03T10:46:01Z</time>
      </trkpt>
      <trkpt lat="45.39041" lon="6.14152">
        <ele>1941</ele>
        <time>2021-02-03T10:46:02Z</time>
      </trkpt>
      <trkpt lat="45.39041" lon="6.14152">
        <ele>1941</ele>
        <time>2021-02-03T10:46:03Z</time>
      </trkpt>
      <trkpt lat="45.39041" lon="6.14153">
        <ele>1940.9</ele>
        <time>2021-02-03T10:46:04Z</time>
      </trkpt>
      <trkpt lat="45.39041" lon="6.14153">
        <ele>1940.9</ele>
        <time>2021-02-03T10:46:05Z</time>
      </trkpt>
      <trkpt lat="45.39042" lon="6.14153">
        <ele>1940.8</ele>
        <time>2021-02-03T10:46:06Z</time>
      </trkpt>
      <trkpt lat="45.39042" lon="6.14154">
        <ele>1940.8</ele>
        <time>2021-02-03T10:46:07Z</time>
      </trkpt>
      <trkpt lat="45.39042" lon="6.14154">
        <ele>1940.8</ele>
        <time>2021-02-03T10:46:08Z</time>
      </trkpt>
      <trkpt lat="45.39042" lon="6.14155">
        <ele>1940.7</ele>
        <time>2021-02-03T10:46:09Z</time>
      </trkpt>
      <trkpt lat="45.39042" lon="6.14155">
        <ele>1940.7</ele>
        <time>2021-02-03T10:46:10Z</time>
      </trkpt>
      <trkpt lat="45.39043" lon="6.14155">
        <ele>1940.6</ele>
        <time>2021-02-03T10:46:17Z</time>
      </trkpt>
      <trkpt lat="45.39043" lon="6.14156">
        <ele>1940.6</ele>
        <time>2021-02-03T10:46:18Z</time>
      </trkpt>
      <trkpt lat="45.39045" lon="6.14154">
        <ele>1940.3</ele>
        <time>2021-02-03T10:46:19Z</time>
      </trkpt>
      <trkpt lat="45.39049" lon="6.14152">
        <ele>1939.8</ele>
        <time>2021-02-03T10:46:20Z</time>
      </trkpt>
      <trkpt lat="45.3905" lon="6.14151">
        <ele>1939.6</ele>
        <time>2021-02-03T10:46:21Z</time>
      </trkpt>
      <trkpt lat="45.39053" lon="6.14151">
        <ele>1939.3</ele>
        <time>2021-02-03T10:46:22Z</time>
      </trkpt>
      <trkpt lat="45.39057" lon="6.14152">
        <ele>1938.9</ele>
        <time>2021-02-03T10:46:23Z</time>
      </trkpt>
      <trkpt lat="45.39058" lon="6.14153">
        <ele>1938.7</ele>
        <time>2021-02-03T10:46:24Z</time>
      </trkpt>
      <trkpt lat="45.39061" lon="6.14155">
        <ele>1938.3</ele>
        <time>2021-02-03T10:46:25Z</time>
      </trkpt>
      <trkpt lat="45.39063" lon="6.14156">
        <ele>1938.1</ele>
        <time>2021-02-03T10:46:26Z</time>
      </trkpt>
      <trkpt lat="45.39065" lon="6.14157">
        <ele>1937.7</ele>
        <time>2021-02-03T10:46:27Z</time>
      </trkpt>
      <trkpt lat="45.39068" lon="6.14156">
        <ele>1937.4</ele>
        <time>2021-02-03T10:46:28Z</time>
      </trkpt>
      <trkpt lat="45.39071" lon="6.14155">
        <ele>1937</ele>
        <time>2021-02-03T10:46:29Z</time>
      </trkpt>
      <trkpt lat="45.39074" lon="6.14152">
        <ele>1936.6</ele>
        <time>2021-02-03T10:46:30Z</time>
      </trkpt>
      <trkpt lat="45.39075" lon="6.14152">
        <ele>1936.4</ele>
        <time>2021-02-03T10:46:31Z</time>
      </trkpt>
      <trkpt lat="45.39078" lon="6.14153">
        <ele>1936</ele>
        <time>2021-02-03T10:46:32Z</time>
      </trkpt>
      <trkpt lat="45.39081" lon="6.14155">
        <ele>1935.6</ele>
        <time>2021-02-03T10:46:33Z</time>
      </trkpt>
      <trkpt lat="45.39085" lon="6.14156">
        <ele>1935.1</ele>
        <time>2021-02-03T10:46:34Z</time>
      </trkpt>
      <trkpt lat="45.39088" lon="6.14155">
        <ele>1934.7</ele>
        <time>2021-02-03T10:46:35Z</time>
      </trkpt>
      <trkpt lat="45.39091" lon="6.14153">
        <ele>1934.2</ele>
        <time>2021-02-03T10:46:36Z</time>
      </trkpt>
      <trkpt lat="45.39093" lon="6.14146">
        <ele>1933.6</ele>
        <time>2021-02-03T10:46:37Z</time>
      </trkpt>
      <trkpt lat="45.39098" lon="6.14145">
        <ele>1932.9</ele>
        <time>2021-02-03T10:46:38Z</time>
      </trkpt>
      <trkpt lat="45.39102" lon="6.14145">
        <ele>1932.3</ele>
        <time>2021-02-03T10:46:39Z</time>
      </trkpt>
      <trkpt lat="45.39106" lon="6.14146">
        <ele>1931.7</ele>
        <time>2021-02-03T10:46:40Z</time>
      </trkpt>
      <trkpt lat="45.3911" lon="6.14146">
        <ele>1931.1</ele>
        <time>2021-02-03T10:46:41Z</time>
      </trkpt>
      <trkpt lat="45.39114" lon="6.14145">
        <ele>1930.5</ele>
        <time>2021-02-03T10:46:42Z</time>
      </trkpt>
      <trkpt lat="45.39119" lon="6.14142">
        <ele>1929.9</ele>
        <time>2021-02-03T10:46:43Z</time>
      </trkpt>
      <trkpt lat="45.39123" lon="6.14141">
        <ele>1929.2</ele>
        <time>2021-02-03T10:46:44Z</time>
      </trkpt>
      <trkpt lat="45.39127" lon="6.14137">
        <ele>1928.4</ele>
        <time>2021-02-03T10:46:45Z</time>
      </trkpt>
      <trkpt lat="45.39132" lon="6.14135">
        <ele>1927.7</ele>
        <time>2021-02-03T10:46:46Z</time>
      </trkpt>
      <trkpt lat="45.39135" lon="6.14134">
        <ele>1927.2</ele>
        <time>2021-02-03T10:46:47Z</time>
      </trkpt>
      <trkpt lat="45.39138" lon="6.14131">
        <ele>1926.6</ele>
        <time>2021-02-03T10:46:48Z</time>
      </trkpt>
      <trkpt lat="45.39142" lon="6.14128">
        <ele>1925.9</ele>
        <time>2021-02-03T10:46:49Z</time>
      </trkpt>
      <trkpt lat="45.39147" lon="6.1413">
        <ele>1925</ele>
        <time>2021-02-03T10:46:50Z</time>
      </trkpt>
      <trkpt lat="45.39151" lon="6.14129">
        <ele>1924.3</ele>
        <time>2021-02-03T10:46:51Z</time>
      </trkpt>
      <trkpt lat="45.39154" lon="6.14126">
        <ele>1923.6</ele>
        <time>2021-02-03T10:46:52Z</time>
      </trkpt>
      <trkpt lat="45.39158" lon="6.14128">
        <ele>1923</ele>
        <time>2021-02-03T10:46:53Z</time>
      </trkpt>
      <trkpt lat="45.3916" lon="6.14128">
        <ele>1922.7</ele>
        <time>2021-02-03T10:46:54Z</time>
      </trkpt>
      <trkpt lat="45.39164" lon="6.14125">
        <ele>1922</ele>
        <time>2021-02-03T10:46:55Z</time>
      </trkpt>
      <trkpt lat="45.39168" lon="6.14123">
        <ele>1921.3</ele>
        <time>2021-02-03T10:46:56Z</time>
      </trkpt>
      <trkpt lat="45.39173" lon="6.14125">
        <ele>1920.5</ele>
        <time>2021-02-03T10:46:57Z</time>
      </trkpt>
      <trkpt lat="45.39176" lon="6.1412">
        <ele>1919.7</ele>
        <time>2021-02-03T10:46:58Z</time>
      </trkpt>
      <trkpt lat="45.3918" lon="6.14115">
        <ele>1918.9</ele>
        <time>2021-02-03T10:46:59Z</time>
      </trkpt>
      <trkpt lat="45.39184" lon="6.14111">
        <ele>1918.1</ele>
        <time>2021-02-03T10:47:00Z</time>
      </trkpt>
      <trkpt lat="45.39189" lon="6.14115">
        <ele>1917.1</ele>
        <time>2021-02-03T10:47:01Z</time>
      </trkpt>
      <trkpt lat="45.39194" lon="6.14112">
        <ele>1916.1</ele>
        <time>2021-02-03T10:47:02Z</time>
      </trkpt>
      <trkpt lat="45.39198" lon="6.1411">
        <ele>1915.3</ele>
        <time>2021-02-03T10:47:03Z</time>
      </trkpt>
      <trkpt lat="45.39201" lon="6.14111">
        <ele>1914.6</ele>
        <time>2021-02-03T10:47:04Z</time>
      </trkpt>
      <trkpt lat="45.39202" lon="6.14112">
        <ele>1914.3</ele>
        <time>2021-02-03T10:47:05Z</time>
      </trkpt>
      <trkpt lat="45.39205" lon="6.14113">
        <ele>1913.7</ele>
        <time>2021-02-03T10:47:06Z</time>
      </trkpt>
      <trkpt lat="45.39207" lon="6.1411">
        <ele>1913.2</ele>
        <time>2021-02-03T10:47:07Z</time>
      </trkpt>
      <trkpt lat="45.3921" lon="6.14106">
        <ele>1912.3</ele>
        <time>2021-02-03T10:47:08Z</time>
      </trkpt>
      <trkpt lat="45.39214" lon="6.14105">
        <ele>1911.4</ele>
        <time>2021-02-03T10:47:09Z</time>
      </trkpt>
      <trkpt lat="45.39219" lon="6.14107">
        <ele>1910.4</ele>
        <time>2021-02-03T10:47:10Z</time>
      </trkpt>
      <trkpt lat="45.39223" lon="6.14106">
        <ele>1909.5</ele>
        <time>2021-02-03T10:47:11Z</time>
      </trkpt>
      <trkpt lat="45.39228" lon="6.14103">
        <ele>1908</ele>
        <time>2021-02-03T10:47:12Z</time>
      </trkpt>
      <trkpt lat="45.39234" lon="6.14099">
        <ele>1906.5</ele>
        <time>2021-02-03T10:47:13Z</time>
      </trkpt>
      <trkpt lat="45.39236" lon="6.14103">
        <ele>1905.7</ele>
        <time>2021-02-03T10:47:14Z</time>
      </trkpt>
      <trkpt lat="45.39237" lon="6.14104">
        <ele>1905.3</ele>
        <time>2021-02-03T10:47:15Z</time>
      </trkpt>
      <trkpt lat="45.3924" lon="6.14103">
        <ele>1904.5</ele>
        <time>2021-02-03T10:47:16Z</time>
      </trkpt>
      <trkpt lat="45.39243" lon="6.141">
        <ele>1903.7</ele>
        <time>2021-02-03T10:47:17Z</time>
      </trkpt>
      <trkpt lat="45.39246" lon="6.14095">
        <ele>1902.6</ele>
        <time>2021-02-03T10:47:18Z</time>
      </trkpt>
      <trkpt lat="45.39253" lon="6.14094">
        <ele>1900.9</ele>
        <time>2021-02-03T10:47:19Z</time>
      </trkpt>
      <trkpt lat="45.39255" lon="6.14094">
        <ele>1900.1</ele>
        <time>2021-02-03T10:47:20Z</time>
      </trkpt>
      <trkpt lat="45.39259" lon="6.14092">
        <ele>1899.1</ele>
        <time>2021-02-03T10:47:21Z</time>
      </trkpt>
      <trkpt lat="45.39264" lon="6.14087">
        <ele>1897.6</ele>
        <time>2021-02-03T10:47:22Z</time>
      </trkpt>
      <trkpt lat="45.39268" lon="6.14086">
        <ele>1896.5</ele>
        <time>2021-02-03T10:47:23Z</time>
      </trkpt>
      <trkpt lat="45.3927" lon="6.14087">
        <ele>1895.9</ele>
        <time>2021-02-03T10:47:24Z</time>
      </trkpt>
      <trkpt lat="45.39273" lon="6.14091">
        <ele>1894.7</ele>
        <time>2021-02-03T10:47:25Z</time>
      </trkpt>
      <trkpt lat="45.39277" lon="6.14091">
        <ele>1893.8</ele>
        <time>2021-02-03T10:47:26Z</time>
      </trkpt>
      <trkpt lat="45.39278" lon="6.14087">
        <ele>1892.9</ele>
        <time>2021-02-03T10:47:27Z</time>
      </trkpt>
      <trkpt lat="45.39279" lon="6.14081">
        <ele>1891.9</ele>
        <time>2021-02-03T10:47:28Z</time>
      </trkpt>
      <trkpt lat="45.39283" lon="6.14085">
        <ele>1890.7</ele>
        <time>2021-02-03T10:47:29Z</time>
      </trkpt>
      <trkpt lat="45.39288" lon="6.14084">
        <ele>1889.2</ele>
        <time>2021-02-03T10:47:30Z</time>
      </trkpt>
      <trkpt lat="45.39291" lon="6.14082">
        <ele>1888.5</ele>
        <time>2021-02-03T10:47:31Z</time>
      </trkpt>
      <trkpt lat="45.39295" lon="6.14081">
        <ele>1887.5</ele>
        <time>2021-02-03T10:47:32Z</time>
      </trkpt>
      <trkpt lat="45.39298" lon="6.14078">
        <ele>1886.5</ele>
        <time>2021-02-03T10:47:33Z</time>
      </trkpt>
      <trkpt lat="45.39301" lon="6.14073">
        <ele>1885.2</ele>
        <time>2021-02-03T10:47:34Z</time>
      </trkpt>
      <trkpt lat="45.39306" lon="6.14074">
        <ele>1883.9</ele>
        <time>2021-02-03T10:47:35Z</time>
      </trkpt>
      <trkpt lat="45.3931" lon="6.14073">
        <ele>1882.8</ele>
        <time>2021-02-03T10:47:36Z</time>
      </trkpt>
      <trkpt lat="45.39316" lon="6.14072">
        <ele>1881.2</ele>
        <time>2021-02-03T10:47:37Z</time>
      </trkpt>
      <trkpt lat="45.3932" lon="6.14067">
        <ele>1879.7</ele>
        <time>2021-02-03T10:47:38Z</time>
      </trkpt>
      <trkpt lat="45.39323" lon="6.14061">
        <ele>1878.4</ele>
        <time>2021-02-03T10:47:39Z</time>
      </trkpt>
      <trkpt lat="45.39329" lon="6.14058">
        <ele>1876.8</ele>
        <time>2021-02-03T10:47:40Z</time>
      </trkpt>
      <trkpt lat="45.39336" lon="6.14054">
        <ele>1875.2</ele>
        <time>2021-02-03T10:47:41Z</time>
      </trkpt>
      <trkpt lat="45.39343" lon="6.14049">
        <ele>1873.6</ele>
        <time>2021-02-03T10:47:42Z</time>
      </trkpt>
      <trkpt lat="45.3935" lon="6.1404">
        <ele>1871.9</ele>
        <time>2021-02-03T10:47:43Z</time>
      </trkpt>
      <trkpt lat="45.39355" lon="6.14033">
        <ele>1870.6</ele>
        <time>2021-02-03T10:47:44Z</time>
      </trkpt>
      <trkpt lat="45.39362" lon="6.14027">
        <ele>1869.5</ele>
        <time>2021-02-03T10:47:45Z</time>
      </trkpt>
      <trkpt lat="45.39369" lon="6.14022">
        <ele>1868.4</ele>
        <time>2021-02-03T10:47:46Z</time>
      </trkpt>
      <trkpt lat="45.39375" lon="6.14016">
        <ele>1867.4</ele>
        <time>2021-02-03T10:47:47Z</time>
      </trkpt>
      <trkpt lat="45.39382" lon="6.14011">
        <ele>1866.5</ele>
        <time>2021-02-03T10:47:48Z</time>
      </trkpt>
      <trkpt lat="45.39388" lon="6.14005">
        <ele>1865.6</ele>
        <time>2021-02-03T10:47:49Z</time>
      </trkpt>
      <trkpt lat="45.39393" lon="6.14">
        <ele>1864.8</ele>
        <time>2021-02-03T10:47:50Z</time>
      </trkpt>
      <trkpt lat="45.39398" lon="6.13995">
        <ele>1864.2</ele>
        <time>2021-02-03T10:47:51Z</time>
      </trkpt>
      <trkpt lat="45.39402" lon="6.13991">
        <ele>1863.6</ele>
        <time>2021-02-03T10:47:52Z</time>
      </trkpt>
      <trkpt lat="45.39408" lon="6.13985">
        <ele>1862.9</ele>
        <time>2021-02-03T10:47:53Z</time>
      </trkpt>
      <trkpt lat="45.39412" lon="6.13982">
        <ele>1862.4</ele>
        <time>2021-02-03T10:47:54Z</time>
      </trkpt>
      <trkpt lat="45.39413" lon="6.13976">
        <ele>1862.2</ele>
        <time>2021-02-03T10:47:55Z</time>
      </trkpt>
      <trkpt lat="45.39417" lon="6.13971">
        <ele>1861.8</ele>
        <time>2021-02-03T10:47:56Z</time>
      </trkpt>
      <trkpt lat="45.39421" lon="6.13965">
        <ele>1861.5</ele>
        <time>2021-02-03T10:47:57Z</time>
      </trkpt>
      <trkpt lat="45.39423" lon="6.1396">
        <ele>1861.3</ele>
        <time>2021-02-03T10:47:58Z</time>
      </trkpt>
      <trkpt lat="45.39426" lon="6.13956">
        <ele>1861</ele>
        <time>2021-02-03T10:47:59Z</time>
      </trkpt>
      <trkpt lat="45.3943" lon="6.13951">
        <ele>1860.7</ele>
        <time>2021-02-03T10:48:00Z</time>
      </trkpt>
      <trkpt lat="45.39433" lon="6.13948">
        <ele>1860.5</ele>
        <time>2021-02-03T10:48:01Z</time>
      </trkpt>
      <trkpt lat="45.39434" lon="6.13943">
        <ele>1860.2</ele>
        <time>2021-02-03T10:48:02Z</time>
      </trkpt>
      <trkpt lat="45.39436" lon="6.13941">
        <ele>1860</ele>
        <time>2021-02-03T10:48:03Z</time>
      </trkpt>
      <trkpt lat="45.39436" lon="6.13939">
        <ele>1859.9</ele>
        <time>2021-02-03T10:48:04Z</time>
      </trkpt>
      <trkpt lat="45.39436" lon="6.13937">
        <ele>1859.8</ele>
        <time>2021-02-03T10:48:05Z</time>
      </trkpt>
      <trkpt lat="45.39436" lon="6.13937">
        <ele>1859.8</ele>
        <time>2021-02-03T10:48:06Z</time>
      </trkpt>
      <trkpt lat="45.39435" lon="6.13936">
        <ele>1859.7</ele>
        <time>2021-02-03T10:48:07Z</time>
      </trkpt>
      <trkpt lat="45.39435" lon="6.13936">
        <ele>1859.7</ele>
        <time>2021-02-03T10:48:08Z</time>
      </trkpt>
      <trkpt lat="45.39435" lon="6.13935">
        <ele>1859.7</ele>
        <time>2021-02-03T10:48:09Z</time>
      </trkpt>
      <trkpt lat="45.39434" lon="6.13935">
        <ele>1859.6</ele>
        <time>2021-02-03T10:48:10Z</time>
      </trkpt>
      <trkpt lat="45.39434" lon="6.13934">
        <ele>1859.6</ele>
        <time>2021-02-03T10:48:11Z</time>
      </trkpt>
      <trkpt lat="45.39433" lon="6.13934">
        <ele>1859.5</ele>
        <time>2021-02-03T10:48:12Z</time>
      </trkpt>
      <trkpt lat="45.39433" lon="6.13933">
        <ele>1859.5</ele>
        <time>2021-02-03T10:48:13Z</time>
      </trkpt>
      <trkpt lat="45.39433" lon="6.13933">
        <ele>1859.4</ele>
        <time>2021-02-03T10:48:14Z</time>
      </trkpt>
      <trkpt lat="45.39432" lon="6.13932">
        <ele>1859.4</ele>
        <time>2021-02-03T10:48:15Z</time>
      </trkpt>
      <trkpt lat="45.39432" lon="6.13932">
        <ele>1859.3</ele>
        <time>2021-02-03T10:48:16Z</time>
      </trkpt>
      <trkpt lat="45.39432" lon="6.13932">
        <ele>1859.3</ele>
        <time>2021-02-03T10:48:27Z</time>
      </trkpt>
      <trkpt lat="45.39431" lon="6.13931">
        <ele>1859.2</ele>
        <time>2021-02-03T10:48:28Z</time>
      </trkpt>
      <trkpt lat="45.39431" lon="6.13931">
        <ele>1859.2</ele>
        <time>2021-02-03T10:48:29Z</time>
      </trkpt>
      <trkpt lat="45.3943" lon="6.1393">
        <ele>1859</ele>
        <time>2021-02-03T10:48:30Z</time>
      </trkpt>
      <trkpt lat="45.3943" lon="6.13929">
        <ele>1858.9</ele>
        <time>2021-02-03T10:48:31Z</time>
      </trkpt>
      <trkpt lat="45.39429" lon="6.13928">
        <ele>1858.8</ele>
        <time>2021-02-03T10:48:32Z</time>
      </trkpt>
      <trkpt lat="45.39428" lon="6.13928">
        <ele>1858.7</ele>
        <time>2021-02-03T10:48:33Z</time>
      </trkpt>
      <trkpt lat="45.39428" lon="6.13927">
        <ele>1858.6</ele>
        <time>2021-02-03T10:48:34Z</time>
      </trkpt>
      <trkpt lat="45.39426" lon="6.13927">
        <ele>1858.5</ele>
        <time>2021-02-03T10:48:35Z</time>
      </trkpt>
      <trkpt lat="45.39425" lon="6.13926">
        <ele>1858.3</ele>
        <time>2021-02-03T10:48:36Z</time>
      </trkpt>
      <trkpt lat="45.39424" lon="6.13927">
        <ele>1858.1</ele>
        <time>2021-02-03T10:48:37Z</time>
      </trkpt>
      <trkpt lat="45.39424" lon="6.13929">
        <ele>1857.9</ele>
        <time>2021-02-03T10:48:38Z</time>
      </trkpt>
      <trkpt lat="45.39424" lon="6.13931">
        <ele>1857.7</ele>
        <time>2021-02-03T10:48:39Z</time>
      </trkpt>
      <trkpt lat="45.39423" lon="6.13936">
        <ele>1857.1</ele>
        <time>2021-02-03T10:48:40Z</time>
      </trkpt>
      <trkpt lat="45.39422" lon="6.13937">
        <ele>1856.9</ele>
        <time>2021-02-03T10:48:41Z</time>
      </trkpt>
      <trkpt lat="45.3942" lon="6.13941">
        <ele>1856.2</ele>
        <time>2021-02-03T10:48:42Z</time>
      </trkpt>
      <trkpt lat="45.39419" lon="6.13942">
        <ele>1856</ele>
        <time>2021-02-03T10:48:43Z</time>
      </trkpt>
      <trkpt lat="45.39416" lon="6.13942">
        <ele>1855.4</ele>
        <time>2021-02-03T10:48:44Z</time>
      </trkpt>
      <trkpt lat="45.39412" lon="6.13942">
        <ele>1854.5</ele>
        <time>2021-02-03T10:48:45Z</time>
      </trkpt>
      <trkpt lat="45.39408" lon="6.13941">
        <ele>1853.8</ele>
        <time>2021-02-03T10:48:46Z</time>
      </trkpt>
      <trkpt lat="45.39404" lon="6.1394">
        <ele>1853.1</ele>
        <time>2021-02-03T10:48:47Z</time>
      </trkpt>
      <trkpt lat="45.394" lon="6.1394">
        <ele>1852.4</ele>
        <time>2021-02-03T10:48:48Z</time>
      </trkpt>
      <trkpt lat="45.39397" lon="6.1394">
        <ele>1851.7</ele>
        <time>2021-02-03T10:48:49Z</time>
      </trkpt>
      <trkpt lat="45.39393" lon="6.1394">
        <ele>1850.8</ele>
        <time>2021-02-03T10:48:50Z</time>
      </trkpt>
      <trkpt lat="45.39389" lon="6.13941">
        <ele>1849.9</ele>
        <time>2021-02-03T10:48:51Z</time>
      </trkpt>
      <trkpt lat="45.39384" lon="6.13942">
        <ele>1849</ele>
        <time>2021-02-03T10:48:52Z</time>
      </trkpt>
      <trkpt lat="45.3938" lon="6.13944">
        <ele>1848</ele>
        <time>2021-02-03T10:48:53Z</time>
      </trkpt>
      <trkpt lat="45.39377" lon="6.13945">
        <ele>1847.2</ele>
        <time>2021-02-03T10:48:54Z</time>
      </trkpt>
      <trkpt lat="45.39373" lon="6.13946">
        <ele>1846.3</ele>
        <time>2021-02-03T10:48:55Z</time>
      </trkpt>
      <trkpt lat="45.39369" lon="6.13951">
        <ele>1845</ele>
        <time>2021-02-03T10:48:56Z</time>
      </trkpt>
      <trkpt lat="45.39364" lon="6.13954">
        <ele>1843.7</ele>
        <time>2021-02-03T10:48:57Z</time>
      </trkpt>
      <trkpt lat="45.3936" lon="6.1396">
        <ele>1842.3</ele>
        <time>2021-02-03T10:48:58Z</time>
      </trkpt>
      <trkpt lat="45.39356" lon="6.13959">
        <ele>1841.2</ele>
        <time>2021-02-03T10:48:59Z</time>
      </trkpt>
      <trkpt lat="45.39353" lon="6.13953">
        <ele>1840.1</ele>
        <time>2021-02-03T10:49:00Z</time>
      </trkpt>
      <trkpt lat="45.39348" lon="6.13951">
        <ele>1839</ele>
        <time>2021-02-03T10:49:01Z</time>
      </trkpt>
      <trkpt lat="45.39344" lon="6.13953">
        <ele>1837.9</ele>
        <time>2021-02-03T10:49:02Z</time>
      </trkpt>
      <trkpt lat="45.39338" lon="6.13955">
        <ele>1836.5</ele>
        <time>2021-02-03T10:49:03Z</time>
      </trkpt>
      <trkpt lat="45.39335" lon="6.13958">
        <ele>1835.5</ele>
        <time>2021-02-03T10:49:04Z</time>
      </trkpt>
      <trkpt lat="45.39332" lon="6.13954">
        <ele>1834.5</ele>
        <time>2021-02-03T10:49:05Z</time>
      </trkpt>
      <trkpt lat="45.3933" lon="6.1395">
        <ele>1833.7</ele>
        <time>2021-02-03T10:49:06Z</time>
      </trkpt>
      <trkpt lat="45.39332" lon="6.13952">
        <ele>1832.9</ele>
        <time>2021-02-03T10:49:07Z</time>
      </trkpt>
      <trkpt lat="45.39332" lon="6.13951">
        <ele>1832.7</ele>
        <time>2021-02-03T10:49:08Z</time>
      </trkpt>
      <trkpt lat="45.39332" lon="6.1395">
        <ele>1832.6</ele>
        <time>2021-02-03T10:49:09Z</time>
      </trkpt>
      <trkpt lat="45.39332" lon="6.13949">
        <ele>1832.5</ele>
        <time>2021-02-03T10:49:10Z</time>
      </trkpt>
      <trkpt lat="45.39332" lon="6.13948">
        <ele>1832.3</ele>
        <time>2021-02-03T10:49:11Z</time>
      </trkpt>
      <trkpt lat="45.39331" lon="6.13948">
        <ele>1832.2</ele>
        <time>2021-02-03T10:49:12Z</time>
      </trkpt>
      <trkpt lat="45.39331" lon="6.13947">
        <ele>1832</ele>
        <time>2021-02-03T10:49:13Z</time>
      </trkpt>
      <trkpt lat="45.39331" lon="6.13946">
        <ele>1831.9</ele>
        <time>2021-02-03T10:49:14Z</time>
      </trkpt>
      <trkpt lat="45.39331" lon="6.13945">
        <ele>1831.8</ele>
        <time>2021-02-03T10:49:15Z</time>
      </trkpt>
      <trkpt lat="45.39331" lon="6.13945">
        <ele>1831.6</ele>
        <time>2021-02-03T10:49:16Z</time>
      </trkpt>
      <trkpt lat="45.3933" lon="6.13944">
        <ele>1831.5</ele>
        <time>2021-02-03T10:49:17Z</time>
      </trkpt>
      <trkpt lat="45.3933" lon="6.13943">
        <ele>1831.4</ele>
        <time>2021-02-03T10:49:48Z</time>
      </trkpt>
      <trkpt lat="45.3933" lon="6.13942">
        <ele>1831.2</ele>
        <time>2021-02-03T10:49:49Z</time>
      </trkpt>
      <trkpt lat="45.39328" lon="6.13938">
        <ele>1830.4</ele>
        <time>2021-02-03T10:49:50Z</time>
      </trkpt>
      <trkpt lat="45.39324" lon="6.13937">
        <ele>1829.5</ele>
        <time>2021-02-03T10:49:51Z</time>
      </trkpt>
      <trkpt lat="45.39319" lon="6.13937">
        <ele>1828.4</ele>
        <time>2021-02-03T10:49:52Z</time>
      </trkpt>
      <trkpt lat="45.39317" lon="6.13932">
        <ele>1827.5</ele>
        <time>2021-02-03T10:49:53Z</time>
      </trkpt>
      <trkpt lat="45.39317" lon="6.13926">
        <ele>1826.5</ele>
        <time>2021-02-03T10:49:54Z</time>
      </trkpt>
      <trkpt lat="45.39323" lon="6.13918">
        <ele>1824.4</ele>
        <time>2021-02-03T10:49:55Z</time>
      </trkpt>
      <trkpt lat="45.39323" lon="6.13913">
        <ele>1823.6</ele>
        <time>2021-02-03T10:49:56Z</time>
      </trkpt>
      <trkpt lat="45.39323" lon="6.13908">
        <ele>1822.7</ele>
        <time>2021-02-03T10:49:57Z</time>
      </trkpt>
      <trkpt lat="45.39329" lon="6.13901">
        <ele>1821</ele>
        <time>2021-02-03T10:49:58Z</time>
      </trkpt>
      <trkpt lat="45.39334" lon="6.13896">
        <ele>1819.5</ele>
        <time>2021-02-03T10:49:59Z</time>
      </trkpt>
      <trkpt lat="45.39328" lon="6.13889">
        <ele>1817.8</ele>
        <time>2021-02-03T10:50:00Z</time>
      </trkpt>
      <trkpt lat="45.39329" lon="6.13882">
        <ele>1816.7</ele>
        <time>2021-02-03T10:50:01Z</time>
      </trkpt>
      <trkpt lat="45.39329" lon="6.13876">
        <ele>1815.8</ele>
        <time>2021-02-03T10:50:02Z</time>
      </trkpt>
      <trkpt lat="45.39333" lon="6.13869">
        <ele>1814.2</ele>
        <time>2021-02-03T10:50:03Z</time>
      </trkpt>
      <trkpt lat="45.3933" lon="6.13862">
        <ele>1812.8</ele>
        <time>2021-02-03T10:50:04Z</time>
      </trkpt>
      <trkpt lat="45.39327" lon="6.13855">
        <ele>1811.4</ele>
        <time>2021-02-03T10:50:05Z</time>
      </trkpt>
      <trkpt lat="45.39329" lon="6.13849">
        <ele>1810.1</ele>
        <time>2021-02-03T10:50:06Z</time>
      </trkpt>
      <trkpt lat="45.39332" lon="6.13843">
        <ele>1808.7</ele>
        <time>2021-02-03T10:50:07Z</time>
      </trkpt>
      <trkpt lat="45.39332" lon="6.13836">
        <ele>1807.3</ele>
        <time>2021-02-03T10:50:08Z</time>
      </trkpt>
      <trkpt lat="45.39333" lon="6.13831">
        <ele>1806.3</ele>
        <time>2021-02-03T10:50:09Z</time>
      </trkpt>
      <trkpt lat="45.39336" lon="6.13826">
        <ele>1804.9</ele>
        <time>2021-02-03T10:50:10Z</time>
      </trkpt>
      <trkpt lat="45.39338" lon="6.13819">
        <ele>1803.4</ele>
        <time>2021-02-03T10:50:11Z</time>
      </trkpt>
      <trkpt lat="45.39336" lon="6.13813">
        <ele>1802.3</ele>
        <time>2021-02-03T10:50:12Z</time>
      </trkpt>
      <trkpt lat="45.39334" lon="6.13808">
        <ele>1801.3</ele>
        <time>2021-02-03T10:50:13Z</time>
      </trkpt>
      <trkpt lat="45.39335" lon="6.13802">
        <ele>1800.3</ele>
        <time>2021-02-03T10:50:14Z</time>
      </trkpt>
      <trkpt lat="45.39337" lon="6.13796">
        <ele>1799</ele>
        <time>2021-02-03T10:50:15Z</time>
      </trkpt>
      <trkpt lat="45.39332" lon="6.1379">
        <ele>1797.5</ele>
        <time>2021-02-03T10:50:16Z</time>
      </trkpt>
      <trkpt lat="45.39328" lon="6.13785">
        <ele>1796.3</ele>
        <time>2021-02-03T10:50:17Z</time>
      </trkpt>
      <trkpt lat="45.39325" lon="6.13778">
        <ele>1795.2</ele>
        <time>2021-02-03T10:50:18Z</time>
      </trkpt>
      <trkpt lat="45.39323" lon="6.13771">
        <ele>1794</ele>
        <time>2021-02-03T10:50:19Z</time>
      </trkpt>
      <trkpt lat="45.39325" lon="6.13763">
        <ele>1792.8</ele>
        <time>2021-02-03T10:50:20Z</time>
      </trkpt>
      <trkpt lat="45.39319" lon="6.13756">
        <ele>1791.1</ele>
        <time>2021-02-03T10:50:21Z</time>
      </trkpt>
      <trkpt lat="45.39315" lon="6.13751">
        <ele>1789.7</ele>
        <time>2021-02-03T10:50:22Z</time>
      </trkpt>
      <trkpt lat="45.3931" lon="6.13747">
        <ele>1788.2</ele>
        <time>2021-02-03T10:50:23Z</time>
      </trkpt>
      <trkpt lat="45.39306" lon="6.13745">
        <ele>1787</ele>
        <time>2021-02-03T10:50:24Z</time>
      </trkpt>
      <trkpt lat="45.39303" lon="6.13739">
        <ele>1785.8</ele>
        <time>2021-02-03T10:50:25Z</time>
      </trkpt>
      <trkpt lat="45.393" lon="6.13735">
        <ele>1784.7</ele>
        <time>2021-02-03T10:50:26Z</time>
      </trkpt>
      <trkpt lat="45.39296" lon="6.13732">
        <ele>1783.6</ele>
        <time>2021-02-03T10:50:27Z</time>
      </trkpt>
      <trkpt lat="45.3929" lon="6.13733">
        <ele>1782.5</ele>
        <time>2021-02-03T10:50:28Z</time>
      </trkpt>
      <trkpt lat="45.39286" lon="6.13734">
        <ele>1781.7</ele>
        <time>2021-02-03T10:50:29Z</time>
      </trkpt>
      <trkpt lat="45.3928" lon="6.13735">
        <ele>1780.6</ele>
        <time>2021-02-03T10:50:30Z</time>
      </trkpt>
      <trkpt lat="45.39276" lon="6.13737">
        <ele>1779.7</ele>
        <time>2021-02-03T10:50:31Z</time>
      </trkpt>
      <trkpt lat="45.39271" lon="6.13736">
        <ele>1778.7</ele>
        <time>2021-02-03T10:50:32Z</time>
      </trkpt>
      <trkpt lat="45.3927" lon="6.13732">
        <ele>1778.2</ele>
        <time>2021-02-03T10:50:33Z</time>
      </trkpt>
      <trkpt lat="45.39267" lon="6.13727">
        <ele>1777.4</ele>
        <time>2021-02-03T10:50:34Z</time>
      </trkpt>
      <trkpt lat="45.39264" lon="6.13725">
        <ele>1776.7</ele>
        <time>2021-02-03T10:50:35Z</time>
      </trkpt>
      <trkpt lat="45.39259" lon="6.13722">
        <ele>1775.8</ele>
        <time>2021-02-03T10:50:36Z</time>
      </trkpt>
      <trkpt lat="45.39255" lon="6.13719">
        <ele>1774.9</ele>
        <time>2021-02-03T10:50:37Z</time>
      </trkpt>
      <trkpt lat="45.39252" lon="6.13714">
        <ele>1774.1</ele>
        <time>2021-02-03T10:50:38Z</time>
      </trkpt>
      <trkpt lat="45.39249" lon="6.13708">
        <ele>1773.2</ele>
        <time>2021-02-03T10:50:39Z</time>
      </trkpt>
      <trkpt lat="45.39244" lon="6.13704">
        <ele>1772</ele>
        <time>2021-02-03T10:50:40Z</time>
      </trkpt>
      <trkpt lat="45.39238" lon="6.13703">
        <ele>1770.8</ele>
        <time>2021-02-03T10:50:41Z</time>
      </trkpt>
      <trkpt lat="45.39232" lon="6.13702">
        <ele>1769.6</ele>
        <time>2021-02-03T10:50:42Z</time>
      </trkpt>
      <trkpt lat="45.39228" lon="6.13698">
        <ele>1768.5</ele>
        <time>2021-02-03T10:50:43Z</time>
      </trkpt>
      <trkpt lat="45.39228" lon="6.13692">
        <ele>1767.4</ele>
        <time>2021-02-03T10:50:44Z</time>
      </trkpt>
      <trkpt lat="45.39225" lon="6.13688">
        <ele>1766.6</ele>
        <time>2021-02-03T10:50:45Z</time>
      </trkpt>
      <trkpt lat="45.39221" lon="6.13684">
        <ele>1765.6</ele>
        <time>2021-02-03T10:50:46Z</time>
      </trkpt>
      <trkpt lat="45.39219" lon="6.13679">
        <ele>1764.7</ele>
        <time>2021-02-03T10:50:47Z</time>
      </trkpt>
      <trkpt lat="45.39217" lon="6.13674">
        <ele>1763.7</ele>
        <time>2021-02-03T10:50:48Z</time>
      </trkpt>
      <trkpt lat="45.39215" lon="6.1367">
        <ele>1763</ele>
        <time>2021-02-03T10:50:49Z</time>
      </trkpt>
      <trkpt lat="45.39212" lon="6.13665">
        <ele>1762.1</ele>
        <time>2021-02-03T10:50:50Z</time>
      </trkpt>
      <trkpt lat="45.3921" lon="6.13662">
        <ele>1761.4</ele>
        <time>2021-02-03T10:50:51Z</time>
      </trkpt>
      <trkpt lat="45.39208" lon="6.13657">
        <ele>1760.5</ele>
        <time>2021-02-03T10:50:52Z</time>
      </trkpt>
      <trkpt lat="45.39206" lon="6.13653">
        <ele>1759.3</ele>
        <time>2021-02-03T10:50:53Z</time>
      </trkpt>
      <trkpt lat="45.39204" lon="6.13651">
        <ele>1758.8</ele>
        <time>2021-02-03T10:50:54Z</time>
      </trkpt>
      <trkpt lat="45.39202" lon="6.13647">
        <ele>1758</ele>
        <time>2021-02-03T10:50:55Z</time>
      </trkpt>
      <trkpt lat="45.392" lon="6.13642">
        <ele>1756.7</ele>
        <time>2021-02-03T10:50:56Z</time>
      </trkpt>
      <trkpt lat="45.39199" lon="6.13639">
        <ele>1756.1</ele>
        <time>2021-02-03T10:50:57Z</time>
      </trkpt>
      <trkpt lat="45.39195" lon="6.13636">
        <ele>1754.9</ele>
        <time>2021-02-03T10:50:58Z</time>
      </trkpt>
      <trkpt lat="45.39193" lon="6.13633">
        <ele>1754.1</ele>
        <time>2021-02-03T10:50:59Z</time>
      </trkpt>
      <trkpt lat="45.3919" lon="6.13629">
        <ele>1753.2</ele>
        <time>2021-02-03T10:51:00Z</time>
      </trkpt>
      <trkpt lat="45.39188" lon="6.13624">
        <ele>1752.1</ele>
        <time>2021-02-03T10:51:01Z</time>
      </trkpt>
      <trkpt lat="45.39185" lon="6.13617">
        <ele>1750.8</ele>
        <time>2021-02-03T10:51:02Z</time>
      </trkpt>
      <trkpt lat="45.39179" lon="6.13615">
        <ele>1749.2</ele>
        <time>2021-02-03T10:51:03Z</time>
      </trkpt>
      <trkpt lat="45.39173" lon="6.13614">
        <ele>1747.5</ele>
        <time>2021-02-03T10:51:04Z</time>
      </trkpt>
      <trkpt lat="45.39167" lon="6.13614">
        <ele>1745.9</ele>
        <time>2021-02-03T10:51:05Z</time>
      </trkpt>
      <trkpt lat="45.39162" lon="6.13609">
        <ele>1744.3</ele>
        <time>2021-02-03T10:51:06Z</time>
      </trkpt>
      <trkpt lat="45.39164" lon="6.13599">
        <ele>1742.3</ele>
        <time>2021-02-03T10:51:07Z</time>
      </trkpt>
      <trkpt lat="45.39159" lon="6.13593">
        <ele>1740.5</ele>
        <time>2021-02-03T10:51:08Z</time>
      </trkpt>
      <trkpt lat="45.39153" lon="6.1359">
        <ele>1738.8</ele>
        <time>2021-02-03T10:51:09Z</time>
      </trkpt>
      <trkpt lat="45.39149" lon="6.13587">
        <ele>1737.6</ele>
        <time>2021-02-03T10:51:10Z</time>
      </trkpt>
      <trkpt lat="45.39145" lon="6.13581">
        <ele>1736.2</ele>
        <time>2021-02-03T10:51:11Z</time>
      </trkpt>
      <trkpt lat="45.39147" lon="6.13572">
        <ele>1734.7</ele>
        <time>2021-02-03T10:51:12Z</time>
      </trkpt>
      <trkpt lat="45.39143" lon="6.13567">
        <ele>1733.6</ele>
        <time>2021-02-03T10:51:13Z</time>
      </trkpt>
      <trkpt lat="45.39139" lon="6.13565">
        <ele>1732.8</ele>
        <time>2021-02-03T10:51:14Z</time>
      </trkpt>
      <trkpt lat="45.39137" lon="6.13564">
        <ele>1732.3</ele>
        <time>2021-02-03T10:51:15Z</time>
      </trkpt>
      <trkpt lat="45.39136" lon="6.13563">
        <ele>1732</ele>
        <time>2021-02-03T10:51:16Z</time>
      </trkpt>
      <trkpt lat="45.39136" lon="6.13562">
        <ele>1731.8</ele>
        <time>2021-02-03T10:51:17Z</time>
      </trkpt>
      <trkpt lat="45.39135" lon="6.13561">
        <ele>1731.6</ele>
        <time>2021-02-03T10:51:18Z</time>
      </trkpt>
      <trkpt lat="45.39135" lon="6.1356">
        <ele>1731.4</ele>
        <time>2021-02-03T10:51:19Z</time>
      </trkpt>
      <trkpt lat="45.39134" lon="6.13558">
        <ele>1731.1</ele>
        <time>2021-02-03T10:51:20Z</time>
      </trkpt>
      <trkpt lat="45.39134" lon="6.13557">
        <ele>1730.9</ele>
        <time>2021-02-03T10:51:21Z</time>
      </trkpt>
      <trkpt lat="45.39133" lon="6.13556">
        <ele>1730.7</ele>
        <time>2021-02-03T10:51:22Z</time>
      </trkpt>
      <trkpt lat="45.39133" lon="6.13555">
        <ele>1730.5</ele>
        <time>2021-02-03T10:51:23Z</time>
      </trkpt>
      <trkpt lat="45.39132" lon="6.13554">
        <ele>1730.2</ele>
        <time>2021-02-03T10:51:24Z</time>
      </trkpt>
      <trkpt lat="45.39131" lon="6.13553">
        <ele>1730</ele>
        <time>2021-02-03T10:51:25Z</time>
      </trkpt>
      <trkpt lat="45.39131" lon="6.13551">
        <ele>1729.8</ele>
        <time>2021-02-03T10:51:26Z</time>
      </trkpt>
      <trkpt lat="45.3913" lon="6.1355">
        <ele>1729.6</ele>
        <time>2021-02-03T10:54:08Z</time>
      </trkpt>
      <trkpt lat="45.3913" lon="6.13549">
        <ele>1729.4</ele>
        <time>2021-02-03T10:54:09Z</time>
      </trkpt>
      <trkpt lat="45.39127" lon="6.13545">
        <ele>1728.5</ele>
        <time>2021-02-03T10:54:10Z</time>
      </trkpt>
      <trkpt lat="45.39126" lon="6.1354">
        <ele>1727.6</ele>
        <time>2021-02-03T10:54:11Z</time>
      </trkpt>
      <trkpt lat="45.39132" lon="6.13533">
        <ele>1726.2</ele>
        <time>2021-02-03T10:54:12Z</time>
      </trkpt>
      <trkpt lat="45.39132" lon="6.13527">
        <ele>1725.3</ele>
        <time>2021-02-03T10:54:13Z</time>
      </trkpt>
      <trkpt lat="45.39129" lon="6.13521">
        <ele>1724.2</ele>
        <time>2021-02-03T10:54:14Z</time>
      </trkpt>
      <trkpt lat="45.39127" lon="6.13516">
        <ele>1723.3</ele>
        <time>2021-02-03T10:54:15Z</time>
      </trkpt>
      <trkpt lat="45.39125" lon="6.13511">
        <ele>1722.4</ele>
        <time>2021-02-03T10:54:16Z</time>
      </trkpt>
      <trkpt lat="45.39124" lon="6.13505">
        <ele>1721.4</ele>
        <time>2021-02-03T10:54:17Z</time>
      </trkpt>
      <trkpt lat="45.39123" lon="6.13498">
        <ele>1720.1</ele>
        <time>2021-02-03T10:54:18Z</time>
      </trkpt>
      <trkpt lat="45.3912" lon="6.13492">
        <ele>1718.9</ele>
        <time>2021-02-03T10:54:19Z</time>
      </trkpt>
      <trkpt lat="45.39116" lon="6.13487">
        <ele>1717.8</ele>
        <time>2021-02-03T10:54:20Z</time>
      </trkpt>
      <trkpt lat="45.39113" lon="6.13482">
        <ele>1717</ele>
        <time>2021-02-03T10:54:21Z</time>
      </trkpt>
      <trkpt lat="45.39112" lon="6.13475">
        <ele>1716</ele>
        <time>2021-02-03T10:54:22Z</time>
      </trkpt>
      <trkpt lat="45.39108" lon="6.13468">
        <ele>1715.1</ele>
        <time>2021-02-03T10:54:23Z</time>
      </trkpt>
      <trkpt lat="45.39105" lon="6.13463">
        <ele>1714.3</ele>
        <time>2021-02-03T10:54:24Z</time>
      </trkpt>
      <trkpt lat="45.39102" lon="6.13458">
        <ele>1713.5</ele>
        <time>2021-02-03T10:54:25Z</time>
      </trkpt>
      <trkpt lat="45.39105" lon="6.13451">
        <ele>1712.7</ele>
        <time>2021-02-03T10:54:26Z</time>
      </trkpt>
      <trkpt lat="45.39106" lon="6.13444">
        <ele>1711.9</ele>
        <time>2021-02-03T10:54:27Z</time>
      </trkpt>
      <trkpt lat="45.39104" lon="6.13437">
        <ele>1711</ele>
        <time>2021-02-03T10:54:28Z</time>
      </trkpt>
      <trkpt lat="45.39101" lon="6.13431">
        <ele>1710.2</ele>
        <time>2021-02-03T10:54:29Z</time>
      </trkpt>
      <trkpt lat="45.39097" lon="6.13427">
        <ele>1707.8</ele>
        <time>2021-02-03T10:54:30Z</time>
      </trkpt>
      <trkpt lat="45.39098" lon="6.13419">
        <ele>1706.7</ele>
        <time>2021-02-03T10:54:31Z</time>
      </trkpt>
      <trkpt lat="45.39099" lon="6.13412">
        <ele>1705.7</ele>
        <time>2021-02-03T10:54:32Z</time>
      </trkpt>
      <trkpt lat="45.39099" lon="6.13405">
        <ele>1704.7</ele>
        <time>2021-02-03T10:54:33Z</time>
      </trkpt>
      <trkpt lat="45.391" lon="6.13398">
        <ele>1703.7</ele>
        <time>2021-02-03T10:54:34Z</time>
      </trkpt>
      <trkpt lat="45.39104" lon="6.1339">
        <ele>1702.4</ele>
        <time>2021-02-03T10:54:35Z</time>
      </trkpt>
      <trkpt lat="45.39104" lon="6.13383">
        <ele>1701.5</ele>
        <time>2021-02-03T10:54:36Z</time>
      </trkpt>
      <trkpt lat="45.39105" lon="6.13375">
        <ele>1700.5</ele>
        <time>2021-02-03T10:54:37Z</time>
      </trkpt>
      <trkpt lat="45.39107" lon="6.13369">
        <ele>1699.7</ele>
        <time>2021-02-03T10:54:38Z</time>
      </trkpt>
      <trkpt lat="45.3911" lon="6.1336">
        <ele>1698.6</ele>
        <time>2021-02-03T10:54:39Z</time>
      </trkpt>
      <trkpt lat="45.39113" lon="6.13353">
        <ele>1697.6</ele>
        <time>2021-02-03T10:54:40Z</time>
      </trkpt>
      <trkpt lat="45.39115" lon="6.13345">
        <ele>1696.7</ele>
        <time>2021-02-03T10:54:41Z</time>
      </trkpt>
      <trkpt lat="45.39114" lon="6.13336">
        <ele>1695.6</ele>
        <time>2021-02-03T10:54:42Z</time>
      </trkpt>
      <trkpt lat="45.39115" lon="6.13328">
        <ele>1694.7</ele>
        <time>2021-02-03T10:54:43Z</time>
      </trkpt>
      <trkpt lat="45.3912" lon="6.13322">
        <ele>1693.5</ele>
        <time>2021-02-03T10:54:44Z</time>
      </trkpt>
      <trkpt lat="45.3912" lon="6.13314">
        <ele>1692.6</ele>
        <time>2021-02-03T10:54:45Z</time>
      </trkpt>
      <trkpt lat="45.3912" lon="6.13306">
        <ele>1692.1</ele>
        <time>2021-02-03T10:54:46Z</time>
      </trkpt>
      <trkpt lat="45.39122" lon="6.13298">
        <ele>1691.2</ele>
        <time>2021-02-03T10:54:47Z</time>
      </trkpt>
      <trkpt lat="45.39124" lon="6.13291">
        <ele>1690.4</ele>
        <time>2021-02-03T10:54:48Z</time>
      </trkpt>
      <trkpt lat="45.39129" lon="6.13285">
        <ele>1689.3</ele>
        <time>2021-02-03T10:54:49Z</time>
      </trkpt>
      <trkpt lat="45.39128" lon="6.13277">
        <ele>1688.5</ele>
        <time>2021-02-03T10:54:50Z</time>
      </trkpt>
      <trkpt lat="45.39128" lon="6.13271">
        <ele>1687.8</ele>
        <time>2021-02-03T10:54:51Z</time>
      </trkpt>
      <trkpt lat="45.3913" lon="6.13264">
        <ele>1687</ele>
        <time>2021-02-03T10:54:52Z</time>
      </trkpt>
      <trkpt lat="45.39133" lon="6.13258">
        <ele>1686.1</ele>
        <time>2021-02-03T10:54:53Z</time>
      </trkpt>
      <trkpt lat="45.39136" lon="6.13252">
        <ele>1685.3</ele>
        <time>2021-02-03T10:54:54Z</time>
      </trkpt>
      <trkpt lat="45.39135" lon="6.13244">
        <ele>1684.4</ele>
        <time>2021-02-03T10:54:55Z</time>
      </trkpt>
      <trkpt lat="45.39136" lon="6.13234">
        <ele>1683.3</ele>
        <time>2021-02-03T10:54:56Z</time>
      </trkpt>
      <trkpt lat="45.39136" lon="6.13226">
        <ele>1682.5</ele>
        <time>2021-02-03T10:54:57Z</time>
      </trkpt>
      <trkpt lat="45.39142" lon="6.1322">
        <ele>1681.5</ele>
        <time>2021-02-03T10:54:58Z</time>
      </trkpt>
      <trkpt lat="45.39144" lon="6.13213">
        <ele>1680.8</ele>
        <time>2021-02-03T10:54:59Z</time>
      </trkpt>
      <trkpt lat="45.39147" lon="6.13207">
        <ele>1680.2</ele>
        <time>2021-02-03T10:55:00Z</time>
      </trkpt>
      <trkpt lat="45.39149" lon="6.13202">
        <ele>1679.6</ele>
        <time>2021-02-03T10:55:01Z</time>
      </trkpt>
      <trkpt lat="45.39152" lon="6.13196">
        <ele>1679</ele>
        <time>2021-02-03T10:55:02Z</time>
      </trkpt>
      <trkpt lat="45.39154" lon="6.13191">
        <ele>1678.4</ele>
        <time>2021-02-03T10:55:03Z</time>
      </trkpt>
      <trkpt lat="45.39157" lon="6.13185">
        <ele>1677.7</ele>
        <time>2021-02-03T10:55:04Z</time>
      </trkpt>
      <trkpt lat="45.39159" lon="6.13179">
        <ele>1677.1</ele>
        <time>2021-02-03T10:55:05Z</time>
      </trkpt>
      <trkpt lat="45.39159" lon="6.13172">
        <ele>1676.4</ele>
        <time>2021-02-03T10:55:06Z</time>
      </trkpt>
      <trkpt lat="45.39161" lon="6.13165">
        <ele>1675.7</ele>
        <time>2021-02-03T10:55:07Z</time>
      </trkpt>
      <trkpt lat="45.39161" lon="6.13158">
        <ele>1675.1</ele>
        <time>2021-02-03T10:55:08Z</time>
      </trkpt>
      <trkpt lat="45.39167" lon="6.13151">
        <ele>1674.3</ele>
        <time>2021-02-03T10:55:09Z</time>
      </trkpt>
      <trkpt lat="45.39169" lon="6.13143">
        <ele>1673.6</ele>
        <time>2021-02-03T10:55:10Z</time>
      </trkpt>
      <trkpt lat="45.39172" lon="6.13135">
        <ele>1672.9</ele>
        <time>2021-02-03T10:55:11Z</time>
      </trkpt>
      <trkpt lat="45.39174" lon="6.13128">
        <ele>1672.3</ele>
        <time>2021-02-03T10:55:12Z</time>
      </trkpt>
      <trkpt lat="45.39175" lon="6.13121">
        <ele>1671.7</ele>
        <time>2021-02-03T10:55:13Z</time>
      </trkpt>
      <trkpt lat="45.39178" lon="6.13114">
        <ele>1671.1</ele>
        <time>2021-02-03T10:55:14Z</time>
      </trkpt>
      <trkpt lat="45.39181" lon="6.13107">
        <ele>1670.4</ele>
        <time>2021-02-03T10:55:15Z</time>
      </trkpt>
      <trkpt lat="45.39184" lon="6.131">
        <ele>1669.7</ele>
        <time>2021-02-03T10:55:16Z</time>
      </trkpt>
      <trkpt lat="45.39187" lon="6.13094">
        <ele>1669</ele>
        <time>2021-02-03T10:55:17Z</time>
      </trkpt>
      <trkpt lat="45.39189" lon="6.13088">
        <ele>1668.4</ele>
        <time>2021-02-03T10:55:18Z</time>
      </trkpt>
      <trkpt lat="45.39191" lon="6.13081">
        <ele>1667.7</ele>
        <time>2021-02-03T10:55:19Z</time>
      </trkpt>
      <trkpt lat="45.39194" lon="6.13074">
        <ele>1667</ele>
        <time>2021-02-03T10:55:20Z</time>
      </trkpt>
      <trkpt lat="45.39196" lon="6.13068">
        <ele>1666.4</ele>
        <time>2021-02-03T10:55:21Z</time>
      </trkpt>
      <trkpt lat="45.39199" lon="6.13062">
        <ele>1665.7</ele>
        <time>2021-02-03T10:55:22Z</time>
      </trkpt>
      <trkpt lat="45.39202" lon="6.13056">
        <ele>1665</ele>
        <time>2021-02-03T10:55:23Z</time>
      </trkpt>
      <trkpt lat="45.39202" lon="6.13049">
        <ele>1664.4</ele>
        <time>2021-02-03T10:55:24Z</time>
      </trkpt>
      <trkpt lat="45.39204" lon="6.13042">
        <ele>1663.8</ele>
        <time>2021-02-03T10:55:25Z</time>
      </trkpt>
      <trkpt lat="45.39205" lon="6.13036">
        <ele>1663.2</ele>
        <time>2021-02-03T10:55:26Z</time>
      </trkpt>
      <trkpt lat="45.39208" lon="6.13029">
        <ele>1662.6</ele>
        <time>2021-02-03T10:55:27Z</time>
      </trkpt>
      <trkpt lat="45.39211" lon="6.13023">
        <ele>1662</ele>
        <time>2021-02-03T10:55:28Z</time>
      </trkpt>
      <trkpt lat="45.39213" lon="6.13016">
        <ele>1661.3</ele>
        <time>2021-02-03T10:55:29Z</time>
      </trkpt>
      <trkpt lat="45.39215" lon="6.13009">
        <ele>1660.7</ele>
        <time>2021-02-03T10:55:30Z</time>
      </trkpt>
      <trkpt lat="45.39218" lon="6.13002">
        <ele>1660</ele>
        <time>2021-02-03T10:55:31Z</time>
      </trkpt>
      <trkpt lat="45.39219" lon="6.12994">
        <ele>1659.2</ele>
        <time>2021-02-03T10:55:32Z</time>
      </trkpt>
      <trkpt lat="45.39222" lon="6.12987">
        <ele>1658.5</ele>
        <time>2021-02-03T10:55:33Z</time>
      </trkpt>
      <trkpt lat="45.39225" lon="6.12979">
        <ele>1657.6</ele>
        <time>2021-02-03T10:55:34Z</time>
      </trkpt>
      <trkpt lat="45.39229" lon="6.12972">
        <ele>1656.7</ele>
        <time>2021-02-03T10:55:35Z</time>
      </trkpt>
      <trkpt lat="45.39232" lon="6.12965">
        <ele>1655.9</ele>
        <time>2021-02-03T10:55:36Z</time>
      </trkpt>
      <trkpt lat="45.39232" lon="6.12958">
        <ele>1655.3</ele>
        <time>2021-02-03T10:55:37Z</time>
      </trkpt>
      <trkpt lat="45.39235" lon="6.12951">
        <ele>1654.5</ele>
        <time>2021-02-03T10:55:38Z</time>
      </trkpt>
      <trkpt lat="45.39235" lon="6.12943">
        <ele>1653.8</ele>
        <time>2021-02-03T10:55:39Z</time>
      </trkpt>
      <trkpt lat="45.39238" lon="6.12937">
        <ele>1653.1</ele>
        <time>2021-02-03T10:55:40Z</time>
      </trkpt>
      <trkpt lat="45.3924" lon="6.12931">
        <ele>1652.5</ele>
        <time>2021-02-03T10:55:41Z</time>
      </trkpt>
      <trkpt lat="45.39242" lon="6.12925">
        <ele>1651.9</ele>
        <time>2021-02-03T10:55:42Z</time>
      </trkpt>
      <trkpt lat="45.39244" lon="6.1292">
        <ele>1651.3</ele>
        <time>2021-02-03T10:55:43Z</time>
      </trkpt>
      <trkpt lat="45.39245" lon="6.12913">
        <ele>1650.6</ele>
        <time>2021-02-03T10:55:44Z</time>
      </trkpt>
      <trkpt lat="45.39248" lon="6.12907">
        <ele>1649.8</ele>
        <time>2021-02-03T10:55:45Z</time>
      </trkpt>
      <trkpt lat="45.39248" lon="6.12899">
        <ele>1649</ele>
        <time>2021-02-03T10:55:46Z</time>
      </trkpt>
      <trkpt lat="45.39251" lon="6.12893">
        <ele>1648.2</ele>
        <time>2021-02-03T10:55:47Z</time>
      </trkpt>
      <trkpt lat="45.39256" lon="6.12887">
        <ele>1647.2</ele>
        <time>2021-02-03T10:55:48Z</time>
      </trkpt>
      <trkpt lat="45.39259" lon="6.12881">
        <ele>1646.2</ele>
        <time>2021-02-03T10:55:49Z</time>
      </trkpt>
      <trkpt lat="45.3926" lon="6.12873">
        <ele>1645.4</ele>
        <time>2021-02-03T10:55:50Z</time>
      </trkpt>
      <trkpt lat="45.39259" lon="6.12866">
        <ele>1644.7</ele>
        <time>2021-02-03T10:55:51Z</time>
      </trkpt>
      <trkpt lat="45.39261" lon="6.12859">
        <ele>1644</ele>
        <time>2021-02-03T10:55:52Z</time>
      </trkpt>
      <trkpt lat="45.39263" lon="6.1285">
        <ele>1643.2</ele>
        <time>2021-02-03T10:55:53Z</time>
      </trkpt>
      <trkpt lat="45.39266" lon="6.12843">
        <ele>1643.1</ele>
        <time>2021-02-03T10:55:54Z</time>
      </trkpt>
      <trkpt lat="45.39267" lon="6.12836">
        <ele>1643</ele>
        <time>2021-02-03T10:55:55Z</time>
      </trkpt>
      <trkpt lat="45.3927" lon="6.12827">
        <ele>1642.9</ele>
        <time>2021-02-03T10:55:56Z</time>
      </trkpt>
      <trkpt lat="45.39272" lon="6.12819">
        <ele>1642.8</ele>
        <time>2021-02-03T10:55:57Z</time>
      </trkpt>
      <trkpt lat="45.39273" lon="6.12811">
        <ele>1642.7</ele>
        <time>2021-02-03T10:55:58Z</time>
      </trkpt>
      <trkpt lat="45.39277" lon="6.12805">
        <ele>1642.6</ele>
        <time>2021-02-03T10:55:59Z</time>
      </trkpt>
      <trkpt lat="45.39281" lon="6.12801">
        <ele>1642.5</ele>
        <time>2021-02-03T10:56:00Z</time>
      </trkpt>
      <trkpt lat="45.39285" lon="6.12798">
        <ele>1642.5</ele>
        <time>2021-02-03T10:56:01Z</time>
      </trkpt>
      <trkpt lat="45.39289" lon="6.12798">
        <ele>1642.4</ele>
        <time>2021-02-03T10:56:02Z</time>
      </trkpt>
      <trkpt lat="45.39292" lon="6.12798">
        <ele>1642.4</ele>
        <time>2021-02-03T10:56:03Z</time>
      </trkpt>
      <trkpt lat="45.39295" lon="6.12799">
        <ele>1642.4</ele>
        <time>2021-02-03T10:56:04Z</time>
      </trkpt>
      <trkpt lat="45.39299" lon="6.12802">
        <ele>1642.3</ele>
        <time>2021-02-03T10:56:05Z</time>
      </trkpt>
      <trkpt lat="45.393" lon="6.12803">
        <ele>1642.3</ele>
        <time>2021-02-03T10:56:06Z</time>
      </trkpt>
      <trkpt lat="45.39303" lon="6.12804">
        <ele>1642.3</ele>
        <time>2021-02-03T10:56:07Z</time>
      </trkpt>
      <trkpt lat="45.39305" lon="6.12807">
        <ele>1642.3</ele>
        <time>2021-02-03T10:56:08Z</time>
      </trkpt>
      <trkpt lat="45.39308" lon="6.1281">
        <ele>1642.2</ele>
        <time>2021-02-03T10:56:09Z</time>
      </trkpt>
      <trkpt lat="45.39311" lon="6.12811">
        <ele>1642.2</ele>
        <time>2021-02-03T10:56:10Z</time>
      </trkpt>
      <trkpt lat="45.39312" lon="6.12812">
        <ele>1642.2</ele>
        <time>2021-02-03T10:56:11Z</time>
      </trkpt>
      <trkpt lat="45.39314" lon="6.12815">
        <ele>1642.2</ele>
        <time>2021-02-03T10:56:12Z</time>
      </trkpt>
      <trkpt lat="45.39317" lon="6.12818">
        <ele>1642.1</ele>
        <time>2021-02-03T10:56:13Z</time>
      </trkpt>
      <trkpt lat="45.39318" lon="6.12819">
        <ele>1642.1</ele>
        <time>2021-02-03T10:56:14Z</time>
      </trkpt>
      <trkpt lat="45.3932" lon="6.12821">
        <ele>1642.2</ele>
        <time>2021-02-03T10:56:15Z</time>
      </trkpt>
      <trkpt lat="45.39321" lon="6.12822">
        <ele>1642.2</ele>
        <time>2021-02-03T10:56:16Z</time>
      </trkpt>
      <trkpt lat="45.39324" lon="6.12825">
        <ele>1642.2</ele>
        <time>2021-02-03T10:56:17Z</time>
      </trkpt>
      <trkpt lat="45.39325" lon="6.12826">
        <ele>1642.2</ele>
        <time>2021-02-03T10:56:18Z</time>
      </trkpt>
      <trkpt lat="45.39327" lon="6.12829">
        <ele>1642.2</ele>
        <time>2021-02-03T10:56:19Z</time>
      </trkpt>
      <trkpt lat="45.39328" lon="6.12829">
        <ele>1642.2</ele>
        <time>2021-02-03T10:56:20Z</time>
      </trkpt>
      <trkpt lat="45.39329" lon="6.12831">
        <ele>1642.3</ele>
        <time>2021-02-03T10:56:21Z</time>
      </trkpt>
      <trkpt lat="45.39329" lon="6.12831">
        <ele>1642.3</ele>
        <time>2021-02-03T10:56:22Z</time>
      </trkpt>
      <trkpt lat="45.39329" lon="6.12832">
        <ele>1642.3</ele>
        <time>2021-02-03T10:56:23Z</time>
      </trkpt>
      <trkpt lat="45.39329" lon="6.12832">
        <ele>1642.3</ele>
        <time>2021-02-03T10:56:24Z</time>
      </trkpt>
      <trkpt lat="45.39329" lon="6.12833">
        <ele>1642.3</ele>
        <time>2021-02-03T10:56:25Z</time>
      </trkpt>
      <trkpt lat="45.39329" lon="6.12833">
        <ele>1642.3</ele>
        <time>2021-02-03T10:56:26Z</time>
      </trkpt>
      <trkpt lat="45.39329" lon="6.12833">
        <ele>1642.3</ele>
        <time>2021-02-03T10:56:27Z</time>
      </trkpt>
      <trkpt lat="45.3933" lon="6.12834">
        <ele>1642.3</ele>
        <time>2021-02-03T10:56:28Z</time>
      </trkpt>
      <trkpt lat="45.3933" lon="6.12834">
        <ele>1642.3</ele>
        <time>2021-02-03T10:56:29Z</time>
      </trkpt>
      <trkpt lat="45.3933" lon="6.12835">
        <ele>1642.3</ele>
        <time>2021-02-03T10:56:30Z</time>
      </trkpt>
      <trkpt lat="45.3933" lon="6.12835">
        <ele>1642.3</ele>
        <time>2021-02-03T10:56:31Z</time>
      </trkpt>
      <trkpt lat="45.3933" lon="6.12836">
        <ele>1642.3</ele>
        <time>2021-02-03T10:56:57Z</time>
      </trkpt>
      <trkpt lat="45.3933" lon="6.12836">
        <ele>1642.3</ele>
        <time>2021-02-03T10:56:58Z</time>
      </trkpt>
      <trkpt lat="45.3933" lon="6.12836">
        <ele>1642.3</ele>
        <time>2021-02-03T10:56:59Z</time>
      </trkpt>
      <trkpt lat="45.3933" lon="6.12837">
        <ele>1642.3</ele>
        <time>2021-02-03T10:57:00Z</time>
      </trkpt>
      <trkpt lat="45.3933" lon="6.12837">
        <ele>1642.3</ele>
        <time>2021-02-03T10:57:01Z</time>
      </trkpt>
      <trkpt lat="45.3933" lon="6.12838">
        <ele>1642.3</ele>
        <time>2021-02-03T10:57:02Z</time>
      </trkpt>
      <trkpt lat="45.39331" lon="6.12838">
        <ele>1642.3</ele>
        <time>2021-02-03T10:57:03Z</time>
      </trkpt>
      <trkpt lat="45.39331" lon="6.12838">
        <ele>1642.3</ele>
        <time>2021-02-03T10:57:04Z</time>
      </trkpt>
      <trkpt lat="45.39331" lon="6.12839">
        <ele>1642.3</ele>
        <time>2021-02-03T10:57:05Z</time>
      </trkpt>
      <trkpt lat="45.39331" lon="6.12839">
        <ele>1642.3</ele>
        <time>2021-02-03T10:57:06Z</time>
      </trkpt>
      <trkpt lat="45.39331" lon="6.1284">
        <ele>1642.3</ele>
        <time>2021-02-03T11:08:04Z</time>
      </trkpt>
      <trkpt lat="45.39331" lon="6.1284">
        <ele>1642.3</ele>
        <time>2021-02-03T11:08:05Z</time>
      </trkpt>
      <trkpt lat="45.39331" lon="6.1284">
        <ele>1642.4</ele>
        <time>2021-02-03T11:08:06Z</time>
      </trkpt>
      <trkpt lat="45.39331" lon="6.12841">
        <ele>1642.4</ele>
        <time>2021-02-03T11:08:07Z</time>
      </trkpt>
      <trkpt lat="45.39331" lon="6.12841">
        <ele>1642.4</ele>
        <time>2021-02-03T11:08:08Z</time>
      </trkpt>
      <trkpt lat="45.39332" lon="6.12842">
        <ele>1642.4</ele>
        <time>2021-02-03T11:08:09Z</time>
      </trkpt>
      <trkpt lat="45.39332" lon="6.12842">
        <ele>1642.4</ele>
        <time>2021-02-03T11:08:10Z</time>
      </trkpt>
      <trkpt lat="45.39332" lon="6.12843">
        <ele>1642.4</ele>
        <time>2021-02-03T11:08:11Z</time>
      </trkpt>
      <trkpt lat="45.39332" lon="6.12844">
        <ele>1642.5</ele>
        <time>2021-02-03T11:08:12Z</time>
      </trkpt>
      <trkpt lat="45.39333" lon="6.12844">
        <ele>1642.5</ele>
        <time>2021-02-03T11:08:13Z</time>
      </trkpt>
      <trkpt lat="45.39333" lon="6.12845">
        <ele>1642.5</ele>
        <time>2021-02-03T11:08:14Z</time>
      </trkpt>
      <trkpt lat="45.39333" lon="6.12845">
        <ele>1642.6</ele>
        <time>2021-02-03T11:08:15Z</time>
      </trkpt>
      <trkpt lat="45.39333" lon="6.12846">
        <ele>1642.6</ele>
        <time>2021-02-03T11:08:16Z</time>
      </trkpt>
      <trkpt lat="45.39334" lon="6.12846">
        <ele>1642.6</ele>
        <time>2021-02-03T11:08:17Z</time>
      </trkpt>
      <trkpt lat="45.39334" lon="6.12847">
        <ele>1642.6</ele>
        <time>2021-02-03T11:08:18Z</time>
      </trkpt>
      <trkpt lat="45.39334" lon="6.12847">
        <ele>1642.7</ele>
        <time>2021-02-03T11:08:19Z</time>
      </trkpt>
      <trkpt lat="45.39334" lon="6.12848">
        <ele>1642.7</ele>
        <time>2021-02-03T11:08:20Z</time>
      </trkpt>
      <trkpt lat="45.39335" lon="6.12848">
        <ele>1642.7</ele>
        <time>2021-02-03T11:08:30Z</time>
      </trkpt>
      <trkpt lat="45.39335" lon="6.12849">
        <ele>1642.8</ele>
        <time>2021-02-03T11:08:31Z</time>
      </trkpt>
      <trkpt lat="45.39335" lon="6.12849">
        <ele>1642.8</ele>
        <time>2021-02-03T11:08:32Z</time>
      </trkpt>
      <trkpt lat="45.39336" lon="6.1285">
        <ele>1642.8</ele>
        <time>2021-02-03T11:08:33Z</time>
      </trkpt>
      <trkpt lat="45.39337" lon="6.12852">
        <ele>1642.9</ele>
        <time>2021-02-03T11:08:34Z</time>
      </trkpt>
      <trkpt lat="45.39337" lon="6.12853">
        <ele>1643</ele>
        <time>2021-02-03T11:08:35Z</time>
      </trkpt>
      <trkpt lat="45.39338" lon="6.12854">
        <ele>1643</ele>
        <time>2021-02-03T11:08:36Z</time>
      </trkpt>
      <trkpt lat="45.39338" lon="6.12854">
        <ele>1643</ele>
        <time>2021-02-03T11:08:37Z</time>
      </trkpt>
      <trkpt lat="45.39338" lon="6.12854">
        <ele>1643.1</ele>
        <time>2021-02-03T11:08:38Z</time>
      </trkpt>
      <trkpt lat="45.39339" lon="6.12855">
        <ele>1643.1</ele>
        <time>2021-02-03T11:08:39Z</time>
      </trkpt>
      <trkpt lat="45.3934" lon="6.12856">
        <ele>1643.2</ele>
        <time>2021-02-03T11:08:40Z</time>
      </trkpt>
      <trkpt lat="45.3934" lon="6.12856">
        <ele>1643.2</ele>
        <time>2021-02-03T11:08:41Z</time>
      </trkpt>
      <trkpt lat="45.3934" lon="6.12856">
        <ele>1643.2</ele>
        <time>2021-02-03T11:08:42Z</time>
      </trkpt>
      <trkpt lat="45.39341" lon="6.12856">
        <ele>1643.3</ele>
        <time>2021-02-03T11:08:43Z</time>
      </trkpt>
      <trkpt lat="45.39342" lon="6.12856">
        <ele>1643.3</ele>
        <time>2021-02-03T11:08:44Z</time>
      </trkpt>
      <trkpt lat="45.39343" lon="6.12857">
        <ele>1643.4</ele>
        <time>2021-02-03T11:08:45Z</time>
      </trkpt>
      <trkpt lat="45.39344" lon="6.12858">
        <ele>1643.5</ele>
        <time>2021-02-03T11:08:46Z</time>
      </trkpt>
      <trkpt lat="45.39344" lon="6.12859">
        <ele>1643.5</ele>
        <time>2021-02-03T11:08:47Z</time>
      </trkpt>
      <trkpt lat="45.39345" lon="6.1286">
        <ele>1643.6</ele>
        <time>2021-02-03T11:08:48Z</time>
      </trkpt>
      <trkpt lat="45.39346" lon="6.12861">
        <ele>1643.7</ele>
        <time>2021-02-03T11:08:49Z</time>
      </trkpt>
      <trkpt lat="45.39347" lon="6.12862">
        <ele>1643.8</ele>
        <time>2021-02-03T11:08:50Z</time>
      </trkpt>
      <trkpt lat="45.39347" lon="6.12864">
        <ele>1643.8</ele>
        <time>2021-02-03T11:08:51Z</time>
      </trkpt>
      <trkpt lat="45.39348" lon="6.12865">
        <ele>1643.9</ele>
        <time>2021-02-03T11:08:52Z</time>
      </trkpt>
      <trkpt lat="45.39349" lon="6.12866">
        <ele>1644</ele>
        <time>2021-02-03T11:08:53Z</time>
      </trkpt>
      <trkpt lat="45.3935" lon="6.12867">
        <ele>1644</ele>
        <time>2021-02-03T11:08:54Z</time>
      </trkpt>
      <trkpt lat="45.39351" lon="6.12868">
        <ele>1644.1</ele>
        <time>2021-02-03T11:08:55Z</time>
      </trkpt>
      <trkpt lat="45.39351" lon="6.12868">
        <ele>1644.2</ele>
        <time>2021-02-03T11:08:56Z</time>
      </trkpt>
      <trkpt lat="45.39351" lon="6.12868">
        <ele>1644.2</ele>
        <time>2021-02-03T11:08:57Z</time>
      </trkpt>
      <trkpt lat="45.39351" lon="6.12868">
        <ele>1644.2</ele>
        <time>2021-02-03T11:08:58Z</time>
      </trkpt>
      <trkpt lat="45.39352" lon="6.12868">
        <ele>1644.2</ele>
        <time>2021-02-03T11:08:59Z</time>
      </trkpt>
      <trkpt lat="45.39352" lon="6.12868">
        <ele>1644.2</ele>
        <time>2021-02-03T11:09:00Z</time>
      </trkpt>
      <trkpt lat="45.39352" lon="6.12868">
        <ele>1644.3</ele>
        <time>2021-02-03T11:09:01Z</time>
      </trkpt>
      <trkpt lat="45.39353" lon="6.12868">
        <ele>1644.3</ele>
        <time>2021-02-03T11:09:02Z</time>
      </trkpt>
      <trkpt lat="45.39353" lon="6.12868">
        <ele>1644.3</ele>
        <time>2021-02-03T11:09:03Z</time>
      </trkpt>
      <trkpt lat="45.39353" lon="6.12868">
        <ele>1644.3</ele>
        <time>2021-02-03T11:09:04Z</time>
      </trkpt>
      <trkpt lat="45.39353" lon="6.12868">
        <ele>1644.3</ele>
        <time>2021-02-03T11:09:05Z</time>
      </trkpt>
      <trkpt lat="45.39354" lon="6.12869">
        <ele>1644.4</ele>
        <time>2021-02-03T11:09:06Z</time>
      </trkpt>
      <trkpt lat="45.39355" lon="6.1287">
        <ele>1644.5</ele>
        <time>2021-02-03T11:09:07Z</time>
      </trkpt>
      <trkpt lat="45.39356" lon="6.12871">
        <ele>1644.6</ele>
        <time>2021-02-03T11:09:08Z</time>
      </trkpt>
      <trkpt lat="45.39357" lon="6.12872">
        <ele>1644.7</ele>
        <time>2021-02-03T11:09:09Z</time>
      </trkpt>
      <trkpt lat="45.39358" lon="6.12873">
        <ele>1644.8</ele>
        <time>2021-02-03T11:09:10Z</time>
      </trkpt>
      <trkpt lat="45.39359" lon="6.12873">
        <ele>1644.8</ele>
        <time>2021-02-03T11:09:11Z</time>
      </trkpt>
      <trkpt lat="45.3936" lon="6.12874">
        <ele>1644.9</ele>
        <time>2021-02-03T11:09:12Z</time>
      </trkpt>
      <trkpt lat="45.39361" lon="6.12874">
        <ele>1645</ele>
        <time>2021-02-03T11:09:13Z</time>
      </trkpt>
      <trkpt lat="45.39361" lon="6.12875">
        <ele>1645.1</ele>
        <time>2021-02-03T11:09:14Z</time>
      </trkpt>
      <trkpt lat="45.39362" lon="6.12876">
        <ele>1645.1</ele>
        <time>2021-02-03T11:09:15Z</time>
      </trkpt>
      <trkpt lat="45.39362" lon="6.12876">
        <ele>1645.2</ele>
        <time>2021-02-03T11:09:16Z</time>
      </trkpt>
      <trkpt lat="45.39363" lon="6.12877">
        <ele>1645.3</ele>
        <time>2021-02-03T11:09:17Z</time>
      </trkpt>
      <trkpt lat="45.39364" lon="6.12877">
        <ele>1645.3</ele>
        <time>2021-02-03T11:09:18Z</time>
      </trkpt>
      <trkpt lat="45.39364" lon="6.12878">
        <ele>1645.4</ele>
        <time>2021-02-03T11:09:19Z</time>
      </trkpt>
      <trkpt lat="45.39365" lon="6.12878">
        <ele>1645.5</ele>
        <time>2021-02-03T11:09:20Z</time>
      </trkpt>
      <trkpt lat="45.39366" lon="6.12879">
        <ele>1645.6</ele>
        <time>2021-02-03T11:09:21Z</time>
      </trkpt>
      <trkpt lat="45.39367" lon="6.12879">
        <ele>1645.6</ele>
        <time>2021-02-03T11:09:22Z</time>
      </trkpt>
      <trkpt lat="45.39368" lon="6.1288">
        <ele>1645.7</ele>
        <time>2021-02-03T11:09:23Z</time>
      </trkpt>
      <trkpt lat="45.39369" lon="6.1288">
        <ele>1645.8</ele>
        <time>2021-02-03T11:09:24Z</time>
      </trkpt>
      <trkpt lat="45.3937" lon="6.12881">
        <ele>1645.9</ele>
        <time>2021-02-03T11:09:25Z</time>
      </trkpt>
      <trkpt lat="45.3937" lon="6.12881">
        <ele>1646</ele>
        <time>2021-02-03T11:09:26Z</time>
      </trkpt>
      <trkpt lat="45.39371" lon="6.12881">
        <ele>1646.1</ele>
        <time>2021-02-03T11:09:27Z</time>
      </trkpt>
      <trkpt lat="45.39372" lon="6.12882">
        <ele>1646.1</ele>
        <time>2021-02-03T11:09:28Z</time>
      </trkpt>
      <trkpt lat="45.39373" lon="6.12882">
        <ele>1646.2</ele>
        <time>2021-02-03T11:09:29Z</time>
      </trkpt>
      <trkpt lat="45.39373" lon="6.12882">
        <ele>1646.3</ele>
        <time>2021-02-03T11:09:30Z</time>
      </trkpt>
      <trkpt lat="45.39374" lon="6.12882">
        <ele>1646.3</ele>
        <time>2021-02-03T11:09:31Z</time>
      </trkpt>
      <trkpt lat="45.39375" lon="6.12882">
        <ele>1646.4</ele>
        <time>2021-02-03T11:09:32Z</time>
      </trkpt>
      <trkpt lat="45.39376" lon="6.12883">
        <ele>1646.5</ele>
        <time>2021-02-03T11:09:33Z</time>
      </trkpt>
      <trkpt lat="45.39376" lon="6.12883">
        <ele>1646.6</ele>
        <time>2021-02-03T11:09:34Z</time>
      </trkpt>
      <trkpt lat="45.39377" lon="6.12883">
        <ele>1646.6</ele>
        <time>2021-02-03T11:09:35Z</time>
      </trkpt>
      <trkpt lat="45.39378" lon="6.12884">
        <ele>1646.7</ele>
        <time>2021-02-03T11:09:36Z</time>
      </trkpt>
      <trkpt lat="45.39378" lon="6.12884">
        <ele>1646.8</ele>
        <time>2021-02-03T11:09:37Z</time>
      </trkpt>
      <trkpt lat="45.39379" lon="6.12885">
        <ele>1646.8</ele>
        <time>2021-02-03T11:09:38Z</time>
      </trkpt>
      <trkpt lat="45.3938" lon="6.12885">
        <ele>1646.9</ele>
        <time>2021-02-03T11:09:39Z</time>
      </trkpt>
      <trkpt lat="45.3938" lon="6.12886">
        <ele>1647</ele>
        <time>2021-02-03T11:09:40Z</time>
      </trkpt>
      <trkpt lat="45.39381" lon="6.12886">
        <ele>1647.1</ele>
        <time>2021-02-03T11:09:41Z</time>
      </trkpt>
      <trkpt lat="45.39381" lon="6.12887">
        <ele>1647.1</ele>
        <time>2021-02-03T11:09:42Z</time>
      </trkpt>
      <trkpt lat="45.39381" lon="6.12887">
        <ele>1647.1</ele>
        <time>2021-02-03T11:09:43Z</time>
      </trkpt>
      <trkpt lat="45.39381" lon="6.12887">
        <ele>1647.1</ele>
        <time>2021-02-03T11:09:44Z</time>
      </trkpt>
      <trkpt lat="45.39381" lon="6.12887">
        <ele>1647.1</ele>
        <time>2021-02-03T11:09:45Z</time>
      </trkpt>
      <trkpt lat="45.39381" lon="6.12887">
        <ele>1647.1</ele>
        <time>2021-02-03T11:09:46Z</time>
      </trkpt>
      <trkpt lat="45.39381" lon="6.12887">
        <ele>1647.1</ele>
        <time>2021-02-03T11:09:47Z</time>
      </trkpt>
      <trkpt lat="45.39381" lon="6.12887">
        <ele>1647.1</ele>
        <time>2021-02-03T11:09:48Z</time>
      </trkpt>
      <trkpt lat="45.39381" lon="6.12887">
        <ele>1647.1</ele>
        <time>2021-02-03T11:09:49Z</time>
      </trkpt>
      <trkpt lat="45.39382" lon="6.12886">
        <ele>1647.2</ele>
        <time>2021-02-03T11:09:50Z</time>
      </trkpt>
      <trkpt lat="45.39383" lon="6.12886">
        <ele>1647.2</ele>
        <time>2021-02-03T11:09:51Z</time>
      </trkpt>
      <trkpt lat="45.39384" lon="6.12886">
        <ele>1647.3</ele>
        <time>2021-02-03T11:09:52Z</time>
      </trkpt>
      <trkpt lat="45.39384" lon="6.12887">
        <ele>1647.4</ele>
        <time>2021-02-03T11:09:53Z</time>
      </trkpt>
      <trkpt lat="45.39384" lon="6.12887">
        <ele>1647.4</ele>
        <time>2021-02-03T11:09:54Z</time>
      </trkpt>
      <trkpt lat="45.39385" lon="6.12887">
        <ele>1647.4</ele>
        <time>2021-02-03T11:09:55Z</time>
      </trkpt>
      <trkpt lat="45.39385" lon="6.12887">
        <ele>1647.5</ele>
        <time>2021-02-03T11:09:56Z</time>
      </trkpt>
      <trkpt lat="45.39385" lon="6.12887">
        <ele>1647.5</ele>
        <time>2021-02-03T11:09:57Z</time>
      </trkpt>
      <trkpt lat="45.39385" lon="6.12887">
        <ele>1647.5</ele>
        <time>2021-02-03T11:09:58Z</time>
      </trkpt>
      <trkpt lat="45.39386" lon="6.12887">
        <ele>1647.6</ele>
        <time>2021-02-03T11:09:59Z</time>
      </trkpt>
      <trkpt lat="45.39387" lon="6.12888">
        <ele>1647.7</ele>
        <time>2021-02-03T11:10:00Z</time>
      </trkpt>
      <trkpt lat="45.39388" lon="6.12888">
        <ele>1647.7</ele>
        <time>2021-02-03T11:10:01Z</time>
      </trkpt>
      <trkpt lat="45.39389" lon="6.12888">
        <ele>1647.8</ele>
        <time>2021-02-03T11:10:02Z</time>
      </trkpt>
      <trkpt lat="45.39389" lon="6.12889">
        <ele>1647.9</ele>
        <time>2021-02-03T11:10:03Z</time>
      </trkpt>
      <trkpt lat="45.3939" lon="6.1289">
        <ele>1648</ele>
        <time>2021-02-03T11:10:04Z</time>
      </trkpt>
      <trkpt lat="45.39391" lon="6.1289">
        <ele>1648.1</ele>
        <time>2021-02-03T11:10:05Z</time>
      </trkpt>
      <trkpt lat="45.39392" lon="6.1289">
        <ele>1648.2</ele>
        <time>2021-02-03T11:10:06Z</time>
      </trkpt>
      <trkpt lat="45.39392" lon="6.1289">
        <ele>1648.3</ele>
        <time>2021-02-03T11:10:07Z</time>
      </trkpt>
      <trkpt lat="45.39393" lon="6.12891">
        <ele>1648.3</ele>
        <time>2021-02-03T11:10:08Z</time>
      </trkpt>
      <trkpt lat="45.39394" lon="6.12891">
        <ele>1648.4</ele>
        <time>2021-02-03T11:10:09Z</time>
      </trkpt>
      <trkpt lat="45.39395" lon="6.12891">
        <ele>1648.5</ele>
        <time>2021-02-03T11:10:10Z</time>
      </trkpt>
      <trkpt lat="45.39396" lon="6.12891">
        <ele>1648.6</ele>
        <time>2021-02-03T11:10:11Z</time>
      </trkpt>
      <trkpt lat="45.39397" lon="6.12891">
        <ele>1648.7</ele>
        <time>2021-02-03T11:10:12Z</time>
      </trkpt>
      <trkpt lat="45.39398" lon="6.12891">
        <ele>1648.8</ele>
        <time>2021-02-03T11:10:13Z</time>
      </trkpt>
      <trkpt lat="45.39398" lon="6.12892">
        <ele>1648.9</ele>
        <time>2021-02-03T11:10:14Z</time>
      </trkpt>
      <trkpt lat="45.39399" lon="6.12892">
        <ele>1649</ele>
        <time>2021-02-03T11:10:15Z</time>
      </trkpt>
      <trkpt lat="45.394" lon="6.12892">
        <ele>1649.1</ele>
        <time>2021-02-03T11:10:16Z</time>
      </trkpt>
      <trkpt lat="45.39401" lon="6.12892">
        <ele>1649.2</ele>
        <time>2021-02-03T11:10:17Z</time>
      </trkpt>
      <trkpt lat="45.39402" lon="6.12893">
        <ele>1649.3</ele>
        <time>2021-02-03T11:10:18Z</time>
      </trkpt>
      <trkpt lat="45.39403" lon="6.12893">
        <ele>1649.4</ele>
        <time>2021-02-03T11:10:19Z</time>
      </trkpt>
      <trkpt lat="45.39403" lon="6.12893">
        <ele>1649.4</ele>
        <time>2021-02-03T11:10:20Z</time>
      </trkpt>
      <trkpt lat="45.39404" lon="6.12894">
        <ele>1649.5</ele>
        <time>2021-02-03T11:10:21Z</time>
      </trkpt>
      <trkpt lat="45.39405" lon="6.12894">
        <ele>1649.6</ele>
        <time>2021-02-03T11:10:22Z</time>
      </trkpt>
      <trkpt lat="45.39405" lon="6.12894">
        <ele>1649.6</ele>
        <time>2021-02-03T11:10:23Z</time>
      </trkpt>
      <trkpt lat="45.39406" lon="6.12894">
        <ele>1649.7</ele>
        <time>2021-02-03T11:10:24Z</time>
      </trkpt>
      <trkpt lat="45.39406" lon="6.12894">
        <ele>1649.8</ele>
        <time>2021-02-03T11:10:25Z</time>
      </trkpt>
      <trkpt lat="45.39407" lon="6.12895">
        <ele>1649.8</ele>
        <time>2021-02-03T11:10:26Z</time>
      </trkpt>
      <trkpt lat="45.39407" lon="6.12895">
        <ele>1649.9</ele>
        <time>2021-02-03T11:10:27Z</time>
      </trkpt>
      <trkpt lat="45.39408" lon="6.12896">
        <ele>1650</ele>
        <time>2021-02-03T11:10:28Z</time>
      </trkpt>
      <trkpt lat="45.39408" lon="6.12896">
        <ele>1650</ele>
        <time>2021-02-03T11:10:29Z</time>
      </trkpt>
      <trkpt lat="45.39409" lon="6.12896">
        <ele>1650.1</ele>
        <time>2021-02-03T11:10:30Z</time>
      </trkpt>
      <trkpt lat="45.39409" lon="6.12896">
        <ele>1650.2</ele>
        <time>2021-02-03T11:10:31Z</time>
      </trkpt>
      <trkpt lat="45.3941" lon="6.12897">
        <ele>1650.3</ele>
        <time>2021-02-03T11:10:32Z</time>
      </trkpt>
      <trkpt lat="45.39411" lon="6.12897">
        <ele>1650.3</ele>
        <time>2021-02-03T11:10:33Z</time>
      </trkpt>
      <trkpt lat="45.39411" lon="6.12897">
        <ele>1650.4</ele>
        <time>2021-02-03T11:10:34Z</time>
      </trkpt>
      <trkpt lat="45.39412" lon="6.12897">
        <ele>1650.5</ele>
        <time>2021-02-03T11:10:35Z</time>
      </trkpt>
      <trkpt lat="45.39413" lon="6.12898">
        <ele>1650.6</ele>
        <time>2021-02-03T11:10:36Z</time>
      </trkpt>
      <trkpt lat="45.39413" lon="6.12898">
        <ele>1650.7</ele>
        <time>2021-02-03T11:10:37Z</time>
      </trkpt>
      <trkpt lat="45.39414" lon="6.12898">
        <ele>1650.7</ele>
        <time>2021-02-03T11:10:38Z</time>
      </trkpt>
      <trkpt lat="45.39414" lon="6.12898">
        <ele>1650.8</ele>
        <time>2021-02-03T11:10:39Z</time>
      </trkpt>
      <trkpt lat="45.39415" lon="6.12898">
        <ele>1650.9</ele>
        <time>2021-02-03T11:10:40Z</time>
      </trkpt>
      <trkpt lat="45.39415" lon="6.12898">
        <ele>1650.9</ele>
        <time>2021-02-03T11:10:41Z</time>
      </trkpt>
      <trkpt lat="45.39416" lon="6.12898">
        <ele>1651</ele>
        <time>2021-02-03T11:10:42Z</time>
      </trkpt>
      <trkpt lat="45.39416" lon="6.12898">
        <ele>1651.1</ele>
        <time>2021-02-03T11:10:43Z</time>
      </trkpt>
      <trkpt lat="45.39417" lon="6.12898">
        <ele>1651.2</ele>
        <time>2021-02-03T11:10:44Z</time>
      </trkpt>
      <trkpt lat="45.39418" lon="6.12899">
        <ele>1651.2</ele>
        <time>2021-02-03T11:10:45Z</time>
      </trkpt>
      <trkpt lat="45.39418" lon="6.12899">
        <ele>1651.3</ele>
        <time>2021-02-03T11:10:46Z</time>
      </trkpt>
      <trkpt lat="45.39419" lon="6.129">
        <ele>1651.4</ele>
        <time>2021-02-03T11:10:47Z</time>
      </trkpt>
      <trkpt lat="45.39419" lon="6.129">
        <ele>1651.5</ele>
        <time>2021-02-03T11:10:48Z</time>
      </trkpt>
      <trkpt lat="45.3942" lon="6.129">
        <ele>1651.5</ele>
        <time>2021-02-03T11:10:49Z</time>
      </trkpt>
      <trkpt lat="45.3942" lon="6.12901">
        <ele>1651.6</ele>
        <time>2021-02-03T11:10:50Z</time>
      </trkpt>
      <trkpt lat="45.39421" lon="6.12901">
        <ele>1651.7</ele>
        <time>2021-02-03T11:10:51Z</time>
      </trkpt>
      <trkpt lat="45.39421" lon="6.12902">
        <ele>1651.8</ele>
        <time>2021-02-03T11:10:52Z</time>
      </trkpt>
      <trkpt lat="45.39422" lon="6.12902">
        <ele>1651.8</ele>
        <time>2021-02-03T11:10:53Z</time>
      </trkpt>
      <trkpt lat="45.39422" lon="6.12903">
        <ele>1651.9</ele>
        <time>2021-02-03T11:10:54Z</time>
      </trkpt>
      <trkpt lat="45.39423" lon="6.12903">
        <ele>1652</ele>
        <time>2021-02-03T11:10:55Z</time>
      </trkpt>
      <trkpt lat="45.39423" lon="6.12903">
        <ele>1652.1</ele>
        <time>2021-02-03T11:10:56Z</time>
      </trkpt>
      <trkpt lat="45.39424" lon="6.12904">
        <ele>1652.2</ele>
        <time>2021-02-03T11:10:57Z</time>
      </trkpt>
      <trkpt lat="45.39425" lon="6.12904">
        <ele>1652.2</ele>
        <time>2021-02-03T11:10:58Z</time>
      </trkpt>
      <trkpt lat="45.39425" lon="6.12905">
        <ele>1652.3</ele>
        <time>2021-02-03T11:10:59Z</time>
      </trkpt>
      <trkpt lat="45.39426" lon="6.12905">
        <ele>1652.5</ele>
        <time>2021-02-03T11:11:00Z</time>
      </trkpt>
      <trkpt lat="45.39427" lon="6.12905">
        <ele>1652.6</ele>
        <time>2021-02-03T11:11:01Z</time>
      </trkpt>
      <trkpt lat="45.39427" lon="6.12906">
        <ele>1652.7</ele>
        <time>2021-02-03T11:11:02Z</time>
      </trkpt>
      <trkpt lat="45.39428" lon="6.12906">
        <ele>1652.8</ele>
        <time>2021-02-03T11:11:03Z</time>
      </trkpt>
      <trkpt lat="45.39429" lon="6.12906">
        <ele>1652.9</ele>
        <time>2021-02-03T11:11:04Z</time>
      </trkpt>
      <trkpt lat="45.39429" lon="6.12907">
        <ele>1653</ele>
        <time>2021-02-03T11:11:05Z</time>
      </trkpt>
      <trkpt lat="45.3943" lon="6.12908">
        <ele>1653.1</ele>
        <time>2021-02-03T11:11:06Z</time>
      </trkpt>
      <trkpt lat="45.39431" lon="6.12908">
        <ele>1653.2</ele>
        <time>2021-02-03T11:11:07Z</time>
      </trkpt>
      <trkpt lat="45.39432" lon="6.12909">
        <ele>1653.3</ele>
        <time>2021-02-03T11:11:08Z</time>
      </trkpt>
      <trkpt lat="45.39432" lon="6.1291">
        <ele>1653.4</ele>
        <time>2021-02-03T11:11:09Z</time>
      </trkpt>
      <trkpt lat="45.39433" lon="6.1291">
        <ele>1653.6</ele>
        <time>2021-02-03T11:11:10Z</time>
      </trkpt>
      <trkpt lat="45.39435" lon="6.1291">
        <ele>1653.7</ele>
        <time>2021-02-03T11:11:11Z</time>
      </trkpt>
      <trkpt lat="45.39436" lon="6.12911">
        <ele>1653.9</ele>
        <time>2021-02-03T11:11:12Z</time>
      </trkpt>
      <trkpt lat="45.39437" lon="6.12911">
        <ele>1654</ele>
        <time>2021-02-03T11:11:13Z</time>
      </trkpt>
      <trkpt lat="45.39438" lon="6.12911">
        <ele>1654.2</ele>
        <time>2021-02-03T11:11:14Z</time>
      </trkpt>
      <trkpt lat="45.39439" lon="6.12911">
        <ele>1654.4</ele>
        <time>2021-02-03T11:11:15Z</time>
      </trkpt>
      <trkpt lat="45.3944" lon="6.12912">
        <ele>1654.5</ele>
        <time>2021-02-03T11:11:16Z</time>
      </trkpt>
      <trkpt lat="45.39441" lon="6.12912">
        <ele>1654.7</ele>
        <time>2021-02-03T11:11:17Z</time>
      </trkpt>
      <trkpt lat="45.39442" lon="6.12912">
        <ele>1654.8</ele>
        <time>2021-02-03T11:11:18Z</time>
      </trkpt>
      <trkpt lat="45.39442" lon="6.12913">
        <ele>1654.9</ele>
        <time>2021-02-03T11:11:19Z</time>
      </trkpt>
      <trkpt lat="45.39443" lon="6.12913">
        <ele>1655</ele>
        <time>2021-02-03T11:11:20Z</time>
      </trkpt>
      <trkpt lat="45.39444" lon="6.12914">
        <ele>1655.1</ele>
        <time>2021-02-03T11:11:21Z</time>
      </trkpt>
      <trkpt lat="45.39444" lon="6.12914">
        <ele>1655.2</ele>
        <time>2021-02-03T11:11:22Z</time>
      </trkpt>
      <trkpt lat="45.39445" lon="6.12915">
        <ele>1655.3</ele>
        <time>2021-02-03T11:11:23Z</time>
      </trkpt>
      <trkpt lat="45.39445" lon="6.12915">
        <ele>1655.5</ele>
        <time>2021-02-03T11:11:24Z</time>
      </trkpt>
      <trkpt lat="45.39446" lon="6.12916">
        <ele>1655.6</ele>
        <time>2021-02-03T11:11:25Z</time>
      </trkpt>
      <trkpt lat="45.39447" lon="6.12916">
        <ele>1655.7</ele>
        <time>2021-02-03T11:11:26Z</time>
      </trkpt>
      <trkpt lat="45.39447" lon="6.12916">
        <ele>1655.8</ele>
        <time>2021-02-03T11:11:27Z</time>
      </trkpt>
      <trkpt lat="45.39448" lon="6.12917">
        <ele>1655.9</ele>
        <time>2021-02-03T11:11:28Z</time>
      </trkpt>
      <trkpt lat="45.39449" lon="6.12917">
        <ele>1656</ele>
        <time>2021-02-03T11:11:29Z</time>
      </trkpt>
      <trkpt lat="45.39449" lon="6.12918">
        <ele>1656.1</ele>
        <time>2021-02-03T11:11:30Z</time>
      </trkpt>
      <trkpt lat="45.3945" lon="6.12918">
        <ele>1656.2</ele>
        <time>2021-02-03T11:11:31Z</time>
      </trkpt>
      <trkpt lat="45.39451" lon="6.12919">
        <ele>1656.3</ele>
        <time>2021-02-03T11:11:32Z</time>
      </trkpt>
      <trkpt lat="45.39451" lon="6.12919">
        <ele>1656.5</ele>
        <time>2021-02-03T11:11:33Z</time>
      </trkpt>
      <trkpt lat="45.39452" lon="6.12919">
        <ele>1656.6</ele>
        <time>2021-02-03T11:11:34Z</time>
      </trkpt>
      <trkpt lat="45.39452" lon="6.1292">
        <ele>1656.7</ele>
        <time>2021-02-03T11:11:35Z</time>
      </trkpt>
      <trkpt lat="45.39453" lon="6.1292">
        <ele>1656.8</ele>
        <time>2021-02-03T11:11:36Z</time>
      </trkpt>
      <trkpt lat="45.39454" lon="6.12921">
        <ele>1656.9</ele>
        <time>2021-02-03T11:11:37Z</time>
      </trkpt>
      <trkpt lat="45.39454" lon="6.12921">
        <ele>1657</ele>
        <time>2021-02-03T11:11:38Z</time>
      </trkpt>
      <trkpt lat="45.39455" lon="6.12921">
        <ele>1657.1</ele>
        <time>2021-02-03T11:11:39Z</time>
      </trkpt>
      <trkpt lat="45.39456" lon="6.12922">
        <ele>1657.2</ele>
        <time>2021-02-03T11:11:40Z</time>
      </trkpt>
      <trkpt lat="45.39456" lon="6.12922">
        <ele>1657.3</ele>
        <time>2021-02-03T11:11:41Z</time>
      </trkpt>
      <trkpt lat="45.39457" lon="6.12923">
        <ele>1657.4</ele>
        <time>2021-02-03T11:11:42Z</time>
      </trkpt>
      <trkpt lat="45.39457" lon="6.12923">
        <ele>1657.5</ele>
        <time>2021-02-03T11:11:43Z</time>
      </trkpt>
      <trkpt lat="45.39458" lon="6.12923">
        <ele>1657.6</ele>
        <time>2021-02-03T11:11:44Z</time>
      </trkpt>
      <trkpt lat="45.39458" lon="6.12924">
        <ele>1657.7</ele>
        <time>2021-02-03T11:11:45Z</time>
      </trkpt>
      <trkpt lat="45.39459" lon="6.12924">
        <ele>1657.7</ele>
        <time>2021-02-03T11:11:46Z</time>
      </trkpt>
      <trkpt lat="45.39459" lon="6.12924">
        <ele>1657.8</ele>
        <time>2021-02-03T11:11:47Z</time>
      </trkpt>
      <trkpt lat="45.3946" lon="6.12924">
        <ele>1657.8</ele>
        <time>2021-02-03T11:11:48Z</time>
      </trkpt>
      <trkpt lat="45.3946" lon="6.12925">
        <ele>1657.9</ele>
        <time>2021-02-03T11:11:49Z</time>
      </trkpt>
      <trkpt lat="45.39461" lon="6.12925">
        <ele>1657.9</ele>
        <time>2021-02-03T11:11:50Z</time>
      </trkpt>
      <trkpt lat="45.39462" lon="6.12925">
        <ele>1658</ele>
        <time>2021-02-03T11:11:51Z</time>
      </trkpt>
      <trkpt lat="45.39462" lon="6.12926">
        <ele>1658</ele>
        <time>2021-02-03T11:11:52Z</time>
      </trkpt>
      <trkpt lat="45.39463" lon="6.12926">
        <ele>1658.1</ele>
        <time>2021-02-03T11:11:53Z</time>
      </trkpt>
      <trkpt lat="45.39463" lon="6.12926">
        <ele>1658.1</ele>
        <time>2021-02-03T11:11:54Z</time>
      </trkpt>
      <trkpt lat="45.39464" lon="6.12926">
        <ele>1658.1</ele>
        <time>2021-02-03T11:11:55Z</time>
      </trkpt>
      <trkpt lat="45.39464" lon="6.12927">
        <ele>1658.1</ele>
        <time>2021-02-03T11:11:56Z</time>
      </trkpt>
      <trkpt lat="45.39465" lon="6.12927">
        <ele>1658.2</ele>
        <time>2021-02-03T11:11:57Z</time>
      </trkpt>
      <trkpt lat="45.39465" lon="6.12927">
        <ele>1658.2</ele>
        <time>2021-02-03T11:11:58Z</time>
      </trkpt>
      <trkpt lat="45.39466" lon="6.12927">
        <ele>1658.3</ele>
        <time>2021-02-03T11:11:59Z</time>
      </trkpt>
      <trkpt lat="45.39467" lon="6.12927">
        <ele>1658.3</ele>
        <time>2021-02-03T11:12:00Z</time>
      </trkpt>
      <trkpt lat="45.39467" lon="6.12928">
        <ele>1658.4</ele>
        <time>2021-02-03T11:12:01Z</time>
      </trkpt>
      <trkpt lat="45.39468" lon="6.12928">
        <ele>1658.4</ele>
        <time>2021-02-03T11:12:02Z</time>
      </trkpt>
      <trkpt lat="45.39468" lon="6.12928">
        <ele>1658.5</ele>
        <time>2021-02-03T11:12:03Z</time>
      </trkpt>
      <trkpt lat="45.39469" lon="6.12928">
        <ele>1658.5</ele>
        <time>2021-02-03T11:12:04Z</time>
      </trkpt>
      <trkpt lat="45.3947" lon="6.12928">
        <ele>1658.6</ele>
        <time>2021-02-03T11:12:05Z</time>
      </trkpt>
      <trkpt lat="45.39471" lon="6.12928">
        <ele>1658.6</ele>
        <time>2021-02-03T11:12:06Z</time>
      </trkpt>
      <trkpt lat="45.39471" lon="6.12928">
        <ele>1658.6</ele>
        <time>2021-02-03T11:12:07Z</time>
      </trkpt>
      <trkpt lat="45.39472" lon="6.12928">
        <ele>1658.7</ele>
        <time>2021-02-03T11:12:08Z</time>
      </trkpt>
      <trkpt lat="45.39472" lon="6.12928">
        <ele>1658.7</ele>
        <time>2021-02-03T11:12:09Z</time>
      </trkpt>
      <trkpt lat="45.39473" lon="6.12929">
        <ele>1658.8</ele>
        <time>2021-02-03T11:12:10Z</time>
      </trkpt>
      <trkpt lat="45.39474" lon="6.1293">
        <ele>1658.8</ele>
        <time>2021-02-03T11:12:11Z</time>
      </trkpt>
      <trkpt lat="45.39475" lon="6.12931">
        <ele>1658.9</ele>
        <time>2021-02-03T11:12:12Z</time>
      </trkpt>
      <trkpt lat="45.39475" lon="6.12931">
        <ele>1658.9</ele>
        <time>2021-02-03T11:12:13Z</time>
      </trkpt>
      <trkpt lat="45.39475" lon="6.12932">
        <ele>1659</ele>
        <time>2021-02-03T11:12:14Z</time>
      </trkpt>
      <trkpt lat="45.39476" lon="6.12933">
        <ele>1659</ele>
        <time>2021-02-03T11:12:15Z</time>
      </trkpt>
      <trkpt lat="45.39477" lon="6.12933">
        <ele>1659</ele>
        <time>2021-02-03T11:12:16Z</time>
      </trkpt>
      <trkpt lat="45.39477" lon="6.12933">
        <ele>1659.1</ele>
        <time>2021-02-03T11:12:17Z</time>
      </trkpt>
      <trkpt lat="45.39478" lon="6.12933">
        <ele>1659.1</ele>
        <time>2021-02-03T11:12:18Z</time>
      </trkpt>
      <trkpt lat="45.39479" lon="6.12933">
        <ele>1659.2</ele>
        <time>2021-02-03T11:12:19Z</time>
      </trkpt>
      <trkpt lat="45.39479" lon="6.12934">
        <ele>1659.2</ele>
        <time>2021-02-03T11:12:20Z</time>
      </trkpt>
      <trkpt lat="45.3948" lon="6.12934">
        <ele>1659.2</ele>
        <time>2021-02-03T11:12:21Z</time>
      </trkpt>
      <trkpt lat="45.3948" lon="6.12934">
        <ele>1659.2</ele>
        <time>2021-02-03T11:12:22Z</time>
      </trkpt>
      <trkpt lat="45.39481" lon="6.12934">
        <ele>1659.2</ele>
        <time>2021-02-03T11:12:23Z</time>
      </trkpt>
      <trkpt lat="45.39481" lon="6.12934">
        <ele>1659.2</ele>
        <time>2021-02-03T11:12:24Z</time>
      </trkpt>
      <trkpt lat="45.39482" lon="6.12934">
        <ele>1659.2</ele>
        <time>2021-02-03T11:12:25Z</time>
      </trkpt>
      <trkpt lat="45.39482" lon="6.12934">
        <ele>1659.3</ele>
        <time>2021-02-03T11:12:26Z</time>
      </trkpt>
      <trkpt lat="45.39483" lon="6.12934">
        <ele>1659.3</ele>
        <time>2021-02-03T11:12:27Z</time>
      </trkpt>
      <trkpt lat="45.39484" lon="6.12934">
        <ele>1659.3</ele>
        <time>2021-02-03T11:12:28Z</time>
      </trkpt>
      <trkpt lat="45.39484" lon="6.12934">
        <ele>1659.3</ele>
        <time>2021-02-03T11:12:29Z</time>
      </trkpt>
      <trkpt lat="45.39485" lon="6.12934">
        <ele>1659.4</ele>
        <time>2021-02-03T11:12:30Z</time>
      </trkpt>
      <trkpt lat="45.39486" lon="6.12934">
        <ele>1659.4</ele>
        <time>2021-02-03T11:12:31Z</time>
      </trkpt>
      <trkpt lat="45.39486" lon="6.12934">
        <ele>1659.4</ele>
        <time>2021-02-03T11:12:32Z</time>
      </trkpt>
      <trkpt lat="45.39486" lon="6.12934">
        <ele>1659.4</ele>
        <time>2021-02-03T11:12:33Z</time>
      </trkpt>
      <trkpt lat="45.39487" lon="6.12934">
        <ele>1659.4</ele>
        <time>2021-02-03T11:12:34Z</time>
      </trkpt>
      <trkpt lat="45.39487" lon="6.12934">
        <ele>1659.4</ele>
        <time>2021-02-03T11:12:35Z</time>
      </trkpt>
      <trkpt lat="45.39487" lon="6.12934">
        <ele>1659.3</ele>
        <time>2021-02-03T11:12:36Z</time>
      </trkpt>
      <trkpt lat="45.39488" lon="6.12934">
        <ele>1659.4</ele>
        <time>2021-02-03T11:12:37Z</time>
      </trkpt>
      <trkpt lat="45.39488" lon="6.12934">
        <ele>1659.3</ele>
        <time>2021-02-03T11:12:38Z</time>
      </trkpt>
      <trkpt lat="45.39489" lon="6.12934">
        <ele>1659.4</ele>
        <time>2021-02-03T11:12:39Z</time>
      </trkpt>
      <trkpt lat="45.39489" lon="6.12934">
        <ele>1659.3</ele>
        <time>2021-02-03T11:12:40Z</time>
      </trkpt>
      <trkpt lat="45.39489" lon="6.12934">
        <ele>1659.3</ele>
        <time>2021-02-03T11:12:41Z</time>
      </trkpt>
      <trkpt lat="45.3949" lon="6.12934">
        <ele>1659.3</ele>
        <time>2021-02-03T11:12:50Z</time>
      </trkpt>
      <trkpt lat="45.3949" lon="6.12934">
        <ele>1659.3</ele>
        <time>2021-02-03T11:12:51Z</time>
      </trkpt>
      <trkpt lat="45.3949" lon="6.12934">
        <ele>1659.3</ele>
        <time>2021-02-03T11:12:52Z</time>
      </trkpt>
      <trkpt lat="45.39491" lon="6.12934">
        <ele>1659.3</ele>
        <time>2021-02-03T11:12:53Z</time>
      </trkpt>
      <trkpt lat="45.39491" lon="6.12933">
        <ele>1659.3</ele>
        <time>2021-02-03T11:12:54Z</time>
      </trkpt>
      <trkpt lat="45.39492" lon="6.12934">
        <ele>1659.4</ele>
        <time>2021-02-03T11:12:55Z</time>
      </trkpt>
      <trkpt lat="45.39492" lon="6.12934">
        <ele>1659.3</ele>
        <time>2021-02-03T11:12:56Z</time>
      </trkpt>
      <trkpt lat="45.39493" lon="6.12934">
        <ele>1659.4</ele>
        <time>2021-02-03T11:12:57Z</time>
      </trkpt>
      <trkpt lat="45.39493" lon="6.12934">
        <ele>1659.4</ele>
        <time>2021-02-03T11:12:58Z</time>
      </trkpt>
      <trkpt lat="45.39494" lon="6.12934">
        <ele>1659.4</ele>
        <time>2021-02-03T11:12:59Z</time>
      </trkpt>
      <trkpt lat="45.39495" lon="6.12934">
        <ele>1659.4</ele>
        <time>2021-02-03T11:13:00Z</time>
      </trkpt>
      <trkpt lat="45.39495" lon="6.12934">
        <ele>1659.5</ele>
        <time>2021-02-03T11:13:01Z</time>
      </trkpt>
      <trkpt lat="45.39496" lon="6.12934">
        <ele>1659.5</ele>
        <time>2021-02-03T11:13:02Z</time>
      </trkpt>
      <trkpt lat="45.39497" lon="6.12934">
        <ele>1659.6</ele>
        <time>2021-02-03T11:13:03Z</time>
      </trkpt>
      <trkpt lat="45.39497" lon="6.12934">
        <ele>1659.6</ele>
        <time>2021-02-03T11:13:04Z</time>
      </trkpt>
      <trkpt lat="45.39498" lon="6.12934">
        <ele>1659.7</ele>
        <time>2021-02-03T11:13:05Z</time>
      </trkpt>
      <trkpt lat="45.39499" lon="6.12933">
        <ele>1659.7</ele>
        <time>2021-02-03T11:13:06Z</time>
      </trkpt>
      <trkpt lat="45.39499" lon="6.12933">
        <ele>1659.7</ele>
        <time>2021-02-03T11:13:07Z</time>
      </trkpt>
      <trkpt lat="45.395" lon="6.12933">
        <ele>1659.8</ele>
        <time>2021-02-03T11:13:08Z</time>
      </trkpt>
      <trkpt lat="45.39501" lon="6.12932">
        <ele>1659.8</ele>
        <time>2021-02-03T11:13:09Z</time>
      </trkpt>
      <trkpt lat="45.39502" lon="6.12932">
        <ele>1659.9</ele>
        <time>2021-02-03T11:13:10Z</time>
      </trkpt>
      <trkpt lat="45.39502" lon="6.12931">
        <ele>1659.8</ele>
        <time>2021-02-03T11:13:11Z</time>
      </trkpt>
      <trkpt lat="45.39503" lon="6.12931">
        <ele>1659.9</ele>
        <time>2021-02-03T11:13:12Z</time>
      </trkpt>
      <trkpt lat="45.39504" lon="6.12931">
        <ele>1659.9</ele>
        <time>2021-02-03T11:13:13Z</time>
      </trkpt>
      <trkpt lat="45.39504" lon="6.1293">
        <ele>1660</ele>
        <time>2021-02-03T11:13:14Z</time>
      </trkpt>
      <trkpt lat="45.39505" lon="6.1293">
        <ele>1660</ele>
        <time>2021-02-03T11:13:15Z</time>
      </trkpt>
      <trkpt lat="45.39505" lon="6.12929">
        <ele>1660</ele>
        <time>2021-02-03T11:13:16Z</time>
      </trkpt>
      <trkpt lat="45.39506" lon="6.12929">
        <ele>1660</ele>
        <time>2021-02-03T11:13:17Z</time>
      </trkpt>
      <trkpt lat="45.39506" lon="6.12928">
        <ele>1660.1</ele>
        <time>2021-02-03T11:13:18Z</time>
      </trkpt>
      <trkpt lat="45.39507" lon="6.12928">
        <ele>1660.1</ele>
        <time>2021-02-03T11:13:19Z</time>
      </trkpt>
      <trkpt lat="45.39507" lon="6.12927">
        <ele>1660.2</ele>
        <time>2021-02-03T11:13:20Z</time>
      </trkpt>
      <trkpt lat="45.39508" lon="6.12927">
        <ele>1660.1</ele>
        <time>2021-02-03T11:13:21Z</time>
      </trkpt>
      <trkpt lat="45.39508" lon="6.12926">
        <ele>1660.2</ele>
        <time>2021-02-03T11:13:22Z</time>
      </trkpt>
      <trkpt lat="45.39509" lon="6.12925">
        <ele>1660.2</ele>
        <time>2021-02-03T11:13:23Z</time>
      </trkpt>
      <trkpt lat="45.3951" lon="6.12924">
        <ele>1660.3</ele>
        <time>2021-02-03T11:13:24Z</time>
      </trkpt>
      <trkpt lat="45.3951" lon="6.12924">
        <ele>1660.3</ele>
        <time>2021-02-03T11:13:25Z</time>
      </trkpt>
      <trkpt lat="45.39511" lon="6.12923">
        <ele>1660.4</ele>
        <time>2021-02-03T11:13:26Z</time>
      </trkpt>
      <trkpt lat="45.39512" lon="6.12922">
        <ele>1660.4</ele>
        <time>2021-02-03T11:13:27Z</time>
      </trkpt>
      <trkpt lat="45.39513" lon="6.12921">
        <ele>1660.5</ele>
        <time>2021-02-03T11:13:28Z</time>
      </trkpt>
      <trkpt lat="45.39514" lon="6.12921">
        <ele>1660.5</ele>
        <time>2021-02-03T11:13:29Z</time>
      </trkpt>
      <trkpt lat="45.39514" lon="6.1292">
        <ele>1660.6</ele>
        <time>2021-02-03T11:13:30Z</time>
      </trkpt>
      <trkpt lat="45.39515" lon="6.12919">
        <ele>1660.6</ele>
        <time>2021-02-03T11:13:31Z</time>
      </trkpt>
      <trkpt lat="45.39516" lon="6.12919">
        <ele>1660.7</ele>
        <time>2021-02-03T11:13:32Z</time>
      </trkpt>
      <trkpt lat="45.39516" lon="6.12918">
        <ele>1660.8</ele>
        <time>2021-02-03T11:13:33Z</time>
      </trkpt>
      <trkpt lat="45.39517" lon="6.12917">
        <ele>1660.8</ele>
        <time>2021-02-03T11:13:34Z</time>
      </trkpt>
      <trkpt lat="45.39517" lon="6.12916">
        <ele>1660.9</ele>
        <time>2021-02-03T11:13:35Z</time>
      </trkpt>
      <trkpt lat="45.39518" lon="6.12916">
        <ele>1661</ele>
        <time>2021-02-03T11:13:36Z</time>
      </trkpt>
      <trkpt lat="45.39518" lon="6.12915">
        <ele>1661</ele>
        <time>2021-02-03T11:13:37Z</time>
      </trkpt>
      <trkpt lat="45.39519" lon="6.12914">
        <ele>1661.1</ele>
        <time>2021-02-03T11:13:38Z</time>
      </trkpt>
      <trkpt lat="45.39519" lon="6.12913">
        <ele>1661.1</ele>
        <time>2021-02-03T11:13:39Z</time>
      </trkpt>
      <trkpt lat="45.39519" lon="6.12913">
        <ele>1661.2</ele>
        <time>2021-02-03T11:13:40Z</time>
      </trkpt>
      <trkpt lat="45.3952" lon="6.12912">
        <ele>1661.3</ele>
        <time>2021-02-03T11:13:41Z</time>
      </trkpt>
      <trkpt lat="45.3952" lon="6.12911">
        <ele>1661.3</ele>
        <time>2021-02-03T11:13:42Z</time>
      </trkpt>
      <trkpt lat="45.39521" lon="6.12911">
        <ele>1661.4</ele>
        <time>2021-02-03T11:13:43Z</time>
      </trkpt>
      <trkpt lat="45.39521" lon="6.1291">
        <ele>1661.5</ele>
        <time>2021-02-03T11:13:44Z</time>
      </trkpt>
      <trkpt lat="45.39522" lon="6.12909">
        <ele>1661.5</ele>
        <time>2021-02-03T11:13:45Z</time>
      </trkpt>
      <trkpt lat="45.39522" lon="6.12909">
        <ele>1661.6</ele>
        <time>2021-02-03T11:13:46Z</time>
      </trkpt>
      <trkpt lat="45.39523" lon="6.12908">
        <ele>1661.7</ele>
        <time>2021-02-03T11:13:47Z</time>
      </trkpt>
      <trkpt lat="45.39524" lon="6.12907">
        <ele>1661.8</ele>
        <time>2021-02-03T11:13:48Z</time>
      </trkpt>
      <trkpt lat="45.39525" lon="6.12907">
        <ele>1661.9</ele>
        <time>2021-02-03T11:13:49Z</time>
      </trkpt>
      <trkpt lat="45.39526" lon="6.12906">
        <ele>1661.9</ele>
        <time>2021-02-03T11:13:50Z</time>
      </trkpt>
      <trkpt lat="45.39526" lon="6.12906">
        <ele>1662</ele>
        <time>2021-02-03T11:13:51Z</time>
      </trkpt>
      <trkpt lat="45.39526" lon="6.12906">
        <ele>1662</ele>
        <time>2021-02-03T11:13:52Z</time>
      </trkpt>
      <trkpt lat="45.39527" lon="6.12905">
        <ele>1662.1</ele>
        <time>2021-02-03T11:13:53Z</time>
      </trkpt>
      <trkpt lat="45.39528" lon="6.12905">
        <ele>1662.2</ele>
        <time>2021-02-03T11:13:54Z</time>
      </trkpt>
      <trkpt lat="45.39528" lon="6.12904">
        <ele>1662.2</ele>
        <time>2021-02-03T11:13:55Z</time>
      </trkpt>
      <trkpt lat="45.39529" lon="6.12904">
        <ele>1662.3</ele>
        <time>2021-02-03T11:13:56Z</time>
      </trkpt>
      <trkpt lat="45.3953" lon="6.12903">
        <ele>1662.4</ele>
        <time>2021-02-03T11:13:57Z</time>
      </trkpt>
      <trkpt lat="45.39531" lon="6.12903">
        <ele>1662.5</ele>
        <time>2021-02-03T11:13:58Z</time>
      </trkpt>
      <trkpt lat="45.39532" lon="6.12902">
        <ele>1662.6</ele>
        <time>2021-02-03T11:13:59Z</time>
      </trkpt>
      <trkpt lat="45.39533" lon="6.12901">
        <ele>1662.7</ele>
        <time>2021-02-03T11:14:00Z</time>
      </trkpt>
      <trkpt lat="45.39534" lon="6.12901">
        <ele>1662.8</ele>
        <time>2021-02-03T11:14:01Z</time>
      </trkpt>
      <trkpt lat="45.39534" lon="6.129">
        <ele>1662.8</ele>
        <time>2021-02-03T11:14:02Z</time>
      </trkpt>
      <trkpt lat="45.39535" lon="6.129">
        <ele>1662.9</ele>
        <time>2021-02-03T11:14:03Z</time>
      </trkpt>
      <trkpt lat="45.39536" lon="6.129">
        <ele>1663</ele>
        <time>2021-02-03T11:14:04Z</time>
      </trkpt>
      <trkpt lat="45.39536" lon="6.12899">
        <ele>1663</ele>
        <time>2021-02-03T11:14:05Z</time>
      </trkpt>
      <trkpt lat="45.39537" lon="6.12898">
        <ele>1663.1</ele>
        <time>2021-02-03T11:14:06Z</time>
      </trkpt>
      <trkpt lat="45.39537" lon="6.12898">
        <ele>1663.2</ele>
        <time>2021-02-03T11:14:07Z</time>
      </trkpt>
      <trkpt lat="45.39538" lon="6.12897">
        <ele>1663.2</ele>
        <time>2021-02-03T11:14:08Z</time>
      </trkpt>
      <trkpt lat="45.39539" lon="6.12897">
        <ele>1663.3</ele>
        <time>2021-02-03T11:14:09Z</time>
      </trkpt>
      <trkpt lat="45.3954" lon="6.12897">
        <ele>1663.4</ele>
        <time>2021-02-03T11:14:10Z</time>
      </trkpt>
      <trkpt lat="45.3954" lon="6.12896">
        <ele>1663.4</ele>
        <time>2021-02-03T11:14:11Z</time>
      </trkpt>
      <trkpt lat="45.39541" lon="6.12896">
        <ele>1663.5</ele>
        <time>2021-02-03T11:14:12Z</time>
      </trkpt>
      <trkpt lat="45.39542" lon="6.12896">
        <ele>1663.6</ele>
        <time>2021-02-03T11:14:13Z</time>
      </trkpt>
      <trkpt lat="45.39543" lon="6.12896">
        <ele>1663.6</ele>
        <time>2021-02-03T11:14:14Z</time>
      </trkpt>
      <trkpt lat="45.39544" lon="6.12896">
        <ele>1663.7</ele>
        <time>2021-02-03T11:14:15Z</time>
      </trkpt>
      <trkpt lat="45.39544" lon="6.12896">
        <ele>1663.8</ele>
        <time>2021-02-03T11:14:16Z</time>
      </trkpt>
      <trkpt lat="45.39545" lon="6.12895">
        <ele>1663.8</ele>
        <time>2021-02-03T11:14:17Z</time>
      </trkpt>
      <trkpt lat="45.39545" lon="6.12895">
        <ele>1663.9</ele>
        <time>2021-02-03T11:14:18Z</time>
      </trkpt>
      <trkpt lat="45.39546" lon="6.12895">
        <ele>1663.9</ele>
        <time>2021-02-03T11:14:19Z</time>
      </trkpt>
      <trkpt lat="45.39547" lon="6.12894">
        <ele>1664</ele>
        <time>2021-02-03T11:14:20Z</time>
      </trkpt>
      <trkpt lat="45.39548" lon="6.12894">
        <ele>1664.1</ele>
        <time>2021-02-03T11:14:21Z</time>
      </trkpt>
      <trkpt lat="45.39549" lon="6.12894">
        <ele>1664.1</ele>
        <time>2021-02-03T11:14:22Z</time>
      </trkpt>
      <trkpt lat="45.3955" lon="6.12893">
        <ele>1664.3</ele>
        <time>2021-02-03T11:14:23Z</time>
      </trkpt>
      <trkpt lat="45.39551" lon="6.12893">
        <ele>1664.3</ele>
        <time>2021-02-03T11:14:24Z</time>
      </trkpt>
      <trkpt lat="45.39552" lon="6.12893">
        <ele>1664.4</ele>
        <time>2021-02-03T11:14:25Z</time>
      </trkpt>
      <trkpt lat="45.39552" lon="6.12893">
        <ele>1664.4</ele>
        <time>2021-02-03T11:14:26Z</time>
      </trkpt>
      <trkpt lat="45.39553" lon="6.12893">
        <ele>1664.5</ele>
        <time>2021-02-03T11:14:27Z</time>
      </trkpt>
      <trkpt lat="45.39554" lon="6.12893">
        <ele>1664.6</ele>
        <time>2021-02-03T11:14:28Z</time>
      </trkpt>
      <trkpt lat="45.39555" lon="6.12893">
        <ele>1664.6</ele>
        <time>2021-02-03T11:14:29Z</time>
      </trkpt>
      <trkpt lat="45.39556" lon="6.12893">
        <ele>1664.7</ele>
        <time>2021-02-03T11:14:30Z</time>
      </trkpt>
      <trkpt lat="45.39557" lon="6.12893">
        <ele>1664.8</ele>
        <time>2021-02-03T11:14:31Z</time>
      </trkpt>
      <trkpt lat="45.39558" lon="6.12893">
        <ele>1664.9</ele>
        <time>2021-02-03T11:14:32Z</time>
      </trkpt>
      <trkpt lat="45.39559" lon="6.12893">
        <ele>1665</ele>
        <time>2021-02-03T11:14:33Z</time>
      </trkpt>
      <trkpt lat="45.3956" lon="6.12892">
        <ele>1665</ele>
        <time>2021-02-03T11:14:34Z</time>
      </trkpt>
      <trkpt lat="45.3956" lon="6.12892">
        <ele>1665</ele>
        <time>2021-02-03T11:14:35Z</time>
      </trkpt>
      <trkpt lat="45.3956" lon="6.12892">
        <ele>1665</ele>
        <time>2021-02-03T11:14:36Z</time>
      </trkpt>
      <trkpt lat="45.3956" lon="6.12891">
        <ele>1665.1</ele>
        <time>2021-02-03T11:14:37Z</time>
      </trkpt>
      <trkpt lat="45.39561" lon="6.12891">
        <ele>1665.1</ele>
        <time>2021-02-03T11:14:38Z</time>
      </trkpt>
      <trkpt lat="45.39562" lon="6.12891">
        <ele>1665.2</ele>
        <time>2021-02-03T11:14:39Z</time>
      </trkpt>
      <trkpt lat="45.39563" lon="6.12891">
        <ele>1665.3</ele>
        <time>2021-02-03T11:14:40Z</time>
      </trkpt>
      <trkpt lat="45.39563" lon="6.12891">
        <ele>1665.3</ele>
        <time>2021-02-03T11:14:41Z</time>
      </trkpt>
      <trkpt lat="45.39564" lon="6.1289">
        <ele>1665.4</ele>
        <time>2021-02-03T11:14:42Z</time>
      </trkpt>
      <trkpt lat="45.39565" lon="6.1289">
        <ele>1665.5</ele>
        <time>2021-02-03T11:14:43Z</time>
      </trkpt>
      <trkpt lat="45.39566" lon="6.1289">
        <ele>1665.6</ele>
        <time>2021-02-03T11:14:44Z</time>
      </trkpt>
      <trkpt lat="45.39567" lon="6.1289">
        <ele>1665.6</ele>
        <time>2021-02-03T11:14:48Z</time>
      </trkpt>
      <trkpt lat="45.39568" lon="6.1289">
        <ele>1665.7</ele>
        <time>2021-02-03T11:14:49Z</time>
      </trkpt>
      <trkpt lat="45.3957" lon="6.1289">
        <ele>1665.8</ele>
        <time>2021-02-03T11:14:50Z</time>
      </trkpt>
      <trkpt lat="45.39571" lon="6.1289">
        <ele>1665.9</ele>
        <time>2021-02-03T11:14:51Z</time>
      </trkpt>
      <trkpt lat="45.39572" lon="6.12889">
        <ele>1666</ele>
        <time>2021-02-03T11:14:52Z</time>
      </trkpt>
      <trkpt lat="45.39573" lon="6.1289">
        <ele>1666.1</ele>
        <time>2021-02-03T11:14:53Z</time>
      </trkpt>
      <trkpt lat="45.39573" lon="6.1289">
        <ele>1666.1</ele>
        <time>2021-02-03T11:14:54Z</time>
      </trkpt>
      <trkpt lat="45.39574" lon="6.12889">
        <ele>1666.2</ele>
        <time>2021-02-03T11:14:55Z</time>
      </trkpt>
      <trkpt lat="45.39575" lon="6.12889">
        <ele>1666.2</ele>
        <time>2021-02-03T11:14:56Z</time>
      </trkpt>
      <trkpt lat="45.39575" lon="6.12889">
        <ele>1666.3</ele>
        <time>2021-02-03T11:14:57Z</time>
      </trkpt>
      <trkpt lat="45.39576" lon="6.12889">
        <ele>1666.4</ele>
        <time>2021-02-03T11:14:58Z</time>
      </trkpt>
      <trkpt lat="45.39577" lon="6.12888">
        <ele>1666.4</ele>
        <time>2021-02-03T11:14:59Z</time>
      </trkpt>
      <trkpt lat="45.39578" lon="6.12888">
        <ele>1666.5</ele>
        <time>2021-02-03T11:15:00Z</time>
      </trkpt>
      <trkpt lat="45.39578" lon="6.12888">
        <ele>1666.5</ele>
        <time>2021-02-03T11:15:01Z</time>
      </trkpt>
      <trkpt lat="45.39579" lon="6.12888">
        <ele>1666.6</ele>
        <time>2021-02-03T11:15:02Z</time>
      </trkpt>
      <trkpt lat="45.39581" lon="6.12887">
        <ele>1666.7</ele>
        <time>2021-02-03T11:15:03Z</time>
      </trkpt>
      <trkpt lat="45.39582" lon="6.12887">
        <ele>1666.8</ele>
        <time>2021-02-03T11:15:04Z</time>
      </trkpt>
      <trkpt lat="45.39583" lon="6.12887">
        <ele>1666.9</ele>
        <time>2021-02-03T11:15:08Z</time>
      </trkpt>
      <trkpt lat="45.39584" lon="6.12886">
        <ele>1667</ele>
        <time>2021-02-03T11:15:09Z</time>
      </trkpt>
      <trkpt lat="45.39585" lon="6.12886">
        <ele>1667.1</ele>
        <time>2021-02-03T11:15:10Z</time>
      </trkpt>
      <trkpt lat="45.39586" lon="6.12886">
        <ele>1667.2</ele>
        <time>2021-02-03T11:15:11Z</time>
      </trkpt>
      <trkpt lat="45.39587" lon="6.12886">
        <ele>1667.3</ele>
        <time>2021-02-03T11:15:12Z</time>
      </trkpt>
      <trkpt lat="45.39588" lon="6.12887">
        <ele>1667.3</ele>
        <time>2021-02-03T11:15:13Z</time>
      </trkpt>
      <trkpt lat="45.39588" lon="6.12887">
        <ele>1667.4</ele>
        <time>2021-02-03T11:15:14Z</time>
      </trkpt>
      <trkpt lat="45.39588" lon="6.12887">
        <ele>1667.4</ele>
        <time>2021-02-03T11:15:15Z</time>
      </trkpt>
      <trkpt lat="45.39589" lon="6.12887">
        <ele>1667.5</ele>
        <time>2021-02-03T11:15:16Z</time>
      </trkpt>
      <trkpt lat="45.3959" lon="6.12887">
        <ele>1667.5</ele>
        <time>2021-02-03T11:15:17Z</time>
      </trkpt>
      <trkpt lat="45.39591" lon="6.12888">
        <ele>1667.6</ele>
        <time>2021-02-03T11:15:18Z</time>
      </trkpt>
      <trkpt lat="45.39593" lon="6.12888">
        <ele>1667.8</ele>
        <time>2021-02-03T11:15:19Z</time>
      </trkpt>
      <trkpt lat="45.39594" lon="6.12889">
        <ele>1667.9</ele>
        <time>2021-02-03T11:15:20Z</time>
      </trkpt>
      <trkpt lat="45.39595" lon="6.12889">
        <ele>1668</ele>
        <time>2021-02-03T11:15:21Z</time>
      </trkpt>
      <trkpt lat="45.39596" lon="6.12889">
        <ele>1668.1</ele>
        <time>2021-02-03T11:15:22Z</time>
      </trkpt>
      <trkpt lat="45.39598" lon="6.1289">
        <ele>1668.2</ele>
        <time>2021-02-03T11:15:23Z</time>
      </trkpt>
      <trkpt lat="45.39598" lon="6.12889">
        <ele>1668.3</ele>
        <time>2021-02-03T11:15:24Z</time>
      </trkpt>
      <trkpt lat="45.39598" lon="6.12889">
        <ele>1668.3</ele>
        <time>2021-02-03T11:15:25Z</time>
      </trkpt>
      <trkpt lat="45.39599" lon="6.12889">
        <ele>1668.3</ele>
        <time>2021-02-03T11:15:26Z</time>
      </trkpt>
      <trkpt lat="45.396" lon="6.12888">
        <ele>1668.4</ele>
        <time>2021-02-03T11:15:27Z</time>
      </trkpt>
      <trkpt lat="45.396" lon="6.12888">
        <ele>1668.5</ele>
        <time>2021-02-03T11:15:28Z</time>
      </trkpt>
      <trkpt lat="45.39601" lon="6.12887">
        <ele>1668.6</ele>
        <time>2021-02-03T11:15:29Z</time>
      </trkpt>
      <trkpt lat="45.39602" lon="6.12886">
        <ele>1668.6</ele>
        <time>2021-02-03T11:15:30Z</time>
      </trkpt>
      <trkpt lat="45.39603" lon="6.12886">
        <ele>1668.7</ele>
        <time>2021-02-03T11:15:31Z</time>
      </trkpt>
      <trkpt lat="45.39603" lon="6.12885">
        <ele>1668.8</ele>
        <time>2021-02-03T11:15:32Z</time>
      </trkpt>
      <trkpt lat="45.39604" lon="6.12885">
        <ele>1668.8</ele>
        <time>2021-02-03T11:15:33Z</time>
      </trkpt>
      <trkpt lat="45.39604" lon="6.12884">
        <ele>1668.9</ele>
        <time>2021-02-03T11:15:34Z</time>
      </trkpt>
      <trkpt lat="45.39605" lon="6.12883">
        <ele>1668.9</ele>
        <time>2021-02-03T11:15:35Z</time>
      </trkpt>
      <trkpt lat="45.39605" lon="6.12883">
        <ele>1669</ele>
        <time>2021-02-03T11:15:36Z</time>
      </trkpt>
      <trkpt lat="45.39606" lon="6.12882">
        <ele>1669</ele>
        <time>2021-02-03T11:15:37Z</time>
      </trkpt>
      <trkpt lat="45.39607" lon="6.12882">
        <ele>1669.1</ele>
        <time>2021-02-03T11:15:38Z</time>
      </trkpt>
      <trkpt lat="45.39607" lon="6.12881">
        <ele>1669.2</ele>
        <time>2021-02-03T11:15:39Z</time>
      </trkpt>
      <trkpt lat="45.39608" lon="6.12881">
        <ele>1669.2</ele>
        <time>2021-02-03T11:15:40Z</time>
      </trkpt>
      <trkpt lat="45.39609" lon="6.1288">
        <ele>1669.3</ele>
        <time>2021-02-03T11:15:41Z</time>
      </trkpt>
      <trkpt lat="45.3961" lon="6.12879">
        <ele>1669.4</ele>
        <time>2021-02-03T11:15:42Z</time>
      </trkpt>
      <trkpt lat="45.3961" lon="6.12878">
        <ele>1669.5</ele>
        <time>2021-02-03T11:15:43Z</time>
      </trkpt>
      <trkpt lat="45.39611" lon="6.12877">
        <ele>1669.6</ele>
        <time>2021-02-03T11:15:44Z</time>
      </trkpt>
      <trkpt lat="45.39612" lon="6.12877">
        <ele>1669.7</ele>
        <time>2021-02-03T11:15:45Z</time>
      </trkpt>
      <trkpt lat="45.39612" lon="6.12876">
        <ele>1669.7</ele>
        <time>2021-02-03T11:15:46Z</time>
      </trkpt>
      <trkpt lat="45.39613" lon="6.12875">
        <ele>1669.8</ele>
        <time>2021-02-03T11:15:47Z</time>
      </trkpt>
      <trkpt lat="45.39613" lon="6.12875">
        <ele>1669.8</ele>
        <time>2021-02-03T11:15:48Z</time>
      </trkpt>
      <trkpt lat="45.39614" lon="6.12874">
        <ele>1669.9</ele>
        <time>2021-02-03T11:15:49Z</time>
      </trkpt>
      <trkpt lat="45.39614" lon="6.12874">
        <ele>1670</ele>
        <time>2021-02-03T11:15:50Z</time>
      </trkpt>
      <trkpt lat="45.39614" lon="6.12873">
        <ele>1670</ele>
        <time>2021-02-03T11:15:51Z</time>
      </trkpt>
      <trkpt lat="45.39615" lon="6.12872">
        <ele>1670.1</ele>
        <time>2021-02-03T11:15:52Z</time>
      </trkpt>
      <trkpt lat="45.39615" lon="6.12871">
        <ele>1670.1</ele>
        <time>2021-02-03T11:15:53Z</time>
      </trkpt>
      <trkpt lat="45.39615" lon="6.1287">
        <ele>1670.2</ele>
        <time>2021-02-03T11:15:54Z</time>
      </trkpt>
      <trkpt lat="45.39616" lon="6.12869">
        <ele>1670.3</ele>
        <time>2021-02-03T11:15:55Z</time>
      </trkpt>
      <trkpt lat="45.39617" lon="6.12869">
        <ele>1670.4</ele>
        <time>2021-02-03T11:15:56Z</time>
      </trkpt>
      <trkpt lat="45.39617" lon="6.12868">
        <ele>1670.5</ele>
        <time>2021-02-03T11:15:57Z</time>
      </trkpt>
      <trkpt lat="45.39618" lon="6.12868">
        <ele>1670.6</ele>
        <time>2021-02-03T11:15:58Z</time>
      </trkpt>
      <trkpt lat="45.3962" lon="6.12867">
        <ele>1670.7</ele>
        <time>2021-02-03T11:15:59Z</time>
      </trkpt>
      <trkpt lat="45.39621" lon="6.12867">
        <ele>1670.8</ele>
        <time>2021-02-03T11:16:00Z</time>
      </trkpt>
      <trkpt lat="45.39622" lon="6.12866">
        <ele>1671</ele>
        <time>2021-02-03T11:16:01Z</time>
      </trkpt>
      <trkpt lat="45.39624" lon="6.12866">
        <ele>1671.2</ele>
        <time>2021-02-03T11:16:02Z</time>
      </trkpt>
      <trkpt lat="45.39625" lon="6.12865">
        <ele>1671.3</ele>
        <time>2021-02-03T11:16:03Z</time>
      </trkpt>
      <trkpt lat="45.39626" lon="6.12865">
        <ele>1671.4</ele>
        <time>2021-02-03T11:16:04Z</time>
      </trkpt>
      <trkpt lat="45.39626" lon="6.12864">
        <ele>1671.5</ele>
        <time>2021-02-03T11:16:05Z</time>
      </trkpt>
      <trkpt lat="45.39627" lon="6.12864">
        <ele>1671.6</ele>
        <time>2021-02-03T11:16:06Z</time>
      </trkpt>
      <trkpt lat="45.39628" lon="6.12863">
        <ele>1671.7</ele>
        <time>2021-02-03T11:16:07Z</time>
      </trkpt>
      <trkpt lat="45.39629" lon="6.12862">
        <ele>1671.8</ele>
        <time>2021-02-03T11:16:08Z</time>
      </trkpt>
      <trkpt lat="45.3963" lon="6.12861">
        <ele>1671.9</ele>
        <time>2021-02-03T11:16:09Z</time>
      </trkpt>
      <trkpt lat="45.39631" lon="6.1286">
        <ele>1672.1</ele>
        <time>2021-02-03T11:16:10Z</time>
      </trkpt>
      <trkpt lat="45.39632" lon="6.1286">
        <ele>1672.2</ele>
        <time>2021-02-03T11:16:11Z</time>
      </trkpt>
      <trkpt lat="45.39633" lon="6.12859">
        <ele>1672.3</ele>
        <time>2021-02-03T11:16:12Z</time>
      </trkpt>
      <trkpt lat="45.39634" lon="6.12858">
        <ele>1672.5</ele>
        <time>2021-02-03T11:16:13Z</time>
      </trkpt>
      <trkpt lat="45.39634" lon="6.12857">
        <ele>1672.6</ele>
        <time>2021-02-03T11:16:14Z</time>
      </trkpt>
      <trkpt lat="45.39635" lon="6.12856">
        <ele>1672.7</ele>
        <time>2021-02-03T11:16:15Z</time>
      </trkpt>
      <trkpt lat="45.39636" lon="6.12855">
        <ele>1672.8</ele>
        <time>2021-02-03T11:16:16Z</time>
      </trkpt>
      <trkpt lat="45.39636" lon="6.12854">
        <ele>1672.9</ele>
        <time>2021-02-03T11:16:17Z</time>
      </trkpt>
      <trkpt lat="45.39637" lon="6.12853">
        <ele>1673</ele>
        <time>2021-02-03T11:16:18Z</time>
      </trkpt>
      <trkpt lat="45.39638" lon="6.12852">
        <ele>1673.2</ele>
        <time>2021-02-03T11:16:19Z</time>
      </trkpt>
      <trkpt lat="45.3964" lon="6.12851">
        <ele>1673.4</ele>
        <time>2021-02-03T11:16:20Z</time>
      </trkpt>
      <trkpt lat="45.39641" lon="6.1285">
        <ele>1673.5</ele>
        <time>2021-02-03T11:16:21Z</time>
      </trkpt>
      <trkpt lat="45.39642" lon="6.12849">
        <ele>1673.6</ele>
        <time>2021-02-03T11:16:22Z</time>
      </trkpt>
      <trkpt lat="45.39644" lon="6.12846">
        <ele>1673.9</ele>
        <time>2021-02-03T11:16:23Z</time>
      </trkpt>
      <trkpt lat="45.39645" lon="6.12845">
        <ele>1674</ele>
        <time>2021-02-03T11:16:24Z</time>
      </trkpt>
      <trkpt lat="45.39646" lon="6.12844">
        <ele>1674.2</ele>
        <time>2021-02-03T11:16:25Z</time>
      </trkpt>
      <trkpt lat="45.39647" lon="6.12842">
        <ele>1674.3</ele>
        <time>2021-02-03T11:16:26Z</time>
      </trkpt>
      <trkpt lat="45.39648" lon="6.12842">
        <ele>1674.4</ele>
        <time>2021-02-03T11:16:27Z</time>
      </trkpt>
      <trkpt lat="45.39648" lon="6.12842">
        <ele>1674.4</ele>
        <time>2021-02-03T11:16:28Z</time>
      </trkpt>
      <trkpt lat="45.39648" lon="6.12842">
        <ele>1674.4</ele>
        <time>2021-02-03T11:16:29Z</time>
      </trkpt>
      <trkpt lat="45.39648" lon="6.12841">
        <ele>1674.4</ele>
        <time>2021-02-03T11:16:30Z</time>
      </trkpt>
      <trkpt lat="45.39648" lon="6.12841">
        <ele>1674.5</ele>
        <time>2021-02-03T11:16:31Z</time>
      </trkpt>
      <trkpt lat="45.39649" lon="6.12841">
        <ele>1674.6</ele>
        <time>2021-02-03T11:16:32Z</time>
      </trkpt>
      <trkpt lat="45.3965" lon="6.1284">
        <ele>1674.7</ele>
        <time>2021-02-03T11:16:33Z</time>
      </trkpt>
      <trkpt lat="45.39651" lon="6.1284">
        <ele>1674.9</ele>
        <time>2021-02-03T11:16:34Z</time>
      </trkpt>
      <trkpt lat="45.39652" lon="6.12839">
        <ele>1675</ele>
        <time>2021-02-03T11:16:35Z</time>
      </trkpt>
      <trkpt lat="45.39653" lon="6.12839">
        <ele>1675</ele>
        <time>2021-02-03T11:16:36Z</time>
      </trkpt>
      <trkpt lat="45.39654" lon="6.12838">
        <ele>1675.1</ele>
        <time>2021-02-03T11:16:37Z</time>
      </trkpt>
      <trkpt lat="45.39654" lon="6.12837">
        <ele>1675.2</ele>
        <time>2021-02-03T11:16:38Z</time>
      </trkpt>
      <trkpt lat="45.39655" lon="6.12836">
        <ele>1675.3</ele>
        <time>2021-02-03T11:16:39Z</time>
      </trkpt>
      <trkpt lat="45.39655" lon="6.12835">
        <ele>1675.4</ele>
        <time>2021-02-03T11:16:40Z</time>
      </trkpt>
      <trkpt lat="45.39656" lon="6.12834">
        <ele>1675.5</ele>
        <time>2021-02-03T11:16:41Z</time>
      </trkpt>
      <trkpt lat="45.39656" lon="6.12833">
        <ele>1675.6</ele>
        <time>2021-02-03T11:16:42Z</time>
      </trkpt>
      <trkpt lat="45.39657" lon="6.12832">
        <ele>1675.7</ele>
        <time>2021-02-03T11:16:43Z</time>
      </trkpt>
      <trkpt lat="45.39658" lon="6.12831">
        <ele>1675.8</ele>
        <time>2021-02-03T11:16:44Z</time>
      </trkpt>
      <trkpt lat="45.39658" lon="6.1283">
        <ele>1675.9</ele>
        <time>2021-02-03T11:16:45Z</time>
      </trkpt>
      <trkpt lat="45.39659" lon="6.12829">
        <ele>1676</ele>
        <time>2021-02-03T11:16:46Z</time>
      </trkpt>
      <trkpt lat="45.3966" lon="6.12828">
        <ele>1676.1</ele>
        <time>2021-02-03T11:16:47Z</time>
      </trkpt>
      <trkpt lat="45.39661" lon="6.12827">
        <ele>1676.3</ele>
        <time>2021-02-03T11:16:48Z</time>
      </trkpt>
      <trkpt lat="45.39662" lon="6.12826">
        <ele>1676.4</ele>
        <time>2021-02-03T11:16:49Z</time>
      </trkpt>
      <trkpt lat="45.39663" lon="6.12826">
        <ele>1676.4</ele>
        <time>2021-02-03T11:16:50Z</time>
      </trkpt>
      <trkpt lat="45.39664" lon="6.12825">
        <ele>1676.6</ele>
        <time>2021-02-03T11:16:51Z</time>
      </trkpt>
      <trkpt lat="45.39665" lon="6.12824">
        <ele>1676.7</ele>
        <time>2021-02-03T11:16:52Z</time>
      </trkpt>
      <trkpt lat="45.39666" lon="6.12823">
        <ele>1676.8</ele>
        <time>2021-02-03T11:16:53Z</time>
      </trkpt>
      <trkpt lat="45.39667" lon="6.12822">
        <ele>1676.9</ele>
        <time>2021-02-03T11:16:54Z</time>
      </trkpt>
      <trkpt lat="45.39668" lon="6.12821">
        <ele>1677</ele>
        <time>2021-02-03T11:16:55Z</time>
      </trkpt>
      <trkpt lat="45.39669" lon="6.1282">
        <ele>1677.2</ele>
        <time>2021-02-03T11:16:56Z</time>
      </trkpt>
      <trkpt lat="45.3967" lon="6.12819">
        <ele>1677.3</ele>
        <time>2021-02-03T11:16:57Z</time>
      </trkpt>
      <trkpt lat="45.39672" lon="6.12818">
        <ele>1677.6</ele>
        <time>2021-02-03T11:16:58Z</time>
      </trkpt>
      <trkpt lat="45.39673" lon="6.12817">
        <ele>1677.7</ele>
        <time>2021-02-03T11:16:59Z</time>
      </trkpt>
      <trkpt lat="45.39674" lon="6.12817">
        <ele>1677.7</ele>
        <time>2021-02-03T11:17:00Z</time>
      </trkpt>
      <trkpt lat="45.39674" lon="6.12816">
        <ele>1677.8</ele>
        <time>2021-02-03T11:17:01Z</time>
      </trkpt>
      <trkpt lat="45.39675" lon="6.12815">
        <ele>1678</ele>
        <time>2021-02-03T11:17:02Z</time>
      </trkpt>
      <trkpt lat="45.39676" lon="6.12814">
        <ele>1678.1</ele>
        <time>2021-02-03T11:17:03Z</time>
      </trkpt>
      <trkpt lat="45.39676" lon="6.12812">
        <ele>1678.2</ele>
        <time>2021-02-03T11:17:04Z</time>
      </trkpt>
      <trkpt lat="45.39677" lon="6.12811">
        <ele>1678.3</ele>
        <time>2021-02-03T11:17:05Z</time>
      </trkpt>
      <trkpt lat="45.39677" lon="6.1281">
        <ele>1678.4</ele>
        <time>2021-02-03T11:17:06Z</time>
      </trkpt>
      <trkpt lat="45.39678" lon="6.12809">
        <ele>1678.5</ele>
        <time>2021-02-03T11:17:07Z</time>
      </trkpt>
      <trkpt lat="45.39678" lon="6.12808">
        <ele>1678.6</ele>
        <time>2021-02-03T11:17:08Z</time>
      </trkpt>
      <trkpt lat="45.39679" lon="6.12807">
        <ele>1678.7</ele>
        <time>2021-02-03T11:17:09Z</time>
      </trkpt>
      <trkpt lat="45.3968" lon="6.12806">
        <ele>1678.8</ele>
        <time>2021-02-03T11:17:10Z</time>
      </trkpt>
      <trkpt lat="45.3968" lon="6.12804">
        <ele>1678.9</ele>
        <time>2021-02-03T11:17:11Z</time>
      </trkpt>
      <trkpt lat="45.39681" lon="6.12803">
        <ele>1679.1</ele>
        <time>2021-02-03T11:17:12Z</time>
      </trkpt>
      <trkpt lat="45.39682" lon="6.12802">
        <ele>1679.2</ele>
        <time>2021-02-03T11:17:13Z</time>
      </trkpt>
      <trkpt lat="45.39683" lon="6.12801">
        <ele>1679.3</ele>
        <time>2021-02-03T11:17:14Z</time>
      </trkpt>
      <trkpt lat="45.39683" lon="6.128">
        <ele>1679.4</ele>
        <time>2021-02-03T11:17:15Z</time>
      </trkpt>
      <trkpt lat="45.39684" lon="6.12799">
        <ele>1679.5</ele>
        <time>2021-02-03T11:17:16Z</time>
      </trkpt>
      <trkpt lat="45.39684" lon="6.12798">
        <ele>1679.6</ele>
        <time>2021-02-03T11:17:17Z</time>
      </trkpt>
      <trkpt lat="45.39685" lon="6.12797">
        <ele>1679.7</ele>
        <time>2021-02-03T11:17:18Z</time>
      </trkpt>
      <trkpt lat="45.39685" lon="6.12795">
        <ele>1679.9</ele>
        <time>2021-02-03T11:17:19Z</time>
      </trkpt>
      <trkpt lat="45.39686" lon="6.12794">
        <ele>1680</ele>
        <time>2021-02-03T11:17:20Z</time>
      </trkpt>
      <trkpt lat="45.39687" lon="6.12793">
        <ele>1680.1</ele>
        <time>2021-02-03T11:17:21Z</time>
      </trkpt>
      <trkpt lat="45.39688" lon="6.12792">
        <ele>1680.2</ele>
        <time>2021-02-03T11:17:22Z</time>
      </trkpt>
      <trkpt lat="45.39688" lon="6.12791">
        <ele>1680.3</ele>
        <time>2021-02-03T11:17:23Z</time>
      </trkpt>
      <trkpt lat="45.39689" lon="6.1279">
        <ele>1680.4</ele>
        <time>2021-02-03T11:17:24Z</time>
      </trkpt>
      <trkpt lat="45.3969" lon="6.12789">
        <ele>1680.6</ele>
        <time>2021-02-03T11:17:25Z</time>
      </trkpt>
      <trkpt lat="45.39691" lon="6.12788">
        <ele>1680.7</ele>
        <time>2021-02-03T11:17:26Z</time>
      </trkpt>
      <trkpt lat="45.39692" lon="6.12787">
        <ele>1680.8</ele>
        <time>2021-02-03T11:17:27Z</time>
      </trkpt>
      <trkpt lat="45.39693" lon="6.12787">
        <ele>1681</ele>
        <time>2021-02-03T11:17:28Z</time>
      </trkpt>
      <trkpt lat="45.39694" lon="6.12786">
        <ele>1681.1</ele>
        <time>2021-02-03T11:17:29Z</time>
      </trkpt>
      <trkpt lat="45.39695" lon="6.12786">
        <ele>1681.2</ele>
        <time>2021-02-03T11:17:30Z</time>
      </trkpt>
      <trkpt lat="45.39696" lon="6.12785">
        <ele>1681.3</ele>
        <time>2021-02-03T11:17:31Z</time>
      </trkpt>
      <trkpt lat="45.39697" lon="6.12784">
        <ele>1681.4</ele>
        <time>2021-02-03T11:17:32Z</time>
      </trkpt>
      <trkpt lat="45.39698" lon="6.12784">
        <ele>1681.5</ele>
        <time>2021-02-03T11:17:33Z</time>
      </trkpt>
      <trkpt lat="45.39698" lon="6.12783">
        <ele>1681.6</ele>
        <time>2021-02-03T11:17:34Z</time>
      </trkpt>
      <trkpt lat="45.39699" lon="6.12783">
        <ele>1681.7</ele>
        <time>2021-02-03T11:17:35Z</time>
      </trkpt>
      <trkpt lat="45.397" lon="6.12782">
        <ele>1681.8</ele>
        <time>2021-02-03T11:17:36Z</time>
      </trkpt>
      <trkpt lat="45.39701" lon="6.12782">
        <ele>1681.9</ele>
        <time>2021-02-03T11:17:37Z</time>
      </trkpt>
      <trkpt lat="45.39702" lon="6.12781">
        <ele>1682</ele>
        <time>2021-02-03T11:17:38Z</time>
      </trkpt>
      <trkpt lat="45.39702" lon="6.12781">
        <ele>1682.1</ele>
        <time>2021-02-03T11:17:39Z</time>
      </trkpt>
      <trkpt lat="45.39703" lon="6.1278">
        <ele>1682.2</ele>
        <time>2021-02-03T11:17:40Z</time>
      </trkpt>
      <trkpt lat="45.39703" lon="6.1278">
        <ele>1682.3</ele>
        <time>2021-02-03T11:17:41Z</time>
      </trkpt>
      <trkpt lat="45.39704" lon="6.12779">
        <ele>1682.4</ele>
        <time>2021-02-03T11:17:42Z</time>
      </trkpt>
      <trkpt lat="45.39705" lon="6.12779">
        <ele>1682.5</ele>
        <time>2021-02-03T11:17:43Z</time>
      </trkpt>
      <trkpt lat="45.39706" lon="6.12779">
        <ele>1682.5</ele>
        <time>2021-02-03T11:17:44Z</time>
      </trkpt>
      <trkpt lat="45.39707" lon="6.12779">
        <ele>1682.7</ele>
        <time>2021-02-03T11:17:45Z</time>
      </trkpt>
      <trkpt lat="45.39708" lon="6.12779">
        <ele>1682.8</ele>
        <time>2021-02-03T11:17:46Z</time>
      </trkpt>
      <trkpt lat="45.39709" lon="6.12779">
        <ele>1682.9</ele>
        <time>2021-02-03T11:17:47Z</time>
      </trkpt>
      <trkpt lat="45.39711" lon="6.12779">
        <ele>1683.1</ele>
        <time>2021-02-03T11:17:48Z</time>
      </trkpt>
      <trkpt lat="45.39712" lon="6.12779">
        <ele>1683.2</ele>
        <time>2021-02-03T11:17:49Z</time>
      </trkpt>
      <trkpt lat="45.39713" lon="6.12779">
        <ele>1683.3</ele>
        <time>2021-02-03T11:17:50Z</time>
      </trkpt>
      <trkpt lat="45.39715" lon="6.12779">
        <ele>1683.5</ele>
        <time>2021-02-03T11:17:51Z</time>
      </trkpt>
      <trkpt lat="45.39716" lon="6.12779">
        <ele>1683.6</ele>
        <time>2021-02-03T11:17:52Z</time>
      </trkpt>
      <trkpt lat="45.39717" lon="6.12779">
        <ele>1683.7</ele>
        <time>2021-02-03T11:17:53Z</time>
      </trkpt>
      <trkpt lat="45.39717" lon="6.12779">
        <ele>1683.8</ele>
        <time>2021-02-03T11:17:54Z</time>
      </trkpt>
      <trkpt lat="45.39718" lon="6.12779">
        <ele>1683.9</ele>
        <time>2021-02-03T11:17:55Z</time>
      </trkpt>
      <trkpt lat="45.39719" lon="6.12779">
        <ele>1684</ele>
        <time>2021-02-03T11:17:56Z</time>
      </trkpt>
      <trkpt lat="45.3972" lon="6.12779">
        <ele>1684</ele>
        <time>2021-02-03T11:17:57Z</time>
      </trkpt>
      <trkpt lat="45.39721" lon="6.12779">
        <ele>1684.1</ele>
        <time>2021-02-03T11:17:58Z</time>
      </trkpt>
      <trkpt lat="45.39722" lon="6.12779">
        <ele>1684.2</ele>
        <time>2021-02-03T11:17:59Z</time>
      </trkpt>
      <trkpt lat="45.39723" lon="6.12779">
        <ele>1684.3</ele>
        <time>2021-02-03T11:18:00Z</time>
      </trkpt>
      <trkpt lat="45.39724" lon="6.12779">
        <ele>1684.4</ele>
        <time>2021-02-03T11:18:01Z</time>
      </trkpt>
      <trkpt lat="45.39725" lon="6.1278">
        <ele>1684.5</ele>
        <time>2021-02-03T11:18:02Z</time>
      </trkpt>
      <trkpt lat="45.39725" lon="6.1278">
        <ele>1684.6</ele>
        <time>2021-02-03T11:18:03Z</time>
      </trkpt>
      <trkpt lat="45.39726" lon="6.1278">
        <ele>1684.7</ele>
        <time>2021-02-03T11:18:04Z</time>
      </trkpt>
      <trkpt lat="45.39727" lon="6.12781">
        <ele>1684.8</ele>
        <time>2021-02-03T11:18:05Z</time>
      </trkpt>
      <trkpt lat="45.39728" lon="6.12781">
        <ele>1684.9</ele>
        <time>2021-02-03T11:18:06Z</time>
      </trkpt>
      <trkpt lat="45.39729" lon="6.12782">
        <ele>1685.1</ele>
        <time>2021-02-03T11:18:07Z</time>
      </trkpt>
      <trkpt lat="45.3973" lon="6.12782">
        <ele>1685.2</ele>
        <time>2021-02-03T11:18:08Z</time>
      </trkpt>
      <trkpt lat="45.39731" lon="6.12782">
        <ele>1685.3</ele>
        <time>2021-02-03T11:18:09Z</time>
      </trkpt>
      <trkpt lat="45.39732" lon="6.12783">
        <ele>1685.4</ele>
        <time>2021-02-03T11:18:10Z</time>
      </trkpt>
      <trkpt lat="45.39733" lon="6.12783">
        <ele>1685.5</ele>
        <time>2021-02-03T11:18:11Z</time>
      </trkpt>
      <trkpt lat="45.39734" lon="6.12784">
        <ele>1685.6</ele>
        <time>2021-02-03T11:18:12Z</time>
      </trkpt>
      <trkpt lat="45.39735" lon="6.12784">
        <ele>1685.7</ele>
        <time>2021-02-03T11:18:13Z</time>
      </trkpt>
      <trkpt lat="45.39736" lon="6.12785">
        <ele>1685.9</ele>
        <time>2021-02-03T11:18:14Z</time>
      </trkpt>
      <trkpt lat="45.39737" lon="6.12785">
        <ele>1686</ele>
        <time>2021-02-03T11:18:15Z</time>
      </trkpt>
      <trkpt lat="45.39738" lon="6.12785">
        <ele>1686.1</ele>
        <time>2021-02-03T11:18:16Z</time>
      </trkpt>
      <trkpt lat="45.39739" lon="6.12786">
        <ele>1686.2</ele>
        <time>2021-02-03T11:18:17Z</time>
      </trkpt>
      <trkpt lat="45.3974" lon="6.12786">
        <ele>1686.3</ele>
        <time>2021-02-03T11:18:18Z</time>
      </trkpt>
      <trkpt lat="45.39741" lon="6.12786">
        <ele>1686.4</ele>
        <time>2021-02-03T11:18:19Z</time>
      </trkpt>
      <trkpt lat="45.39741" lon="6.12786">
        <ele>1686.4</ele>
        <time>2021-02-03T11:18:20Z</time>
      </trkpt>
      <trkpt lat="45.39741" lon="6.12786">
        <ele>1686.4</ele>
        <time>2021-02-03T11:18:21Z</time>
      </trkpt>
      <trkpt lat="45.39741" lon="6.12786">
        <ele>1686.4</ele>
        <time>2021-02-03T11:18:22Z</time>
      </trkpt>
      <trkpt lat="45.39741" lon="6.12786">
        <ele>1686.4</ele>
        <time>2021-02-03T11:18:23Z</time>
      </trkpt>
      <trkpt lat="45.39741" lon="6.12785">
        <ele>1686.5</ele>
        <time>2021-02-03T11:18:24Z</time>
      </trkpt>
      <trkpt lat="45.39742" lon="6.12785">
        <ele>1686.6</ele>
        <time>2021-02-03T11:18:25Z</time>
      </trkpt>
      <trkpt lat="45.39743" lon="6.12786">
        <ele>1686.6</ele>
        <time>2021-02-03T11:18:26Z</time>
      </trkpt>
      <trkpt lat="45.39743" lon="6.12787">
        <ele>1686.7</ele>
        <time>2021-02-03T11:18:27Z</time>
      </trkpt>
      <trkpt lat="45.39743" lon="6.12787">
        <ele>1686.8</ele>
        <time>2021-02-03T11:18:28Z</time>
      </trkpt>
      <trkpt lat="45.39744" lon="6.12788">
        <ele>1686.9</ele>
        <time>2021-02-03T11:18:29Z</time>
      </trkpt>
      <trkpt lat="45.39745" lon="6.12789">
        <ele>1687</ele>
        <time>2021-02-03T11:18:30Z</time>
      </trkpt>
      <trkpt lat="45.39745" lon="6.12789">
        <ele>1687.1</ele>
        <time>2021-02-03T11:18:31Z</time>
      </trkpt>
      <trkpt lat="45.39746" lon="6.1279">
        <ele>1687.2</ele>
        <time>2021-02-03T11:18:32Z</time>
      </trkpt>
      <trkpt lat="45.39747" lon="6.12791">
        <ele>1687.3</ele>
        <time>2021-02-03T11:18:33Z</time>
      </trkpt>
      <trkpt lat="45.39748" lon="6.12791">
        <ele>1687.4</ele>
        <time>2021-02-03T11:18:34Z</time>
      </trkpt>
      <trkpt lat="45.39748" lon="6.12792">
        <ele>1687.5</ele>
        <time>2021-02-03T11:18:35Z</time>
      </trkpt>
      <trkpt lat="45.39749" lon="6.12793">
        <ele>1687.6</ele>
        <time>2021-02-03T11:18:36Z</time>
      </trkpt>
      <trkpt lat="45.39749" lon="6.12793">
        <ele>1687.6</ele>
        <time>2021-02-03T11:18:37Z</time>
      </trkpt>
      <trkpt lat="45.3975" lon="6.12793">
        <ele>1687.7</ele>
        <time>2021-02-03T11:18:38Z</time>
      </trkpt>
      <trkpt lat="45.3975" lon="6.12794">
        <ele>1687.7</ele>
        <time>2021-02-03T11:18:39Z</time>
      </trkpt>
      <trkpt lat="45.3975" lon="6.12794">
        <ele>1687.8</ele>
        <time>2021-02-03T11:18:40Z</time>
      </trkpt>
      <trkpt lat="45.39751" lon="6.12795">
        <ele>1687.9</ele>
        <time>2021-02-03T11:18:41Z</time>
      </trkpt>
      <trkpt lat="45.39751" lon="6.12796">
        <ele>1688</ele>
        <time>2021-02-03T11:18:42Z</time>
      </trkpt>
      <trkpt lat="45.39751" lon="6.12797">
        <ele>1688</ele>
        <time>2021-02-03T11:18:43Z</time>
      </trkpt>
      <trkpt lat="45.39752" lon="6.12798">
        <ele>1688.1</ele>
        <time>2021-02-03T11:18:44Z</time>
      </trkpt>
      <trkpt lat="45.39752" lon="6.12799">
        <ele>1688.2</ele>
        <time>2021-02-03T11:18:45Z</time>
      </trkpt>
      <trkpt lat="45.39753" lon="6.12799">
        <ele>1688.3</ele>
        <time>2021-02-03T11:18:46Z</time>
      </trkpt>
      <trkpt lat="45.39754" lon="6.128">
        <ele>1688.4</ele>
        <time>2021-02-03T11:18:47Z</time>
      </trkpt>
      <trkpt lat="45.39754" lon="6.12801">
        <ele>1688.5</ele>
        <time>2021-02-03T11:18:48Z</time>
      </trkpt>
      <trkpt lat="45.39755" lon="6.12802">
        <ele>1688.6</ele>
        <time>2021-02-03T11:18:49Z</time>
      </trkpt>
      <trkpt lat="45.39755" lon="6.12803">
        <ele>1688.7</ele>
        <time>2021-02-03T11:18:50Z</time>
      </trkpt>
      <trkpt lat="45.39755" lon="6.12804">
        <ele>1688.8</ele>
        <time>2021-02-03T11:18:51Z</time>
      </trkpt>
      <trkpt lat="45.39756" lon="6.12805">
        <ele>1689</ele>
        <time>2021-02-03T11:18:52Z</time>
      </trkpt>
      <trkpt lat="45.39756" lon="6.12807">
        <ele>1689.1</ele>
        <time>2021-02-03T11:18:53Z</time>
      </trkpt>
      <trkpt lat="45.39756" lon="6.12807">
        <ele>1689.2</ele>
        <time>2021-02-03T11:18:54Z</time>
      </trkpt>
      <trkpt lat="45.39757" lon="6.12808">
        <ele>1689.2</ele>
        <time>2021-02-03T11:18:55Z</time>
      </trkpt>
      <trkpt lat="45.39758" lon="6.12808">
        <ele>1689.3</ele>
        <time>2021-02-03T11:18:56Z</time>
      </trkpt>
      <trkpt lat="45.39758" lon="6.12809">
        <ele>1689.4</ele>
        <time>2021-02-03T11:18:57Z</time>
      </trkpt>
      <trkpt lat="45.39758" lon="6.1281">
        <ele>1689.5</ele>
        <time>2021-02-03T11:18:58Z</time>
      </trkpt>
      <trkpt lat="45.39759" lon="6.1281">
        <ele>1689.6</ele>
        <time>2021-02-03T11:18:59Z</time>
      </trkpt>
      <trkpt lat="45.39759" lon="6.12812">
        <ele>1689.7</ele>
        <time>2021-02-03T11:19:00Z</time>
      </trkpt>
      <trkpt lat="45.3976" lon="6.12812">
        <ele>1689.8</ele>
        <time>2021-02-03T11:19:01Z</time>
      </trkpt>
      <trkpt lat="45.3976" lon="6.12813">
        <ele>1689.9</ele>
        <time>2021-02-03T11:19:02Z</time>
      </trkpt>
      <trkpt lat="45.39761" lon="6.12814">
        <ele>1690</ele>
        <time>2021-02-03T11:19:03Z</time>
      </trkpt>
      <trkpt lat="45.39761" lon="6.12814">
        <ele>1690</ele>
        <time>2021-02-03T11:19:04Z</time>
      </trkpt>
      <trkpt lat="45.39762" lon="6.12815">
        <ele>1690.2</ele>
        <time>2021-02-03T11:19:05Z</time>
      </trkpt>
      <trkpt lat="45.39762" lon="6.12816">
        <ele>1690.2</ele>
        <time>2021-02-03T11:19:06Z</time>
      </trkpt>
      <trkpt lat="45.39763" lon="6.12816">
        <ele>1690.3</ele>
        <time>2021-02-03T11:19:07Z</time>
      </trkpt>
      <trkpt lat="45.39763" lon="6.12817">
        <ele>1690.3</ele>
        <time>2021-02-03T11:19:08Z</time>
      </trkpt>
      <trkpt lat="45.39763" lon="6.12817">
        <ele>1690.4</ele>
        <time>2021-02-03T11:19:09Z</time>
      </trkpt>
      <trkpt lat="45.39764" lon="6.12818">
        <ele>1690.5</ele>
        <time>2021-02-03T11:19:10Z</time>
      </trkpt>
      <trkpt lat="45.39764" lon="6.12818">
        <ele>1690.5</ele>
        <time>2021-02-03T11:19:11Z</time>
      </trkpt>
      <trkpt lat="45.39764" lon="6.12819">
        <ele>1690.6</ele>
        <time>2021-02-03T11:19:12Z</time>
      </trkpt>
      <trkpt lat="45.39764" lon="6.12819">
        <ele>1690.6</ele>
        <time>2021-02-03T11:19:13Z</time>
      </trkpt>
      <trkpt lat="45.39765" lon="6.1282">
        <ele>1690.7</ele>
        <time>2021-02-03T11:19:14Z</time>
      </trkpt>
      <trkpt lat="45.39765" lon="6.1282">
        <ele>1690.7</ele>
        <time>2021-02-03T11:19:15Z</time>
      </trkpt>
      <trkpt lat="45.39765" lon="6.12821">
        <ele>1690.8</ele>
        <time>2021-02-03T11:19:29Z</time>
      </trkpt>
      <trkpt lat="45.39765" lon="6.12821">
        <ele>1690.8</ele>
        <time>2021-02-03T11:19:30Z</time>
      </trkpt>
      <trkpt lat="45.39766" lon="6.12822">
        <ele>1690.9</ele>
        <time>2021-02-03T11:19:31Z</time>
      </trkpt>
      <trkpt lat="45.39766" lon="6.12822">
        <ele>1691</ele>
        <time>2021-02-03T11:19:32Z</time>
      </trkpt>
      <trkpt lat="45.39766" lon="6.12823">
        <ele>1691</ele>
        <time>2021-02-03T11:19:33Z</time>
      </trkpt>
      <trkpt lat="45.39767" lon="6.12823">
        <ele>1691.1</ele>
        <time>2021-02-03T11:19:34Z</time>
      </trkpt>
      <trkpt lat="45.39767" lon="6.12824">
        <ele>1691.1</ele>
        <time>2021-02-03T11:19:35Z</time>
      </trkpt>
      <trkpt lat="45.39767" lon="6.12824">
        <ele>1691.2</ele>
        <time>2021-02-03T11:19:36Z</time>
      </trkpt>
      <trkpt lat="45.39767" lon="6.12825">
        <ele>1691.3</ele>
        <time>2021-02-03T11:19:37Z</time>
      </trkpt>
      <trkpt lat="45.39768" lon="6.12825">
        <ele>1691.4</ele>
        <time>2021-02-03T11:19:38Z</time>
      </trkpt>
      <trkpt lat="45.39769" lon="6.12825">
        <ele>1691.5</ele>
        <time>2021-02-03T11:19:39Z</time>
      </trkpt>
      <trkpt lat="45.39769" lon="6.12824">
        <ele>1691.5</ele>
        <time>2021-02-03T11:19:40Z</time>
      </trkpt>
      <trkpt lat="45.3977" lon="6.12824">
        <ele>1691.6</ele>
        <time>2021-02-03T11:19:41Z</time>
      </trkpt>
      <trkpt lat="45.3977" lon="6.12823">
        <ele>1691.7</ele>
        <time>2021-02-03T11:19:42Z</time>
      </trkpt>
      <trkpt lat="45.3977" lon="6.12821">
        <ele>1691.9</ele>
        <time>2021-02-03T11:19:43Z</time>
      </trkpt>
      <trkpt lat="45.3977" lon="6.1282">
        <ele>1692</ele>
        <time>2021-02-03T11:19:44Z</time>
      </trkpt>
      <trkpt lat="45.39769" lon="6.12819">
        <ele>1692.1</ele>
        <time>2021-02-03T11:19:45Z</time>
      </trkpt>
      <trkpt lat="45.39769" lon="6.12817">
        <ele>1692.3</ele>
        <time>2021-02-03T11:19:46Z</time>
      </trkpt>
      <trkpt lat="45.39768" lon="6.12816">
        <ele>1692.4</ele>
        <time>2021-02-03T11:19:47Z</time>
      </trkpt>
      <trkpt lat="45.39768" lon="6.12815">
        <ele>1692.6</ele>
        <time>2021-02-03T11:19:48Z</time>
      </trkpt>
      <trkpt lat="45.39767" lon="6.12812">
        <ele>1692.8</ele>
        <time>2021-02-03T11:19:49Z</time>
      </trkpt>
      <trkpt lat="45.39766" lon="6.12811">
        <ele>1692.9</ele>
        <time>2021-02-03T11:19:50Z</time>
      </trkpt>
      <trkpt lat="45.39766" lon="6.1281">
        <ele>1693</ele>
        <time>2021-02-03T11:19:51Z</time>
      </trkpt>
      <trkpt lat="45.39765" lon="6.12808">
        <ele>1693.2</ele>
        <time>2021-02-03T11:19:52Z</time>
      </trkpt>
      <trkpt lat="45.39764" lon="6.12807">
        <ele>1693.4</ele>
        <time>2021-02-03T11:19:53Z</time>
      </trkpt>
      <trkpt lat="45.39763" lon="6.12804">
        <ele>1693.7</ele>
        <time>2021-02-03T11:19:54Z</time>
      </trkpt>
      <trkpt lat="45.39762" lon="6.12804">
        <ele>1693.8</ele>
        <time>2021-02-03T11:19:55Z</time>
      </trkpt>
      <trkpt lat="45.39761" lon="6.12803">
        <ele>1694</ele>
        <time>2021-02-03T11:19:56Z</time>
      </trkpt>
      <trkpt lat="45.3976" lon="6.12801">
        <ele>1694.1</ele>
        <time>2021-02-03T11:19:57Z</time>
      </trkpt>
      <trkpt lat="45.39759" lon="6.128">
        <ele>1694.4</ele>
        <time>2021-02-03T11:19:58Z</time>
      </trkpt>
      <trkpt lat="45.39757" lon="6.12797">
        <ele>1694.7</ele>
        <time>2021-02-03T11:19:59Z</time>
      </trkpt>
      <trkpt lat="45.39757" lon="6.12796">
        <ele>1694.9</ele>
        <time>2021-02-03T11:20:00Z</time>
      </trkpt>
      <trkpt lat="45.39755" lon="6.12795">
        <ele>1695.1</ele>
        <time>2021-02-03T11:20:01Z</time>
      </trkpt>
      <trkpt lat="45.39754" lon="6.12795">
        <ele>1695.2</ele>
        <time>2021-02-03T11:20:02Z</time>
      </trkpt>
      <trkpt lat="45.39754" lon="6.12795">
        <ele>1695.2</ele>
        <time>2021-02-03T11:20:03Z</time>
      </trkpt>
      <trkpt lat="45.39754" lon="6.12795">
        <ele>1695.2</ele>
        <time>2021-02-03T11:20:04Z</time>
      </trkpt>
      <trkpt lat="45.39753" lon="6.12797">
        <ele>1695.4</ele>
        <time>2021-02-03T11:20:05Z</time>
      </trkpt>
      <trkpt lat="45.39753" lon="6.12798">
        <ele>1695.5</ele>
        <time>2021-02-03T11:20:06Z</time>
      </trkpt>
      <trkpt lat="45.39754" lon="6.12799">
        <ele>1695.5</ele>
        <time>2021-02-03T11:20:07Z</time>
      </trkpt>
      <trkpt lat="45.39754" lon="6.128">
        <ele>1695.6</ele>
        <time>2021-02-03T11:20:08Z</time>
      </trkpt>
      <trkpt lat="45.39754" lon="6.128">
        <ele>1695.7</ele>
        <time>2021-02-03T11:20:09Z</time>
      </trkpt>
      <trkpt lat="45.39754" lon="6.12801">
        <ele>1695.8</ele>
        <time>2021-02-03T11:20:10Z</time>
      </trkpt>
      <trkpt lat="45.39754" lon="6.12802">
        <ele>1695.9</ele>
        <time>2021-02-03T11:20:11Z</time>
      </trkpt>
      <trkpt lat="45.39754" lon="6.12803">
        <ele>1696</ele>
        <time>2021-02-03T11:20:12Z</time>
      </trkpt>
      <trkpt lat="45.39754" lon="6.12804">
        <ele>1696</ele>
        <time>2021-02-03T11:20:30Z</time>
      </trkpt>
      <trkpt lat="45.39755" lon="6.12805">
        <ele>1696.1</ele>
        <time>2021-02-03T11:20:31Z</time>
      </trkpt>
      <trkpt lat="45.39755" lon="6.12806">
        <ele>1696.2</ele>
        <time>2021-02-03T11:20:32Z</time>
      </trkpt>
      <trkpt lat="45.39755" lon="6.12807">
        <ele>1696.3</ele>
        <time>2021-02-03T11:20:33Z</time>
      </trkpt>
      <trkpt lat="45.39755" lon="6.12808">
        <ele>1696.4</ele>
        <time>2021-02-03T11:20:34Z</time>
      </trkpt>
      <trkpt lat="45.39755" lon="6.12808">
        <ele>1696.5</ele>
        <time>2021-02-03T11:20:35Z</time>
      </trkpt>
      <trkpt lat="45.39756" lon="6.12809">
        <ele>1696.6</ele>
        <time>2021-02-03T11:20:36Z</time>
      </trkpt>
      <trkpt lat="45.39756" lon="6.12809">
        <ele>1696.6</ele>
        <time>2021-02-03T11:20:37Z</time>
      </trkpt>
      <trkpt lat="45.39757" lon="6.1281">
        <ele>1696.7</ele>
        <time>2021-02-03T11:20:38Z</time>
      </trkpt>
      <trkpt lat="45.39758" lon="6.1281">
        <ele>1696.8</ele>
        <time>2021-02-03T11:20:39Z</time>
      </trkpt>
      <trkpt lat="45.39758" lon="6.12811">
        <ele>1696.9</ele>
        <time>2021-02-03T11:20:40Z</time>
      </trkpt>
      <trkpt lat="45.39759" lon="6.12812">
        <ele>1697</ele>
        <time>2021-02-03T11:20:41Z</time>
      </trkpt>
      <trkpt lat="45.39759" lon="6.12813">
        <ele>1697.1</ele>
        <time>2021-02-03T11:20:42Z</time>
      </trkpt>
      <trkpt lat="45.39759" lon="6.12813">
        <ele>1697.2</ele>
        <time>2021-02-03T11:20:43Z</time>
      </trkpt>
      <trkpt lat="45.3976" lon="6.12815">
        <ele>1697.3</ele>
        <time>2021-02-03T11:20:44Z</time>
      </trkpt>
      <trkpt lat="45.3976" lon="6.12815">
        <ele>1697.4</ele>
        <time>2021-02-03T11:20:45Z</time>
      </trkpt>
      <trkpt lat="45.3976" lon="6.12816">
        <ele>1697.5</ele>
        <time>2021-02-03T11:20:46Z</time>
      </trkpt>
      <trkpt lat="45.39761" lon="6.12817">
        <ele>1697.6</ele>
        <time>2021-02-03T11:20:47Z</time>
      </trkpt>
      <trkpt lat="45.39761" lon="6.12818">
        <ele>1697.6</ele>
        <time>2021-02-03T11:20:48Z</time>
      </trkpt>
      <trkpt lat="45.39761" lon="6.12818">
        <ele>1697.7</ele>
        <time>2021-02-03T11:20:49Z</time>
      </trkpt>
      <trkpt lat="45.39762" lon="6.12819">
        <ele>1697.8</ele>
        <time>2021-02-03T11:20:50Z</time>
      </trkpt>
      <trkpt lat="45.39762" lon="6.12819">
        <ele>1697.9</ele>
        <time>2021-02-03T11:20:51Z</time>
      </trkpt>
      <trkpt lat="45.39763" lon="6.1282">
        <ele>1698</ele>
        <time>2021-02-03T11:20:52Z</time>
      </trkpt>
      <trkpt lat="45.39763" lon="6.12821">
        <ele>1698</ele>
        <time>2021-02-03T11:20:53Z</time>
      </trkpt>
      <trkpt lat="45.39764" lon="6.12822">
        <ele>1698.1</ele>
        <time>2021-02-03T11:20:54Z</time>
      </trkpt>
      <trkpt lat="45.39764" lon="6.12822">
        <ele>1698.2</ele>
        <time>2021-02-03T11:20:55Z</time>
      </trkpt>
      <trkpt lat="45.39765" lon="6.12823">
        <ele>1698.3</ele>
        <time>2021-02-03T11:20:56Z</time>
      </trkpt>
      <trkpt lat="45.39765" lon="6.12824">
        <ele>1698.4</ele>
        <time>2021-02-03T11:20:57Z</time>
      </trkpt>
      <trkpt lat="45.39765" lon="6.12825">
        <ele>1698.5</ele>
        <time>2021-02-03T11:20:58Z</time>
      </trkpt>
      <trkpt lat="45.39766" lon="6.12825">
        <ele>1698.5</ele>
        <time>2021-02-03T11:20:59Z</time>
      </trkpt>
      <trkpt lat="45.39766" lon="6.12825">
        <ele>1698.6</ele>
        <time>2021-02-03T11:21:00Z</time>
      </trkpt>
      <trkpt lat="45.39767" lon="6.12826">
        <ele>1698.7</ele>
        <time>2021-02-03T11:21:01Z</time>
      </trkpt>
      <trkpt lat="45.39767" lon="6.12826">
        <ele>1698.7</ele>
        <time>2021-02-03T11:21:02Z</time>
      </trkpt>
      <trkpt lat="45.39768" lon="6.12827">
        <ele>1698.8</ele>
        <time>2021-02-03T11:21:03Z</time>
      </trkpt>
      <trkpt lat="45.39768" lon="6.12828">
        <ele>1698.9</ele>
        <time>2021-02-03T11:21:04Z</time>
      </trkpt>
      <trkpt lat="45.39769" lon="6.12828">
        <ele>1699</ele>
        <time>2021-02-03T11:21:05Z</time>
      </trkpt>
      <trkpt lat="45.3977" lon="6.12829">
        <ele>1699.1</ele>
        <time>2021-02-03T11:21:06Z</time>
      </trkpt>
      <trkpt lat="45.3977" lon="6.1283">
        <ele>1699.2</ele>
        <time>2021-02-03T11:21:07Z</time>
      </trkpt>
      <trkpt lat="45.3977" lon="6.12831">
        <ele>1699.3</ele>
        <time>2021-02-03T11:21:08Z</time>
      </trkpt>
      <trkpt lat="45.39771" lon="6.12832">
        <ele>1699.4</ele>
        <time>2021-02-03T11:21:09Z</time>
      </trkpt>
      <trkpt lat="45.39771" lon="6.12833">
        <ele>1699.5</ele>
        <time>2021-02-03T11:21:10Z</time>
      </trkpt>
      <trkpt lat="45.39772" lon="6.12834">
        <ele>1699.6</ele>
        <time>2021-02-03T11:21:11Z</time>
      </trkpt>
      <trkpt lat="45.39772" lon="6.12836">
        <ele>1699.8</ele>
        <time>2021-02-03T11:21:12Z</time>
      </trkpt>
      <trkpt lat="45.39772" lon="6.12837">
        <ele>1699.9</ele>
        <time>2021-02-03T11:21:13Z</time>
      </trkpt>
      <trkpt lat="45.39772" lon="6.12838">
        <ele>1700</ele>
        <time>2021-02-03T11:21:14Z</time>
      </trkpt>
      <trkpt lat="45.39772" lon="6.12839">
        <ele>1700</ele>
        <time>2021-02-03T11:21:15Z</time>
      </trkpt>
      <trkpt lat="45.39773" lon="6.1284">
        <ele>1700.1</ele>
        <time>2021-02-03T11:21:16Z</time>
      </trkpt>
      <trkpt lat="45.39773" lon="6.12841">
        <ele>1700.2</ele>
        <time>2021-02-03T11:21:17Z</time>
      </trkpt>
      <trkpt lat="45.39773" lon="6.12842">
        <ele>1700.3</ele>
        <time>2021-02-03T11:21:18Z</time>
      </trkpt>
      <trkpt lat="45.39774" lon="6.12843">
        <ele>1700.4</ele>
        <time>2021-02-03T11:21:19Z</time>
      </trkpt>
      <trkpt lat="45.39774" lon="6.12844">
        <ele>1700.5</ele>
        <time>2021-02-03T11:21:20Z</time>
      </trkpt>
      <trkpt lat="45.39774" lon="6.12845">
        <ele>1700.6</ele>
        <time>2021-02-03T11:21:21Z</time>
      </trkpt>
      <trkpt lat="45.39775" lon="6.12846">
        <ele>1700.7</ele>
        <time>2021-02-03T11:21:22Z</time>
      </trkpt>
      <trkpt lat="45.39775" lon="6.12847">
        <ele>1700.9</ele>
        <time>2021-02-03T11:21:23Z</time>
      </trkpt>
      <trkpt lat="45.39775" lon="6.12849">
        <ele>1701</ele>
        <time>2021-02-03T11:21:24Z</time>
      </trkpt>
      <trkpt lat="45.39775" lon="6.1285">
        <ele>1701.1</ele>
        <time>2021-02-03T11:21:25Z</time>
      </trkpt>
      <trkpt lat="45.39775" lon="6.12851">
        <ele>1701.2</ele>
        <time>2021-02-03T11:21:26Z</time>
      </trkpt>
      <trkpt lat="45.39776" lon="6.12851">
        <ele>1701.3</ele>
        <time>2021-02-03T11:21:27Z</time>
      </trkpt>
      <trkpt lat="45.39777" lon="6.12852">
        <ele>1701.4</ele>
        <time>2021-02-03T11:21:28Z</time>
      </trkpt>
      <trkpt lat="45.39777" lon="6.12853">
        <ele>1701.5</ele>
        <time>2021-02-03T11:21:29Z</time>
      </trkpt>
      <trkpt lat="45.39778" lon="6.12854">
        <ele>1701.6</ele>
        <time>2021-02-03T11:21:30Z</time>
      </trkpt>
      <trkpt lat="45.39778" lon="6.12855">
        <ele>1701.7</ele>
        <time>2021-02-03T11:21:31Z</time>
      </trkpt>
      <trkpt lat="45.39779" lon="6.12856">
        <ele>1701.8</ele>
        <time>2021-02-03T11:21:32Z</time>
      </trkpt>
      <trkpt lat="45.3978" lon="6.12857">
        <ele>1702</ele>
        <time>2021-02-03T11:21:33Z</time>
      </trkpt>
      <trkpt lat="45.3978" lon="6.12858">
        <ele>1702.1</ele>
        <time>2021-02-03T11:21:34Z</time>
      </trkpt>
      <trkpt lat="45.39781" lon="6.12859">
        <ele>1702.2</ele>
        <time>2021-02-03T11:21:35Z</time>
      </trkpt>
      <trkpt lat="45.39781" lon="6.1286">
        <ele>1702.3</ele>
        <time>2021-02-03T11:21:36Z</time>
      </trkpt>
      <trkpt lat="45.39782" lon="6.12861">
        <ele>1702.4</ele>
        <time>2021-02-03T11:21:53Z</time>
      </trkpt>
      <trkpt lat="45.39782" lon="6.12862">
        <ele>1702.5</ele>
        <time>2021-02-03T11:21:54Z</time>
      </trkpt>
      <trkpt lat="45.39783" lon="6.12863">
        <ele>1702.6</ele>
        <time>2021-02-03T11:21:55Z</time>
      </trkpt>
      <trkpt lat="45.39783" lon="6.12864">
        <ele>1702.7</ele>
        <time>2021-02-03T11:21:56Z</time>
      </trkpt>
      <trkpt lat="45.39784" lon="6.12865">
        <ele>1702.8</ele>
        <time>2021-02-03T11:21:57Z</time>
      </trkpt>
      <trkpt lat="45.39785" lon="6.12866">
        <ele>1702.9</ele>
        <time>2021-02-03T11:21:58Z</time>
      </trkpt>
      <trkpt lat="45.39785" lon="6.12867">
        <ele>1703</ele>
        <time>2021-02-03T11:21:59Z</time>
      </trkpt>
      <trkpt lat="45.39785" lon="6.12868">
        <ele>1703.2</ele>
        <time>2021-02-03T11:22:00Z</time>
      </trkpt>
      <trkpt lat="45.39786" lon="6.12869">
        <ele>1703.3</ele>
        <time>2021-02-03T11:22:01Z</time>
      </trkpt>
      <trkpt lat="45.39787" lon="6.12871">
        <ele>1703.4</ele>
        <time>2021-02-03T11:22:02Z</time>
      </trkpt>
      <trkpt lat="45.39787" lon="6.12872">
        <ele>1703.6</ele>
        <time>2021-02-03T11:22:03Z</time>
      </trkpt>
      <trkpt lat="45.39788" lon="6.12873">
        <ele>1703.7</ele>
        <time>2021-02-03T11:22:04Z</time>
      </trkpt>
      <trkpt lat="45.39788" lon="6.12875">
        <ele>1703.8</ele>
        <time>2021-02-03T11:22:05Z</time>
      </trkpt>
      <trkpt lat="45.39789" lon="6.12876">
        <ele>1704</ele>
        <time>2021-02-03T11:22:06Z</time>
      </trkpt>
      <trkpt lat="45.39789" lon="6.12877">
        <ele>1704.1</ele>
        <time>2021-02-03T11:22:07Z</time>
      </trkpt>
      <trkpt lat="45.3979" lon="6.12878">
        <ele>1704.2</ele>
        <time>2021-02-03T11:22:08Z</time>
      </trkpt>
      <trkpt lat="45.39791" lon="6.12879">
        <ele>1704.3</ele>
        <time>2021-02-03T11:22:09Z</time>
      </trkpt>
      <trkpt lat="45.39791" lon="6.1288">
        <ele>1704.4</ele>
        <time>2021-02-03T11:22:10Z</time>
      </trkpt>
      <trkpt lat="45.39791" lon="6.12881">
        <ele>1704.5</ele>
        <time>2021-02-03T11:22:11Z</time>
      </trkpt>
      <trkpt lat="45.39792" lon="6.12882">
        <ele>1704.6</ele>
        <time>2021-02-03T11:22:12Z</time>
      </trkpt>
      <trkpt lat="45.39792" lon="6.12883">
        <ele>1704.7</ele>
        <time>2021-02-03T11:22:13Z</time>
      </trkpt>
      <trkpt lat="45.39793" lon="6.12884">
        <ele>1704.9</ele>
        <time>2021-02-03T11:22:14Z</time>
      </trkpt>
      <trkpt lat="45.39793" lon="6.12885">
        <ele>1705</ele>
        <time>2021-02-03T11:22:15Z</time>
      </trkpt>
      <trkpt lat="45.39794" lon="6.12885">
        <ele>1705.1</ele>
        <time>2021-02-03T11:22:16Z</time>
      </trkpt>
      <trkpt lat="45.39795" lon="6.12886">
        <ele>1705.2</ele>
        <time>2021-02-03T11:22:17Z</time>
      </trkpt>
      <trkpt lat="45.39796" lon="6.12886">
        <ele>1705.3</ele>
        <time>2021-02-03T11:22:18Z</time>
      </trkpt>
      <trkpt lat="45.39796" lon="6.12886">
        <ele>1705.4</ele>
        <time>2021-02-03T11:22:19Z</time>
      </trkpt>
      <trkpt lat="45.39797" lon="6.12887">
        <ele>1705.5</ele>
        <time>2021-02-03T11:22:20Z</time>
      </trkpt>
      <trkpt lat="45.39797" lon="6.12888">
        <ele>1705.6</ele>
        <time>2021-02-03T11:22:21Z</time>
      </trkpt>
      <trkpt lat="45.39798" lon="6.12889">
        <ele>1705.7</ele>
        <time>2021-02-03T11:22:22Z</time>
      </trkpt>
      <trkpt lat="45.39799" lon="6.1289">
        <ele>1705.9</ele>
        <time>2021-02-03T11:22:23Z</time>
      </trkpt>
      <trkpt lat="45.39799" lon="6.12891">
        <ele>1706</ele>
        <time>2021-02-03T11:22:24Z</time>
      </trkpt>
      <trkpt lat="45.398" lon="6.12893">
        <ele>1706.2</ele>
        <time>2021-02-03T11:22:25Z</time>
      </trkpt>
      <trkpt lat="45.398" lon="6.12894">
        <ele>1706.3</ele>
        <time>2021-02-03T11:22:26Z</time>
      </trkpt>
      <trkpt lat="45.39801" lon="6.12895">
        <ele>1706.4</ele>
        <time>2021-02-03T11:22:27Z</time>
      </trkpt>
      <trkpt lat="45.39801" lon="6.12897">
        <ele>1706.6</ele>
        <time>2021-02-03T11:22:28Z</time>
      </trkpt>
      <trkpt lat="45.39801" lon="6.12899">
        <ele>1706.8</ele>
        <time>2021-02-03T11:22:29Z</time>
      </trkpt>
      <trkpt lat="45.39801" lon="6.12901">
        <ele>1707</ele>
        <time>2021-02-03T11:22:30Z</time>
      </trkpt>
      <trkpt lat="45.39802" lon="6.12902">
        <ele>1707.1</ele>
        <time>2021-02-03T11:22:31Z</time>
      </trkpt>
      <trkpt lat="45.39802" lon="6.12904">
        <ele>1707.3</ele>
        <time>2021-02-03T11:22:32Z</time>
      </trkpt>
      <trkpt lat="45.39802" lon="6.12905">
        <ele>1707.4</ele>
        <time>2021-02-03T11:22:33Z</time>
      </trkpt>
      <trkpt lat="45.39803" lon="6.12906">
        <ele>1707.5</ele>
        <time>2021-02-03T11:22:34Z</time>
      </trkpt>
      <trkpt lat="45.39803" lon="6.12906">
        <ele>1707.6</ele>
        <time>2021-02-03T11:22:35Z</time>
      </trkpt>
      <trkpt lat="45.39804" lon="6.12907">
        <ele>1707.8</ele>
        <time>2021-02-03T11:22:36Z</time>
      </trkpt>
      <trkpt lat="45.39805" lon="6.12908">
        <ele>1707.9</ele>
        <time>2021-02-03T11:22:37Z</time>
      </trkpt>
      <trkpt lat="45.39805" lon="6.12909">
        <ele>1708</ele>
        <time>2021-02-03T11:22:38Z</time>
      </trkpt>
      <trkpt lat="45.39806" lon="6.1291">
        <ele>1708.1</ele>
        <time>2021-02-03T11:22:39Z</time>
      </trkpt>
      <trkpt lat="45.39806" lon="6.12911">
        <ele>1708.2</ele>
        <time>2021-02-03T11:22:40Z</time>
      </trkpt>
      <trkpt lat="45.39806" lon="6.12912">
        <ele>1708.4</ele>
        <time>2021-02-03T11:22:41Z</time>
      </trkpt>
      <trkpt lat="45.39806" lon="6.12914">
        <ele>1708.5</ele>
        <time>2021-02-03T11:22:42Z</time>
      </trkpt>
      <trkpt lat="45.39807" lon="6.12915">
        <ele>1708.6</ele>
        <time>2021-02-03T11:22:43Z</time>
      </trkpt>
      <trkpt lat="45.39807" lon="6.12916">
        <ele>1708.8</ele>
        <time>2021-02-03T11:22:44Z</time>
      </trkpt>
      <trkpt lat="45.39807" lon="6.12918">
        <ele>1708.9</ele>
        <time>2021-02-03T11:22:45Z</time>
      </trkpt>
      <trkpt lat="45.39808" lon="6.12919">
        <ele>1709.1</ele>
        <time>2021-02-03T11:22:46Z</time>
      </trkpt>
      <trkpt lat="45.39808" lon="6.12921">
        <ele>1709.3</ele>
        <time>2021-02-03T11:22:47Z</time>
      </trkpt>
      <trkpt lat="45.39808" lon="6.12923">
        <ele>1709.5</ele>
        <time>2021-02-03T11:22:48Z</time>
      </trkpt>
      <trkpt lat="45.39809" lon="6.12925">
        <ele>1709.7</ele>
        <time>2021-02-03T11:22:49Z</time>
      </trkpt>
      <trkpt lat="45.39809" lon="6.12927">
        <ele>1709.9</ele>
        <time>2021-02-03T11:22:50Z</time>
      </trkpt>
      <trkpt lat="45.3981" lon="6.1293">
        <ele>1710.2</ele>
        <time>2021-02-03T11:22:51Z</time>
      </trkpt>
      <trkpt lat="45.3981" lon="6.12932">
        <ele>1710.3</ele>
        <time>2021-02-03T11:22:52Z</time>
      </trkpt>
      <trkpt lat="45.3981" lon="6.12933">
        <ele>1710.5</ele>
        <time>2021-02-03T11:22:53Z</time>
      </trkpt>
      <trkpt lat="45.39811" lon="6.12935">
        <ele>1710.7</ele>
        <time>2021-02-03T11:22:54Z</time>
      </trkpt>
      <trkpt lat="45.39811" lon="6.12936">
        <ele>1710.8</ele>
        <time>2021-02-03T11:22:55Z</time>
      </trkpt>
      <trkpt lat="45.39812" lon="6.12937">
        <ele>1711</ele>
        <time>2021-02-03T11:22:56Z</time>
      </trkpt>
      <trkpt lat="45.39813" lon="6.12937">
        <ele>1711.1</ele>
        <time>2021-02-03T11:22:57Z</time>
      </trkpt>
      <trkpt lat="45.39814" lon="6.12937">
        <ele>1711.2</ele>
        <time>2021-02-03T11:22:58Z</time>
      </trkpt>
      <trkpt lat="45.39815" lon="6.12938">
        <ele>1711.3</ele>
        <time>2021-02-03T11:22:59Z</time>
      </trkpt>
      <trkpt lat="45.39815" lon="6.12938">
        <ele>1711.4</ele>
        <time>2021-02-03T11:23:00Z</time>
      </trkpt>
      <trkpt lat="45.39816" lon="6.12939">
        <ele>1711.6</ele>
        <time>2021-02-03T11:23:01Z</time>
      </trkpt>
      <trkpt lat="45.39817" lon="6.12939">
        <ele>1711.7</ele>
        <time>2021-02-03T11:23:02Z</time>
      </trkpt>
      <trkpt lat="45.39818" lon="6.12939">
        <ele>1711.8</ele>
        <time>2021-02-03T11:23:03Z</time>
      </trkpt>
      <trkpt lat="45.39819" lon="6.1294">
        <ele>1712</ele>
        <time>2021-02-03T11:23:04Z</time>
      </trkpt>
      <trkpt lat="45.3982" lon="6.12939">
        <ele>1712.1</ele>
        <time>2021-02-03T11:23:05Z</time>
      </trkpt>
      <trkpt lat="45.39821" lon="6.12939">
        <ele>1712.2</ele>
        <time>2021-02-03T11:23:06Z</time>
      </trkpt>
      <trkpt lat="45.39822" lon="6.12939">
        <ele>1712.4</ele>
        <time>2021-02-03T11:23:07Z</time>
      </trkpt>
      <trkpt lat="45.39823" lon="6.12939">
        <ele>1712.5</ele>
        <time>2021-02-03T11:23:08Z</time>
      </trkpt>
      <trkpt lat="45.39824" lon="6.12939">
        <ele>1712.7</ele>
        <time>2021-02-03T11:23:09Z</time>
      </trkpt>
      <trkpt lat="45.39825" lon="6.12939">
        <ele>1712.8</ele>
        <time>2021-02-03T11:23:10Z</time>
      </trkpt>
      <trkpt lat="45.39826" lon="6.1294">
        <ele>1713</ele>
        <time>2021-02-03T11:23:11Z</time>
      </trkpt>
      <trkpt lat="45.39827" lon="6.12941">
        <ele>1713.1</ele>
        <time>2021-02-03T11:23:12Z</time>
      </trkpt>
      <trkpt lat="45.39828" lon="6.12942">
        <ele>1713.3</ele>
        <time>2021-02-03T11:23:13Z</time>
      </trkpt>
      <trkpt lat="45.39828" lon="6.12943">
        <ele>1713.4</ele>
        <time>2021-02-03T11:23:14Z</time>
      </trkpt>
      <trkpt lat="45.39829" lon="6.12943">
        <ele>1713.6</ele>
        <time>2021-02-03T11:23:15Z</time>
      </trkpt>
      <trkpt lat="45.3983" lon="6.12945">
        <ele>1713.7</ele>
        <time>2021-02-03T11:23:16Z</time>
      </trkpt>
      <trkpt lat="45.39831" lon="6.12945">
        <ele>1713.9</ele>
        <time>2021-02-03T11:23:17Z</time>
      </trkpt>
      <trkpt lat="45.39831" lon="6.12946">
        <ele>1714</ele>
        <time>2021-02-03T11:23:18Z</time>
      </trkpt>
      <trkpt lat="45.39832" lon="6.12946">
        <ele>1714.1</ele>
        <time>2021-02-03T11:23:19Z</time>
      </trkpt>
      <trkpt lat="45.39833" lon="6.12947">
        <ele>1714.2</ele>
        <time>2021-02-03T11:23:20Z</time>
      </trkpt>
      <trkpt lat="45.39834" lon="6.12948">
        <ele>1714.4</ele>
        <time>2021-02-03T11:23:21Z</time>
      </trkpt>
      <trkpt lat="45.39834" lon="6.1295">
        <ele>1714.6</ele>
        <time>2021-02-03T11:23:22Z</time>
      </trkpt>
      <trkpt lat="45.39835" lon="6.12951">
        <ele>1714.7</ele>
        <time>2021-02-03T11:23:23Z</time>
      </trkpt>
      <trkpt lat="45.39835" lon="6.12952">
        <ele>1714.9</ele>
        <time>2021-02-03T11:23:24Z</time>
      </trkpt>
      <trkpt lat="45.39836" lon="6.12955">
        <ele>1715.2</ele>
        <time>2021-02-03T11:23:25Z</time>
      </trkpt>
      <trkpt lat="45.39836" lon="6.12956">
        <ele>1715.3</ele>
        <time>2021-02-03T11:23:26Z</time>
      </trkpt>
      <trkpt lat="45.39837" lon="6.12957">
        <ele>1715.5</ele>
        <time>2021-02-03T11:23:27Z</time>
      </trkpt>
      <trkpt lat="45.39837" lon="6.12959">
        <ele>1715.6</ele>
        <time>2021-02-03T11:23:28Z</time>
      </trkpt>
      <trkpt lat="45.39837" lon="6.12961">
        <ele>1715.8</ele>
        <time>2021-02-03T11:23:29Z</time>
      </trkpt>
      <trkpt lat="45.39838" lon="6.12962">
        <ele>1716</ele>
        <time>2021-02-03T11:23:30Z</time>
      </trkpt>
      <trkpt lat="45.39838" lon="6.12963">
        <ele>1716.1</ele>
        <time>2021-02-03T11:23:31Z</time>
      </trkpt>
      <trkpt lat="45.39838" lon="6.12964">
        <ele>1716.3</ele>
        <time>2021-02-03T11:23:32Z</time>
      </trkpt>
      <trkpt lat="45.39839" lon="6.12965">
        <ele>1716.4</ele>
        <time>2021-02-03T11:23:33Z</time>
      </trkpt>
      <trkpt lat="45.3984" lon="6.12966">
        <ele>1716.5</ele>
        <time>2021-02-03T11:23:34Z</time>
      </trkpt>
      <trkpt lat="45.3984" lon="6.12967">
        <ele>1716.7</ele>
        <time>2021-02-03T11:23:35Z</time>
      </trkpt>
      <trkpt lat="45.39841" lon="6.12968">
        <ele>1716.8</ele>
        <time>2021-02-03T11:23:36Z</time>
      </trkpt>
      <trkpt lat="45.39842" lon="6.12969">
        <ele>1716.9</ele>
        <time>2021-02-03T11:23:37Z</time>
      </trkpt>
      <trkpt lat="45.39843" lon="6.1297">
        <ele>1717.1</ele>
        <time>2021-02-03T11:23:38Z</time>
      </trkpt>
      <trkpt lat="45.39843" lon="6.12971">
        <ele>1717.3</ele>
        <time>2021-02-03T11:23:39Z</time>
      </trkpt>
      <trkpt lat="45.39844" lon="6.12971">
        <ele>1717.4</ele>
        <time>2021-02-03T11:23:40Z</time>
      </trkpt>
      <trkpt lat="45.39845" lon="6.12972">
        <ele>1717.5</ele>
        <time>2021-02-03T11:23:41Z</time>
      </trkpt>
      <trkpt lat="45.39845" lon="6.12973">
        <ele>1717.7</ele>
        <time>2021-02-03T11:23:42Z</time>
      </trkpt>
      <trkpt lat="45.39846" lon="6.12973">
        <ele>1717.8</ele>
        <time>2021-02-03T11:23:43Z</time>
      </trkpt>
      <trkpt lat="45.39847" lon="6.12974">
        <ele>1717.9</ele>
        <time>2021-02-03T11:23:44Z</time>
      </trkpt>
      <trkpt lat="45.39847" lon="6.12976">
        <ele>1718.1</ele>
        <time>2021-02-03T11:23:45Z</time>
      </trkpt>
      <trkpt lat="45.39848" lon="6.12977">
        <ele>1718.3</ele>
        <time>2021-02-03T11:23:46Z</time>
      </trkpt>
      <trkpt lat="45.39848" lon="6.12978">
        <ele>1718.4</ele>
        <time>2021-02-03T11:23:47Z</time>
      </trkpt>
      <trkpt lat="45.39849" lon="6.12979">
        <ele>1718.6</ele>
        <time>2021-02-03T11:23:48Z</time>
      </trkpt>
      <trkpt lat="45.3985" lon="6.1298">
        <ele>1718.7</ele>
        <time>2021-02-03T11:23:49Z</time>
      </trkpt>
      <trkpt lat="45.3985" lon="6.12981">
        <ele>1718.9</ele>
        <time>2021-02-03T11:23:50Z</time>
      </trkpt>
      <trkpt lat="45.39851" lon="6.12981">
        <ele>1719</ele>
        <time>2021-02-03T11:23:51Z</time>
      </trkpt>
      <trkpt lat="45.39852" lon="6.12982">
        <ele>1719.2</ele>
        <time>2021-02-03T11:23:52Z</time>
      </trkpt>
      <trkpt lat="45.39852" lon="6.12983">
        <ele>1719.3</ele>
        <time>2021-02-03T11:23:53Z</time>
      </trkpt>
      <trkpt lat="45.39853" lon="6.12984">
        <ele>1719.4</ele>
        <time>2021-02-03T11:23:54Z</time>
      </trkpt>
      <trkpt lat="45.39854" lon="6.12985">
        <ele>1719.6</ele>
        <time>2021-02-03T11:23:55Z</time>
      </trkpt>
      <trkpt lat="45.39854" lon="6.12985">
        <ele>1719.7</ele>
        <time>2021-02-03T11:23:56Z</time>
      </trkpt>
      <trkpt lat="45.39855" lon="6.12986">
        <ele>1719.8</ele>
        <time>2021-02-03T11:23:57Z</time>
      </trkpt>
      <trkpt lat="45.39855" lon="6.12986">
        <ele>1719.9</ele>
        <time>2021-02-03T11:23:58Z</time>
      </trkpt>
      <trkpt lat="45.39856" lon="6.12987">
        <ele>1720</ele>
        <time>2021-02-03T11:23:59Z</time>
      </trkpt>
      <trkpt lat="45.39856" lon="6.12988">
        <ele>1720.2</ele>
        <time>2021-02-03T11:24:00Z</time>
      </trkpt>
      <trkpt lat="45.39857" lon="6.1299">
        <ele>1720.4</ele>
        <time>2021-02-03T11:24:01Z</time>
      </trkpt>
      <trkpt lat="45.39857" lon="6.12991">
        <ele>1720.6</ele>
        <time>2021-02-03T11:24:02Z</time>
      </trkpt>
      <trkpt lat="45.39858" lon="6.12992">
        <ele>1720.7</ele>
        <time>2021-02-03T11:24:03Z</time>
      </trkpt>
      <trkpt lat="45.39858" lon="6.12993">
        <ele>1720.9</ele>
        <time>2021-02-03T11:24:04Z</time>
      </trkpt>
      <trkpt lat="45.39859" lon="6.12994">
        <ele>1721</ele>
        <time>2021-02-03T11:24:05Z</time>
      </trkpt>
      <trkpt lat="45.3986" lon="6.12994">
        <ele>1721.1</ele>
        <time>2021-02-03T11:24:06Z</time>
      </trkpt>
      <trkpt lat="45.3986" lon="6.12995">
        <ele>1721.3</ele>
        <time>2021-02-03T11:24:07Z</time>
      </trkpt>
      <trkpt lat="45.39861" lon="6.12995">
        <ele>1721.4</ele>
        <time>2021-02-03T11:24:08Z</time>
      </trkpt>
      <trkpt lat="45.39862" lon="6.12996">
        <ele>1721.6</ele>
        <time>2021-02-03T11:24:09Z</time>
      </trkpt>
      <trkpt lat="45.39863" lon="6.12996">
        <ele>1721.7</ele>
        <time>2021-02-03T11:24:10Z</time>
      </trkpt>
      <trkpt lat="45.39864" lon="6.12996">
        <ele>1721.8</ele>
        <time>2021-02-03T11:24:11Z</time>
      </trkpt>
      <trkpt lat="45.39864" lon="6.12996">
        <ele>1721.9</ele>
        <time>2021-02-03T11:24:12Z</time>
      </trkpt>
      <trkpt lat="45.39865" lon="6.12997">
        <ele>1722</ele>
        <time>2021-02-03T11:24:13Z</time>
      </trkpt>
      <trkpt lat="45.39866" lon="6.12998">
        <ele>1722.2</ele>
        <time>2021-02-03T11:24:14Z</time>
      </trkpt>
      <trkpt lat="45.39866" lon="6.12998">
        <ele>1722.3</ele>
        <time>2021-02-03T11:24:15Z</time>
      </trkpt>
      <trkpt lat="45.39867" lon="6.12999">
        <ele>1722.4</ele>
        <time>2021-02-03T11:24:16Z</time>
      </trkpt>
      <trkpt lat="45.39867" lon="6.12999">
        <ele>1722.6</ele>
        <time>2021-02-03T11:24:17Z</time>
      </trkpt>
      <trkpt lat="45.39868" lon="6.13">
        <ele>1722.7</ele>
        <time>2021-02-03T11:24:18Z</time>
      </trkpt>
      <trkpt lat="45.39869" lon="6.13001">
        <ele>1722.8</ele>
        <time>2021-02-03T11:24:19Z</time>
      </trkpt>
      <trkpt lat="45.39869" lon="6.13001">
        <ele>1723</ele>
        <time>2021-02-03T11:24:20Z</time>
      </trkpt>
      <trkpt lat="45.3987" lon="6.13002">
        <ele>1723.1</ele>
        <time>2021-02-03T11:24:21Z</time>
      </trkpt>
      <trkpt lat="45.3987" lon="6.13003">
        <ele>1723.2</ele>
        <time>2021-02-03T11:24:22Z</time>
      </trkpt>
      <trkpt lat="45.39871" lon="6.13003">
        <ele>1723.3</ele>
        <time>2021-02-03T11:24:23Z</time>
      </trkpt>
      <trkpt lat="45.39872" lon="6.13003">
        <ele>1723.4</ele>
        <time>2021-02-03T11:24:24Z</time>
      </trkpt>
      <trkpt lat="45.39872" lon="6.13004">
        <ele>1723.5</ele>
        <time>2021-02-03T11:24:25Z</time>
      </trkpt>
      <trkpt lat="45.39873" lon="6.13005">
        <ele>1723.6</ele>
        <time>2021-02-03T11:24:26Z</time>
      </trkpt>
      <trkpt lat="45.39873" lon="6.13005">
        <ele>1723.7</ele>
        <time>2021-02-03T11:24:27Z</time>
      </trkpt>
      <trkpt lat="45.39874" lon="6.13006">
        <ele>1723.9</ele>
        <time>2021-02-03T11:24:28Z</time>
      </trkpt>
      <trkpt lat="45.39874" lon="6.13007">
        <ele>1724</ele>
        <time>2021-02-03T11:24:29Z</time>
      </trkpt>
      <trkpt lat="45.39875" lon="6.13008">
        <ele>1724.1</ele>
        <time>2021-02-03T11:24:30Z</time>
      </trkpt>
      <trkpt lat="45.39876" lon="6.13009">
        <ele>1724.3</ele>
        <time>2021-02-03T11:24:31Z</time>
      </trkpt>
      <trkpt lat="45.39877" lon="6.13009">
        <ele>1724.5</ele>
        <time>2021-02-03T11:24:32Z</time>
      </trkpt>
      <trkpt lat="45.39877" lon="6.1301">
        <ele>1724.6</ele>
        <time>2021-02-03T11:24:33Z</time>
      </trkpt>
      <trkpt lat="45.39878" lon="6.13011">
        <ele>1724.8</ele>
        <time>2021-02-03T11:24:34Z</time>
      </trkpt>
      <trkpt lat="45.39879" lon="6.13012">
        <ele>1725</ele>
        <time>2021-02-03T11:24:35Z</time>
      </trkpt>
      <trkpt lat="45.3988" lon="6.13014">
        <ele>1725.1</ele>
        <time>2021-02-03T11:24:36Z</time>
      </trkpt>
      <trkpt lat="45.3988" lon="6.13015">
        <ele>1725.3</ele>
        <time>2021-02-03T11:24:37Z</time>
      </trkpt>
      <trkpt lat="45.3988" lon="6.13016">
        <ele>1725.4</ele>
        <time>2021-02-03T11:24:38Z</time>
      </trkpt>
      <trkpt lat="45.3988" lon="6.13016">
        <ele>1725.4</ele>
        <time>2021-02-03T11:24:39Z</time>
      </trkpt>
      <trkpt lat="45.3988" lon="6.13016">
        <ele>1725.4</ele>
        <time>2021-02-03T11:24:40Z</time>
      </trkpt>
      <trkpt lat="45.3988" lon="6.13016">
        <ele>1725.4</ele>
        <time>2021-02-03T11:24:41Z</time>
      </trkpt>
      <trkpt lat="45.3988" lon="6.13016">
        <ele>1725.4</ele>
        <time>2021-02-03T11:24:42Z</time>
      </trkpt>
      <trkpt lat="45.3988" lon="6.13016">
        <ele>1725.4</ele>
        <time>2021-02-03T11:24:43Z</time>
      </trkpt>
      <trkpt lat="45.39879" lon="6.13019">
        <ele>1725.8</ele>
        <time>2021-02-03T11:24:44Z</time>
      </trkpt>
      <trkpt lat="45.39878" lon="6.13018">
        <ele>1726</ele>
        <time>2021-02-03T11:24:45Z</time>
      </trkpt>
      <trkpt lat="45.39877" lon="6.13017">
        <ele>1726.2</ele>
        <time>2021-02-03T11:24:46Z</time>
      </trkpt>
      <trkpt lat="45.39876" lon="6.13017">
        <ele>1726.3</ele>
        <time>2021-02-03T11:24:47Z</time>
      </trkpt>
      <trkpt lat="45.39875" lon="6.13016">
        <ele>1726.4</ele>
        <time>2021-02-03T11:25:00Z</time>
      </trkpt>
      <trkpt lat="45.39874" lon="6.13016">
        <ele>1726.6</ele>
        <time>2021-02-03T11:25:01Z</time>
      </trkpt>
      <trkpt lat="45.39874" lon="6.13015">
        <ele>1726.8</ele>
        <time>2021-02-03T11:25:02Z</time>
      </trkpt>
      <trkpt lat="45.39873" lon="6.13014">
        <ele>1726.9</ele>
        <time>2021-02-03T11:25:03Z</time>
      </trkpt>
      <trkpt lat="45.39872" lon="6.13013">
        <ele>1727.2</ele>
        <time>2021-02-03T11:25:04Z</time>
      </trkpt>
      <trkpt lat="45.39871" lon="6.13011">
        <ele>1727.4</ele>
        <time>2021-02-03T11:25:05Z</time>
      </trkpt>
      <trkpt lat="45.39871" lon="6.13009">
        <ele>1727.7</ele>
        <time>2021-02-03T11:25:06Z</time>
      </trkpt>
      <trkpt lat="45.3987" lon="6.13007">
        <ele>1727.9</ele>
        <time>2021-02-03T11:25:07Z</time>
      </trkpt>
      <trkpt lat="45.39869" lon="6.13006">
        <ele>1728.1</ele>
        <time>2021-02-03T11:25:08Z</time>
      </trkpt>
      <trkpt lat="45.39869" lon="6.13005">
        <ele>1728.3</ele>
        <time>2021-02-03T11:25:09Z</time>
      </trkpt>
      <trkpt lat="45.39869" lon="6.13003">
        <ele>1728.4</ele>
        <time>2021-02-03T11:25:10Z</time>
      </trkpt>
      <trkpt lat="45.39868" lon="6.13002">
        <ele>1728.6</ele>
        <time>2021-02-03T11:25:11Z</time>
      </trkpt>
      <trkpt lat="45.39868" lon="6.13">
        <ele>1728.8</ele>
        <time>2021-02-03T11:25:12Z</time>
      </trkpt>
      <trkpt lat="45.39868" lon="6.12999">
        <ele>1729</ele>
        <time>2021-02-03T11:25:13Z</time>
      </trkpt>
      <trkpt lat="45.39867" lon="6.12997">
        <ele>1729.3</ele>
        <time>2021-02-03T11:25:14Z</time>
      </trkpt>
      <trkpt lat="45.39867" lon="6.12995">
        <ele>1729.5</ele>
        <time>2021-02-03T11:25:15Z</time>
      </trkpt>
      <trkpt lat="45.39866" lon="6.12992">
        <ele>1729.9</ele>
        <time>2021-02-03T11:25:16Z</time>
      </trkpt>
      <trkpt lat="45.39865" lon="6.1299">
        <ele>1730.2</ele>
        <time>2021-02-03T11:25:17Z</time>
      </trkpt>
      <trkpt lat="45.39864" lon="6.12987">
        <ele>1730.7</ele>
        <time>2021-02-03T11:25:18Z</time>
      </trkpt>
      <trkpt lat="45.39863" lon="6.12985">
        <ele>1730.9</ele>
        <time>2021-02-03T11:25:19Z</time>
      </trkpt>
      <trkpt lat="45.39862" lon="6.12982">
        <ele>1731.4</ele>
        <time>2021-02-03T11:25:20Z</time>
      </trkpt>
      <trkpt lat="45.39861" lon="6.1298">
        <ele>1731.6</ele>
        <time>2021-02-03T11:25:21Z</time>
      </trkpt>
      <trkpt lat="45.39858" lon="6.12976">
        <ele>1732.4</ele>
        <time>2021-02-03T11:25:22Z</time>
      </trkpt>
      <trkpt lat="45.39857" lon="6.12975">
        <ele>1732.7</ele>
        <time>2021-02-03T11:25:23Z</time>
      </trkpt>
      <trkpt lat="45.39855" lon="6.12973">
        <ele>1733.2</ele>
        <time>2021-02-03T11:25:24Z</time>
      </trkpt>
      <trkpt lat="45.39852" lon="6.1297">
        <ele>1733.8</ele>
        <time>2021-02-03T11:25:25Z</time>
      </trkpt>
      <trkpt lat="45.39851" lon="6.12966">
        <ele>1734.4</ele>
        <time>2021-02-03T11:25:26Z</time>
      </trkpt>
      <trkpt lat="45.3985" lon="6.12965">
        <ele>1734.5</ele>
        <time>2021-02-03T11:25:27Z</time>
      </trkpt>
      <trkpt lat="45.39852" lon="6.12963">
        <ele>1734.9</ele>
        <time>2021-02-03T11:25:28Z</time>
      </trkpt>
      <trkpt lat="45.39853" lon="6.12962">
        <ele>1735</ele>
        <time>2021-02-03T11:25:29Z</time>
      </trkpt>
      <trkpt lat="45.39853" lon="6.12962">
        <ele>1735.2</ele>
        <time>2021-02-03T11:25:30Z</time>
      </trkpt>
      <trkpt lat="45.39854" lon="6.12962">
        <ele>1735.4</ele>
        <time>2021-02-03T11:25:31Z</time>
      </trkpt>
      <trkpt lat="45.39855" lon="6.12963">
        <ele>1735.6</ele>
        <time>2021-02-03T11:25:32Z</time>
      </trkpt>
      <trkpt lat="45.39856" lon="6.12964">
        <ele>1735.8</ele>
        <time>2021-02-03T11:25:33Z</time>
      </trkpt>
      <trkpt lat="45.39857" lon="6.12966">
        <ele>1736.1</ele>
        <time>2021-02-03T11:25:34Z</time>
      </trkpt>
      <trkpt lat="45.39858" lon="6.12967">
        <ele>1736.3</ele>
        <time>2021-02-03T11:25:35Z</time>
      </trkpt>
      <trkpt lat="45.39858" lon="6.12968">
        <ele>1736.4</ele>
        <time>2021-02-03T11:25:36Z</time>
      </trkpt>
      <trkpt lat="45.39859" lon="6.12969">
        <ele>1736.6</ele>
        <time>2021-02-03T11:25:37Z</time>
      </trkpt>
      <trkpt lat="45.39859" lon="6.1297">
        <ele>1736.8</ele>
        <time>2021-02-03T11:25:38Z</time>
      </trkpt>
      <trkpt lat="45.3986" lon="6.12971">
        <ele>1736.9</ele>
        <time>2021-02-03T11:25:39Z</time>
      </trkpt>
      <trkpt lat="45.3986" lon="6.12972">
        <ele>1737.1</ele>
        <time>2021-02-03T11:25:40Z</time>
      </trkpt>
      <trkpt lat="45.39861" lon="6.12973">
        <ele>1737.3</ele>
        <time>2021-02-03T11:25:41Z</time>
      </trkpt>
      <trkpt lat="45.39862" lon="6.12974">
        <ele>1737.5</ele>
        <time>2021-02-03T11:25:42Z</time>
      </trkpt>
      <trkpt lat="45.39862" lon="6.12975">
        <ele>1737.7</ele>
        <time>2021-02-03T11:25:43Z</time>
      </trkpt>
      <trkpt lat="45.39863" lon="6.12976">
        <ele>1737.8</ele>
        <time>2021-02-03T11:25:44Z</time>
      </trkpt>
      <trkpt lat="45.39863" lon="6.12977">
        <ele>1738</ele>
        <time>2021-02-03T11:25:45Z</time>
      </trkpt>
      <trkpt lat="45.39864" lon="6.12977">
        <ele>1738.1</ele>
        <time>2021-02-03T11:25:46Z</time>
      </trkpt>
      <trkpt lat="45.39864" lon="6.12978">
        <ele>1738.3</ele>
        <time>2021-02-03T11:25:47Z</time>
      </trkpt>
      <trkpt lat="45.39865" lon="6.12978">
        <ele>1738.4</ele>
        <time>2021-02-03T11:25:48Z</time>
      </trkpt>
      <trkpt lat="45.39866" lon="6.12979">
        <ele>1738.6</ele>
        <time>2021-02-03T11:25:49Z</time>
      </trkpt>
      <trkpt lat="45.39866" lon="6.1298">
        <ele>1738.8</ele>
        <time>2021-02-03T11:25:50Z</time>
      </trkpt>
      <trkpt lat="45.39867" lon="6.12981">
        <ele>1738.9</ele>
        <time>2021-02-03T11:25:51Z</time>
      </trkpt>
      <trkpt lat="45.39867" lon="6.12982">
        <ele>1739.1</ele>
        <time>2021-02-03T11:25:52Z</time>
      </trkpt>
      <trkpt lat="45.39868" lon="6.12983">
        <ele>1739.3</ele>
        <time>2021-02-03T11:25:53Z</time>
      </trkpt>
      <trkpt lat="45.39868" lon="6.12984">
        <ele>1739.4</ele>
        <time>2021-02-03T11:25:54Z</time>
      </trkpt>
      <trkpt lat="45.39869" lon="6.12985">
        <ele>1739.6</ele>
        <time>2021-02-03T11:25:55Z</time>
      </trkpt>
      <trkpt lat="45.39869" lon="6.12986">
        <ele>1739.8</ele>
        <time>2021-02-03T11:25:56Z</time>
      </trkpt>
      <trkpt lat="45.3987" lon="6.12987">
        <ele>1740</ele>
        <time>2021-02-03T11:25:57Z</time>
      </trkpt>
      <trkpt lat="45.3987" lon="6.12988">
        <ele>1740.2</ele>
        <time>2021-02-03T11:25:58Z</time>
      </trkpt>
      <trkpt lat="45.3987" lon="6.12989">
        <ele>1740.4</ele>
        <time>2021-02-03T11:25:59Z</time>
      </trkpt>
      <trkpt lat="45.39871" lon="6.1299">
        <ele>1740.6</ele>
        <time>2021-02-03T11:26:00Z</time>
      </trkpt>
      <trkpt lat="45.39872" lon="6.12991">
        <ele>1740.8</ele>
        <time>2021-02-03T11:26:01Z</time>
      </trkpt>
      <trkpt lat="45.39872" lon="6.12992">
        <ele>1741</ele>
        <time>2021-02-03T11:26:02Z</time>
      </trkpt>
      <trkpt lat="45.39873" lon="6.12993">
        <ele>1741.2</ele>
        <time>2021-02-03T11:26:03Z</time>
      </trkpt>
      <trkpt lat="45.39873" lon="6.12994">
        <ele>1741.3</ele>
        <time>2021-02-03T11:26:04Z</time>
      </trkpt>
      <trkpt lat="45.39874" lon="6.12995">
        <ele>1741.5</ele>
        <time>2021-02-03T11:26:05Z</time>
      </trkpt>
      <trkpt lat="45.39874" lon="6.12996">
        <ele>1741.7</ele>
        <time>2021-02-03T11:26:06Z</time>
      </trkpt>
      <trkpt lat="45.39875" lon="6.12997">
        <ele>1741.9</ele>
        <time>2021-02-03T11:26:07Z</time>
      </trkpt>
      <trkpt lat="45.39875" lon="6.12998">
        <ele>1742.1</ele>
        <time>2021-02-03T11:26:08Z</time>
      </trkpt>
      <trkpt lat="45.39875" lon="6.12999">
        <ele>1742.2</ele>
        <time>2021-02-03T11:26:09Z</time>
      </trkpt>
      <trkpt lat="45.39876" lon="6.13">
        <ele>1742.3</ele>
        <time>2021-02-03T11:26:10Z</time>
      </trkpt>
      <trkpt lat="45.39876" lon="6.13001">
        <ele>1742.5</ele>
        <time>2021-02-03T11:26:11Z</time>
      </trkpt>
      <trkpt lat="45.39876" lon="6.13002">
        <ele>1742.7</ele>
        <time>2021-02-03T11:26:12Z</time>
      </trkpt>
      <trkpt lat="45.39877" lon="6.13003">
        <ele>1742.8</ele>
        <time>2021-02-03T11:26:13Z</time>
      </trkpt>
      <trkpt lat="45.39877" lon="6.13004">
        <ele>1743</ele>
        <time>2021-02-03T11:26:14Z</time>
      </trkpt>
      <trkpt lat="45.39877" lon="6.13006">
        <ele>1743.3</ele>
        <time>2021-02-03T11:26:15Z</time>
      </trkpt>
      <trkpt lat="45.39877" lon="6.13007">
        <ele>1743.5</ele>
        <time>2021-02-03T11:26:16Z</time>
      </trkpt>
      <trkpt lat="45.39878" lon="6.13008">
        <ele>1743.6</ele>
        <time>2021-02-03T11:26:17Z</time>
      </trkpt>
      <trkpt lat="45.39878" lon="6.13009">
        <ele>1743.8</ele>
        <time>2021-02-03T11:26:18Z</time>
      </trkpt>
      <trkpt lat="45.39878" lon="6.13011">
        <ele>1744</ele>
        <time>2021-02-03T11:26:19Z</time>
      </trkpt>
      <trkpt lat="45.39878" lon="6.13012">
        <ele>1744.2</ele>
        <time>2021-02-03T11:26:20Z</time>
      </trkpt>
      <trkpt lat="45.39878" lon="6.13013">
        <ele>1744.3</ele>
        <time>2021-02-03T11:26:21Z</time>
      </trkpt>
      <trkpt lat="45.39878" lon="6.13014">
        <ele>1744.5</ele>
        <time>2021-02-03T11:26:22Z</time>
      </trkpt>
      <trkpt lat="45.39879" lon="6.13016">
        <ele>1744.7</ele>
        <time>2021-02-03T11:26:23Z</time>
      </trkpt>
      <trkpt lat="45.39879" lon="6.13017">
        <ele>1744.8</ele>
        <time>2021-02-03T11:26:24Z</time>
      </trkpt>
      <trkpt lat="45.39879" lon="6.13018">
        <ele>1745</ele>
        <time>2021-02-03T11:26:25Z</time>
      </trkpt>
      <trkpt lat="45.39879" lon="6.13019">
        <ele>1745.2</ele>
        <time>2021-02-03T11:26:26Z</time>
      </trkpt>
      <trkpt lat="45.39879" lon="6.13021">
        <ele>1745.4</ele>
        <time>2021-02-03T11:26:27Z</time>
      </trkpt>
      <trkpt lat="45.39879" lon="6.13022">
        <ele>1745.5</ele>
        <time>2021-02-03T11:26:28Z</time>
      </trkpt>
      <trkpt lat="45.39879" lon="6.13024">
        <ele>1745.7</ele>
        <time>2021-02-03T11:26:29Z</time>
      </trkpt>
      <trkpt lat="45.39879" lon="6.13025">
        <ele>1745.9</ele>
        <time>2021-02-03T11:26:30Z</time>
      </trkpt>
      <trkpt lat="45.39879" lon="6.13026">
        <ele>1746.1</ele>
        <time>2021-02-03T11:26:31Z</time>
      </trkpt>
      <trkpt lat="45.39879" lon="6.13028">
        <ele>1746.3</ele>
        <time>2021-02-03T11:26:32Z</time>
      </trkpt>
      <trkpt lat="45.39879" lon="6.13029">
        <ele>1746.5</ele>
        <time>2021-02-03T11:26:33Z</time>
      </trkpt>
      <trkpt lat="45.39879" lon="6.13032">
        <ele>1746.9</ele>
        <time>2021-02-03T11:26:34Z</time>
      </trkpt>
      <trkpt lat="45.39878" lon="6.13034">
        <ele>1747</ele>
        <time>2021-02-03T11:26:35Z</time>
      </trkpt>
      <trkpt lat="45.39878" lon="6.13035">
        <ele>1747.2</ele>
        <time>2021-02-03T11:26:36Z</time>
      </trkpt>
      <trkpt lat="45.39878" lon="6.13037">
        <ele>1747.5</ele>
        <time>2021-02-03T11:26:37Z</time>
      </trkpt>
      <trkpt lat="45.39878" lon="6.13039">
        <ele>1747.8</ele>
        <time>2021-02-03T11:26:38Z</time>
      </trkpt>
      <trkpt lat="45.39878" lon="6.13041">
        <ele>1748</ele>
        <time>2021-02-03T11:26:39Z</time>
      </trkpt>
      <trkpt lat="45.39878" lon="6.13042">
        <ele>1748.2</ele>
        <time>2021-02-03T11:26:40Z</time>
      </trkpt>
      <trkpt lat="45.39877" lon="6.13044">
        <ele>1748.4</ele>
        <time>2021-02-03T11:26:41Z</time>
      </trkpt>
      <trkpt lat="45.39877" lon="6.13045">
        <ele>1748.6</ele>
        <time>2021-02-03T11:26:42Z</time>
      </trkpt>
      <trkpt lat="45.39877" lon="6.13047">
        <ele>1748.8</ele>
        <time>2021-02-03T11:26:43Z</time>
      </trkpt>
      <trkpt lat="45.39877" lon="6.13048">
        <ele>1748.8</ele>
        <time>2021-02-03T11:26:44Z</time>
      </trkpt>
      <trkpt lat="45.39877" lon="6.13049">
        <ele>1748.8</ele>
        <time>2021-02-03T11:26:45Z</time>
      </trkpt>
      <trkpt lat="45.39878" lon="6.13049">
        <ele>1748.8</ele>
        <time>2021-02-03T11:26:46Z</time>
      </trkpt>
      <trkpt lat="45.39878" lon="6.13048">
        <ele>1748.8</ele>
        <time>2021-02-03T11:26:47Z</time>
      </trkpt>
      <trkpt lat="45.39878" lon="6.13048">
        <ele>1748.8</ele>
        <time>2021-02-03T11:26:48Z</time>
      </trkpt>
      <trkpt lat="45.39878" lon="6.13047">
        <ele>1747.8</ele>
        <time>2021-02-03T11:26:49Z</time>
      </trkpt>
      <trkpt lat="45.39879" lon="6.13047">
        <ele>1747.8</ele>
        <time>2021-02-03T11:26:50Z</time>
      </trkpt>
      <trkpt lat="45.39879" lon="6.13046">
        <ele>1747.8</ele>
        <time>2021-02-03T11:26:51Z</time>
      </trkpt>
      <trkpt lat="45.39879" lon="6.13046">
        <ele>1747.8</ele>
        <time>2021-02-03T11:26:52Z</time>
      </trkpt>
      <trkpt lat="45.39879" lon="6.13046">
        <ele>1747.7</ele>
        <time>2021-02-03T11:26:53Z</time>
      </trkpt>
      <trkpt lat="45.39879" lon="6.13045">
        <ele>1747.7</ele>
        <time>2021-02-03T11:26:54Z</time>
      </trkpt>
      <trkpt lat="45.3988" lon="6.13045">
        <ele>1747.7</ele>
        <time>2021-02-03T11:26:55Z</time>
      </trkpt>
      <trkpt lat="45.3988" lon="6.13044">
        <ele>1747.7</ele>
        <time>2021-02-03T11:26:56Z</time>
      </trkpt>
      <trkpt lat="45.3988" lon="6.13044">
        <ele>1747.7</ele>
        <time>2021-02-03T11:34:58Z</time>
      </trkpt>
      <trkpt lat="45.3988" lon="6.13043">
        <ele>1747.7</ele>
        <time>2021-02-03T11:34:59Z</time>
      </trkpt>
      <trkpt lat="45.39881" lon="6.13043">
        <ele>1747.7</ele>
        <time>2021-02-03T11:35:00Z</time>
      </trkpt>
      <trkpt lat="45.39881" lon="6.13043">
        <ele>1747.7</ele>
        <time>2021-02-03T11:35:01Z</time>
      </trkpt>
      <trkpt lat="45.39881" lon="6.13042">
        <ele>1747.7</ele>
        <time>2021-02-03T11:35:02Z</time>
      </trkpt>
      <trkpt lat="45.39881" lon="6.13042">
        <ele>1746.7</ele>
        <time>2021-02-03T11:35:03Z</time>
      </trkpt>
      <trkpt lat="45.39882" lon="6.13041">
        <ele>1746.6</ele>
        <time>2021-02-03T11:35:04Z</time>
      </trkpt>
      <trkpt lat="45.39882" lon="6.13041">
        <ele>1746.6</ele>
        <time>2021-02-03T11:35:05Z</time>
      </trkpt>
      <trkpt lat="45.39882" lon="6.1304">
        <ele>1746.6</ele>
        <time>2021-02-03T11:35:06Z</time>
      </trkpt>
      <trkpt lat="45.39882" lon="6.1304">
        <ele>1746.6</ele>
        <time>2021-02-03T11:35:07Z</time>
      </trkpt>
      <trkpt lat="45.39883" lon="6.1304">
        <ele>1746.6</ele>
        <time>2021-02-03T11:35:17Z</time>
      </trkpt>
      <trkpt lat="45.39883" lon="6.13039">
        <ele>1746.6</ele>
        <time>2021-02-03T11:35:18Z</time>
      </trkpt>
      <trkpt lat="45.39883" lon="6.13039">
        <ele>1746.6</ele>
        <time>2021-02-03T11:35:19Z</time>
      </trkpt>
      <trkpt lat="45.39885" lon="6.13035">
        <ele>1745.3</ele>
        <time>2021-02-03T11:35:20Z</time>
      </trkpt>
      <trkpt lat="45.39885" lon="6.13034">
        <ele>1745.3</ele>
        <time>2021-02-03T11:35:21Z</time>
      </trkpt>
      <trkpt lat="45.39887" lon="6.1303">
        <ele>1745.2</ele>
        <time>2021-02-03T11:35:22Z</time>
      </trkpt>
      <trkpt lat="45.39887" lon="6.13028">
        <ele>1745</ele>
        <time>2021-02-03T11:35:23Z</time>
      </trkpt>
      <trkpt lat="45.39889" lon="6.13023">
        <ele>1743.9</ele>
        <time>2021-02-03T11:35:24Z</time>
      </trkpt>
      <trkpt lat="45.39889" lon="6.13021">
        <ele>1743.9</ele>
        <time>2021-02-03T11:35:25Z</time>
      </trkpt>
      <trkpt lat="45.3989" lon="6.13017">
        <ele>1743.7</ele>
        <time>2021-02-03T11:35:26Z</time>
      </trkpt>
      <trkpt lat="45.39891" lon="6.13013">
        <ele>1742.6</ele>
        <time>2021-02-03T11:35:27Z</time>
      </trkpt>
      <trkpt lat="45.39892" lon="6.13009">
        <ele>1742.4</ele>
        <time>2021-02-03T11:35:28Z</time>
      </trkpt>
      <trkpt lat="45.39893" lon="6.13004">
        <ele>1742.2</ele>
        <time>2021-02-03T11:35:29Z</time>
      </trkpt>
      <trkpt lat="45.39894" lon="6.13">
        <ele>1741</ele>
        <time>2021-02-03T11:35:30Z</time>
      </trkpt>
      <trkpt lat="45.39894" lon="6.12996">
        <ele>1740.8</ele>
        <time>2021-02-03T11:35:31Z</time>
      </trkpt>
      <trkpt lat="45.39896" lon="6.12992">
        <ele>1740.5</ele>
        <time>2021-02-03T11:35:32Z</time>
      </trkpt>
      <trkpt lat="45.39898" lon="6.12989">
        <ele>1739.4</ele>
        <time>2021-02-03T11:35:33Z</time>
      </trkpt>
      <trkpt lat="45.39901" lon="6.1299">
        <ele>1738.5</ele>
        <time>2021-02-03T11:35:34Z</time>
      </trkpt>
      <trkpt lat="45.39905" lon="6.12991">
        <ele>1737.1</ele>
        <time>2021-02-03T11:35:35Z</time>
      </trkpt>
      <trkpt lat="45.3991" lon="6.12989">
        <ele>1736</ele>
        <time>2021-02-03T11:35:36Z</time>
      </trkpt>
      <trkpt lat="45.39914" lon="6.12986">
        <ele>1734.7</ele>
        <time>2021-02-03T11:35:37Z</time>
      </trkpt>
      <trkpt lat="45.39919" lon="6.12985">
        <ele>1732.5</ele>
        <time>2021-02-03T11:35:38Z</time>
      </trkpt>
      <trkpt lat="45.39924" lon="6.12984">
        <ele>1730.4</ele>
        <time>2021-02-03T11:35:39Z</time>
      </trkpt>
      <trkpt lat="45.39928" lon="6.1298">
        <ele>1729.1</ele>
        <time>2021-02-03T11:35:40Z</time>
      </trkpt>
      <trkpt lat="45.3993" lon="6.12978">
        <ele>1728.1</ele>
        <time>2021-02-03T11:35:41Z</time>
      </trkpt>
      <trkpt lat="45.39933" lon="6.12974">
        <ele>1726.8</ele>
        <time>2021-02-03T11:35:42Z</time>
      </trkpt>
      <trkpt lat="45.39937" lon="6.12974">
        <ele>1725.6</ele>
        <time>2021-02-03T11:35:43Z</time>
      </trkpt>
      <trkpt lat="45.39941" lon="6.12974">
        <ele>1724.4</ele>
        <time>2021-02-03T11:35:44Z</time>
      </trkpt>
      <trkpt lat="45.39946" lon="6.12974">
        <ele>1721.8</ele>
        <time>2021-02-03T11:35:45Z</time>
      </trkpt>
      <trkpt lat="45.3995" lon="6.12973">
        <ele>1720.5</ele>
        <time>2021-02-03T11:35:46Z</time>
      </trkpt>
      <trkpt lat="45.39954" lon="6.12973">
        <ele>1718</ele>
        <time>2021-02-03T11:35:47Z</time>
      </trkpt>
      <trkpt lat="45.39956" lon="6.12972">
        <ele>1718</ele>
        <time>2021-02-03T11:35:48Z</time>
      </trkpt>
      <trkpt lat="45.3996" lon="6.12974">
        <ele>1715.8</ele>
        <time>2021-02-03T11:35:49Z</time>
      </trkpt>
      <trkpt lat="45.39964" lon="6.12971">
        <ele>1714.4</ele>
        <time>2021-02-03T11:35:50Z</time>
      </trkpt>
      <trkpt lat="45.39967" lon="6.12968">
        <ele>1713.1</ele>
        <time>2021-02-03T11:35:51Z</time>
      </trkpt>
      <trkpt lat="45.3997" lon="6.12966">
        <ele>1711.8</ele>
        <time>2021-02-03T11:35:52Z</time>
      </trkpt>
      <trkpt lat="45.39973" lon="6.12966">
        <ele>1710.6</ele>
        <time>2021-02-03T11:35:53Z</time>
      </trkpt>
      <trkpt lat="45.39977" lon="6.12966">
        <ele>1709.3</ele>
        <time>2021-02-03T11:35:54Z</time>
      </trkpt>
      <trkpt lat="45.3998" lon="6.12966">
        <ele>1708.1</ele>
        <time>2021-02-03T11:35:55Z</time>
      </trkpt>
      <trkpt lat="45.39983" lon="6.12965">
        <ele>1706.9</ele>
        <time>2021-02-03T11:35:56Z</time>
      </trkpt>
      <trkpt lat="45.39986" lon="6.12965">
        <ele>1705.8</ele>
        <time>2021-02-03T11:35:57Z</time>
      </trkpt>
      <trkpt lat="45.39989" lon="6.12965">
        <ele>1704.7</ele>
        <time>2021-02-03T11:35:58Z</time>
      </trkpt>
      <trkpt lat="45.39992" lon="6.12962">
        <ele>1703.7</ele>
        <time>2021-02-03T11:35:59Z</time>
      </trkpt>
      <trkpt lat="45.39995" lon="6.1296">
        <ele>1702.7</ele>
        <time>2021-02-03T11:36:00Z</time>
      </trkpt>
      <trkpt lat="45.39997" lon="6.12958">
        <ele>1701.5</ele>
        <time>2021-02-03T11:36:01Z</time>
      </trkpt>
      <trkpt lat="45.40001" lon="6.12957">
        <ele>1700.3</ele>
        <time>2021-02-03T11:36:02Z</time>
      </trkpt>
      <trkpt lat="45.40003" lon="6.12954">
        <ele>1699.2</ele>
        <time>2021-02-03T11:36:03Z</time>
      </trkpt>
      <trkpt lat="45.40007" lon="6.12953">
        <ele>1698.1</ele>
        <time>2021-02-03T11:36:04Z</time>
      </trkpt>
      <trkpt lat="45.40008" lon="6.12954">
        <ele>1697</ele>
        <time>2021-02-03T11:36:05Z</time>
      </trkpt>
      <trkpt lat="45.4001" lon="6.12957">
        <ele>1696.9</ele>
        <time>2021-02-03T11:36:06Z</time>
      </trkpt>
      <trkpt lat="45.40014" lon="6.1296">
        <ele>1695.9</ele>
        <time>2021-02-03T11:36:07Z</time>
      </trkpt>
      <trkpt lat="45.40015" lon="6.12961">
        <ele>1694.9</ele>
        <time>2021-02-03T11:36:08Z</time>
      </trkpt>
      <trkpt lat="45.40017" lon="6.12962">
        <ele>1693.9</ele>
        <time>2021-02-03T11:36:09Z</time>
      </trkpt>
      <trkpt lat="45.40021" lon="6.12961">
        <ele>1692.9</ele>
        <time>2021-02-03T11:36:10Z</time>
      </trkpt>
      <trkpt lat="45.40025" lon="6.12959">
        <ele>1691.9</ele>
        <time>2021-02-03T11:36:11Z</time>
      </trkpt>
      <trkpt lat="45.40024" lon="6.12949">
        <ele>1692</ele>
        <time>2021-02-03T11:36:12Z</time>
      </trkpt>
      <trkpt lat="45.40025" lon="6.12943">
        <ele>1692.1</ele>
        <time>2021-02-03T11:36:13Z</time>
      </trkpt>
      <trkpt lat="45.40029" lon="6.12943">
        <ele>1689.8</ele>
        <time>2021-02-03T11:36:14Z</time>
      </trkpt>
      <trkpt lat="45.40033" lon="6.12947">
        <ele>1688.7</ele>
        <time>2021-02-03T11:36:15Z</time>
      </trkpt>
      <trkpt lat="45.40038" lon="6.12948">
        <ele>1686.8</ele>
        <time>2021-02-03T11:36:16Z</time>
      </trkpt>
      <trkpt lat="45.40042" lon="6.12946">
        <ele>1685.9</ele>
        <time>2021-02-03T11:36:17Z</time>
      </trkpt>
      <trkpt lat="45.40046" lon="6.12942">
        <ele>1685</ele>
        <time>2021-02-03T11:36:18Z</time>
      </trkpt>
      <trkpt lat="45.4005" lon="6.12937">
        <ele>1683</ele>
        <time>2021-02-03T11:36:19Z</time>
      </trkpt>
      <trkpt lat="45.40053" lon="6.12934">
        <ele>1683</ele>
        <time>2021-02-03T11:36:20Z</time>
      </trkpt>
      <trkpt lat="45.40056" lon="6.12931">
        <ele>1682</ele>
        <time>2021-02-03T11:36:21Z</time>
      </trkpt>
      <trkpt lat="45.40055" lon="6.12936">
        <ele>1682</ele>
        <time>2021-02-03T11:36:22Z</time>
      </trkpt>
      <trkpt lat="45.40055" lon="6.12934">
        <ele>1682</ele>
        <time>2021-02-03T11:36:23Z</time>
      </trkpt>
      <trkpt lat="45.40056" lon="6.12934">
        <ele>1682</ele>
        <time>2021-02-03T11:36:24Z</time>
      </trkpt>
      <trkpt lat="45.40056" lon="6.12933">
        <ele>1681</ele>
        <time>2021-02-03T11:36:25Z</time>
      </trkpt>
      <trkpt lat="45.40057" lon="6.12933">
        <ele>1681</ele>
        <time>2021-02-03T11:36:26Z</time>
      </trkpt>
      <trkpt lat="45.40057" lon="6.12933">
        <ele>1681</ele>
        <time>2021-02-03T11:36:27Z</time>
      </trkpt>
      <trkpt lat="45.40058" lon="6.12932">
        <ele>1681</ele>
        <time>2021-02-03T11:36:28Z</time>
      </trkpt>
      <trkpt lat="45.40058" lon="6.12932">
        <ele>1681</ele>
        <time>2021-02-03T11:36:29Z</time>
      </trkpt>
      <trkpt lat="45.40059" lon="6.12932">
        <ele>1681</ele>
        <time>2021-02-03T11:36:30Z</time>
      </trkpt>
      <trkpt lat="45.4006" lon="6.12932">
        <ele>1680</ele>
        <time>2021-02-03T11:36:31Z</time>
      </trkpt>
      <trkpt lat="45.4006" lon="6.12931">
        <ele>1680</ele>
        <time>2021-02-03T11:36:32Z</time>
      </trkpt>
      <trkpt lat="45.40061" lon="6.12931">
        <ele>1680</ele>
        <time>2021-02-03T11:36:33Z</time>
      </trkpt>
      <trkpt lat="45.40061" lon="6.12931">
        <ele>1680</ele>
        <time>2021-02-03T11:36:34Z</time>
      </trkpt>
      <trkpt lat="45.40062" lon="6.12931">
        <ele>1680</ele>
        <time>2021-02-03T11:36:48Z</time>
      </trkpt>
      <trkpt lat="45.40062" lon="6.1293">
        <ele>1679.1</ele>
        <time>2021-02-03T11:36:49Z</time>
      </trkpt>
      <trkpt lat="45.40065" lon="6.12931">
        <ele>1678.2</ele>
        <time>2021-02-03T11:36:50Z</time>
      </trkpt>
      <trkpt lat="45.40069" lon="6.12933">
        <ele>1677.4</ele>
        <time>2021-02-03T11:36:51Z</time>
      </trkpt>
      <trkpt lat="45.40072" lon="6.12934">
        <ele>1676.6</ele>
        <time>2021-02-03T11:36:52Z</time>
      </trkpt>
      <trkpt lat="45.40075" lon="6.12933">
        <ele>1675.8</ele>
        <time>2021-02-03T11:36:53Z</time>
      </trkpt>
      <trkpt lat="45.40076" lon="6.12933">
        <ele>1675.8</ele>
        <time>2021-02-03T11:36:54Z</time>
      </trkpt>
      <trkpt lat="45.40079" lon="6.12934">
        <ele>1675</ele>
        <time>2021-02-03T11:36:55Z</time>
      </trkpt>
      <trkpt lat="45.40081" lon="6.12935">
        <ele>1674.1</ele>
        <time>2021-02-03T11:36:56Z</time>
      </trkpt>
      <trkpt lat="45.40084" lon="6.12934">
        <ele>1673.2</ele>
        <time>2021-02-03T11:36:57Z</time>
      </trkpt>
      <trkpt lat="45.40085" lon="6.12934">
        <ele>1673.2</ele>
        <time>2021-02-03T11:36:58Z</time>
      </trkpt>
      <trkpt lat="45.40088" lon="6.12933">
        <ele>1672.3</ele>
        <time>2021-02-03T11:36:59Z</time>
      </trkpt>
      <trkpt lat="45.40089" lon="6.12934">
        <ele>1672.3</ele>
        <time>2021-02-03T11:37:00Z</time>
      </trkpt>
      <trkpt lat="45.40092" lon="6.12936">
        <ele>1670.6</ele>
        <time>2021-02-03T11:37:01Z</time>
      </trkpt>
      <trkpt lat="45.40093" lon="6.12937">
        <ele>1670.6</ele>
        <time>2021-02-03T11:37:02Z</time>
      </trkpt>
      <trkpt lat="45.40097" lon="6.12938">
        <ele>1669.9</ele>
        <time>2021-02-03T11:37:03Z</time>
      </trkpt>
      <trkpt lat="45.40098" lon="6.12939">
        <ele>1669.9</ele>
        <time>2021-02-03T11:37:04Z</time>
      </trkpt>
      <trkpt lat="45.401" lon="6.12942">
        <ele>1669.2</ele>
        <time>2021-02-03T11:37:05Z</time>
      </trkpt>
      <trkpt lat="45.40103" lon="6.12943">
        <ele>1668.4</ele>
        <time>2021-02-03T11:37:06Z</time>
      </trkpt>
      <trkpt lat="45.40105" lon="6.12943">
        <ele>1667.6</ele>
        <time>2021-02-03T11:37:07Z</time>
      </trkpt>
      <trkpt lat="45.40108" lon="6.12942">
        <ele>1666.8</ele>
        <time>2021-02-03T11:37:08Z</time>
      </trkpt>
      <trkpt lat="45.4011" lon="6.12942">
        <ele>1665.8</ele>
        <time>2021-02-03T11:37:09Z</time>
      </trkpt>
      <trkpt lat="45.40113" lon="6.12943">
        <ele>1665.8</ele>
        <time>2021-02-03T11:37:10Z</time>
      </trkpt>
      <trkpt lat="45.40117" lon="6.12945">
        <ele>1664.1</ele>
        <time>2021-02-03T11:37:11Z</time>
      </trkpt>
      <trkpt lat="45.4012" lon="6.12946">
        <ele>1663.4</ele>
        <time>2021-02-03T11:37:12Z</time>
      </trkpt>
      <trkpt lat="45.40124" lon="6.12948">
        <ele>1662.7</ele>
        <time>2021-02-03T11:37:13Z</time>
      </trkpt>
      <trkpt lat="45.40128" lon="6.12948">
        <ele>1662</ele>
        <time>2021-02-03T11:37:14Z</time>
      </trkpt>
      <trkpt lat="45.40131" lon="6.12946">
        <ele>1661.1</ele>
        <time>2021-02-03T11:37:15Z</time>
      </trkpt>
      <trkpt lat="45.40133" lon="6.12942">
        <ele>1660.1</ele>
        <time>2021-02-03T11:37:16Z</time>
      </trkpt>
      <trkpt lat="45.40135" lon="6.12939">
        <ele>1659.2</ele>
        <time>2021-02-03T11:37:17Z</time>
      </trkpt>
      <trkpt lat="45.40137" lon="6.12937">
        <ele>1659.1</ele>
        <time>2021-02-03T11:37:18Z</time>
      </trkpt>
      <trkpt lat="45.40138" lon="6.12938">
        <ele>1658.1</ele>
        <time>2021-02-03T11:37:19Z</time>
      </trkpt>
      <trkpt lat="45.40139" lon="6.12938">
        <ele>1658.1</ele>
        <time>2021-02-03T11:37:20Z</time>
      </trkpt>
      <trkpt lat="45.40139" lon="6.12938">
        <ele>1658.1</ele>
        <time>2021-02-03T11:37:21Z</time>
      </trkpt>
      <trkpt lat="45.4014" lon="6.12939">
        <ele>1658.2</ele>
        <time>2021-02-03T11:37:22Z</time>
      </trkpt>
      <trkpt lat="45.40141" lon="6.1294">
        <ele>1657.3</ele>
        <time>2021-02-03T11:37:23Z</time>
      </trkpt>
      <trkpt lat="45.40141" lon="6.1294">
        <ele>1657.3</ele>
        <time>2021-02-03T11:37:24Z</time>
      </trkpt>
      <trkpt lat="45.40142" lon="6.12939">
        <ele>1657.3</ele>
        <time>2021-02-03T11:37:25Z</time>
      </trkpt>
      <trkpt lat="45.40142" lon="6.12939">
        <ele>1657.3</ele>
        <time>2021-02-03T11:37:26Z</time>
      </trkpt>
      <trkpt lat="45.40142" lon="6.12939">
        <ele>1657.3</ele>
        <time>2021-02-03T11:37:27Z</time>
      </trkpt>
      <trkpt lat="45.4014" lon="6.12938">
        <ele>1658.1</ele>
        <time>2021-02-03T11:37:28Z</time>
      </trkpt>
      <trkpt lat="45.4014" lon="6.12938">
        <ele>1658.1</ele>
        <time>2021-02-03T11:37:29Z</time>
      </trkpt>
      <trkpt lat="45.4014" lon="6.12938">
        <ele>1658.1</ele>
        <time>2021-02-03T11:37:30Z</time>
      </trkpt>
      <trkpt lat="45.4014" lon="6.12938">
        <ele>1658.1</ele>
        <time>2021-02-03T11:37:31Z</time>
      </trkpt>
      <trkpt lat="45.4014" lon="6.12938">
        <ele>1658.1</ele>
        <time>2021-02-03T11:37:32Z</time>
      </trkpt>
      <trkpt lat="45.40136" lon="6.12935">
        <ele>1659.1</ele>
        <time>2021-02-03T11:37:33Z</time>
      </trkpt>
      <trkpt lat="45.40141" lon="6.1294">
        <ele>1657.3</ele>
        <time>2021-02-03T11:37:55Z</time>
      </trkpt>
      <trkpt lat="45.40143" lon="6.12939">
        <ele>1657.3</ele>
        <time>2021-02-03T11:37:56Z</time>
      </trkpt>
      <trkpt lat="45.40146" lon="6.12937">
        <ele>1656.2</ele>
        <time>2021-02-03T11:37:57Z</time>
      </trkpt>
      <trkpt lat="45.40147" lon="6.12936">
        <ele>1655.2</ele>
        <time>2021-02-03T11:37:58Z</time>
      </trkpt>
      <trkpt lat="45.4015" lon="6.12936">
        <ele>1654.3</ele>
        <time>2021-02-03T11:37:59Z</time>
      </trkpt>
      <trkpt lat="45.40151" lon="6.12935">
        <ele>1654.3</ele>
        <time>2021-02-03T11:38:00Z</time>
      </trkpt>
      <trkpt lat="45.40153" lon="6.12935">
        <ele>1653.4</ele>
        <time>2021-02-03T11:38:01Z</time>
      </trkpt>
      <trkpt lat="45.40153" lon="6.12935">
        <ele>1653.4</ele>
        <time>2021-02-03T11:38:02Z</time>
      </trkpt>
      <trkpt lat="45.40152" lon="6.12935">
        <ele>1654.3</ele>
        <time>2021-02-03T11:38:03Z</time>
      </trkpt>
      <trkpt lat="45.40152" lon="6.12934">
        <ele>1654</ele>
        <time>2021-02-03T11:38:04Z</time>
      </trkpt>
      <trkpt lat="45.40152" lon="6.12934">
        <ele>1654</ele>
        <time>2021-02-03T11:38:05Z</time>
      </trkpt>
      <trkpt lat="45.40152" lon="6.12934">
        <ele>1654</ele>
        <time>2021-02-03T11:38:06Z</time>
      </trkpt>
      <trkpt lat="45.40152" lon="6.12934">
        <ele>1654</ele>
        <time>2021-02-03T11:38:07Z</time>
      </trkpt>
      <trkpt lat="45.40152" lon="6.12934">
        <ele>1654</ele>
        <time>2021-02-03T11:38:08Z</time>
      </trkpt>
      <trkpt lat="45.40154" lon="6.12932">
        <ele>1653.1</ele>
        <time>2021-02-03T11:38:09Z</time>
      </trkpt>
      <trkpt lat="45.40156" lon="6.12928">
        <ele>1651.8</ele>
        <time>2021-02-03T11:38:10Z</time>
      </trkpt>
      <trkpt lat="45.40158" lon="6.12923">
        <ele>1651.4</ele>
        <time>2021-02-03T11:38:11Z</time>
      </trkpt>
      <trkpt lat="45.4016" lon="6.12919">
        <ele>1649.9</ele>
        <time>2021-02-03T11:38:12Z</time>
      </trkpt>
      <trkpt lat="45.40162" lon="6.12914">
        <ele>1648.4</ele>
        <time>2021-02-03T11:38:13Z</time>
      </trkpt>
      <trkpt lat="45.40164" lon="6.1291">
        <ele>1647.8</ele>
        <time>2021-02-03T11:38:14Z</time>
      </trkpt>
      <trkpt lat="45.40167" lon="6.12909">
        <ele>1646.8</ele>
        <time>2021-02-03T11:38:15Z</time>
      </trkpt>
      <trkpt lat="45.40171" lon="6.12909">
        <ele>1644.7</ele>
        <time>2021-02-03T11:38:16Z</time>
      </trkpt>
      <trkpt lat="45.40175" lon="6.1291">
        <ele>1643.7</ele>
        <time>2021-02-03T11:38:17Z</time>
      </trkpt>
      <trkpt lat="45.4018" lon="6.12911">
        <ele>1641.9</ele>
        <time>2021-02-03T11:38:18Z</time>
      </trkpt>
      <trkpt lat="45.40184" lon="6.12911">
        <ele>1641.1</ele>
        <time>2021-02-03T11:38:19Z</time>
      </trkpt>
      <trkpt lat="45.40189" lon="6.12911">
        <ele>1640.2</ele>
        <time>2021-02-03T11:38:20Z</time>
      </trkpt>
      <trkpt lat="45.40192" lon="6.12912">
        <ele>1638.4</ele>
        <time>2021-02-03T11:38:21Z</time>
      </trkpt>
      <trkpt lat="45.40196" lon="6.12912">
        <ele>1637.5</ele>
        <time>2021-02-03T11:38:22Z</time>
      </trkpt>
      <trkpt lat="45.40198" lon="6.12912">
        <ele>1636.7</ele>
        <time>2021-02-03T11:38:23Z</time>
      </trkpt>
      <trkpt lat="45.40201" lon="6.12911">
        <ele>1636</ele>
        <time>2021-02-03T11:38:24Z</time>
      </trkpt>
      <trkpt lat="45.40205" lon="6.12911">
        <ele>1635.4</ele>
        <time>2021-02-03T11:38:25Z</time>
      </trkpt>
      <trkpt lat="45.40208" lon="6.12911">
        <ele>1634.8</ele>
        <time>2021-02-03T11:38:26Z</time>
      </trkpt>
      <trkpt lat="45.40212" lon="6.12911">
        <ele>1634.4</ele>
        <time>2021-02-03T11:38:27Z</time>
      </trkpt>
      <trkpt lat="45.40215" lon="6.12911">
        <ele>1633.9</ele>
        <time>2021-02-03T11:38:28Z</time>
      </trkpt>
      <trkpt lat="45.40219" lon="6.12911">
        <ele>1632.9</ele>
        <time>2021-02-03T11:38:29Z</time>
      </trkpt>
      <trkpt lat="45.40222" lon="6.1291">
        <ele>1632.5</ele>
        <time>2021-02-03T11:38:30Z</time>
      </trkpt>
      <trkpt lat="45.40225" lon="6.1291">
        <ele>1632.5</ele>
        <time>2021-02-03T11:38:31Z</time>
      </trkpt>
      <trkpt lat="45.40228" lon="6.12909">
        <ele>1631.9</ele>
        <time>2021-02-03T11:38:32Z</time>
      </trkpt>
      <trkpt lat="45.40231" lon="6.12909">
        <ele>1631.9</ele>
        <time>2021-02-03T11:38:33Z</time>
      </trkpt>
      <trkpt lat="45.40234" lon="6.12908">
        <ele>1631.2</ele>
        <time>2021-02-03T11:38:34Z</time>
      </trkpt>
      <trkpt lat="45.40237" lon="6.12907">
        <ele>1630.9</ele>
        <time>2021-02-03T11:38:35Z</time>
      </trkpt>
      <trkpt lat="45.40242" lon="6.12906">
        <ele>1630.7</ele>
        <time>2021-02-03T11:38:36Z</time>
      </trkpt>
      <trkpt lat="45.40245" lon="6.12906">
        <ele>1630.5</ele>
        <time>2021-02-03T11:38:37Z</time>
      </trkpt>
      <trkpt lat="45.40251" lon="6.12906">
        <ele>1630.2</ele>
        <time>2021-02-03T11:38:38Z</time>
      </trkpt>
      <trkpt lat="45.40254" lon="6.12912">
        <ele>1630.2</ele>
        <time>2021-02-03T11:38:39Z</time>
      </trkpt>
      <trkpt lat="45.4026" lon="6.12913">
        <ele>1629.9</ele>
        <time>2021-02-03T11:38:40Z</time>
      </trkpt>
      <trkpt lat="45.40265" lon="6.12912">
        <ele>1629.5</ele>
        <time>2021-02-03T11:38:41Z</time>
      </trkpt>
      <trkpt lat="45.4027" lon="6.12917">
        <ele>1629.5</ele>
        <time>2021-02-03T11:38:42Z</time>
      </trkpt>
      <trkpt lat="45.40275" lon="6.12919">
        <ele>1629.1</ele>
        <time>2021-02-03T11:38:43Z</time>
      </trkpt>
      <trkpt lat="45.40281" lon="6.12916">
        <ele>1628.6</ele>
        <time>2021-02-03T11:38:44Z</time>
      </trkpt>
      <trkpt lat="45.40285" lon="6.12913">
        <ele>1628.2</ele>
        <time>2021-02-03T11:38:45Z</time>
      </trkpt>
      <trkpt lat="45.4029" lon="6.12911">
        <ele>1628</ele>
        <time>2021-02-03T11:38:46Z</time>
      </trkpt>
      <trkpt lat="45.40295" lon="6.12912">
        <ele>1627.8</ele>
        <time>2021-02-03T11:38:47Z</time>
      </trkpt>
      <trkpt lat="45.4029" lon="6.12919">
        <ele>1628.1</ele>
        <time>2021-02-03T11:38:48Z</time>
      </trkpt>
      <trkpt lat="45.4029" lon="6.12918">
        <ele>1628.1</ele>
        <time>2021-02-03T11:38:49Z</time>
      </trkpt>
      <trkpt lat="45.40291" lon="6.12918">
        <ele>1628.1</ele>
        <time>2021-02-03T11:38:50Z</time>
      </trkpt>
      <trkpt lat="45.40292" lon="6.12919">
        <ele>1627.9</ele>
        <time>2021-02-03T11:38:51Z</time>
      </trkpt>
      <trkpt lat="45.40292" lon="6.12919">
        <ele>1627.9</ele>
        <time>2021-02-03T11:38:52Z</time>
      </trkpt>
      <trkpt lat="45.40293" lon="6.12919">
        <ele>1627.9</ele>
        <time>2021-02-03T11:38:53Z</time>
      </trkpt>
      <trkpt lat="45.40294" lon="6.12919">
        <ele>1627.8</ele>
        <time>2021-02-03T11:38:54Z</time>
      </trkpt>
      <trkpt lat="45.40295" lon="6.1292">
        <ele>1627.8</ele>
        <time>2021-02-03T11:38:55Z</time>
      </trkpt>
      <trkpt lat="45.40296" lon="6.1292">
        <ele>1627.8</ele>
        <time>2021-02-03T11:38:56Z</time>
      </trkpt>
      <trkpt lat="45.40297" lon="6.1292">
        <ele>1627.8</ele>
        <time>2021-02-03T11:38:57Z</time>
      </trkpt>
      <trkpt lat="45.40298" lon="6.12921">
        <ele>1627.6</ele>
        <time>2021-02-03T11:38:58Z</time>
      </trkpt>
      <trkpt lat="45.40298" lon="6.12921">
        <ele>1627.6</ele>
        <time>2021-02-03T11:38:59Z</time>
      </trkpt>
      <trkpt lat="45.40299" lon="6.12921">
        <ele>1627.5</ele>
        <time>2021-02-03T11:39:00Z</time>
      </trkpt>
      <trkpt lat="45.403" lon="6.12922">
        <ele>1627.3</ele>
        <time>2021-02-03T11:39:50Z</time>
      </trkpt>
      <trkpt lat="45.40301" lon="6.12922">
        <ele>1627.3</ele>
        <time>2021-02-03T11:39:51Z</time>
      </trkpt>
      <trkpt lat="45.40305" lon="6.12921">
        <ele>1627.1</ele>
        <time>2021-02-03T11:39:52Z</time>
      </trkpt>
      <trkpt lat="45.40309" lon="6.1292">
        <ele>1626.9</ele>
        <time>2021-02-03T11:39:53Z</time>
      </trkpt>
      <trkpt lat="45.40312" lon="6.12919">
        <ele>1626.3</ele>
        <time>2021-02-03T11:39:54Z</time>
      </trkpt>
      <trkpt lat="45.40316" lon="6.12921">
        <ele>1626.1</ele>
        <time>2021-02-03T11:39:55Z</time>
      </trkpt>
      <trkpt lat="45.4032" lon="6.12922">
        <ele>1625.6</ele>
        <time>2021-02-03T11:39:56Z</time>
      </trkpt>
      <trkpt lat="45.40324" lon="6.12922">
        <ele>1624.8</ele>
        <time>2021-02-03T11:39:57Z</time>
      </trkpt>
      <trkpt lat="45.40328" lon="6.12921">
        <ele>1624.4</ele>
        <time>2021-02-03T11:39:58Z</time>
      </trkpt>
      <trkpt lat="45.40332" lon="6.12924">
        <ele>1623.9</ele>
        <time>2021-02-03T11:39:59Z</time>
      </trkpt>
      <trkpt lat="45.40337" lon="6.12923">
        <ele>1622.9</ele>
        <time>2021-02-03T11:40:00Z</time>
      </trkpt>
      <trkpt lat="45.40343" lon="6.12921">
        <ele>1622.2</ele>
        <time>2021-02-03T11:40:01Z</time>
      </trkpt>
      <trkpt lat="45.40349" lon="6.12918">
        <ele>1621.2</ele>
        <time>2021-02-03T11:40:02Z</time>
      </trkpt>
      <trkpt lat="45.40356" lon="6.12916">
        <ele>1620.6</ele>
        <time>2021-02-03T11:40:03Z</time>
      </trkpt>
      <trkpt lat="45.40362" lon="6.12915">
        <ele>1619.4</ele>
        <time>2021-02-03T11:40:04Z</time>
      </trkpt>
      <trkpt lat="45.40369" lon="6.12916">
        <ele>1618.3</ele>
        <time>2021-02-03T11:40:05Z</time>
      </trkpt>
      <trkpt lat="45.40374" lon="6.12918">
        <ele>1616.7</ele>
        <time>2021-02-03T11:40:06Z</time>
      </trkpt>
      <trkpt lat="45.40379" lon="6.12922">
        <ele>1615.2</ele>
        <time>2021-02-03T11:40:07Z</time>
      </trkpt>
      <trkpt lat="45.40385" lon="6.12925">
        <ele>1614</ele>
        <time>2021-02-03T11:40:08Z</time>
      </trkpt>
      <trkpt lat="45.4039" lon="6.1293">
        <ele>1612.9</ele>
        <time>2021-02-03T11:40:09Z</time>
      </trkpt>
      <trkpt lat="45.40396" lon="6.12933">
        <ele>1611.3</ele>
        <time>2021-02-03T11:40:10Z</time>
      </trkpt>
      <trkpt lat="45.40402" lon="6.12937">
        <ele>1609.9</ele>
        <time>2021-02-03T11:40:11Z</time>
      </trkpt>
      <trkpt lat="45.40407" lon="6.1294">
        <ele>1608.6</ele>
        <time>2021-02-03T11:40:12Z</time>
      </trkpt>
      <trkpt lat="45.40412" lon="6.12944">
        <ele>1607.2</ele>
        <time>2021-02-03T11:40:13Z</time>
      </trkpt>
      <trkpt lat="45.40417" lon="6.12947">
        <ele>1606.6</ele>
        <time>2021-02-03T11:40:14Z</time>
      </trkpt>
      <trkpt lat="45.40423" lon="6.12951">
        <ele>1604.8</ele>
        <time>2021-02-03T11:40:15Z</time>
      </trkpt>
      <trkpt lat="45.40427" lon="6.12956">
        <ele>1603.4</ele>
        <time>2021-02-03T11:40:16Z</time>
      </trkpt>
      <trkpt lat="45.40432" lon="6.1296">
        <ele>1602.5</ele>
        <time>2021-02-03T11:40:17Z</time>
      </trkpt>
      <trkpt lat="45.40437" lon="6.12963">
        <ele>1601.7</ele>
        <time>2021-02-03T11:40:18Z</time>
      </trkpt>
      <trkpt lat="45.40442" lon="6.12966">
        <ele>1600.5</ele>
        <time>2021-02-03T11:40:19Z</time>
      </trkpt>
      <trkpt lat="45.40448" lon="6.12968">
        <ele>1599.6</ele>
        <time>2021-02-03T11:40:20Z</time>
      </trkpt>
      <trkpt lat="45.40453" lon="6.12971">
        <ele>1598.8</ele>
        <time>2021-02-03T11:40:21Z</time>
      </trkpt>
      <trkpt lat="45.40459" lon="6.12974">
        <ele>1597.6</ele>
        <time>2021-02-03T11:40:22Z</time>
      </trkpt>
      <trkpt lat="45.40464" lon="6.12976">
        <ele>1596.9</ele>
        <time>2021-02-03T11:40:23Z</time>
      </trkpt>
      <trkpt lat="45.40468" lon="6.1298">
        <ele>1596</ele>
        <time>2021-02-03T11:40:24Z</time>
      </trkpt>
      <trkpt lat="45.40474" lon="6.12983">
        <ele>1594.7</ele>
        <time>2021-02-03T11:40:25Z</time>
      </trkpt>
      <trkpt lat="45.40478" lon="6.12988">
        <ele>1593.4</ele>
        <time>2021-02-03T11:40:26Z</time>
      </trkpt>
      <trkpt lat="45.40482" lon="6.12995">
        <ele>1592.4</ele>
        <time>2021-02-03T11:40:27Z</time>
      </trkpt>
      <trkpt lat="45.40487" lon="6.12995">
        <ele>1591.8</ele>
        <time>2021-02-03T11:40:28Z</time>
      </trkpt>
      <trkpt lat="45.40492" lon="6.13">
        <ele>1591.1</ele>
        <time>2021-02-03T11:40:29Z</time>
      </trkpt>
      <trkpt lat="45.40498" lon="6.13002">
        <ele>1590.4</ele>
        <time>2021-02-03T11:40:30Z</time>
      </trkpt>
      <trkpt lat="45.40504" lon="6.13004">
        <ele>1589.2</ele>
        <time>2021-02-03T11:40:31Z</time>
      </trkpt>
      <trkpt lat="45.40508" lon="6.13006">
        <ele>1588.9</ele>
        <time>2021-02-03T11:40:32Z</time>
      </trkpt>
      <trkpt lat="45.40513" lon="6.13009">
        <ele>1587.7</ele>
        <time>2021-02-03T11:40:33Z</time>
      </trkpt>
      <trkpt lat="45.40521" lon="6.13008">
        <ele>1586.4</ele>
        <time>2021-02-03T11:40:34Z</time>
      </trkpt>
      <trkpt lat="45.40528" lon="6.1301">
        <ele>1585.4</ele>
        <time>2021-02-03T11:40:35Z</time>
      </trkpt>
      <trkpt lat="45.40532" lon="6.13015">
        <ele>1584.5</ele>
        <time>2021-02-03T11:40:36Z</time>
      </trkpt>
      <trkpt lat="45.40537" lon="6.13019">
        <ele>1583.1</ele>
        <time>2021-02-03T11:40:37Z</time>
      </trkpt>
      <trkpt lat="45.40542" lon="6.13022">
        <ele>1581.9</ele>
        <time>2021-02-03T11:40:38Z</time>
      </trkpt>
      <trkpt lat="45.40547" lon="6.13027">
        <ele>1581.2</ele>
        <time>2021-02-03T11:40:39Z</time>
      </trkpt>
      <trkpt lat="45.40549" lon="6.13036">
        <ele>1580.3</ele>
        <time>2021-02-03T11:40:40Z</time>
      </trkpt>
      <trkpt lat="45.40553" lon="6.13044">
        <ele>1579</ele>
        <time>2021-02-03T11:40:41Z</time>
      </trkpt>
      <trkpt lat="45.40558" lon="6.1305">
        <ele>1577.4</ele>
        <time>2021-02-03T11:40:42Z</time>
      </trkpt>
      <trkpt lat="45.40564" lon="6.13057">
        <ele>1576.1</ele>
        <time>2021-02-03T11:40:43Z</time>
      </trkpt>
      <trkpt lat="45.40567" lon="6.13065">
        <ele>1574.7</ele>
        <time>2021-02-03T11:40:44Z</time>
      </trkpt>
      <trkpt lat="45.40569" lon="6.13074">
        <ele>1573.3</ele>
        <time>2021-02-03T11:40:45Z</time>
      </trkpt>
      <trkpt lat="45.40572" lon="6.13081">
        <ele>1571.8</ele>
        <time>2021-02-03T11:40:46Z</time>
      </trkpt>
      <trkpt lat="45.40576" lon="6.13087">
        <ele>1570.9</ele>
        <time>2021-02-03T11:40:47Z</time>
      </trkpt>
      <trkpt lat="45.40577" lon="6.13094">
        <ele>1569.7</ele>
        <time>2021-02-03T11:40:48Z</time>
      </trkpt>
      <trkpt lat="45.4058" lon="6.13101">
        <ele>1568.7</ele>
        <time>2021-02-03T11:40:49Z</time>
      </trkpt>
      <trkpt lat="45.40583" lon="6.13105">
        <ele>1567.7</ele>
        <time>2021-02-03T11:40:50Z</time>
      </trkpt>
      <trkpt lat="45.40584" lon="6.13111">
        <ele>1566</ele>
        <time>2021-02-03T11:40:51Z</time>
      </trkpt>
      <trkpt lat="45.40586" lon="6.13117">
        <ele>1564.9</ele>
        <time>2021-02-03T11:40:52Z</time>
      </trkpt>
      <trkpt lat="45.4059" lon="6.13121">
        <ele>1563.9</ele>
        <time>2021-02-03T11:40:53Z</time>
      </trkpt>
      <trkpt lat="45.40594" lon="6.13126">
        <ele>1562.9</ele>
        <time>2021-02-03T11:40:54Z</time>
      </trkpt>
      <trkpt lat="45.40598" lon="6.1313">
        <ele>1561.8</ele>
        <time>2021-02-03T11:40:55Z</time>
      </trkpt>
      <trkpt lat="45.40602" lon="6.13134">
        <ele>1560.3</ele>
        <time>2021-02-03T11:40:56Z</time>
      </trkpt>
      <trkpt lat="45.40605" lon="6.13136">
        <ele>1559.8</ele>
        <time>2021-02-03T11:40:57Z</time>
      </trkpt>
      <trkpt lat="45.40609" lon="6.13139">
        <ele>1558.7</ele>
        <time>2021-02-03T11:40:58Z</time>
      </trkpt>
      <trkpt lat="45.40612" lon="6.13142">
        <ele>1557.7</ele>
        <time>2021-02-03T11:40:59Z</time>
      </trkpt>
      <trkpt lat="45.40616" lon="6.13145">
        <ele>1556.6</ele>
        <time>2021-02-03T11:41:00Z</time>
      </trkpt>
      <trkpt lat="45.40619" lon="6.13146">
        <ele>1555.6</ele>
        <time>2021-02-03T11:41:01Z</time>
      </trkpt>
      <trkpt lat="45.40621" lon="6.13143">
        <ele>1555.5</ele>
        <time>2021-02-03T11:41:02Z</time>
      </trkpt>
      <trkpt lat="45.40622" lon="6.13142">
        <ele>1555.5</ele>
        <time>2021-02-03T11:41:03Z</time>
      </trkpt>
      <trkpt lat="45.40623" lon="6.1314">
        <ele>1555</ele>
        <time>2021-02-03T11:41:04Z</time>
      </trkpt>
      <trkpt lat="45.40622" lon="6.1314">
        <ele>1555.5</ele>
        <time>2021-02-03T11:41:05Z</time>
      </trkpt>
      <trkpt lat="45.40622" lon="6.1314">
        <ele>1555.5</ele>
        <time>2021-02-03T11:41:06Z</time>
      </trkpt>
      <trkpt lat="45.40622" lon="6.1314">
        <ele>1555.5</ele>
        <time>2021-02-03T11:41:07Z</time>
      </trkpt>
      <trkpt lat="45.40622" lon="6.1314">
        <ele>1555.5</ele>
        <time>2021-02-03T11:41:08Z</time>
      </trkpt>
      <trkpt lat="45.40622" lon="6.1314">
        <ele>1555.5</ele>
        <time>2021-02-03T11:41:09Z</time>
      </trkpt>
      <trkpt lat="45.40622" lon="6.1314">
        <ele>1555.5</ele>
        <time>2021-02-03T11:41:10Z</time>
      </trkpt>
      <trkpt lat="45.40622" lon="6.1314">
        <ele>1555.5</ele>
        <time>2021-02-03T11:41:11Z</time>
      </trkpt>
      <trkpt lat="45.40622" lon="6.1314">
        <ele>1555.5</ele>
        <time>2021-02-03T11:41:12Z</time>
      </trkpt>
      <trkpt lat="45.40622" lon="6.1314">
        <ele>1555.5</ele>
        <time>2021-02-03T11:41:13Z</time>
      </trkpt>
      <trkpt lat="45.40622" lon="6.1314">
        <ele>1555.5</ele>
        <time>2021-02-03T11:41:14Z</time>
      </trkpt>
      <trkpt lat="45.40622" lon="6.1314">
        <ele>1555.5</ele>
        <time>2021-02-03T11:41:15Z</time>
      </trkpt>
    </trkseg>
  </trk>
</gpx>